<?xml version='1.0' encoding='UTF-8'?><gpx version="1.1" creator="JPX - https://github.com/jenetics/jpx" xmlns="http://www.topografix.com/GPX/1/1"><trk><trkseg><trkpt lat="44.140464" lon="8.0926612"><ele>363.0</ele><time>2026-04-18T14:20:45.58Z</time></trkpt><trkpt lat="44.1403886" lon="8.0925274"><ele>363.0</ele><time>2026-04-18T14:20:47.58Z</time></trkpt><trkpt lat="44.1403682" lon="8.0924274"><ele>363.0</ele><time>2026-04-18T14:20:48.58Z</time></trkpt><trkpt lat="44.1403661" lon="8.0923141"><ele>363.0</ele><time>2026-04-18T14:20:49.579Z</time></trkpt><trkpt lat="44.1403797" lon="8.0921709"><ele>363.0</ele><time>2026-04-18T14:20:50.579Z</time></trkpt><trkpt lat="44.1404043" lon="8.0920439"><ele>363.75</ele><time>2026-04-18T14:20:51.579Z</time></trkpt><trkpt lat="44.1404398" lon="8.0919093"><ele>364.5</ele><time>2026-04-18T14:20:52.581Z</time></trkpt><trkpt lat="44.1404991" lon="8.0917607"><ele>365.25</ele><time>2026-04-18T14:20:53.579Z</time></trkpt><trkpt lat="44.1405804" lon="8.0916184"><ele>366.0</ele><time>2026-04-18T14:20:54.581Z</time></trkpt><trkpt lat="44.1406679" lon="8.0914949"><ele>372.5</ele><time>2026-04-18T14:20:55.579Z</time></trkpt><trkpt lat="44.1407645" lon="8.0913621"><ele>379.0</ele><time>2026-04-18T14:20:56.579Z</time></trkpt><trkpt lat="44.1408612" lon="8.091222"><ele>385.5</ele><time>2026-04-18T14:20:57.579Z</time></trkpt><trkpt lat="44.1409609" lon="8.0910856"><ele>392.0</ele><time>2026-04-18T14:20:58.579Z</time></trkpt><trkpt lat="44.1410581" lon="8.0909576"><ele>392.0</ele><time>2026-04-18T14:20:59.581Z</time></trkpt><trkpt lat="44.1411543" lon="8.0908196"><ele>392.0</ele><time>2026-04-18T14:21:00.58Z</time></trkpt><trkpt lat="44.1412048" lon="8.0905973"><ele>392.0</ele><time>2026-04-18T14:21:01.579Z</time></trkpt><trkpt lat="44.1412584" lon="8.09039"><ele>390.0</ele><time>2026-04-18T14:21:02.579Z</time></trkpt><trkpt lat="44.1412857" lon="8.0900926"><ele>388.0</ele><time>2026-04-18T14:21:03.581Z</time></trkpt><trkpt lat="44.1413155" lon="8.0898332"><ele>386.0</ele><time>2026-04-18T14:21:04.579Z</time></trkpt><trkpt lat="44.1413404" lon="8.0895765"><ele>384.3333333333333</ele><time>2026-04-18T14:21:05.579Z</time></trkpt><trkpt lat="44.1413652" lon="8.0893337"><ele>382.66666666666663</ele><time>2026-04-18T14:21:06.58Z</time></trkpt><trkpt lat="44.1414028" lon="8.0891129"><ele>381.0</ele><time>2026-04-18T14:21:07.579Z</time></trkpt><trkpt lat="44.1414585" lon="8.0888946"><ele>390.33333333333337</ele><time>2026-04-18T14:21:08.58Z</time></trkpt><trkpt lat="44.1415573" lon="8.0887051"><ele>399.6666666666667</ele><time>2026-04-18T14:21:09.58Z</time></trkpt><trkpt lat="44.1416546" lon="8.0885231"><ele>409.0</ele><time>2026-04-18T14:21:10.58Z</time></trkpt><trkpt lat="44.1417247" lon="8.0883165"><ele>404.33333333333337</ele><time>2026-04-18T14:21:11.58Z</time></trkpt><trkpt lat="44.1417995" lon="8.0881169"><ele>399.66666666666663</ele><time>2026-04-18T14:21:12.579Z</time></trkpt><trkpt lat="44.1418807" lon="8.0879343"><ele>395.0</ele><time>2026-04-18T14:21:13.581Z</time></trkpt><trkpt lat="44.1419876" lon="8.0877791"><ele>395.0</ele><time>2026-04-18T14:21:14.579Z</time></trkpt><trkpt lat="44.1421089" lon="8.0876644"><ele>395.0</ele><time>2026-04-18T14:21:15.58Z</time></trkpt><trkpt lat="44.1422614" lon="8.087597"><ele>395.0</ele><time>2026-04-18T14:21:16.579Z</time></trkpt><trkpt lat="44.1423958" lon="8.0874925"><ele>397.75</ele><time>2026-04-18T14:21:17.58Z</time></trkpt><trkpt lat="44.142504" lon="8.087344"><ele>400.5</ele><time>2026-04-18T14:21:18.58Z</time></trkpt><trkpt lat="44.1426168" lon="8.0872464"><ele>403.25</ele><time>2026-04-18T14:21:19.579Z</time></trkpt><trkpt lat="44.1427184" lon="8.0871539"><ele>406.0</ele><time>2026-04-18T14:21:20.579Z</time></trkpt><trkpt lat="44.1428211" lon="8.0870586"><ele>406.0</ele><time>2026-04-18T14:21:21.58Z</time></trkpt><trkpt lat="44.1428291" lon="8.0868719"><ele>406.0</ele><time>2026-04-18T14:21:22.58Z</time></trkpt><trkpt lat="44.1428458" lon="8.0867022"><ele>406.0</ele><time>2026-04-18T14:21:23.581Z</time></trkpt><trkpt lat="44.1428829" lon="8.0865263"><ele>406.0</ele><time>2026-04-18T14:21:24.58Z</time></trkpt><trkpt lat="44.1430196" lon="8.0864129"><ele>401.6666666666667</ele><time>2026-04-18T14:21:25.579Z</time></trkpt><trkpt lat="44.1431277" lon="8.0862555"><ele>397.33333333333337</ele><time>2026-04-18T14:21:26.579Z</time></trkpt><trkpt lat="44.1432173" lon="8.0860926"><ele>393.0</ele><time>2026-04-18T14:21:27.579Z</time></trkpt><trkpt lat="44.1433042" lon="8.0858996"><ele>400.0</ele><time>2026-04-18T14:21:28.58Z</time></trkpt><trkpt lat="44.1434038" lon="8.0857188"><ele>407.0</ele><time>2026-04-18T14:21:29.58Z</time></trkpt><trkpt lat="44.1435015" lon="8.0855325"><ele>414.0</ele><time>2026-04-18T14:21:30.579Z</time></trkpt><trkpt lat="44.1435993" lon="8.0853286"><ele>414.0</ele><time>2026-04-18T14:21:31.579Z</time></trkpt><trkpt lat="44.1436955" lon="8.0851238"><ele>414.0</ele><time>2026-04-18T14:21:32.579Z</time></trkpt><trkpt lat="44.14378" lon="8.0849196"><ele>414.0</ele><time>2026-04-18T14:21:33.579Z</time></trkpt><trkpt lat="44.1438446" lon="8.0846759"><ele>408.66666666666663</ele><time>2026-04-18T14:21:34.58Z</time></trkpt><trkpt lat="44.143944" lon="8.0844811"><ele>403.3333333333333</ele><time>2026-04-18T14:21:35.58Z</time></trkpt><trkpt lat="44.1440211" lon="8.0842722"><ele>398.0</ele><time>2026-04-18T14:21:36.58Z</time></trkpt><trkpt lat="44.1440702" lon="8.0840411"><ele>412.3333333333333</ele><time>2026-04-18T14:21:37.579Z</time></trkpt><trkpt lat="44.1441193" lon="8.0837985"><ele>426.66666666666663</ele><time>2026-04-18T14:21:38.58Z</time></trkpt><trkpt lat="44.1441584" lon="8.0835543"><ele>441.0</ele><time>2026-04-18T14:21:39.579Z</time></trkpt><trkpt lat="44.1441973" lon="8.0833112"><ele>439.33333333333337</ele><time>2026-04-18T14:21:40.579Z</time></trkpt><trkpt lat="44.1442397" lon="8.0830757"><ele>437.6666666666667</ele><time>2026-04-18T14:21:41.579Z</time></trkpt><trkpt lat="44.1442445" lon="8.0828676"><ele>436.0</ele><time>2026-04-18T14:21:42.58Z</time></trkpt><trkpt lat="44.1442521" lon="8.0826612"><ele>436.0</ele><time>2026-04-18T14:21:43.58Z</time></trkpt><trkpt lat="44.1442573" lon="8.0824758"><ele>436.0</ele><time>2026-04-18T14:21:44.58Z</time></trkpt><trkpt lat="44.1442926" lon="8.0823003"><ele>436.0</ele><time>2026-04-18T14:21:45.579Z</time></trkpt><trkpt lat="44.1443395" lon="8.0821192"><ele>436.0</ele><time>2026-04-18T14:21:46.58Z</time></trkpt><trkpt lat="44.1443748" lon="8.0819619"><ele>432.25</ele><time>2026-04-18T14:21:47.579Z</time></trkpt><trkpt lat="44.1444502" lon="8.0818094"><ele>428.5</ele><time>2026-04-18T14:21:48.58Z</time></trkpt><trkpt lat="44.1445433" lon="8.0816583"><ele>424.75</ele><time>2026-04-18T14:21:49.579Z</time></trkpt><trkpt lat="44.1446481" lon="8.08152"><ele>421.0</ele><time>2026-04-18T14:21:50.581Z</time></trkpt><trkpt lat="44.1447708" lon="8.0814071"><ele>426.25</ele><time>2026-04-18T14:21:51.58Z</time></trkpt><trkpt lat="44.1448889" lon="8.0813016"><ele>431.5</ele><time>2026-04-18T14:21:52.58Z</time></trkpt><trkpt lat="44.1450109" lon="8.0812338"><ele>436.75</ele><time>2026-04-18T14:21:53.579Z</time></trkpt><trkpt lat="44.1451156" lon="8.0811404"><ele>442.0</ele><time>2026-04-18T14:21:54.579Z</time></trkpt><trkpt lat="44.1451722" lon="8.0809751"><ele>442.0</ele><time>2026-04-18T14:21:55.58Z</time></trkpt><trkpt lat="44.1452381" lon="8.0808197"><ele>442.00000000000006</ele><time>2026-04-18T14:21:56.579Z</time></trkpt><trkpt lat="44.145302" lon="8.0806985"><ele>442.00000000000006</ele><time>2026-04-18T14:21:57.579Z</time></trkpt><trkpt lat="44.1453679" lon="8.0805792"><ele>442.0</ele><time>2026-04-18T14:21:58.58Z</time></trkpt><trkpt lat="44.1454544" lon="8.0805423"><ele>442.0</ele><time>2026-04-18T14:21:59.581Z</time></trkpt><trkpt lat="44.1455655" lon="8.0805041"><ele>445.6666666666667</ele><time>2026-04-18T14:22:00.579Z</time></trkpt><trkpt lat="44.1456804" lon="8.0805518"><ele>449.33333333333337</ele><time>2026-04-18T14:22:01.581Z</time></trkpt><trkpt lat="44.145761" lon="8.0808016"><ele>453.0</ele><time>2026-04-18T14:22:02.58Z</time></trkpt><trkpt lat="44.1459446" lon="8.0809341"><ele>453.0</ele><time>2026-04-18T14:22:03.58Z</time></trkpt><trkpt lat="44.1460823" lon="8.0810591"><ele>453.0</ele><time>2026-04-18T14:22:04.579Z</time></trkpt><trkpt lat="44.1462469" lon="8.0811301"><ele>453.0</ele><time>2026-04-18T14:22:05.579Z</time></trkpt><trkpt lat="44.1464084" lon="8.0811706"><ele>449.33333333333337</ele><time>2026-04-18T14:22:06.579Z</time></trkpt><trkpt lat="44.1465729" lon="8.0811635"><ele>445.6666666666667</ele><time>2026-04-18T14:22:07.581Z</time></trkpt><trkpt lat="44.146717" lon="8.0811411"><ele>442.0</ele><time>2026-04-18T14:22:08.58Z</time></trkpt><trkpt lat="44.1468582" lon="8.0811445"><ele>442.0</ele><time>2026-04-18T14:22:09.579Z</time></trkpt><trkpt lat="44.1469856" lon="8.0811792"><ele>442.0</ele><time>2026-04-18T14:22:10.579Z</time></trkpt><trkpt lat="44.14711" lon="8.0812472"><ele>442.0</ele><time>2026-04-18T14:22:11.581Z</time></trkpt><trkpt lat="44.1472539" lon="8.0813667"><ele>442.0</ele><time>2026-04-18T14:22:12.58Z</time></trkpt><trkpt lat="44.1473147" lon="8.0816561"><ele>440.6666666666667</ele><time>2026-04-18T14:22:13.581Z</time></trkpt><trkpt lat="44.1474106" lon="8.0818291"><ele>439.33333333333337</ele><time>2026-04-18T14:22:14.58Z</time></trkpt><trkpt lat="44.1474978" lon="8.0820535"><ele>438.0</ele><time>2026-04-18T14:22:15.579Z</time></trkpt><trkpt lat="44.1475948" lon="8.0822663"><ele>445.33333333333337</ele><time>2026-04-18T14:22:16.579Z</time></trkpt><trkpt lat="44.1476927" lon="8.082458"><ele>452.6666666666667</ele><time>2026-04-18T14:22:17.579Z</time></trkpt><trkpt lat="44.1477538" lon="8.0826848"><ele>460.0</ele><time>2026-04-18T14:22:18.58Z</time></trkpt><trkpt lat="44.1478546" lon="8.0828414"><ele>460.0</ele><time>2026-04-18T14:22:19.581Z</time></trkpt><trkpt lat="44.1479655" lon="8.0830213"><ele>460.0</ele><time>2026-04-18T14:22:20.58Z</time></trkpt><trkpt lat="44.1480853" lon="8.0831532"><ele>460.0</ele><time>2026-04-18T14:22:21.58Z</time></trkpt><trkpt lat="44.1482338" lon="8.0832495"><ele>455.25</ele><time>2026-04-18T14:22:22.579Z</time></trkpt><trkpt lat="44.1483746" lon="8.083301"><ele>450.5</ele><time>2026-04-18T14:22:23.58Z</time></trkpt><trkpt lat="44.1485082" lon="8.0833506"><ele>445.75</ele><time>2026-04-18T14:22:24.581Z</time></trkpt><trkpt lat="44.1486335" lon="8.0832685"><ele>441.0</ele><time>2026-04-18T14:22:25.581Z</time></trkpt><trkpt lat="44.1487617" lon="8.0832401"><ele>441.0</ele><time>2026-04-18T14:22:26.579Z</time></trkpt><trkpt lat="44.1489079" lon="8.0832398"><ele>441.0</ele><time>2026-04-18T14:22:27.58Z</time></trkpt><trkpt lat="44.1490364" lon="8.0832826"><ele>441.0</ele><time>2026-04-18T14:22:28.579Z</time></trkpt><trkpt lat="44.1491625" lon="8.0833871"><ele>441.0</ele><time>2026-04-18T14:22:29.579Z</time></trkpt><trkpt lat="44.1492713" lon="8.0835355"><ele>436.33333333333337</ele><time>2026-04-18T14:22:30.579Z</time></trkpt><trkpt lat="44.1493948" lon="8.0836892"><ele>431.6666666666667</ele><time>2026-04-18T14:22:31.58Z</time></trkpt><trkpt lat="44.1495253" lon="8.0838359"><ele>427.0</ele><time>2026-04-18T14:22:32.58Z</time></trkpt><trkpt lat="44.1496606" lon="8.0839423"><ele>427.0</ele><time>2026-04-18T14:22:33.581Z</time></trkpt><trkpt lat="44.149794" lon="8.0840525"><ele>427.0</ele><time>2026-04-18T14:22:34.579Z</time></trkpt><trkpt lat="44.1499891" lon="8.0839964"><ele>427.0</ele><time>2026-04-18T14:22:35.581Z</time></trkpt><trkpt lat="44.1501525" lon="8.084016"><ele>426.0</ele><time>2026-04-18T14:22:36.581Z</time></trkpt><trkpt lat="44.1503351" lon="8.083996"><ele>425.0</ele><time>2026-04-18T14:22:37.579Z</time></trkpt><trkpt lat="44.1504965" lon="8.0840294"><ele>424.0</ele><time>2026-04-18T14:22:38.579Z</time></trkpt><trkpt lat="44.1506545" lon="8.0840789"><ele>426.0</ele><time>2026-04-18T14:22:39.579Z</time></trkpt><trkpt lat="44.1507722" lon="8.0841755"><ele>428.0</ele><time>2026-04-18T14:22:40.579Z</time></trkpt><trkpt lat="44.1508679" lon="8.0842611"><ele>430.0</ele><time>2026-04-18T14:22:41.579Z</time></trkpt><trkpt lat="44.150957" lon="8.0843732"><ele>432.0</ele><time>2026-04-18T14:22:42.58Z</time></trkpt><trkpt lat="44.1509921" lon="8.0844639"><ele>434.0</ele><time>2026-04-18T14:22:43.58Z</time></trkpt><trkpt lat="44.15108" lon="8.0844669"><ele>434.0</ele><time>2026-04-18T14:22:44.579Z</time></trkpt><trkpt lat="44.1511649" lon="8.0844898"><ele>434.0</ele><time>2026-04-18T14:22:45.579Z</time></trkpt><trkpt lat="44.1511649" lon="8.0843841"><ele>434.0</ele><time>2026-04-18T14:22:46.58Z</time></trkpt><trkpt lat="44.1512057" lon="8.0842577"><ele>434.0</ele><time>2026-04-18T14:22:47.579Z</time></trkpt><trkpt lat="44.151208" lon="8.08406"><ele>434.0</ele><time>2026-04-18T14:22:48.579Z</time></trkpt><trkpt lat="44.1513032" lon="8.0839716"><ele>435.25</ele><time>2026-04-18T14:22:49.58Z</time></trkpt><trkpt lat="44.1513909" lon="8.0839129"><ele>436.5</ele><time>2026-04-18T14:22:50.579Z</time></trkpt><trkpt lat="44.1515011" lon="8.083912"><ele>437.75</ele><time>2026-04-18T14:22:51.579Z</time></trkpt><trkpt lat="44.1516333" lon="8.0838863"><ele>439.0</ele><time>2026-04-18T14:22:52.579Z</time></trkpt><trkpt lat="44.1517744" lon="8.083864"><ele>439.33333333333337</ele><time>2026-04-18T14:22:53.58Z</time></trkpt><trkpt lat="44.1519342" lon="8.0838541"><ele>439.66666666666663</ele><time>2026-04-18T14:22:54.581Z</time></trkpt><trkpt lat="44.152085" lon="8.0838166"><ele>440.0</ele><time>2026-04-18T14:22:55.579Z</time></trkpt><trkpt lat="44.152234" lon="8.0837788"><ele>443.66666666666663</ele><time>2026-04-18T14:22:56.581Z</time></trkpt><trkpt lat="44.1523801" lon="8.0837012"><ele>447.33333333333337</ele><time>2026-04-18T14:22:57.58Z</time></trkpt><trkpt lat="44.1525164" lon="8.0835457"><ele>451.0</ele><time>2026-04-18T14:22:58.58Z</time></trkpt><trkpt lat="44.1526113" lon="8.0834001"><ele>451.0</ele><time>2026-04-18T14:22:59.579Z</time></trkpt><trkpt lat="44.1527121" lon="8.0833244"><ele>451.0</ele><time>2026-04-18T14:23:00.579Z</time></trkpt><trkpt lat="44.1528105" lon="8.0832118"><ele>451.0</ele><time>2026-04-18T14:23:01.581Z</time></trkpt><trkpt lat="44.1528639" lon="8.08303"><ele>451.0</ele><time>2026-04-18T14:23:02.579Z</time></trkpt><trkpt lat="44.1529605" lon="8.0828966"><ele>452.5</ele><time>2026-04-18T14:23:03.579Z</time></trkpt><trkpt lat="44.1530614" lon="8.0827912"><ele>454.0</ele><time>2026-04-18T14:23:04.579Z</time></trkpt><trkpt lat="44.153167" lon="8.0826705"><ele>455.5</ele><time>2026-04-18T14:23:05.58Z</time></trkpt><trkpt lat="44.1533017" lon="8.0825594"><ele>457.0</ele><time>2026-04-18T14:23:06.579Z</time></trkpt><trkpt lat="44.1534417" lon="8.0824424"><ele>464.0</ele><time>2026-04-18T14:23:07.58Z</time></trkpt><trkpt lat="44.153565" lon="8.082312"><ele>471.0</ele><time>2026-04-18T14:23:08.579Z</time></trkpt><trkpt lat="44.1537252" lon="8.0821904"><ele>478.0</ele><time>2026-04-18T14:23:09.579Z</time></trkpt><trkpt lat="44.1538437" lon="8.0820518"><ele>478.0</ele><time>2026-04-18T14:23:10.581Z</time></trkpt><trkpt lat="44.1539896" lon="8.0819554"><ele>478.0</ele><time>2026-04-18T14:23:11.58Z</time></trkpt><trkpt lat="44.1541696" lon="8.0819275"><ele>478.0</ele><time>2026-04-18T14:23:12.579Z</time></trkpt><trkpt lat="44.1543219" lon="8.0819244"><ele>475.0</ele><time>2026-04-18T14:23:13.579Z</time></trkpt><trkpt lat="44.1544815" lon="8.0819263"><ele>472.0</ele><time>2026-04-18T14:23:14.58Z</time></trkpt><trkpt lat="44.1546425" lon="8.0819689"><ele>469.0</ele><time>2026-04-18T14:23:15.58Z</time></trkpt><trkpt lat="44.1548078" lon="8.0819332"><ele>469.6666666666667</ele><time>2026-04-18T14:23:16.581Z</time></trkpt><trkpt lat="44.1549719" lon="8.0819079"><ele>470.33333333333337</ele><time>2026-04-18T14:23:17.579Z</time></trkpt><trkpt lat="44.1551402" lon="8.0817751"><ele>471.0</ele><time>2026-04-18T14:23:18.579Z</time></trkpt><trkpt lat="44.155312" lon="8.0816952"><ele>471.0</ele><time>2026-04-18T14:23:19.579Z</time></trkpt><trkpt lat="44.1554729" lon="8.0816022"><ele>471.0</ele><time>2026-04-18T14:23:20.579Z</time></trkpt><trkpt lat="44.155639" lon="8.081521"><ele>471.0</ele><time>2026-04-18T14:23:21.58Z</time></trkpt><trkpt lat="44.1557847" lon="8.0814609"><ele>472.25</ele><time>2026-04-18T14:23:22.58Z</time></trkpt><trkpt lat="44.1559097" lon="8.0813892"><ele>473.5</ele><time>2026-04-18T14:23:23.58Z</time></trkpt><trkpt lat="44.1560278" lon="8.0813122"><ele>474.75</ele><time>2026-04-18T14:23:24.58Z</time></trkpt><trkpt lat="44.1561411" lon="8.081254"><ele>476.0</ele><time>2026-04-18T14:23:25.581Z</time></trkpt><trkpt lat="44.1561232" lon="8.0810729"><ele>476.0</ele><time>2026-04-18T14:23:26.581Z</time></trkpt><trkpt lat="44.1559893" lon="8.0809604"><ele>476.0</ele><time>2026-04-18T14:23:27.58Z</time></trkpt><trkpt lat="44.1559249" lon="8.0808271"><ele>476.0</ele><time>2026-04-18T14:23:28.579Z</time></trkpt><trkpt lat="44.155784" lon="8.0808282"><ele>476.0</ele><time>2026-04-18T14:23:29.579Z</time></trkpt><trkpt lat="44.1556507" lon="8.0808442"><ele>475.75</ele><time>2026-04-18T14:23:30.579Z</time></trkpt><trkpt lat="44.1555122" lon="8.080829"><ele>475.5</ele><time>2026-04-18T14:23:31.579Z</time></trkpt><trkpt lat="44.1553734" lon="8.0808135"><ele>475.25</ele><time>2026-04-18T14:23:32.58Z</time></trkpt><trkpt lat="44.155255" lon="8.0807768"><ele>475.0</ele><time>2026-04-18T14:23:33.58Z</time></trkpt><trkpt lat="44.155166" lon="8.0806598"><ele>480.75</ele><time>2026-04-18T14:23:34.581Z</time></trkpt><trkpt lat="44.1550352" lon="8.0806239"><ele>486.5</ele><time>2026-04-18T14:23:35.581Z</time></trkpt><trkpt lat="44.1549122" lon="8.0805989"><ele>492.25</ele><time>2026-04-18T14:23:36.58Z</time></trkpt><trkpt lat="44.1547623" lon="8.0806558"><ele>498.0</ele><time>2026-04-18T14:23:37.58Z</time></trkpt><trkpt lat="44.1545984" lon="8.0807259"><ele>496.0</ele><time>2026-04-18T14:23:38.58Z</time></trkpt><trkpt lat="44.154433" lon="8.0807896"><ele>494.0</ele><time>2026-04-18T14:23:39.58Z</time></trkpt><trkpt lat="44.1542687" lon="8.0808114"><ele>492.0</ele><time>2026-04-18T14:23:40.579Z</time></trkpt><trkpt lat="44.1541044" lon="8.0808716"><ele>497.33333333333337</ele><time>2026-04-18T14:23:41.581Z</time></trkpt><trkpt lat="44.1539306" lon="8.0809215"><ele>502.6666666666667</ele><time>2026-04-18T14:23:42.579Z</time></trkpt><trkpt lat="44.1537498" lon="8.0810018"><ele>508.0</ele><time>2026-04-18T14:23:43.58Z</time></trkpt><trkpt lat="44.1535888" lon="8.0810861"><ele>508.0</ele><time>2026-04-18T14:23:44.58Z</time></trkpt><trkpt lat="44.1534516" lon="8.081137"><ele>508.0</ele><time>2026-04-18T14:23:45.58Z</time></trkpt><trkpt lat="44.1533096" lon="8.0811753"><ele>508.0</ele><time>2026-04-18T14:23:46.58Z</time></trkpt><trkpt lat="44.1531787" lon="8.0811898"><ele>508.0</ele><time>2026-04-18T14:23:47.58Z</time></trkpt><trkpt lat="44.1530532" lon="8.0811584"><ele>506.25</ele><time>2026-04-18T14:23:48.579Z</time></trkpt><trkpt lat="44.1529507" lon="8.0810351"><ele>504.5</ele><time>2026-04-18T14:23:49.58Z</time></trkpt><trkpt lat="44.1528765" lon="8.0808753"><ele>502.75</ele><time>2026-04-18T14:23:50.579Z</time></trkpt><trkpt lat="44.1527902" lon="8.0807327"><ele>501.0</ele><time>2026-04-18T14:23:51.579Z</time></trkpt><trkpt lat="44.152692" lon="8.0805671"><ele>514.3333333333334</ele><time>2026-04-18T14:23:52.581Z</time></trkpt><trkpt lat="44.1525396" lon="8.08056"><ele>527.6666666666667</ele><time>2026-04-18T14:23:53.58Z</time></trkpt><trkpt lat="44.1524077" lon="8.0804709"><ele>541.0</ele><time>2026-04-18T14:23:54.579Z</time></trkpt><trkpt lat="44.1522527" lon="8.0804009"><ele>542.0</ele><time>2026-04-18T14:23:55.579Z</time></trkpt><trkpt lat="44.1520785" lon="8.0805206"><ele>543.0</ele><time>2026-04-18T14:23:56.58Z</time></trkpt><trkpt lat="44.1519197" lon="8.0805601"><ele>544.0</ele><time>2026-04-18T14:23:57.58Z</time></trkpt><trkpt lat="44.1517924" lon="8.0806885"><ele>534.75</ele><time>2026-04-18T14:23:58.579Z</time></trkpt><trkpt lat="44.1516367" lon="8.0807817"><ele>525.5</ele><time>2026-04-18T14:23:59.579Z</time></trkpt><trkpt lat="44.1515351" lon="8.0807628"><ele>516.25</ele><time>2026-04-18T14:24:00.579Z</time></trkpt><trkpt lat="44.1514261" lon="8.0807307"><ele>507.0</ele><time>2026-04-18T14:24:01.579Z</time></trkpt><trkpt lat="44.151354" lon="8.0806065"><ele>507.0</ele><time>2026-04-18T14:24:02.58Z</time></trkpt><trkpt lat="44.1512755" lon="8.080521"><ele>507.0</ele><time>2026-04-18T14:24:03.579Z</time></trkpt><trkpt lat="44.1511829" lon="8.0803974"><ele>507.0</ele><time>2026-04-18T14:24:04.579Z</time></trkpt><trkpt lat="44.1511018" lon="8.080273"><ele>507.0</ele><time>2026-04-18T14:24:05.579Z</time></trkpt><trkpt lat="44.1510542" lon="8.080047"><ele>513.3333333333334</ele><time>2026-04-18T14:24:06.579Z</time></trkpt><trkpt lat="44.1509997" lon="8.0798216"><ele>519.6666666666667</ele><time>2026-04-18T14:24:07.58Z</time></trkpt><trkpt lat="44.1509666" lon="8.0795996"><ele>526.0</ele><time>2026-04-18T14:24:08.58Z</time></trkpt><trkpt lat="44.1509497" lon="8.079383"><ele>526.0</ele><time>2026-04-18T14:24:09.58Z</time></trkpt><trkpt lat="44.1509284" lon="8.0791767"><ele>526.0</ele><time>2026-04-18T14:24:10.58Z</time></trkpt><trkpt lat="44.1508845" lon="8.0789806"><ele>526.0</ele><time>2026-04-18T14:24:11.58Z</time></trkpt><trkpt lat="44.1508109" lon="8.0788299"><ele>526.0</ele><time>2026-04-18T14:24:12.58Z</time></trkpt><trkpt lat="44.1507489" lon="8.0786704"><ele>524.5</ele><time>2026-04-18T14:24:13.579Z</time></trkpt><trkpt lat="44.1506626" lon="8.0785599"><ele>523.0</ele><time>2026-04-18T14:24:14.579Z</time></trkpt><trkpt lat="44.1506109" lon="8.0784089"><ele>521.5</ele><time>2026-04-18T14:24:15.579Z</time></trkpt><trkpt lat="44.1505858" lon="8.0782385"><ele>520.0</ele><time>2026-04-18T14:24:16.579Z</time></trkpt><trkpt lat="44.1505019" lon="8.0781109"><ele>526.25</ele><time>2026-04-18T14:24:17.579Z</time></trkpt><trkpt lat="44.1504209" lon="8.077974"><ele>532.5</ele><time>2026-04-18T14:24:18.579Z</time></trkpt><trkpt lat="44.1503016" lon="8.0778606"><ele>538.75</ele><time>2026-04-18T14:24:19.58Z</time></trkpt><trkpt lat="44.1501685" lon="8.0777648"><ele>545.0</ele><time>2026-04-18T14:24:20.581Z</time></trkpt><trkpt lat="44.1500381" lon="8.0776502"><ele>545.0</ele><time>2026-04-18T14:24:21.579Z</time></trkpt><trkpt lat="44.1499108" lon="8.0775575"><ele>545.0</ele><time>2026-04-18T14:24:22.579Z</time></trkpt><trkpt lat="44.1497989" lon="8.0774671"><ele>545.0</ele><time>2026-04-18T14:24:23.579Z</time></trkpt><trkpt lat="44.1497194" lon="8.077331"><ele>545.0</ele><time>2026-04-18T14:24:24.58Z</time></trkpt><trkpt lat="44.1496714" lon="8.0771733"><ele>538.0</ele><time>2026-04-18T14:24:25.579Z</time></trkpt><trkpt lat="44.1496409" lon="8.0769955"><ele>531.0</ele><time>2026-04-18T14:24:26.58Z</time></trkpt><trkpt lat="44.1496396" lon="8.0767721"><ele>524.0</ele><time>2026-04-18T14:24:27.58Z</time></trkpt><trkpt lat="44.1496384" lon="8.076556"><ele>517.0</ele><time>2026-04-18T14:24:28.579Z</time></trkpt><trkpt lat="44.1496427" lon="8.0763208"><ele>517.0</ele><time>2026-04-18T14:24:29.581Z</time></trkpt><trkpt lat="44.149657" lon="8.0760962"><ele>517.0</ele><time>2026-04-18T14:24:30.581Z</time></trkpt><trkpt lat="44.1496526" lon="8.0758795"><ele>517.0</ele><time>2026-04-18T14:24:31.581Z</time></trkpt><trkpt lat="44.1496949" lon="8.075682"><ele>516.0</ele><time>2026-04-18T14:24:32.58Z</time></trkpt><trkpt lat="44.1497831" lon="8.0755229"><ele>515.0</ele><time>2026-04-18T14:24:33.579Z</time></trkpt><trkpt lat="44.1498536" lon="8.075346"><ele>514.0</ele><time>2026-04-18T14:24:34.579Z</time></trkpt><trkpt lat="44.1498851" lon="8.0751503"><ele>513.0</ele><time>2026-04-18T14:24:35.579Z</time></trkpt><trkpt lat="44.149917" lon="8.0749547"><ele>516.25</ele><time>2026-04-18T14:24:36.579Z</time></trkpt><trkpt lat="44.1499134" lon="8.0747579"><ele>519.5</ele><time>2026-04-18T14:24:37.578Z</time></trkpt><trkpt lat="44.1498676" lon="8.0745888"><ele>522.75</ele><time>2026-04-18T14:24:38.579Z</time></trkpt><trkpt lat="44.149804" lon="8.074398"><ele>526.0</ele><time>2026-04-18T14:24:39.578Z</time></trkpt><trkpt lat="44.1497547" lon="8.0742296"><ele>530.6666666666667</ele><time>2026-04-18T14:24:40.578Z</time></trkpt><trkpt lat="44.1497314" lon="8.0740034"><ele>535.3333333333334</ele><time>2026-04-18T14:24:41.579Z</time></trkpt><trkpt lat="44.1496509" lon="8.0738208"><ele>540.0</ele><time>2026-04-18T14:24:42.58Z</time></trkpt><trkpt lat="44.1495798" lon="8.0736272"><ele>540.0</ele><time>2026-04-18T14:24:43.578Z</time></trkpt><trkpt lat="44.1494949" lon="8.0735005"><ele>540.0</ele><time>2026-04-18T14:24:44.579Z</time></trkpt><trkpt lat="44.1494341" lon="8.0733466"><ele>540.0</ele><time>2026-04-18T14:24:45.578Z</time></trkpt><trkpt lat="44.1493967" lon="8.07317"><ele>540.0</ele><time>2026-04-18T14:24:46.579Z</time></trkpt><trkpt lat="44.1493581" lon="8.073052"><ele>536.6666666666666</ele><time>2026-04-18T14:24:47.58Z</time></trkpt><trkpt lat="44.1493719" lon="8.0729223"><ele>533.3333333333333</ele><time>2026-04-18T14:24:48.579Z</time></trkpt><trkpt lat="44.1494238" lon="8.072858"><ele>530.0</ele><time>2026-04-18T14:24:49.578Z</time></trkpt><trkpt lat="44.1497298" lon="8.0729398"><ele>530.0</ele><time>2026-04-18T14:24:50.578Z</time></trkpt><trkpt lat="44.149858" lon="8.0728716"><ele>530.0</ele><time>2026-04-18T14:24:51.58Z</time></trkpt><trkpt lat="44.1500104" lon="8.0727927"><ele>530.0</ele><time>2026-04-18T14:24:52.579Z</time></trkpt><trkpt lat="44.1501471" lon="8.0726953"><ele>532.75</ele><time>2026-04-18T14:24:53.578Z</time></trkpt><trkpt lat="44.1502696" lon="8.072605"><ele>535.5</ele><time>2026-04-18T14:24:54.578Z</time></trkpt><trkpt lat="44.1503873" lon="8.0724978"><ele>538.25</ele><time>2026-04-18T14:24:55.579Z</time></trkpt><trkpt lat="44.1505035" lon="8.0723925"><ele>541.0</ele><time>2026-04-18T14:24:56.58Z</time></trkpt><trkpt lat="44.1505914" lon="8.072259"><ele>541.0</ele><time>2026-04-18T14:24:57.579Z</time></trkpt><trkpt lat="44.1506384" lon="8.0720763"><ele>541.0</ele><time>2026-04-18T14:24:58.579Z</time></trkpt><trkpt lat="44.1506142" lon="8.0718242"><ele>541.0</ele><time>2026-04-18T14:24:59.579Z</time></trkpt><trkpt lat="44.1507203" lon="8.0716905"><ele>545.25</ele><time>2026-04-18T14:25:00.578Z</time></trkpt><trkpt lat="44.1508202" lon="8.0715827"><ele>549.5</ele><time>2026-04-18T14:25:01.578Z</time></trkpt><trkpt lat="44.1509308" lon="8.0714941"><ele>553.75</ele><time>2026-04-18T14:25:02.578Z</time></trkpt><trkpt lat="44.1510323" lon="8.0714141"><ele>558.0</ele><time>2026-04-18T14:25:03.579Z</time></trkpt><trkpt lat="44.1511156" lon="8.0713543"><ele>558.0</ele><time>2026-04-18T14:25:04.579Z</time></trkpt><trkpt lat="44.1511925" lon="8.0713052"><ele>558.0</ele><time>2026-04-18T14:25:05.579Z</time></trkpt><trkpt lat="44.1512563" lon="8.0712749"><ele>558.0</ele><time>2026-04-18T14:25:06.578Z</time></trkpt><trkpt lat="44.1513172" lon="8.0712496"><ele>558.0</ele><time>2026-04-18T14:25:07.578Z</time></trkpt><trkpt lat="44.1514183" lon="8.0711843"><ele>558.0</ele><time>2026-04-18T14:25:09.579Z</time></trkpt><trkpt lat="44.1515064" lon="8.071115"><ele>558.0</ele><time>2026-04-18T14:25:11.579Z</time></trkpt><trkpt lat="44.151396" lon="8.071149"><ele>558.0</ele><time>2026-04-18T14:25:17.579Z</time></trkpt><trkpt lat="44.1512909" lon="8.0712191"><ele>558.0</ele><time>2026-04-18T14:25:18.579Z</time></trkpt><trkpt lat="44.1512079" lon="8.0712904"><ele>558.0</ele><time>2026-04-18T14:25:19.579Z</time></trkpt><trkpt lat="44.1510762" lon="8.0713428"><ele>558.0</ele><time>2026-04-18T14:25:20.578Z</time></trkpt><trkpt lat="44.150965" lon="8.0714062"><ele>558.0</ele><time>2026-04-18T14:25:21.578Z</time></trkpt><trkpt lat="44.1508497" lon="8.0714685"><ele>558.0</ele><time>2026-04-18T14:25:22.579Z</time></trkpt><trkpt lat="44.1507452" lon="8.0715303"><ele>558.0</ele><time>2026-04-18T14:25:23.58Z</time></trkpt><trkpt lat="44.150646" lon="8.0716153"><ele>558.0</ele><time>2026-04-18T14:25:24.578Z</time></trkpt><trkpt lat="44.1505764" lon="8.0717106"><ele>554.6</ele><time>2026-04-18T14:25:25.579Z</time></trkpt><trkpt lat="44.1505316" lon="8.071823"><ele>551.1999999999999</ele><time>2026-04-18T14:25:26.578Z</time></trkpt><trkpt lat="44.1504933" lon="8.0719347"><ele>547.8</ele><time>2026-04-18T14:25:27.579Z</time></trkpt><trkpt lat="44.1504554" lon="8.0720334"><ele>544.4</ele><time>2026-04-18T14:25:28.578Z</time></trkpt><trkpt lat="44.150484" lon="8.0722065"><ele>541.0</ele><time>2026-04-18T14:25:29.578Z</time></trkpt><trkpt lat="44.1504396" lon="8.0723311"><ele>545.0</ele><time>2026-04-18T14:25:30.579Z</time></trkpt><trkpt lat="44.1503719" lon="8.0724512"><ele>549.0</ele><time>2026-04-18T14:25:31.579Z</time></trkpt><trkpt lat="44.1502906" lon="8.0725488"><ele>553.0</ele><time>2026-04-18T14:25:32.578Z</time></trkpt><trkpt lat="44.1502075" lon="8.0726382"><ele>557.0</ele><time>2026-04-18T14:25:33.58Z</time></trkpt><trkpt lat="44.1501192" lon="8.0727135"><ele>561.0</ele><time>2026-04-18T14:25:34.578Z</time></trkpt><trkpt lat="44.1500249" lon="8.0727724"><ele>561.0</ele><time>2026-04-18T14:25:35.58Z</time></trkpt><trkpt lat="44.1499302" lon="8.0728285"><ele>561.0</ele><time>2026-04-18T14:25:36.578Z</time></trkpt><trkpt lat="44.1498357" lon="8.0728754"><ele>561.0</ele><time>2026-04-18T14:25:37.579Z</time></trkpt><trkpt lat="44.1497365" lon="8.0728997"><ele>561.0</ele><time>2026-04-18T14:25:38.578Z</time></trkpt><trkpt lat="44.1496474" lon="8.0729278"><ele>561.0</ele><time>2026-04-18T14:25:39.58Z</time></trkpt><trkpt lat="44.1495589" lon="8.0729653"><ele>554.8</ele><time>2026-04-18T14:25:40.578Z</time></trkpt><trkpt lat="44.1494967" lon="8.0730083"><ele>548.6</ele><time>2026-04-18T14:25:41.578Z</time></trkpt><trkpt lat="44.1493891" lon="8.0730584"><ele>542.4</ele><time>2026-04-18T14:25:43.579Z</time></trkpt><trkpt lat="44.1494072" lon="8.07297"><ele>536.2</ele><time>2026-04-18T14:25:44.579Z</time></trkpt><trkpt lat="44.1494362" lon="8.0728568"><ele>530.0</ele><time>2026-04-18T14:25:46.578Z</time></trkpt><trkpt lat="44.149588" lon="8.0728164"><ele>530.0</ele><time>2026-04-18T14:25:47.578Z</time></trkpt><trkpt lat="44.1497005" lon="8.0727642"><ele>530.0</ele><time>2026-04-18T14:25:48.578Z</time></trkpt><trkpt lat="44.1498147" lon="8.0726754"><ele>530.0</ele><time>2026-04-18T14:25:49.578Z</time></trkpt><trkpt lat="44.1499207" lon="8.0725874"><ele>530.0</ele><time>2026-04-18T14:25:50.579Z</time></trkpt><trkpt lat="44.1500099" lon="8.0724651"><ele>531.8333333333333</ele><time>2026-04-18T14:25:51.578Z</time></trkpt><trkpt lat="44.1500675" lon="8.0723481"><ele>533.6666666666666</ele><time>2026-04-18T14:25:52.579Z</time></trkpt><trkpt lat="44.1501244" lon="8.0722354"><ele>535.5</ele><time>2026-04-18T14:25:53.578Z</time></trkpt><trkpt lat="44.1501632" lon="8.0721401"><ele>537.3333333333334</ele><time>2026-04-18T14:25:54.578Z</time></trkpt><trkpt lat="44.1501804" lon="8.0720474"><ele>539.1666666666667</ele><time>2026-04-18T14:25:55.578Z</time></trkpt><trkpt lat="44.1501944" lon="8.0719599"><ele>541.0</ele><time>2026-04-18T14:25:56.579Z</time></trkpt><trkpt lat="44.1501671" lon="8.0718483"><ele>541.0</ele><time>2026-04-18T14:25:57.58Z</time></trkpt><trkpt lat="44.1501518" lon="8.0717198"><ele>541.0</ele><time>2026-04-18T14:25:58.578Z</time></trkpt><trkpt lat="44.1501164" lon="8.071569"><ele>541.0</ele><time>2026-04-18T14:25:59.579Z</time></trkpt><trkpt lat="44.1500862" lon="8.0714424"><ele>541.0</ele><time>2026-04-18T14:26:00.58Z</time></trkpt><trkpt lat="44.1500956" lon="8.0713037"><ele>541.0</ele><time>2026-04-18T14:26:01.58Z</time></trkpt><trkpt lat="44.1501395" lon="8.0711692"><ele>536.5</ele><time>2026-04-18T14:26:02.579Z</time></trkpt><trkpt lat="44.1502193" lon="8.0710597"><ele>532.0</ele><time>2026-04-18T14:26:03.578Z</time></trkpt><trkpt lat="44.1503118" lon="8.070938"><ele>527.5</ele><time>2026-04-18T14:26:04.578Z</time></trkpt><trkpt lat="44.1504035" lon="8.0707995"><ele>523.0</ele><time>2026-04-18T14:26:05.579Z</time></trkpt><trkpt lat="44.1504897" lon="8.0706742"><ele>525.75</ele><time>2026-04-18T14:26:06.578Z</time></trkpt><trkpt lat="44.1505762" lon="8.0705439"><ele>528.5</ele><time>2026-04-18T14:26:07.579Z</time></trkpt><trkpt lat="44.1506762" lon="8.0704603"><ele>531.25</ele><time>2026-04-18T14:26:08.578Z</time></trkpt><trkpt lat="44.1507794" lon="8.0703933"><ele>534.0</ele><time>2026-04-18T14:26:09.578Z</time></trkpt><trkpt lat="44.1508507" lon="8.0703022"><ele>534.0</ele><time>2026-04-18T14:26:10.578Z</time></trkpt><trkpt lat="44.1509108" lon="8.0702336"><ele>534.0</ele><time>2026-04-18T14:26:11.579Z</time></trkpt><trkpt lat="44.1509519" lon="8.0701639"><ele>534.0</ele><time>2026-04-18T14:26:12.578Z</time></trkpt><trkpt lat="44.1508612" lon="8.0701507"><ele>534.0</ele><time>2026-04-18T14:26:14.578Z</time></trkpt><trkpt lat="44.1507995" lon="8.070226"><ele>534.0</ele><time>2026-04-18T14:26:15.579Z</time></trkpt><trkpt lat="44.1507037" lon="8.0702989"><ele>534.0</ele><time>2026-04-18T14:26:16.578Z</time></trkpt><trkpt lat="44.1506117" lon="8.0703913"><ele>527.2</ele><time>2026-04-18T14:26:17.578Z</time></trkpt><trkpt lat="44.1505255" lon="8.0704827"><ele>520.4</ele><time>2026-04-18T14:26:18.579Z</time></trkpt><trkpt lat="44.1504497" lon="8.0705533"><ele>513.6</ele><time>2026-04-18T14:26:19.579Z</time></trkpt><trkpt lat="44.1503902" lon="8.0706147"><ele>506.8</ele><time>2026-04-18T14:26:20.579Z</time></trkpt><trkpt lat="44.150301" lon="8.0706092"><ele>500.0</ele><time>2026-04-18T14:26:22.58Z</time></trkpt><trkpt lat="44.1503421" lon="8.0704924"><ele>500.0</ele><time>2026-04-18T14:26:24.578Z</time></trkpt><trkpt lat="44.1504176" lon="8.0704122"><ele>500.0</ele><time>2026-04-18T14:26:25.579Z</time></trkpt><trkpt lat="44.1504985" lon="8.0703016"><ele>500.0</ele><time>2026-04-18T14:26:26.579Z</time></trkpt><trkpt lat="44.1505798" lon="8.0702262"><ele>500.0</ele><time>2026-04-18T14:26:27.578Z</time></trkpt><trkpt lat="44.1506512" lon="8.0701302"><ele>500.0</ele><time>2026-04-18T14:26:28.579Z</time></trkpt><trkpt lat="44.1507163" lon="8.0700263"><ele>495.0</ele><time>2026-04-18T14:26:29.579Z</time></trkpt><trkpt lat="44.1507967" lon="8.0698781"><ele>490.0</ele><time>2026-04-18T14:26:30.579Z</time></trkpt><trkpt lat="44.1508185" lon="8.0696823"><ele>485.0</ele><time>2026-04-18T14:26:31.579Z</time></trkpt><trkpt lat="44.1507027" lon="8.0694979"><ele>485.0</ele><time>2026-04-18T14:26:32.579Z</time></trkpt><trkpt lat="44.1507135" lon="8.0693517"><ele>485.0</ele><time>2026-04-18T14:26:33.579Z</time></trkpt><trkpt lat="44.1506964" lon="8.0691998"><ele>485.0</ele><time>2026-04-18T14:26:34.58Z</time></trkpt><trkpt lat="44.1507022" lon="8.0690663"><ele>485.0</ele><time>2026-04-18T14:26:35.579Z</time></trkpt><trkpt lat="44.1507134" lon="8.0689353"><ele>485.0</ele><time>2026-04-18T14:26:36.578Z</time></trkpt><trkpt lat="44.1507915" lon="8.0688485"><ele>487.0</ele><time>2026-04-18T14:26:37.578Z</time></trkpt><trkpt lat="44.1508811" lon="8.0687835"><ele>489.0</ele><time>2026-04-18T14:26:38.58Z</time></trkpt><trkpt lat="44.1509884" lon="8.0687476"><ele>491.0</ele><time>2026-04-18T14:26:39.578Z</time></trkpt><trkpt lat="44.1511238" lon="8.0687267"><ele>493.0</ele><time>2026-04-18T14:26:40.579Z</time></trkpt><trkpt lat="44.1512607" lon="8.0687046"><ele>493.0</ele><time>2026-04-18T14:26:41.578Z</time></trkpt><trkpt lat="44.1513781" lon="8.0686288"><ele>493.0</ele><time>2026-04-18T14:26:42.579Z</time></trkpt><trkpt lat="44.1515107" lon="8.0685592"><ele>493.0</ele><time>2026-04-18T14:26:43.578Z</time></trkpt><trkpt lat="44.1516188" lon="8.068469"><ele>493.0</ele><time>2026-04-18T14:26:44.579Z</time></trkpt><trkpt lat="44.1517238" lon="8.0683973"><ele>492.59999999999997</ele><time>2026-04-18T14:26:45.58Z</time></trkpt><trkpt lat="44.1518192" lon="8.0683269"><ele>492.19999999999993</ele><time>2026-04-18T14:26:46.579Z</time></trkpt><trkpt lat="44.1518823" lon="8.0682395"><ele>491.8</ele><time>2026-04-18T14:26:47.58Z</time></trkpt><trkpt lat="44.1519204" lon="8.0681294"><ele>491.4</ele><time>2026-04-18T14:26:48.579Z</time></trkpt><trkpt lat="44.1519328" lon="8.0680084"><ele>491.0</ele><time>2026-04-18T14:26:49.578Z</time></trkpt><trkpt lat="44.151984" lon="8.0679255"><ele>491.0</ele><time>2026-04-18T14:26:50.579Z</time></trkpt><trkpt lat="44.152046" lon="8.0678474"><ele>491.0</ele><time>2026-04-18T14:26:51.579Z</time></trkpt><trkpt lat="44.1521173" lon="8.0677375"><ele>491.0</ele><time>2026-04-18T14:26:52.579Z</time></trkpt><trkpt lat="44.1521987" lon="8.0676307"><ele>491.0</ele><time>2026-04-18T14:26:53.578Z</time></trkpt><trkpt lat="44.1522741" lon="8.0675027"><ele>491.0</ele><time>2026-04-18T14:26:54.579Z</time></trkpt><trkpt lat="44.1523408" lon="8.0673851"><ele>490.3333333333333</ele><time>2026-04-18T14:26:55.579Z</time></trkpt><trkpt lat="44.1524099" lon="8.0672812"><ele>489.66666666666663</ele><time>2026-04-18T14:26:56.578Z</time></trkpt><trkpt lat="44.1524748" lon="8.0671958"><ele>489.0</ele><time>2026-04-18T14:26:57.578Z</time></trkpt><trkpt lat="44.1525503" lon="8.0671713"><ele>488.33333333333337</ele><time>2026-04-18T14:26:58.578Z</time></trkpt><trkpt lat="44.1526326" lon="8.0671626"><ele>487.6666666666667</ele><time>2026-04-18T14:26:59.579Z</time></trkpt><trkpt lat="44.1527142" lon="8.0671504"><ele>487.0</ele><time>2026-04-18T14:27:00.579Z</time></trkpt><trkpt lat="44.1528085" lon="8.0671523"><ele>487.0</ele><time>2026-04-18T14:27:01.579Z</time></trkpt><trkpt lat="44.1528936" lon="8.067121"><ele>487.00000000000006</ele><time>2026-04-18T14:27:02.579Z</time></trkpt><trkpt lat="44.1529775" lon="8.0670464"><ele>487.00000000000006</ele><time>2026-04-18T14:27:03.578Z</time></trkpt><trkpt lat="44.1530706" lon="8.066955"><ele>487.0</ele><time>2026-04-18T14:27:04.578Z</time></trkpt><trkpt lat="44.1531705" lon="8.0668883"><ele>487.0</ele><time>2026-04-18T14:27:05.579Z</time></trkpt><trkpt lat="44.1532806" lon="8.0668562"><ele>489.0</ele><time>2026-04-18T14:27:06.578Z</time></trkpt><trkpt lat="44.1533742" lon="8.0668013"><ele>491.0</ele><time>2026-04-18T14:27:07.579Z</time></trkpt><trkpt lat="44.1534554" lon="8.0666965"><ele>493.0</ele><time>2026-04-18T14:27:08.579Z</time></trkpt><trkpt lat="44.1535235" lon="8.0665876"><ele>495.0</ele><time>2026-04-18T14:27:09.578Z</time></trkpt><trkpt lat="44.1535924" lon="8.0664117"><ele>491.0</ele><time>2026-04-18T14:27:10.578Z</time></trkpt><trkpt lat="44.1536758" lon="8.0662753"><ele>487.0</ele><time>2026-04-18T14:27:11.578Z</time></trkpt><trkpt lat="44.1537596" lon="8.0661567"><ele>483.0</ele><time>2026-04-18T14:27:12.579Z</time></trkpt><trkpt lat="44.1538362" lon="8.066026"><ele>479.0</ele><time>2026-04-18T14:27:13.58Z</time></trkpt><trkpt lat="44.1538978" lon="8.0658932"><ele>481.79999999999995</ele><time>2026-04-18T14:27:14.579Z</time></trkpt><trkpt lat="44.1539599" lon="8.0657525"><ele>484.59999999999997</ele><time>2026-04-18T14:27:15.578Z</time></trkpt><trkpt lat="44.1540076" lon="8.0656278"><ele>487.4</ele><time>2026-04-18T14:27:16.578Z</time></trkpt><trkpt lat="44.1540648" lon="8.0655173"><ele>490.2</ele><time>2026-04-18T14:27:17.578Z</time></trkpt><trkpt lat="44.1541266" lon="8.065408"><ele>493.0</ele><time>2026-04-18T14:27:18.578Z</time></trkpt><trkpt lat="44.1542058" lon="8.0653996"><ele>495.2</ele><time>2026-04-18T14:27:19.58Z</time></trkpt><trkpt lat="44.1542917" lon="8.0654124"><ele>497.4</ele><time>2026-04-18T14:27:20.579Z</time></trkpt><trkpt lat="44.1543823" lon="8.0654551"><ele>499.59999999999997</ele><time>2026-04-18T14:27:21.578Z</time></trkpt><trkpt lat="44.1544883" lon="8.0655064"><ele>501.79999999999995</ele><time>2026-04-18T14:27:22.58Z</time></trkpt><trkpt lat="44.1546241" lon="8.065548"><ele>504.0</ele><time>2026-04-18T14:27:23.578Z</time></trkpt><trkpt lat="44.1547486" lon="8.0655504"><ele>506.2</ele><time>2026-04-18T14:27:24.578Z</time></trkpt><trkpt lat="44.1548901" lon="8.0655373"><ele>508.4</ele><time>2026-04-18T14:27:25.579Z</time></trkpt><trkpt lat="44.1549992" lon="8.0654959"><ele>510.6</ele><time>2026-04-18T14:27:26.579Z</time></trkpt><trkpt lat="44.1550757" lon="8.0654414"><ele>512.8</ele><time>2026-04-18T14:27:27.579Z</time></trkpt><trkpt lat="44.1551211" lon="8.0653585"><ele>515.0</ele><time>2026-04-18T14:27:28.579Z</time></trkpt><trkpt lat="44.1551129" lon="8.0652495"><ele>515.0</ele><time>2026-04-18T14:27:29.579Z</time></trkpt><trkpt lat="44.155085" lon="8.0651128"><ele>515.0</ele><time>2026-04-18T14:27:30.579Z</time></trkpt><trkpt lat="44.1549788" lon="8.0650087"><ele>515.0</ele><time>2026-04-18T14:27:32.579Z</time></trkpt><trkpt lat="44.1548921" lon="8.0649905"><ele>515.0</ele><time>2026-04-18T14:27:33.579Z</time></trkpt><trkpt lat="44.1547832" lon="8.0649608"><ele>515.0</ele><time>2026-04-18T14:27:34.578Z</time></trkpt><trkpt lat="44.1546761" lon="8.0649266"><ele>518.25</ele><time>2026-04-18T14:27:35.58Z</time></trkpt><trkpt lat="44.1545677" lon="8.0648786"><ele>521.5</ele><time>2026-04-18T14:27:36.58Z</time></trkpt><trkpt lat="44.1544659" lon="8.0648023"><ele>524.75</ele><time>2026-04-18T14:27:37.579Z</time></trkpt><trkpt lat="44.1543712" lon="8.0647098"><ele>528.0</ele><time>2026-04-18T14:27:38.579Z</time></trkpt><trkpt lat="44.1542724" lon="8.0646163"><ele>528.0</ele><time>2026-04-18T14:27:39.578Z</time></trkpt><trkpt lat="44.1541678" lon="8.064543"><ele>528.0</ele><time>2026-04-18T14:27:40.578Z</time></trkpt><trkpt lat="44.154078" lon="8.0644862"><ele>528.0</ele><time>2026-04-18T14:27:41.578Z</time></trkpt><trkpt lat="44.1539881" lon="8.0644849"><ele>528.0</ele><time>2026-04-18T14:27:42.579Z</time></trkpt><trkpt lat="44.1539106" lon="8.0645437"><ele>528.0</ele><time>2026-04-18T14:27:43.578Z</time></trkpt><trkpt lat="44.1538541" lon="8.0646025"><ele>526.1666666666666</ele><time>2026-04-18T14:27:44.579Z</time></trkpt><trkpt lat="44.1537872" lon="8.0646422"><ele>524.3333333333334</ele><time>2026-04-18T14:27:45.578Z</time></trkpt><trkpt lat="44.1537076" lon="8.0646263"><ele>522.5</ele><time>2026-04-18T14:27:46.578Z</time></trkpt><trkpt lat="44.1536327" lon="8.0645774"><ele>520.6666666666667</ele><time>2026-04-18T14:27:47.579Z</time></trkpt><trkpt lat="44.153555" lon="8.0644973"><ele>518.8333333333334</ele><time>2026-04-18T14:27:48.578Z</time></trkpt><trkpt lat="44.1534842" lon="8.0643909"><ele>517.0</ele><time>2026-04-18T14:27:49.578Z</time></trkpt><trkpt lat="44.1534109" lon="8.0642939"><ele>517.0</ele><time>2026-04-18T14:27:50.578Z</time></trkpt><trkpt lat="44.1533278" lon="8.0642066"><ele>517.0</ele><time>2026-04-18T14:27:51.578Z</time></trkpt><trkpt lat="44.1532569" lon="8.0641158"><ele>517.0</ele><time>2026-04-18T14:27:52.578Z</time></trkpt><trkpt lat="44.1531966" lon="8.0640282"><ele>517.0</ele><time>2026-04-18T14:27:53.578Z</time></trkpt><trkpt lat="44.1532456" lon="8.0638525"><ele>517.0</ele><time>2026-04-18T14:27:55.579Z</time></trkpt><trkpt lat="44.1532845" lon="8.0637679"><ele>519.0</ele><time>2026-04-18T14:27:56.579Z</time></trkpt><trkpt lat="44.1533375" lon="8.0636622"><ele>521.0</ele><time>2026-04-18T14:27:57.578Z</time></trkpt><trkpt lat="44.1533865" lon="8.0635836"><ele>523.0</ele><time>2026-04-18T14:27:58.578Z</time></trkpt><trkpt lat="44.1534274" lon="8.0634942"><ele>525.0</ele><time>2026-04-18T14:27:59.579Z</time></trkpt><trkpt lat="44.1534567" lon="8.0634081"><ele>527.0</ele><time>2026-04-18T14:28:00.579Z</time></trkpt><trkpt lat="44.1534411" lon="8.0632971"><ele>529.0</ele><time>2026-04-18T14:28:01.579Z</time></trkpt><trkpt lat="44.1534232" lon="8.0632032"><ele>528.6</ele><time>2026-04-18T14:28:02.578Z</time></trkpt><trkpt lat="44.1534023" lon="8.0631045"><ele>528.2</ele><time>2026-04-18T14:28:03.579Z</time></trkpt><trkpt lat="44.1533217" lon="8.0629771"><ele>527.8000000000001</ele><time>2026-04-18T14:28:05.579Z</time></trkpt><trkpt lat="44.1532667" lon="8.0629058"><ele>527.4</ele><time>2026-04-18T14:28:07.579Z</time></trkpt><trkpt lat="44.1531715" lon="8.06285"><ele>527.0</ele><time>2026-04-18T14:28:09.579Z</time></trkpt><trkpt lat="44.1531033" lon="8.062793"><ele>527.0</ele><time>2026-04-18T14:28:10.578Z</time></trkpt><trkpt lat="44.1530367" lon="8.0627451"><ele>527.0</ele><time>2026-04-18T14:28:11.578Z</time></trkpt><trkpt lat="44.1529687" lon="8.0627142"><ele>527.0</ele><time>2026-04-18T14:28:12.578Z</time></trkpt><trkpt lat="44.1529055" lon="8.0626901"><ele>527.0</ele><time>2026-04-18T14:28:13.578Z</time></trkpt><trkpt lat="44.1528422" lon="8.0626835"><ele>527.0</ele><time>2026-04-18T14:28:14.578Z</time></trkpt><trkpt lat="44.1527388" lon="8.0626801"><ele>527.0</ele><time>2026-04-18T14:28:16.58Z</time></trkpt><trkpt lat="44.1526708" lon="8.0626072"><ele>527.0</ele><time>2026-04-18T14:28:18.578Z</time></trkpt><trkpt lat="44.1525854" lon="8.0625182"><ele>527.0</ele><time>2026-04-18T14:28:20.579Z</time></trkpt><trkpt lat="44.1525462" lon="8.0624401"><ele>527.0</ele><time>2026-04-18T14:28:21.58Z</time></trkpt><trkpt lat="44.1525008" lon="8.0623569"><ele>527.0</ele><time>2026-04-18T14:28:22.579Z</time></trkpt><trkpt lat="44.1524213" lon="8.0622112"><ele>527.0</ele><time>2026-04-18T14:28:24.578Z</time></trkpt><trkpt lat="44.1523178" lon="8.0621255"><ele>525.8000000000001</ele><time>2026-04-18T14:28:26.578Z</time></trkpt><trkpt lat="44.1522625" lon="8.0620795"><ele>524.6</ele><time>2026-04-18T14:28:27.579Z</time></trkpt><trkpt lat="44.1521689" lon="8.0620042"><ele>523.4000000000001</ele><time>2026-04-18T14:28:29.579Z</time></trkpt><trkpt lat="44.1521215" lon="8.0618629"><ele>522.2</ele><time>2026-04-18T14:28:31.58Z</time></trkpt><trkpt lat="44.152113" lon="8.0617729"><ele>521.0</ele><time>2026-04-18T14:28:32.579Z</time></trkpt><trkpt lat="44.152086" lon="8.061585"><ele>523.3333333333333</ele><time>2026-04-18T14:28:34.579Z</time></trkpt><trkpt lat="44.1520587" lon="8.0614268"><ele>525.6666666666666</ele><time>2026-04-18T14:28:36.579Z</time></trkpt><trkpt lat="44.1520569" lon="8.0613352"><ele>528.0</ele><time>2026-04-18T14:28:37.578Z</time></trkpt><trkpt lat="44.1520253" lon="8.0612229"><ele>530.3333333333334</ele><time>2026-04-18T14:28:38.58Z</time></trkpt><trkpt lat="44.1520195" lon="8.0611319"><ele>532.6666666666667</ele><time>2026-04-18T14:28:39.578Z</time></trkpt><trkpt lat="44.151987" lon="8.0610046"><ele>535.0</ele><time>2026-04-18T14:28:41.578Z</time></trkpt><trkpt lat="44.1520102" lon="8.0608744"><ele>534.8</ele><time>2026-04-18T14:28:42.579Z</time></trkpt><trkpt lat="44.1519923" lon="8.0607557"><ele>534.6</ele><time>2026-04-18T14:28:43.578Z</time></trkpt><trkpt lat="44.1519662" lon="8.060603"><ele>534.4</ele><time>2026-04-18T14:28:44.579Z</time></trkpt><trkpt lat="44.1519585" lon="8.0604599"><ele>534.2</ele><time>2026-04-18T14:28:45.578Z</time></trkpt><trkpt lat="44.1519326" lon="8.0603287"><ele>534.0</ele><time>2026-04-18T14:28:46.579Z</time></trkpt><trkpt lat="44.151914" lon="8.0602"><ele>534.0</ele><time>2026-04-18T14:28:47.578Z</time></trkpt><trkpt lat="44.1519108" lon="8.0600454"><ele>534.0</ele><time>2026-04-18T14:28:48.578Z</time></trkpt><trkpt lat="44.1518787" lon="8.0599452"><ele>534.0</ele><time>2026-04-18T14:28:49.579Z</time></trkpt><trkpt lat="44.1517938" lon="8.0599401"><ele>534.0</ele><time>2026-04-18T14:28:51.578Z</time></trkpt><trkpt lat="44.1517151" lon="8.0599638"><ele>534.0</ele><time>2026-04-18T14:28:54.578Z</time></trkpt><trkpt lat="44.151706" lon="8.0598132"><ele>535.4</ele><time>2026-04-18T14:29:03.58Z</time></trkpt><trkpt lat="44.1516664" lon="8.0596673"><ele>536.8</ele><time>2026-04-18T14:29:05.58Z</time></trkpt><trkpt lat="44.1515827" lon="8.0595059"><ele>538.2</ele><time>2026-04-18T14:29:07.578Z</time></trkpt><trkpt lat="44.1515105" lon="8.0594324"><ele>539.6</ele><time>2026-04-18T14:29:08.579Z</time></trkpt><trkpt lat="44.1514658" lon="8.059351"><ele>541.0</ele><time>2026-04-18T14:29:09.579Z</time></trkpt><trkpt lat="44.1513613" lon="8.0592501"><ele>541.5</ele><time>2026-04-18T14:29:11.578Z</time></trkpt><trkpt lat="44.1513164" lon="8.0591854"><ele>542.0</ele><time>2026-04-18T14:29:12.579Z</time></trkpt><trkpt lat="44.1512372" lon="8.0591236"><ele>542.5</ele><time>2026-04-18T14:29:13.579Z</time></trkpt><trkpt lat="44.1511651" lon="8.0590638"><ele>543.0</ele><time>2026-04-18T14:29:14.578Z</time></trkpt><trkpt lat="44.1510955" lon="8.0590152"><ele>543.5</ele><time>2026-04-18T14:29:15.58Z</time></trkpt><trkpt lat="44.1510277" lon="8.0589764"><ele>544.0</ele><time>2026-04-18T14:29:16.579Z</time></trkpt><trkpt lat="44.1509686" lon="8.0589398"><ele>545.6</ele><time>2026-04-18T14:29:17.578Z</time></trkpt><trkpt lat="44.150899" lon="8.0588458"><ele>547.2</ele><time>2026-04-18T14:29:19.579Z</time></trkpt><trkpt lat="44.1508685" lon="8.0587352"><ele>548.8000000000001</ele><time>2026-04-18T14:29:21.579Z</time></trkpt><trkpt lat="44.1509055" lon="8.05866"><ele>550.4</ele><time>2026-04-18T14:29:24.578Z</time></trkpt><trkpt lat="44.1509797" lon="8.0586706"><ele>552.0</ele><time>2026-04-18T14:29:26.579Z</time></trkpt><trkpt lat="44.1511095" lon="8.0586592"><ele>552.0</ele><time>2026-04-18T14:29:28.578Z</time></trkpt><trkpt lat="44.1511913" lon="8.0586561"><ele>552.0</ele><time>2026-04-18T14:29:29.578Z</time></trkpt><trkpt lat="44.1512639" lon="8.0586534"><ele>552.0</ele><time>2026-04-18T14:29:30.579Z</time></trkpt><trkpt lat="44.1513479" lon="8.0586553"><ele>552.0</ele><time>2026-04-18T14:29:31.578Z</time></trkpt><trkpt lat="44.15142" lon="8.0586771"><ele>552.0</ele><time>2026-04-18T14:29:32.578Z</time></trkpt><trkpt lat="44.1515396" lon="8.0587425"><ele>552.0</ele><time>2026-04-18T14:29:34.578Z</time></trkpt><trkpt lat="44.1516529" lon="8.0588108"><ele>552.0</ele><time>2026-04-18T14:29:36.579Z</time></trkpt><trkpt lat="44.1516054" lon="8.0586686"><ele>552.0</ele><time>2026-04-18T14:29:41.578Z</time></trkpt><trkpt lat="44.1515616" lon="8.0585888"><ele>552.0</ele><time>2026-04-18T14:29:42.578Z</time></trkpt><trkpt lat="44.1514739" lon="8.0585144"><ele>552.0</ele><time>2026-04-18T14:29:43.578Z</time></trkpt><trkpt lat="44.1514118" lon="8.0584222"><ele>552.0</ele><time>2026-04-18T14:29:44.58Z</time></trkpt><trkpt lat="44.1513323" lon="8.0583505"><ele>554.0</ele><time>2026-04-18T14:29:45.579Z</time></trkpt><trkpt lat="44.1512599" lon="8.0582682"><ele>556.0</ele><time>2026-04-18T14:29:46.578Z</time></trkpt><trkpt lat="44.1511942" lon="8.0582711"><ele>558.0</ele><time>2026-04-18T14:29:47.58Z</time></trkpt><trkpt lat="44.1510888" lon="8.0582301"><ele>560.0</ele><time>2026-04-18T14:29:49.579Z</time></trkpt><trkpt lat="44.151057" lon="8.0581238"><ele>562.0</ele><time>2026-04-18T14:29:51.579Z</time></trkpt><trkpt lat="44.151118" lon="8.0580741"><ele>564.0</ele><time>2026-04-18T14:29:52.578Z</time></trkpt><trkpt lat="44.1511748" lon="8.0579988"><ele>564.0</ele><time>2026-04-18T14:29:53.579Z</time></trkpt><trkpt lat="44.1512226" lon="8.057886"><ele>564.0</ele><time>2026-04-18T14:29:54.578Z</time></trkpt><trkpt lat="44.1512731" lon="8.057762"><ele>564.0</ele><time>2026-04-18T14:29:55.58Z</time></trkpt><trkpt lat="44.151329" lon="8.0576645"><ele>564.0</ele><time>2026-04-18T14:29:56.579Z</time></trkpt><trkpt lat="44.1513727" lon="8.0575755"><ele>564.0</ele><time>2026-04-18T14:29:57.58Z</time></trkpt><trkpt lat="44.1514136" lon="8.0574553"><ele>566.6666666666666</ele><time>2026-04-18T14:29:58.579Z</time></trkpt><trkpt lat="44.151445" lon="8.0573313"><ele>569.3333333333334</ele><time>2026-04-18T14:29:59.579Z</time></trkpt><trkpt lat="44.1514824" lon="8.0572304"><ele>572.0</ele><time>2026-04-18T14:30:00.578Z</time></trkpt><trkpt lat="44.1515193" lon="8.0571015"><ele>574.6666666666667</ele><time>2026-04-18T14:30:01.58Z</time></trkpt><trkpt lat="44.1515389" lon="8.0570033"><ele>577.3333333333334</ele><time>2026-04-18T14:30:02.58Z</time></trkpt><trkpt lat="44.1515526" lon="8.0569125"><ele>580.0</ele><time>2026-04-18T14:30:03.579Z</time></trkpt><trkpt lat="44.1515626" lon="8.056787"><ele>581.1666666666667</ele><time>2026-04-18T14:30:04.579Z</time></trkpt><trkpt lat="44.1515728" lon="8.0566921"><ele>582.3333333333334</ele><time>2026-04-18T14:30:05.579Z</time></trkpt><trkpt lat="44.151596" lon="8.0565857"><ele>583.5</ele><time>2026-04-18T14:30:06.578Z</time></trkpt><trkpt lat="44.15162" lon="8.0564631"><ele>584.6666666666666</ele><time>2026-04-18T14:30:07.579Z</time></trkpt><trkpt lat="44.1516454" lon="8.0563505"><ele>585.8333333333333</ele><time>2026-04-18T14:30:08.579Z</time></trkpt><trkpt lat="44.1516728" lon="8.0562358"><ele>587.0</ele><time>2026-04-18T14:30:09.578Z</time></trkpt><trkpt lat="44.1516836" lon="8.0561416"><ele>588.0</ele><time>2026-04-18T14:30:10.578Z</time></trkpt><trkpt lat="44.1516893" lon="8.0560323"><ele>589.0</ele><time>2026-04-18T14:30:11.579Z</time></trkpt><trkpt lat="44.1517623" lon="8.0559272"><ele>590.0</ele><time>2026-04-18T14:30:13.578Z</time></trkpt><trkpt lat="44.1518475" lon="8.0559796"><ele>591.0</ele><time>2026-04-18T14:30:15.578Z</time></trkpt><trkpt lat="44.1518797" lon="8.0561569"><ele>592.0</ele><time>2026-04-18T14:30:17.579Z</time></trkpt><trkpt lat="44.1518881" lon="8.0562838"><ele>592.0</ele><time>2026-04-18T14:30:18.58Z</time></trkpt><trkpt lat="44.1518858" lon="8.0564497"><ele>592.0</ele><time>2026-04-18T14:30:19.579Z</time></trkpt><trkpt lat="44.151892" lon="8.0565825"><ele>592.0</ele><time>2026-04-18T14:30:20.578Z</time></trkpt><trkpt lat="44.1518953" lon="8.0567277"><ele>592.0</ele><time>2026-04-18T14:30:21.578Z</time></trkpt><trkpt lat="44.1519307" lon="8.0568551"><ele>592.0</ele><time>2026-04-18T14:30:22.58Z</time></trkpt><trkpt lat="44.1519488" lon="8.0569669"><ele>591.2</ele><time>2026-04-18T14:30:23.58Z</time></trkpt><trkpt lat="44.1519455" lon="8.0570767"><ele>590.4000000000001</ele><time>2026-04-18T14:30:24.579Z</time></trkpt><trkpt lat="44.1519271" lon="8.0572181"><ele>589.5999999999999</ele><time>2026-04-18T14:30:25.579Z</time></trkpt><trkpt lat="44.1519126" lon="8.0573449"><ele>588.8</ele><time>2026-04-18T14:30:26.579Z</time></trkpt><trkpt lat="44.1518954" lon="8.057433"><ele>588.0</ele><time>2026-04-18T14:30:27.579Z</time></trkpt><trkpt lat="44.1518902" lon="8.057589"><ele>588.0</ele><time>2026-04-18T14:30:29.578Z</time></trkpt><trkpt lat="44.1519814" lon="8.057679"><ele>588.0</ele><time>2026-04-18T14:30:31.578Z</time></trkpt><trkpt lat="44.1520447" lon="8.0577368"><ele>588.0</ele><time>2026-04-18T14:30:32.578Z</time></trkpt><trkpt lat="44.1521294" lon="8.0577975"><ele>588.0</ele><time>2026-04-18T14:30:34.578Z</time></trkpt><trkpt lat="44.1521483" lon="8.0576929"><ele>588.0</ele><time>2026-04-18T14:30:37.58Z</time></trkpt><trkpt lat="44.1520925" lon="8.0575767"><ele>588.0</ele><time>2026-04-18T14:30:39.578Z</time></trkpt><trkpt lat="44.1520952" lon="8.0574872"><ele>588.0</ele><time>2026-04-18T14:30:40.579Z</time></trkpt><trkpt lat="44.1521179" lon="8.0573815"><ele>588.0</ele><time>2026-04-18T14:30:41.578Z</time></trkpt><trkpt lat="44.1521566" lon="8.0572683"><ele>588.0</ele><time>2026-04-18T14:30:42.58Z</time></trkpt><trkpt lat="44.1521916" lon="8.0571681"><ele>588.0</ele><time>2026-04-18T14:30:43.579Z</time></trkpt><trkpt lat="44.1522753" lon="8.0570458"><ele>588.0</ele><time>2026-04-18T14:30:44.578Z</time></trkpt><trkpt lat="44.1523187" lon="8.0568807"><ele>587.8</ele><time>2026-04-18T14:30:45.579Z</time></trkpt><trkpt lat="44.1523592" lon="8.0567215"><ele>587.5999999999999</ele><time>2026-04-18T14:30:46.578Z</time></trkpt><trkpt lat="44.1523946" lon="8.0565676"><ele>587.4000000000001</ele><time>2026-04-18T14:30:47.578Z</time></trkpt><trkpt lat="44.1524367" lon="8.0564242"><ele>587.2</ele><time>2026-04-18T14:30:48.58Z</time></trkpt><trkpt lat="44.1524656" lon="8.0562954"><ele>587.0</ele><time>2026-04-18T14:30:49.578Z</time></trkpt><trkpt lat="44.1524835" lon="8.0562028"><ele>593.8000000000001</ele><time>2026-04-18T14:30:50.578Z</time></trkpt><trkpt lat="44.1524767" lon="8.0560615"><ele>600.6</ele><time>2026-04-18T14:30:51.579Z</time></trkpt><trkpt lat="44.1524643" lon="8.0558952"><ele>607.4000000000001</ele><time>2026-04-18T14:30:52.579Z</time></trkpt><trkpt lat="44.1524467" lon="8.055739"><ele>614.2</ele><time>2026-04-18T14:30:53.58Z</time></trkpt><trkpt lat="44.152433" lon="8.0556142"><ele>621.0</ele><time>2026-04-18T14:30:54.579Z</time></trkpt><trkpt lat="44.1524245" lon="8.055503"><ele>621.0</ele><time>2026-04-18T14:30:55.578Z</time></trkpt><trkpt lat="44.1524017" lon="8.0553987"><ele>621.0</ele><time>2026-04-18T14:30:56.579Z</time></trkpt><trkpt lat="44.1524215" lon="8.0552948"><ele>621.0</ele><time>2026-04-18T14:30:57.579Z</time></trkpt><trkpt lat="44.1524364" lon="8.0551833"><ele>621.0</ele><time>2026-04-18T14:30:58.578Z</time></trkpt><trkpt lat="44.1525158" lon="8.055024"><ele>621.0</ele><time>2026-04-18T14:30:59.578Z</time></trkpt><trkpt lat="44.1525795" lon="8.0548821"><ele>619.4</ele><time>2026-04-18T14:31:00.578Z</time></trkpt><trkpt lat="44.1526318" lon="8.0547458"><ele>617.8</ele><time>2026-04-18T14:31:01.578Z</time></trkpt><trkpt lat="44.1526999" lon="8.0546214"><ele>616.1999999999999</ele><time>2026-04-18T14:31:02.579Z</time></trkpt><trkpt lat="44.1527458" lon="8.0545009"><ele>614.6</ele><time>2026-04-18T14:31:03.578Z</time></trkpt><trkpt lat="44.1527821" lon="8.0543668"><ele>613.0</ele><time>2026-04-18T14:31:04.579Z</time></trkpt><trkpt lat="44.1528129" lon="8.054245"><ele>613.0</ele><time>2026-04-18T14:31:05.578Z</time></trkpt><trkpt lat="44.1528626" lon="8.054125"><ele>613.0</ele><time>2026-04-18T14:31:06.58Z</time></trkpt><trkpt lat="44.1529329" lon="8.0540162"><ele>613.0</ele><time>2026-04-18T14:31:07.579Z</time></trkpt><trkpt lat="44.1529768" lon="8.0539254"><ele>613.0</ele><time>2026-04-18T14:31:08.579Z</time></trkpt><trkpt lat="44.1530216" lon="8.0538252"><ele>613.0</ele><time>2026-04-18T14:31:10.578Z</time></trkpt><trkpt lat="44.1530916" lon="8.0538464"><ele>613.0</ele><time>2026-04-18T14:31:12.579Z</time></trkpt><trkpt lat="44.1530838" lon="8.0539386"><ele>613.0</ele><time>2026-04-18T14:31:14.579Z</time></trkpt><trkpt lat="44.1530411" lon="8.0540458"><ele>613.0</ele><time>2026-04-18T14:31:16.58Z</time></trkpt><trkpt lat="44.1530193" lon="8.0541496"><ele>613.0</ele><time>2026-04-18T14:31:17.578Z</time></trkpt><trkpt lat="44.1530337" lon="8.0542832"><ele>613.0</ele><time>2026-04-18T14:31:18.578Z</time></trkpt><trkpt lat="44.1530551" lon="8.0544202"><ele>613.0</ele><time>2026-04-18T14:31:19.579Z</time></trkpt><trkpt lat="44.1530601" lon="8.0545365"><ele>613.0</ele><time>2026-04-18T14:31:20.579Z</time></trkpt><trkpt lat="44.153059" lon="8.0546412"><ele>613.0</ele><time>2026-04-18T14:31:21.578Z</time></trkpt><trkpt lat="44.1530188" lon="8.0547652"><ele>613.0</ele><time>2026-04-18T14:31:22.578Z</time></trkpt><trkpt lat="44.1529756" lon="8.0548594"><ele>613.0</ele><time>2026-04-18T14:31:23.578Z</time></trkpt><trkpt lat="44.1529437" lon="8.054949"><ele>613.0</ele><time>2026-04-18T14:31:24.579Z</time></trkpt><trkpt lat="44.152928" lon="8.0550643"><ele>613.0</ele><time>2026-04-18T14:31:25.579Z</time></trkpt><trkpt lat="44.1529097" lon="8.0551657"><ele>613.0</ele><time>2026-04-18T14:31:26.579Z</time></trkpt><trkpt lat="44.1529295" lon="8.0552746"><ele>614.6</ele><time>2026-04-18T14:31:27.58Z</time></trkpt><trkpt lat="44.1529833" lon="8.0553711"><ele>616.1999999999999</ele><time>2026-04-18T14:31:28.578Z</time></trkpt><trkpt lat="44.1530231" lon="8.0554785"><ele>617.8</ele><time>2026-04-18T14:31:29.579Z</time></trkpt><trkpt lat="44.1530805" lon="8.055578"><ele>619.4</ele><time>2026-04-18T14:31:30.578Z</time></trkpt><trkpt lat="44.1531632" lon="8.055691"><ele>621.0</ele><time>2026-04-18T14:31:31.578Z</time></trkpt><trkpt lat="44.1532205" lon="8.0557906"><ele>628.6</ele><time>2026-04-18T14:31:32.578Z</time></trkpt><trkpt lat="44.1532712" lon="8.0558933"><ele>636.2</ele><time>2026-04-18T14:31:33.58Z</time></trkpt><trkpt lat="44.1533529" lon="8.055935"><ele>643.8000000000001</ele><time>2026-04-18T14:31:34.579Z</time></trkpt><trkpt lat="44.1533605" lon="8.0560491"><ele>651.4000000000001</ele><time>2026-04-18T14:31:35.578Z</time></trkpt><trkpt lat="44.1534332" lon="8.0561125"><ele>659.0</ele><time>2026-04-18T14:31:37.579Z</time></trkpt><trkpt lat="44.1535104" lon="8.0560099"><ele>659.0</ele><time>2026-04-18T14:31:39.58Z</time></trkpt><trkpt lat="44.1535327" lon="8.0558823"><ele>659.0</ele><time>2026-04-18T14:31:40.58Z</time></trkpt><trkpt lat="44.1535681" lon="8.0557506"><ele>659.0</ele><time>2026-04-18T14:31:41.578Z</time></trkpt><trkpt lat="44.1535842" lon="8.0556199"><ele>659.0</ele><time>2026-04-18T14:31:42.578Z</time></trkpt><trkpt lat="44.1536055" lon="8.0554932"><ele>659.0</ele><time>2026-04-18T14:31:43.579Z</time></trkpt><trkpt lat="44.1536138" lon="8.0553626"><ele>659.0</ele><time>2026-04-18T14:31:45.58Z</time></trkpt><trkpt lat="44.1537184" lon="8.0554209"><ele>659.0</ele><time>2026-04-18T14:31:48.579Z</time></trkpt><trkpt lat="44.1537367" lon="8.0555127"><ele>659.0</ele><time>2026-04-18T14:31:49.578Z</time></trkpt><trkpt lat="44.1537208" lon="8.0556363"><ele>659.0</ele><time>2026-04-18T14:31:50.578Z</time></trkpt><trkpt lat="44.153706" lon="8.0557587"><ele>659.0</ele><time>2026-04-18T14:31:51.579Z</time></trkpt><trkpt lat="44.1537058" lon="8.0558818"><ele>659.0</ele><time>2026-04-18T14:31:52.579Z</time></trkpt><trkpt lat="44.1537045" lon="8.0559972"><ele>659.0</ele><time>2026-04-18T14:31:53.579Z</time></trkpt><trkpt lat="44.153732" lon="8.0561145"><ele>659.0</ele><time>2026-04-18T14:31:54.579Z</time></trkpt><trkpt lat="44.1537582" lon="8.0562526"><ele>659.0</ele><time>2026-04-18T14:31:55.578Z</time></trkpt><trkpt lat="44.1537663" lon="8.0563817"><ele>659.0</ele><time>2026-04-18T14:31:56.578Z</time></trkpt><trkpt lat="44.153767" lon="8.0565232"><ele>659.0</ele><time>2026-04-18T14:31:57.578Z</time></trkpt><trkpt lat="44.1537658" lon="8.0566488"><ele>659.8333333333333</ele><time>2026-04-18T14:31:58.579Z</time></trkpt><trkpt lat="44.1537771" lon="8.0567675"><ele>660.6666666666666</ele><time>2026-04-18T14:31:59.579Z</time></trkpt><trkpt lat="44.1537838" lon="8.0568922"><ele>661.5</ele><time>2026-04-18T14:32:01.579Z</time></trkpt><trkpt lat="44.1538274" lon="8.0569855"><ele>662.3333333333334</ele><time>2026-04-18T14:32:02.58Z</time></trkpt><trkpt lat="44.1538671" lon="8.0570672"><ele>663.1666666666667</ele><time>2026-04-18T14:32:03.579Z</time></trkpt><trkpt lat="44.1539147" lon="8.0571456"><ele>664.0</ele><time>2026-04-18T14:32:04.578Z</time></trkpt><trkpt lat="44.1539526" lon="8.0572299"><ele>664.0</ele><time>2026-04-18T14:32:05.578Z</time></trkpt><trkpt lat="44.1540043" lon="8.0573171"><ele>664.0</ele><time>2026-04-18T14:32:06.579Z</time></trkpt><trkpt lat="44.1540558" lon="8.0573961"><ele>664.0</ele><time>2026-04-18T14:32:07.579Z</time></trkpt><trkpt lat="44.1541089" lon="8.0574949"><ele>664.0</ele><time>2026-04-18T14:32:08.579Z</time></trkpt><trkpt lat="44.1541524" lon="8.0575652"><ele>664.0</ele><time>2026-04-18T14:32:09.579Z</time></trkpt><trkpt lat="44.1541939" lon="8.0577016"><ele>664.0</ele><time>2026-04-18T14:32:11.578Z</time></trkpt><trkpt lat="44.1542282" lon="8.057581"><ele>668.5</ele><time>2026-04-18T14:32:14.578Z</time></trkpt><trkpt lat="44.1542277" lon="8.0574655"><ele>673.0</ele><time>2026-04-18T14:32:15.574Z</time></trkpt><trkpt lat="44.154221" lon="8.0573439"><ele>677.5</ele><time>2026-04-18T14:32:16.578Z</time></trkpt><trkpt lat="44.1542011" lon="8.0572179"><ele>682.0</ele><time>2026-04-18T14:32:17.579Z</time></trkpt><trkpt lat="44.1541784" lon="8.0570936"><ele>686.5</ele><time>2026-04-18T14:32:18.579Z</time></trkpt><trkpt lat="44.1541402" lon="8.0569995"><ele>691.0</ele><time>2026-04-18T14:32:19.579Z</time></trkpt><trkpt lat="44.1541526" lon="8.0568476"><ele>692.0</ele><time>2026-04-18T14:32:21.579Z</time></trkpt><trkpt lat="44.1542225" lon="8.0567319"><ele>693.0</ele><time>2026-04-18T14:32:23.579Z</time></trkpt><trkpt lat="44.15428" lon="8.0566766"><ele>694.0</ele><time>2026-04-18T14:32:24.578Z</time></trkpt><trkpt lat="44.1543081" lon="8.0565973"><ele>695.0</ele><time>2026-04-18T14:32:25.578Z</time></trkpt><trkpt lat="44.1543375" lon="8.0564899"><ele>696.0</ele><time>2026-04-18T14:32:26.578Z</time></trkpt><trkpt lat="44.1543386" lon="8.0563881"><ele>697.0</ele><time>2026-04-18T14:32:27.58Z</time></trkpt><trkpt lat="44.1542859" lon="8.0561972"><ele>697.4000000000001</ele><time>2026-04-18T14:32:29.579Z</time></trkpt><trkpt lat="44.1542677" lon="8.056082"><ele>697.8000000000001</ele><time>2026-04-18T14:32:30.578Z</time></trkpt><trkpt lat="44.154267" lon="8.0559198"><ele>698.2</ele><time>2026-04-18T14:32:31.58Z</time></trkpt><trkpt lat="44.1542934" lon="8.0557793"><ele>698.6</ele><time>2026-04-18T14:32:32.579Z</time></trkpt><trkpt lat="44.1543296" lon="8.0556179"><ele>699.0</ele><time>2026-04-18T14:32:33.579Z</time></trkpt><trkpt lat="44.1543508" lon="8.0554563"><ele>699.2</ele><time>2026-04-18T14:32:34.579Z</time></trkpt><trkpt lat="44.1543775" lon="8.0553056"><ele>699.4000000000001</ele><time>2026-04-18T14:32:35.579Z</time></trkpt><trkpt lat="44.1543874" lon="8.0551581"><ele>699.6</ele><time>2026-04-18T14:32:36.578Z</time></trkpt><trkpt lat="44.154405" lon="8.0550112"><ele>699.8</ele><time>2026-04-18T14:32:37.578Z</time></trkpt><trkpt lat="44.1544116" lon="8.054874"><ele>700.0</ele><time>2026-04-18T14:32:38.579Z</time></trkpt><trkpt lat="44.1544391" lon="8.0547761"><ele>701.1666666666667</ele><time>2026-04-18T14:32:39.578Z</time></trkpt><trkpt lat="44.1544206" lon="8.0546876"><ele>702.3333333333334</ele><time>2026-04-18T14:32:40.578Z</time></trkpt><trkpt lat="44.1544114" lon="8.0545882"><ele>703.5</ele><time>2026-04-18T14:32:41.579Z</time></trkpt><trkpt lat="44.154514" lon="8.0545801"><ele>704.6666666666666</ele><time>2026-04-18T14:32:44.578Z</time></trkpt><trkpt lat="44.1545557" lon="8.0546614"><ele>705.8333333333333</ele><time>2026-04-18T14:32:45.578Z</time></trkpt><trkpt lat="44.1545935" lon="8.0547925"><ele>707.0</ele><time>2026-04-18T14:32:46.579Z</time></trkpt><trkpt lat="44.1546262" lon="8.0549149"><ele>705.6</ele><time>2026-04-18T14:32:47.578Z</time></trkpt><trkpt lat="44.1547093" lon="8.0550443"><ele>704.2</ele><time>2026-04-18T14:32:48.579Z</time></trkpt><trkpt lat="44.1547623" lon="8.0551864"><ele>702.8</ele><time>2026-04-18T14:32:49.579Z</time></trkpt><trkpt lat="44.1547643" lon="8.0552936"><ele>701.4</ele><time>2026-04-18T14:32:50.58Z</time></trkpt><trkpt lat="44.1547839" lon="8.055442"><ele>700.0</ele><time>2026-04-18T14:32:51.579Z</time></trkpt><trkpt lat="44.1547249" lon="8.055566"><ele>700.0</ele><time>2026-04-18T14:32:52.579Z</time></trkpt><trkpt lat="44.1547173" lon="8.0557124"><ele>700.0</ele><time>2026-04-18T14:32:53.579Z</time></trkpt><trkpt lat="44.1547225" lon="8.055844"><ele>700.0</ele><time>2026-04-18T14:32:54.579Z</time></trkpt><trkpt lat="44.1547433" lon="8.0559674"><ele>700.0</ele><time>2026-04-18T14:32:55.578Z</time></trkpt><trkpt lat="44.1547767" lon="8.05609"><ele>700.0</ele><time>2026-04-18T14:32:56.578Z</time></trkpt><trkpt lat="44.1548324" lon="8.0562053"><ele>705.4</ele><time>2026-04-18T14:32:57.578Z</time></trkpt><trkpt lat="44.1548795" lon="8.056327"><ele>710.8</ele><time>2026-04-18T14:32:58.579Z</time></trkpt><trkpt lat="44.15492" lon="8.0564203"><ele>716.2</ele><time>2026-04-18T14:32:59.579Z</time></trkpt><trkpt lat="44.15498" lon="8.0565387"><ele>721.6</ele><time>2026-04-18T14:33:00.579Z</time></trkpt><trkpt lat="44.1550094" lon="8.0566649"><ele>727.0</ele><time>2026-04-18T14:33:01.578Z</time></trkpt><trkpt lat="44.1550482" lon="8.0567913"><ele>727.0</ele><time>2026-04-18T14:33:02.578Z</time></trkpt><trkpt lat="44.1550913" lon="8.0568997"><ele>727.0</ele><time>2026-04-18T14:33:03.58Z</time></trkpt><trkpt lat="44.1551175" lon="8.057015"><ele>727.0</ele><time>2026-04-18T14:33:04.578Z</time></trkpt><trkpt lat="44.1551561" lon="8.0571669"><ele>727.0</ele><time>2026-04-18T14:33:05.578Z</time></trkpt><trkpt lat="44.1552254" lon="8.0572734"><ele>727.0</ele><time>2026-04-18T14:33:06.578Z</time></trkpt><trkpt lat="44.1552889" lon="8.0574066"><ele>725.6666666666667</ele><time>2026-04-18T14:33:07.578Z</time></trkpt><trkpt lat="44.1553437" lon="8.057518"><ele>724.3333333333334</ele><time>2026-04-18T14:33:08.578Z</time></trkpt><trkpt lat="44.1554022" lon="8.0576127"><ele>723.0</ele><time>2026-04-18T14:33:09.579Z</time></trkpt><trkpt lat="44.1554203" lon="8.057761"><ele>721.6666666666666</ele><time>2026-04-18T14:33:10.579Z</time></trkpt><trkpt lat="44.1554532" lon="8.0578616"><ele>720.3333333333333</ele><time>2026-04-18T14:33:11.579Z</time></trkpt><trkpt lat="44.1554971" lon="8.0579378"><ele>719.0</ele><time>2026-04-18T14:33:12.578Z</time></trkpt><trkpt lat="44.1555489" lon="8.0580127"><ele>719.0</ele><time>2026-04-18T14:33:13.579Z</time></trkpt><trkpt lat="44.1556364" lon="8.0580836"><ele>719.0</ele><time>2026-04-18T14:33:14.578Z</time></trkpt><trkpt lat="44.155696" lon="8.0581247"><ele>719.0</ele><time>2026-04-18T14:33:15.578Z</time></trkpt><trkpt lat="44.1557571" lon="8.0582156"><ele>719.0</ele><time>2026-04-18T14:33:16.578Z</time></trkpt><trkpt lat="44.1558584" lon="8.0583427"><ele>719.0</ele><time>2026-04-18T14:33:18.578Z</time></trkpt><trkpt lat="44.1559247" lon="8.0585122"><ele>722.1666666666666</ele><time>2026-04-18T14:33:20.579Z</time></trkpt><trkpt lat="44.1559523" lon="8.0586138"><ele>725.3333333333333</ele><time>2026-04-18T14:33:21.578Z</time></trkpt><trkpt lat="44.1559795" lon="8.0587126"><ele>728.5</ele><time>2026-04-18T14:33:22.578Z</time></trkpt><trkpt lat="44.156032" lon="8.0587885"><ele>731.6666666666666</ele><time>2026-04-18T14:33:23.58Z</time></trkpt><trkpt lat="44.1561694" lon="8.0588155"><ele>734.8333333333334</ele><time>2026-04-18T14:33:25.58Z</time></trkpt><trkpt lat="44.1562316" lon="8.0588345"><ele>738.0</ele><time>2026-04-18T14:33:26.579Z</time></trkpt><trkpt lat="44.1562947" lon="8.0588949"><ele>738.0</ele><time>2026-04-18T14:33:27.578Z</time></trkpt><trkpt lat="44.1563684" lon="8.0589574"><ele>738.0</ele><time>2026-04-18T14:33:28.579Z</time></trkpt><trkpt lat="44.1564125" lon="8.0590284"><ele>738.0</ele><time>2026-04-18T14:33:29.579Z</time></trkpt><trkpt lat="44.1564706" lon="8.0590847"><ele>738.0</ele><time>2026-04-18T14:33:30.579Z</time></trkpt><trkpt lat="44.1565056" lon="8.0592827"><ele>738.0</ele><time>2026-04-18T14:33:32.578Z</time></trkpt><trkpt lat="44.1565427" lon="8.0594177"><ele>740.1666666666666</ele><time>2026-04-18T14:33:33.578Z</time></trkpt><trkpt lat="44.1565879" lon="8.059541"><ele>742.3333333333334</ele><time>2026-04-18T14:33:34.58Z</time></trkpt><trkpt lat="44.1566395" lon="8.0596361"><ele>744.5</ele><time>2026-04-18T14:33:35.578Z</time></trkpt><trkpt lat="44.1567142" lon="8.0596692"><ele>746.6666666666667</ele><time>2026-04-18T14:33:36.579Z</time></trkpt><trkpt lat="44.156796" lon="8.0596784"><ele>748.8333333333334</ele><time>2026-04-18T14:33:37.578Z</time></trkpt><trkpt lat="44.1568821" lon="8.0596659"><ele>751.0</ele><time>2026-04-18T14:33:38.579Z</time></trkpt><trkpt lat="44.1569406" lon="8.0596297"><ele>751.0</ele><time>2026-04-18T14:33:39.579Z</time></trkpt><trkpt lat="44.1570309" lon="8.0595602"><ele>751.0</ele><time>2026-04-18T14:33:40.579Z</time></trkpt><trkpt lat="44.1570908" lon="8.0594729"><ele>751.0</ele><time>2026-04-18T14:33:41.578Z</time></trkpt><trkpt lat="44.1571073" lon="8.0593318"><ele>751.0</ele><time>2026-04-18T14:33:43.578Z</time></trkpt><trkpt lat="44.1570498" lon="8.0591762"><ele>751.0</ele><time>2026-04-18T14:33:45.579Z</time></trkpt><trkpt lat="44.1569451" lon="8.0590353"><ele>752.25</ele><time>2026-04-18T14:33:46.578Z</time></trkpt><trkpt lat="44.1568338" lon="8.0589092"><ele>753.5</ele><time>2026-04-18T14:33:47.579Z</time></trkpt><trkpt lat="44.1567564" lon="8.0588032"><ele>754.75</ele><time>2026-04-18T14:33:48.579Z</time></trkpt><trkpt lat="44.1566866" lon="8.0586835"><ele>756.0</ele><time>2026-04-18T14:33:49.579Z</time></trkpt><trkpt lat="44.1566302" lon="8.0585716"><ele>756.0</ele><time>2026-04-18T14:33:50.58Z</time></trkpt><trkpt lat="44.1565684" lon="8.058426"><ele>756.0</ele><time>2026-04-18T14:33:51.578Z</time></trkpt><trkpt lat="44.156545" lon="8.0582774"><ele>756.0</ele><time>2026-04-18T14:33:52.578Z</time></trkpt><trkpt lat="44.1564951" lon="8.058128"><ele>756.0</ele><time>2026-04-18T14:33:53.578Z</time></trkpt><trkpt lat="44.1564123" lon="8.0580051"><ele>755.4</ele><time>2026-04-18T14:33:54.579Z</time></trkpt><trkpt lat="44.1563707" lon="8.057857"><ele>754.8</ele><time>2026-04-18T14:33:55.578Z</time></trkpt><trkpt lat="44.1563991" lon="8.0577442"><ele>754.1999999999999</ele><time>2026-04-18T14:33:56.578Z</time></trkpt><trkpt lat="44.1564006" lon="8.0576085"><ele>753.5999999999999</ele><time>2026-04-18T14:33:57.579Z</time></trkpt><trkpt lat="44.1564177" lon="8.057467"><ele>753.0</ele><time>2026-04-18T14:33:58.578Z</time></trkpt><trkpt lat="44.1564605" lon="8.0573379"><ele>755.25</ele><time>2026-04-18T14:33:59.579Z</time></trkpt><trkpt lat="44.1564985" lon="8.0571775"><ele>757.5</ele><time>2026-04-18T14:34:00.578Z</time></trkpt><trkpt lat="44.156543" lon="8.0570244"><ele>759.75</ele><time>2026-04-18T14:34:01.579Z</time></trkpt><trkpt lat="44.1565512" lon="8.0568257"><ele>762.0</ele><time>2026-04-18T14:34:02.578Z</time></trkpt><trkpt lat="44.1565511" lon="8.0566095"><ele>764.0</ele><time>2026-04-18T14:34:03.578Z</time></trkpt><trkpt lat="44.1565582" lon="8.0563871"><ele>766.0</ele><time>2026-04-18T14:34:04.579Z</time></trkpt><trkpt lat="44.1565528" lon="8.0561605"><ele>768.0</ele><time>2026-04-18T14:34:05.579Z</time></trkpt><trkpt lat="44.1565108" lon="8.0559431"><ele>770.25</ele><time>2026-04-18T14:34:06.578Z</time></trkpt><trkpt lat="44.1565052" lon="8.0557267"><ele>772.5</ele><time>2026-04-18T14:34:07.578Z</time></trkpt><trkpt lat="44.1565824" lon="8.0555989"><ele>774.75</ele><time>2026-04-18T14:34:08.578Z</time></trkpt><trkpt lat="44.1565839" lon="8.0553649"><ele>777.0</ele><time>2026-04-18T14:34:09.58Z</time></trkpt><trkpt lat="44.1566833" lon="8.0551544"><ele>777.0</ele><time>2026-04-18T14:34:10.579Z</time></trkpt><trkpt lat="44.1567034" lon="8.0549672"><ele>777.0</ele><time>2026-04-18T14:34:11.58Z</time></trkpt><trkpt lat="44.1567245" lon="8.0547846"><ele>777.0</ele><time>2026-04-18T14:34:12.58Z</time></trkpt><trkpt lat="44.1567541" lon="8.0546559"><ele>777.0</ele><time>2026-04-18T14:34:13.578Z</time></trkpt><trkpt lat="44.1567892" lon="8.0545601"><ele>777.0</ele><time>2026-04-18T14:34:14.579Z</time></trkpt><trkpt lat="44.156811" lon="8.0544634"><ele>781.0</ele><time>2026-04-18T14:34:17.579Z</time></trkpt><trkpt lat="44.1568809" lon="8.0544428"><ele>785.0</ele><time>2026-04-18T14:34:20.578Z</time></trkpt><trkpt lat="44.1568565" lon="8.0543362"><ele>789.0</ele><time>2026-04-18T14:34:35.58Z</time></trkpt><trkpt lat="44.1569123" lon="8.0542536"><ele>793.0</ele><time>2026-04-18T14:34:37.579Z</time></trkpt><trkpt lat="44.1569562" lon="8.0541498"><ele>797.0</ele><time>2026-04-18T14:34:39.579Z</time></trkpt><trkpt lat="44.1570065" lon="8.0540657"><ele>801.0</ele><time>2026-04-18T14:34:41.58Z</time></trkpt><trkpt lat="44.1570919" lon="8.0539338"><ele>804.8</ele><time>2026-04-18T14:34:43.578Z</time></trkpt><trkpt lat="44.1571143" lon="8.0538038"><ele>808.5999999999999</ele><time>2026-04-18T14:34:45.58Z</time></trkpt><trkpt lat="44.1571421" lon="8.0536818"><ele>812.4</ele><time>2026-04-18T14:34:47.578Z</time></trkpt><trkpt lat="44.1571787" lon="8.0535451"><ele>816.2</ele><time>2026-04-18T14:34:49.578Z</time></trkpt><trkpt lat="44.1572277" lon="8.0534465"><ele>820.0</ele><time>2026-04-18T14:34:51.579Z</time></trkpt><trkpt lat="44.1572652" lon="8.0533246"><ele>824.1666666666666</ele><time>2026-04-18T14:34:53.579Z</time></trkpt><trkpt lat="44.1572964" lon="8.053214"><ele>828.3333333333333</ele><time>2026-04-18T14:34:55.58Z</time></trkpt><trkpt lat="44.1573323" lon="8.0531052"><ele>832.5</ele><time>2026-04-18T14:34:57.578Z</time></trkpt><trkpt lat="44.1573479" lon="8.0529918"><ele>836.6666666666667</ele><time>2026-04-18T14:34:59.579Z</time></trkpt><trkpt lat="44.15737" lon="8.0528348"><ele>840.8333333333334</ele><time>2026-04-18T14:35:01.578Z</time></trkpt><trkpt lat="44.1573816" lon="8.0527356"><ele>845.0</ele><time>2026-04-18T14:35:02.579Z</time></trkpt><trkpt lat="44.1573711" lon="8.0525751"><ele>839.0000000000001</ele><time>2026-04-18T14:35:04.578Z</time></trkpt><trkpt lat="44.1573931" lon="8.0523723"><ele>833.0</ele><time>2026-04-18T14:35:06.578Z</time></trkpt><trkpt lat="44.1574025" lon="8.0522543"><ele>827.0</ele><time>2026-04-18T14:35:07.578Z</time></trkpt><trkpt lat="44.1574016" lon="8.0521662"><ele>821.0</ele><time>2026-04-18T14:35:08.578Z</time></trkpt><trkpt lat="44.1574641" lon="8.0520886"><ele>815.0000000000001</ele><time>2026-04-18T14:35:09.578Z</time></trkpt><trkpt lat="44.1574524" lon="8.0519923"><ele>809.0</ele><time>2026-04-18T14:35:10.579Z</time></trkpt><trkpt lat="44.1574606" lon="8.0518998"><ele>809.0</ele><time>2026-04-18T14:35:11.58Z</time></trkpt><trkpt lat="44.1574932" lon="8.051727"><ele>809.0</ele><time>2026-04-18T14:35:13.578Z</time></trkpt><trkpt lat="44.1575028" lon="8.0515298"><ele>809.0</ele><time>2026-04-18T14:35:15.579Z</time></trkpt><trkpt lat="44.1575319" lon="8.051384"><ele>809.0</ele><time>2026-04-18T14:35:17.578Z</time></trkpt><trkpt lat="44.1575578" lon="8.0512965"><ele>809.0</ele><time>2026-04-18T14:35:18.578Z</time></trkpt><trkpt lat="44.1575497" lon="8.0511509"><ele>810.8571428571429</ele><time>2026-04-18T14:35:20.579Z</time></trkpt><trkpt lat="44.1575423" lon="8.051056"><ele>812.7142857142858</ele><time>2026-04-18T14:35:21.578Z</time></trkpt><trkpt lat="44.1575251" lon="8.0509399"><ele>814.5714285714286</ele><time>2026-04-18T14:35:22.58Z</time></trkpt><trkpt lat="44.1575296" lon="8.050843"><ele>816.4285714285714</ele><time>2026-04-18T14:35:23.579Z</time></trkpt><trkpt lat="44.1575242" lon="8.0507303"><ele>818.2857142857142</ele><time>2026-04-18T14:35:24.578Z</time></trkpt><trkpt lat="44.1574949" lon="8.0506405"><ele>820.1428571428571</ele><time>2026-04-18T14:35:25.579Z</time></trkpt><trkpt lat="44.1574928" lon="8.0505411"><ele>822.0</ele><time>2026-04-18T14:35:26.578Z</time></trkpt><trkpt lat="44.1575193" lon="8.0504291"><ele>826.5</ele><time>2026-04-18T14:35:28.579Z</time></trkpt><trkpt lat="44.1575356" lon="8.0502184"><ele>831.0</ele><time>2026-04-18T14:35:35.578Z</time></trkpt><trkpt lat="44.1575561" lon="8.0501107"><ele>835.5</ele><time>2026-04-18T14:35:37.578Z</time></trkpt><trkpt lat="44.1576015" lon="8.0499682"><ele>840.0</ele><time>2026-04-18T14:35:39.579Z</time></trkpt><trkpt lat="44.1576334" lon="8.0498225"><ele>843.8333333333334</ele><time>2026-04-18T14:35:41.579Z</time></trkpt><trkpt lat="44.1576949" lon="8.049728"><ele>847.6666666666667</ele><time>2026-04-18T14:35:43.578Z</time></trkpt><trkpt lat="44.1577384" lon="8.0496533"><ele>851.5</ele><time>2026-04-18T14:35:44.578Z</time></trkpt><trkpt lat="44.1578132" lon="8.0495353"><ele>855.3333333333334</ele><time>2026-04-18T14:35:46.579Z</time></trkpt><trkpt lat="44.1578398" lon="8.0494554"><ele>859.1666666666667</ele><time>2026-04-18T14:35:47.579Z</time></trkpt><trkpt lat="44.1578559" lon="8.0493656"><ele>863.0</ele><time>2026-04-18T14:35:48.579Z</time></trkpt><trkpt lat="44.1579052" lon="8.0492916"><ele>863.0000000000001</ele><time>2026-04-18T14:35:49.58Z</time></trkpt><trkpt lat="44.1579772" lon="8.0492036"><ele>863.0</ele><time>2026-04-18T14:35:51.578Z</time></trkpt><trkpt lat="44.1580391" lon="8.0491384"><ele>863.0</ele><time>2026-04-18T14:35:53.579Z</time></trkpt><trkpt lat="44.1581062" lon="8.0490894"><ele>863.0</ele><time>2026-04-18T14:35:54.578Z</time></trkpt><trkpt lat="44.158136" lon="8.0490007"><ele>863.0000000000001</ele><time>2026-04-18T14:35:55.579Z</time></trkpt><trkpt lat="44.1581793" lon="8.0489162"><ele>863.0</ele><time>2026-04-18T14:35:56.578Z</time></trkpt><trkpt lat="44.1582221" lon="8.0488298"><ele>862.5714285714287</ele><time>2026-04-18T14:35:57.578Z</time></trkpt><trkpt lat="44.158277" lon="8.0487583"><ele>862.1428571428571</ele><time>2026-04-18T14:35:58.579Z</time></trkpt><trkpt lat="44.1583162" lon="8.0486777"><ele>861.7142857142858</ele><time>2026-04-18T14:35:59.579Z</time></trkpt><trkpt lat="44.1583791" lon="8.0486307"><ele>861.2857142857143</ele><time>2026-04-18T14:36:00.58Z</time></trkpt><trkpt lat="44.158435" lon="8.0485864"><ele>860.8571428571429</ele><time>2026-04-18T14:36:01.58Z</time></trkpt><trkpt lat="44.1584982" lon="8.0485271"><ele>860.4285714285714</ele><time>2026-04-18T14:36:02.578Z</time></trkpt><trkpt lat="44.1585385" lon="8.0484541"><ele>860.0</ele><time>2026-04-18T14:36:03.578Z</time></trkpt><trkpt lat="44.1585953" lon="8.048357"><ele>860.0000000000001</ele><time>2026-04-18T14:36:05.58Z</time></trkpt><trkpt lat="44.1586669" lon="8.0483325"><ele>860.0</ele><time>2026-04-18T14:36:07.578Z</time></trkpt><trkpt lat="44.158736" lon="8.0482623"><ele>860.0</ele><time>2026-04-18T14:36:09.578Z</time></trkpt><trkpt lat="44.1587719" lon="8.0481825"><ele>860.0</ele><time>2026-04-18T14:36:11.58Z</time></trkpt><trkpt lat="44.1588187" lon="8.048101"><ele>860.0000000000001</ele><time>2026-04-18T14:36:13.579Z</time></trkpt><trkpt lat="44.1588793" lon="8.0480144"><ele>860.0</ele><time>2026-04-18T14:36:15.578Z</time></trkpt><trkpt lat="44.1589637" lon="8.0479864"><ele>861.4</ele><time>2026-04-18T14:36:17.579Z</time></trkpt><trkpt lat="44.1590865" lon="8.0480274"><ele>862.8</ele><time>2026-04-18T14:36:19.578Z</time></trkpt><trkpt lat="44.1591706" lon="8.0480717"><ele>864.2</ele><time>2026-04-18T14:36:21.579Z</time></trkpt><trkpt lat="44.1592377" lon="8.0480523"><ele>865.6</ele><time>2026-04-18T14:36:23.578Z</time></trkpt><trkpt lat="44.1592452" lon="8.0479433"><ele>867.0</ele><time>2026-04-18T14:36:25.579Z</time></trkpt><trkpt lat="44.1592439" lon="8.0478035"><ele>867.0</ele><time>2026-04-18T14:36:27.579Z</time></trkpt><trkpt lat="44.1592653" lon="8.0476565"><ele>867.0</ele><time>2026-04-18T14:36:28.578Z</time></trkpt><trkpt lat="44.1592814" lon="8.047555"><ele>867.0</ele><time>2026-04-18T14:36:29.578Z</time></trkpt><trkpt lat="44.1593112" lon="8.0473796"><ele>867.0</ele><time>2026-04-18T14:36:31.578Z</time></trkpt><trkpt lat="44.1593283" lon="8.0472725"><ele>867.0</ele><time>2026-04-18T14:36:32.578Z</time></trkpt><trkpt lat="44.1593574" lon="8.0471634"><ele>869.5</ele><time>2026-04-18T14:36:33.578Z</time></trkpt><trkpt lat="44.1593727" lon="8.0470699"><ele>872.0</ele><time>2026-04-18T14:36:34.578Z</time></trkpt><trkpt lat="44.1593868" lon="8.046956"><ele>874.5</ele><time>2026-04-18T14:36:35.579Z</time></trkpt><trkpt lat="44.1594109" lon="8.0468442"><ele>877.0</ele><time>2026-04-18T14:36:36.579Z</time></trkpt><trkpt lat="44.1594648" lon="8.0467015"><ele>879.5</ele><time>2026-04-18T14:36:37.579Z</time></trkpt><trkpt lat="44.1595058" lon="8.0465808"><ele>882.0</ele><time>2026-04-18T14:36:38.58Z</time></trkpt><trkpt lat="44.1595175" lon="8.0464843"><ele>884.8</ele><time>2026-04-18T14:36:39.578Z</time></trkpt><trkpt lat="44.1595462" lon="8.0463153"><ele>887.6</ele><time>2026-04-18T14:36:41.58Z</time></trkpt><trkpt lat="44.1595586" lon="8.0462156"><ele>890.3999999999999</ele><time>2026-04-18T14:36:43.58Z</time></trkpt><trkpt lat="44.1595626" lon="8.0460807"><ele>893.1999999999999</ele><time>2026-04-18T14:36:45.58Z</time></trkpt><trkpt lat="44.1595702" lon="8.0459692"><ele>896.0</ele><time>2026-04-18T14:36:46.58Z</time></trkpt><trkpt lat="44.1595954" lon="8.0458691"><ele>897.5999999999999</ele><time>2026-04-18T14:36:47.579Z</time></trkpt><trkpt lat="44.1596147" lon="8.0456814"><ele>899.1999999999999</ele><time>2026-04-18T14:36:49.58Z</time></trkpt><trkpt lat="44.1596354" lon="8.0455384"><ele>900.8000000000001</ele><time>2026-04-18T14:36:50.58Z</time></trkpt><trkpt lat="44.1596683" lon="8.0454448"><ele>902.4000000000001</ele><time>2026-04-18T14:36:51.581Z</time></trkpt><trkpt lat="44.1597214" lon="8.0453369"><ele>904.0</ele><time>2026-04-18T14:36:52.581Z</time></trkpt><trkpt lat="44.1597575" lon="8.0452605"><ele>903.9999999999999</ele><time>2026-04-18T14:36:53.58Z</time></trkpt><trkpt lat="44.1597801" lon="8.045176"><ele>904.0</ele><time>2026-04-18T14:36:54.581Z</time></trkpt><trkpt lat="44.1598416" lon="8.0450553"><ele>904.0</ele><time>2026-04-18T14:36:56.58Z</time></trkpt><trkpt lat="44.1598938" lon="8.0449636"><ele>904.0</ele><time>2026-04-18T14:36:58.579Z</time></trkpt><trkpt lat="44.1598905" lon="8.0448436"><ele>903.9999999999999</ele><time>2026-04-18T14:37:00.58Z</time></trkpt><trkpt lat="44.1597974" lon="8.0448534"><ele>904.0</ele><time>2026-04-18T14:37:04.579Z</time></trkpt><trkpt lat="44.1597302" lon="8.0448474"><ele>904.0</ele><time>2026-04-18T14:37:05.581Z</time></trkpt><trkpt lat="44.1596055" lon="8.0449011"><ele>904.0000000000001</ele><time>2026-04-18T14:37:07.579Z</time></trkpt><trkpt lat="44.1595236" lon="8.0449319"><ele>904.0000000000001</ele><time>2026-04-18T14:37:08.58Z</time></trkpt><trkpt lat="44.1594566" lon="8.0449655"><ele>904.0</ele><time>2026-04-18T14:37:09.58Z</time></trkpt><trkpt lat="44.1593303" lon="8.0450134"><ele>904.0</ele><time>2026-04-18T14:37:11.579Z</time></trkpt><trkpt lat="44.1592664" lon="8.0450318"><ele>904.0</ele><time>2026-04-18T14:37:12.579Z</time></trkpt><trkpt lat="44.1591941" lon="8.0450147"><ele>904.0000000000001</ele><time>2026-04-18T14:37:13.579Z</time></trkpt><trkpt lat="44.159122" lon="8.0449524"><ele>904.0000000000001</ele><time>2026-04-18T14:37:15.58Z</time></trkpt><trkpt lat="44.159041" lon="8.0448807"><ele>904.0</ele><time>2026-04-18T14:37:17.58Z</time></trkpt><trkpt lat="44.1589296" lon="8.0448046"><ele>904.0</ele><time>2026-04-18T14:37:19.579Z</time></trkpt><trkpt lat="44.1588353" lon="8.0447323"><ele>905.5</ele><time>2026-04-18T14:37:21.58Z</time></trkpt><trkpt lat="44.1587328" lon="8.0446635"><ele>907.0</ele><time>2026-04-18T14:37:23.58Z</time></trkpt><trkpt lat="44.1586405" lon="8.0445784"><ele>908.5</ele><time>2026-04-18T14:37:25.58Z</time></trkpt><trkpt lat="44.1585413" lon="8.0445195"><ele>910.0</ele><time>2026-04-18T14:37:27.579Z</time></trkpt><trkpt lat="44.1584316" lon="8.0444147"><ele>910.0</ele><time>2026-04-18T14:37:29.58Z</time></trkpt><trkpt lat="44.1583879" lon="8.0443016"><ele>910.0</ele><time>2026-04-18T14:37:31.58Z</time></trkpt><trkpt lat="44.1583433" lon="8.0441928"><ele>910.0</ele><time>2026-04-18T14:37:32.579Z</time></trkpt><trkpt lat="44.1583287" lon="8.0440369"><ele>910.0</ele><time>2026-04-18T14:37:34.581Z</time></trkpt><trkpt lat="44.158307" lon="8.0439356"><ele>910.0</ele><time>2026-04-18T14:37:35.581Z</time></trkpt><trkpt lat="44.1583543" lon="8.0437732"><ele>908.6666666666666</ele><time>2026-04-18T14:37:37.58Z</time></trkpt><trkpt lat="44.1583503" lon="8.0436846"><ele>907.3333333333333</ele><time>2026-04-18T14:37:38.579Z</time></trkpt><trkpt lat="44.1584079" lon="8.0435818"><ele>906.0</ele><time>2026-04-18T14:37:39.58Z</time></trkpt><trkpt lat="44.1583795" lon="8.0434494"><ele>904.6666666666667</ele><time>2026-04-18T14:37:40.58Z</time></trkpt><trkpt lat="44.1583954" lon="8.0433637"><ele>903.3333333333334</ele><time>2026-04-18T14:37:41.579Z</time></trkpt><trkpt lat="44.1584323" lon="8.0432098"><ele>902.0</ele><time>2026-04-18T14:37:43.579Z</time></trkpt><trkpt lat="44.1584121" lon="8.0430633"><ele>900.6</ele><time>2026-04-18T14:37:45.58Z</time></trkpt><trkpt lat="44.1584093" lon="8.0429723"><ele>899.2</ele><time>2026-04-18T14:37:46.58Z</time></trkpt><trkpt lat="44.1583493" lon="8.0428783"><ele>897.8</ele><time>2026-04-18T14:37:47.58Z</time></trkpt><trkpt lat="44.1583428" lon="8.0427896"><ele>896.4</ele><time>2026-04-18T14:37:48.579Z</time></trkpt><trkpt lat="44.1582884" lon="8.0426544"><ele>895.0</ele><time>2026-04-18T14:37:50.579Z</time></trkpt><trkpt lat="44.1583295" lon="8.0424547"><ele>894.8333333333333</ele><time>2026-04-18T14:37:52.579Z</time></trkpt><trkpt lat="44.158378" lon="8.0423205"><ele>894.6666666666666</ele><time>2026-04-18T14:37:53.58Z</time></trkpt><trkpt lat="44.1584328" lon="8.042247"><ele>894.5</ele><time>2026-04-18T14:37:54.579Z</time></trkpt><trkpt lat="44.1584646" lon="8.0421407"><ele>894.3333333333333</ele><time>2026-04-18T14:37:55.581Z</time></trkpt><trkpt lat="44.1584821" lon="8.042032"><ele>894.1666666666666</ele><time>2026-04-18T14:37:56.58Z</time></trkpt><trkpt lat="44.1585244" lon="8.0419321"><ele>894.0</ele><time>2026-04-18T14:37:57.579Z</time></trkpt><trkpt lat="44.1585903" lon="8.0418202"><ele>893.9999999999999</ele><time>2026-04-18T14:37:58.58Z</time></trkpt><trkpt lat="44.158565" lon="8.0417329"><ele>894.0</ele><time>2026-04-18T14:37:59.58Z</time></trkpt><trkpt lat="44.1585693" lon="8.0416276"><ele>894.0</ele><time>2026-04-18T14:38:00.579Z</time></trkpt><trkpt lat="44.158599" lon="8.0415453"><ele>894.0</ele><time>2026-04-18T14:38:01.58Z</time></trkpt><trkpt lat="44.158637" lon="8.0414528"><ele>894.0</ele><time>2026-04-18T14:38:02.579Z</time></trkpt><trkpt lat="44.1586842" lon="8.0413648"><ele>893.9999999999999</ele><time>2026-04-18T14:38:03.579Z</time></trkpt><trkpt lat="44.1587232" lon="8.0412792"><ele>894.0</ele><time>2026-04-18T14:38:04.581Z</time></trkpt><trkpt lat="44.1587337" lon="8.0411848"><ele>893.0</ele><time>2026-04-18T14:38:05.58Z</time></trkpt><trkpt lat="44.158737" lon="8.0410393"><ele>892.0000000000001</ele><time>2026-04-18T14:38:07.579Z</time></trkpt><trkpt lat="44.1587355" lon="8.0408818"><ele>891.0000000000001</ele><time>2026-04-18T14:38:09.579Z</time></trkpt><trkpt lat="44.1587417" lon="8.0407433"><ele>890.0</ele><time>2026-04-18T14:38:11.579Z</time></trkpt><trkpt lat="44.1586907" lon="8.0406244"><ele>889.0</ele><time>2026-04-18T14:38:13.58Z</time></trkpt><trkpt lat="44.1586407" lon="8.040495"><ele>889.0</ele><time>2026-04-18T14:38:15.581Z</time></trkpt><trkpt lat="44.1585762" lon="8.040402"><ele>889.0000000000001</ele><time>2026-04-18T14:38:17.58Z</time></trkpt><trkpt lat="44.1585083" lon="8.0403353"><ele>889.0000000000001</ele><time>2026-04-18T14:38:18.58Z</time></trkpt><trkpt lat="44.1585436" lon="8.040244"><ele>889.0</ele><time>2026-04-18T14:38:21.58Z</time></trkpt><trkpt lat="44.1585532" lon="8.0401089"><ele>889.0</ele><time>2026-04-18T14:38:23.579Z</time></trkpt><trkpt lat="44.1586532" lon="8.0399122"><ele>892.3333333333333</ele><time>2026-04-18T14:38:25.58Z</time></trkpt><trkpt lat="44.158675" lon="8.039756"><ele>895.6666666666666</ele><time>2026-04-18T14:38:27.579Z</time></trkpt><trkpt lat="44.1587686" lon="8.039711"><ele>899.0</ele><time>2026-04-18T14:38:28.579Z</time></trkpt><trkpt lat="44.1587695" lon="8.0396231"><ele>902.3333333333333</ele><time>2026-04-18T14:38:29.58Z</time></trkpt><trkpt lat="44.1588098" lon="8.039523"><ele>905.6666666666666</ele><time>2026-04-18T14:38:31.579Z</time></trkpt><trkpt lat="44.1588816" lon="8.0395252"><ele>909.0</ele><time>2026-04-18T14:39:51.58Z</time></trkpt><trkpt lat="44.1589445" lon="8.039535"><ele>904.2</ele><time>2026-04-18T14:39:52.581Z</time></trkpt><trkpt lat="44.1591091" lon="8.0394869"><ele>899.4000000000001</ele><time>2026-04-18T14:40:07.58Z</time></trkpt><trkpt lat="44.1591841" lon="8.0395005"><ele>894.6</ele><time>2026-04-18T14:40:12.581Z</time></trkpt><trkpt lat="44.1592603" lon="8.0395303"><ele>889.8</ele><time>2026-04-18T14:40:14.58Z</time></trkpt><trkpt lat="44.1593317" lon="8.0395634"><ele>885.0</ele><time>2026-04-18T14:40:15.58Z</time></trkpt><trkpt lat="44.1594352" lon="8.0396072"><ele>885.0</ele><time>2026-04-18T14:40:17.581Z</time></trkpt><trkpt lat="44.159511" lon="8.0396135"><ele>885.0</ele><time>2026-04-18T14:40:19.58Z</time></trkpt><trkpt lat="44.1595878" lon="8.039554"><ele>885.0</ele><time>2026-04-18T14:40:21.58Z</time></trkpt><trkpt lat="44.1596737" lon="8.0394685"><ele>885.0</ele><time>2026-04-18T14:40:23.58Z</time></trkpt><trkpt lat="44.1597375" lon="8.0394012"><ele>885.0</ele><time>2026-04-18T14:40:25.579Z</time></trkpt><trkpt lat="44.1598408" lon="8.0393505"><ele>883.0</ele><time>2026-04-18T14:40:27.58Z</time></trkpt><trkpt lat="44.1599501" lon="8.0393255"><ele>881.0</ele><time>2026-04-18T14:40:29.58Z</time></trkpt><trkpt lat="44.1600981" lon="8.0393388"><ele>879.0</ele><time>2026-04-18T14:40:31.58Z</time></trkpt><trkpt lat="44.1602076" lon="8.0393111"><ele>877.0</ele><time>2026-04-18T14:40:33.579Z</time></trkpt><trkpt lat="44.1602841" lon="8.0393203"><ele>875.0</ele><time>2026-04-18T14:40:34.579Z</time></trkpt><trkpt lat="44.1604043" lon="8.0393402"><ele>875.0</ele><time>2026-04-18T14:40:36.58Z</time></trkpt><trkpt lat="44.1604841" lon="8.0393578"><ele>875.0</ele><time>2026-04-18T14:40:37.58Z</time></trkpt><trkpt lat="44.1605495" lon="8.0393618"><ele>875.0</ele><time>2026-04-18T14:40:38.579Z</time></trkpt><trkpt lat="44.1606166" lon="8.0393598"><ele>875.0</ele><time>2026-04-18T14:40:39.58Z</time></trkpt><trkpt lat="44.1607053" lon="8.039313"><ele>875.0</ele><time>2026-04-18T14:40:41.58Z</time></trkpt><trkpt lat="44.1607569" lon="8.0392507"><ele>875.0</ele><time>2026-04-18T14:40:42.579Z</time></trkpt><trkpt lat="44.1608156" lon="8.0391963"><ele>875.0</ele><time>2026-04-18T14:40:43.58Z</time></trkpt><trkpt lat="44.160882" lon="8.0391142"><ele>874.1666666666667</ele><time>2026-04-18T14:40:44.58Z</time></trkpt><trkpt lat="44.1609452" lon="8.0390336"><ele>873.3333333333334</ele><time>2026-04-18T14:40:45.579Z</time></trkpt><trkpt lat="44.1610133" lon="8.0389606"><ele>872.5</ele><time>2026-04-18T14:40:46.579Z</time></trkpt><trkpt lat="44.1610644" lon="8.0388769"><ele>871.6666666666667</ele><time>2026-04-18T14:40:47.579Z</time></trkpt><trkpt lat="44.1611138" lon="8.0388185"><ele>870.8333333333334</ele><time>2026-04-18T14:40:48.58Z</time></trkpt><trkpt lat="44.1611923" lon="8.0386852"><ele>870.0</ele><time>2026-04-18T14:40:50.579Z</time></trkpt><trkpt lat="44.1612583" lon="8.0385655"><ele>870.0</ele><time>2026-04-18T14:40:52.581Z</time></trkpt><trkpt lat="44.1613175" lon="8.0384572"><ele>870.0</ele><time>2026-04-18T14:40:54.58Z</time></trkpt><trkpt lat="44.1613754" lon="8.0384021"><ele>870.0</ele><time>2026-04-18T14:40:55.579Z</time></trkpt><trkpt lat="44.1614084" lon="8.0383255"><ele>870.0</ele><time>2026-04-18T14:40:56.579Z</time></trkpt><trkpt lat="44.1615193" lon="8.0382193"><ele>870.0</ele><time>2026-04-18T14:40:58.58Z</time></trkpt><trkpt lat="44.161647" lon="8.0381587"><ele>866.0</ele><time>2026-04-18T14:41:00.579Z</time></trkpt><trkpt lat="44.1616987" lon="8.0380599"><ele>862.0</ele><time>2026-04-18T14:41:02.579Z</time></trkpt><trkpt lat="44.1617533" lon="8.0379672"><ele>858.0</ele><time>2026-04-18T14:41:05.579Z</time></trkpt><trkpt lat="44.1616881" lon="8.03813"><ele>854.0</ele><time>2026-04-18T14:41:12.579Z</time></trkpt><trkpt lat="44.1616264" lon="8.0382086"><ele>850.0</ele><time>2026-04-18T14:41:15.58Z</time></trkpt><trkpt lat="44.161584" lon="8.0383082"><ele>854.0</ele><time>2026-04-18T14:41:17.579Z</time></trkpt><trkpt lat="44.1615412" lon="8.0384609"><ele>858.0</ele><time>2026-04-18T14:41:19.58Z</time></trkpt><trkpt lat="44.1615192" lon="8.0385457"><ele>862.0</ele><time>2026-04-18T14:41:21.58Z</time></trkpt><trkpt lat="44.1614848" lon="8.0386625"><ele>866.0</ele><time>2026-04-18T14:41:24.58Z</time></trkpt><trkpt lat="44.1614821" lon="8.0387959"><ele>870.0</ele><time>2026-04-18T14:41:26.58Z</time></trkpt><trkpt lat="44.1614604" lon="8.0389212"><ele>870.0</ele><time>2026-04-18T14:41:28.581Z</time></trkpt><trkpt lat="44.1614813" lon="8.0390054"><ele>870.0</ele><time>2026-04-18T14:41:30.579Z</time></trkpt><trkpt lat="44.1614436" lon="8.0390803"><ele>870.0</ele><time>2026-04-18T14:41:34.581Z</time></trkpt><trkpt lat="44.1614216" lon="8.0392333"><ele>870.0</ele><time>2026-04-18T14:41:37.579Z</time></trkpt><trkpt lat="44.1614009" lon="8.0393571"><ele>870.0</ele><time>2026-04-18T14:41:38.579Z</time></trkpt><trkpt lat="44.1613715" lon="8.0394822"><ele>870.0</ele><time>2026-04-18T14:41:39.58Z</time></trkpt><trkpt lat="44.1613507" lon="8.0395821"><ele>866.5</ele><time>2026-04-18T14:41:40.581Z</time></trkpt><trkpt lat="44.1613356" lon="8.0397343"><ele>863.0</ele><time>2026-04-18T14:41:42.579Z</time></trkpt><trkpt lat="44.1613283" lon="8.0398865"><ele>859.5</ele><time>2026-04-18T14:41:44.58Z</time></trkpt><trkpt lat="44.1613214" lon="8.0399774"><ele>856.0</ele><time>2026-04-18T14:41:46.579Z</time></trkpt><trkpt lat="44.1612957" lon="8.0400774"><ele>852.5</ele><time>2026-04-18T14:41:49.579Z</time></trkpt><trkpt lat="44.161295" lon="8.0401672"><ele>849.0</ele><time>2026-04-18T14:41:53.579Z</time></trkpt><trkpt lat="44.1612875" lon="8.0402868"><ele>844.8333333333334</ele><time>2026-04-18T14:41:57.58Z</time></trkpt><trkpt lat="44.1613524" lon="8.0403403"><ele>840.6666666666667</ele><time>2026-04-18T14:42:00.579Z</time></trkpt><trkpt lat="44.1614148" lon="8.0402891"><ele>836.5</ele><time>2026-04-18T14:42:02.581Z</time></trkpt><trkpt lat="44.1614642" lon="8.0401817"><ele>832.3333333333334</ele><time>2026-04-18T14:42:04.579Z</time></trkpt><trkpt lat="44.1615142" lon="8.0400817"><ele>828.1666666666667</ele><time>2026-04-18T14:42:06.58Z</time></trkpt><trkpt lat="44.1615608" lon="8.0399892"><ele>824.0</ele><time>2026-04-18T14:42:08.58Z</time></trkpt><trkpt lat="44.1615963" lon="8.0399147"><ele>822.8333333333334</ele><time>2026-04-18T14:42:11.58Z</time></trkpt><trkpt lat="44.1616406" lon="8.0398516"><ele>821.6666666666667</ele><time>2026-04-18T14:42:13.58Z</time></trkpt><trkpt lat="44.1617218" lon="8.0398446"><ele>820.5</ele><time>2026-04-18T14:42:17.579Z</time></trkpt><trkpt lat="44.1618017" lon="8.039861"><ele>819.3333333333333</ele><time>2026-04-18T14:42:19.58Z</time></trkpt><trkpt lat="44.1618835" lon="8.0397859"><ele>818.1666666666666</ele><time>2026-04-18T14:42:21.58Z</time></trkpt><trkpt lat="44.1619332" lon="8.0397197"><ele>817.0</ele><time>2026-04-18T14:42:22.58Z</time></trkpt><trkpt lat="44.1620115" lon="8.039682"><ele>817.0</ele><time>2026-04-18T14:42:23.58Z</time></trkpt><trkpt lat="44.1620696" lon="8.0395665"><ele>817.0</ele><time>2026-04-18T14:42:24.58Z</time></trkpt><trkpt lat="44.1621574" lon="8.0394484"><ele>817.0</ele><time>2026-04-18T14:42:26.579Z</time></trkpt><trkpt lat="44.162256" lon="8.0392823"><ele>817.0</ele><time>2026-04-18T14:42:28.579Z</time></trkpt><trkpt lat="44.1622816" lon="8.0391926"><ele>817.0</ele><time>2026-04-18T14:42:29.579Z</time></trkpt><trkpt lat="44.1623491" lon="8.0390457"><ele>815.8571428571428</ele><time>2026-04-18T14:42:31.58Z</time></trkpt><trkpt lat="44.1623925" lon="8.038976"><ele>814.7142857142857</ele><time>2026-04-18T14:42:32.58Z</time></trkpt><trkpt lat="44.1624406" lon="8.0388938"><ele>813.5714285714286</ele><time>2026-04-18T14:42:33.581Z</time></trkpt><trkpt lat="44.1624992" lon="8.0388137"><ele>812.4285714285713</ele><time>2026-04-18T14:42:35.579Z</time></trkpt><trkpt lat="44.162522" lon="8.03871"><ele>811.2857142857143</ele><time>2026-04-18T14:42:37.58Z</time></trkpt><trkpt lat="44.1625536" lon="8.0386275"><ele>810.1428571428571</ele><time>2026-04-18T14:42:40.579Z</time></trkpt><trkpt lat="44.1626315" lon="8.0386016"><ele>809.0</ele><time>2026-04-18T14:42:44.579Z</time></trkpt><trkpt lat="44.1627085" lon="8.0386301"><ele>809.0000000000001</ele><time>2026-04-18T14:42:47.581Z</time></trkpt><trkpt lat="44.1627309" lon="8.03873"><ele>809.0</ele><time>2026-04-18T14:42:50.58Z</time></trkpt><trkpt lat="44.1627796" lon="8.0388007"><ele>809.0</ele><time>2026-04-18T14:42:52.58Z</time></trkpt><trkpt lat="44.1628388" lon="8.0388918"><ele>809.0</ele><time>2026-04-18T14:42:54.58Z</time></trkpt><trkpt lat="44.1628861" lon="8.0390067"><ele>809.0000000000001</ele><time>2026-04-18T14:42:56.58Z</time></trkpt><trkpt lat="44.162918" lon="8.0391282"><ele>809.0</ele><time>2026-04-18T14:42:57.581Z</time></trkpt><trkpt lat="44.1629362" lon="8.0392379"><ele>808.8000000000001</ele><time>2026-04-18T14:42:58.58Z</time></trkpt><trkpt lat="44.162969" lon="8.0393209"><ele>808.6</ele><time>2026-04-18T14:42:59.58Z</time></trkpt><trkpt lat="44.1630505" lon="8.0392898"><ele>808.4</ele><time>2026-04-18T14:43:00.579Z</time></trkpt><trkpt lat="44.1630833" lon="8.0393903"><ele>808.2</ele><time>2026-04-18T14:43:01.581Z</time></trkpt><trkpt lat="44.1632123" lon="8.039388"><ele>808.0</ele><time>2026-04-18T14:43:03.579Z</time></trkpt><trkpt lat="44.1633158" lon="8.0394648"><ele>808.0</ele><time>2026-04-18T14:43:05.58Z</time></trkpt><trkpt lat="44.1634207" lon="8.0395525"><ele>808.0</ele><time>2026-04-18T14:43:07.58Z</time></trkpt><trkpt lat="44.163505" lon="8.0396238"><ele>808.0</ele><time>2026-04-18T14:43:09.58Z</time></trkpt><trkpt lat="44.1636001" lon="8.0397162"><ele>808.0</ele><time>2026-04-18T14:43:11.58Z</time></trkpt><trkpt lat="44.1636823" lon="8.039775"><ele>808.0</ele><time>2026-04-18T14:43:13.579Z</time></trkpt><trkpt lat="44.1637502" lon="8.0397874"><ele>804.2</ele><time>2026-04-18T14:43:14.58Z</time></trkpt><trkpt lat="44.1637315" lon="8.040044"><ele>800.4</ele><time>2026-04-18T14:43:15.579Z</time></trkpt><trkpt lat="44.1637775" lon="8.0401094"><ele>796.6</ele><time>2026-04-18T14:43:16.58Z</time></trkpt><trkpt lat="44.1638107" lon="8.0402129"><ele>792.8000000000001</ele><time>2026-04-18T14:43:17.58Z</time></trkpt><trkpt lat="44.1638352" lon="8.0403474"><ele>789.0</ele><time>2026-04-18T14:43:19.58Z</time></trkpt><trkpt lat="44.1638934" lon="8.0404376"><ele>789.0</ele><time>2026-04-18T14:43:21.58Z</time></trkpt><trkpt lat="44.1639824" lon="8.040417"><ele>789.0</ele><time>2026-04-18T14:43:23.58Z</time></trkpt><trkpt lat="44.1640925" lon="8.0403997"><ele>789.0</ele><time>2026-04-18T14:43:25.579Z</time></trkpt><trkpt lat="44.1641737" lon="8.0403647"><ele>789.0</ele><time>2026-04-18T14:43:26.579Z</time></trkpt><trkpt lat="44.1642473" lon="8.0403132"><ele>789.0</ele><time>2026-04-18T14:43:27.58Z</time></trkpt><trkpt lat="44.1643296" lon="8.0403"><ele>793.1666666666666</ele><time>2026-04-18T14:43:28.58Z</time></trkpt><trkpt lat="44.164426" lon="8.0402864"><ele>797.3333333333333</ele><time>2026-04-18T14:43:29.58Z</time></trkpt><trkpt lat="44.1644967" lon="8.040295"><ele>801.5</ele><time>2026-04-18T14:43:30.58Z</time></trkpt><trkpt lat="44.1645738" lon="8.0402737"><ele>805.6666666666666</ele><time>2026-04-18T14:43:31.581Z</time></trkpt><trkpt lat="44.1646992" lon="8.0403081"><ele>809.8333333333333</ele><time>2026-04-18T14:43:33.581Z</time></trkpt><trkpt lat="44.164765" lon="8.0402695"><ele>814.0</ele><time>2026-04-18T14:43:34.58Z</time></trkpt><trkpt lat="44.1648375" lon="8.0402989"><ele>814.0</ele><time>2026-04-18T14:43:37.579Z</time></trkpt><trkpt lat="44.1648089" lon="8.0404285"><ele>814.0</ele><time>2026-04-18T14:43:39.58Z</time></trkpt><trkpt lat="44.1647278" lon="8.0405566"><ele>814.0</ele><time>2026-04-18T14:43:41.579Z</time></trkpt><trkpt lat="44.1647103" lon="8.0406488"><ele>814.0</ele><time>2026-04-18T14:43:42.579Z</time></trkpt><trkpt lat="44.1646688" lon="8.0408797"><ele>814.8333333333333</ele><time>2026-04-18T14:43:44.581Z</time></trkpt><trkpt lat="44.1646614" lon="8.0409906"><ele>815.6666666666666</ele><time>2026-04-18T14:43:45.581Z</time></trkpt><trkpt lat="44.1646592" lon="8.0411367"><ele>816.5</ele><time>2026-04-18T14:43:47.581Z</time></trkpt><trkpt lat="44.1647214" lon="8.0411533"><ele>817.3333333333333</ele><time>2026-04-18T14:43:48.579Z</time></trkpt><trkpt lat="44.1647771" lon="8.0412187"><ele>818.1666666666666</ele><time>2026-04-18T14:43:49.579Z</time></trkpt><trkpt lat="44.1648324" lon="8.0412931"><ele>819.0</ele><time>2026-04-18T14:43:50.58Z</time></trkpt><trkpt lat="44.1649045" lon="8.0413524"><ele>819.0</ele><time>2026-04-18T14:43:51.579Z</time></trkpt><trkpt lat="44.164963" lon="8.0414042"><ele>819.0</ele><time>2026-04-18T14:43:52.579Z</time></trkpt><trkpt lat="44.1650426" lon="8.0415029"><ele>819.0</ele><time>2026-04-18T14:43:54.579Z</time></trkpt><trkpt lat="44.1650564" lon="8.0415931"><ele>819.0</ele><time>2026-04-18T14:43:56.58Z</time></trkpt><trkpt lat="44.1650447" lon="8.0417021"><ele>819.0</ele><time>2026-04-18T14:43:58.579Z</time></trkpt><trkpt lat="44.1650376" lon="8.0417978"><ele>819.0</ele><time>2026-04-18T14:43:59.58Z</time></trkpt><trkpt lat="44.1650123" lon="8.0419917"><ele>818.1666666666666</ele><time>2026-04-18T14:44:01.58Z</time></trkpt><trkpt lat="44.1650417" lon="8.0420762"><ele>817.3333333333333</ele><time>2026-04-18T14:44:02.58Z</time></trkpt><trkpt lat="44.165031" lon="8.0421732"><ele>816.5</ele><time>2026-04-18T14:44:03.58Z</time></trkpt><trkpt lat="44.1650787" lon="8.0422587"><ele>815.6666666666666</ele><time>2026-04-18T14:44:05.579Z</time></trkpt><trkpt lat="44.1651527" lon="8.0422412"><ele>814.8333333333333</ele><time>2026-04-18T14:44:08.579Z</time></trkpt><trkpt lat="44.1651716" lon="8.0421071"><ele>814.0</ele><time>2026-04-18T14:44:10.579Z</time></trkpt><trkpt lat="44.1651814" lon="8.042015"><ele>813.9999999999999</ele><time>2026-04-18T14:44:11.58Z</time></trkpt><trkpt lat="44.1652174" lon="8.0419023"><ele>814.0</ele><time>2026-04-18T14:44:12.58Z</time></trkpt><trkpt lat="44.1652541" lon="8.0418033"><ele>814.0</ele><time>2026-04-18T14:44:13.581Z</time></trkpt><trkpt lat="44.1653032" lon="8.0417395"><ele>814.0</ele><time>2026-04-18T14:44:14.58Z</time></trkpt><trkpt lat="44.165348" lon="8.0416581"><ele>813.9999999999999</ele><time>2026-04-18T14:44:15.58Z</time></trkpt><trkpt lat="44.1653937" lon="8.0415814"><ele>814.0</ele><time>2026-04-18T14:44:16.581Z</time></trkpt><trkpt lat="44.1654623" lon="8.0415155"><ele>815.0</ele><time>2026-04-18T14:44:17.58Z</time></trkpt><trkpt lat="44.1655123" lon="8.0414504"><ele>816.0</ele><time>2026-04-18T14:44:18.58Z</time></trkpt><trkpt lat="44.1655728" lon="8.041364"><ele>817.0</ele><time>2026-04-18T14:44:20.58Z</time></trkpt><trkpt lat="44.1654838" lon="8.0411889"><ele>818.0</ele><time>2026-04-18T14:44:22.581Z</time></trkpt><trkpt lat="44.1653792" lon="8.0410866"><ele>819.0</ele><time>2026-04-18T14:44:24.581Z</time></trkpt><trkpt lat="44.1653306" lon="8.0410247"><ele>819.0</ele><time>2026-04-18T14:44:25.581Z</time></trkpt><trkpt lat="44.1653184" lon="8.0408711"><ele>819.0</ele><time>2026-04-18T14:44:27.579Z</time></trkpt><trkpt lat="44.1653109" lon="8.0407069"><ele>819.0</ele><time>2026-04-18T14:44:29.579Z</time></trkpt><trkpt lat="44.1653199" lon="8.0406197"><ele>819.0</ele><time>2026-04-18T14:44:30.579Z</time></trkpt><trkpt lat="44.1653834" lon="8.0405577"><ele>819.0</ele><time>2026-04-18T14:44:31.58Z</time></trkpt><trkpt lat="44.1654488" lon="8.040619"><ele>819.0</ele><time>2026-04-18T14:44:34.581Z</time></trkpt><trkpt lat="44.165466" lon="8.0407319"><ele>819.0</ele><time>2026-04-18T14:44:36.58Z</time></trkpt><trkpt lat="44.1655365" lon="8.0408506"><ele>819.0</ele><time>2026-04-18T14:44:38.58Z</time></trkpt><trkpt lat="44.165625" lon="8.040831"><ele>819.0</ele><time>2026-04-18T14:44:40.58Z</time></trkpt><trkpt lat="44.165692" lon="8.0408475"><ele>819.0</ele><time>2026-04-18T14:44:42.579Z</time></trkpt><trkpt lat="44.1657628" lon="8.0408767"><ele>819.0</ele><time>2026-04-18T14:44:44.58Z</time></trkpt><trkpt lat="44.1658548" lon="8.040937"><ele>819.0</ele><time>2026-04-18T14:44:46.579Z</time></trkpt><trkpt lat="44.1659154" lon="8.0410497"><ele>823.4000000000001</ele><time>2026-04-18T14:44:48.579Z</time></trkpt><trkpt lat="44.1659472" lon="8.0411787"><ele>827.8</ele><time>2026-04-18T14:44:50.581Z</time></trkpt><trkpt lat="44.1659489" lon="8.0413508"><ele>832.2</ele><time>2026-04-18T14:44:52.579Z</time></trkpt><trkpt lat="44.1659265" lon="8.0414788"><ele>836.5999999999999</ele><time>2026-04-18T14:44:54.579Z</time></trkpt><trkpt lat="44.165976" lon="8.0415996"><ele>841.0</ele><time>2026-04-18T14:44:56.579Z</time></trkpt><trkpt lat="44.1660387" lon="8.0416471"><ele>840.9999999999999</ele><time>2026-04-18T14:44:57.58Z</time></trkpt><trkpt lat="44.1661132" lon="8.041666"><ele>841.0</ele><time>2026-04-18T14:44:58.58Z</time></trkpt><trkpt lat="44.1661958" lon="8.0417035"><ele>841.0</ele><time>2026-04-18T14:44:59.58Z</time></trkpt><trkpt lat="44.1662625" lon="8.0417255"><ele>841.0</ele><time>2026-04-18T14:45:00.58Z</time></trkpt><trkpt lat="44.1663539" lon="8.0417586"><ele>840.9999999999999</ele><time>2026-04-18T14:45:01.58Z</time></trkpt><trkpt lat="44.1664366" lon="8.041788"><ele>841.0</ele><time>2026-04-18T14:45:02.58Z</time></trkpt><trkpt lat="44.1665163" lon="8.0418219"><ele>844.3333333333333</ele><time>2026-04-18T14:45:03.58Z</time></trkpt><trkpt lat="44.1666004" lon="8.0418635"><ele>847.6666666666666</ele><time>2026-04-18T14:45:04.58Z</time></trkpt><trkpt lat="44.1666805" lon="8.0419031"><ele>851.0</ele><time>2026-04-18T14:45:05.579Z</time></trkpt><trkpt lat="44.166752" lon="8.0419616"><ele>854.3333333333333</ele><time>2026-04-18T14:45:06.58Z</time></trkpt><trkpt lat="44.1668176" lon="8.0420177"><ele>857.6666666666666</ele><time>2026-04-18T14:45:07.58Z</time></trkpt><trkpt lat="44.1668775" lon="8.0420805"><ele>861.0</ele><time>2026-04-18T14:45:08.58Z</time></trkpt><trkpt lat="44.1669453" lon="8.0421171"><ele>861.0</ele><time>2026-04-18T14:45:09.58Z</time></trkpt><trkpt lat="44.1670192" lon="8.0421341"><ele>861.0</ele><time>2026-04-18T14:45:10.58Z</time></trkpt><trkpt lat="44.1670877" lon="8.0421394"><ele>861.0</ele><time>2026-04-18T14:45:11.58Z</time></trkpt><trkpt lat="44.1671789" lon="8.0420915"><ele>861.0</ele><time>2026-04-18T14:45:12.579Z</time></trkpt><trkpt lat="44.1672625" lon="8.0420627"><ele>861.0</ele><time>2026-04-18T14:45:13.579Z</time></trkpt><trkpt lat="44.1673431" lon="8.0420488"><ele>861.0</ele><time>2026-04-18T14:45:14.579Z</time></trkpt><trkpt lat="44.1674294" lon="8.0420126"><ele>863.1999999999999</ele><time>2026-04-18T14:45:15.579Z</time></trkpt><trkpt lat="44.1675232" lon="8.0419654"><ele>865.3999999999999</ele><time>2026-04-18T14:45:16.579Z</time></trkpt><trkpt lat="44.1676088" lon="8.0419131"><ele>867.6</ele><time>2026-04-18T14:45:17.579Z</time></trkpt><trkpt lat="44.1676859" lon="8.0418524"><ele>869.8</ele><time>2026-04-18T14:45:18.58Z</time></trkpt><trkpt lat="44.1677695" lon="8.0417729"><ele>872.0</ele><time>2026-04-18T14:45:19.579Z</time></trkpt><trkpt lat="44.1678539" lon="8.0416888"><ele>877.0000000000001</ele><time>2026-04-18T14:45:20.58Z</time></trkpt><trkpt lat="44.1679198" lon="8.0416313"><ele>882.0</ele><time>2026-04-18T14:45:21.579Z</time></trkpt><trkpt lat="44.1679954" lon="8.0415906"><ele>887.0</ele><time>2026-04-18T14:45:22.58Z</time></trkpt><trkpt lat="44.1680682" lon="8.0415596"><ele>892.0</ele><time>2026-04-18T14:45:23.58Z</time></trkpt><trkpt lat="44.1681513" lon="8.0415345"><ele>897.0000000000001</ele><time>2026-04-18T14:45:24.58Z</time></trkpt><trkpt lat="44.1682287" lon="8.0415164"><ele>902.0</ele><time>2026-04-18T14:45:25.58Z</time></trkpt><trkpt lat="44.1683026" lon="8.0414781"><ele>902.8333333333334</ele><time>2026-04-18T14:45:26.58Z</time></trkpt><trkpt lat="44.1683626" lon="8.0414302"><ele>903.6666666666667</ele><time>2026-04-18T14:45:27.579Z</time></trkpt><trkpt lat="44.1684196" lon="8.0413621"><ele>904.5</ele><time>2026-04-18T14:45:28.579Z</time></trkpt><trkpt lat="44.168479" lon="8.0412932"><ele>905.3333333333333</ele><time>2026-04-18T14:45:29.58Z</time></trkpt><trkpt lat="44.1685487" lon="8.0412275"><ele>906.1666666666666</ele><time>2026-04-18T14:45:30.58Z</time></trkpt><trkpt lat="44.1686102" lon="8.0411697"><ele>907.0</ele><time>2026-04-18T14:45:31.58Z</time></trkpt><trkpt lat="44.1686667" lon="8.0411084"><ele>907.0</ele><time>2026-04-18T14:45:32.581Z</time></trkpt><trkpt lat="44.16873" lon="8.0410701"><ele>907.0</ele><time>2026-04-18T14:45:33.581Z</time></trkpt><trkpt lat="44.1688524" lon="8.0410975"><ele>907.0</ele><time>2026-04-18T14:45:36.58Z</time></trkpt><trkpt lat="44.1688867" lon="8.0412521"><ele>907.0</ele><time>2026-04-18T14:45:38.579Z</time></trkpt><trkpt lat="44.1689074" lon="8.0413612"><ele>907.0</ele><time>2026-04-18T14:45:39.579Z</time></trkpt><trkpt lat="44.1689298" lon="8.0414766"><ele>904.8</ele><time>2026-04-18T14:45:40.58Z</time></trkpt><trkpt lat="44.1689764" lon="8.0416416"><ele>902.6</ele><time>2026-04-18T14:45:42.58Z</time></trkpt><trkpt lat="44.1690065" lon="8.0417281"><ele>900.3999999999999</ele><time>2026-04-18T14:45:43.58Z</time></trkpt><trkpt lat="44.1690197" lon="8.0418452"><ele>898.1999999999999</ele><time>2026-04-18T14:45:44.58Z</time></trkpt><trkpt lat="44.1690421" lon="8.0419911"><ele>896.0</ele><time>2026-04-18T14:45:45.58Z</time></trkpt><trkpt lat="44.1690643" lon="8.0421266"><ele>896.0</ele><time>2026-04-18T14:45:46.58Z</time></trkpt><trkpt lat="44.1690659" lon="8.0422706"><ele>895.9999999999999</ele><time>2026-04-18T14:45:47.58Z</time></trkpt><trkpt lat="44.169059" lon="8.0423895"><ele>895.9999999999999</ele><time>2026-04-18T14:45:48.58Z</time></trkpt><trkpt lat="44.1690662" lon="8.042496"><ele>896.0</ele><time>2026-04-18T14:45:49.579Z</time></trkpt><trkpt lat="44.1690357" lon="8.0426872"><ele>896.0</ele><time>2026-04-18T14:45:51.579Z</time></trkpt><trkpt lat="44.1690155" lon="8.0427745"><ele>895.8333333333334</ele><time>2026-04-18T14:45:52.58Z</time></trkpt><trkpt lat="44.1690086" lon="8.042873"><ele>895.6666666666667</ele><time>2026-04-18T14:45:53.58Z</time></trkpt><trkpt lat="44.1690728" lon="8.0429933"><ele>895.5</ele><time>2026-04-18T14:45:55.579Z</time></trkpt><trkpt lat="44.169139" lon="8.0430146"><ele>895.3333333333333</ele><time>2026-04-18T14:45:56.579Z</time></trkpt><trkpt lat="44.1692282" lon="8.0430231"><ele>895.1666666666666</ele><time>2026-04-18T14:45:57.579Z</time></trkpt><trkpt lat="44.1693176" lon="8.0429907"><ele>895.0</ele><time>2026-04-18T14:45:58.579Z</time></trkpt><trkpt lat="44.1694079" lon="8.0429408"><ele>895.0</ele><time>2026-04-18T14:45:59.579Z</time></trkpt><trkpt lat="44.1694963" lon="8.0429136"><ele>895.0</ele><time>2026-04-18T14:46:00.58Z</time></trkpt><trkpt lat="44.1696004" lon="8.0428996"><ele>895.0</ele><time>2026-04-18T14:46:01.579Z</time></trkpt><trkpt lat="44.1697017" lon="8.0428859"><ele>895.0</ele><time>2026-04-18T14:46:02.579Z</time></trkpt><trkpt lat="44.1698078" lon="8.0428668"><ele>895.0</ele><time>2026-04-18T14:46:03.58Z</time></trkpt><trkpt lat="44.1699008" lon="8.0428601"><ele>898.1666666666666</ele><time>2026-04-18T14:46:04.579Z</time></trkpt><trkpt lat="44.1700057" lon="8.04283"><ele>901.3333333333333</ele><time>2026-04-18T14:46:05.58Z</time></trkpt><trkpt lat="44.1700916" lon="8.0427717"><ele>904.5</ele><time>2026-04-18T14:46:06.579Z</time></trkpt><trkpt lat="44.1701588" lon="8.0427647"><ele>907.6666666666667</ele><time>2026-04-18T14:46:07.58Z</time></trkpt><trkpt lat="44.1702461" lon="8.042756"><ele>910.8333333333334</ele><time>2026-04-18T14:46:08.58Z</time></trkpt><trkpt lat="44.1703359" lon="8.0427565"><ele>914.0</ele><time>2026-04-18T14:46:09.579Z</time></trkpt><trkpt lat="44.1704292" lon="8.0427902"><ele>914.0</ele><time>2026-04-18T14:46:10.579Z</time></trkpt><trkpt lat="44.1705135" lon="8.0428201"><ele>914.0000000000001</ele><time>2026-04-18T14:46:11.58Z</time></trkpt><trkpt lat="44.1705966" lon="8.0428662"><ele>914.0000000000001</ele><time>2026-04-18T14:46:12.581Z</time></trkpt><trkpt lat="44.1706885" lon="8.0429198"><ele>914.0</ele><time>2026-04-18T14:46:13.58Z</time></trkpt><trkpt lat="44.1707627" lon="8.0430244"><ele>914.0</ele><time>2026-04-18T14:46:14.58Z</time></trkpt><trkpt lat="44.1708392" lon="8.0431032"><ele>915.1666666666667</ele><time>2026-04-18T14:46:15.58Z</time></trkpt><trkpt lat="44.1708856" lon="8.0431868"><ele>916.3333333333334</ele><time>2026-04-18T14:46:16.579Z</time></trkpt><trkpt lat="44.1709218" lon="8.0432646"><ele>917.5</ele><time>2026-04-18T14:46:17.58Z</time></trkpt><trkpt lat="44.1709693" lon="8.0433514"><ele>918.6666666666667</ele><time>2026-04-18T14:46:18.579Z</time></trkpt><trkpt lat="44.1710196" lon="8.0434367"><ele>919.8333333333334</ele><time>2026-04-18T14:46:19.579Z</time></trkpt><trkpt lat="44.1710678" lon="8.0435257"><ele>921.0</ele><time>2026-04-18T14:46:20.579Z</time></trkpt><trkpt lat="44.1711244" lon="8.0436079"><ele>917.1666666666666</ele><time>2026-04-18T14:46:21.579Z</time></trkpt><trkpt lat="44.1711629" lon="8.0437178"><ele>913.3333333333333</ele><time>2026-04-18T14:46:22.579Z</time></trkpt><trkpt lat="44.1711921" lon="8.0438223"><ele>909.5</ele><time>2026-04-18T14:46:23.58Z</time></trkpt><trkpt lat="44.1711393" lon="8.0439139"><ele>905.6666666666666</ele><time>2026-04-18T14:46:24.58Z</time></trkpt><trkpt lat="44.1711324" lon="8.0440303"><ele>901.8333333333333</ele><time>2026-04-18T14:46:25.581Z</time></trkpt><trkpt lat="44.1711074" lon="8.0441517"><ele>898.0</ele><time>2026-04-18T14:46:26.58Z</time></trkpt><trkpt lat="44.1711021" lon="8.044271"><ele>896.8333333333333</ele><time>2026-04-18T14:46:27.581Z</time></trkpt><trkpt lat="44.1711013" lon="8.0443896"><ele>895.6666666666666</ele><time>2026-04-18T14:46:28.58Z</time></trkpt><trkpt lat="44.1710925" lon="8.0445006"><ele>894.5</ele><time>2026-04-18T14:46:29.58Z</time></trkpt><trkpt lat="44.1710638" lon="8.0446153"><ele>893.3333333333333</ele><time>2026-04-18T14:46:30.581Z</time></trkpt><trkpt lat="44.1710503" lon="8.0447351"><ele>892.1666666666666</ele><time>2026-04-18T14:46:31.58Z</time></trkpt><trkpt lat="44.1710234" lon="8.0448514"><ele>891.0</ele><time>2026-04-18T14:46:32.58Z</time></trkpt><trkpt lat="44.1709917" lon="8.0449308"><ele>891.6666666666666</ele><time>2026-04-18T14:46:33.579Z</time></trkpt><trkpt lat="44.1710044" lon="8.045055"><ele>892.3333333333333</ele><time>2026-04-18T14:46:34.579Z</time></trkpt><trkpt lat="44.17099" lon="8.0451486"><ele>893.0</ele><time>2026-04-18T14:46:35.58Z</time></trkpt><trkpt lat="44.1709982" lon="8.045248"><ele>893.6666666666666</ele><time>2026-04-18T14:46:36.58Z</time></trkpt><trkpt lat="44.1710865" lon="8.0453167"><ele>894.3333333333333</ele><time>2026-04-18T14:46:37.58Z</time></trkpt><trkpt lat="44.1711214" lon="8.0453939"><ele>895.0</ele><time>2026-04-18T14:46:38.58Z</time></trkpt><trkpt lat="44.1711695" lon="8.0454781"><ele>894.9999999999999</ele><time>2026-04-18T14:46:39.58Z</time></trkpt><trkpt lat="44.1712024" lon="8.0455793"><ele>895.0</ele><time>2026-04-18T14:46:40.579Z</time></trkpt><trkpt lat="44.1712425" lon="8.0456716"><ele>895.0</ele><time>2026-04-18T14:46:41.58Z</time></trkpt><trkpt lat="44.1712785" lon="8.0457749"><ele>895.0</ele><time>2026-04-18T14:46:42.58Z</time></trkpt><trkpt lat="44.1712804" lon="8.0458709"><ele>894.9999999999999</ele><time>2026-04-18T14:46:43.58Z</time></trkpt><trkpt lat="44.1712144" lon="8.0460349"><ele>895.0</ele><time>2026-04-18T14:46:45.579Z</time></trkpt><trkpt lat="44.1711765" lon="8.0461206"><ele>895.6666666666666</ele><time>2026-04-18T14:46:46.579Z</time></trkpt><trkpt lat="44.1711506" lon="8.0462365"><ele>896.3333333333333</ele><time>2026-04-18T14:46:47.579Z</time></trkpt><trkpt lat="44.1711317" lon="8.046339"><ele>897.0</ele><time>2026-04-18T14:46:48.58Z</time></trkpt><trkpt lat="44.1711256" lon="8.0464432"><ele>897.6666666666667</ele><time>2026-04-18T14:46:49.58Z</time></trkpt><trkpt lat="44.1711652" lon="8.0466008"><ele>898.3333333333334</ele><time>2026-04-18T14:46:51.58Z</time></trkpt><trkpt lat="44.1712171" lon="8.0466708"><ele>899.0</ele><time>2026-04-18T14:46:52.579Z</time></trkpt><trkpt lat="44.1712841" lon="8.0467169"><ele>899.4000000000001</ele><time>2026-04-18T14:46:53.58Z</time></trkpt><trkpt lat="44.1713401" lon="8.0467779"><ele>899.8000000000001</ele><time>2026-04-18T14:46:54.579Z</time></trkpt><trkpt lat="44.17141" lon="8.0468611"><ele>900.1999999999999</ele><time>2026-04-18T14:46:55.58Z</time></trkpt><trkpt lat="44.1714713" lon="8.0470487"><ele>900.5999999999999</ele><time>2026-04-18T14:46:57.58Z</time></trkpt><trkpt lat="44.1714863" lon="8.0471422"><ele>901.0</ele><time>2026-04-18T14:46:58.579Z</time></trkpt><trkpt lat="44.1714435" lon="8.0472448"><ele>900.9999999999999</ele><time>2026-04-18T14:46:59.58Z</time></trkpt><trkpt lat="44.1714423" lon="8.0473326"><ele>901.0</ele><time>2026-04-18T14:47:00.58Z</time></trkpt><trkpt lat="44.1714294" lon="8.0474801"><ele>901.0</ele><time>2026-04-18T14:47:01.579Z</time></trkpt><trkpt lat="44.1714042" lon="8.047584"><ele>901.0</ele><time>2026-04-18T14:47:02.58Z</time></trkpt><trkpt lat="44.1713786" lon="8.0477075"><ele>900.9999999999999</ele><time>2026-04-18T14:47:03.58Z</time></trkpt><trkpt lat="44.1713826" lon="8.0478522"><ele>901.0</ele><time>2026-04-18T14:47:04.581Z</time></trkpt><trkpt lat="44.1713555" lon="8.0479599"><ele>900.0</ele><time>2026-04-18T14:47:05.581Z</time></trkpt><trkpt lat="44.1713128" lon="8.0480562"><ele>898.9999999999999</ele><time>2026-04-18T14:47:06.58Z</time></trkpt><trkpt lat="44.1712652" lon="8.0481379"><ele>897.9999999999999</ele><time>2026-04-18T14:47:07.579Z</time></trkpt><trkpt lat="44.1711961" lon="8.048193"><ele>897.0</ele><time>2026-04-18T14:47:08.579Z</time></trkpt><trkpt lat="44.1711517" lon="8.0482576"><ele>896.0</ele><time>2026-04-18T14:47:09.58Z</time></trkpt><trkpt lat="44.1710846" lon="8.048446"><ele>896.0</ele><time>2026-04-18T14:50:18.58Z</time></trkpt><trkpt lat="44.1711936" lon="8.0484512"><ele>895.9999999999999</ele><time>2026-04-18T14:50:21.579Z</time></trkpt><trkpt lat="44.1712553" lon="8.04842"><ele>895.9999999999999</ele><time>2026-04-18T14:50:22.58Z</time></trkpt><trkpt lat="44.1713539" lon="8.0483509"><ele>896.0</ele><time>2026-04-18T14:50:23.579Z</time></trkpt><trkpt lat="44.1714537" lon="8.0482867"><ele>896.0</ele><time>2026-04-18T14:50:24.58Z</time></trkpt><trkpt lat="44.1715598" lon="8.0482234"><ele>904.0</ele><time>2026-04-18T14:50:25.579Z</time></trkpt><trkpt lat="44.17169" lon="8.0481514"><ele>912.0</ele><time>2026-04-18T14:50:26.58Z</time></trkpt><trkpt lat="44.1718236" lon="8.0480659"><ele>920.0</ele><time>2026-04-18T14:50:27.579Z</time></trkpt><trkpt lat="44.1719502" lon="8.047979"><ele>928.0</ele><time>2026-04-18T14:50:28.58Z</time></trkpt><trkpt lat="44.1720881" lon="8.0478618"><ele>928.0</ele><time>2026-04-18T14:50:29.58Z</time></trkpt><trkpt lat="44.1722275" lon="8.0477248"><ele>928.0</ele><time>2026-04-18T14:50:30.579Z</time></trkpt><trkpt lat="44.17237" lon="8.0475771"><ele>928.0</ele><time>2026-04-18T14:50:31.579Z</time></trkpt><trkpt lat="44.1725126" lon="8.0474361"><ele>937.0</ele><time>2026-04-18T14:50:32.579Z</time></trkpt><trkpt lat="44.1726559" lon="8.0473003"><ele>946.0</ele><time>2026-04-18T14:50:33.579Z</time></trkpt><trkpt lat="44.1728226" lon="8.0471941"><ele>955.0</ele><time>2026-04-18T14:50:34.579Z</time></trkpt><trkpt lat="44.1729781" lon="8.0470739"><ele>955.0</ele><time>2026-04-18T14:50:35.579Z</time></trkpt><trkpt lat="44.1731453" lon="8.0470197"><ele>955.0</ele><time>2026-04-18T14:50:36.58Z</time></trkpt><trkpt lat="44.1733138" lon="8.0469548"><ele>955.0</ele><time>2026-04-18T14:50:37.579Z</time></trkpt><trkpt lat="44.1734844" lon="8.0469044"><ele>952.3333333333333</ele><time>2026-04-18T14:50:38.579Z</time></trkpt><trkpt lat="44.1736544" lon="8.04686"><ele>949.6666666666667</ele><time>2026-04-18T14:50:39.58Z</time></trkpt><trkpt lat="44.1738263" lon="8.046832"><ele>947.0</ele><time>2026-04-18T14:50:40.579Z</time></trkpt><trkpt lat="44.1739908" lon="8.0468047"><ele>947.3333333333334</ele><time>2026-04-18T14:50:41.58Z</time></trkpt><trkpt lat="44.1741499" lon="8.0467663"><ele>947.6666666666667</ele><time>2026-04-18T14:50:42.58Z</time></trkpt><trkpt lat="44.1743023" lon="8.0467209"><ele>948.0</ele><time>2026-04-18T14:50:43.58Z</time></trkpt><trkpt lat="44.1744512" lon="8.0466937"><ele>948.0</ele><time>2026-04-18T14:50:44.581Z</time></trkpt><trkpt lat="44.174582" lon="8.046705"><ele>948.0</ele><time>2026-04-18T14:50:45.58Z</time></trkpt><trkpt lat="44.1746988" lon="8.0467185"><ele>948.0</ele><time>2026-04-18T14:50:46.581Z</time></trkpt><trkpt lat="44.1748106" lon="8.0467131"><ele>948.0</ele><time>2026-04-18T14:50:47.579Z</time></trkpt><trkpt lat="44.1749141" lon="8.0466666"><ele>950.8</ele><time>2026-04-18T14:50:48.579Z</time></trkpt><trkpt lat="44.1749937" lon="8.0465814"><ele>953.5999999999999</ele><time>2026-04-18T14:50:49.579Z</time></trkpt><trkpt lat="44.1750695" lon="8.0464871"><ele>956.4000000000001</ele><time>2026-04-18T14:50:50.581Z</time></trkpt><trkpt lat="44.1750766" lon="8.046301"><ele>959.2</ele><time>2026-04-18T14:50:51.581Z</time></trkpt><trkpt lat="44.1751163" lon="8.0461718"><ele>962.0</ele><time>2026-04-18T14:50:52.58Z</time></trkpt><trkpt lat="44.1751861" lon="8.0460934"><ele>962.0</ele><time>2026-04-18T14:50:53.58Z</time></trkpt><trkpt lat="44.1752427" lon="8.046017"><ele>962.0</ele><time>2026-04-18T14:50:54.579Z</time></trkpt><trkpt lat="44.1753246" lon="8.0460168"><ele>962.0</ele><time>2026-04-18T14:50:55.579Z</time></trkpt><trkpt lat="44.1754407" lon="8.0461156"><ele>962.0</ele><time>2026-04-18T14:50:56.58Z</time></trkpt><trkpt lat="44.1755323" lon="8.0461541"><ele>962.0</ele><time>2026-04-18T14:50:57.581Z</time></trkpt><trkpt lat="44.1756405" lon="8.0462068"><ele>962.75</ele><time>2026-04-18T14:50:58.58Z</time></trkpt><trkpt lat="44.1757316" lon="8.0462899"><ele>963.5</ele><time>2026-04-18T14:50:59.58Z</time></trkpt><trkpt lat="44.1758375" lon="8.0463996"><ele>964.25</ele><time>2026-04-18T14:51:00.579Z</time></trkpt><trkpt lat="44.1759277" lon="8.0465105"><ele>965.0</ele><time>2026-04-18T14:51:01.579Z</time></trkpt><trkpt lat="44.1760226" lon="8.0466363"><ele>961.0</ele><time>2026-04-18T14:51:02.58Z</time></trkpt><trkpt lat="44.1761188" lon="8.0467559"><ele>957.0</ele><time>2026-04-18T14:51:03.579Z</time></trkpt><trkpt lat="44.1762263" lon="8.0468698"><ele>953.0</ele><time>2026-04-18T14:51:04.58Z</time></trkpt><trkpt lat="44.1763296" lon="8.0469731"><ele>949.0</ele><time>2026-04-18T14:51:05.579Z</time></trkpt><trkpt lat="44.1764449" lon="8.0470785"><ele>951.75</ele><time>2026-04-18T14:51:06.58Z</time></trkpt><trkpt lat="44.1765642" lon="8.0471763"><ele>954.5</ele><time>2026-04-18T14:51:07.579Z</time></trkpt><trkpt lat="44.1766943" lon="8.047254"><ele>957.25</ele><time>2026-04-18T14:51:08.579Z</time></trkpt><trkpt lat="44.1768078" lon="8.04731"><ele>960.0</ele><time>2026-04-18T14:51:09.579Z</time></trkpt><trkpt lat="44.1769139" lon="8.0473634"><ele>960.0</ele><time>2026-04-18T14:51:10.579Z</time></trkpt><trkpt lat="44.1770176" lon="8.0474091"><ele>960.0</ele><time>2026-04-18T14:51:11.579Z</time></trkpt><trkpt lat="44.1771161" lon="8.0474325"><ele>960.0</ele><time>2026-04-18T14:51:12.58Z</time></trkpt><trkpt lat="44.1772061" lon="8.0474258"><ele>960.0</ele><time>2026-04-18T14:51:13.581Z</time></trkpt><trkpt lat="44.1772822" lon="8.0473892"><ele>960.0</ele><time>2026-04-18T14:51:14.58Z</time></trkpt><trkpt lat="44.1773601" lon="8.047348"><ele>960.0</ele><time>2026-04-18T14:51:15.579Z</time></trkpt><trkpt lat="44.1773311" lon="8.047199"><ele>960.0</ele><time>2026-04-18T14:51:16.579Z</time></trkpt><trkpt lat="44.1773485" lon="8.0471104"><ele>960.0</ele><time>2026-04-18T14:51:17.579Z</time></trkpt><trkpt lat="44.1772657" lon="8.0469663"><ele>960.0</ele><time>2026-04-18T14:51:18.579Z</time></trkpt><trkpt lat="44.1772151" lon="8.046839"><ele>960.0</ele><time>2026-04-18T14:51:19.579Z</time></trkpt><trkpt lat="44.1771659" lon="8.046691"><ele>961.25</ele><time>2026-04-18T14:51:20.58Z</time></trkpt><trkpt lat="44.1771142" lon="8.0465257"><ele>962.5</ele><time>2026-04-18T14:51:21.58Z</time></trkpt><trkpt lat="44.1770824" lon="8.0463546"><ele>963.75</ele><time>2026-04-18T14:51:22.58Z</time></trkpt><trkpt lat="44.1770784" lon="8.0461768"><ele>965.0</ele><time>2026-04-18T14:51:23.58Z</time></trkpt><trkpt lat="44.1770776" lon="8.0459791"><ele>962.25</ele><time>2026-04-18T14:51:24.579Z</time></trkpt><trkpt lat="44.1770671" lon="8.0457712"><ele>959.5</ele><time>2026-04-18T14:51:25.58Z</time></trkpt><trkpt lat="44.1770418" lon="8.0455713"><ele>956.75</ele><time>2026-04-18T14:51:26.579Z</time></trkpt><trkpt lat="44.176996" lon="8.0453763"><ele>954.0</ele><time>2026-04-18T14:51:27.579Z</time></trkpt><trkpt lat="44.1769383" lon="8.0452058"><ele>954.0</ele><time>2026-04-18T14:51:28.581Z</time></trkpt><trkpt lat="44.1768592" lon="8.0450617"><ele>954.0000000000001</ele><time>2026-04-18T14:51:29.579Z</time></trkpt><trkpt lat="44.1767592" lon="8.0449834"><ele>954.0000000000001</ele><time>2026-04-18T14:51:30.58Z</time></trkpt><trkpt lat="44.1766565" lon="8.0449273"><ele>954.0</ele><time>2026-04-18T14:51:31.579Z</time></trkpt><trkpt lat="44.1766041" lon="8.0448287"><ele>954.0</ele><time>2026-04-18T14:51:32.579Z</time></trkpt><trkpt lat="44.1765449" lon="8.0447234"><ele>952.4000000000001</ele><time>2026-04-18T14:51:33.579Z</time></trkpt><trkpt lat="44.1765978" lon="8.0446393"><ele>950.8000000000001</ele><time>2026-04-18T14:51:34.58Z</time></trkpt><trkpt lat="44.1766451" lon="8.0445344"><ele>949.1999999999999</ele><time>2026-04-18T14:51:35.58Z</time></trkpt><trkpt lat="44.1767123" lon="8.0445045"><ele>947.5999999999999</ele><time>2026-04-18T14:51:36.58Z</time></trkpt><trkpt lat="44.1767753" lon="8.0444966"><ele>946.0</ele><time>2026-04-18T14:51:37.579Z</time></trkpt><trkpt lat="44.176936" lon="8.0448277"><ele>954.0</ele><time>2026-04-18T14:51:38.579Z</time></trkpt><trkpt lat="44.177206" lon="8.0453719"><ele>954.0</ele><time>2026-04-18T14:51:41.579Z</time></trkpt><trkpt lat="44.1772879" lon="8.0455515"><ele>954.0</ele><time>2026-04-18T14:51:42.579Z</time></trkpt><trkpt lat="44.1773462" lon="8.0457376"><ele>954.0</ele><time>2026-04-18T14:51:43.581Z</time></trkpt><trkpt lat="44.1773874" lon="8.0459264"><ele>954.0</ele><time>2026-04-18T14:51:44.58Z</time></trkpt><trkpt lat="44.1774564" lon="8.0460878"><ele>950.5</ele><time>2026-04-18T14:51:45.581Z</time></trkpt><trkpt lat="44.1775403" lon="8.0462385"><ele>947.0</ele><time>2026-04-18T14:51:46.581Z</time></trkpt><trkpt lat="44.1776604" lon="8.0463057"><ele>943.5</ele><time>2026-04-18T14:51:47.579Z</time></trkpt><trkpt lat="44.1777755" lon="8.0463859"><ele>940.0</ele><time>2026-04-18T14:51:48.58Z</time></trkpt><trkpt lat="44.1779459" lon="8.0464427"><ele>940.0</ele><time>2026-04-18T14:51:49.58Z</time></trkpt><trkpt lat="44.1780982" lon="8.0465177"><ele>940.0</ele><time>2026-04-18T14:51:50.58Z</time></trkpt><trkpt lat="44.1782468" lon="8.0465835"><ele>940.0</ele><time>2026-04-18T14:51:51.58Z</time></trkpt><trkpt lat="44.1784041" lon="8.0465979"><ele>933.6666666666666</ele><time>2026-04-18T14:51:52.58Z</time></trkpt><trkpt lat="44.1785576" lon="8.046551"><ele>927.3333333333333</ele><time>2026-04-18T14:51:53.581Z</time></trkpt><trkpt lat="44.1786935" lon="8.0464679"><ele>921.0</ele><time>2026-04-18T14:51:54.58Z</time></trkpt><trkpt lat="44.1788367" lon="8.0464431"><ele>921.0</ele><time>2026-04-18T14:51:55.579Z</time></trkpt><trkpt lat="44.1789702" lon="8.0464244"><ele>921.0</ele><time>2026-04-18T14:51:56.58Z</time></trkpt><trkpt lat="44.1791206" lon="8.0464587"><ele>921.0</ele><time>2026-04-18T14:51:57.58Z</time></trkpt><trkpt lat="44.1791984" lon="8.0466443"><ele>921.0</ele><time>2026-04-18T14:51:58.58Z</time></trkpt><trkpt lat="44.1792862" lon="8.0468088"><ele>923.5</ele><time>2026-04-18T14:51:59.58Z</time></trkpt><trkpt lat="44.1794012" lon="8.0468937"><ele>926.0</ele><time>2026-04-18T14:52:00.58Z</time></trkpt><trkpt lat="44.179501" lon="8.0470105"><ele>928.5</ele><time>2026-04-18T14:52:01.58Z</time></trkpt><trkpt lat="44.1796155" lon="8.0470667"><ele>931.0</ele><time>2026-04-18T14:52:02.579Z</time></trkpt><trkpt lat="44.1797665" lon="8.0468883"><ele>927.0</ele><time>2026-04-18T14:52:03.58Z</time></trkpt><trkpt lat="44.1798754" lon="8.04687"><ele>923.0</ele><time>2026-04-18T14:52:04.58Z</time></trkpt><trkpt lat="44.1799861" lon="8.0468711"><ele>919.0</ele><time>2026-04-18T14:52:05.58Z</time></trkpt><trkpt lat="44.1801004" lon="8.0468882"><ele>915.0</ele><time>2026-04-18T14:52:06.579Z</time></trkpt><trkpt lat="44.1802291" lon="8.046959"><ele>915.0</ele><time>2026-04-18T14:52:07.58Z</time></trkpt><trkpt lat="44.1802202" lon="8.0472375"><ele>915.0</ele><time>2026-04-18T14:52:08.579Z</time></trkpt><trkpt lat="44.1802919" lon="8.0473705"><ele>915.0</ele><time>2026-04-18T14:52:09.579Z</time></trkpt><trkpt lat="44.1804119" lon="8.047555"><ele>911.0</ele><time>2026-04-18T14:52:10.58Z</time></trkpt><trkpt lat="44.1805485" lon="8.0476868"><ele>907.0</ele><time>2026-04-18T14:52:11.579Z</time></trkpt><trkpt lat="44.1806914" lon="8.0478131"><ele>903.0</ele><time>2026-04-18T14:52:12.579Z</time></trkpt><trkpt lat="44.1808279" lon="8.0479401"><ele>903.0</ele><time>2026-04-18T14:52:13.579Z</time></trkpt><trkpt lat="44.1809751" lon="8.0480503"><ele>903.0</ele><time>2026-04-18T14:52:14.58Z</time></trkpt><trkpt lat="44.181123" lon="8.0481672"><ele>903.0</ele><time>2026-04-18T14:52:15.58Z</time></trkpt><trkpt lat="44.1812197" lon="8.0482767"><ele>909.0</ele><time>2026-04-18T14:52:16.58Z</time></trkpt><trkpt lat="44.1811201" lon="8.0486518"><ele>915.0</ele><time>2026-04-18T14:52:17.58Z</time></trkpt><trkpt lat="44.181148" lon="8.0488638"><ele>921.0</ele><time>2026-04-18T14:52:18.579Z</time></trkpt><trkpt lat="44.1811657" lon="8.0490981"><ele>922.3333333333333</ele><time>2026-04-18T14:52:19.58Z</time></trkpt><trkpt lat="44.1811688" lon="8.0493256"><ele>923.6666666666666</ele><time>2026-04-18T14:52:20.581Z</time></trkpt><trkpt lat="44.1811681" lon="8.0495523"><ele>925.0</ele><time>2026-04-18T14:52:21.58Z</time></trkpt><trkpt lat="44.1811618" lon="8.0497848"><ele>923.75</ele><time>2026-04-18T14:52:22.581Z</time></trkpt><trkpt lat="44.1811606" lon="8.0499923"><ele>922.5</ele><time>2026-04-18T14:52:23.581Z</time></trkpt><trkpt lat="44.1811593" lon="8.0501699"><ele>921.25</ele><time>2026-04-18T14:52:24.581Z</time></trkpt><trkpt lat="44.1811761" lon="8.0503385"><ele>920.0</ele><time>2026-04-18T14:52:25.579Z</time></trkpt><trkpt lat="44.1811954" lon="8.0504779"><ele>920.0</ele><time>2026-04-18T14:52:26.579Z</time></trkpt><trkpt lat="44.1812328" lon="8.0505818"><ele>920.0</ele><time>2026-04-18T14:52:27.58Z</time></trkpt><trkpt lat="44.1813373" lon="8.050526"><ele>920.0</ele><time>2026-04-18T14:52:28.579Z</time></trkpt><trkpt lat="44.1814054" lon="8.0503858"><ele>920.0</ele><time>2026-04-18T14:52:29.58Z</time></trkpt><trkpt lat="44.1814535" lon="8.0502822"><ele>920.0</ele><time>2026-04-18T14:52:30.579Z</time></trkpt><trkpt lat="44.1814325" lon="8.0500469"><ele>921.6666666666667</ele><time>2026-04-18T14:52:31.58Z</time></trkpt><trkpt lat="44.1814517" lon="8.0498398"><ele>923.3333333333333</ele><time>2026-04-18T14:52:32.581Z</time></trkpt><trkpt lat="44.1814817" lon="8.0496229"><ele>925.0</ele><time>2026-04-18T14:52:33.579Z</time></trkpt><trkpt lat="44.181524" lon="8.0493713"><ele>912.0</ele><time>2026-04-18T14:52:34.58Z</time></trkpt><trkpt lat="44.181577" lon="8.0491241"><ele>899.0</ele><time>2026-04-18T14:52:35.58Z</time></trkpt><trkpt lat="44.1816269" lon="8.0488627"><ele>886.0</ele><time>2026-04-18T14:52:36.58Z</time></trkpt><trkpt lat="44.1817054" lon="8.0485919"><ele>886.0</ele><time>2026-04-18T14:52:37.581Z</time></trkpt><trkpt lat="44.181794" lon="8.0483292"><ele>886.0</ele><time>2026-04-18T14:52:38.581Z</time></trkpt><trkpt lat="44.1818873" lon="8.0480601"><ele>886.0</ele><time>2026-04-18T14:52:39.581Z</time></trkpt><trkpt lat="44.1819759" lon="8.0478005"><ele>884.0</ele><time>2026-04-18T14:52:40.579Z</time></trkpt><trkpt lat="44.1820626" lon="8.0475433"><ele>882.0</ele><time>2026-04-18T14:52:41.579Z</time></trkpt><trkpt lat="44.1821338" lon="8.0472772"><ele>880.0</ele><time>2026-04-18T14:52:42.579Z</time></trkpt><trkpt lat="44.1822055" lon="8.0470236"><ele>876.0</ele><time>2026-04-18T14:52:43.579Z</time></trkpt><trkpt lat="44.1822738" lon="8.0467677"><ele>872.0</ele><time>2026-04-18T14:52:44.579Z</time></trkpt><trkpt lat="44.1823616" lon="8.0465346"><ele>868.0</ele><time>2026-04-18T14:52:45.58Z</time></trkpt><trkpt lat="44.182436" lon="8.0463237"><ele>864.3333333333333</ele><time>2026-04-18T14:52:46.579Z</time></trkpt><trkpt lat="44.1825548" lon="8.0461176"><ele>860.6666666666667</ele><time>2026-04-18T14:52:47.58Z</time></trkpt><trkpt lat="44.182645" lon="8.0459075"><ele>857.0</ele><time>2026-04-18T14:52:48.579Z</time></trkpt><trkpt lat="44.1827438" lon="8.0457237"><ele>855.0</ele><time>2026-04-18T14:52:49.579Z</time></trkpt><trkpt lat="44.182885" lon="8.0455696"><ele>853.0</ele><time>2026-04-18T14:52:50.579Z</time></trkpt><trkpt lat="44.1830315" lon="8.0454384"><ele>851.0</ele><time>2026-04-18T14:52:51.579Z</time></trkpt><trkpt lat="44.183195" lon="8.0453071"><ele>851.0</ele><time>2026-04-18T14:52:52.579Z</time></trkpt><trkpt lat="44.1833597" lon="8.0451661"><ele>851.0</ele><time>2026-04-18T14:52:53.579Z</time></trkpt><trkpt lat="44.1835239" lon="8.0450123"><ele>851.0</ele><time>2026-04-18T14:52:54.579Z</time></trkpt><trkpt lat="44.1836912" lon="8.0448729"><ele>847.0</ele><time>2026-04-18T14:52:55.579Z</time></trkpt><trkpt lat="44.1838577" lon="8.0447253"><ele>843.0</ele><time>2026-04-18T14:52:56.579Z</time></trkpt><trkpt lat="44.1840168" lon="8.044591"><ele>839.0</ele><time>2026-04-18T14:52:57.581Z</time></trkpt><trkpt lat="44.1841901" lon="8.0444749"><ele>839.0</ele><time>2026-04-18T14:52:58.581Z</time></trkpt><trkpt lat="44.1843644" lon="8.0444219"><ele>839.0</ele><time>2026-04-18T14:52:59.581Z</time></trkpt><trkpt lat="44.1845473" lon="8.0444053"><ele>839.0</ele><time>2026-04-18T14:53:00.579Z</time></trkpt><trkpt lat="44.1847256" lon="8.0443639"><ele>841.0</ele><time>2026-04-18T14:53:01.579Z</time></trkpt><trkpt lat="44.1849169" lon="8.0443161"><ele>843.0</ele><time>2026-04-18T14:53:02.579Z</time></trkpt><trkpt lat="44.1850825" lon="8.0442223"><ele>845.0</ele><time>2026-04-18T14:53:03.581Z</time></trkpt><trkpt lat="44.1852326" lon="8.0439836"><ele>839.3333333333334</ele><time>2026-04-18T14:53:04.58Z</time></trkpt><trkpt lat="44.1853904" lon="8.0438531"><ele>833.6666666666667</ele><time>2026-04-18T14:53:05.58Z</time></trkpt><trkpt lat="44.1855493" lon="8.0437201"><ele>828.0</ele><time>2026-04-18T14:53:06.581Z</time></trkpt><trkpt lat="44.185698" lon="8.0435856"><ele>828.0</ele><time>2026-04-18T14:53:07.58Z</time></trkpt><trkpt lat="44.1858421" lon="8.0434495"><ele>828.0</ele><time>2026-04-18T14:53:08.579Z</time></trkpt><trkpt lat="44.1859714" lon="8.0432993"><ele>828.0</ele><time>2026-04-18T14:53:09.579Z</time></trkpt><trkpt lat="44.186082" lon="8.04316"><ele>825.8</ele><time>2026-04-18T14:53:10.579Z</time></trkpt><trkpt lat="44.1861743" lon="8.0430255"><ele>823.5999999999999</ele><time>2026-04-18T14:53:11.579Z</time></trkpt><trkpt lat="44.1862523" lon="8.0429185"><ele>821.4000000000001</ele><time>2026-04-18T14:53:12.58Z</time></trkpt><trkpt lat="44.1862927" lon="8.0427988"><ele>819.2</ele><time>2026-04-18T14:53:13.579Z</time></trkpt><trkpt lat="44.1863345" lon="8.0426718"><ele>817.0</ele><time>2026-04-18T14:53:14.58Z</time></trkpt><trkpt lat="44.1862786" lon="8.0426031"><ele>817.0</ele><time>2026-04-18T14:53:15.58Z</time></trkpt><trkpt lat="44.1862264" lon="8.0425449"><ele>817.0</ele><time>2026-04-18T14:53:16.579Z</time></trkpt><trkpt lat="44.1861553" lon="8.0425278"><ele>817.0</ele><time>2026-04-18T14:53:17.579Z</time></trkpt><trkpt lat="44.1860774" lon="8.0426098"><ele>817.0</ele><time>2026-04-18T14:53:18.58Z</time></trkpt><trkpt lat="44.1859366" lon="8.0429315"><ele>817.0</ele><time>2026-04-18T14:53:19.579Z</time></trkpt><trkpt lat="44.185816" lon="8.0430475"><ele>817.0</ele><time>2026-04-18T14:53:20.58Z</time></trkpt><trkpt lat="44.1856876" lon="8.0431869"><ele>817.0</ele><time>2026-04-18T14:53:21.58Z</time></trkpt><trkpt lat="44.1855711" lon="8.0432866"><ele>817.0</ele><time>2026-04-18T14:53:22.579Z</time></trkpt><trkpt lat="44.1854597" lon="8.0433891"><ele>819.25</ele><time>2026-04-18T14:53:23.58Z</time></trkpt><trkpt lat="44.1853596" lon="8.0434968"><ele>821.5</ele><time>2026-04-18T14:53:24.579Z</time></trkpt><trkpt lat="44.1852627" lon="8.043598"><ele>823.75</ele><time>2026-04-18T14:53:25.58Z</time></trkpt><trkpt lat="44.1851983" lon="8.0434701"><ele>826.0</ele><time>2026-04-18T14:53:26.581Z</time></trkpt><trkpt lat="44.1851159" lon="8.0433218"><ele>820.3333333333333</ele><time>2026-04-18T14:53:28.581Z</time></trkpt><trkpt lat="44.185168" lon="8.04316"><ele>814.6666666666667</ele><time>2026-04-18T14:53:30.579Z</time></trkpt><trkpt lat="44.185421" lon="8.0430868"><ele>809.0</ele><time>2026-04-18T14:53:31.581Z</time></trkpt><trkpt lat="44.185543" lon="8.0429696"><ele>809.0</ele><time>2026-04-18T14:53:32.581Z</time></trkpt><trkpt lat="44.1856682" lon="8.0428628"><ele>809.0</ele><time>2026-04-18T14:53:33.579Z</time></trkpt><trkpt lat="44.1857975" lon="8.0427552"><ele>809.0</ele><time>2026-04-18T14:53:34.58Z</time></trkpt><trkpt lat="44.185932" lon="8.0426449"><ele>807.0</ele><time>2026-04-18T14:53:35.579Z</time></trkpt><trkpt lat="44.1860327" lon="8.0424708"><ele>805.0</ele><time>2026-04-18T14:53:36.579Z</time></trkpt><trkpt lat="44.1860299" lon="8.0422634"><ele>803.0</ele><time>2026-04-18T14:53:37.58Z</time></trkpt><trkpt lat="44.1860325" lon="8.042012"><ele>803.0</ele><time>2026-04-18T14:53:38.581Z</time></trkpt><trkpt lat="44.186063" lon="8.0418166"><ele>803.0</ele><time>2026-04-18T14:53:39.58Z</time></trkpt><trkpt lat="44.1861874" lon="8.0417058"><ele>803.0</ele><time>2026-04-18T14:53:40.58Z</time></trkpt><trkpt lat="44.186273" lon="8.0415709"><ele>803.0</ele><time>2026-04-18T14:53:41.58Z</time></trkpt><trkpt lat="44.1863777" lon="8.0414539"><ele>800.6666666666667</ele><time>2026-04-18T14:53:42.58Z</time></trkpt><trkpt lat="44.1864916" lon="8.0414314"><ele>798.3333333333333</ele><time>2026-04-18T14:53:43.581Z</time></trkpt><trkpt lat="44.1867309" lon="8.0413702"><ele>796.0</ele><time>2026-04-18T14:53:44.58Z</time></trkpt><trkpt lat="44.1868752" lon="8.0412571"><ele>796.0</ele><time>2026-04-18T14:53:45.579Z</time></trkpt><trkpt lat="44.1870228" lon="8.0411129"><ele>796.0</ele><time>2026-04-18T14:53:46.579Z</time></trkpt><trkpt lat="44.1871622" lon="8.0409539"><ele>796.0</ele><time>2026-04-18T14:53:47.579Z</time></trkpt><trkpt lat="44.1872329" lon="8.0407199"><ele>797.6666666666666</ele><time>2026-04-18T14:53:48.58Z</time></trkpt><trkpt lat="44.1872865" lon="8.0404846"><ele>799.3333333333333</ele><time>2026-04-18T14:53:49.58Z</time></trkpt><trkpt lat="44.1873224" lon="8.0402393"><ele>801.0</ele><time>2026-04-18T14:53:50.579Z</time></trkpt><trkpt lat="44.1873489" lon="8.0399782"><ele>799.6666666666667</ele><time>2026-04-18T14:53:51.579Z</time></trkpt><trkpt lat="44.1873593" lon="8.0397065"><ele>798.3333333333334</ele><time>2026-04-18T14:53:52.579Z</time></trkpt><trkpt lat="44.1873827" lon="8.039437"><ele>797.0</ele><time>2026-04-18T14:53:53.58Z</time></trkpt><trkpt lat="44.1874217" lon="8.0391808"><ele>794.6666666666667</ele><time>2026-04-18T14:53:54.58Z</time></trkpt><trkpt lat="44.1874678" lon="8.0389294"><ele>792.3333333333333</ele><time>2026-04-18T14:53:55.58Z</time></trkpt><trkpt lat="44.1875179" lon="8.0386994"><ele>790.0</ele><time>2026-04-18T14:53:56.58Z</time></trkpt><trkpt lat="44.1875802" lon="8.038493"><ele>790.0</ele><time>2026-04-18T14:53:57.58Z</time></trkpt><trkpt lat="44.1876651" lon="8.0383531"><ele>790.0</ele><time>2026-04-18T14:53:58.58Z</time></trkpt><trkpt lat="44.1877475" lon="8.0382349"><ele>790.0</ele><time>2026-04-18T14:53:59.579Z</time></trkpt><trkpt lat="44.1878427" lon="8.0381572"><ele>790.0</ele><time>2026-04-18T14:54:00.58Z</time></trkpt><trkpt lat="44.1879425" lon="8.0381094"><ele>787.8333333333333</ele><time>2026-04-18T14:54:01.58Z</time></trkpt><trkpt lat="44.1879617" lon="8.037994"><ele>785.6666666666666</ele><time>2026-04-18T14:54:02.579Z</time></trkpt><trkpt lat="44.1880046" lon="8.0378578"><ele>783.5</ele><time>2026-04-18T14:54:04.581Z</time></trkpt><trkpt lat="44.1879678" lon="8.0377832"><ele>781.3333333333333</ele><time>2026-04-18T14:54:05.58Z</time></trkpt><trkpt lat="44.1878908" lon="8.0377669"><ele>779.1666666666666</ele><time>2026-04-18T14:54:06.58Z</time></trkpt><trkpt lat="44.1878244" lon="8.0378222"><ele>777.0</ele><time>2026-04-18T14:54:07.579Z</time></trkpt><trkpt lat="44.1876348" lon="8.0380564"><ele>777.0</ele><time>2026-04-18T14:54:08.579Z</time></trkpt><trkpt lat="44.18753" lon="8.0381828"><ele>777.0</ele><time>2026-04-18T14:54:09.579Z</time></trkpt><trkpt lat="44.1874491" lon="8.038362"><ele>777.0</ele><time>2026-04-18T14:54:10.579Z</time></trkpt><trkpt lat="44.1873724" lon="8.0385432"><ele>777.0</ele><time>2026-04-18T14:54:11.579Z</time></trkpt><trkpt lat="44.1872746" lon="8.0387151"><ele>776.0</ele><time>2026-04-18T14:54:12.581Z</time></trkpt><trkpt lat="44.1871537" lon="8.0388365"><ele>775.0</ele><time>2026-04-18T14:54:13.58Z</time></trkpt><trkpt lat="44.1870382" lon="8.0389615"><ele>774.0</ele><time>2026-04-18T14:54:14.579Z</time></trkpt><trkpt lat="44.1869521" lon="8.0391139"><ele>773.0</ele><time>2026-04-18T14:54:15.58Z</time></trkpt><trkpt lat="44.1868452" lon="8.039251"><ele>773.0</ele><time>2026-04-18T14:54:16.579Z</time></trkpt><trkpt lat="44.1868664" lon="8.0394674"><ele>773.0</ele><time>2026-04-18T14:54:17.579Z</time></trkpt><trkpt lat="44.1868466" lon="8.0396578"><ele>773.0</ele><time>2026-04-18T14:54:18.579Z</time></trkpt><trkpt lat="44.1867834" lon="8.0398623"><ele>775.0</ele><time>2026-04-18T14:54:19.58Z</time></trkpt><trkpt lat="44.1867232" lon="8.0400212"><ele>777.0</ele><time>2026-04-18T14:54:20.58Z</time></trkpt><trkpt lat="44.1866481" lon="8.0401736"><ele>779.0</ele><time>2026-04-18T14:54:21.581Z</time></trkpt><trkpt lat="44.1865474" lon="8.0402957"><ele>781.0</ele><time>2026-04-18T14:54:22.581Z</time></trkpt><trkpt lat="44.1864211" lon="8.0403736"><ele>776.25</ele><time>2026-04-18T14:54:23.58Z</time></trkpt><trkpt lat="44.1862834" lon="8.0403806"><ele>771.5</ele><time>2026-04-18T14:54:24.579Z</time></trkpt><trkpt lat="44.186147" lon="8.0403887"><ele>766.75</ele><time>2026-04-18T14:54:25.579Z</time></trkpt><trkpt lat="44.1859984" lon="8.0404355"><ele>762.0</ele><time>2026-04-18T14:54:26.58Z</time></trkpt><trkpt lat="44.185862" lon="8.0405134"><ele>762.0</ele><time>2026-04-18T14:54:27.579Z</time></trkpt><trkpt lat="44.1857198" lon="8.0405514"><ele>762.0</ele><time>2026-04-18T14:54:28.579Z</time></trkpt><trkpt lat="44.1855806" lon="8.0405354"><ele>762.0</ele><time>2026-04-18T14:54:29.579Z</time></trkpt><trkpt lat="44.1854489" lon="8.0405216"><ele>762.0</ele><time>2026-04-18T14:54:30.58Z</time></trkpt><trkpt lat="44.1853273" lon="8.0405757"><ele>763.0</ele><time>2026-04-18T14:54:31.581Z</time></trkpt><trkpt lat="44.1852258" lon="8.040667"><ele>764.0</ele><time>2026-04-18T14:54:32.579Z</time></trkpt><trkpt lat="44.1851738" lon="8.0407962"><ele>765.0</ele><time>2026-04-18T14:54:33.579Z</time></trkpt><trkpt lat="44.1851287" lon="8.0408901"><ele>766.0</ele><time>2026-04-18T14:54:34.579Z</time></trkpt><trkpt lat="44.1850538" lon="8.0409104"><ele>767.0</ele><time>2026-04-18T14:54:35.579Z</time></trkpt><trkpt lat="44.1849878" lon="8.0409154"><ele>763.0</ele><time>2026-04-18T14:54:36.579Z</time></trkpt><trkpt lat="44.1849939" lon="8.0407026"><ele>759.0</ele><time>2026-04-18T14:54:38.58Z</time></trkpt><trkpt lat="44.1850161" lon="8.0405444"><ele>755.0</ele><time>2026-04-18T14:54:39.58Z</time></trkpt><trkpt lat="44.1851215" lon="8.0403818"><ele>751.0</ele><time>2026-04-18T14:54:40.581Z</time></trkpt><trkpt lat="44.1852013" lon="8.0402722"><ele>751.0</ele><time>2026-04-18T14:54:41.58Z</time></trkpt><trkpt lat="44.1852992" lon="8.0402451"><ele>751.0</ele><time>2026-04-18T14:54:42.581Z</time></trkpt><trkpt lat="44.1854265" lon="8.0402501"><ele>751.0</ele><time>2026-04-18T14:54:43.58Z</time></trkpt><trkpt lat="44.1855713" lon="8.0402533"><ele>751.0</ele><time>2026-04-18T14:54:44.58Z</time></trkpt><trkpt lat="44.1857166" lon="8.0401969"><ele>749.25</ele><time>2026-04-18T14:54:45.58Z</time></trkpt><trkpt lat="44.1858447" lon="8.0401022"><ele>747.5</ele><time>2026-04-18T14:54:46.579Z</time></trkpt><trkpt lat="44.1859725" lon="8.0399851"><ele>745.75</ele><time>2026-04-18T14:54:47.579Z</time></trkpt><trkpt lat="44.18609" lon="8.0398661"><ele>744.0</ele><time>2026-04-18T14:54:48.579Z</time></trkpt><trkpt lat="44.1861844" lon="8.0397294"><ele>744.0</ele><time>2026-04-18T14:54:49.579Z</time></trkpt><trkpt lat="44.1862335" lon="8.0395576"><ele>744.0</ele><time>2026-04-18T14:54:50.579Z</time></trkpt><trkpt lat="44.1862616" lon="8.0393914"><ele>744.0</ele><time>2026-04-18T14:54:51.579Z</time></trkpt><trkpt lat="44.1862874" lon="8.0392285"><ele>744.0</ele><time>2026-04-18T14:54:52.579Z</time></trkpt><trkpt lat="44.1861863" lon="8.039078"><ele>741.5</ele><time>2026-04-18T14:54:53.579Z</time></trkpt><trkpt lat="44.1861598" lon="8.0389304"><ele>739.0</ele><time>2026-04-18T14:54:54.581Z</time></trkpt><trkpt lat="44.1861252" lon="8.0387592"><ele>736.5</ele><time>2026-04-18T14:54:55.579Z</time></trkpt><trkpt lat="44.1861895" lon="8.0385958"><ele>734.0</ele><time>2026-04-18T14:54:56.58Z</time></trkpt><trkpt lat="44.1862259" lon="8.0384428"><ele>732.0</ele><time>2026-04-18T14:54:57.58Z</time></trkpt><trkpt lat="44.186329" lon="8.0382917"><ele>730.0</ele><time>2026-04-18T14:54:58.58Z</time></trkpt><trkpt lat="44.1863638" lon="8.0381626"><ele>728.0</ele><time>2026-04-18T14:54:59.579Z</time></trkpt><trkpt lat="44.1863884" lon="8.0380157"><ele>726.0</ele><time>2026-04-18T14:55:01.58Z</time></trkpt><trkpt lat="44.1864065" lon="8.0379086"><ele>724.0</ele><time>2026-04-18T14:55:03.579Z</time></trkpt><trkpt lat="44.1863926" lon="8.0378034"><ele>724.0</ele><time>2026-04-18T14:57:52.581Z</time></trkpt><trkpt lat="44.1863788" lon="8.0376936"><ele>724.0</ele><time>2026-04-18T14:57:53.581Z</time></trkpt><trkpt lat="44.1863749" lon="8.0375802"><ele>724.0</ele><time>2026-04-18T14:57:54.58Z</time></trkpt><trkpt lat="44.1863827" lon="8.0374279"><ele>724.0</ele><time>2026-04-18T14:57:55.581Z</time></trkpt><trkpt lat="44.1864406" lon="8.0372819"><ele>724.0</ele><time>2026-04-18T14:57:56.579Z</time></trkpt><trkpt lat="44.1865184" lon="8.0371668"><ele>726.75</ele><time>2026-04-18T14:57:57.58Z</time></trkpt><trkpt lat="44.186601" lon="8.0370286"><ele>729.5</ele><time>2026-04-18T14:57:58.579Z</time></trkpt><trkpt lat="44.1867599" lon="8.0369211"><ele>732.25</ele><time>2026-04-18T14:57:59.58Z</time></trkpt><trkpt lat="44.1868527" lon="8.0367856"><ele>735.0</ele><time>2026-04-18T14:58:00.581Z</time></trkpt><trkpt lat="44.1869427" lon="8.0366666"><ele>733.0</ele><time>2026-04-18T14:58:01.579Z</time></trkpt><trkpt lat="44.1870245" lon="8.0365742"><ele>731.0</ele><time>2026-04-18T14:58:02.579Z</time></trkpt><trkpt lat="44.1871284" lon="8.0364951"><ele>729.0</ele><time>2026-04-18T14:58:03.579Z</time></trkpt><trkpt lat="44.1872588" lon="8.0364216"><ele>727.0</ele><time>2026-04-18T14:58:04.581Z</time></trkpt><trkpt lat="44.1873856" lon="8.0363419"><ele>727.0</ele><time>2026-04-18T14:58:05.58Z</time></trkpt><trkpt lat="44.1875173" lon="8.0362799"><ele>727.0</ele><time>2026-04-18T14:58:06.581Z</time></trkpt><trkpt lat="44.1876343" lon="8.0362053"><ele>727.0</ele><time>2026-04-18T14:58:07.58Z</time></trkpt><trkpt lat="44.1877312" lon="8.0360991"><ele>727.0</ele><time>2026-04-18T14:58:08.58Z</time></trkpt><trkpt lat="44.187809" lon="8.0359481"><ele>722.75</ele><time>2026-04-18T14:58:09.581Z</time></trkpt><trkpt lat="44.1878743" lon="8.0357854"><ele>718.5</ele><time>2026-04-18T14:58:10.579Z</time></trkpt><trkpt lat="44.1879205" lon="8.0355961"><ele>714.25</ele><time>2026-04-18T14:58:11.581Z</time></trkpt><trkpt lat="44.1879778" lon="8.0354204"><ele>710.0</ele><time>2026-04-18T14:58:12.58Z</time></trkpt><trkpt lat="44.1880586" lon="8.0352802"><ele>710.0</ele><time>2026-04-18T14:58:13.58Z</time></trkpt><trkpt lat="44.1881518" lon="8.0351611"><ele>710.0</ele><time>2026-04-18T14:58:14.58Z</time></trkpt><trkpt lat="44.1882696" lon="8.0350715"><ele>710.0</ele><time>2026-04-18T14:58:15.581Z</time></trkpt><trkpt lat="44.1883965" lon="8.0349615"><ele>710.0</ele><time>2026-04-18T14:58:16.58Z</time></trkpt><trkpt lat="44.188559" lon="8.0348951"><ele>710.6666666666666</ele><time>2026-04-18T14:58:17.579Z</time></trkpt><trkpt lat="44.1887139" lon="8.0348035"><ele>711.3333333333334</ele><time>2026-04-18T14:58:18.579Z</time></trkpt><trkpt lat="44.1888718" lon="8.0346881"><ele>712.0</ele><time>2026-04-18T14:58:19.579Z</time></trkpt><trkpt lat="44.1890298" lon="8.0345707"><ele>712.0</ele><time>2026-04-18T14:58:20.58Z</time></trkpt><trkpt lat="44.1891783" lon="8.0344607"><ele>712.0</ele><time>2026-04-18T14:58:21.58Z</time></trkpt><trkpt lat="44.1893234" lon="8.0343496"><ele>712.0</ele><time>2026-04-18T14:58:22.579Z</time></trkpt><trkpt lat="44.1894617" lon="8.0342367"><ele>712.0</ele><time>2026-04-18T14:58:23.58Z</time></trkpt><trkpt lat="44.1895928" lon="8.0341262"><ele>712.0</ele><time>2026-04-18T14:58:24.579Z</time></trkpt><trkpt lat="44.1897033" lon="8.0340012"><ele>712.0</ele><time>2026-04-18T14:58:25.581Z</time></trkpt><trkpt lat="44.189799" lon="8.0338642"><ele>712.0</ele><time>2026-04-18T14:58:26.58Z</time></trkpt><trkpt lat="44.1898758" lon="8.0337368"><ele>712.0</ele><time>2026-04-18T14:58:27.58Z</time></trkpt><trkpt lat="44.1899513" lon="8.0336201"><ele>712.0</ele><time>2026-04-18T14:58:28.58Z</time></trkpt><trkpt lat="44.1899868" lon="8.0334946"><ele>712.0</ele><time>2026-04-18T14:58:29.579Z</time></trkpt><trkpt lat="44.1900048" lon="8.0333746"><ele>712.0</ele><time>2026-04-18T14:58:30.579Z</time></trkpt><trkpt lat="44.1899549" lon="8.0332484"><ele>712.0</ele><time>2026-04-18T14:58:31.581Z</time></trkpt><trkpt lat="44.1897889" lon="8.0331876"><ele>705.6666666666667</ele><time>2026-04-18T14:58:32.579Z</time></trkpt><trkpt lat="44.1897082" lon="8.0332709"><ele>699.3333333333334</ele><time>2026-04-18T14:58:33.58Z</time></trkpt><trkpt lat="44.1895119" lon="8.0336621"><ele>693.0</ele><time>2026-04-18T14:58:34.579Z</time></trkpt><trkpt lat="44.1893659" lon="8.0337429"><ele>693.0</ele><time>2026-04-18T14:58:35.579Z</time></trkpt><trkpt lat="44.1892086" lon="8.033815"><ele>693.0</ele><time>2026-04-18T14:58:36.579Z</time></trkpt><trkpt lat="44.1890449" lon="8.0338897"><ele>693.0</ele><time>2026-04-18T14:58:37.58Z</time></trkpt><trkpt lat="44.1888785" lon="8.0339294"><ele>694.3333333333334</ele><time>2026-04-18T14:58:38.579Z</time></trkpt><trkpt lat="44.1887082" lon="8.0339957"><ele>695.6666666666667</ele><time>2026-04-18T14:58:39.581Z</time></trkpt><trkpt lat="44.1885504" lon="8.0341001"><ele>697.0</ele><time>2026-04-18T14:58:40.579Z</time></trkpt><trkpt lat="44.1884119" lon="8.0342165"><ele>698.25</ele><time>2026-04-18T14:58:41.58Z</time></trkpt><trkpt lat="44.1882881" lon="8.0343141"><ele>699.5</ele><time>2026-04-18T14:58:42.579Z</time></trkpt><trkpt lat="44.1881629" lon="8.0344207"><ele>700.75</ele><time>2026-04-18T14:58:43.579Z</time></trkpt><trkpt lat="44.1880664" lon="8.0344675"><ele>702.0</ele><time>2026-04-18T14:58:44.581Z</time></trkpt><trkpt lat="44.1879589" lon="8.0345379"><ele>703.4000000000001</ele><time>2026-04-18T14:58:45.579Z</time></trkpt><trkpt lat="44.1878729" lon="8.0345697"><ele>704.8000000000001</ele><time>2026-04-18T14:58:46.581Z</time></trkpt><trkpt lat="44.1878719" lon="8.0344783"><ele>706.2</ele><time>2026-04-18T14:58:47.58Z</time></trkpt><trkpt lat="44.1878524" lon="8.0343034"><ele>707.6</ele><time>2026-04-18T14:58:48.579Z</time></trkpt><trkpt lat="44.1878813" lon="8.0341393"><ele>709.0</ele><time>2026-04-18T14:58:49.58Z</time></trkpt><trkpt lat="44.1880869" lon="8.0340192"><ele>705.0</ele><time>2026-04-18T14:58:50.581Z</time></trkpt><trkpt lat="44.1883023" lon="8.0339221"><ele>701.0</ele><time>2026-04-18T14:58:51.58Z</time></trkpt><trkpt lat="44.1884306" lon="8.0337891"><ele>697.0</ele><time>2026-04-18T14:58:52.58Z</time></trkpt><trkpt lat="44.1885764" lon="8.0336538"><ele>697.0</ele><time>2026-04-18T14:58:53.581Z</time></trkpt><trkpt lat="44.1887665" lon="8.0335474"><ele>697.0</ele><time>2026-04-18T14:58:54.58Z</time></trkpt><trkpt lat="44.18894" lon="8.0334422"><ele>697.0</ele><time>2026-04-18T14:58:55.58Z</time></trkpt><trkpt lat="44.1891125" lon="8.0333177"><ele>695.0</ele><time>2026-04-18T14:58:56.581Z</time></trkpt><trkpt lat="44.1892517" lon="8.0331603"><ele>693.0</ele><time>2026-04-18T14:58:57.58Z</time></trkpt><trkpt lat="44.1893049" lon="8.0328953"><ele>691.0</ele><time>2026-04-18T14:58:58.58Z</time></trkpt><trkpt lat="44.1893888" lon="8.0326954"><ele>691.0</ele><time>2026-04-18T14:58:59.58Z</time></trkpt><trkpt lat="44.1894747" lon="8.0324866"><ele>691.0</ele><time>2026-04-18T14:59:00.579Z</time></trkpt><trkpt lat="44.1896165" lon="8.0322788"><ele>691.0</ele><time>2026-04-18T14:59:01.579Z</time></trkpt><trkpt lat="44.1898143" lon="8.0322963"><ele>691.0</ele><time>2026-04-18T14:59:02.579Z</time></trkpt><trkpt lat="44.1899982" lon="8.0322002"><ele>691.0</ele><time>2026-04-18T14:59:03.58Z</time></trkpt><trkpt lat="44.1901927" lon="8.0321305"><ele>691.0</ele><time>2026-04-18T14:59:04.58Z</time></trkpt><trkpt lat="44.1903977" lon="8.0320607"><ele>691.0</ele><time>2026-04-18T14:59:05.58Z</time></trkpt><trkpt lat="44.1905909" lon="8.031971"><ele>691.0</ele><time>2026-04-18T14:59:06.58Z</time></trkpt><trkpt lat="44.190789" lon="8.0319107"><ele>691.0</ele><time>2026-04-18T14:59:07.58Z</time></trkpt><trkpt lat="44.1909844" lon="8.031837"><ele>687.3333333333334</ele><time>2026-04-18T14:59:08.579Z</time></trkpt><trkpt lat="44.1911699" lon="8.0317872"><ele>683.6666666666666</ele><time>2026-04-18T14:59:09.58Z</time></trkpt><trkpt lat="44.191359" lon="8.031765"><ele>680.0</ele><time>2026-04-18T14:59:10.58Z</time></trkpt><trkpt lat="44.1915545" lon="8.0317684"><ele>676.6666666666666</ele><time>2026-04-18T14:59:11.579Z</time></trkpt><trkpt lat="44.1917474" lon="8.0317821"><ele>673.3333333333334</ele><time>2026-04-18T14:59:12.58Z</time></trkpt><trkpt lat="44.1919408" lon="8.0318062"><ele>670.0</ele><time>2026-04-18T14:59:13.58Z</time></trkpt><trkpt lat="44.1921278" lon="8.0318084"><ele>670.0</ele><time>2026-04-18T14:59:14.579Z</time></trkpt><trkpt lat="44.1923179" lon="8.0317982"><ele>670.0</ele><time>2026-04-18T14:59:15.581Z</time></trkpt><trkpt lat="44.1925006" lon="8.0317704"><ele>670.0</ele><time>2026-04-18T14:59:16.579Z</time></trkpt><trkpt lat="44.1927016" lon="8.0317072"><ele>670.3333333333334</ele><time>2026-04-18T14:59:17.58Z</time></trkpt><trkpt lat="44.192852" lon="8.0315378"><ele>670.6666666666666</ele><time>2026-04-18T14:59:18.581Z</time></trkpt><trkpt lat="44.1930231" lon="8.0314649"><ele>671.0</ele><time>2026-04-18T14:59:19.58Z</time></trkpt><trkpt lat="44.1931954" lon="8.0313887"><ele>666.0</ele><time>2026-04-18T14:59:20.581Z</time></trkpt><trkpt lat="44.1934208" lon="8.0313477"><ele>661.0</ele><time>2026-04-18T14:59:21.579Z</time></trkpt><trkpt lat="44.1936192" lon="8.0312596"><ele>656.0</ele><time>2026-04-18T14:59:22.579Z</time></trkpt><trkpt lat="44.1937777" lon="8.031079"><ele>656.0</ele><time>2026-04-18T14:59:23.579Z</time></trkpt><trkpt lat="44.1939307" lon="8.0309387"><ele>656.0</ele><time>2026-04-18T14:59:24.58Z</time></trkpt><trkpt lat="44.1940875" lon="8.0308319"><ele>656.0</ele><time>2026-04-18T14:59:25.579Z</time></trkpt><trkpt lat="44.1942577" lon="8.0307385"><ele>652.3333333333333</ele><time>2026-04-18T14:59:26.58Z</time></trkpt><trkpt lat="44.1944365" lon="8.0306584"><ele>648.6666666666666</ele><time>2026-04-18T14:59:27.581Z</time></trkpt><trkpt lat="44.1946119" lon="8.0305468"><ele>645.0</ele><time>2026-04-18T14:59:28.58Z</time></trkpt><trkpt lat="44.194776" lon="8.030404"><ele>639.6666666666666</ele><time>2026-04-18T14:59:29.579Z</time></trkpt><trkpt lat="44.1949346" lon="8.0302546"><ele>634.3333333333333</ele><time>2026-04-18T14:59:30.579Z</time></trkpt><trkpt lat="44.1950835" lon="8.0301065"><ele>629.0</ele><time>2026-04-18T14:59:31.58Z</time></trkpt><trkpt lat="44.1952324" lon="8.0299758"><ele>630.3333333333333</ele><time>2026-04-18T14:59:32.58Z</time></trkpt><trkpt lat="44.195384" lon="8.0298508"><ele>631.6666666666666</ele><time>2026-04-18T14:59:33.579Z</time></trkpt><trkpt lat="44.1955592" lon="8.0297619"><ele>633.0</ele><time>2026-04-18T14:59:34.58Z</time></trkpt><trkpt lat="44.1957423" lon="8.0296701"><ele>633.0</ele><time>2026-04-18T14:59:35.579Z</time></trkpt><trkpt lat="44.1959249" lon="8.0295739"><ele>633.0</ele><time>2026-04-18T14:59:36.58Z</time></trkpt><trkpt lat="44.1960965" lon="8.02947"><ele>633.0</ele><time>2026-04-18T14:59:37.579Z</time></trkpt><trkpt lat="44.1962622" lon="8.0293704"><ele>633.0</ele><time>2026-04-18T14:59:38.579Z</time></trkpt><trkpt lat="44.1964354" lon="8.0292693"><ele>633.0</ele><time>2026-04-18T14:59:39.58Z</time></trkpt><trkpt lat="44.1966018" lon="8.029175"><ele>633.0</ele><time>2026-04-18T14:59:40.58Z</time></trkpt><trkpt lat="44.1967643" lon="8.0290871"><ele>639.6666666666666</ele><time>2026-04-18T14:59:41.58Z</time></trkpt><trkpt lat="44.1969223" lon="8.028992"><ele>646.3333333333333</ele><time>2026-04-18T14:59:42.581Z</time></trkpt><trkpt lat="44.1970825" lon="8.0288896"><ele>653.0</ele><time>2026-04-18T14:59:43.58Z</time></trkpt><trkpt lat="44.1972365" lon="8.028772"><ele>645.6666666666666</ele><time>2026-04-18T14:59:44.58Z</time></trkpt><trkpt lat="44.197376" lon="8.0286285"><ele>638.3333333333334</ele><time>2026-04-18T14:59:45.58Z</time></trkpt><trkpt lat="44.1975284" lon="8.0284715"><ele>631.0</ele><time>2026-04-18T14:59:46.581Z</time></trkpt><trkpt lat="44.1976678" lon="8.028301"><ele>631.0</ele><time>2026-04-18T14:59:47.58Z</time></trkpt><trkpt lat="44.1978187" lon="8.028135"><ele>631.0</ele><time>2026-04-18T14:59:48.579Z</time></trkpt><trkpt lat="44.1979615" lon="8.0279632"><ele>631.0</ele><time>2026-04-18T14:59:49.579Z</time></trkpt><trkpt lat="44.1981067" lon="8.027795"><ele>622.0</ele><time>2026-04-18T14:59:50.581Z</time></trkpt><trkpt lat="44.198251" lon="8.0276283"><ele>613.0</ele><time>2026-04-18T14:59:51.58Z</time></trkpt><trkpt lat="44.1984062" lon="8.0274564"><ele>604.0</ele><time>2026-04-18T14:59:52.58Z</time></trkpt><trkpt lat="44.1985639" lon="8.0272849"><ele>604.0</ele><time>2026-04-18T14:59:53.58Z</time></trkpt><trkpt lat="44.1987174" lon="8.0271171"><ele>604.0</ele><time>2026-04-18T14:59:54.579Z</time></trkpt><trkpt lat="44.1988721" lon="8.0269434"><ele>604.0</ele><time>2026-04-18T14:59:55.579Z</time></trkpt><trkpt lat="44.1990159" lon="8.0267772"><ele>601.6666666666667</ele><time>2026-04-18T14:59:56.58Z</time></trkpt><trkpt lat="44.1991584" lon="8.0265981"><ele>599.3333333333334</ele><time>2026-04-18T14:59:57.58Z</time></trkpt><trkpt lat="44.1992964" lon="8.0264214"><ele>597.0</ele><time>2026-04-18T14:59:58.58Z</time></trkpt><trkpt lat="44.1994295" lon="8.0262278"><ele>597.0</ele><time>2026-04-18T14:59:59.579Z</time></trkpt><trkpt lat="44.1995576" lon="8.0260337"><ele>597.0</ele><time>2026-04-18T15:00:00.579Z</time></trkpt><trkpt lat="44.1996957" lon="8.0258399"><ele>597.0</ele><time>2026-04-18T15:00:01.579Z</time></trkpt><trkpt lat="44.1998287" lon="8.025647"><ele>597.0</ele><time>2026-04-18T15:00:02.579Z</time></trkpt><trkpt lat="44.1999721" lon="8.025454"><ele>597.0</ele><time>2026-04-18T15:00:03.58Z</time></trkpt><trkpt lat="44.2001139" lon="8.0252516"><ele>597.0</ele><time>2026-04-18T15:00:04.58Z</time></trkpt><trkpt lat="44.2002466" lon="8.0250415"><ele>596.0</ele><time>2026-04-18T15:00:05.579Z</time></trkpt><trkpt lat="44.2003835" lon="8.0248295"><ele>595.0</ele><time>2026-04-18T15:00:06.58Z</time></trkpt><trkpt lat="44.2005259" lon="8.0246255"><ele>594.0</ele><time>2026-04-18T15:00:07.579Z</time></trkpt><trkpt lat="44.2006574" lon="8.0244152"><ele>594.6666666666666</ele><time>2026-04-18T15:00:08.579Z</time></trkpt><trkpt lat="44.2007913" lon="8.0242157"><ele>595.3333333333333</ele><time>2026-04-18T15:00:09.58Z</time></trkpt><trkpt lat="44.2009134" lon="8.0240146"><ele>596.0</ele><time>2026-04-18T15:00:10.579Z</time></trkpt><trkpt lat="44.201035" lon="8.0238208"><ele>594.3333333333333</ele><time>2026-04-18T15:00:11.58Z</time></trkpt><trkpt lat="44.2011602" lon="8.0236368"><ele>592.6666666666666</ele><time>2026-04-18T15:00:12.58Z</time></trkpt><trkpt lat="44.2012736" lon="8.0234591"><ele>591.0</ele><time>2026-04-18T15:00:13.58Z</time></trkpt><trkpt lat="44.2013852" lon="8.0232833"><ele>590.6666666666666</ele><time>2026-04-18T15:00:14.58Z</time></trkpt><trkpt lat="44.2014916" lon="8.0231166"><ele>590.3333333333333</ele><time>2026-04-18T15:00:15.579Z</time></trkpt><trkpt lat="44.2015962" lon="8.0229562"><ele>590.0</ele><time>2026-04-18T15:00:16.581Z</time></trkpt><trkpt lat="44.2016952" lon="8.0228055"><ele>590.0</ele><time>2026-04-18T15:00:17.58Z</time></trkpt><trkpt lat="44.2017926" lon="8.0226632"><ele>590.0</ele><time>2026-04-18T15:00:18.579Z</time></trkpt><trkpt lat="44.2018759" lon="8.0225371"><ele>590.0</ele><time>2026-04-18T15:00:19.579Z</time></trkpt><trkpt lat="44.2019553" lon="8.0224229"><ele>590.0</ele><time>2026-04-18T15:00:20.579Z</time></trkpt><trkpt lat="44.2020321" lon="8.0223098"><ele>589.5</ele><time>2026-04-18T15:00:21.579Z</time></trkpt><trkpt lat="44.2021103" lon="8.0221959"><ele>589.0</ele><time>2026-04-18T15:00:22.581Z</time></trkpt><trkpt lat="44.2021875" lon="8.0220943"><ele>588.5</ele><time>2026-04-18T15:00:23.58Z</time></trkpt><trkpt lat="44.2022816" lon="8.0220061"><ele>588.0</ele><time>2026-04-18T15:00:24.58Z</time></trkpt><trkpt lat="44.2023921" lon="8.0219503"><ele>588.0</ele><time>2026-04-18T15:00:25.579Z</time></trkpt><trkpt lat="44.2024962" lon="8.0219136"><ele>588.0</ele><time>2026-04-18T15:00:26.58Z</time></trkpt><trkpt lat="44.2026079" lon="8.0218984"><ele>588.0</ele><time>2026-04-18T15:00:27.579Z</time></trkpt><trkpt lat="44.2027205" lon="8.0218879"><ele>588.0</ele><time>2026-04-18T15:00:28.579Z</time></trkpt><trkpt lat="44.2028408" lon="8.0218751"><ele>588.0</ele><time>2026-04-18T15:00:29.579Z</time></trkpt><trkpt lat="44.2029798" lon="8.0218666"><ele>588.0</ele><time>2026-04-18T15:00:30.581Z</time></trkpt><trkpt lat="44.2031117" lon="8.0218714"><ele>588.0</ele><time>2026-04-18T15:00:31.579Z</time></trkpt><trkpt lat="44.2032328" lon="8.0218772"><ele>588.0</ele><time>2026-04-18T15:00:32.579Z</time></trkpt><trkpt lat="44.2033321" lon="8.0218792"><ele>587.8333333333334</ele><time>2026-04-18T15:00:33.579Z</time></trkpt><trkpt lat="44.2033996" lon="8.0218797"><ele>587.6666666666666</ele><time>2026-04-18T15:00:34.579Z</time></trkpt><trkpt lat="44.2034957" lon="8.0218875"><ele>587.5</ele><time>2026-04-18T15:00:36.581Z</time></trkpt><trkpt lat="44.2035848" lon="8.0219164"><ele>587.3333333333333</ele><time>2026-04-18T15:01:24.579Z</time></trkpt><trkpt lat="44.2036881" lon="8.0218773"><ele>587.1666666666666</ele><time>2026-04-18T15:01:26.579Z</time></trkpt><trkpt lat="44.2037532" lon="8.0218103"><ele>587.0</ele><time>2026-04-18T15:01:27.579Z</time></trkpt><trkpt lat="44.2037961" lon="8.0217024"><ele>586.75</ele><time>2026-04-18T15:01:28.579Z</time></trkpt><trkpt lat="44.2038145" lon="8.0215439"><ele>586.5</ele><time>2026-04-18T15:01:29.579Z</time></trkpt><trkpt lat="44.2038419" lon="8.0213811"><ele>586.25</ele><time>2026-04-18T15:01:30.579Z</time></trkpt><trkpt lat="44.2038585" lon="8.0211975"><ele>586.0</ele><time>2026-04-18T15:01:31.58Z</time></trkpt><trkpt lat="44.2038784" lon="8.0210139"><ele>586.0</ele><time>2026-04-18T15:01:32.579Z</time></trkpt><trkpt lat="44.2038959" lon="8.0208264"><ele>586.0</ele><time>2026-04-18T15:01:33.58Z</time></trkpt><trkpt lat="44.2039055" lon="8.0206417"><ele>586.0</ele><time>2026-04-18T15:01:34.579Z</time></trkpt><trkpt lat="44.2039134" lon="8.02046"><ele>586.0</ele><time>2026-04-18T15:01:35.58Z</time></trkpt><trkpt lat="44.2039288" lon="8.0202891"><ele>585.25</ele><time>2026-04-18T15:01:36.58Z</time></trkpt><trkpt lat="44.203935" lon="8.0201199"><ele>584.5</ele><time>2026-04-18T15:01:37.58Z</time></trkpt><trkpt lat="44.2039453" lon="8.0199598"><ele>583.75</ele><time>2026-04-18T15:01:38.58Z</time></trkpt><trkpt lat="44.2039561" lon="8.0198068"><ele>583.0</ele><time>2026-04-18T15:01:39.579Z</time></trkpt><trkpt lat="44.2039667" lon="8.0196638"><ele>583.0</ele><time>2026-04-18T15:01:40.579Z</time></trkpt><trkpt lat="44.2039773" lon="8.0195331"><ele>583.0</ele><time>2026-04-18T15:01:41.58Z</time></trkpt><trkpt lat="44.2039902" lon="8.019416"><ele>583.0</ele><time>2026-04-18T15:01:42.579Z</time></trkpt><trkpt lat="44.2039985" lon="8.0193122"><ele>583.0</ele><time>2026-04-18T15:01:43.58Z</time></trkpt><trkpt lat="44.2039995" lon="8.0192155"><ele>583.0</ele><time>2026-04-18T15:01:44.579Z</time></trkpt><trkpt lat="44.2040168" lon="8.0190569"><ele>583.0</ele><time>2026-04-18T15:01:46.581Z</time></trkpt><trkpt lat="44.2040316" lon="8.0188972"><ele>583.1999999999999</ele><time>2026-04-18T15:01:48.58Z</time></trkpt><trkpt lat="44.2040377" lon="8.0187463"><ele>583.4</ele><time>2026-04-18T15:01:50.58Z</time></trkpt><trkpt lat="44.2040253" lon="8.0186231"><ele>583.5999999999999</ele><time>2026-04-18T15:01:52.579Z</time></trkpt><trkpt lat="44.2039622" lon="8.018558"><ele>583.8</ele><time>2026-04-18T15:01:53.58Z</time></trkpt><trkpt lat="44.2038156" lon="8.0184544"><ele>584.0</ele><time>2026-04-18T15:01:55.579Z</time></trkpt><trkpt lat="44.2037206" lon="8.0184091"><ele>584.25</ele><time>2026-04-18T15:01:56.579Z</time></trkpt><trkpt lat="44.2035859" lon="8.0183233"><ele>584.5</ele><time>2026-04-18T15:01:57.579Z</time></trkpt><trkpt lat="44.2034587" lon="8.0182628"><ele>584.75</ele><time>2026-04-18T15:01:58.58Z</time></trkpt><trkpt lat="44.2033386" lon="8.0181769"><ele>585.0</ele><time>2026-04-18T15:01:59.579Z</time></trkpt><trkpt lat="44.2032089" lon="8.018087"><ele>585.6666666666666</ele><time>2026-04-18T15:02:00.58Z</time></trkpt><trkpt lat="44.203073" lon="8.0179694"><ele>586.3333333333333</ele><time>2026-04-18T15:02:01.58Z</time></trkpt><trkpt lat="44.2029365" lon="8.0178674"><ele>587.0</ele><time>2026-04-18T15:02:02.58Z</time></trkpt><trkpt lat="44.2027957" lon="8.0177766"><ele>587.0</ele><time>2026-04-18T15:02:03.58Z</time></trkpt><trkpt lat="44.2026576" lon="8.0176973"><ele>587.0</ele><time>2026-04-18T15:02:04.58Z</time></trkpt><trkpt lat="44.2024946" lon="8.0175963"><ele>587.0</ele><time>2026-04-18T15:02:05.579Z</time></trkpt><trkpt lat="44.2023528" lon="8.0174898"><ele>587.6666666666666</ele><time>2026-04-18T15:02:06.58Z</time></trkpt><trkpt lat="44.2022015" lon="8.0173782"><ele>588.3333333333334</ele><time>2026-04-18T15:02:07.579Z</time></trkpt><trkpt lat="44.2020584" lon="8.0172715"><ele>589.0</ele><time>2026-04-18T15:02:08.58Z</time></trkpt><trkpt lat="44.2019118" lon="8.0171582"><ele>589.0</ele><time>2026-04-18T15:02:09.579Z</time></trkpt><trkpt lat="44.2017799" lon="8.0170772"><ele>589.0</ele><time>2026-04-18T15:02:10.58Z</time></trkpt><trkpt lat="44.2016692" lon="8.0170083"><ele>589.0</ele><time>2026-04-18T15:02:11.579Z</time></trkpt><trkpt lat="44.2015611" lon="8.0169192"><ele>589.0</ele><time>2026-04-18T15:02:12.581Z</time></trkpt><trkpt lat="44.201561" lon="8.0168013"><ele>589.0</ele><time>2026-04-18T15:02:13.581Z</time></trkpt><trkpt lat="44.2015569" lon="8.0166651"><ele>589.0</ele><time>2026-04-18T15:02:14.579Z</time></trkpt><trkpt lat="44.201557" lon="8.0164914"><ele>589.0</ele><time>2026-04-18T15:02:15.58Z</time></trkpt><trkpt lat="44.2015873" lon="8.0163135"><ele>589.0</ele><time>2026-04-18T15:02:16.58Z</time></trkpt><trkpt lat="44.2016066" lon="8.0161024"><ele>588.3333333333334</ele><time>2026-04-18T15:02:17.58Z</time></trkpt><trkpt lat="44.2016515" lon="8.0158673"><ele>587.6666666666666</ele><time>2026-04-18T15:02:18.58Z</time></trkpt><trkpt lat="44.2016826" lon="8.0156291"><ele>587.0</ele><time>2026-04-18T15:02:19.579Z</time></trkpt><trkpt lat="44.2017271" lon="8.0153846"><ele>585.0</ele><time>2026-04-18T15:02:20.579Z</time></trkpt><trkpt lat="44.2017672" lon="8.0151405"><ele>583.0</ele><time>2026-04-18T15:02:21.58Z</time></trkpt><trkpt lat="44.2018082" lon="8.0149102"><ele>581.0</ele><time>2026-04-18T15:02:22.579Z</time></trkpt><trkpt lat="44.2018491" lon="8.014686"><ele>580.75</ele><time>2026-04-18T15:02:23.58Z</time></trkpt><trkpt lat="44.2018827" lon="8.0144796"><ele>580.5</ele><time>2026-04-18T15:02:24.579Z</time></trkpt><trkpt lat="44.2019112" lon="8.0142799"><ele>580.25</ele><time>2026-04-18T15:02:25.579Z</time></trkpt><trkpt lat="44.201941" lon="8.0141026"><ele>580.0</ele><time>2026-04-18T15:02:26.581Z</time></trkpt><trkpt lat="44.2019681" lon="8.0139358"><ele>580.8</ele><time>2026-04-18T15:02:27.58Z</time></trkpt><trkpt lat="44.2019939" lon="8.0137941"><ele>581.6</ele><time>2026-04-18T15:02:28.579Z</time></trkpt><trkpt lat="44.2020239" lon="8.0136642"><ele>582.4</ele><time>2026-04-18T15:02:29.579Z</time></trkpt><trkpt lat="44.2020604" lon="8.0135444"><ele>583.2</ele><time>2026-04-18T15:02:30.579Z</time></trkpt><trkpt lat="44.2021348" lon="8.0135312"><ele>584.0</ele><time>2026-04-18T15:02:33.58Z</time></trkpt><trkpt lat="44.2022434" lon="8.0135463"><ele>584.25</ele><time>2026-04-18T15:02:35.58Z</time></trkpt><trkpt lat="44.2023391" lon="8.0135715"><ele>584.5</ele><time>2026-04-18T15:02:36.579Z</time></trkpt><trkpt lat="44.202433" lon="8.0136097"><ele>584.75</ele><time>2026-04-18T15:02:37.58Z</time></trkpt><trkpt lat="44.2025586" lon="8.013668"><ele>585.0</ele><time>2026-04-18T15:02:38.58Z</time></trkpt><trkpt lat="44.2026914" lon="8.0137217"><ele>585.0</ele><time>2026-04-18T15:02:39.581Z</time></trkpt><trkpt lat="44.2028236" lon="8.0137778"><ele>585.0</ele><time>2026-04-18T15:02:40.58Z</time></trkpt><trkpt lat="44.2029625" lon="8.013839"><ele>585.0</ele><time>2026-04-18T15:02:41.579Z</time></trkpt><trkpt lat="44.2030895" lon="8.0138934"><ele>585.0</ele><time>2026-04-18T15:02:42.58Z</time></trkpt><trkpt lat="44.2032038" lon="8.0139402"><ele>585.0</ele><time>2026-04-18T15:02:43.58Z</time></trkpt><trkpt lat="44.2033111" lon="8.0139872"><ele>585.0</ele><time>2026-04-18T15:02:44.58Z</time></trkpt><trkpt lat="44.203415" lon="8.0140234"><ele>585.0</ele><time>2026-04-18T15:02:45.58Z</time></trkpt><trkpt lat="44.2035048" lon="8.0140522"><ele>585.0</ele><time>2026-04-18T15:02:46.58Z</time></trkpt><trkpt lat="44.203584" lon="8.0140669"><ele>585.0</ele><time>2026-04-18T15:02:47.579Z</time></trkpt><trkpt lat="44.2036577" lon="8.0140584"><ele>585.0</ele><time>2026-04-18T15:02:48.58Z</time></trkpt><trkpt lat="44.2037099" lon="8.0139124"><ele>585.0</ele><time>2026-04-18T15:02:50.579Z</time></trkpt><trkpt lat="44.2037368" lon="8.0138146"><ele>585.0</ele><time>2026-04-18T15:02:51.579Z</time></trkpt><trkpt lat="44.2037656" lon="8.0137108"><ele>585.0</ele><time>2026-04-18T15:02:52.581Z</time></trkpt><trkpt lat="44.2037959" lon="8.0136257"><ele>585.0</ele><time>2026-04-18T15:02:53.58Z</time></trkpt><trkpt lat="44.2038281" lon="8.0135404"><ele>585.0</ele><time>2026-04-18T15:02:54.579Z</time></trkpt><trkpt lat="44.2038645" lon="8.0134276"><ele>585.0</ele><time>2026-04-18T15:02:56.579Z</time></trkpt><trkpt lat="44.2039119" lon="8.0133359"><ele>585.0</ele><time>2026-04-18T15:06:01.58Z</time></trkpt><trkpt lat="44.2039425" lon="8.0131629"><ele>585.0</ele><time>2026-04-18T15:06:02.58Z</time></trkpt><trkpt lat="44.2039965" lon="8.0129815"><ele>585.0</ele><time>2026-04-18T15:06:03.579Z</time></trkpt><trkpt lat="44.2040346" lon="8.0128504"><ele>585.75</ele><time>2026-04-18T15:06:04.579Z</time></trkpt><trkpt lat="44.2041121" lon="8.0126865"><ele>586.5</ele><time>2026-04-18T15:06:05.581Z</time></trkpt><trkpt lat="44.2042047" lon="8.0125205"><ele>587.25</ele><time>2026-04-18T15:06:06.579Z</time></trkpt><trkpt lat="44.2043137" lon="8.0123656"><ele>588.0</ele><time>2026-04-18T15:06:07.58Z</time></trkpt><trkpt lat="44.2044435" lon="8.0122171"><ele>588.6666666666666</ele><time>2026-04-18T15:06:08.579Z</time></trkpt><trkpt lat="44.204571" lon="8.0120697"><ele>589.3333333333333</ele><time>2026-04-18T15:06:09.579Z</time></trkpt><trkpt lat="44.2047037" lon="8.0119177"><ele>590.0</ele><time>2026-04-18T15:06:10.58Z</time></trkpt><trkpt lat="44.2048408" lon="8.0117648"><ele>591.0</ele><time>2026-04-18T15:06:11.58Z</time></trkpt><trkpt lat="44.2049889" lon="8.0116039"><ele>592.0</ele><time>2026-04-18T15:06:12.58Z</time></trkpt><trkpt lat="44.2051326" lon="8.0114423"><ele>593.0</ele><time>2026-04-18T15:06:13.58Z</time></trkpt><trkpt lat="44.2052742" lon="8.0112783"><ele>593.0</ele><time>2026-04-18T15:06:14.579Z</time></trkpt><trkpt lat="44.2054172" lon="8.0111212"><ele>593.0</ele><time>2026-04-18T15:06:15.581Z</time></trkpt><trkpt lat="44.2055666" lon="8.0109496"><ele>593.0</ele><time>2026-04-18T15:06:16.581Z</time></trkpt><trkpt lat="44.2057098" lon="8.010785"><ele>593.6666666666666</ele><time>2026-04-18T15:06:17.579Z</time></trkpt><trkpt lat="44.2058575" lon="8.0106326"><ele>594.3333333333334</ele><time>2026-04-18T15:06:18.579Z</time></trkpt><trkpt lat="44.205995" lon="8.0104748"><ele>595.0</ele><time>2026-04-18T15:06:19.58Z</time></trkpt><trkpt lat="44.2061355" lon="8.0103228"><ele>595.0</ele><time>2026-04-18T15:06:20.579Z</time></trkpt><trkpt lat="44.2062715" lon="8.0101736"><ele>595.0</ele><time>2026-04-18T15:06:21.58Z</time></trkpt><trkpt lat="44.206406" lon="8.0100292"><ele>595.0</ele><time>2026-04-18T15:06:22.579Z</time></trkpt><trkpt lat="44.2065322" lon="8.0098769"><ele>596.6666666666667</ele><time>2026-04-18T15:06:23.579Z</time></trkpt><trkpt lat="44.2066603" lon="8.0097236"><ele>598.3333333333334</ele><time>2026-04-18T15:06:24.579Z</time></trkpt><trkpt lat="44.2067731" lon="8.0095417"><ele>600.0</ele><time>2026-04-18T15:06:25.579Z</time></trkpt><trkpt lat="44.2068779" lon="8.0093546"><ele>601.0</ele><time>2026-04-18T15:06:26.579Z</time></trkpt><trkpt lat="44.2069581" lon="8.0091182"><ele>602.0</ele><time>2026-04-18T15:06:27.579Z</time></trkpt><trkpt lat="44.2070315" lon="8.0088794"><ele>603.0</ele><time>2026-04-18T15:06:28.579Z</time></trkpt><trkpt lat="44.2070886" lon="8.0086341"><ele>603.0</ele><time>2026-04-18T15:06:29.579Z</time></trkpt><trkpt lat="44.2071397" lon="8.0083748"><ele>603.0</ele><time>2026-04-18T15:06:30.581Z</time></trkpt><trkpt lat="44.2071773" lon="8.0081145"><ele>603.0</ele><time>2026-04-18T15:06:31.581Z</time></trkpt><trkpt lat="44.2072053" lon="8.007847"><ele>603.6666666666666</ele><time>2026-04-18T15:06:32.58Z</time></trkpt><trkpt lat="44.2072169" lon="8.0075778"><ele>604.3333333333333</ele><time>2026-04-18T15:06:33.579Z</time></trkpt><trkpt lat="44.2072153" lon="8.007304"><ele>605.0</ele><time>2026-04-18T15:06:34.58Z</time></trkpt><trkpt lat="44.2072071" lon="8.0070346"><ele>606.0</ele><time>2026-04-18T15:06:35.579Z</time></trkpt><trkpt lat="44.2071904" lon="8.0067611"><ele>607.0</ele><time>2026-04-18T15:06:36.579Z</time></trkpt><trkpt lat="44.2071636" lon="8.0064783"><ele>608.0</ele><time>2026-04-18T15:06:37.58Z</time></trkpt><trkpt lat="44.2071345" lon="8.0062035"><ele>609.3333333333333</ele><time>2026-04-18T15:06:38.581Z</time></trkpt><trkpt lat="44.2071061" lon="8.0059241"><ele>610.6666666666666</ele><time>2026-04-18T15:06:39.579Z</time></trkpt><trkpt lat="44.2070786" lon="8.005645"><ele>612.0</ele><time>2026-04-18T15:06:40.579Z</time></trkpt><trkpt lat="44.2070454" lon="8.0053615"><ele>613.0</ele><time>2026-04-18T15:06:41.579Z</time></trkpt><trkpt lat="44.2070094" lon="8.0050817"><ele>614.0</ele><time>2026-04-18T15:06:42.579Z</time></trkpt><trkpt lat="44.206976" lon="8.0048032"><ele>615.0</ele><time>2026-04-18T15:06:43.58Z</time></trkpt><trkpt lat="44.2069503" lon="8.0045202"><ele>616.6666666666666</ele><time>2026-04-18T15:06:44.579Z</time></trkpt><trkpt lat="44.2069433" lon="8.0042404"><ele>618.3333333333333</ele><time>2026-04-18T15:06:45.58Z</time></trkpt><trkpt lat="44.2069559" lon="8.0039639"><ele>620.0</ele><time>2026-04-18T15:06:46.581Z</time></trkpt><trkpt lat="44.2069877" lon="8.0036897"><ele>621.0</ele><time>2026-04-18T15:06:47.579Z</time></trkpt><trkpt lat="44.2070164" lon="8.003418"><ele>622.0</ele><time>2026-04-18T15:06:48.58Z</time></trkpt><trkpt lat="44.2070265" lon="8.0031402"><ele>623.0</ele><time>2026-04-18T15:06:49.579Z</time></trkpt><trkpt lat="44.2070334" lon="8.0028501"><ele>623.3333333333333</ele><time>2026-04-18T15:06:50.58Z</time></trkpt><trkpt lat="44.2070212" lon="8.0026041"><ele>623.6666666666666</ele><time>2026-04-18T15:06:51.579Z</time></trkpt><trkpt lat="44.2070241" lon="8.0023312"><ele>624.0</ele><time>2026-04-18T15:06:52.579Z</time></trkpt><trkpt lat="44.2070265" lon="8.0020611"><ele>625.0</ele><time>2026-04-18T15:06:53.579Z</time></trkpt><trkpt lat="44.2070339" lon="8.0017841"><ele>626.0</ele><time>2026-04-18T15:06:54.581Z</time></trkpt><trkpt lat="44.2070431" lon="8.0015108"><ele>627.0</ele><time>2026-04-18T15:06:55.58Z</time></trkpt><trkpt lat="44.2070585" lon="8.0012719"><ele>627.75</ele><time>2026-04-18T15:06:56.58Z</time></trkpt><trkpt lat="44.207071" lon="8.0010583"><ele>628.5</ele><time>2026-04-18T15:06:57.579Z</time></trkpt><trkpt lat="44.2070833" lon="8.0008765"><ele>629.25</ele><time>2026-04-18T15:06:58.58Z</time></trkpt><trkpt lat="44.2070971" lon="8.0007256"><ele>630.0</ele><time>2026-04-18T15:06:59.58Z</time></trkpt><trkpt lat="44.2071132" lon="8.0005938"><ele>630.6</ele><time>2026-04-18T15:07:00.581Z</time></trkpt><trkpt lat="44.2071481" lon="8.0004638"><ele>631.2</ele><time>2026-04-18T15:07:01.579Z</time></trkpt><trkpt lat="44.2071921" lon="8.0003314"><ele>631.8</ele><time>2026-04-18T15:07:02.579Z</time></trkpt><trkpt lat="44.2072235" lon="8.0001812"><ele>632.4</ele><time>2026-04-18T15:07:03.58Z</time></trkpt><trkpt lat="44.2072478" lon="8.0000153"><ele>633.0</ele><time>2026-04-18T15:07:04.579Z</time></trkpt><trkpt lat="44.2072728" lon="7.9998575"><ele>633.0</ele><time>2026-04-18T15:07:05.579Z</time></trkpt><trkpt lat="44.207227" lon="7.9996645"><ele>633.0</ele><time>2026-04-18T15:07:06.58Z</time></trkpt><trkpt lat="44.2072181" lon="7.9994888"><ele>633.0</ele><time>2026-04-18T15:07:07.58Z</time></trkpt><trkpt lat="44.2071965" lon="7.9993595"><ele>633.0</ele><time>2026-04-18T15:07:08.581Z</time></trkpt><trkpt lat="44.207189" lon="7.9992184"><ele>633.0</ele><time>2026-04-18T15:07:09.579Z</time></trkpt><trkpt lat="44.2071844" lon="7.9990769"><ele>633.0</ele><time>2026-04-18T15:07:10.58Z</time></trkpt><trkpt lat="44.2072305" lon="7.9989184"><ele>633.0</ele><time>2026-04-18T15:07:11.579Z</time></trkpt><trkpt lat="44.2072608" lon="7.9987744"><ele>633.0</ele><time>2026-04-18T15:07:12.579Z</time></trkpt><trkpt lat="44.2073132" lon="7.9986346"><ele>633.0</ele><time>2026-04-18T15:07:13.579Z</time></trkpt><trkpt lat="44.2073648" lon="7.9984737"><ele>638.0</ele><time>2026-04-18T15:07:14.579Z</time></trkpt><trkpt lat="44.207397" lon="7.9983114"><ele>643.0</ele><time>2026-04-18T15:07:15.579Z</time></trkpt><trkpt lat="44.2074109" lon="7.9981345"><ele>648.0</ele><time>2026-04-18T15:07:16.58Z</time></trkpt><trkpt lat="44.2074133" lon="7.9979571"><ele>653.0</ele><time>2026-04-18T15:07:17.58Z</time></trkpt><trkpt lat="44.207428" lon="7.9977641"><ele>653.0</ele><time>2026-04-18T15:07:18.58Z</time></trkpt><trkpt lat="44.2074455" lon="7.9975786"><ele>653.0</ele><time>2026-04-18T15:07:19.58Z</time></trkpt><trkpt lat="44.2074933" lon="7.997419"><ele>653.0</ele><time>2026-04-18T15:07:20.581Z</time></trkpt><trkpt lat="44.2075339" lon="7.9972346"><ele>653.0</ele><time>2026-04-18T15:07:21.581Z</time></trkpt><trkpt lat="44.2075642" lon="7.9970482"><ele>653.5</ele><time>2026-04-18T15:07:22.58Z</time></trkpt><trkpt lat="44.2075763" lon="7.996842"><ele>654.0</ele><time>2026-04-18T15:07:23.58Z</time></trkpt><trkpt lat="44.207584" lon="7.9966354"><ele>654.5</ele><time>2026-04-18T15:07:24.58Z</time></trkpt><trkpt lat="44.207592" lon="7.9964251"><ele>655.0</ele><time>2026-04-18T15:07:25.581Z</time></trkpt><trkpt lat="44.2076026" lon="7.9962223"><ele>655.75</ele><time>2026-04-18T15:07:26.58Z</time></trkpt><trkpt lat="44.207614" lon="7.9960177"><ele>656.5</ele><time>2026-04-18T15:07:27.58Z</time></trkpt><trkpt lat="44.20763" lon="7.9958354"><ele>657.25</ele><time>2026-04-18T15:07:28.579Z</time></trkpt><trkpt lat="44.2076425" lon="7.9956562"><ele>658.0</ele><time>2026-04-18T15:07:29.58Z</time></trkpt><trkpt lat="44.2076909" lon="7.9954895"><ele>658.2</ele><time>2026-04-18T15:07:30.581Z</time></trkpt><trkpt lat="44.2077303" lon="7.9953347"><ele>658.4</ele><time>2026-04-18T15:07:31.579Z</time></trkpt><trkpt lat="44.2077884" lon="7.9952182"><ele>658.6</ele><time>2026-04-18T15:07:32.579Z</time></trkpt><trkpt lat="44.2078329" lon="7.9951096"><ele>658.8000000000001</ele><time>2026-04-18T15:07:33.581Z</time></trkpt><trkpt lat="44.2078622" lon="7.994991"><ele>659.0</ele><time>2026-04-18T15:07:34.579Z</time></trkpt><trkpt lat="44.2079276" lon="7.9949592"><ele>659.0</ele><time>2026-04-18T15:07:35.58Z</time></trkpt><trkpt lat="44.2078816" lon="7.9951977"><ele>659.0</ele><time>2026-04-18T15:07:37.579Z</time></trkpt><trkpt lat="44.2078404" lon="7.9953046"><ele>659.0</ele><time>2026-04-18T15:07:38.579Z</time></trkpt><trkpt lat="44.2077975" lon="7.9954119"><ele>659.0</ele><time>2026-04-18T15:07:39.579Z</time></trkpt><trkpt lat="44.2077908" lon="7.9955776"><ele>659.0</ele><time>2026-04-18T15:07:40.581Z</time></trkpt><trkpt lat="44.2077677" lon="7.9957311"><ele>659.0</ele><time>2026-04-18T15:07:41.579Z</time></trkpt><trkpt lat="44.2078106" lon="7.9959474"><ele>659.0</ele><time>2026-04-18T15:07:42.581Z</time></trkpt><trkpt lat="44.2078362" lon="7.9961495"><ele>659.0</ele><time>2026-04-18T15:07:43.58Z</time></trkpt><trkpt lat="44.2078456" lon="7.9963666"><ele>658.75</ele><time>2026-04-18T15:07:44.579Z</time></trkpt><trkpt lat="44.207861" lon="7.9965633"><ele>658.5</ele><time>2026-04-18T15:07:45.579Z</time></trkpt><trkpt lat="44.2078912" lon="7.9967603"><ele>658.25</ele><time>2026-04-18T15:07:46.581Z</time></trkpt><trkpt lat="44.2079415" lon="7.9969338"><ele>658.0</ele><time>2026-04-18T15:07:47.579Z</time></trkpt><trkpt lat="44.2079885" lon="7.9970934"><ele>657.4</ele><time>2026-04-18T15:07:48.58Z</time></trkpt><trkpt lat="44.2080068" lon="7.9972445"><ele>656.8</ele><time>2026-04-18T15:07:49.579Z</time></trkpt><trkpt lat="44.2080228" lon="7.9973763"><ele>656.2</ele><time>2026-04-18T15:07:50.579Z</time></trkpt><trkpt lat="44.2080437" lon="7.9975026"><ele>655.6</ele><time>2026-04-18T15:07:51.58Z</time></trkpt><trkpt lat="44.2080878" lon="7.9976302"><ele>655.0</ele><time>2026-04-18T15:07:52.58Z</time></trkpt><trkpt lat="44.208146" lon="7.9977358"><ele>663.0</ele><time>2026-04-18T15:07:53.579Z</time></trkpt><trkpt lat="44.2083022" lon="7.9977279"><ele>671.0</ele><time>2026-04-18T15:07:54.58Z</time></trkpt><trkpt lat="44.2083986" lon="7.997812"><ele>679.0</ele><time>2026-04-18T15:07:55.581Z</time></trkpt><trkpt lat="44.2084833" lon="7.9978799"><ele>687.0</ele><time>2026-04-18T15:07:56.581Z</time></trkpt><trkpt lat="44.2085157" lon="7.9980074"><ele>687.0</ele><time>2026-04-18T15:07:57.579Z</time></trkpt><trkpt lat="44.2085247" lon="7.9981338"><ele>687.0</ele><time>2026-04-18T15:07:58.58Z</time></trkpt><trkpt lat="44.2085389" lon="7.9982583"><ele>687.0</ele><time>2026-04-18T15:07:59.579Z</time></trkpt><trkpt lat="44.2085324" lon="7.9983907"><ele>687.0</ele><time>2026-04-18T15:08:00.579Z</time></trkpt><trkpt lat="44.2084028" lon="7.9985512"><ele>687.4000000000001</ele><time>2026-04-18T15:08:01.579Z</time></trkpt><trkpt lat="44.2083385" lon="7.9986953"><ele>687.8000000000001</ele><time>2026-04-18T15:08:02.579Z</time></trkpt><trkpt lat="44.2082971" lon="7.9988485"><ele>688.2</ele><time>2026-04-18T15:08:03.58Z</time></trkpt><trkpt lat="44.2082788" lon="7.9989847"><ele>688.6</ele><time>2026-04-18T15:08:04.58Z</time></trkpt><trkpt lat="44.208355" lon="7.9990184"><ele>689.0</ele><time>2026-04-18T15:08:06.58Z</time></trkpt><trkpt lat="44.2084532" lon="7.998964"><ele>689.0</ele><time>2026-04-18T15:08:08.581Z</time></trkpt><trkpt lat="44.2084765" lon="7.9988118"><ele>689.0</ele><time>2026-04-18T15:08:09.579Z</time></trkpt><trkpt lat="44.2085366" lon="7.9986864"><ele>689.0</ele><time>2026-04-18T15:08:10.58Z</time></trkpt><trkpt lat="44.2086035" lon="7.9985673"><ele>689.0</ele><time>2026-04-18T15:08:11.58Z</time></trkpt><trkpt lat="44.2086886" lon="7.9984459"><ele>688.5</ele><time>2026-04-18T15:08:12.581Z</time></trkpt><trkpt lat="44.2087817" lon="7.9983121"><ele>688.0</ele><time>2026-04-18T15:08:13.58Z</time></trkpt><trkpt lat="44.2088438" lon="7.9981544"><ele>687.5</ele><time>2026-04-18T15:08:14.579Z</time></trkpt><trkpt lat="44.2089002" lon="7.9980055"><ele>687.0</ele><time>2026-04-18T15:08:15.58Z</time></trkpt><trkpt lat="44.2089478" lon="7.9978592"><ele>687.0</ele><time>2026-04-18T15:08:16.581Z</time></trkpt><trkpt lat="44.2089164" lon="7.9977336"><ele>687.0</ele><time>2026-04-18T15:08:17.58Z</time></trkpt><trkpt lat="44.208878" lon="7.9975818"><ele>687.0</ele><time>2026-04-18T15:08:18.579Z</time></trkpt><trkpt lat="44.2088135" lon="7.9974594"><ele>687.0</ele><time>2026-04-18T15:08:19.58Z</time></trkpt><trkpt lat="44.2087587" lon="7.9973037"><ele>687.0</ele><time>2026-04-18T15:08:20.579Z</time></trkpt><trkpt lat="44.2086994" lon="7.9971404"><ele>688.0</ele><time>2026-04-18T15:08:21.58Z</time></trkpt><trkpt lat="44.2086335" lon="7.9969794"><ele>689.0</ele><time>2026-04-18T15:08:22.579Z</time></trkpt><trkpt lat="44.2085902" lon="7.9968184"><ele>690.0</ele><time>2026-04-18T15:08:23.581Z</time></trkpt><trkpt lat="44.2085795" lon="7.9967195"><ele>691.0</ele><time>2026-04-18T15:08:24.579Z</time></trkpt><trkpt lat="44.2085858" lon="7.9965714"><ele>692.0</ele><time>2026-04-18T15:08:25.581Z</time></trkpt><trkpt lat="44.208593" lon="7.9964512"><ele>693.6</ele><time>2026-04-18T15:08:26.58Z</time></trkpt><trkpt lat="44.2086109" lon="7.9963195"><ele>695.2</ele><time>2026-04-18T15:08:27.58Z</time></trkpt><trkpt lat="44.2086592" lon="7.9962383"><ele>696.8</ele><time>2026-04-18T15:08:28.58Z</time></trkpt><trkpt lat="44.2087203" lon="7.9961887"><ele>698.4</ele><time>2026-04-18T15:08:29.58Z</time></trkpt><trkpt lat="44.2087982" lon="7.9961241"><ele>700.0</ele><time>2026-04-18T15:08:31.579Z</time></trkpt><trkpt lat="44.2087523" lon="7.9963928"><ele>700.0</ele><time>2026-04-18T15:08:33.579Z</time></trkpt><trkpt lat="44.2087597" lon="7.9965765"><ele>700.0</ele><time>2026-04-18T15:08:34.579Z</time></trkpt><trkpt lat="44.2088121" lon="7.9966707"><ele>700.0</ele><time>2026-04-18T15:08:35.579Z</time></trkpt><trkpt lat="44.2088975" lon="7.9967603"><ele>700.0</ele><time>2026-04-18T15:08:36.579Z</time></trkpt><trkpt lat="44.2089728" lon="7.9968673"><ele>700.0</ele><time>2026-04-18T15:08:37.58Z</time></trkpt><trkpt lat="44.2090929" lon="7.9969838"><ele>706.5</ele><time>2026-04-18T15:08:38.58Z</time></trkpt><trkpt lat="44.2092053" lon="7.9970817"><ele>713.0</ele><time>2026-04-18T15:08:39.579Z</time></trkpt><trkpt lat="44.2093196" lon="7.9971756"><ele>719.5</ele><time>2026-04-18T15:08:40.58Z</time></trkpt><trkpt lat="44.2094118" lon="7.9973116"><ele>726.0</ele><time>2026-04-18T15:08:41.58Z</time></trkpt><trkpt lat="44.2094788" lon="7.9974598"><ele>724.75</ele><time>2026-04-18T15:08:42.579Z</time></trkpt><trkpt lat="44.2095583" lon="7.9976213"><ele>723.5</ele><time>2026-04-18T15:08:43.58Z</time></trkpt><trkpt lat="44.209559" lon="7.9978474"><ele>722.25</ele><time>2026-04-18T15:08:44.579Z</time></trkpt><trkpt lat="44.2095872" lon="7.9980373"><ele>721.0</ele><time>2026-04-18T15:08:45.58Z</time></trkpt><trkpt lat="44.2096057" lon="7.9982209"><ele>720.25</ele><time>2026-04-18T15:08:46.579Z</time></trkpt><trkpt lat="44.2096102" lon="7.9984313"><ele>719.5</ele><time>2026-04-18T15:08:47.579Z</time></trkpt><trkpt lat="44.209659" lon="7.9985968"><ele>718.75</ele><time>2026-04-18T15:08:48.58Z</time></trkpt><trkpt lat="44.2097381" lon="7.9987474"><ele>718.0</ele><time>2026-04-18T15:08:49.58Z</time></trkpt><trkpt lat="44.2098246" lon="7.9988603"><ele>725.0</ele><time>2026-04-18T15:08:50.58Z</time></trkpt><trkpt lat="44.2099112" lon="7.9989908"><ele>732.0</ele><time>2026-04-18T15:08:51.58Z</time></trkpt><trkpt lat="44.2100345" lon="7.9990857"><ele>739.0</ele><time>2026-04-18T15:08:52.579Z</time></trkpt><trkpt lat="44.2101557" lon="7.9992008"><ele>746.0</ele><time>2026-04-18T15:08:53.581Z</time></trkpt><trkpt lat="44.2102827" lon="7.999359"><ele>746.0</ele><time>2026-04-18T15:08:54.579Z</time></trkpt><trkpt lat="44.2103701" lon="7.999518"><ele>746.0</ele><time>2026-04-18T15:08:55.581Z</time></trkpt><trkpt lat="44.2104399" lon="7.9996721"><ele>746.0</ele><time>2026-04-18T15:08:56.58Z</time></trkpt><trkpt lat="44.2105019" lon="7.9998401"><ele>746.0</ele><time>2026-04-18T15:08:57.579Z</time></trkpt><trkpt lat="44.2105232" lon="7.9999729"><ele>746.0</ele><time>2026-04-18T15:08:58.579Z</time></trkpt><trkpt lat="44.2104819" lon="8.0001484"><ele>746.0</ele><time>2026-04-18T15:08:59.579Z</time></trkpt><trkpt lat="44.2103249" lon="8.0001923"><ele>746.0</ele><time>2026-04-18T15:09:00.579Z</time></trkpt><trkpt lat="44.2103229" lon="8.0002845"><ele>746.0</ele><time>2026-04-18T15:09:01.58Z</time></trkpt><trkpt lat="44.2103371" lon="8.000372"><ele>746.0</ele><time>2026-04-18T15:09:02.581Z</time></trkpt><trkpt lat="44.2104723" lon="8.0003054"><ele>746.0</ele><time>2026-04-18T15:09:04.581Z</time></trkpt><trkpt lat="44.2105857" lon="8.0001411"><ele>746.0</ele><time>2026-04-18T15:09:06.58Z</time></trkpt><trkpt lat="44.2106751" lon="8.000027"><ele>746.0</ele><time>2026-04-18T15:09:07.58Z</time></trkpt><trkpt lat="44.2107504" lon="7.9998883"><ele>746.0</ele><time>2026-04-18T15:09:08.581Z</time></trkpt><trkpt lat="44.2108131" lon="7.999732"><ele>751.1999999999999</ele><time>2026-04-18T15:09:09.579Z</time></trkpt><trkpt lat="44.2108757" lon="7.9995881"><ele>756.4</ele><time>2026-04-18T15:09:10.581Z</time></trkpt><trkpt lat="44.210896" lon="7.9994158"><ele>761.6</ele><time>2026-04-18T15:09:11.58Z</time></trkpt><trkpt lat="44.2108923" lon="7.9992697"><ele>766.8</ele><time>2026-04-18T15:09:12.58Z</time></trkpt><trkpt lat="44.2108949" lon="7.9991462"><ele>772.0</ele><time>2026-04-18T15:09:13.579Z</time></trkpt><trkpt lat="44.2109048" lon="7.9990529"><ele>772.0</ele><time>2026-04-18T15:09:14.579Z</time></trkpt><trkpt lat="44.2109867" lon="7.9990014"><ele>772.0</ele><time>2026-04-18T15:09:16.581Z</time></trkpt><trkpt lat="44.2111183" lon="7.9990859"><ele>772.0</ele><time>2026-04-18T15:09:18.58Z</time></trkpt><trkpt lat="44.2111119" lon="7.9992333"><ele>772.0</ele><time>2026-04-18T15:09:19.58Z</time></trkpt><trkpt lat="44.2111072" lon="7.9994101"><ele>772.0</ele><time>2026-04-18T15:09:20.58Z</time></trkpt><trkpt lat="44.2111281" lon="7.999584"><ele>772.0</ele><time>2026-04-18T15:09:21.58Z</time></trkpt><trkpt lat="44.211136" lon="7.9997639"><ele>772.0</ele><time>2026-04-18T15:09:22.58Z</time></trkpt><trkpt lat="44.2111263" lon="7.999944"><ele>772.0</ele><time>2026-04-18T15:09:23.58Z</time></trkpt><trkpt lat="44.2111006" lon="8.0001101"><ele>772.0</ele><time>2026-04-18T15:09:24.579Z</time></trkpt><trkpt lat="44.2110675" lon="8.000256"><ele>772.0</ele><time>2026-04-18T15:09:25.579Z</time></trkpt><trkpt lat="44.2110621" lon="8.0003566"><ele>772.0</ele><time>2026-04-18T15:09:26.579Z</time></trkpt><trkpt lat="44.211137" lon="8.0004391"><ele>772.0</ele><time>2026-04-18T15:09:28.579Z</time></trkpt><trkpt lat="44.2112022" lon="8.0003705"><ele>772.0</ele><time>2026-04-18T15:09:30.579Z</time></trkpt><trkpt lat="44.2112354" lon="8.0002488"><ele>772.0</ele><time>2026-04-18T15:09:31.581Z</time></trkpt><trkpt lat="44.211269" lon="8.0000875"><ele>772.0</ele><time>2026-04-18T15:09:32.579Z</time></trkpt><trkpt lat="44.2113103" lon="7.9999347"><ele>772.0</ele><time>2026-04-18T15:09:33.579Z</time></trkpt><trkpt lat="44.2113556" lon="7.9997766"><ele>772.0</ele><time>2026-04-18T15:09:34.579Z</time></trkpt><trkpt lat="44.2113909" lon="7.9995788"><ele>772.0</ele><time>2026-04-18T15:09:35.581Z</time></trkpt><trkpt lat="44.2114128" lon="7.9993947"><ele>772.0</ele><time>2026-04-18T15:09:36.581Z</time></trkpt><trkpt lat="44.2114121" lon="7.9991839"><ele>772.0</ele><time>2026-04-18T15:09:37.58Z</time></trkpt><trkpt lat="44.211406" lon="7.998968"><ele>772.0</ele><time>2026-04-18T15:09:38.58Z</time></trkpt><trkpt lat="44.2113877" lon="7.9987488"><ele>772.75</ele><time>2026-04-18T15:09:39.58Z</time></trkpt><trkpt lat="44.2113539" lon="7.9985246"><ele>773.5</ele><time>2026-04-18T15:09:40.58Z</time></trkpt><trkpt lat="44.2113127" lon="7.998321"><ele>774.25</ele><time>2026-04-18T15:09:41.58Z</time></trkpt><trkpt lat="44.2112617" lon="7.998159"><ele>775.0</ele><time>2026-04-18T15:09:42.58Z</time></trkpt><trkpt lat="44.2112282" lon="7.9980016"><ele>778.0</ele><time>2026-04-18T15:09:43.579Z</time></trkpt><trkpt lat="44.2111837" lon="7.9978697"><ele>781.0</ele><time>2026-04-18T15:09:44.579Z</time></trkpt><trkpt lat="44.2113267" lon="7.9977986"><ele>784.0</ele><time>2026-04-18T15:09:45.579Z</time></trkpt><trkpt lat="44.2113661" lon="7.9977199"><ele>787.0</ele><time>2026-04-18T15:09:46.581Z</time></trkpt><trkpt lat="44.2115271" lon="7.9976349"><ele>792.75</ele><time>2026-04-18T15:09:47.579Z</time></trkpt><trkpt lat="44.2116354" lon="7.9975653"><ele>798.5</ele><time>2026-04-18T15:09:48.581Z</time></trkpt><trkpt lat="44.2117611" lon="7.9974622"><ele>804.25</ele><time>2026-04-18T15:09:49.58Z</time></trkpt><trkpt lat="44.2118935" lon="7.9974001"><ele>810.0</ele><time>2026-04-18T15:09:50.579Z</time></trkpt><trkpt lat="44.2120069" lon="7.9973663"><ele>810.0</ele><time>2026-04-18T15:09:51.58Z</time></trkpt><trkpt lat="44.2121048" lon="7.997383"><ele>810.0</ele><time>2026-04-18T15:09:52.579Z</time></trkpt><trkpt lat="44.2121924" lon="7.9974489"><ele>810.0</ele><time>2026-04-18T15:09:53.579Z</time></trkpt><trkpt lat="44.2122934" lon="7.9975034"><ele>810.0</ele><time>2026-04-18T15:09:54.579Z</time></trkpt><trkpt lat="44.212423" lon="7.9975361"><ele>810.0</ele><time>2026-04-18T15:09:55.58Z</time></trkpt><trkpt lat="44.2125618" lon="7.9974893"><ele>814.0</ele><time>2026-04-18T15:09:56.579Z</time></trkpt><trkpt lat="44.2126875" lon="7.9974656"><ele>818.0</ele><time>2026-04-18T15:09:57.58Z</time></trkpt><trkpt lat="44.212807" lon="7.9973538"><ele>822.0</ele><time>2026-04-18T15:09:58.58Z</time></trkpt><trkpt lat="44.2129069" lon="7.9972159"><ele>826.0</ele><time>2026-04-18T15:09:59.579Z</time></trkpt><trkpt lat="44.2130087" lon="7.9971061"><ele>826.0</ele><time>2026-04-18T15:10:00.58Z</time></trkpt><trkpt lat="44.2131346" lon="7.9970094"><ele>826.0</ele><time>2026-04-18T15:10:01.58Z</time></trkpt><trkpt lat="44.2132433" lon="7.9969144"><ele>826.0</ele><time>2026-04-18T15:10:02.579Z</time></trkpt><trkpt lat="44.213342" lon="7.9968155"><ele>826.0</ele><time>2026-04-18T15:10:03.579Z</time></trkpt><trkpt lat="44.2134471" lon="7.9967693"><ele>831.25</ele><time>2026-04-18T15:10:04.579Z</time></trkpt><trkpt lat="44.2134597" lon="7.9969003"><ele>836.5</ele><time>2026-04-18T15:10:07.58Z</time></trkpt><trkpt lat="44.2134078" lon="7.9970389"><ele>841.75</ele><time>2026-04-18T15:10:09.579Z</time></trkpt><trkpt lat="44.2132588" lon="7.9971265"><ele>847.0</ele><time>2026-04-18T15:10:10.58Z</time></trkpt><trkpt lat="44.2131874" lon="7.9971831"><ele>846.9999999999999</ele><time>2026-04-18T15:10:11.58Z</time></trkpt><trkpt lat="44.2131396" lon="7.9972666"><ele>847.0</ele><time>2026-04-18T15:10:12.579Z</time></trkpt><trkpt lat="44.2132175" lon="7.9973038"><ele>847.0</ele><time>2026-04-18T15:10:13.581Z</time></trkpt><trkpt lat="44.2133314" lon="7.9972528"><ele>847.0</ele><time>2026-04-18T15:10:14.581Z</time></trkpt><trkpt lat="44.2133973" lon="7.9972412"><ele>846.9999999999999</ele><time>2026-04-18T15:10:15.581Z</time></trkpt><trkpt lat="44.2134849" lon="7.9971642"><ele>847.0</ele><time>2026-04-18T15:10:16.58Z</time></trkpt><trkpt lat="44.2136626" lon="7.9970234"><ele>847.0</ele><time>2026-04-18T15:10:17.579Z</time></trkpt><trkpt lat="44.2137757" lon="7.9969089"><ele>847.0</ele><time>2026-04-18T15:10:18.579Z</time></trkpt><trkpt lat="44.2139068" lon="7.9967895"><ele>847.0</ele><time>2026-04-18T15:10:19.58Z</time></trkpt><trkpt lat="44.214035" lon="7.9966459"><ele>848.3333333333333</ele><time>2026-04-18T15:10:20.581Z</time></trkpt><trkpt lat="44.2141621" lon="7.9964735"><ele>849.6666666666667</ele><time>2026-04-18T15:10:21.579Z</time></trkpt><trkpt lat="44.2142946" lon="7.9963101"><ele>851.0</ele><time>2026-04-18T15:10:22.58Z</time></trkpt><trkpt lat="44.2144006" lon="7.9961382"><ele>851.0</ele><time>2026-04-18T15:10:23.58Z</time></trkpt><trkpt lat="44.2144891" lon="7.9959941"><ele>851.0</ele><time>2026-04-18T15:10:24.58Z</time></trkpt><trkpt lat="44.2145636" lon="7.9958387"><ele>851.0</ele><time>2026-04-18T15:10:25.58Z</time></trkpt><trkpt lat="44.2146446" lon="7.9957307"><ele>851.0</ele><time>2026-04-18T15:10:26.581Z</time></trkpt><trkpt lat="44.2147449" lon="7.9956264"><ele>855.75</ele><time>2026-04-18T15:10:27.58Z</time></trkpt><trkpt lat="44.2148717" lon="7.9955716"><ele>860.5</ele><time>2026-04-18T15:10:28.58Z</time></trkpt><trkpt lat="44.2150056" lon="7.9955278"><ele>865.25</ele><time>2026-04-18T15:10:29.58Z</time></trkpt><trkpt lat="44.215145" lon="7.9955094"><ele>870.0</ele><time>2026-04-18T15:10:30.579Z</time></trkpt><trkpt lat="44.2152873" lon="7.9954813"><ele>870.0</ele><time>2026-04-18T15:10:31.579Z</time></trkpt><trkpt lat="44.2154254" lon="7.9954409"><ele>870.0</ele><time>2026-04-18T15:10:32.581Z</time></trkpt><trkpt lat="44.2155605" lon="7.9954014"><ele>870.0</ele><time>2026-04-18T15:10:33.58Z</time></trkpt><trkpt lat="44.2156725" lon="7.9953468"><ele>870.0</ele><time>2026-04-18T15:10:34.579Z</time></trkpt><trkpt lat="44.2158149" lon="7.9953417"><ele>870.0</ele><time>2026-04-18T15:10:36.58Z</time></trkpt><trkpt lat="44.2157321" lon="7.9955077"><ele>870.0</ele><time>2026-04-18T15:10:38.58Z</time></trkpt><trkpt lat="44.2156734" lon="7.995552"><ele>870.0</ele><time>2026-04-18T15:10:39.58Z</time></trkpt><trkpt lat="44.2156065" lon="7.9956208"><ele>870.0</ele><time>2026-04-18T15:10:40.58Z</time></trkpt><trkpt lat="44.2155516" lon="7.9957216"><ele>870.0</ele><time>2026-04-18T15:10:41.581Z</time></trkpt><trkpt lat="44.2154967" lon="7.9958539"><ele>872.25</ele><time>2026-04-18T15:10:42.58Z</time></trkpt><trkpt lat="44.2154256" lon="7.996004"><ele>874.5</ele><time>2026-04-18T15:10:43.579Z</time></trkpt><trkpt lat="44.2153452" lon="7.9961458"><ele>876.75</ele><time>2026-04-18T15:10:44.58Z</time></trkpt><trkpt lat="44.2152773" lon="7.996285"><ele>879.0</ele><time>2026-04-18T15:10:45.58Z</time></trkpt><trkpt lat="44.2151814" lon="7.9963557"><ele>879.0</ele><time>2026-04-18T15:10:46.579Z</time></trkpt><trkpt lat="44.2150999" lon="7.9964318"><ele>879.0000000000001</ele><time>2026-04-18T15:10:47.58Z</time></trkpt><trkpt lat="44.2151107" lon="7.9965318"><ele>879.0000000000001</ele><time>2026-04-18T15:10:48.579Z</time></trkpt><trkpt lat="44.2150841" lon="7.9966316"><ele>879.0</ele><time>2026-04-18T15:10:49.58Z</time></trkpt><trkpt lat="44.2151734" lon="7.9966069"><ele>879.0</ele><time>2026-04-18T15:10:50.58Z</time></trkpt><trkpt lat="44.2153382" lon="7.9965034"><ele>879.0</ele><time>2026-04-18T15:10:52.581Z</time></trkpt><trkpt lat="44.2154253" lon="7.9964453"><ele>879.0</ele><time>2026-04-18T15:10:53.579Z</time></trkpt><trkpt lat="44.2155333" lon="7.9963635"><ele>879.0</ele><time>2026-04-18T15:10:54.579Z</time></trkpt><trkpt lat="44.2156429" lon="7.9962702"><ele>879.0</ele><time>2026-04-18T15:10:55.58Z</time></trkpt><trkpt lat="44.2157434" lon="7.9961691"><ele>881.5</ele><time>2026-04-18T15:10:56.58Z</time></trkpt><trkpt lat="44.215864" lon="7.9960435"><ele>884.0</ele><time>2026-04-18T15:10:57.579Z</time></trkpt><trkpt lat="44.2159779" lon="7.9959561"><ele>886.5</ele><time>2026-04-18T15:10:58.581Z</time></trkpt><trkpt lat="44.2161236" lon="7.9958625"><ele>889.0</ele><time>2026-04-18T15:10:59.581Z</time></trkpt><trkpt lat="44.2162687" lon="7.9957617"><ele>889.0</ele><time>2026-04-18T15:11:00.58Z</time></trkpt><trkpt lat="44.2164152" lon="7.9956553"><ele>889.0</ele><time>2026-04-18T15:11:01.58Z</time></trkpt><trkpt lat="44.2165612" lon="7.9955493"><ele>889.0</ele><time>2026-04-18T15:11:02.579Z</time></trkpt><trkpt lat="44.2167288" lon="7.9954494"><ele>893.6666666666666</ele><time>2026-04-18T15:11:03.58Z</time></trkpt><trkpt lat="44.2168901" lon="7.9953724"><ele>898.3333333333333</ele><time>2026-04-18T15:11:04.581Z</time></trkpt><trkpt lat="44.2170574" lon="7.9952815"><ele>903.0</ele><time>2026-04-18T15:11:05.579Z</time></trkpt><trkpt lat="44.2172012" lon="7.9951849"><ele>902.0</ele><time>2026-04-18T15:11:06.581Z</time></trkpt><trkpt lat="44.2173568" lon="7.9950566"><ele>901.0</ele><time>2026-04-18T15:11:07.58Z</time></trkpt><trkpt lat="44.217507" lon="7.9949608"><ele>900.0</ele><time>2026-04-18T15:11:08.581Z</time></trkpt><trkpt lat="44.2176465" lon="7.994868"><ele>904.6666666666667</ele><time>2026-04-18T15:11:09.579Z</time></trkpt><trkpt lat="44.2177682" lon="7.9947584"><ele>909.3333333333334</ele><time>2026-04-18T15:11:10.579Z</time></trkpt><trkpt lat="44.2178984" lon="7.9946464"><ele>914.0</ele><time>2026-04-18T15:11:11.581Z</time></trkpt><trkpt lat="44.2180281" lon="7.9945281"><ele>914.0</ele><time>2026-04-18T15:11:12.581Z</time></trkpt><trkpt lat="44.2181041" lon="7.9943635"><ele>914.0</ele><time>2026-04-18T15:11:13.579Z</time></trkpt><trkpt lat="44.2182193" lon="7.9942242"><ele>914.0</ele><time>2026-04-18T15:11:14.579Z</time></trkpt><trkpt lat="44.218313" lon="7.9940759"><ele>914.0</ele><time>2026-04-18T15:11:15.579Z</time></trkpt><trkpt lat="44.2182713" lon="7.9939082"><ele>918.5</ele><time>2026-04-18T15:11:16.581Z</time></trkpt><trkpt lat="44.2182788" lon="7.9937259"><ele>923.0</ele><time>2026-04-18T15:11:17.58Z</time></trkpt><trkpt lat="44.2183027" lon="7.993542"><ele>927.5</ele><time>2026-04-18T15:11:18.58Z</time></trkpt><trkpt lat="44.218328" lon="7.9933505"><ele>932.0</ele><time>2026-04-18T15:11:19.579Z</time></trkpt><trkpt lat="44.218354" lon="7.9931744"><ele>932.0</ele><time>2026-04-18T15:11:20.579Z</time></trkpt><trkpt lat="44.218466" lon="7.9929975"><ele>932.0</ele><time>2026-04-18T15:11:21.579Z</time></trkpt><trkpt lat="44.2185414" lon="7.9928071"><ele>932.0</ele><time>2026-04-18T15:11:22.579Z</time></trkpt><trkpt lat="44.2186463" lon="7.9926168"><ele>930.6666666666667</ele><time>2026-04-18T15:11:23.58Z</time></trkpt><trkpt lat="44.2187266" lon="7.9924086"><ele>929.3333333333333</ele><time>2026-04-18T15:11:24.579Z</time></trkpt><trkpt lat="44.2187588" lon="7.9921841"><ele>928.0</ele><time>2026-04-18T15:11:25.581Z</time></trkpt><trkpt lat="44.2187831" lon="7.9920009"><ele>928.0</ele><time>2026-04-18T15:11:26.579Z</time></trkpt><trkpt lat="44.2187834" lon="7.9918337"><ele>928.0</ele><time>2026-04-18T15:11:27.58Z</time></trkpt><trkpt lat="44.2187961" lon="7.9916908"><ele>928.0</ele><time>2026-04-18T15:11:28.579Z</time></trkpt><trkpt lat="44.2188046" lon="7.9915495"><ele>928.0</ele><time>2026-04-18T15:11:29.58Z</time></trkpt><trkpt lat="44.2188471" lon="7.9914749"><ele>928.0</ele><time>2026-04-18T15:11:30.58Z</time></trkpt><trkpt lat="44.2189553" lon="7.9914758"><ele>928.6666666666666</ele><time>2026-04-18T15:11:32.58Z</time></trkpt><trkpt lat="44.2189752" lon="7.9915614"><ele>929.3333333333333</ele><time>2026-04-18T15:11:33.58Z</time></trkpt><trkpt lat="44.2190066" lon="7.9916515"><ele>930.0</ele><time>2026-04-18T15:11:34.58Z</time></trkpt><trkpt lat="44.2190295" lon="7.9917859"><ele>930.6666666666667</ele><time>2026-04-18T15:11:35.58Z</time></trkpt><trkpt lat="44.2190574" lon="7.9919049"><ele>931.3333333333334</ele><time>2026-04-18T15:11:36.58Z</time></trkpt><trkpt lat="44.2190531" lon="7.9920684"><ele>932.0</ele><time>2026-04-18T15:11:37.58Z</time></trkpt><trkpt lat="44.2191435" lon="7.9922471"><ele>945.5</ele><time>2026-04-18T15:11:38.579Z</time></trkpt><trkpt lat="44.2192056" lon="7.9924243"><ele>959.0</ele><time>2026-04-18T15:11:39.58Z</time></trkpt><trkpt lat="44.2193604" lon="7.992988"><ele>959.0000000000001</ele><time>2026-04-18T15:11:42.579Z</time></trkpt><trkpt lat="44.2193782" lon="7.9931463"><ele>959.0</ele><time>2026-04-18T15:11:43.58Z</time></trkpt><trkpt lat="44.2193832" lon="7.9932853"><ele>959.0</ele><time>2026-04-18T15:11:44.58Z</time></trkpt><trkpt lat="44.2194051" lon="7.9933816"><ele>959.0</ele><time>2026-04-18T15:11:45.58Z</time></trkpt><trkpt lat="44.2194911" lon="7.9934186"><ele>959.0000000000001</ele><time>2026-04-18T15:11:47.579Z</time></trkpt><trkpt lat="44.2195343" lon="7.9933528"><ele>959.0</ele><time>2026-04-18T15:11:48.579Z</time></trkpt><trkpt lat="44.2195655" lon="7.993253"><ele>959.0</ele><time>2026-04-18T15:11:49.58Z</time></trkpt><trkpt lat="44.2195804" lon="7.9931186"><ele>959.0</ele><time>2026-04-18T15:11:50.581Z</time></trkpt><trkpt lat="44.219612" lon="7.9929837"><ele>959.0</ele><time>2026-04-18T15:11:51.58Z</time></trkpt><trkpt lat="44.2196393" lon="7.9928124"><ele>959.0</ele><time>2026-04-18T15:11:52.58Z</time></trkpt><trkpt lat="44.2196578" lon="7.9926224"><ele>959.25</ele><time>2026-04-18T15:11:53.579Z</time></trkpt><trkpt lat="44.2196549" lon="7.9924266"><ele>959.5</ele><time>2026-04-18T15:11:54.579Z</time></trkpt><trkpt lat="44.2196433" lon="7.9922396"><ele>959.75</ele><time>2026-04-18T15:11:55.58Z</time></trkpt><trkpt lat="44.2196547" lon="7.9920583"><ele>960.0</ele><time>2026-04-18T15:11:56.579Z</time></trkpt><trkpt lat="44.2196906" lon="7.9918893"><ele>960.0</ele><time>2026-04-18T15:11:57.58Z</time></trkpt><trkpt lat="44.2197183" lon="7.9917188"><ele>960.0</ele><time>2026-04-18T15:11:58.579Z</time></trkpt><trkpt lat="44.2197679" lon="7.9915472"><ele>960.0</ele><time>2026-04-18T15:11:59.58Z</time></trkpt><trkpt lat="44.2197928" lon="7.9913699"><ele>960.0</ele><time>2026-04-18T15:12:00.579Z</time></trkpt><trkpt lat="44.2197537" lon="7.9911822"><ele>961.0</ele><time>2026-04-18T15:12:01.579Z</time></trkpt><trkpt lat="44.2197415" lon="7.9909871"><ele>962.0</ele><time>2026-04-18T15:12:02.579Z</time></trkpt><trkpt lat="44.219639" lon="7.9908873"><ele>963.0</ele><time>2026-04-18T15:12:03.579Z</time></trkpt><trkpt lat="44.2195807" lon="7.9907532"><ele>964.0</ele><time>2026-04-18T15:12:04.58Z</time></trkpt><trkpt lat="44.2195565" lon="7.9906049"><ele>967.0</ele><time>2026-04-18T15:12:05.579Z</time></trkpt><trkpt lat="44.2195458" lon="7.9904389"><ele>970.0</ele><time>2026-04-18T15:12:06.58Z</time></trkpt><trkpt lat="44.2195293" lon="7.9902754"><ele>973.0</ele><time>2026-04-18T15:12:07.579Z</time></trkpt><trkpt lat="44.2195309" lon="7.9901055"><ele>976.0</ele><time>2026-04-18T15:12:08.579Z</time></trkpt><trkpt lat="44.2195436" lon="7.9899309"><ele>978.5999999999999</ele><time>2026-04-18T15:12:09.58Z</time></trkpt><trkpt lat="44.2195469" lon="7.9897701"><ele>981.1999999999999</ele><time>2026-04-18T15:12:10.579Z</time></trkpt><trkpt lat="44.2196067" lon="7.9896428"><ele>983.8000000000001</ele><time>2026-04-18T15:12:11.579Z</time></trkpt><trkpt lat="44.2196382" lon="7.989504"><ele>986.4000000000001</ele><time>2026-04-18T15:12:12.579Z</time></trkpt><trkpt lat="44.2196957" lon="7.9894332"><ele>989.0</ele><time>2026-04-18T15:12:13.579Z</time></trkpt><trkpt lat="44.2197303" lon="7.9893278"><ele>989.0</ele><time>2026-04-18T15:12:14.581Z</time></trkpt><trkpt lat="44.2197716" lon="7.9892514"><ele>989.0000000000001</ele><time>2026-04-18T15:12:15.579Z</time></trkpt><trkpt lat="44.2198448" lon="7.989341"><ele>989.0000000000001</ele><time>2026-04-18T15:12:16.579Z</time></trkpt><trkpt lat="44.2198453" lon="7.989507"><ele>989.0</ele><time>2026-04-18T15:12:18.579Z</time></trkpt><trkpt lat="44.2198261" lon="7.9896229"><ele>989.0</ele><time>2026-04-18T15:12:19.58Z</time></trkpt><trkpt lat="44.2198073" lon="7.9897463"><ele>992.8000000000001</ele><time>2026-04-18T15:12:20.579Z</time></trkpt><trkpt lat="44.2198293" lon="7.9898769"><ele>996.6000000000001</ele><time>2026-04-18T15:12:21.579Z</time></trkpt><trkpt lat="44.2198473" lon="7.9900144"><ele>1000.4</ele><time>2026-04-18T15:12:22.579Z</time></trkpt><trkpt lat="44.2199557" lon="7.990102"><ele>1004.2</ele><time>2026-04-18T15:12:23.58Z</time></trkpt><trkpt lat="44.2199959" lon="7.9902079"><ele>1008.0</ele><time>2026-04-18T15:12:24.579Z</time></trkpt><trkpt lat="44.2200443" lon="7.9902845"><ele>1008.0</ele><time>2026-04-18T15:12:25.58Z</time></trkpt><trkpt lat="44.2201614" lon="7.990367"><ele>1008.0</ele><time>2026-04-18T15:12:27.579Z</time></trkpt><trkpt lat="44.220243" lon="7.9903063"><ele>1008.0</ele><time>2026-04-18T15:12:28.58Z</time></trkpt><trkpt lat="44.220254" lon="7.9900895"><ele>1008.0</ele><time>2026-04-18T15:12:29.579Z</time></trkpt><trkpt lat="44.2203009" lon="7.9899699"><ele>1010.25</ele><time>2026-04-18T15:12:30.579Z</time></trkpt><trkpt lat="44.2203676" lon="7.9898534"><ele>1012.5</ele><time>2026-04-18T15:12:31.579Z</time></trkpt><trkpt lat="44.2204327" lon="7.9896977"><ele>1014.75</ele><time>2026-04-18T15:12:32.58Z</time></trkpt><trkpt lat="44.2204979" lon="7.9895333"><ele>1017.0</ele><time>2026-04-18T15:12:33.579Z</time></trkpt><trkpt lat="44.2205634" lon="7.9893555"><ele>1015.3333333333333</ele><time>2026-04-18T15:12:34.58Z</time></trkpt><trkpt lat="44.2206257" lon="7.989165"><ele>1013.6666666666666</ele><time>2026-04-18T15:12:35.581Z</time></trkpt><trkpt lat="44.2206937" lon="7.9889772"><ele>1012.0</ele><time>2026-04-18T15:12:36.58Z</time></trkpt><trkpt lat="44.2207593" lon="7.9887865"><ele>1019.6666666666666</ele><time>2026-04-18T15:12:37.579Z</time></trkpt><trkpt lat="44.2208238" lon="7.988583"><ele>1027.3333333333333</ele><time>2026-04-18T15:12:38.58Z</time></trkpt><trkpt lat="44.2208755" lon="7.9883693"><ele>1035.0</ele><time>2026-04-18T15:12:39.58Z</time></trkpt><trkpt lat="44.2209018" lon="7.9881572"><ele>1035.0</ele><time>2026-04-18T15:12:40.58Z</time></trkpt><trkpt lat="44.220905" lon="7.9879516"><ele>1035.0</ele><time>2026-04-18T15:12:41.58Z</time></trkpt><trkpt lat="44.220911" lon="7.9877628"><ele>1035.0</ele><time>2026-04-18T15:12:42.581Z</time></trkpt><trkpt lat="44.220926" lon="7.9876174"><ele>1035.0</ele><time>2026-04-18T15:12:43.58Z</time></trkpt><trkpt lat="44.2209155" lon="7.9874528"><ele>1036.0</ele><time>2026-04-18T15:12:44.58Z</time></trkpt><trkpt lat="44.2208953" lon="7.9872899"><ele>1037.0</ele><time>2026-04-18T15:12:45.579Z</time></trkpt><trkpt lat="44.220818" lon="7.9871228"><ele>1038.0</ele><time>2026-04-18T15:12:46.579Z</time></trkpt><trkpt lat="44.2207733" lon="7.9869495"><ele>1039.0</ele><time>2026-04-18T15:12:47.579Z</time></trkpt><trkpt lat="44.2207551" lon="7.9868243"><ele>1040.25</ele><time>2026-04-18T15:12:48.579Z</time></trkpt><trkpt lat="44.2207313" lon="7.9866689"><ele>1041.5</ele><time>2026-04-18T15:12:49.58Z</time></trkpt><trkpt lat="44.2208367" lon="7.9865083"><ele>1042.75</ele><time>2026-04-18T15:12:50.58Z</time></trkpt><trkpt lat="44.2208837" lon="7.9863355"><ele>1044.0</ele><time>2026-04-18T15:12:51.579Z</time></trkpt><trkpt lat="44.2209004" lon="7.9861665"><ele>1044.0</ele><time>2026-04-18T15:12:52.58Z</time></trkpt><trkpt lat="44.2209439" lon="7.9859957"><ele>1044.0</ele><time>2026-04-18T15:12:53.579Z</time></trkpt><trkpt lat="44.2209926" lon="7.985821"><ele>1044.0</ele><time>2026-04-18T15:12:54.58Z</time></trkpt><trkpt lat="44.2210277" lon="7.9856308"><ele>1044.0</ele><time>2026-04-18T15:12:55.581Z</time></trkpt><trkpt lat="44.221071" lon="7.9854494"><ele>1044.0</ele><time>2026-04-18T15:12:56.579Z</time></trkpt><trkpt lat="44.2210944" lon="7.9852541"><ele>1044.0</ele><time>2026-04-18T15:12:57.581Z</time></trkpt><trkpt lat="44.2211241" lon="7.9850669"><ele>1044.0</ele><time>2026-04-18T15:12:58.579Z</time></trkpt><trkpt lat="44.2211347" lon="7.9848808"><ele>1044.0</ele><time>2026-04-18T15:12:59.58Z</time></trkpt><trkpt lat="44.2211188" lon="7.9847115"><ele>1044.0</ele><time>2026-04-18T15:13:00.58Z</time></trkpt><trkpt lat="44.2210894" lon="7.9845268"><ele>1044.0</ele><time>2026-04-18T15:13:01.579Z</time></trkpt><trkpt lat="44.2210106" lon="7.9843295"><ele>1044.0</ele><time>2026-04-18T15:13:02.579Z</time></trkpt><trkpt lat="44.2209539" lon="7.9841589"><ele>1044.0</ele><time>2026-04-18T15:13:03.579Z</time></trkpt><trkpt lat="44.2208756" lon="7.9839976"><ele>1047.0</ele><time>2026-04-18T15:13:04.579Z</time></trkpt><trkpt lat="44.2207983" lon="7.9838549"><ele>1050.0</ele><time>2026-04-18T15:13:05.579Z</time></trkpt><trkpt lat="44.2207295" lon="7.9836994"><ele>1053.0</ele><time>2026-04-18T15:13:06.58Z</time></trkpt><trkpt lat="44.2206681" lon="7.9835466"><ele>1056.0</ele><time>2026-04-18T15:13:07.58Z</time></trkpt><trkpt lat="44.2206216" lon="7.983387"><ele>1051.75</ele><time>2026-04-18T15:13:08.58Z</time></trkpt><trkpt lat="44.2206024" lon="7.983224"><ele>1047.5</ele><time>2026-04-18T15:13:09.581Z</time></trkpt><trkpt lat="44.2205901" lon="7.9830712"><ele>1043.25</ele><time>2026-04-18T15:13:10.58Z</time></trkpt><trkpt lat="44.220587" lon="7.982904"><ele>1039.0</ele><time>2026-04-18T15:13:11.579Z</time></trkpt><trkpt lat="44.2205694" lon="7.982738"><ele>1039.0</ele><time>2026-04-18T15:13:12.579Z</time></trkpt><trkpt lat="44.2205708" lon="7.9825781"><ele>1039.0</ele><time>2026-04-18T15:13:13.58Z</time></trkpt><trkpt lat="44.2205949" lon="7.9824114"><ele>1039.0</ele><time>2026-04-18T15:13:14.58Z</time></trkpt><trkpt lat="44.2206437" lon="7.9822464"><ele>1039.0</ele><time>2026-04-18T15:13:15.579Z</time></trkpt><trkpt lat="44.2206929" lon="7.9820812"><ele>1045.4</ele><time>2026-04-18T15:13:16.58Z</time></trkpt><trkpt lat="44.220744" lon="7.9819516"><ele>1051.8000000000002</ele><time>2026-04-18T15:13:17.579Z</time></trkpt><trkpt lat="44.2207725" lon="7.981815"><ele>1058.1999999999998</ele><time>2026-04-18T15:13:18.579Z</time></trkpt><trkpt lat="44.2207703" lon="7.9816871"><ele>1064.6</ele><time>2026-04-18T15:13:19.581Z</time></trkpt><trkpt lat="44.2207202" lon="7.9815512"><ele>1071.0</ele><time>2026-04-18T15:13:20.581Z</time></trkpt><trkpt lat="44.2206565" lon="7.9814227"><ele>1067.25</ele><time>2026-04-18T15:13:21.579Z</time></trkpt><trkpt lat="44.2205722" lon="7.9812918"><ele>1063.5</ele><time>2026-04-18T15:13:22.579Z</time></trkpt><trkpt lat="44.2205055" lon="7.98113"><ele>1059.75</ele><time>2026-04-18T15:13:23.579Z</time></trkpt><trkpt lat="44.2204285" lon="7.9809753"><ele>1056.0</ele><time>2026-04-18T15:13:24.579Z</time></trkpt><trkpt lat="44.220363" lon="7.9808014"><ele>1056.0</ele><time>2026-04-18T15:13:25.579Z</time></trkpt><trkpt lat="44.220314" lon="7.9806241"><ele>1056.0</ele><time>2026-04-18T15:13:26.579Z</time></trkpt><trkpt lat="44.2202792" lon="7.9804461"><ele>1056.0</ele><time>2026-04-18T15:13:27.58Z</time></trkpt><trkpt lat="44.2202643" lon="7.9802588"><ele>1056.0</ele><time>2026-04-18T15:13:28.581Z</time></trkpt><trkpt lat="44.2202658" lon="7.9800692"><ele>1057.6666666666667</ele><time>2026-04-18T15:13:29.58Z</time></trkpt><trkpt lat="44.2202681" lon="7.979882"><ele>1059.3333333333335</ele><time>2026-04-18T15:13:30.58Z</time></trkpt><trkpt lat="44.2203254" lon="7.9796634"><ele>1061.0</ele><time>2026-04-18T15:13:31.579Z</time></trkpt><trkpt lat="44.2203366" lon="7.9794369"><ele>1061.0</ele><time>2026-04-18T15:13:32.579Z</time></trkpt><trkpt lat="44.2203404" lon="7.9792285"><ele>1061.0</ele><time>2026-04-18T15:13:33.579Z</time></trkpt><trkpt lat="44.2203569" lon="7.9790386"><ele>1061.0</ele><time>2026-04-18T15:13:34.58Z</time></trkpt><trkpt lat="44.2203704" lon="7.9788595"><ele>1061.0</ele><time>2026-04-18T15:13:35.58Z</time></trkpt><trkpt lat="44.2203609" lon="7.9786999"><ele>1063.0</ele><time>2026-04-18T15:13:36.58Z</time></trkpt><trkpt lat="44.2203466" lon="7.978544"><ele>1065.0</ele><time>2026-04-18T15:13:37.581Z</time></trkpt><trkpt lat="44.2202844" lon="7.9784326"><ele>1067.0</ele><time>2026-04-18T15:13:38.581Z</time></trkpt><trkpt lat="44.2202257" lon="7.9783717"><ele>1069.0</ele><time>2026-04-18T15:13:39.58Z</time></trkpt><trkpt lat="44.2201418" lon="7.9783485"><ele>1071.0</ele><time>2026-04-18T15:13:40.579Z</time></trkpt><trkpt lat="44.2200407" lon="7.9783907"><ele>1071.0</ele><time>2026-04-18T15:13:41.581Z</time></trkpt><trkpt lat="44.2198474" lon="7.9783643"><ele>1071.0</ele><time>2026-04-18T15:13:42.579Z</time></trkpt><trkpt lat="44.2197467" lon="7.9783119"><ele>1071.0</ele><time>2026-04-18T15:13:43.579Z</time></trkpt><trkpt lat="44.219657" lon="7.9782295"><ele>1071.0</ele><time>2026-04-18T15:13:44.579Z</time></trkpt><trkpt lat="44.2195738" lon="7.978115"><ele>1071.0</ele><time>2026-04-18T15:13:45.58Z</time></trkpt><trkpt lat="44.2195044" lon="7.9779715"><ele>1071.0</ele><time>2026-04-18T15:13:46.58Z</time></trkpt><trkpt lat="44.2194262" lon="7.9778294"><ele>1071.0</ele><time>2026-04-18T15:13:47.581Z</time></trkpt><trkpt lat="44.2193469" lon="7.9776633"><ele>1071.0</ele><time>2026-04-18T15:13:48.579Z</time></trkpt><trkpt lat="44.2192818" lon="7.9775103"><ele>1075.0</ele><time>2026-04-18T15:13:49.58Z</time></trkpt><trkpt lat="44.2192161" lon="7.9773278"><ele>1079.0</ele><time>2026-04-18T15:13:50.58Z</time></trkpt><trkpt lat="44.2191512" lon="7.9771558"><ele>1083.0</ele><time>2026-04-18T15:13:51.58Z</time></trkpt><trkpt lat="44.2190864" lon="7.9770034"><ele>1087.0</ele><time>2026-04-18T15:13:52.58Z</time></trkpt><trkpt lat="44.2190445" lon="7.9768673"><ele>1087.0</ele><time>2026-04-18T15:13:53.579Z</time></trkpt><trkpt lat="44.2190283" lon="7.9767252"><ele>1087.0</ele><time>2026-04-18T15:13:54.579Z</time></trkpt><trkpt lat="44.2190168" lon="7.9765982"><ele>1087.0</ele><time>2026-04-18T15:13:55.58Z</time></trkpt><trkpt lat="44.2190594" lon="7.9764266"><ele>1087.0</ele><time>2026-04-18T15:13:56.579Z</time></trkpt><trkpt lat="44.2190896" lon="7.9762524"><ele>1087.25</ele><time>2026-04-18T15:13:57.58Z</time></trkpt><trkpt lat="44.2191248" lon="7.9760752"><ele>1087.5</ele><time>2026-04-18T15:13:58.58Z</time></trkpt><trkpt lat="44.2191624" lon="7.9758834"><ele>1087.75</ele><time>2026-04-18T15:13:59.58Z</time></trkpt><trkpt lat="44.2192052" lon="7.9756898"><ele>1088.0</ele><time>2026-04-18T15:14:00.579Z</time></trkpt><trkpt lat="44.2192621" lon="7.9755038"><ele>1087.5</ele><time>2026-04-18T15:14:01.58Z</time></trkpt><trkpt lat="44.2193236" lon="7.9753283"><ele>1087.0</ele><time>2026-04-18T15:14:02.581Z</time></trkpt><trkpt lat="44.2193819" lon="7.975155"><ele>1086.5</ele><time>2026-04-18T15:14:03.579Z</time></trkpt><trkpt lat="44.2194194" lon="7.974976"><ele>1086.0</ele><time>2026-04-18T15:14:04.58Z</time></trkpt><trkpt lat="44.219436" lon="7.9747959"><ele>1085.8</ele><time>2026-04-18T15:14:05.581Z</time></trkpt><trkpt lat="44.2194219" lon="7.9746429"><ele>1085.6</ele><time>2026-04-18T15:14:06.58Z</time></trkpt><trkpt lat="44.2194036" lon="7.9745072"><ele>1085.4</ele><time>2026-04-18T15:14:07.579Z</time></trkpt><trkpt lat="44.2194021" lon="7.9743738"><ele>1085.2</ele><time>2026-04-18T15:14:08.58Z</time></trkpt><trkpt lat="44.2195002" lon="7.9742992"><ele>1085.0</ele><time>2026-04-18T15:14:09.58Z</time></trkpt><trkpt lat="44.2195767" lon="7.9742223"><ele>1082.75</ele><time>2026-04-18T15:14:10.58Z</time></trkpt><trkpt lat="44.2196568" lon="7.9741376"><ele>1080.5</ele><time>2026-04-18T15:14:11.579Z</time></trkpt><trkpt lat="44.2197653" lon="7.9740557"><ele>1078.25</ele><time>2026-04-18T15:14:12.579Z</time></trkpt><trkpt lat="44.2198577" lon="7.9739359"><ele>1076.0</ele><time>2026-04-18T15:14:13.58Z</time></trkpt><trkpt lat="44.2199508" lon="7.973817"><ele>1079.75</ele><time>2026-04-18T15:14:14.579Z</time></trkpt><trkpt lat="44.220049" lon="7.9736899"><ele>1083.5</ele><time>2026-04-18T15:14:15.579Z</time></trkpt><trkpt lat="44.220088" lon="7.9735544"><ele>1087.25</ele><time>2026-04-18T15:14:16.58Z</time></trkpt><trkpt lat="44.2201114" lon="7.9733799"><ele>1091.0</ele><time>2026-04-18T15:14:17.579Z</time></trkpt><trkpt lat="44.2201532" lon="7.9732399"><ele>1091.0</ele><time>2026-04-18T15:14:18.579Z</time></trkpt><trkpt lat="44.2201916" lon="7.9731208"><ele>1091.0</ele><time>2026-04-18T15:14:19.58Z</time></trkpt><trkpt lat="44.2203344" lon="7.9731252"><ele>1091.0</ele><time>2026-04-18T15:14:20.58Z</time></trkpt><trkpt lat="44.2204159" lon="7.9730565"><ele>1091.0</ele><time>2026-04-18T15:14:21.58Z</time></trkpt><trkpt lat="44.2205265" lon="7.9729737"><ele>1091.0</ele><time>2026-04-18T15:14:22.58Z</time></trkpt><trkpt lat="44.2206361" lon="7.9728977"><ele>1091.0</ele><time>2026-04-18T15:14:23.58Z</time></trkpt><trkpt lat="44.2207313" lon="7.9728084"><ele>1091.0</ele><time>2026-04-18T15:14:24.58Z</time></trkpt><trkpt lat="44.2208259" lon="7.9726862"><ele>1091.0</ele><time>2026-04-18T15:14:25.581Z</time></trkpt><trkpt lat="44.2209159" lon="7.9725523"><ele>1096.3333333333335</ele><time>2026-04-18T15:14:26.58Z</time></trkpt><trkpt lat="44.2210065" lon="7.9723988"><ele>1101.6666666666667</ele><time>2026-04-18T15:14:27.579Z</time></trkpt><trkpt lat="44.2210609" lon="7.9721798"><ele>1107.0</ele><time>2026-04-18T15:14:28.58Z</time></trkpt><trkpt lat="44.221139" lon="7.9719981"><ele>1107.0</ele><time>2026-04-18T15:14:29.579Z</time></trkpt><trkpt lat="44.2212047" lon="7.9717964"><ele>1107.0</ele><time>2026-04-18T15:14:30.579Z</time></trkpt><trkpt lat="44.2212786" lon="7.9716169"><ele>1107.0</ele><time>2026-04-18T15:14:31.58Z</time></trkpt><trkpt lat="44.2213794" lon="7.9714629"><ele>1111.0</ele><time>2026-04-18T15:14:32.579Z</time></trkpt><trkpt lat="44.2215025" lon="7.9713428"><ele>1115.0</ele><time>2026-04-18T15:14:33.58Z</time></trkpt><trkpt lat="44.2216286" lon="7.9712129"><ele>1119.0</ele><time>2026-04-18T15:14:34.58Z</time></trkpt><trkpt lat="44.221739" lon="7.9710918"><ele>1123.0</ele><time>2026-04-18T15:14:35.58Z</time></trkpt><trkpt lat="44.2218308" lon="7.9709408"><ele>1119.75</ele><time>2026-04-18T15:14:36.58Z</time></trkpt><trkpt lat="44.2219022" lon="7.970799"><ele>1116.5</ele><time>2026-04-18T15:14:37.579Z</time></trkpt><trkpt lat="44.2219805" lon="7.9706669"><ele>1113.25</ele><time>2026-04-18T15:14:38.58Z</time></trkpt><trkpt lat="44.2220711" lon="7.9706048"><ele>1110.0</ele><time>2026-04-18T15:14:39.579Z</time></trkpt><trkpt lat="44.2221647" lon="7.9705422"><ele>1110.0</ele><time>2026-04-18T15:14:40.58Z</time></trkpt><trkpt lat="44.2222698" lon="7.9705019"><ele>1110.0</ele><time>2026-04-18T15:14:41.58Z</time></trkpt><trkpt lat="44.2223673" lon="7.9704537"><ele>1110.0</ele><time>2026-04-18T15:14:42.581Z</time></trkpt><trkpt lat="44.2224514" lon="7.9704049"><ele>1110.0</ele><time>2026-04-18T15:14:43.579Z</time></trkpt><trkpt lat="44.2225322" lon="7.970347"><ele>1110.0</ele><time>2026-04-18T15:14:44.581Z</time></trkpt><trkpt lat="44.2224883" lon="7.9702024"><ele>1110.25</ele><time>2026-04-18T15:14:45.581Z</time></trkpt><trkpt lat="44.2224463" lon="7.9700154"><ele>1110.5</ele><time>2026-04-18T15:14:47.58Z</time></trkpt><trkpt lat="44.2223996" lon="7.9699209"><ele>1110.75</ele><time>2026-04-18T15:14:48.579Z</time></trkpt><trkpt lat="44.2222646" lon="7.9698602"><ele>1111.0</ele><time>2026-04-18T15:14:49.581Z</time></trkpt><trkpt lat="44.2222083" lon="7.969734"><ele>1111.0</ele><time>2026-04-18T15:14:50.579Z</time></trkpt><trkpt lat="44.222172" lon="7.9696244"><ele>1111.0</ele><time>2026-04-18T15:14:51.579Z</time></trkpt><trkpt lat="44.2221645" lon="7.9694887"><ele>1111.0</ele><time>2026-04-18T15:14:52.58Z</time></trkpt><trkpt lat="44.2221689" lon="7.9693382"><ele>1111.0</ele><time>2026-04-18T15:14:53.58Z</time></trkpt><trkpt lat="44.2221694" lon="7.9691855"><ele>1111.0</ele><time>2026-04-18T15:14:54.58Z</time></trkpt><trkpt lat="44.2221688" lon="7.9690406"><ele>1113.8</ele><time>2026-04-18T15:14:55.579Z</time></trkpt><trkpt lat="44.2220946" lon="7.9689248"><ele>1116.6</ele><time>2026-04-18T15:14:56.581Z</time></trkpt><trkpt lat="44.2220322" lon="7.9688168"><ele>1119.4</ele><time>2026-04-18T15:14:57.579Z</time></trkpt><trkpt lat="44.2219292" lon="7.9687531"><ele>1122.2</ele><time>2026-04-18T15:14:58.581Z</time></trkpt><trkpt lat="44.2218339" lon="7.968701"><ele>1125.0</ele><time>2026-04-18T15:14:59.579Z</time></trkpt><trkpt lat="44.2217314" lon="7.9687044"><ele>1125.0</ele><time>2026-04-18T15:15:00.579Z</time></trkpt><trkpt lat="44.2215999" lon="7.9687312"><ele>1125.0</ele><time>2026-04-18T15:15:01.579Z</time></trkpt><trkpt lat="44.2214658" lon="7.9687143"><ele>1125.0</ele><time>2026-04-18T15:15:02.58Z</time></trkpt><trkpt lat="44.2213275" lon="7.9686486"><ele>1125.0</ele><time>2026-04-18T15:15:03.581Z</time></trkpt><trkpt lat="44.2212077" lon="7.9685743"><ele>1122.75</ele><time>2026-04-18T15:15:04.58Z</time></trkpt><trkpt lat="44.221112" lon="7.9684092"><ele>1120.5</ele><time>2026-04-18T15:15:05.58Z</time></trkpt><trkpt lat="44.2210094" lon="7.96831"><ele>1118.25</ele><time>2026-04-18T15:15:06.58Z</time></trkpt><trkpt lat="44.2209069" lon="7.9682229"><ele>1116.0</ele><time>2026-04-18T15:15:07.579Z</time></trkpt><trkpt lat="44.2208105" lon="7.9681525"><ele>1118.0</ele><time>2026-04-18T15:15:08.58Z</time></trkpt><trkpt lat="44.2207037" lon="7.9681257"><ele>1120.0</ele><time>2026-04-18T15:15:09.58Z</time></trkpt><trkpt lat="44.2206062" lon="7.9681059"><ele>1122.0</ele><time>2026-04-18T15:15:10.58Z</time></trkpt><trkpt lat="44.2204812" lon="7.9680755"><ele>1124.0</ele><time>2026-04-18T15:15:11.579Z</time></trkpt><trkpt lat="44.220366" lon="7.9680091"><ele>1124.0</ele><time>2026-04-18T15:15:12.579Z</time></trkpt><trkpt lat="44.2202554" lon="7.9678928"><ele>1124.0</ele><time>2026-04-18T15:15:13.58Z</time></trkpt><trkpt lat="44.2201566" lon="7.967758"><ele>1124.0</ele><time>2026-04-18T15:15:14.58Z</time></trkpt><trkpt lat="44.2200747" lon="7.9675914"><ele>1124.0</ele><time>2026-04-18T15:15:15.579Z</time></trkpt><trkpt lat="44.2199843" lon="7.9674413"><ele>1128.25</ele><time>2026-04-18T15:15:16.579Z</time></trkpt><trkpt lat="44.219906" lon="7.9672609"><ele>1132.5</ele><time>2026-04-18T15:15:17.58Z</time></trkpt><trkpt lat="44.2198289" lon="7.9671125"><ele>1136.75</ele><time>2026-04-18T15:15:18.58Z</time></trkpt><trkpt lat="44.2197441" lon="7.9669854"><ele>1141.0</ele><time>2026-04-18T15:15:19.579Z</time></trkpt><trkpt lat="44.2196476" lon="7.9668965"><ele>1141.0</ele><time>2026-04-18T15:15:20.579Z</time></trkpt><trkpt lat="44.2195589" lon="7.9668472"><ele>1141.0</ele><time>2026-04-18T15:15:21.579Z</time></trkpt><trkpt lat="44.2194588" lon="7.9668125"><ele>1141.0</ele><time>2026-04-18T15:15:22.579Z</time></trkpt><trkpt lat="44.219333" lon="7.9668784"><ele>1141.0</ele><time>2026-04-18T15:15:23.58Z</time></trkpt><trkpt lat="44.219198" lon="7.9669937"><ele>1141.0</ele><time>2026-04-18T15:15:24.581Z</time></trkpt><trkpt lat="44.2190733" lon="7.9671001"><ele>1141.0</ele><time>2026-04-18T15:15:25.58Z</time></trkpt><trkpt lat="44.2189445" lon="7.9671909"><ele>1141.0</ele><time>2026-04-18T15:15:26.579Z</time></trkpt><trkpt lat="44.2188092" lon="7.9672459"><ele>1141.0</ele><time>2026-04-18T15:15:27.58Z</time></trkpt><trkpt lat="44.2186591" lon="7.9672812"><ele>1143.0</ele><time>2026-04-18T15:15:28.579Z</time></trkpt><trkpt lat="44.2185068" lon="7.9673193"><ele>1145.0</ele><time>2026-04-18T15:15:29.579Z</time></trkpt><trkpt lat="44.2183605" lon="7.9673448"><ele>1147.0</ele><time>2026-04-18T15:15:30.579Z</time></trkpt><trkpt lat="44.2182331" lon="7.9674637"><ele>1148.5</ele><time>2026-04-18T15:15:31.579Z</time></trkpt><trkpt lat="44.2181113" lon="7.9675242"><ele>1150.0</ele><time>2026-04-18T15:15:32.579Z</time></trkpt><trkpt lat="44.2180032" lon="7.9675506"><ele>1151.5</ele><time>2026-04-18T15:15:33.58Z</time></trkpt><trkpt lat="44.2178989" lon="7.9675315"><ele>1153.0</ele><time>2026-04-18T15:15:34.58Z</time></trkpt><trkpt lat="44.2177834" lon="7.9675479"><ele>1153.0</ele><time>2026-04-18T15:15:35.579Z</time></trkpt><trkpt lat="44.2177087" lon="7.9675247"><ele>1153.0</ele><time>2026-04-18T15:15:37.581Z</time></trkpt><trkpt lat="44.2176567" lon="7.9674448"><ele>1153.0</ele><time>2026-04-18T15:15:40.579Z</time></trkpt><trkpt lat="44.2177276" lon="7.9674554"><ele>1153.0</ele><time>2026-04-18T15:15:42.58Z</time></trkpt><trkpt lat="44.2178437" lon="7.9674476"><ele>1153.0</ele><time>2026-04-18T15:15:44.58Z</time></trkpt><trkpt lat="44.2179384" lon="7.9674218"><ele>1153.0</ele><time>2026-04-18T15:15:45.579Z</time></trkpt><trkpt lat="44.2180314" lon="7.9673703"><ele>1153.0</ele><time>2026-04-18T15:15:46.579Z</time></trkpt><trkpt lat="44.2181209" lon="7.9672615"><ele>1153.0</ele><time>2026-04-18T15:15:47.581Z</time></trkpt><trkpt lat="44.2182131" lon="7.9671747"><ele>1153.0</ele><time>2026-04-18T15:15:48.579Z</time></trkpt><trkpt lat="44.2183122" lon="7.9670883"><ele>1153.0</ele><time>2026-04-18T15:15:49.58Z</time></trkpt><trkpt lat="44.218438" lon="7.9670765"><ele>1152.0</ele><time>2026-04-18T15:15:50.579Z</time></trkpt><trkpt lat="44.2185401" lon="7.9670877"><ele>1151.0</ele><time>2026-04-18T15:15:51.581Z</time></trkpt><trkpt lat="44.2186406" lon="7.9671083"><ele>1150.0</ele><time>2026-04-18T15:15:52.579Z</time></trkpt><trkpt lat="44.2187122" lon="7.9670961"><ele>1149.0</ele><time>2026-04-18T15:15:53.58Z</time></trkpt><trkpt lat="44.2187876" lon="7.9670304"><ele>1148.0</ele><time>2026-04-18T15:15:54.579Z</time></trkpt><trkpt lat="44.2188117" lon="7.9669397"><ele>1147.0</ele><time>2026-04-18T15:15:55.58Z</time></trkpt><trkpt lat="44.2187773" lon="7.9668653"><ele>1147.0</ele><time>2026-04-18T15:15:56.579Z</time></trkpt><trkpt lat="44.2187411" lon="7.9667853"><ele>1147.0</ele><time>2026-04-18T15:15:57.581Z</time></trkpt><trkpt lat="44.2186698" lon="7.9666971"><ele>1147.0</ele><time>2026-04-18T15:15:58.58Z</time></trkpt><trkpt lat="44.2185144" lon="7.966779"><ele>1147.0</ele><time>2026-04-18T15:15:59.581Z</time></trkpt><trkpt lat="44.2183291" lon="7.9668862"><ele>1147.0</ele><time>2026-04-18T15:16:00.579Z</time></trkpt><trkpt lat="44.2181829" lon="7.9669292"><ele>1147.0</ele><time>2026-04-18T15:16:01.579Z</time></trkpt><trkpt lat="44.2180169" lon="7.9669743"><ele>1147.0</ele><time>2026-04-18T15:16:02.579Z</time></trkpt><trkpt lat="44.2178491" lon="7.9669855"><ele>1148.5</ele><time>2026-04-18T15:16:03.579Z</time></trkpt><trkpt lat="44.2176981" lon="7.9669429"><ele>1150.0</ele><time>2026-04-18T15:16:04.579Z</time></trkpt><trkpt lat="44.2175783" lon="7.9668403"><ele>1151.5</ele><time>2026-04-18T15:16:05.581Z</time></trkpt><trkpt lat="44.2174652" lon="7.9667248"><ele>1153.0</ele><time>2026-04-18T15:16:06.58Z</time></trkpt><trkpt lat="44.2173464" lon="7.9665984"><ele>1157.6666666666665</ele><time>2026-04-18T15:16:07.581Z</time></trkpt><trkpt lat="44.2172229" lon="7.9664374"><ele>1162.3333333333333</ele><time>2026-04-18T15:16:08.58Z</time></trkpt><trkpt lat="44.2170858" lon="7.9662966"><ele>1167.0</ele><time>2026-04-18T15:16:09.579Z</time></trkpt><trkpt lat="44.2169253" lon="7.9661914"><ele>1167.0</ele><time>2026-04-18T15:16:10.579Z</time></trkpt><trkpt lat="44.2167807" lon="7.9660846"><ele>1167.0</ele><time>2026-04-18T15:16:11.579Z</time></trkpt><trkpt lat="44.2166363" lon="7.9659488"><ele>1167.0</ele><time>2026-04-18T15:16:12.579Z</time></trkpt><trkpt lat="44.2165271" lon="7.965762"><ele>1168.3333333333333</ele><time>2026-04-18T15:16:13.58Z</time></trkpt><trkpt lat="44.2164047" lon="7.9655999"><ele>1169.6666666666665</ele><time>2026-04-18T15:16:14.579Z</time></trkpt><trkpt lat="44.2162771" lon="7.9654243"><ele>1171.0</ele><time>2026-04-18T15:16:15.579Z</time></trkpt><trkpt lat="44.2161581" lon="7.9652522"><ele>1171.0</ele><time>2026-04-18T15:16:16.58Z</time></trkpt><trkpt lat="44.2160459" lon="7.965091"><ele>1171.0</ele><time>2026-04-18T15:16:17.58Z</time></trkpt><trkpt lat="44.2159302" lon="7.9649629"><ele>1171.0</ele><time>2026-04-18T15:16:18.579Z</time></trkpt><trkpt lat="44.2157021" lon="7.9649898"><ele>1169.3333333333333</ele><time>2026-04-18T15:16:19.58Z</time></trkpt><trkpt lat="44.2155191" lon="7.9650224"><ele>1167.6666666666667</ele><time>2026-04-18T15:16:20.58Z</time></trkpt><trkpt lat="44.2153384" lon="7.965075"><ele>1166.0</ele><time>2026-04-18T15:16:21.579Z</time></trkpt><trkpt lat="44.215198" lon="7.965083"><ele>1166.0</ele><time>2026-04-18T15:16:22.579Z</time></trkpt><trkpt lat="44.215066" lon="7.9650786"><ele>1166.0</ele><time>2026-04-18T15:16:23.579Z</time></trkpt><trkpt lat="44.2149342" lon="7.9650159"><ele>1166.0</ele><time>2026-04-18T15:16:24.581Z</time></trkpt><trkpt lat="44.2148271" lon="7.9649041"><ele>1166.0</ele><time>2026-04-18T15:16:25.581Z</time></trkpt><trkpt lat="44.2147191" lon="7.964812"><ele>1164.3333333333335</ele><time>2026-04-18T15:16:26.579Z</time></trkpt><trkpt lat="44.2146686" lon="7.9646778"><ele>1162.6666666666667</ele><time>2026-04-18T15:16:27.579Z</time></trkpt><trkpt lat="44.2146139" lon="7.9645222"><ele>1161.0</ele><time>2026-04-18T15:16:28.579Z</time></trkpt><trkpt lat="44.2147421" lon="7.9642568"><ele>1163.0</ele><time>2026-04-18T15:16:29.58Z</time></trkpt><trkpt lat="44.2147706" lon="7.9640364"><ele>1165.0</ele><time>2026-04-18T15:16:30.58Z</time></trkpt><trkpt lat="44.2147448" lon="7.9637924"><ele>1167.0</ele><time>2026-04-18T15:16:31.58Z</time></trkpt><trkpt lat="44.2147291" lon="7.9635566"><ele>1171.0</ele><time>2026-04-18T15:16:32.58Z</time></trkpt><trkpt lat="44.214717" lon="7.9633291"><ele>1175.0</ele><time>2026-04-18T15:16:33.58Z</time></trkpt><trkpt lat="44.2147033" lon="7.9630988"><ele>1179.0</ele><time>2026-04-18T15:16:34.58Z</time></trkpt><trkpt lat="44.2146883" lon="7.9628577"><ele>1179.0</ele><time>2026-04-18T15:16:35.581Z</time></trkpt><trkpt lat="44.2146837" lon="7.9626237"><ele>1179.0</ele><time>2026-04-18T15:16:36.58Z</time></trkpt><trkpt lat="44.2146968" lon="7.9623905"><ele>1179.0</ele><time>2026-04-18T15:16:37.579Z</time></trkpt><trkpt lat="44.2147025" lon="7.9621469"><ele>1180.3333333333333</ele><time>2026-04-18T15:16:38.581Z</time></trkpt><trkpt lat="44.2147011" lon="7.9619072"><ele>1181.6666666666665</ele><time>2026-04-18T15:16:39.58Z</time></trkpt><trkpt lat="44.2146922" lon="7.9616664"><ele>1183.0</ele><time>2026-04-18T15:16:40.58Z</time></trkpt><trkpt lat="44.2146939" lon="7.9614152"><ele>1184.3333333333333</ele><time>2026-04-18T15:16:41.58Z</time></trkpt><trkpt lat="44.2146689" lon="7.9611624"><ele>1185.6666666666667</ele><time>2026-04-18T15:16:42.579Z</time></trkpt><trkpt lat="44.2146148" lon="7.9609315"><ele>1187.0</ele><time>2026-04-18T15:16:43.579Z</time></trkpt><trkpt lat="44.2145697" lon="7.9607146"><ele>1192.6666666666667</ele><time>2026-04-18T15:16:44.58Z</time></trkpt><trkpt lat="44.214516" lon="7.9604583"><ele>1198.3333333333333</ele><time>2026-04-18T15:16:45.581Z</time></trkpt><trkpt lat="44.2143471" lon="7.9603543"><ele>1204.0</ele><time>2026-04-18T15:16:46.58Z</time></trkpt><trkpt lat="44.214238" lon="7.9602435"><ele>1204.0</ele><time>2026-04-18T15:16:47.58Z</time></trkpt><trkpt lat="44.2141405" lon="7.9601087"><ele>1204.0</ele><time>2026-04-18T15:16:48.579Z</time></trkpt><trkpt lat="44.2140679" lon="7.9599582"><ele>1204.0</ele><time>2026-04-18T15:16:49.581Z</time></trkpt><trkpt lat="44.2140441" lon="7.9597808"><ele>1204.0</ele><time>2026-04-18T15:16:50.579Z</time></trkpt><trkpt lat="44.2140685" lon="7.959586"><ele>1209.6666666666665</ele><time>2026-04-18T15:16:51.581Z</time></trkpt><trkpt lat="44.2141066" lon="7.9593875"><ele>1215.3333333333333</ele><time>2026-04-18T15:16:52.579Z</time></trkpt><trkpt lat="44.2141606" lon="7.9591753"><ele>1221.0</ele><time>2026-04-18T15:16:53.58Z</time></trkpt><trkpt lat="44.2142247" lon="7.9589653"><ele>1222.6666666666667</ele><time>2026-04-18T15:16:54.58Z</time></trkpt><trkpt lat="44.2142921" lon="7.9587604"><ele>1224.3333333333335</ele><time>2026-04-18T15:16:55.579Z</time></trkpt><trkpt lat="44.2143635" lon="7.9585432"><ele>1226.0</ele><time>2026-04-18T15:16:56.58Z</time></trkpt><trkpt lat="44.2144385" lon="7.9583283"><ele>1226.0</ele><time>2026-04-18T15:16:57.58Z</time></trkpt><trkpt lat="44.2145165" lon="7.9581155"><ele>1226.0</ele><time>2026-04-18T15:16:58.579Z</time></trkpt><trkpt lat="44.2145985" lon="7.9579305"><ele>1226.0</ele><time>2026-04-18T15:16:59.58Z</time></trkpt><trkpt lat="44.2146761" lon="7.9577667"><ele>1226.0</ele><time>2026-04-18T15:17:00.58Z</time></trkpt><trkpt lat="44.2147467" lon="7.9576274"><ele>1226.0</ele><time>2026-04-18T15:17:01.579Z</time></trkpt><trkpt lat="44.2147916" lon="7.9574808"><ele>1226.0</ele><time>2026-04-18T15:17:02.58Z</time></trkpt><trkpt lat="44.2147776" lon="7.9573279"><ele>1226.0</ele><time>2026-04-18T15:17:03.58Z</time></trkpt><trkpt lat="44.21473" lon="7.9571948"><ele>1227.75</ele><time>2026-04-18T15:17:04.579Z</time></trkpt><trkpt lat="44.2146265" lon="7.9570966"><ele>1229.5</ele><time>2026-04-18T15:17:05.581Z</time></trkpt><trkpt lat="44.2145389" lon="7.9569877"><ele>1231.25</ele><time>2026-04-18T15:17:06.579Z</time></trkpt><trkpt lat="44.2143765" lon="7.9570007"><ele>1233.0</ele><time>2026-04-18T15:17:07.579Z</time></trkpt><trkpt lat="44.2142465" lon="7.9569976"><ele>1233.0</ele><time>2026-04-18T15:17:08.58Z</time></trkpt><trkpt lat="44.214134" lon="7.9569592"><ele>1233.0</ele><time>2026-04-18T15:17:09.579Z</time></trkpt><trkpt lat="44.2140433" lon="7.9568609"><ele>1233.0</ele><time>2026-04-18T15:17:10.579Z</time></trkpt><trkpt lat="44.2140041" lon="7.9567367"><ele>1233.0</ele><time>2026-04-18T15:17:11.58Z</time></trkpt><trkpt lat="44.2140108" lon="7.9566014"><ele>1233.0</ele><time>2026-04-18T15:17:12.581Z</time></trkpt><trkpt lat="44.2140681" lon="7.9564707"><ele>1235.75</ele><time>2026-04-18T15:17:13.579Z</time></trkpt><trkpt lat="44.2141301" lon="7.9563356"><ele>1238.5</ele><time>2026-04-18T15:17:14.579Z</time></trkpt><trkpt lat="44.2142042" lon="7.9561727"><ele>1241.25</ele><time>2026-04-18T15:17:15.58Z</time></trkpt><trkpt lat="44.2142682" lon="7.9559951"><ele>1244.0</ele><time>2026-04-18T15:17:16.579Z</time></trkpt><trkpt lat="44.2143302" lon="7.9558177"><ele>1244.0</ele><time>2026-04-18T15:17:17.58Z</time></trkpt><trkpt lat="44.2143687" lon="7.955592"><ele>1244.0</ele><time>2026-04-18T15:17:18.579Z</time></trkpt><trkpt lat="44.2144087" lon="7.9553616"><ele>1244.0</ele><time>2026-04-18T15:17:19.579Z</time></trkpt><trkpt lat="44.2144373" lon="7.9551192"><ele>1242.0</ele><time>2026-04-18T15:17:20.581Z</time></trkpt><trkpt lat="44.2144621" lon="7.9548843"><ele>1240.0</ele><time>2026-04-18T15:17:21.58Z</time></trkpt><trkpt lat="44.2144953" lon="7.9546405"><ele>1238.0</ele><time>2026-04-18T15:17:22.58Z</time></trkpt><trkpt lat="44.2145518" lon="7.9544052"><ele>1238.6666666666667</ele><time>2026-04-18T15:17:23.581Z</time></trkpt><trkpt lat="44.2146138" lon="7.9541589"><ele>1239.3333333333333</ele><time>2026-04-18T15:17:24.581Z</time></trkpt><trkpt lat="44.2146762" lon="7.9538966"><ele>1240.0</ele><time>2026-04-18T15:17:25.581Z</time></trkpt><trkpt lat="44.2147378" lon="7.953639"><ele>1237.6666666666665</ele><time>2026-04-18T15:17:26.58Z</time></trkpt><trkpt lat="44.2147845" lon="7.9533684"><ele>1235.3333333333333</ele><time>2026-04-18T15:17:27.58Z</time></trkpt><trkpt lat="44.2148221" lon="7.9530882"><ele>1233.0</ele><time>2026-04-18T15:17:28.582Z</time></trkpt><trkpt lat="44.2148531" lon="7.9527996"><ele>1246.3333333333333</ele><time>2026-04-18T15:17:29.581Z</time></trkpt><trkpt lat="44.2148859" lon="7.9525211"><ele>1259.6666666666665</ele><time>2026-04-18T15:17:30.58Z</time></trkpt><trkpt lat="44.2149143" lon="7.9522321"><ele>1273.0</ele><time>2026-04-18T15:17:31.58Z</time></trkpt><trkpt lat="44.2149545" lon="7.9519593"><ele>1273.0</ele><time>2026-04-18T15:17:32.58Z</time></trkpt><trkpt lat="44.2150106" lon="7.951715"><ele>1273.0</ele><time>2026-04-18T15:17:33.58Z</time></trkpt><trkpt lat="44.215081" lon="7.9515098"><ele>1273.0</ele><time>2026-04-18T15:17:34.58Z</time></trkpt><trkpt lat="44.2151385" lon="7.9513124"><ele>1273.5</ele><time>2026-04-18T15:17:35.581Z</time></trkpt><trkpt lat="44.2151679" lon="7.9511422"><ele>1274.0</ele><time>2026-04-18T15:17:36.58Z</time></trkpt><trkpt lat="44.2151454" lon="7.9509841"><ele>1274.5</ele><time>2026-04-18T15:17:37.582Z</time></trkpt><trkpt lat="44.2151406" lon="7.95083"><ele>1275.0</ele><time>2026-04-18T15:17:38.58Z</time></trkpt><trkpt lat="44.2149965" lon="7.9507956"><ele>1277.25</ele><time>2026-04-18T15:17:39.58Z</time></trkpt><trkpt lat="44.2148979" lon="7.9507281"><ele>1279.5</ele><time>2026-04-18T15:17:40.582Z</time></trkpt><trkpt lat="44.2147176" lon="7.9507561"><ele>1281.75</ele><time>2026-04-18T15:17:41.58Z</time></trkpt><trkpt lat="44.2145634" lon="7.9507377"><ele>1284.0</ele><time>2026-04-18T15:17:42.58Z</time></trkpt><trkpt lat="44.2143956" lon="7.950786"><ele>1284.0</ele><time>2026-04-18T15:17:43.581Z</time></trkpt><trkpt lat="44.21422" lon="7.9508327"><ele>1284.0</ele><time>2026-04-18T15:17:44.58Z</time></trkpt><trkpt lat="44.2140418" lon="7.9508779"><ele>1284.0</ele><time>2026-04-18T15:17:45.58Z</time></trkpt><trkpt lat="44.2138631" lon="7.9509352"><ele>1278.0</ele><time>2026-04-18T15:17:46.581Z</time></trkpt><trkpt lat="44.2136769" lon="7.9509818"><ele>1272.0</ele><time>2026-04-18T15:17:47.582Z</time></trkpt><trkpt lat="44.2134939" lon="7.9510347"><ele>1266.0</ele><time>2026-04-18T15:17:48.58Z</time></trkpt><trkpt lat="44.2132974" lon="7.9510881"><ele>1270.3333333333333</ele><time>2026-04-18T15:17:49.581Z</time></trkpt><trkpt lat="44.2130757" lon="7.9511332"><ele>1274.6666666666665</ele><time>2026-04-18T15:17:50.582Z</time></trkpt><trkpt lat="44.2128853" lon="7.9511832"><ele>1279.0</ele><time>2026-04-18T15:17:51.58Z</time></trkpt><trkpt lat="44.212707" lon="7.951229"><ele>1279.0</ele><time>2026-04-18T15:17:52.582Z</time></trkpt><trkpt lat="44.2125302" lon="7.9512603"><ele>1279.0</ele><time>2026-04-18T15:17:53.58Z</time></trkpt><trkpt lat="44.2123451" lon="7.9512851"><ele>1279.0</ele><time>2026-04-18T15:17:54.581Z</time></trkpt><trkpt lat="44.2121813" lon="7.9512068"><ele>1278.3333333333333</ele><time>2026-04-18T15:17:55.58Z</time></trkpt><trkpt lat="44.212019" lon="7.9511493"><ele>1277.6666666666667</ele><time>2026-04-18T15:17:56.581Z</time></trkpt><trkpt lat="44.2118647" lon="7.9510355"><ele>1277.0</ele><time>2026-04-18T15:17:57.581Z</time></trkpt><trkpt lat="44.2117012" lon="7.9509232"><ele>1278.6666666666667</ele><time>2026-04-18T15:17:58.581Z</time></trkpt><trkpt lat="44.2115426" lon="7.9508037"><ele>1280.3333333333333</ele><time>2026-04-18T15:17:59.58Z</time></trkpt><trkpt lat="44.2113842" lon="7.9506697"><ele>1282.0</ele><time>2026-04-18T15:18:00.582Z</time></trkpt><trkpt lat="44.2112298" lon="7.9505525"><ele>1282.0</ele><time>2026-04-18T15:18:01.58Z</time></trkpt><trkpt lat="44.2110804" lon="7.9503649"><ele>1282.0</ele><time>2026-04-18T15:18:02.581Z</time></trkpt><trkpt lat="44.2110105" lon="7.9501471"><ele>1282.0</ele><time>2026-04-18T15:18:03.582Z</time></trkpt><trkpt lat="44.2109205" lon="7.9499545"><ele>1289.0</ele><time>2026-04-18T15:18:04.58Z</time></trkpt><trkpt lat="44.2108549" lon="7.9497222"><ele>1296.0</ele><time>2026-04-18T15:18:05.582Z</time></trkpt><trkpt lat="44.2107785" lon="7.9495117"><ele>1303.0</ele><time>2026-04-18T15:18:06.58Z</time></trkpt><trkpt lat="44.2107031" lon="7.9493092"><ele>1304.3333333333333</ele><time>2026-04-18T15:18:07.58Z</time></trkpt><trkpt lat="44.2106148" lon="7.9491036"><ele>1305.6666666666667</ele><time>2026-04-18T15:18:08.581Z</time></trkpt><trkpt lat="44.2105117" lon="7.9489183"><ele>1307.0</ele><time>2026-04-18T15:18:09.58Z</time></trkpt><trkpt lat="44.2104093" lon="7.9487504"><ele>1307.0</ele><time>2026-04-18T15:18:10.581Z</time></trkpt><trkpt lat="44.2102538" lon="7.9486837"><ele>1307.0</ele><time>2026-04-18T15:18:11.582Z</time></trkpt><trkpt lat="44.2100053" lon="7.9486694"><ele>1307.0</ele><time>2026-04-18T15:18:12.58Z</time></trkpt><trkpt lat="44.2098402" lon="7.9485881"><ele>1304.6666666666667</ele><time>2026-04-18T15:18:13.581Z</time></trkpt><trkpt lat="44.2096606" lon="7.948504"><ele>1302.3333333333333</ele><time>2026-04-18T15:18:14.58Z</time></trkpt><trkpt lat="44.2094891" lon="7.9484587"><ele>1300.0</ele><time>2026-04-18T15:18:15.582Z</time></trkpt><trkpt lat="44.2093256" lon="7.9484017"><ele>1300.0</ele><time>2026-04-18T15:18:16.58Z</time></trkpt><trkpt lat="44.2091837" lon="7.9483918"><ele>1300.0</ele><time>2026-04-18T15:18:17.58Z</time></trkpt><trkpt lat="44.2090669" lon="7.9483651"><ele>1300.0</ele><time>2026-04-18T15:18:18.581Z</time></trkpt><trkpt lat="44.2089735" lon="7.9483352"><ele>1300.0</ele><time>2026-04-18T15:18:19.582Z</time></trkpt><trkpt lat="44.2089135" lon="7.9482621"><ele>1300.0</ele><time>2026-04-18T15:18:20.58Z</time></trkpt><trkpt lat="44.2088458" lon="7.9482195"><ele>1304.75</ele><time>2026-04-18T15:18:21.581Z</time></trkpt><trkpt lat="44.2088817" lon="7.9480964"><ele>1309.5</ele><time>2026-04-18T15:18:23.58Z</time></trkpt><trkpt lat="44.2089798" lon="7.9481712"><ele>1314.25</ele><time>2026-04-18T15:18:25.58Z</time></trkpt><trkpt lat="44.2091818" lon="7.9482587"><ele>1319.0</ele><time>2026-04-18T15:18:26.582Z</time></trkpt><trkpt lat="44.2093377" lon="7.9482801"><ele>1320.3333333333335</ele><time>2026-04-18T15:18:27.581Z</time></trkpt><trkpt lat="44.2094893" lon="7.9482725"><ele>1321.6666666666667</ele><time>2026-04-18T15:18:28.58Z</time></trkpt><trkpt lat="44.2096537" lon="7.9482459"><ele>1323.0</ele><time>2026-04-18T15:18:29.581Z</time></trkpt><trkpt lat="44.2098247" lon="7.9482046"><ele>1326.3333333333333</ele><time>2026-04-18T15:18:30.582Z</time></trkpt><trkpt lat="44.2100137" lon="7.9482114"><ele>1329.6666666666665</ele><time>2026-04-18T15:18:31.58Z</time></trkpt><trkpt lat="44.2102036" lon="7.9482658"><ele>1333.0</ele><time>2026-04-18T15:18:32.58Z</time></trkpt><trkpt lat="44.2103975" lon="7.9483229"><ele>1333.0</ele><time>2026-04-18T15:18:33.581Z</time></trkpt><trkpt lat="44.2105836" lon="7.9483449"><ele>1333.0</ele><time>2026-04-18T15:18:34.58Z</time></trkpt><trkpt lat="44.2107892" lon="7.9482999"><ele>1333.0</ele><time>2026-04-18T15:18:35.58Z</time></trkpt><trkpt lat="44.2109867" lon="7.9482356"><ele>1336.0</ele><time>2026-04-18T15:18:36.58Z</time></trkpt><trkpt lat="44.2111948" lon="7.9481882"><ele>1339.0</ele><time>2026-04-18T15:18:37.58Z</time></trkpt><trkpt lat="44.2114045" lon="7.9481492"><ele>1342.0</ele><time>2026-04-18T15:18:38.58Z</time></trkpt><trkpt lat="44.2116198" lon="7.9481126"><ele>1342.0</ele><time>2026-04-18T15:18:39.58Z</time></trkpt><trkpt lat="44.211825" lon="7.9480877"><ele>1342.0</ele><time>2026-04-18T15:18:40.58Z</time></trkpt><trkpt lat="44.2120311" lon="7.9480883"><ele>1342.0</ele><time>2026-04-18T15:18:41.58Z</time></trkpt><trkpt lat="44.2122229" lon="7.9481172"><ele>1344.3333333333333</ele><time>2026-04-18T15:18:42.582Z</time></trkpt><trkpt lat="44.2123923" lon="7.9481543"><ele>1346.6666666666667</ele><time>2026-04-18T15:18:43.58Z</time></trkpt><trkpt lat="44.2125608" lon="7.9481883"><ele>1349.0</ele><time>2026-04-18T15:18:44.58Z</time></trkpt><trkpt lat="44.2127274" lon="7.9482281"><ele>1349.0</ele><time>2026-04-18T15:18:45.581Z</time></trkpt><trkpt lat="44.2128745" lon="7.9482548"><ele>1349.0</ele><time>2026-04-18T15:18:46.581Z</time></trkpt><trkpt lat="44.2130216" lon="7.94828"><ele>1349.0</ele><time>2026-04-18T15:18:47.582Z</time></trkpt><trkpt lat="44.2131708" lon="7.9482554"><ele>1349.0</ele><time>2026-04-18T15:18:48.582Z</time></trkpt><trkpt lat="44.2133079" lon="7.9481747"><ele>1350.0</ele><time>2026-04-18T15:18:49.581Z</time></trkpt><trkpt lat="44.2134589" lon="7.9480128"><ele>1351.0</ele><time>2026-04-18T15:18:50.58Z</time></trkpt><trkpt lat="44.2135859" lon="7.9479007"><ele>1352.0</ele><time>2026-04-18T15:18:51.58Z</time></trkpt><trkpt lat="44.2137358" lon="7.9477745"><ele>1352.0</ele><time>2026-04-18T15:18:52.581Z</time></trkpt><trkpt lat="44.2138883" lon="7.9476442"><ele>1352.0</ele><time>2026-04-18T15:18:53.582Z</time></trkpt><trkpt lat="44.2140456" lon="7.9475081"><ele>1352.0</ele><time>2026-04-18T15:18:54.58Z</time></trkpt><trkpt lat="44.21421" lon="7.9473699"><ele>1354.0</ele><time>2026-04-18T15:18:55.581Z</time></trkpt><trkpt lat="44.2143832" lon="7.9472259"><ele>1356.0</ele><time>2026-04-18T15:18:56.581Z</time></trkpt><trkpt lat="44.2145533" lon="7.9470906"><ele>1358.0</ele><time>2026-04-18T15:18:57.581Z</time></trkpt><trkpt lat="44.2147312" lon="7.9469436"><ele>1357.6666666666667</ele><time>2026-04-18T15:18:58.58Z</time></trkpt><trkpt lat="44.2149157" lon="7.9468003"><ele>1357.3333333333333</ele><time>2026-04-18T15:18:59.58Z</time></trkpt><trkpt lat="44.2150969" lon="7.9466511"><ele>1357.0</ele><time>2026-04-18T15:19:00.582Z</time></trkpt><trkpt lat="44.215276" lon="7.946515"><ele>1359.3333333333333</ele><time>2026-04-18T15:19:01.581Z</time></trkpt><trkpt lat="44.2154383" lon="7.9463838"><ele>1361.6666666666667</ele><time>2026-04-18T15:19:02.581Z</time></trkpt><trkpt lat="44.2155764" lon="7.9462673"><ele>1364.0</ele><time>2026-04-18T15:19:03.58Z</time></trkpt><trkpt lat="44.2157161" lon="7.9461435"><ele>1366.0</ele><time>2026-04-18T15:19:04.58Z</time></trkpt><trkpt lat="44.2158438" lon="7.9460263"><ele>1368.0</ele><time>2026-04-18T15:19:05.58Z</time></trkpt><trkpt lat="44.2159539" lon="7.945902"><ele>1370.0</ele><time>2026-04-18T15:19:06.581Z</time></trkpt><trkpt lat="44.21605" lon="7.9457538"><ele>1372.0</ele><time>2026-04-18T15:19:07.581Z</time></trkpt><trkpt lat="44.2161296" lon="7.9456018"><ele>1373.25</ele><time>2026-04-18T15:19:08.581Z</time></trkpt><trkpt lat="44.2161974" lon="7.9454478"><ele>1374.5</ele><time>2026-04-18T15:19:09.582Z</time></trkpt><trkpt lat="44.2162614" lon="7.9452736"><ele>1375.75</ele><time>2026-04-18T15:19:10.581Z</time></trkpt><trkpt lat="44.2163194" lon="7.9450885"><ele>1377.0</ele><time>2026-04-18T15:19:11.581Z</time></trkpt><trkpt lat="44.2163841" lon="7.9448985"><ele>1378.6666666666667</ele><time>2026-04-18T15:19:12.58Z</time></trkpt><trkpt lat="44.2164662" lon="7.9446991"><ele>1380.3333333333335</ele><time>2026-04-18T15:19:13.581Z</time></trkpt><trkpt lat="44.2165596" lon="7.9444768"><ele>1382.0</ele><time>2026-04-18T15:19:14.581Z</time></trkpt><trkpt lat="44.2166547" lon="7.9442434"><ele>1379.3333333333335</ele><time>2026-04-18T15:19:15.581Z</time></trkpt><trkpt lat="44.2167494" lon="7.9440139"><ele>1376.6666666666667</ele><time>2026-04-18T15:19:16.581Z</time></trkpt><trkpt lat="44.2168561" lon="7.9437794"><ele>1374.0</ele><time>2026-04-18T15:19:17.581Z</time></trkpt><trkpt lat="44.216969" lon="7.9435651"><ele>1376.0</ele><time>2026-04-18T15:19:18.58Z</time></trkpt><trkpt lat="44.2170862" lon="7.9433599"><ele>1378.0</ele><time>2026-04-18T15:19:19.58Z</time></trkpt><trkpt lat="44.2172115" lon="7.9431641"><ele>1380.0</ele><time>2026-04-18T15:19:20.581Z</time></trkpt><trkpt lat="44.2173387" lon="7.9429663"><ele>1380.0</ele><time>2026-04-18T15:19:21.58Z</time></trkpt><trkpt lat="44.2174695" lon="7.9427839"><ele>1380.0</ele><time>2026-04-18T15:19:22.582Z</time></trkpt><trkpt lat="44.2176084" lon="7.9426185"><ele>1380.0</ele><time>2026-04-18T15:19:23.58Z</time></trkpt><trkpt lat="44.2177472" lon="7.942461"><ele>1377.3333333333333</ele><time>2026-04-18T15:19:24.582Z</time></trkpt><trkpt lat="44.2178902" lon="7.9423255"><ele>1374.6666666666665</ele><time>2026-04-18T15:19:25.58Z</time></trkpt><trkpt lat="44.2180296" lon="7.9421898"><ele>1372.0</ele><time>2026-04-18T15:19:26.581Z</time></trkpt><trkpt lat="44.2181543" lon="7.9420377"><ele>1372.0</ele><time>2026-04-18T15:19:27.581Z</time></trkpt><trkpt lat="44.2182559" lon="7.9418726"><ele>1372.0</ele><time>2026-04-18T15:19:28.581Z</time></trkpt><trkpt lat="44.218343" lon="7.9416911"><ele>1372.0</ele><time>2026-04-18T15:19:29.58Z</time></trkpt><trkpt lat="44.2184087" lon="7.9414977"><ele>1368.5</ele><time>2026-04-18T15:19:30.58Z</time></trkpt><trkpt lat="44.2184506" lon="7.9412962"><ele>1365.0</ele><time>2026-04-18T15:19:31.581Z</time></trkpt><trkpt lat="44.2184575" lon="7.9411017"><ele>1361.5</ele><time>2026-04-18T15:19:32.58Z</time></trkpt><trkpt lat="44.2184104" lon="7.9408959"><ele>1358.0</ele><time>2026-04-18T15:19:33.58Z</time></trkpt><trkpt lat="44.2183402" lon="7.9407033"><ele>1355.6666666666667</ele><time>2026-04-18T15:19:34.58Z</time></trkpt><trkpt lat="44.2182874" lon="7.9404953"><ele>1353.3333333333333</ele><time>2026-04-18T15:19:35.58Z</time></trkpt><trkpt lat="44.2182336" lon="7.9402884"><ele>1351.0</ele><time>2026-04-18T15:19:36.58Z</time></trkpt><trkpt lat="44.2181979" lon="7.9400319"><ele>1351.0</ele><time>2026-04-18T15:19:37.58Z</time></trkpt><trkpt lat="44.2181548" lon="7.9397786"><ele>1351.0</ele><time>2026-04-18T15:19:38.581Z</time></trkpt><trkpt lat="44.2181213" lon="7.9395307"><ele>1351.0</ele><time>2026-04-18T15:19:39.581Z</time></trkpt><trkpt lat="44.2180848" lon="7.9392898"><ele>1338.6666666666665</ele><time>2026-04-18T15:19:40.581Z</time></trkpt><trkpt lat="44.2180556" lon="7.9390656"><ele>1326.3333333333333</ele><time>2026-04-18T15:19:41.581Z</time></trkpt><trkpt lat="44.2180359" lon="7.9388343"><ele>1314.0</ele><time>2026-04-18T15:19:42.581Z</time></trkpt><trkpt lat="44.2180391" lon="7.9385909"><ele>1312.0</ele><time>2026-04-18T15:19:43.581Z</time></trkpt><trkpt lat="44.2181084" lon="7.9383747"><ele>1310.0</ele><time>2026-04-18T15:19:44.581Z</time></trkpt><trkpt lat="44.2181972" lon="7.9381806"><ele>1308.0</ele><time>2026-04-18T15:19:45.581Z</time></trkpt><trkpt lat="44.218276" lon="7.9379947"><ele>1315.0</ele><time>2026-04-18T15:19:46.581Z</time></trkpt><trkpt lat="44.218332" lon="7.9377979"><ele>1322.0</ele><time>2026-04-18T15:19:47.58Z</time></trkpt><trkpt lat="44.2183973" lon="7.9376005"><ele>1329.0</ele><time>2026-04-18T15:19:48.58Z</time></trkpt><trkpt lat="44.2184192" lon="7.9373796"><ele>1329.0</ele><time>2026-04-18T15:19:49.582Z</time></trkpt><trkpt lat="44.2183692" lon="7.9371064"><ele>1329.0</ele><time>2026-04-18T15:19:50.58Z</time></trkpt><trkpt lat="44.2183834" lon="7.9368641"><ele>1329.0</ele><time>2026-04-18T15:19:51.58Z</time></trkpt><trkpt lat="44.2184086" lon="7.9366524"><ele>1326.0</ele><time>2026-04-18T15:19:52.58Z</time></trkpt><trkpt lat="44.218411" lon="7.9364508"><ele>1323.0</ele><time>2026-04-18T15:19:53.581Z</time></trkpt><trkpt lat="44.2184573" lon="7.9362819"><ele>1320.0</ele><time>2026-04-18T15:19:54.582Z</time></trkpt><trkpt lat="44.2185369" lon="7.9361411"><ele>1317.0</ele><time>2026-04-18T15:19:55.58Z</time></trkpt><trkpt lat="44.2186274" lon="7.9359859"><ele>1317.0</ele><time>2026-04-18T15:19:56.581Z</time></trkpt><trkpt lat="44.2187853" lon="7.935927"><ele>1317.0</ele><time>2026-04-18T15:19:57.58Z</time></trkpt><trkpt lat="44.2188692" lon="7.9358347"><ele>1317.0</ele><time>2026-04-18T15:19:58.581Z</time></trkpt><trkpt lat="44.21898" lon="7.9357093"><ele>1317.0</ele><time>2026-04-18T15:19:59.581Z</time></trkpt><trkpt lat="44.2189358" lon="7.935549"><ele>1312.3333333333333</ele><time>2026-04-18T15:20:00.582Z</time></trkpt><trkpt lat="44.2189222" lon="7.9353912"><ele>1307.6666666666665</ele><time>2026-04-18T15:20:01.58Z</time></trkpt><trkpt lat="44.2187947" lon="7.9351584"><ele>1303.0</ele><time>2026-04-18T15:20:02.581Z</time></trkpt><trkpt lat="44.2187552" lon="7.9349877"><ele>1298.3333333333333</ele><time>2026-04-18T15:20:03.58Z</time></trkpt><trkpt lat="44.2187052" lon="7.9348183"><ele>1293.6666666666667</ele><time>2026-04-18T15:20:04.58Z</time></trkpt><trkpt lat="44.2187313" lon="7.9346114"><ele>1289.0</ele><time>2026-04-18T15:20:05.581Z</time></trkpt><trkpt lat="44.2189039" lon="7.9344203"><ele>1285.0</ele><time>2026-04-18T15:20:06.58Z</time></trkpt><trkpt lat="44.2189385" lon="7.9342061"><ele>1281.0</ele><time>2026-04-18T15:20:07.581Z</time></trkpt><trkpt lat="44.2189744" lon="7.9339937"><ele>1277.0</ele><time>2026-04-18T15:20:08.581Z</time></trkpt><trkpt lat="44.2190104" lon="7.9337623"><ele>1285.6666666666667</ele><time>2026-04-18T15:20:09.581Z</time></trkpt><trkpt lat="44.2190566" lon="7.9335447"><ele>1294.3333333333333</ele><time>2026-04-18T15:20:10.58Z</time></trkpt><trkpt lat="44.2191213" lon="7.9333018"><ele>1303.0</ele><time>2026-04-18T15:20:11.58Z</time></trkpt><trkpt lat="44.2192001" lon="7.9330659"><ele>1303.0</ele><time>2026-04-18T15:20:12.581Z</time></trkpt><trkpt lat="44.2193003" lon="7.9328459"><ele>1303.0</ele><time>2026-04-18T15:20:13.58Z</time></trkpt><trkpt lat="44.2194268" lon="7.9326547"><ele>1303.0</ele><time>2026-04-18T15:20:14.58Z</time></trkpt><trkpt lat="44.2195548" lon="7.9324707"><ele>1304.6666666666665</ele><time>2026-04-18T15:20:15.581Z</time></trkpt><trkpt lat="44.2197122" lon="7.9323789"><ele>1306.3333333333333</ele><time>2026-04-18T15:20:16.581Z</time></trkpt><trkpt lat="44.2198593" lon="7.9322648"><ele>1308.0</ele><time>2026-04-18T15:20:17.58Z</time></trkpt><trkpt lat="44.2199716" lon="7.932083"><ele>1308.0</ele><time>2026-04-18T15:20:18.581Z</time></trkpt><trkpt lat="44.2200948" lon="7.9319275"><ele>1308.0</ele><time>2026-04-18T15:20:19.581Z</time></trkpt><trkpt lat="44.2201506" lon="7.9316502"><ele>1308.0</ele><time>2026-04-18T15:20:20.58Z</time></trkpt><trkpt lat="44.220247" lon="7.9314242"><ele>1299.0</ele><time>2026-04-18T15:20:21.581Z</time></trkpt><trkpt lat="44.2203432" lon="7.9312078"><ele>1290.0</ele><time>2026-04-18T15:20:22.582Z</time></trkpt><trkpt lat="44.2204511" lon="7.9310019"><ele>1281.0</ele><time>2026-04-18T15:20:23.58Z</time></trkpt><trkpt lat="44.2205542" lon="7.930794"><ele>1283.6666666666667</ele><time>2026-04-18T15:20:24.581Z</time></trkpt><trkpt lat="44.2206767" lon="7.9306128"><ele>1286.3333333333335</ele><time>2026-04-18T15:20:25.58Z</time></trkpt><trkpt lat="44.2208262" lon="7.9304657"><ele>1289.0</ele><time>2026-04-18T15:20:26.581Z</time></trkpt><trkpt lat="44.2209778" lon="7.9303496"><ele>1289.0</ele><time>2026-04-18T15:20:27.58Z</time></trkpt><trkpt lat="44.2211235" lon="7.9302599"><ele>1289.0</ele><time>2026-04-18T15:20:28.58Z</time></trkpt><trkpt lat="44.2212528" lon="7.9302426"><ele>1289.0</ele><time>2026-04-18T15:20:29.581Z</time></trkpt><trkpt lat="44.2213834" lon="7.9302928"><ele>1289.0</ele><time>2026-04-18T15:20:30.581Z</time></trkpt><trkpt lat="44.2215254" lon="7.9303349"><ele>1291.3333333333335</ele><time>2026-04-18T15:20:31.582Z</time></trkpt><trkpt lat="44.2216777" lon="7.9303861"><ele>1293.6666666666667</ele><time>2026-04-18T15:20:32.581Z</time></trkpt><trkpt lat="44.2218512" lon="7.9302975"><ele>1296.0</ele><time>2026-04-18T15:20:33.581Z</time></trkpt><trkpt lat="44.2220115" lon="7.9302807"><ele>1296.0</ele><time>2026-04-18T15:20:34.582Z</time></trkpt><trkpt lat="44.2221908" lon="7.9301906"><ele>1296.0</ele><time>2026-04-18T15:20:35.58Z</time></trkpt><trkpt lat="44.22236" lon="7.9301045"><ele>1296.0</ele><time>2026-04-18T15:20:36.581Z</time></trkpt><trkpt lat="44.2225578" lon="7.9300205"><ele>1287.0</ele><time>2026-04-18T15:20:37.581Z</time></trkpt><trkpt lat="44.222671" lon="7.9298448"><ele>1278.0</ele><time>2026-04-18T15:20:38.58Z</time></trkpt><trkpt lat="44.2228138" lon="7.9297188"><ele>1269.0</ele><time>2026-04-18T15:20:39.582Z</time></trkpt><trkpt lat="44.2229514" lon="7.9295541"><ele>1269.0</ele><time>2026-04-18T15:20:40.58Z</time></trkpt><trkpt lat="44.2230615" lon="7.9293681"><ele>1269.0</ele><time>2026-04-18T15:20:41.581Z</time></trkpt><trkpt lat="44.2231501" lon="7.9291446"><ele>1269.0</ele><time>2026-04-18T15:20:42.581Z</time></trkpt><trkpt lat="44.2232344" lon="7.928933"><ele>1268.3333333333333</ele><time>2026-04-18T15:20:43.581Z</time></trkpt><trkpt lat="44.2233141" lon="7.9287173"><ele>1267.6666666666665</ele><time>2026-04-18T15:20:44.58Z</time></trkpt><trkpt lat="44.2233889" lon="7.9285127"><ele>1267.0</ele><time>2026-04-18T15:20:45.581Z</time></trkpt><trkpt lat="44.2234867" lon="7.928316"><ele>1256.6666666666665</ele><time>2026-04-18T15:20:46.582Z</time></trkpt><trkpt lat="44.223613" lon="7.9281657"><ele>1246.3333333333333</ele><time>2026-04-18T15:20:47.58Z</time></trkpt><trkpt lat="44.2237359" lon="7.9279849"><ele>1236.0</ele><time>2026-04-18T15:20:48.581Z</time></trkpt><trkpt lat="44.2239005" lon="7.927869"><ele>1234.0</ele><time>2026-04-18T15:20:49.58Z</time></trkpt><trkpt lat="44.2240518" lon="7.9277241"><ele>1232.0</ele><time>2026-04-18T15:20:50.581Z</time></trkpt><trkpt lat="44.2242327" lon="7.9276105"><ele>1230.0</ele><time>2026-04-18T15:20:51.581Z</time></trkpt><trkpt lat="44.2244037" lon="7.9275231"><ele>1230.0</ele><time>2026-04-18T15:20:52.582Z</time></trkpt><trkpt lat="44.2245782" lon="7.9274225"><ele>1230.0</ele><time>2026-04-18T15:20:53.581Z</time></trkpt><trkpt lat="44.2247489" lon="7.9273942"><ele>1230.0</ele><time>2026-04-18T15:20:54.581Z</time></trkpt><trkpt lat="44.2249229" lon="7.9273522"><ele>1234.6666666666667</ele><time>2026-04-18T15:20:55.581Z</time></trkpt><trkpt lat="44.2250971" lon="7.9273517"><ele>1239.3333333333335</ele><time>2026-04-18T15:20:56.58Z</time></trkpt><trkpt lat="44.2252904" lon="7.9273915"><ele>1244.0</ele><time>2026-04-18T15:20:57.582Z</time></trkpt><trkpt lat="44.2254948" lon="7.9274412"><ele>1240.3333333333335</ele><time>2026-04-18T15:20:58.58Z</time></trkpt><trkpt lat="44.2256933" lon="7.9274639"><ele>1236.6666666666667</ele><time>2026-04-18T15:20:59.582Z</time></trkpt><trkpt lat="44.2258993" lon="7.9274696"><ele>1233.0</ele><time>2026-04-18T15:21:00.58Z</time></trkpt><trkpt lat="44.2261017" lon="7.9274801"><ele>1233.0</ele><time>2026-04-18T15:21:01.58Z</time></trkpt><trkpt lat="44.2263092" lon="7.9274925"><ele>1233.0</ele><time>2026-04-18T15:21:02.581Z</time></trkpt><trkpt lat="44.2264993" lon="7.927506"><ele>1233.0</ele><time>2026-04-18T15:21:03.58Z</time></trkpt><trkpt lat="44.2267061" lon="7.9275344"><ele>1243.6666666666667</ele><time>2026-04-18T15:21:04.581Z</time></trkpt><trkpt lat="44.2269133" lon="7.9275809"><ele>1254.3333333333335</ele><time>2026-04-18T15:21:05.58Z</time></trkpt><trkpt lat="44.2271125" lon="7.9276399"><ele>1265.0</ele><time>2026-04-18T15:21:06.581Z</time></trkpt><trkpt lat="44.2272939" lon="7.927701"><ele>1256.3333333333335</ele><time>2026-04-18T15:21:07.58Z</time></trkpt><trkpt lat="44.22749" lon="7.9277694"><ele>1247.6666666666667</ele><time>2026-04-18T15:21:08.58Z</time></trkpt><trkpt lat="44.227672" lon="7.9278445"><ele>1239.0</ele><time>2026-04-18T15:21:09.581Z</time></trkpt><trkpt lat="44.2278533" lon="7.9279326"><ele>1239.0</ele><time>2026-04-18T15:21:10.58Z</time></trkpt><trkpt lat="44.2280254" lon="7.9280157"><ele>1239.0</ele><time>2026-04-18T15:21:11.581Z</time></trkpt><trkpt lat="44.2281882" lon="7.9281068"><ele>1239.0</ele><time>2026-04-18T15:21:12.58Z</time></trkpt><trkpt lat="44.2283476" lon="7.9282182"><ele>1235.0</ele><time>2026-04-18T15:21:13.58Z</time></trkpt><trkpt lat="44.2284964" lon="7.9283608"><ele>1231.0</ele><time>2026-04-18T15:21:14.581Z</time></trkpt><trkpt lat="44.2286387" lon="7.9285329"><ele>1227.0</ele><time>2026-04-18T15:21:15.582Z</time></trkpt><trkpt lat="44.2287674" lon="7.9287174"><ele>1227.0</ele><time>2026-04-18T15:21:16.58Z</time></trkpt><trkpt lat="44.2288757" lon="7.9289186"><ele>1227.0</ele><time>2026-04-18T15:21:17.58Z</time></trkpt><trkpt lat="44.2289745" lon="7.9291318"><ele>1227.0</ele><time>2026-04-18T15:21:18.581Z</time></trkpt><trkpt lat="44.2290684" lon="7.9293459"><ele>1219.6666666666667</ele><time>2026-04-18T15:21:19.58Z</time></trkpt><trkpt lat="44.2291542" lon="7.9295731"><ele>1212.3333333333335</ele><time>2026-04-18T15:21:20.582Z</time></trkpt><trkpt lat="44.2292244" lon="7.929806"><ele>1205.0</ele><time>2026-04-18T15:21:21.581Z</time></trkpt><trkpt lat="44.2292996" lon="7.9300344"><ele>1205.3333333333335</ele><time>2026-04-18T15:21:22.581Z</time></trkpt><trkpt lat="44.2293678" lon="7.9302535"><ele>1205.6666666666667</ele><time>2026-04-18T15:21:23.58Z</time></trkpt><trkpt lat="44.229426" lon="7.9304671"><ele>1206.0</ele><time>2026-04-18T15:21:24.581Z</time></trkpt><trkpt lat="44.2294526" lon="7.9306859"><ele>1206.0</ele><time>2026-04-18T15:21:25.582Z</time></trkpt><trkpt lat="44.2294378" lon="7.9308901"><ele>1206.0</ele><time>2026-04-18T15:21:26.581Z</time></trkpt><trkpt lat="44.2294032" lon="7.9310658"><ele>1206.0</ele><time>2026-04-18T15:21:27.581Z</time></trkpt><trkpt lat="44.2293795" lon="7.9312197"><ele>1206.0</ele><time>2026-04-18T15:21:28.581Z</time></trkpt><trkpt lat="44.2293885" lon="7.9313627"><ele>1206.2</ele><time>2026-04-18T15:21:29.58Z</time></trkpt><trkpt lat="44.2294076" lon="7.9314874"><ele>1206.3999999999999</ele><time>2026-04-18T15:21:30.58Z</time></trkpt><trkpt lat="44.2294923" lon="7.9315567"><ele>1206.6</ele><time>2026-04-18T15:21:31.581Z</time></trkpt><trkpt lat="44.229615" lon="7.9315974"><ele>1206.8</ele><time>2026-04-18T15:21:32.581Z</time></trkpt><trkpt lat="44.2297391" lon="7.9316334"><ele>1207.0</ele><time>2026-04-18T15:21:33.58Z</time></trkpt><trkpt lat="44.2298664" lon="7.9316227"><ele>1207.0</ele><time>2026-04-18T15:21:34.58Z</time></trkpt><trkpt lat="44.2300051" lon="7.9315533"><ele>1207.0</ele><time>2026-04-18T15:21:35.581Z</time></trkpt><trkpt lat="44.2301418" lon="7.9313543"><ele>1207.0</ele><time>2026-04-18T15:21:36.58Z</time></trkpt><trkpt lat="44.230274" lon="7.9312002"><ele>1207.0</ele><time>2026-04-18T15:21:37.58Z</time></trkpt><trkpt lat="44.2303951" lon="7.9311093"><ele>1207.0</ele><time>2026-04-18T15:21:38.58Z</time></trkpt><trkpt lat="44.2305122" lon="7.9310526"><ele>1207.0</ele><time>2026-04-18T15:21:39.58Z</time></trkpt><trkpt lat="44.2306223" lon="7.9310813"><ele>1207.0</ele><time>2026-04-18T15:21:40.581Z</time></trkpt><trkpt lat="44.2307387" lon="7.9311602"><ele>1205.75</ele><time>2026-04-18T15:21:41.581Z</time></trkpt><trkpt lat="44.2308018" lon="7.9313426"><ele>1204.5</ele><time>2026-04-18T15:21:42.581Z</time></trkpt><trkpt lat="44.2308535" lon="7.9315299"><ele>1203.25</ele><time>2026-04-18T15:21:43.581Z</time></trkpt><trkpt lat="44.2309128" lon="7.9316846"><ele>1202.0</ele><time>2026-04-18T15:21:44.581Z</time></trkpt><trkpt lat="44.230981" lon="7.9318057"><ele>1202.0</ele><time>2026-04-18T15:21:45.581Z</time></trkpt><trkpt lat="44.2310854" lon="7.9318602"><ele>1202.0</ele><time>2026-04-18T15:21:46.581Z</time></trkpt><trkpt lat="44.2312052" lon="7.9318417"><ele>1202.0</ele><time>2026-04-18T15:21:47.58Z</time></trkpt><trkpt lat="44.2313359" lon="7.9317819"><ele>1202.0</ele><time>2026-04-18T15:21:48.581Z</time></trkpt><trkpt lat="44.2314285" lon="7.9315055"><ele>1199.6666666666667</ele><time>2026-04-18T15:21:49.581Z</time></trkpt><trkpt lat="44.2315274" lon="7.9312902"><ele>1197.3333333333333</ele><time>2026-04-18T15:21:50.58Z</time></trkpt><trkpt lat="44.23156" lon="7.9310284"><ele>1195.0</ele><time>2026-04-18T15:21:51.58Z</time></trkpt><trkpt lat="44.2315748" lon="7.9307707"><ele>1191.6666666666665</ele><time>2026-04-18T15:21:52.58Z</time></trkpt><trkpt lat="44.2315349" lon="7.9304773"><ele>1188.3333333333333</ele><time>2026-04-18T15:21:53.581Z</time></trkpt><trkpt lat="44.2314961" lon="7.9301913"><ele>1185.0</ele><time>2026-04-18T15:21:54.58Z</time></trkpt><trkpt lat="44.2314785" lon="7.9299055"><ele>1183.3333333333333</ele><time>2026-04-18T15:21:55.581Z</time></trkpt><trkpt lat="44.2314725" lon="7.9296022"><ele>1181.6666666666665</ele><time>2026-04-18T15:21:56.582Z</time></trkpt><trkpt lat="44.2314783" lon="7.9292922"><ele>1180.0</ele><time>2026-04-18T15:21:57.582Z</time></trkpt><trkpt lat="44.2315015" lon="7.9289814"><ele>1178.6666666666665</ele><time>2026-04-18T15:21:58.58Z</time></trkpt><trkpt lat="44.2315325" lon="7.9286729"><ele>1177.3333333333333</ele><time>2026-04-18T15:21:59.58Z</time></trkpt><trkpt lat="44.2315573" lon="7.928366"><ele>1176.0</ele><time>2026-04-18T15:22:00.58Z</time></trkpt><trkpt lat="44.2315766" lon="7.9280702"><ele>1173.0</ele><time>2026-04-18T15:22:01.581Z</time></trkpt><trkpt lat="44.231593" lon="7.9277903"><ele>1170.0</ele><time>2026-04-18T15:22:02.581Z</time></trkpt><trkpt lat="44.2316118" lon="7.9275081"><ele>1167.0</ele><time>2026-04-18T15:22:03.582Z</time></trkpt><trkpt lat="44.2316308" lon="7.9272333"><ele>1164.0</ele><time>2026-04-18T15:22:04.581Z</time></trkpt><trkpt lat="44.2316482" lon="7.926977"><ele>1161.0</ele><time>2026-04-18T15:22:05.582Z</time></trkpt><trkpt lat="44.2316647" lon="7.9267524"><ele>1158.0</ele><time>2026-04-18T15:22:06.58Z</time></trkpt><trkpt lat="44.2316898" lon="7.9265545"><ele>1154.5</ele><time>2026-04-18T15:22:07.581Z</time></trkpt><trkpt lat="44.231724" lon="7.9263847"><ele>1151.0</ele><time>2026-04-18T15:22:08.58Z</time></trkpt><trkpt lat="44.2317699" lon="7.9262278"><ele>1147.5</ele><time>2026-04-18T15:22:09.58Z</time></trkpt><trkpt lat="44.2318313" lon="7.926096"><ele>1144.0</ele><time>2026-04-18T15:22:10.581Z</time></trkpt><trkpt lat="44.2319381" lon="7.926059"><ele>1144.0</ele><time>2026-04-18T15:22:11.58Z</time></trkpt><trkpt lat="44.2320536" lon="7.9260569"><ele>1144.0</ele><time>2026-04-18T15:22:12.58Z</time></trkpt><trkpt lat="44.2322829" lon="7.9262516"><ele>1144.0</ele><time>2026-04-18T15:22:13.582Z</time></trkpt><trkpt lat="44.2325075" lon="7.9264034"><ele>1144.0</ele><time>2026-04-18T15:22:14.58Z</time></trkpt><trkpt lat="44.2326952" lon="7.9264773"><ele>1144.0</ele><time>2026-04-18T15:22:15.58Z</time></trkpt><trkpt lat="44.2328568" lon="7.9265385"><ele>1144.0</ele><time>2026-04-18T15:22:16.582Z</time></trkpt><trkpt lat="44.2330106" lon="7.9265764"><ele>1145.25</ele><time>2026-04-18T15:22:17.581Z</time></trkpt><trkpt lat="44.2331562" lon="7.9265831"><ele>1146.5</ele><time>2026-04-18T15:22:18.581Z</time></trkpt><trkpt lat="44.2333078" lon="7.926587"><ele>1147.75</ele><time>2026-04-18T15:22:19.582Z</time></trkpt><trkpt lat="44.2333616" lon="7.9265005"><ele>1149.0</ele><time>2026-04-18T15:22:20.58Z</time></trkpt><trkpt lat="44.2333707" lon="7.9263648"><ele>1149.0</ele><time>2026-04-18T15:22:21.58Z</time></trkpt><trkpt lat="44.2333177" lon="7.9262269"><ele>1149.0</ele><time>2026-04-18T15:22:22.58Z</time></trkpt><trkpt lat="44.2331553" lon="7.9260802"><ele>1149.0</ele><time>2026-04-18T15:22:23.581Z</time></trkpt><trkpt lat="44.2330063" lon="7.9259427"><ele>1140.6666666666667</ele><time>2026-04-18T15:22:24.581Z</time></trkpt><trkpt lat="44.2328829" lon="7.9257687"><ele>1132.3333333333335</ele><time>2026-04-18T15:22:25.582Z</time></trkpt><trkpt lat="44.2327825" lon="7.9255691"><ele>1124.0</ele><time>2026-04-18T15:22:26.581Z</time></trkpt><trkpt lat="44.232684" lon="7.9253589"><ele>1124.0</ele><time>2026-04-18T15:22:27.582Z</time></trkpt><trkpt lat="44.232583" lon="7.9251613"><ele>1124.0</ele><time>2026-04-18T15:22:28.581Z</time></trkpt><trkpt lat="44.2324759" lon="7.9249705"><ele>1124.0</ele><time>2026-04-18T15:22:29.581Z</time></trkpt><trkpt lat="44.2323866" lon="7.924764"><ele>1124.0</ele><time>2026-04-18T15:22:30.582Z</time></trkpt><trkpt lat="44.23232" lon="7.9245456"><ele>1124.0</ele><time>2026-04-18T15:22:31.581Z</time></trkpt><trkpt lat="44.2322636" lon="7.9243102"><ele>1124.0</ele><time>2026-04-18T15:22:32.581Z</time></trkpt><trkpt lat="44.2322112" lon="7.9240603"><ele>1114.6666666666667</ele><time>2026-04-18T15:22:33.581Z</time></trkpt><trkpt lat="44.2321607" lon="7.9238125"><ele>1105.3333333333333</ele><time>2026-04-18T15:22:34.581Z</time></trkpt><trkpt lat="44.2321231" lon="7.9235682"><ele>1096.0</ele><time>2026-04-18T15:22:35.58Z</time></trkpt><trkpt lat="44.2320957" lon="7.9233307"><ele>1094.6666666666665</ele><time>2026-04-18T15:22:36.58Z</time></trkpt><trkpt lat="44.2320795" lon="7.92309"><ele>1093.3333333333333</ele><time>2026-04-18T15:22:37.581Z</time></trkpt><trkpt lat="44.2321413" lon="7.9228336"><ele>1092.0</ele><time>2026-04-18T15:22:38.582Z</time></trkpt><trkpt lat="44.2322017" lon="7.9225799"><ele>1090.3333333333333</ele><time>2026-04-18T15:22:39.58Z</time></trkpt><trkpt lat="44.2322423" lon="7.9223324"><ele>1088.6666666666665</ele><time>2026-04-18T15:22:40.581Z</time></trkpt><trkpt lat="44.2322609" lon="7.9220905"><ele>1087.0</ele><time>2026-04-18T15:22:41.582Z</time></trkpt><trkpt lat="44.2322426" lon="7.9218669"><ele>1085.0</ele><time>2026-04-18T15:22:42.58Z</time></trkpt><trkpt lat="44.2322082" lon="7.9216436"><ele>1083.0</ele><time>2026-04-18T15:22:43.581Z</time></trkpt><trkpt lat="44.2321832" lon="7.9214166"><ele>1081.0</ele><time>2026-04-18T15:22:44.581Z</time></trkpt><trkpt lat="44.2321877" lon="7.92118"><ele>1081.0</ele><time>2026-04-18T15:22:45.581Z</time></trkpt><trkpt lat="44.232197" lon="7.9209639"><ele>1081.0</ele><time>2026-04-18T15:22:46.58Z</time></trkpt><trkpt lat="44.2322505" lon="7.9207409"><ele>1081.0</ele><time>2026-04-18T15:22:47.58Z</time></trkpt><trkpt lat="44.2323307" lon="7.9205574"><ele>1088.6666666666665</ele><time>2026-04-18T15:22:48.58Z</time></trkpt><trkpt lat="44.2324241" lon="7.9203781"><ele>1096.3333333333333</ele><time>2026-04-18T15:22:49.581Z</time></trkpt><trkpt lat="44.2325908" lon="7.9202789"><ele>1104.0</ele><time>2026-04-18T15:22:50.58Z</time></trkpt><trkpt lat="44.2327289" lon="7.9201451"><ele>1096.6666666666667</ele><time>2026-04-18T15:22:51.581Z</time></trkpt><trkpt lat="44.2328839" lon="7.9200201"><ele>1089.3333333333335</ele><time>2026-04-18T15:22:52.58Z</time></trkpt><trkpt lat="44.2330211" lon="7.9198922"><ele>1082.0</ele><time>2026-04-18T15:22:53.58Z</time></trkpt><trkpt lat="44.2330841" lon="7.9196577"><ele>1084.0</ele><time>2026-04-18T15:22:54.58Z</time></trkpt><trkpt lat="44.2331758" lon="7.919484"><ele>1086.0</ele><time>2026-04-18T15:22:55.582Z</time></trkpt><trkpt lat="44.2332641" lon="7.9192939"><ele>1088.0</ele><time>2026-04-18T15:22:56.58Z</time></trkpt><trkpt lat="44.233337" lon="7.9191474"><ele>1090.0</ele><time>2026-04-18T15:22:57.581Z</time></trkpt><trkpt lat="44.2333918" lon="7.918984"><ele>1090.0</ele><time>2026-04-18T15:22:58.581Z</time></trkpt><trkpt lat="44.233393" lon="7.9188265"><ele>1090.0</ele><time>2026-04-18T15:22:59.58Z</time></trkpt><trkpt lat="44.2333335" lon="7.9186934"><ele>1090.0</ele><time>2026-04-18T15:23:00.58Z</time></trkpt><trkpt lat="44.2332875" lon="7.9185571"><ele>1090.0</ele><time>2026-04-18T15:23:01.581Z</time></trkpt><trkpt lat="44.2332018" lon="7.9184735"><ele>1090.0</ele><time>2026-04-18T15:23:02.581Z</time></trkpt><trkpt lat="44.2331144" lon="7.9184055"><ele>1083.6666666666665</ele><time>2026-04-18T15:23:03.58Z</time></trkpt><trkpt lat="44.2329654" lon="7.9185218"><ele>1077.3333333333333</ele><time>2026-04-18T15:23:04.582Z</time></trkpt><trkpt lat="44.232817" lon="7.9186327"><ele>1071.0</ele><time>2026-04-18T15:23:05.58Z</time></trkpt><trkpt lat="44.2326728" lon="7.9187557"><ele>1071.0</ele><time>2026-04-18T15:23:06.58Z</time></trkpt><trkpt lat="44.2325459" lon="7.9188762"><ele>1071.0</ele><time>2026-04-18T15:23:07.581Z</time></trkpt><trkpt lat="44.2324156" lon="7.9189281"><ele>1071.0</ele><time>2026-04-18T15:23:08.581Z</time></trkpt><trkpt lat="44.2323073" lon="7.9189499"><ele>1071.0</ele><time>2026-04-18T15:23:09.582Z</time></trkpt><trkpt lat="44.2322209" lon="7.9188832"><ele>1065.0</ele><time>2026-04-18T15:23:10.581Z</time></trkpt><trkpt lat="44.2321654" lon="7.9187739"><ele>1059.0</ele><time>2026-04-18T15:23:11.582Z</time></trkpt><trkpt lat="44.2321459" lon="7.9184986"><ele>1053.0</ele><time>2026-04-18T15:23:12.581Z</time></trkpt><trkpt lat="44.2321584" lon="7.9181363"><ele>1063.0</ele><time>2026-04-18T15:23:13.58Z</time></trkpt><trkpt lat="44.2323135" lon="7.9177574"><ele>1073.0</ele><time>2026-04-18T15:23:14.58Z</time></trkpt><trkpt lat="44.2323293" lon="7.9175138"><ele>1073.0</ele><time>2026-04-18T15:23:15.581Z</time></trkpt><trkpt lat="44.2323567" lon="7.917252"><ele>1073.0</ele><time>2026-04-18T15:23:16.58Z</time></trkpt><trkpt lat="44.2324032" lon="7.9170078"><ele>1073.0</ele><time>2026-04-18T15:23:17.58Z</time></trkpt><trkpt lat="44.2324826" lon="7.9167948"><ele>1068.0</ele><time>2026-04-18T15:23:18.581Z</time></trkpt><trkpt lat="44.2325884" lon="7.9165842"><ele>1063.0</ele><time>2026-04-18T15:23:19.581Z</time></trkpt><trkpt lat="44.2327157" lon="7.9164052"><ele>1058.0</ele><time>2026-04-18T15:23:20.582Z</time></trkpt><trkpt lat="44.2328339" lon="7.9162161"><ele>1058.0</ele><time>2026-04-18T15:23:21.58Z</time></trkpt><trkpt lat="44.2329836" lon="7.9161021"><ele>1058.0</ele><time>2026-04-18T15:23:22.581Z</time></trkpt><trkpt lat="44.2331196" lon="7.9159732"><ele>1058.0</ele><time>2026-04-18T15:23:23.581Z</time></trkpt><trkpt lat="44.2332247" lon="7.9158451"><ele>1057.3333333333335</ele><time>2026-04-18T15:23:24.582Z</time></trkpt><trkpt lat="44.2333565" lon="7.9157482"><ele>1056.6666666666667</ele><time>2026-04-18T15:23:25.581Z</time></trkpt><trkpt lat="44.2334651" lon="7.9155968"><ele>1056.0</ele><time>2026-04-18T15:23:26.581Z</time></trkpt><trkpt lat="44.2335197" lon="7.9153639"><ele>1051.3333333333333</ele><time>2026-04-18T15:23:27.58Z</time></trkpt><trkpt lat="44.2333818" lon="7.9150438"><ele>1046.6666666666665</ele><time>2026-04-18T15:23:28.582Z</time></trkpt><trkpt lat="44.2333932" lon="7.9148254"><ele>1042.0</ele><time>2026-04-18T15:23:29.58Z</time></trkpt><trkpt lat="44.2334082" lon="7.9145768"><ele>1042.0</ele><time>2026-04-18T15:23:30.581Z</time></trkpt><trkpt lat="44.2334414" lon="7.914314"><ele>1042.0</ele><time>2026-04-18T15:23:31.58Z</time></trkpt><trkpt lat="44.2334981" lon="7.9140728"><ele>1042.0</ele><time>2026-04-18T15:23:32.581Z</time></trkpt><trkpt lat="44.2335479" lon="7.9138126"><ele>1039.6666666666665</ele><time>2026-04-18T15:23:33.58Z</time></trkpt><trkpt lat="44.2336095" lon="7.9135588"><ele>1037.3333333333333</ele><time>2026-04-18T15:23:34.58Z</time></trkpt><trkpt lat="44.2336954" lon="7.9133413"><ele>1035.0</ele><time>2026-04-18T15:23:35.58Z</time></trkpt><trkpt lat="44.2338021" lon="7.9131236"><ele>1032.6666666666667</ele><time>2026-04-18T15:23:36.58Z</time></trkpt><trkpt lat="44.2339206" lon="7.9129176"><ele>1030.3333333333335</ele><time>2026-04-18T15:23:37.581Z</time></trkpt><trkpt lat="44.2340533" lon="7.9127255"><ele>1028.0</ele><time>2026-04-18T15:23:38.58Z</time></trkpt><trkpt lat="44.2341634" lon="7.9125635"><ele>1028.0</ele><time>2026-04-18T15:23:39.58Z</time></trkpt><trkpt lat="44.2342632" lon="7.9124151"><ele>1028.0</ele><time>2026-04-18T15:23:40.58Z</time></trkpt><trkpt lat="44.2343935" lon="7.9123235"><ele>1028.0</ele><time>2026-04-18T15:23:41.581Z</time></trkpt><trkpt lat="44.2345105" lon="7.912227"><ele>1028.0</ele><time>2026-04-18T15:23:42.58Z</time></trkpt><trkpt lat="44.2346064" lon="7.9121979"><ele>1028.0</ele><time>2026-04-18T15:23:43.58Z</time></trkpt><trkpt lat="44.2346846" lon="7.9120756"><ele>1028.0</ele><time>2026-04-18T15:23:44.581Z</time></trkpt><trkpt lat="44.2347189" lon="7.9118771"><ele>1028.0</ele><time>2026-04-18T15:23:45.581Z</time></trkpt><trkpt lat="44.2347101" lon="7.9116735"><ele>1028.0</ele><time>2026-04-18T15:23:46.581Z</time></trkpt><trkpt lat="44.2346985" lon="7.9114344"><ele>1027.6666666666667</ele><time>2026-04-18T15:23:47.581Z</time></trkpt><trkpt lat="44.2347118" lon="7.9112107"><ele>1027.3333333333333</ele><time>2026-04-18T15:23:48.581Z</time></trkpt><trkpt lat="44.2347769" lon="7.9109769"><ele>1027.0</ele><time>2026-04-18T15:23:49.582Z</time></trkpt><trkpt lat="44.2348446" lon="7.9107171"><ele>1027.0</ele><time>2026-04-18T15:23:50.581Z</time></trkpt><trkpt lat="44.2349336" lon="7.9104967"><ele>1027.0</ele><time>2026-04-18T15:23:51.582Z</time></trkpt><trkpt lat="44.2350216" lon="7.9102692"><ele>1027.0</ele><time>2026-04-18T15:23:52.581Z</time></trkpt><trkpt lat="44.2350944" lon="7.9100377"><ele>1023.0</ele><time>2026-04-18T15:23:53.58Z</time></trkpt><trkpt lat="44.2351355" lon="7.9098035"><ele>1019.0</ele><time>2026-04-18T15:23:54.58Z</time></trkpt><trkpt lat="44.235157" lon="7.9095682"><ele>1015.0</ele><time>2026-04-18T15:23:55.581Z</time></trkpt><trkpt lat="44.2351927" lon="7.909332"><ele>1012.0</ele><time>2026-04-18T15:23:56.58Z</time></trkpt><trkpt lat="44.2352687" lon="7.9090986"><ele>1009.0</ele><time>2026-04-18T15:23:57.581Z</time></trkpt><trkpt lat="44.2353524" lon="7.9088884"><ele>1006.0</ele><time>2026-04-18T15:23:58.58Z</time></trkpt><trkpt lat="44.2354589" lon="7.9086847"><ele>1006.0</ele><time>2026-04-18T15:23:59.582Z</time></trkpt><trkpt lat="44.2355787" lon="7.90848"><ele>1006.0</ele><time>2026-04-18T15:24:00.58Z</time></trkpt><trkpt lat="44.2356861" lon="7.9082647"><ele>1006.0</ele><time>2026-04-18T15:24:01.581Z</time></trkpt><trkpt lat="44.2357763" lon="7.9080687"><ele>1006.5</ele><time>2026-04-18T15:24:02.581Z</time></trkpt><trkpt lat="44.2358774" lon="7.9079636"><ele>1007.0</ele><time>2026-04-18T15:24:03.581Z</time></trkpt><trkpt lat="44.2359811" lon="7.9078536"><ele>1007.5</ele><time>2026-04-18T15:24:04.581Z</time></trkpt><trkpt lat="44.2360909" lon="7.907778"><ele>1008.0</ele><time>2026-04-18T15:24:05.58Z</time></trkpt><trkpt lat="44.2362082" lon="7.9077142"><ele>1008.0</ele><time>2026-04-18T15:24:06.581Z</time></trkpt><trkpt lat="44.2363099" lon="7.907911"><ele>1008.0</ele><time>2026-04-18T15:24:07.58Z</time></trkpt><trkpt lat="44.236436" lon="7.9079486"><ele>1008.0</ele><time>2026-04-18T15:24:08.58Z</time></trkpt><trkpt lat="44.2365545" lon="7.9079115"><ele>1008.0</ele><time>2026-04-18T15:24:09.581Z</time></trkpt><trkpt lat="44.2366257" lon="7.9078367"><ele>1008.5</ele><time>2026-04-18T15:24:10.581Z</time></trkpt><trkpt lat="44.236656" lon="7.9076964"><ele>1009.0</ele><time>2026-04-18T15:24:11.582Z</time></trkpt><trkpt lat="44.2366416" lon="7.9075275"><ele>1009.5</ele><time>2026-04-18T15:24:12.581Z</time></trkpt><trkpt lat="44.2365866" lon="7.9073448"><ele>1010.0</ele><time>2026-04-18T15:24:13.581Z</time></trkpt><trkpt lat="44.2365639" lon="7.9071306"><ele>1010.0</ele><time>2026-04-18T15:24:14.58Z</time></trkpt><trkpt lat="44.2365531" lon="7.9069236"><ele>1010.0</ele><time>2026-04-18T15:24:15.581Z</time></trkpt><trkpt lat="44.2365534" lon="7.9067348"><ele>1010.0</ele><time>2026-04-18T15:24:16.581Z</time></trkpt><trkpt lat="44.2365521" lon="7.9065717"><ele>1010.0</ele><time>2026-04-18T15:24:17.582Z</time></trkpt><trkpt lat="44.2366829" lon="7.9064725"><ele>1006.75</ele><time>2026-04-18T15:24:18.581Z</time></trkpt><trkpt lat="44.2367619" lon="7.9063574"><ele>1003.5</ele><time>2026-04-18T15:24:19.581Z</time></trkpt><trkpt lat="44.2369262" lon="7.906335"><ele>1000.25</ele><time>2026-04-18T15:24:20.58Z</time></trkpt><trkpt lat="44.2370931" lon="7.9063046"><ele>997.0</ele><time>2026-04-18T15:24:21.58Z</time></trkpt><trkpt lat="44.2372486" lon="7.9062876"><ele>992.6666666666666</ele><time>2026-04-18T15:24:22.582Z</time></trkpt><trkpt lat="44.2374185" lon="7.9061328"><ele>988.3333333333333</ele><time>2026-04-18T15:24:23.581Z</time></trkpt><trkpt lat="44.237575" lon="7.9060111"><ele>984.0</ele><time>2026-04-18T15:24:24.581Z</time></trkpt><trkpt lat="44.2377244" lon="7.9058427"><ele>984.0</ele><time>2026-04-18T15:24:25.581Z</time></trkpt><trkpt lat="44.2378409" lon="7.9056263"><ele>984.0</ele><time>2026-04-18T15:24:26.581Z</time></trkpt><trkpt lat="44.2379621" lon="7.9054175"><ele>984.0</ele><time>2026-04-18T15:24:27.58Z</time></trkpt><trkpt lat="44.2380912" lon="7.9052025"><ele>983.6666666666667</ele><time>2026-04-18T15:24:28.58Z</time></trkpt><trkpt lat="44.2382261" lon="7.9049983"><ele>983.3333333333334</ele><time>2026-04-18T15:24:29.582Z</time></trkpt><trkpt lat="44.2383459" lon="7.9048313"><ele>983.0</ele><time>2026-04-18T15:24:30.581Z</time></trkpt><trkpt lat="44.2384748" lon="7.9046469"><ele>983.0</ele><time>2026-04-18T15:24:31.58Z</time></trkpt><trkpt lat="44.2385979" lon="7.9044674"><ele>983.0</ele><time>2026-04-18T15:24:32.581Z</time></trkpt><trkpt lat="44.2387086" lon="7.9043127"><ele>983.0</ele><time>2026-04-18T15:24:33.582Z</time></trkpt><trkpt lat="44.238833" lon="7.904155"><ele>981.75</ele><time>2026-04-18T15:24:34.58Z</time></trkpt><trkpt lat="44.2389512" lon="7.9040135"><ele>980.5</ele><time>2026-04-18T15:24:35.581Z</time></trkpt><trkpt lat="44.2390782" lon="7.9038955"><ele>979.25</ele><time>2026-04-18T15:24:36.581Z</time></trkpt><trkpt lat="44.2391961" lon="7.9037955"><ele>978.0</ele><time>2026-04-18T15:24:37.581Z</time></trkpt><trkpt lat="44.2393342" lon="7.903743"><ele>978.0</ele><time>2026-04-18T15:24:38.581Z</time></trkpt><trkpt lat="44.2394723" lon="7.9036755"><ele>978.0</ele><time>2026-04-18T15:24:39.582Z</time></trkpt><trkpt lat="44.2396094" lon="7.9036374"><ele>978.0</ele><time>2026-04-18T15:24:40.581Z</time></trkpt><trkpt lat="44.23974" lon="7.9035915"><ele>978.0</ele><time>2026-04-18T15:24:41.581Z</time></trkpt><trkpt lat="44.2398541" lon="7.9035153"><ele>977.5</ele><time>2026-04-18T15:24:42.58Z</time></trkpt><trkpt lat="44.2399301" lon="7.903399"><ele>977.0</ele><time>2026-04-18T15:24:43.58Z</time></trkpt><trkpt lat="44.239968" lon="7.9032618"><ele>976.5</ele><time>2026-04-18T15:24:44.581Z</time></trkpt><trkpt lat="44.2400122" lon="7.9031303"><ele>976.0</ele><time>2026-04-18T15:24:45.581Z</time></trkpt><trkpt lat="44.2400438" lon="7.90295"><ele>976.0</ele><time>2026-04-18T15:24:46.581Z</time></trkpt><trkpt lat="44.2401259" lon="7.9028034"><ele>976.0</ele><time>2026-04-18T15:24:47.58Z</time></trkpt><trkpt lat="44.2402234" lon="7.9026794"><ele>976.0</ele><time>2026-04-18T15:24:48.58Z</time></trkpt><trkpt lat="44.240326" lon="7.9025618"><ele>976.0</ele><time>2026-04-18T15:24:49.582Z</time></trkpt><trkpt lat="44.2404735" lon="7.9025451"><ele>979.0</ele><time>2026-04-18T15:24:50.581Z</time></trkpt><trkpt lat="44.2405936" lon="7.9025619"><ele>982.0</ele><time>2026-04-18T15:24:51.58Z</time></trkpt><trkpt lat="44.2407305" lon="7.9026593"><ele>985.0</ele><time>2026-04-18T15:24:52.58Z</time></trkpt><trkpt lat="44.2408717" lon="7.902751"><ele>988.0</ele><time>2026-04-18T15:24:53.581Z</time></trkpt><trkpt lat="44.2410336" lon="7.9028141"><ele>988.0</ele><time>2026-04-18T15:24:54.58Z</time></trkpt><trkpt lat="44.2411845" lon="7.9028757"><ele>988.0</ele><time>2026-04-18T15:24:55.581Z</time></trkpt><trkpt lat="44.2413906" lon="7.9027742"><ele>988.0</ele><time>2026-04-18T15:24:56.581Z</time></trkpt><trkpt lat="44.241566" lon="7.9027319"><ele>989.6666666666666</ele><time>2026-04-18T15:24:57.582Z</time></trkpt><trkpt lat="44.2417546" lon="7.9026784"><ele>991.3333333333333</ele><time>2026-04-18T15:24:58.581Z</time></trkpt><trkpt lat="44.2419377" lon="7.9026177"><ele>993.0</ele><time>2026-04-18T15:24:59.58Z</time></trkpt><trkpt lat="44.2421091" lon="7.9025196"><ele>988.3333333333333</ele><time>2026-04-18T15:25:00.581Z</time></trkpt><trkpt lat="44.2422532" lon="7.9023837"><ele>983.6666666666666</ele><time>2026-04-18T15:25:01.58Z</time></trkpt><trkpt lat="44.242382" lon="7.902235"><ele>979.0</ele><time>2026-04-18T15:25:02.581Z</time></trkpt><trkpt lat="44.2425135" lon="7.9020928"><ele>979.0</ele><time>2026-04-18T15:25:03.581Z</time></trkpt><trkpt lat="44.2426574" lon="7.901961"><ele>979.0</ele><time>2026-04-18T15:25:04.581Z</time></trkpt><trkpt lat="44.242801" lon="7.9018415"><ele>979.0</ele><time>2026-04-18T15:25:05.58Z</time></trkpt><trkpt lat="44.2429888" lon="7.9017765"><ele>973.6666666666666</ele><time>2026-04-18T15:25:06.582Z</time></trkpt><trkpt lat="44.2431593" lon="7.9016673"><ele>968.3333333333333</ele><time>2026-04-18T15:25:07.581Z</time></trkpt><trkpt lat="44.2433233" lon="7.9015628"><ele>963.0</ele><time>2026-04-18T15:25:08.581Z</time></trkpt><trkpt lat="44.2435067" lon="7.9014937"><ele>963.0</ele><time>2026-04-18T15:25:09.58Z</time></trkpt><trkpt lat="44.2436733" lon="7.9014183"><ele>963.0</ele><time>2026-04-18T15:25:10.581Z</time></trkpt><trkpt lat="44.243837" lon="7.9013607"><ele>963.0</ele><time>2026-04-18T15:25:11.581Z</time></trkpt><trkpt lat="44.2439985" lon="7.9013469"><ele>964.3333333333333</ele><time>2026-04-18T15:25:12.581Z</time></trkpt><trkpt lat="44.2441668" lon="7.9013885"><ele>965.6666666666666</ele><time>2026-04-18T15:25:13.581Z</time></trkpt><trkpt lat="44.2443202" lon="7.901438"><ele>967.0</ele><time>2026-04-18T15:25:14.581Z</time></trkpt><trkpt lat="44.2444813" lon="7.9014827"><ele>967.0</ele><time>2026-04-18T15:25:15.581Z</time></trkpt><trkpt lat="44.244641" lon="7.9014878"><ele>967.0</ele><time>2026-04-18T15:25:16.58Z</time></trkpt><trkpt lat="44.2447918" lon="7.9014499"><ele>967.0</ele><time>2026-04-18T15:25:17.58Z</time></trkpt><trkpt lat="44.2449248" lon="7.9013778"><ele>966.3333333333333</ele><time>2026-04-18T15:25:18.58Z</time></trkpt><trkpt lat="44.2450594" lon="7.9013052"><ele>965.6666666666667</ele><time>2026-04-18T15:25:19.58Z</time></trkpt><trkpt lat="44.245195" lon="7.9012015"><ele>965.0</ele><time>2026-04-18T15:25:20.581Z</time></trkpt><trkpt lat="44.2451735" lon="7.9009379"><ele>959.6666666666667</ele><time>2026-04-18T15:25:21.581Z</time></trkpt><trkpt lat="44.2452432" lon="7.9007503"><ele>954.3333333333333</ele><time>2026-04-18T15:25:22.58Z</time></trkpt><trkpt lat="44.2453314" lon="7.9005791"><ele>949.0</ele><time>2026-04-18T15:25:23.581Z</time></trkpt><trkpt lat="44.2454221" lon="7.9004112"><ele>949.0</ele><time>2026-04-18T15:25:24.582Z</time></trkpt><trkpt lat="44.2455235" lon="7.9002628"><ele>949.0</ele><time>2026-04-18T15:25:25.581Z</time></trkpt><trkpt lat="44.2456338" lon="7.9001316"><ele>949.0</ele><time>2026-04-18T15:25:26.581Z</time></trkpt><trkpt lat="44.2457531" lon="7.9000362"><ele>949.0</ele><time>2026-04-18T15:25:27.581Z</time></trkpt><trkpt lat="44.245878" lon="7.8999308"><ele>948.3333333333333</ele><time>2026-04-18T15:25:28.58Z</time></trkpt><trkpt lat="44.246099" lon="7.8998713"><ele>947.6666666666667</ele><time>2026-04-18T15:25:29.582Z</time></trkpt><trkpt lat="44.2462638" lon="7.8997642"><ele>947.0</ele><time>2026-04-18T15:25:30.581Z</time></trkpt><trkpt lat="44.2464336" lon="7.8996839"><ele>955.0</ele><time>2026-04-18T15:25:31.581Z</time></trkpt><trkpt lat="44.2466288" lon="7.899593"><ele>963.0</ele><time>2026-04-18T15:25:32.58Z</time></trkpt><trkpt lat="44.246824" lon="7.8995266"><ele>971.0</ele><time>2026-04-18T15:25:33.58Z</time></trkpt><trkpt lat="44.2470258" lon="7.8994663"><ele>971.0</ele><time>2026-04-18T15:25:34.58Z</time></trkpt><trkpt lat="44.2472518" lon="7.8994212"><ele>971.0</ele><time>2026-04-18T15:25:35.581Z</time></trkpt><trkpt lat="44.2474522" lon="7.8993483"><ele>971.0</ele><time>2026-04-18T15:25:36.581Z</time></trkpt><trkpt lat="44.2476365" lon="7.8992707"><ele>959.3333333333334</ele><time>2026-04-18T15:25:37.582Z</time></trkpt><trkpt lat="44.2478277" lon="7.8992124"><ele>947.6666666666667</ele><time>2026-04-18T15:25:38.581Z</time></trkpt><trkpt lat="44.2479831" lon="7.8991979"><ele>936.0</ele><time>2026-04-18T15:25:39.58Z</time></trkpt><trkpt lat="44.248135" lon="7.8992313"><ele>947.0</ele><time>2026-04-18T15:25:40.581Z</time></trkpt><trkpt lat="44.2482896" lon="7.899273"><ele>958.0</ele><time>2026-04-18T15:25:41.58Z</time></trkpt><trkpt lat="44.2484092" lon="7.8994719"><ele>969.0</ele><time>2026-04-18T15:25:42.581Z</time></trkpt><trkpt lat="44.2485483" lon="7.8995637"><ele>969.0</ele><time>2026-04-18T15:25:43.582Z</time></trkpt><trkpt lat="44.248671" lon="7.8996378"><ele>969.0</ele><time>2026-04-18T15:25:44.581Z</time></trkpt><trkpt lat="44.2487999" lon="7.8995837"><ele>969.0</ele><time>2026-04-18T15:25:45.58Z</time></trkpt><trkpt lat="44.2489582" lon="7.8995526"><ele>969.0</ele><time>2026-04-18T15:25:46.58Z</time></trkpt><trkpt lat="44.2491074" lon="7.8994972"><ele>967.3333333333333</ele><time>2026-04-18T15:25:47.581Z</time></trkpt><trkpt lat="44.2492512" lon="7.8994508"><ele>965.6666666666666</ele><time>2026-04-18T15:25:48.58Z</time></trkpt><trkpt lat="44.2494123" lon="7.8994522"><ele>964.0</ele><time>2026-04-18T15:25:49.58Z</time></trkpt><trkpt lat="44.2495804" lon="7.8994537"><ele>964.0</ele><time>2026-04-18T15:25:50.581Z</time></trkpt><trkpt lat="44.2497702" lon="7.8995008"><ele>964.0</ele><time>2026-04-18T15:25:51.581Z</time></trkpt><trkpt lat="44.2499411" lon="7.8995321"><ele>964.0</ele><time>2026-04-18T15:25:52.58Z</time></trkpt><trkpt lat="44.2500769" lon="7.8995615"><ele>967.6</ele><time>2026-04-18T15:25:53.581Z</time></trkpt><trkpt lat="44.2502024" lon="7.8995968"><ele>971.2</ele><time>2026-04-18T15:25:54.581Z</time></trkpt><trkpt lat="44.2502803" lon="7.8996255"><ele>974.8000000000001</ele><time>2026-04-18T15:25:55.581Z</time></trkpt><trkpt lat="44.2503733" lon="7.8996258"><ele>978.4000000000001</ele><time>2026-04-18T15:25:56.582Z</time></trkpt><trkpt lat="44.2503031" lon="7.8995762"><ele>982.0</ele><time>2026-04-18T15:26:00.58Z</time></trkpt><trkpt lat="44.2501699" lon="7.8995401"><ele>982.0</ele><time>2026-04-18T15:26:02.581Z</time></trkpt><trkpt lat="44.2500793" lon="7.8995485"><ele>982.0</ele><time>2026-04-18T15:26:03.581Z</time></trkpt><trkpt lat="44.250005" lon="7.8995701"><ele>982.0</ele><time>2026-04-18T15:26:04.581Z</time></trkpt><trkpt lat="44.2498778" lon="7.8994853"><ele>982.0</ele><time>2026-04-18T15:26:05.581Z</time></trkpt><trkpt lat="44.2497574" lon="7.8994587"><ele>982.0</ele><time>2026-04-18T15:26:06.581Z</time></trkpt><trkpt lat="44.2496381" lon="7.8993983"><ele>977.5</ele><time>2026-04-18T15:26:07.581Z</time></trkpt><trkpt lat="44.2495061" lon="7.8993411"><ele>973.0</ele><time>2026-04-18T15:26:08.581Z</time></trkpt><trkpt lat="44.2493883" lon="7.8993301"><ele>968.5</ele><time>2026-04-18T15:26:09.58Z</time></trkpt><trkpt lat="44.2492643" lon="7.8993412"><ele>964.0</ele><time>2026-04-18T15:26:10.58Z</time></trkpt><trkpt lat="44.2491394" lon="7.8993802"><ele>964.0</ele><time>2026-04-18T15:26:11.58Z</time></trkpt><trkpt lat="44.249014" lon="7.8994442"><ele>964.0</ele><time>2026-04-18T15:26:12.58Z</time></trkpt><trkpt lat="44.2488926" lon="7.8995121"><ele>964.0</ele><time>2026-04-18T15:26:13.581Z</time></trkpt><trkpt lat="44.2487664" lon="7.8995986"><ele>964.0</ele><time>2026-04-18T15:26:14.582Z</time></trkpt><trkpt lat="44.2486491" lon="7.8995625"><ele>965.25</ele><time>2026-04-18T15:26:15.581Z</time></trkpt><trkpt lat="44.2485303" lon="7.8994996"><ele>966.5</ele><time>2026-04-18T15:26:16.58Z</time></trkpt><trkpt lat="44.2484172" lon="7.8994344"><ele>967.75</ele><time>2026-04-18T15:26:17.582Z</time></trkpt><trkpt lat="44.2482943" lon="7.8992925"><ele>969.0</ele><time>2026-04-18T15:26:18.582Z</time></trkpt><trkpt lat="44.2481797" lon="7.8992086"><ele>962.2</ele><time>2026-04-18T15:26:19.58Z</time></trkpt><trkpt lat="44.2480767" lon="7.8991649"><ele>955.4000000000001</ele><time>2026-04-18T15:26:20.58Z</time></trkpt><trkpt lat="44.2479775" lon="7.8991451"><ele>948.6</ele><time>2026-04-18T15:26:21.582Z</time></trkpt><trkpt lat="44.2479016" lon="7.8991773"><ele>941.8</ele><time>2026-04-18T15:26:22.581Z</time></trkpt><trkpt lat="44.2478361" lon="7.8991487"><ele>935.0</ele><time>2026-04-18T15:26:24.58Z</time></trkpt><trkpt lat="44.2479315" lon="7.8990559"><ele>935.0</ele><time>2026-04-18T15:26:26.581Z</time></trkpt><trkpt lat="44.2480121" lon="7.8990377"><ele>935.0</ele><time>2026-04-18T15:26:27.581Z</time></trkpt><trkpt lat="44.2480958" lon="7.8990364"><ele>935.0</ele><time>2026-04-18T15:26:28.581Z</time></trkpt><trkpt lat="44.2481969" lon="7.8990574"><ele>935.0</ele><time>2026-04-18T15:26:29.582Z</time></trkpt><trkpt lat="44.2482939" lon="7.8991019"><ele>935.0</ele><time>2026-04-18T15:26:30.581Z</time></trkpt><trkpt lat="44.2483789" lon="7.8991455"><ele>935.1666666666667</ele><time>2026-04-18T15:26:31.58Z</time></trkpt><trkpt lat="44.2484568" lon="7.8991837"><ele>935.3333333333334</ele><time>2026-04-18T15:26:32.58Z</time></trkpt><trkpt lat="44.2485341" lon="7.8992053"><ele>935.5</ele><time>2026-04-18T15:26:33.58Z</time></trkpt><trkpt lat="44.248615" lon="7.8992274"><ele>935.6666666666667</ele><time>2026-04-18T15:26:34.58Z</time></trkpt><trkpt lat="44.2486856" lon="7.8992711"><ele>935.8333333333334</ele><time>2026-04-18T15:26:35.581Z</time></trkpt><trkpt lat="44.2487541" lon="7.8993211"><ele>936.0</ele><time>2026-04-18T15:26:36.58Z</time></trkpt><trkpt lat="44.2488215" lon="7.899328"><ele>936.0</ele><time>2026-04-18T15:26:37.581Z</time></trkpt><trkpt lat="44.248882" lon="7.8993007"><ele>935.9999999999999</ele><time>2026-04-18T15:26:38.58Z</time></trkpt><trkpt lat="44.2489436" lon="7.8991237"><ele>935.9999999999999</ele><time>2026-04-18T15:26:40.58Z</time></trkpt><trkpt lat="44.2489915" lon="7.8990349"><ele>936.0</ele><time>2026-04-18T15:26:41.581Z</time></trkpt><trkpt lat="44.2490492" lon="7.8989661"><ele>936.0</ele><time>2026-04-18T15:26:42.58Z</time></trkpt><trkpt lat="44.2491159" lon="7.898881"><ele>935.1999999999999</ele><time>2026-04-18T15:26:43.58Z</time></trkpt><trkpt lat="44.2491665" lon="7.8988"><ele>934.3999999999999</ele><time>2026-04-18T15:26:44.582Z</time></trkpt><trkpt lat="44.2492428" lon="7.8987276"><ele>933.6</ele><time>2026-04-18T15:26:45.581Z</time></trkpt><trkpt lat="44.2493251" lon="7.8987387"><ele>932.8</ele><time>2026-04-18T15:26:46.582Z</time></trkpt><trkpt lat="44.2494223" lon="7.8987453"><ele>932.0</ele><time>2026-04-18T15:26:47.581Z</time></trkpt><trkpt lat="44.2495226" lon="7.8987724"><ele>932.0</ele><time>2026-04-18T15:26:48.581Z</time></trkpt><trkpt lat="44.2496352" lon="7.8988312"><ele>932.0</ele><time>2026-04-18T15:26:49.581Z</time></trkpt><trkpt lat="44.2497491" lon="7.8988834"><ele>932.0</ele><time>2026-04-18T15:26:50.583Z</time></trkpt><trkpt lat="44.2498835" lon="7.8989072"><ele>932.0</ele><time>2026-04-18T15:26:51.582Z</time></trkpt><trkpt lat="44.2500165" lon="7.8989432"><ele>932.25</ele><time>2026-04-18T15:26:52.583Z</time></trkpt><trkpt lat="44.250144" lon="7.8989067"><ele>932.5</ele><time>2026-04-18T15:26:53.581Z</time></trkpt><trkpt lat="44.2502786" lon="7.8988938"><ele>932.75</ele><time>2026-04-18T15:26:54.581Z</time></trkpt><trkpt lat="44.2504112" lon="7.8988896"><ele>933.0</ele><time>2026-04-18T15:26:55.582Z</time></trkpt><trkpt lat="44.2505596" lon="7.8988715"><ele>931.25</ele><time>2026-04-18T15:26:56.582Z</time></trkpt><trkpt lat="44.2507065" lon="7.8988814"><ele>929.5</ele><time>2026-04-18T15:26:57.581Z</time></trkpt><trkpt lat="44.2508436" lon="7.8988603"><ele>927.75</ele><time>2026-04-18T15:26:58.582Z</time></trkpt><trkpt lat="44.2509735" lon="7.8988615"><ele>926.0</ele><time>2026-04-18T15:26:59.581Z</time></trkpt><trkpt lat="44.2510992" lon="7.8988656"><ele>926.0</ele><time>2026-04-18T15:27:00.582Z</time></trkpt><trkpt lat="44.2512105" lon="7.898847"><ele>925.9999999999999</ele><time>2026-04-18T15:27:01.581Z</time></trkpt><trkpt lat="44.2513095" lon="7.8988088"><ele>925.9999999999999</ele><time>2026-04-18T15:27:02.581Z</time></trkpt><trkpt lat="44.2513856" lon="7.8987874"><ele>926.0</ele><time>2026-04-18T15:27:03.582Z</time></trkpt><trkpt lat="44.2514865" lon="7.8987506"><ele>926.0</ele><time>2026-04-18T15:27:04.582Z</time></trkpt><trkpt lat="44.2515708" lon="7.898704"><ele>924.6666666666667</ele><time>2026-04-18T15:27:05.582Z</time></trkpt><trkpt lat="44.2516606" lon="7.8986568"><ele>923.3333333333334</ele><time>2026-04-18T15:27:06.581Z</time></trkpt><trkpt lat="44.2517338" lon="7.8986246"><ele>922.0</ele><time>2026-04-18T15:27:07.581Z</time></trkpt><trkpt lat="44.2517968" lon="7.8986038"><ele>920.6666666666667</ele><time>2026-04-18T15:27:08.583Z</time></trkpt><trkpt lat="44.2518701" lon="7.8985717"><ele>919.3333333333334</ele><time>2026-04-18T15:27:09.581Z</time></trkpt><trkpt lat="44.2519683" lon="7.8985564"><ele>918.0</ele><time>2026-04-18T15:27:10.582Z</time></trkpt><trkpt lat="44.2520502" lon="7.8985316"><ele>918.0</ele><time>2026-04-18T15:27:11.582Z</time></trkpt><trkpt lat="44.252134" lon="7.8985115"><ele>918.0</ele><time>2026-04-18T15:27:12.582Z</time></trkpt><trkpt lat="44.252233" lon="7.8984986"><ele>918.0</ele><time>2026-04-18T15:27:13.582Z</time></trkpt><trkpt lat="44.2523357" lon="7.8984992"><ele>918.0</ele><time>2026-04-18T15:27:14.582Z</time></trkpt><trkpt lat="44.252428" lon="7.8984856"><ele>918.0</ele><time>2026-04-18T15:27:15.582Z</time></trkpt><trkpt lat="44.2525208" lon="7.8984956"><ele>916.6666666666666</ele><time>2026-04-18T15:27:16.583Z</time></trkpt><trkpt lat="44.2526031" lon="7.8985183"><ele>915.3333333333333</ele><time>2026-04-18T15:27:17.582Z</time></trkpt><trkpt lat="44.2526899" lon="7.8985487"><ele>914.0</ele><time>2026-04-18T15:27:18.581Z</time></trkpt><trkpt lat="44.2527652" lon="7.8985727"><ele>912.6666666666666</ele><time>2026-04-18T15:27:19.583Z</time></trkpt><trkpt lat="44.2528336" lon="7.8985923"><ele>911.3333333333333</ele><time>2026-04-18T15:27:20.582Z</time></trkpt><trkpt lat="44.2529442" lon="7.8985983"><ele>910.0</ele><time>2026-04-18T15:27:22.582Z</time></trkpt><trkpt lat="44.2530664" lon="7.8985603"><ele>906.5</ele><time>2026-04-18T15:27:24.582Z</time></trkpt><trkpt lat="44.2531881" lon="7.8984811"><ele>903.0</ele><time>2026-04-18T15:27:26.583Z</time></trkpt><trkpt lat="44.2533191" lon="7.8984815"><ele>899.5</ele><time>2026-04-18T15:27:28.583Z</time></trkpt><trkpt lat="44.2534482" lon="7.8985054"><ele>896.0</ele><time>2026-04-18T15:27:30.582Z</time></trkpt><trkpt lat="44.2534093" lon="7.8983822"><ele>893.8</ele><time>2026-04-18T15:27:32.582Z</time></trkpt><trkpt lat="44.2532943" lon="7.8983379"><ele>891.5999999999999</ele><time>2026-04-18T15:27:34.581Z</time></trkpt><trkpt lat="44.2532157" lon="7.8982911"><ele>889.4</ele><time>2026-04-18T15:27:35.581Z</time></trkpt><trkpt lat="44.2531449" lon="7.8982548"><ele>887.2</ele><time>2026-04-18T15:27:36.582Z</time></trkpt><trkpt lat="44.2530875" lon="7.8981849"><ele>885.0</ele><time>2026-04-18T15:27:38.581Z</time></trkpt><trkpt lat="44.2532083" lon="7.8981573"><ele>885.0</ele><time>2026-04-18T15:27:42.582Z</time></trkpt><trkpt lat="44.2533216" lon="7.8981963"><ele>885.0</ele><time>2026-04-18T15:27:43.583Z</time></trkpt><trkpt lat="44.2534316" lon="7.8982079"><ele>885.0</ele><time>2026-04-18T15:27:44.581Z</time></trkpt><trkpt lat="44.2535636" lon="7.898203"><ele>885.0</ele><time>2026-04-18T15:27:45.581Z</time></trkpt><trkpt lat="44.2536712" lon="7.8982043"><ele>885.0</ele><time>2026-04-18T15:27:46.581Z</time></trkpt><trkpt lat="44.2537745" lon="7.8982849"><ele>885.0</ele><time>2026-04-18T15:27:47.582Z</time></trkpt><trkpt lat="44.2538657" lon="7.8983322"><ele>885.0</ele><time>2026-04-18T15:27:48.583Z</time></trkpt><trkpt lat="44.2539516" lon="7.8983285"><ele>885.0</ele><time>2026-04-18T15:27:49.581Z</time></trkpt><trkpt lat="44.2540287" lon="7.8983306"><ele>885.0</ele><time>2026-04-18T15:27:50.581Z</time></trkpt><trkpt lat="44.2541115" lon="7.8983151"><ele>886.0</ele><time>2026-04-18T15:27:51.582Z</time></trkpt><trkpt lat="44.2541815" lon="7.8982436"><ele>887.0</ele><time>2026-04-18T15:27:52.582Z</time></trkpt><trkpt lat="44.254273" lon="7.8981537"><ele>888.0</ele><time>2026-04-18T15:27:53.582Z</time></trkpt><trkpt lat="44.2543697" lon="7.898072"><ele>889.0</ele><time>2026-04-18T15:27:54.581Z</time></trkpt><trkpt lat="44.2544631" lon="7.8980093"><ele>890.0</ele><time>2026-04-18T15:27:55.581Z</time></trkpt><trkpt lat="44.2545586" lon="7.8979247"><ele>890.0000000000001</ele><time>2026-04-18T15:27:56.581Z</time></trkpt><trkpt lat="44.2546674" lon="7.8978604"><ele>890.0</ele><time>2026-04-18T15:27:57.582Z</time></trkpt><trkpt lat="44.2547492" lon="7.8978383"><ele>890.0</ele><time>2026-04-18T15:27:58.583Z</time></trkpt><trkpt lat="44.2548311" lon="7.8977822"><ele>890.0</ele><time>2026-04-18T15:27:59.582Z</time></trkpt><trkpt lat="44.2548942" lon="7.8977281"><ele>890.0000000000001</ele><time>2026-04-18T15:28:00.582Z</time></trkpt><trkpt lat="44.2549536" lon="7.8976624"><ele>890.0</ele><time>2026-04-18T15:28:01.581Z</time></trkpt><trkpt lat="44.2549608" lon="7.89751"><ele>892.5000000000001</ele><time>2026-04-18T15:28:02.583Z</time></trkpt><trkpt lat="44.2550101" lon="7.8974166"><ele>895.0</ele><time>2026-04-18T15:28:03.581Z</time></trkpt><trkpt lat="44.2550782" lon="7.8973157"><ele>897.5</ele><time>2026-04-18T15:28:04.582Z</time></trkpt><trkpt lat="44.2551351" lon="7.8972385"><ele>900.0</ele><time>2026-04-18T15:28:05.581Z</time></trkpt><trkpt lat="44.2551984" lon="7.8971016"><ele>902.5000000000001</ele><time>2026-04-18T15:28:07.582Z</time></trkpt><trkpt lat="44.2551359" lon="7.8970795"><ele>905.0</ele><time>2026-04-18T15:28:09.583Z</time></trkpt><trkpt lat="44.2550579" lon="7.897154"><ele>905.0</ele><time>2026-04-18T15:28:11.582Z</time></trkpt><trkpt lat="44.2549527" lon="7.8972757"><ele>905.0</ele><time>2026-04-18T15:28:13.583Z</time></trkpt><trkpt lat="44.2548888" lon="7.8973386"><ele>905.0</ele><time>2026-04-18T15:28:14.581Z</time></trkpt><trkpt lat="44.2548097" lon="7.8974605"><ele>905.0</ele><time>2026-04-18T15:28:16.582Z</time></trkpt><trkpt lat="44.2547636" lon="7.8975364"><ele>905.0</ele><time>2026-04-18T15:28:18.581Z</time></trkpt><trkpt lat="44.2547016" lon="7.8975836"><ele>902.5000000000001</ele><time>2026-04-18T15:28:20.582Z</time></trkpt><trkpt lat="44.2546027" lon="7.8976183"><ele>900.0</ele><time>2026-04-18T15:28:22.581Z</time></trkpt><trkpt lat="44.2545363" lon="7.8976326"><ele>897.5</ele><time>2026-04-18T15:28:24.582Z</time></trkpt><trkpt lat="44.2544076" lon="7.8976756"><ele>895.0</ele><time>2026-04-18T15:28:26.582Z</time></trkpt><trkpt lat="44.2543452" lon="7.8976968"><ele>892.5000000000001</ele><time>2026-04-18T15:28:27.582Z</time></trkpt><trkpt lat="44.2542804" lon="7.8977253"><ele>890.0</ele><time>2026-04-18T15:28:28.581Z</time></trkpt><trkpt lat="44.2541943" lon="7.8977564"><ele>890.0</ele><time>2026-04-18T15:28:30.582Z</time></trkpt><trkpt lat="44.2540864" lon="7.8977595"><ele>890.0</ele><time>2026-04-18T15:28:53.582Z</time></trkpt><trkpt lat="44.2539551" lon="7.897739"><ele>890.0</ele><time>2026-04-18T15:28:55.582Z</time></trkpt><trkpt lat="44.2538307" lon="7.8977328"><ele>890.0</ele><time>2026-04-18T15:28:57.582Z</time></trkpt><trkpt lat="44.2537657" lon="7.8977499"><ele>890.0</ele><time>2026-04-18T15:28:59.583Z</time></trkpt><trkpt lat="44.2538584" lon="7.8977579"><ele>890.0000000000001</ele><time>2026-04-18T15:29:06.581Z</time></trkpt><trkpt lat="44.2539272" lon="7.8977866"><ele>890.0</ele><time>2026-04-18T15:29:07.582Z</time></trkpt><trkpt lat="44.2540058" lon="7.8977854"><ele>890.0</ele><time>2026-04-18T15:29:08.583Z</time></trkpt><trkpt lat="44.2540932" lon="7.8978068"><ele>890.0</ele><time>2026-04-18T15:29:09.583Z</time></trkpt><trkpt lat="44.2541588" lon="7.8978009"><ele>890.0000000000001</ele><time>2026-04-18T15:29:10.582Z</time></trkpt><trkpt lat="44.2542325" lon="7.8977968"><ele>890.0</ele><time>2026-04-18T15:29:11.582Z</time></trkpt><trkpt lat="44.2543172" lon="7.8977872"><ele>890.0000000000001</ele><time>2026-04-18T15:29:12.582Z</time></trkpt><trkpt lat="44.2543986" lon="7.8977624"><ele>890.0</ele><time>2026-04-18T15:29:13.582Z</time></trkpt><trkpt lat="44.2544825" lon="7.8977356"><ele>890.0</ele><time>2026-04-18T15:29:14.581Z</time></trkpt><trkpt lat="44.254561" lon="7.8977157"><ele>890.0</ele><time>2026-04-18T15:29:15.581Z</time></trkpt><trkpt lat="44.2546416" lon="7.8976695"><ele>890.0000000000001</ele><time>2026-04-18T15:29:16.582Z</time></trkpt><trkpt lat="44.2547164" lon="7.8976438"><ele>890.0</ele><time>2026-04-18T15:29:17.582Z</time></trkpt><trkpt lat="44.2548219" lon="7.8975439"><ele>892.5000000000001</ele><time>2026-04-18T15:29:19.581Z</time></trkpt><trkpt lat="44.2548687" lon="7.897431"><ele>895.0</ele><time>2026-04-18T15:29:20.582Z</time></trkpt><trkpt lat="44.2549231" lon="7.897344"><ele>897.5</ele><time>2026-04-18T15:29:21.581Z</time></trkpt><trkpt lat="44.2549839" lon="7.8972927"><ele>900.0</ele><time>2026-04-18T15:29:22.582Z</time></trkpt><trkpt lat="44.2550427" lon="7.8972265"><ele>902.5000000000001</ele><time>2026-04-18T15:29:23.582Z</time></trkpt><trkpt lat="44.2551204" lon="7.8971318"><ele>905.0</ele><time>2026-04-18T15:29:25.581Z</time></trkpt><trkpt lat="44.2551419" lon="7.8970073"><ele>905.0000000000001</ele><time>2026-04-18T15:29:27.581Z</time></trkpt><trkpt lat="44.2551178" lon="7.8968692"><ele>905.0</ele><time>2026-04-18T15:29:29.582Z</time></trkpt><trkpt lat="44.255109" lon="7.896759"><ele>905.0</ele><time>2026-04-18T15:29:31.582Z</time></trkpt><trkpt lat="44.2551921" lon="7.896707"><ele>905.0</ele><time>2026-04-18T15:29:36.581Z</time></trkpt><trkpt lat="44.2552538" lon="7.8967284"><ele>905.0000000000001</ele><time>2026-04-18T15:29:37.582Z</time></trkpt><trkpt lat="44.2553647" lon="7.8967581"><ele>905.0</ele><time>2026-04-18T15:29:39.583Z</time></trkpt><trkpt lat="44.2554153" lon="7.8968451"><ele>905.0000000000001</ele><time>2026-04-18T15:29:40.581Z</time></trkpt><trkpt lat="44.2554743" lon="7.8968807"><ele>905.0</ele><time>2026-04-18T15:29:41.581Z</time></trkpt><trkpt lat="44.2555212" lon="7.896949"><ele>905.0</ele><time>2026-04-18T15:29:42.582Z</time></trkpt><trkpt lat="44.2555685" lon="7.8971428"><ele>905.0</ele><time>2026-04-18T15:29:44.581Z</time></trkpt><trkpt lat="44.2555993" lon="7.8972385"><ele>905.0000000000001</ele><time>2026-04-18T15:29:45.581Z</time></trkpt><trkpt lat="44.255623" lon="7.8973461"><ele>905.0</ele><time>2026-04-18T15:29:46.582Z</time></trkpt><trkpt lat="44.2556469" lon="7.8974283"><ele>907.1428571428571</ele><time>2026-04-18T15:29:47.581Z</time></trkpt><trkpt lat="44.255669" lon="7.8975198"><ele>909.2857142857142</ele><time>2026-04-18T15:29:48.582Z</time></trkpt><trkpt lat="44.2557342" lon="7.8975512"><ele>911.4285714285713</ele><time>2026-04-18T15:29:49.581Z</time></trkpt><trkpt lat="44.2557986" lon="7.8975739"><ele>913.5714285714284</ele><time>2026-04-18T15:29:50.581Z</time></trkpt><trkpt lat="44.2558683" lon="7.8976034"><ele>915.7142857142857</ele><time>2026-04-18T15:29:51.581Z</time></trkpt><trkpt lat="44.2559399" lon="7.8976509"><ele>917.8571428571427</ele><time>2026-04-18T15:29:52.582Z</time></trkpt><trkpt lat="44.2560086" lon="7.8977089"><ele>919.9999999999999</ele><time>2026-04-18T15:29:53.582Z</time></trkpt><trkpt lat="44.2560864" lon="7.8977678"><ele>920.1666666666667</ele><time>2026-04-18T15:29:54.581Z</time></trkpt><trkpt lat="44.2561608" lon="7.8978288"><ele>920.3333333333334</ele><time>2026-04-18T15:29:55.581Z</time></trkpt><trkpt lat="44.2562237" lon="7.8978894"><ele>920.5</ele><time>2026-04-18T15:29:56.581Z</time></trkpt><trkpt lat="44.2562862" lon="7.8979413"><ele>920.6666666666667</ele><time>2026-04-18T15:29:57.582Z</time></trkpt><trkpt lat="44.2563564" lon="7.8979875"><ele>920.8333333333334</ele><time>2026-04-18T15:29:58.583Z</time></trkpt><trkpt lat="44.2564277" lon="7.8980299"><ele>921.0</ele><time>2026-04-18T15:29:59.581Z</time></trkpt><trkpt lat="44.2565008" lon="7.8980532"><ele>921.0</ele><time>2026-04-18T15:30:00.582Z</time></trkpt><trkpt lat="44.2566248" lon="7.898075"><ele>920.9999999999999</ele><time>2026-04-18T15:30:02.583Z</time></trkpt><trkpt lat="44.2567473" lon="7.898105"><ele>920.9999999999999</ele><time>2026-04-18T15:30:04.582Z</time></trkpt><trkpt lat="44.2567989" lon="7.898183"><ele>921.0</ele><time>2026-04-18T15:30:05.582Z</time></trkpt><trkpt lat="44.2568687" lon="7.8983023"><ele>921.0</ele><time>2026-04-18T15:30:07.581Z</time></trkpt><trkpt lat="44.2569143" lon="7.8983769"><ele>914.0</ele><time>2026-04-18T15:30:08.581Z</time></trkpt><trkpt lat="44.2569431" lon="7.8984936"><ele>906.9999999999999</ele><time>2026-04-18T15:30:09.581Z</time></trkpt><trkpt lat="44.256974" lon="7.8985791"><ele>899.9999999999999</ele><time>2026-04-18T15:30:10.582Z</time></trkpt><trkpt lat="44.2570742" lon="7.8986523"><ele>893.0</ele><time>2026-04-18T15:30:12.581Z</time></trkpt><trkpt lat="44.2571895" lon="7.8986463"><ele>886.0</ele><time>2026-04-18T15:30:14.582Z</time></trkpt><trkpt lat="44.2572555" lon="7.8986043"><ele>888.0</ele><time>2026-04-18T15:30:15.581Z</time></trkpt><trkpt lat="44.257338" lon="7.8985547"><ele>889.9999999999999</ele><time>2026-04-18T15:30:16.582Z</time></trkpt><trkpt lat="44.2574712" lon="7.8984621"><ele>891.9999999999999</ele><time>2026-04-18T15:30:18.582Z</time></trkpt><trkpt lat="44.2575381" lon="7.8984035"><ele>894.0</ele><time>2026-04-18T15:30:19.583Z</time></trkpt><trkpt lat="44.2576114" lon="7.8983732"><ele>896.0</ele><time>2026-04-18T15:30:20.582Z</time></trkpt><trkpt lat="44.2576858" lon="7.8983171"><ele>899.4</ele><time>2026-04-18T15:30:21.583Z</time></trkpt><trkpt lat="44.2577702" lon="7.898279"><ele>902.8</ele><time>2026-04-18T15:30:22.582Z</time></trkpt><trkpt lat="44.2578692" lon="7.8982269"><ele>906.1999999999999</ele><time>2026-04-18T15:30:23.582Z</time></trkpt><trkpt lat="44.2579575" lon="7.8981905"><ele>909.5999999999999</ele><time>2026-04-18T15:30:24.582Z</time></trkpt><trkpt lat="44.2580226" lon="7.8981624"><ele>913.0</ele><time>2026-04-18T15:30:25.581Z</time></trkpt><trkpt lat="44.2581186" lon="7.8980305"><ele>912.9999999999999</ele><time>2026-04-18T15:30:27.582Z</time></trkpt><trkpt lat="44.2581291" lon="7.8979425"><ele>913.0</ele><time>2026-04-18T15:30:28.582Z</time></trkpt><trkpt lat="44.2581493" lon="7.8978553"><ele>913.0</ele><time>2026-04-18T15:30:29.581Z</time></trkpt><trkpt lat="44.258161" lon="7.8977453"><ele>913.0</ele><time>2026-04-18T15:30:30.582Z</time></trkpt><trkpt lat="44.258178" lon="7.8976396"><ele>912.9999999999999</ele><time>2026-04-18T15:30:31.582Z</time></trkpt><trkpt lat="44.2582545" lon="7.8974919"><ele>913.0</ele><time>2026-04-18T15:30:33.582Z</time></trkpt><trkpt lat="44.2583752" lon="7.8974428"><ele>912.9999999999999</ele><time>2026-04-18T15:30:35.581Z</time></trkpt><trkpt lat="44.2584472" lon="7.8974556"><ele>913.0</ele><time>2026-04-18T15:30:36.581Z</time></trkpt><trkpt lat="44.2585687" lon="7.8975483"><ele>913.0</ele><time>2026-04-18T15:30:38.581Z</time></trkpt><trkpt lat="44.2586239" lon="7.8975974"><ele>913.0</ele><time>2026-04-18T15:30:39.583Z</time></trkpt><trkpt lat="44.2586797" lon="7.8976574"><ele>912.9999999999999</ele><time>2026-04-18T15:30:40.581Z</time></trkpt><trkpt lat="44.2587528" lon="7.8977085"><ele>913.0</ele><time>2026-04-18T15:30:41.583Z</time></trkpt><trkpt lat="44.2588148" lon="7.8977457"><ele>912.9999999999999</ele><time>2026-04-18T15:30:42.581Z</time></trkpt><trkpt lat="44.258882" lon="7.8977671"><ele>913.0</ele><time>2026-04-18T15:30:43.581Z</time></trkpt><trkpt lat="44.2589493" lon="7.8977735"><ele>913.0</ele><time>2026-04-18T15:30:44.581Z</time></trkpt><trkpt lat="44.2590412" lon="7.8976715"><ele>913.0</ele><time>2026-04-18T15:30:46.583Z</time></trkpt><trkpt lat="44.2591043" lon="7.8975402"><ele>912.9999999999999</ele><time>2026-04-18T15:30:48.581Z</time></trkpt><trkpt lat="44.259159" lon="7.8974707"><ele>913.0</ele><time>2026-04-18T15:30:49.581Z</time></trkpt><trkpt lat="44.2592002" lon="7.8974"><ele>916.9999999999999</ele><time>2026-04-18T15:30:50.582Z</time></trkpt><trkpt lat="44.2592417" lon="7.8973219"><ele>921.0</ele><time>2026-04-18T15:30:51.583Z</time></trkpt><trkpt lat="44.2592761" lon="7.8972469"><ele>925.0</ele><time>2026-04-18T15:30:52.582Z</time></trkpt><trkpt lat="44.2593167" lon="7.8971793"><ele>929.0</ele><time>2026-04-18T15:30:53.581Z</time></trkpt><trkpt lat="44.2593705" lon="7.8970288"><ele>932.9999999999999</ele><time>2026-04-18T15:30:55.583Z</time></trkpt><trkpt lat="44.2594489" lon="7.8968833"><ele>937.0</ele><time>2026-04-18T15:30:57.583Z</time></trkpt><trkpt lat="44.2594994" lon="7.8968221"><ele>937.0</ele><time>2026-04-18T15:30:58.581Z</time></trkpt><trkpt lat="44.2595603" lon="7.8967892"><ele>937.0</ele><time>2026-04-18T15:30:59.583Z</time></trkpt><trkpt lat="44.25968" lon="7.8967334"><ele>937.0</ele><time>2026-04-18T15:31:01.583Z</time></trkpt><trkpt lat="44.2597422" lon="7.8967021"><ele>937.0</ele><time>2026-04-18T15:31:02.581Z</time></trkpt><trkpt lat="44.2598333" lon="7.8966729"><ele>937.0</ele><time>2026-04-18T15:31:03.583Z</time></trkpt><trkpt lat="44.2599653" lon="7.8965698"><ele>939.4999999999999</ele><time>2026-04-18T15:31:05.581Z</time></trkpt><trkpt lat="44.2600414" lon="7.8965345"><ele>942.0</ele><time>2026-04-18T15:31:06.581Z</time></trkpt><trkpt lat="44.2600667" lon="7.8964347"><ele>944.5</ele><time>2026-04-18T15:31:07.582Z</time></trkpt><trkpt lat="44.2601175" lon="7.8963175"><ele>947.0</ele><time>2026-04-18T15:31:09.582Z</time></trkpt><trkpt lat="44.2601619" lon="7.8962435"><ele>949.4999999999999</ele><time>2026-04-18T15:31:11.582Z</time></trkpt><trkpt lat="44.2602098" lon="7.8961531"><ele>952.0</ele><time>2026-04-18T15:31:14.582Z</time></trkpt><trkpt lat="44.2602987" lon="7.8961149"><ele>951.9999999999999</ele><time>2026-04-18T15:31:17.582Z</time></trkpt><trkpt lat="44.2604252" lon="7.8961291"><ele>952.0</ele><time>2026-04-18T15:31:18.583Z</time></trkpt><trkpt lat="44.2604883" lon="7.8960948"><ele>952.0</ele><time>2026-04-18T15:31:19.582Z</time></trkpt><trkpt lat="44.2605545" lon="7.8960567"><ele>952.0</ele><time>2026-04-18T15:31:20.581Z</time></trkpt><trkpt lat="44.2606061" lon="7.895972"><ele>951.9999999999999</ele><time>2026-04-18T15:31:22.582Z</time></trkpt><trkpt lat="44.2606448" lon="7.8958712"><ele>952.0</ele><time>2026-04-18T15:31:24.582Z</time></trkpt><trkpt lat="44.2606942" lon="7.8957775"><ele>954.0</ele><time>2026-04-18T15:31:26.582Z</time></trkpt><trkpt lat="44.260809" lon="7.895824"><ele>956.0</ele><time>2026-04-18T15:31:30.582Z</time></trkpt><trkpt lat="44.2608754" lon="7.8959388"><ele>958.0</ele><time>2026-04-18T15:31:32.581Z</time></trkpt><trkpt lat="44.2609275" lon="7.896015"><ele>960.0</ele><time>2026-04-18T15:31:33.582Z</time></trkpt><trkpt lat="44.2609877" lon="7.8960749"><ele>962.0</ele><time>2026-04-18T15:31:34.582Z</time></trkpt><trkpt lat="44.2610753" lon="7.89615"><ele>963.2</ele><time>2026-04-18T15:31:35.581Z</time></trkpt><trkpt lat="44.2611422" lon="7.8962164"><ele>964.4000000000001</ele><time>2026-04-18T15:31:36.582Z</time></trkpt><trkpt lat="44.2612101" lon="7.8962779"><ele>965.5999999999999</ele><time>2026-04-18T15:31:37.583Z</time></trkpt><trkpt lat="44.2612907" lon="7.8963243"><ele>966.8</ele><time>2026-04-18T15:31:38.582Z</time></trkpt><trkpt lat="44.2613513" lon="7.8964011"><ele>968.0</ele><time>2026-04-18T15:31:39.582Z</time></trkpt><trkpt lat="44.2614819" lon="7.8965552"><ele>968.0</ele><time>2026-04-18T15:31:41.582Z</time></trkpt><trkpt lat="44.2615229" lon="7.8966438"><ele>968.0</ele><time>2026-04-18T15:31:42.581Z</time></trkpt><trkpt lat="44.2615978" lon="7.8967371"><ele>968.0</ele><time>2026-04-18T15:31:43.582Z</time></trkpt><trkpt lat="44.2616578" lon="7.8968396"><ele>968.0</ele><time>2026-04-18T15:31:44.581Z</time></trkpt><trkpt lat="44.2617232" lon="7.8969355"><ele>968.0</ele><time>2026-04-18T15:31:45.583Z</time></trkpt><trkpt lat="44.2617749" lon="7.8970293"><ele>965.0000000000001</ele><time>2026-04-18T15:31:46.582Z</time></trkpt><trkpt lat="44.2618006" lon="7.8971245"><ele>962.0</ele><time>2026-04-18T15:31:47.583Z</time></trkpt><trkpt lat="44.2618424" lon="7.8971937"><ele>959.0</ele><time>2026-04-18T15:31:48.582Z</time></trkpt><trkpt lat="44.2618815" lon="7.8972753"><ele>956.0</ele><time>2026-04-18T15:31:49.581Z</time></trkpt><trkpt lat="44.2619742" lon="7.897366"><ele>953.0000000000001</ele><time>2026-04-18T15:31:51.583Z</time></trkpt><trkpt lat="44.2620216" lon="7.8974269"><ele>950.0</ele><time>2026-04-18T15:31:52.582Z</time></trkpt><trkpt lat="44.2621038" lon="7.8975621"><ele>946.4</ele><time>2026-04-18T15:31:54.581Z</time></trkpt><trkpt lat="44.2620637" lon="7.8977093"><ele>942.8</ele><time>2026-04-18T15:31:55.582Z</time></trkpt><trkpt lat="44.2620356" lon="7.8978261"><ele>939.2</ele><time>2026-04-18T15:31:56.582Z</time></trkpt><trkpt lat="44.2620413" lon="7.8979234"><ele>935.6</ele><time>2026-04-18T15:31:57.582Z</time></trkpt><trkpt lat="44.2620326" lon="7.8980568"><ele>932.0</ele><time>2026-04-18T15:31:58.581Z</time></trkpt><trkpt lat="44.2620281" lon="7.8981729"><ele>932.0</ele><time>2026-04-18T15:31:59.582Z</time></trkpt><trkpt lat="44.2620291" lon="7.8982743"><ele>932.0</ele><time>2026-04-18T15:32:00.582Z</time></trkpt><trkpt lat="44.2620285" lon="7.8983847"><ele>932.0</ele><time>2026-04-18T15:32:01.581Z</time></trkpt><trkpt lat="44.2620796" lon="7.8985529"><ele>932.0</ele><time>2026-04-18T15:32:03.582Z</time></trkpt><trkpt lat="44.2621382" lon="7.8986047"><ele>932.0</ele><time>2026-04-18T15:32:04.582Z</time></trkpt><trkpt lat="44.2621718" lon="7.8987435"><ele>931.4000000000001</ele><time>2026-04-18T15:32:06.581Z</time></trkpt><trkpt lat="44.262165" lon="7.8989217"><ele>930.8000000000001</ele><time>2026-04-18T15:32:08.581Z</time></trkpt><trkpt lat="44.262151" lon="7.8990379"><ele>930.2</ele><time>2026-04-18T15:32:09.582Z</time></trkpt><trkpt lat="44.2621379" lon="7.8991439"><ele>929.6</ele><time>2026-04-18T15:32:10.581Z</time></trkpt><trkpt lat="44.2621299" lon="7.8992552"><ele>929.0</ele><time>2026-04-18T15:32:11.582Z</time></trkpt><trkpt lat="44.2621486" lon="7.8994187"><ele>927.1428571428572</ele><time>2026-04-18T15:32:13.582Z</time></trkpt><trkpt lat="44.2621851" lon="7.8995104"><ele>925.2857142857144</ele><time>2026-04-18T15:32:14.582Z</time></trkpt><trkpt lat="44.2622043" lon="7.8996065"><ele>923.4285714285714</ele><time>2026-04-18T15:32:15.582Z</time></trkpt><trkpt lat="44.2622209" lon="7.8997027"><ele>921.5714285714287</ele><time>2026-04-18T15:32:16.582Z</time></trkpt><trkpt lat="44.2622568" lon="7.8997972"><ele>919.7142857142858</ele><time>2026-04-18T15:32:17.582Z</time></trkpt><trkpt lat="44.2623143" lon="7.8998856"><ele>917.8571428571429</ele><time>2026-04-18T15:32:18.583Z</time></trkpt><trkpt lat="44.262356" lon="7.8999557"><ele>916.0</ele><time>2026-04-18T15:32:19.582Z</time></trkpt><trkpt lat="44.262389" lon="7.9000474"><ele>920.8333333333333</ele><time>2026-04-18T15:32:20.582Z</time></trkpt><trkpt lat="44.2624376" lon="7.9001392"><ele>925.6666666666666</ele><time>2026-04-18T15:32:21.581Z</time></trkpt><trkpt lat="44.2625437" lon="7.9002419"><ele>930.5</ele><time>2026-04-18T15:32:23.582Z</time></trkpt><trkpt lat="44.262615" lon="7.9002661"><ele>935.3333333333333</ele><time>2026-04-18T15:32:24.582Z</time></trkpt><trkpt lat="44.2626731" lon="7.9003583"><ele>940.1666666666666</ele><time>2026-04-18T15:32:25.582Z</time></trkpt><trkpt lat="44.2627232" lon="7.9004281"><ele>945.0</ele><time>2026-04-18T15:32:26.581Z</time></trkpt><trkpt lat="44.262827" lon="7.9004357"><ele>945.0</ele><time>2026-04-18T15:32:28.582Z</time></trkpt><trkpt lat="44.2629207" lon="7.9004802"><ele>945.0</ele><time>2026-04-18T15:32:30.582Z</time></trkpt><trkpt lat="44.2630092" lon="7.900568"><ele>945.0</ele><time>2026-04-18T15:32:32.583Z</time></trkpt><trkpt lat="44.263085" lon="7.9006861"><ele>945.0</ele><time>2026-04-18T15:32:34.583Z</time></trkpt><trkpt lat="44.2631347" lon="7.9007698"><ele>945.0</ele><time>2026-04-18T15:32:35.581Z</time></trkpt><trkpt lat="44.2631518" lon="7.9008713"><ele>945.8333333333334</ele><time>2026-04-18T15:32:36.582Z</time></trkpt><trkpt lat="44.2632279" lon="7.9010155"><ele>946.6666666666667</ele><time>2026-04-18T15:32:38.581Z</time></trkpt><trkpt lat="44.2632769" lon="7.9011063"><ele>947.5</ele><time>2026-04-18T15:32:39.581Z</time></trkpt><trkpt lat="44.2633262" lon="7.9011777"><ele>948.3333333333334</ele><time>2026-04-18T15:32:40.583Z</time></trkpt><trkpt lat="44.2633873" lon="7.9012419"><ele>949.1666666666667</ele><time>2026-04-18T15:32:41.581Z</time></trkpt><trkpt lat="44.2634587" lon="7.9013179"><ele>950.0</ele><time>2026-04-18T15:32:42.581Z</time></trkpt><trkpt lat="44.2635249" lon="7.901376"><ele>950.0</ele><time>2026-04-18T15:32:43.582Z</time></trkpt><trkpt lat="44.2635556" lon="7.9014815"><ele>950.0</ele><time>2026-04-18T15:32:44.582Z</time></trkpt><trkpt lat="44.2636476" lon="7.901637"><ele>950.0</ele><time>2026-04-18T15:32:46.581Z</time></trkpt><trkpt lat="44.2637323" lon="7.9017722"><ele>950.0</ele><time>2026-04-18T15:32:48.582Z</time></trkpt><trkpt lat="44.2637914" lon="7.9018104"><ele>950.0</ele><time>2026-04-18T15:32:49.582Z</time></trkpt><trkpt lat="44.2639004" lon="7.9018299"><ele>951.6</ele><time>2026-04-18T15:32:51.582Z</time></trkpt><trkpt lat="44.2639858" lon="7.9017748"><ele>953.2</ele><time>2026-04-18T15:32:53.582Z</time></trkpt><trkpt lat="44.2640709" lon="7.9016486"><ele>954.8</ele><time>2026-04-18T15:32:55.581Z</time></trkpt><trkpt lat="44.2641439" lon="7.9015741"><ele>956.4</ele><time>2026-04-18T15:32:56.582Z</time></trkpt><trkpt lat="44.2642436" lon="7.901528"><ele>958.0</ele><time>2026-04-18T15:32:58.582Z</time></trkpt><trkpt lat="44.2643287" lon="7.901427"><ele>958.0</ele><time>2026-04-18T15:33:00.582Z</time></trkpt><trkpt lat="44.2644122" lon="7.9013921"><ele>958.0</ele><time>2026-04-18T15:33:01.582Z</time></trkpt><trkpt lat="44.2644975" lon="7.9013517"><ele>958.0</ele><time>2026-04-18T15:33:02.581Z</time></trkpt><trkpt lat="44.264556" lon="7.9012962"><ele>958.0</ele><time>2026-04-18T15:33:03.583Z</time></trkpt><trkpt lat="44.264664" lon="7.901221"><ele>958.0</ele><time>2026-04-18T15:33:05.583Z</time></trkpt><trkpt lat="44.264767" lon="7.9012064"><ele>953.8</ele><time>2026-04-18T15:33:07.582Z</time></trkpt><trkpt lat="44.2648638" lon="7.9011413"><ele>949.5999999999999</ele><time>2026-04-18T15:33:08.582Z</time></trkpt><trkpt lat="44.2649256" lon="7.9011189"><ele>945.4000000000001</ele><time>2026-04-18T15:33:09.581Z</time></trkpt><trkpt lat="44.2650101" lon="7.9011021"><ele>941.2</ele><time>2026-04-18T15:33:10.582Z</time></trkpt><trkpt lat="44.265123" lon="7.901054"><ele>937.0</ele><time>2026-04-18T15:33:11.581Z</time></trkpt><trkpt lat="44.2652216" lon="7.9010289"><ele>936.9999999999999</ele><time>2026-04-18T15:33:12.581Z</time></trkpt><trkpt lat="44.2653038" lon="7.9010186"><ele>937.0</ele><time>2026-04-18T15:33:13.581Z</time></trkpt><trkpt lat="44.2653769" lon="7.9009944"><ele>937.0</ele><time>2026-04-18T15:33:14.583Z</time></trkpt><trkpt lat="44.2654512" lon="7.9009522"><ele>937.0</ele><time>2026-04-18T15:33:15.582Z</time></trkpt><trkpt lat="44.2655544" lon="7.9009247"><ele>936.9999999999999</ele><time>2026-04-18T15:33:16.582Z</time></trkpt><trkpt lat="44.2656266" lon="7.9008974"><ele>937.0</ele><time>2026-04-18T15:33:17.582Z</time></trkpt><trkpt lat="44.2657185" lon="7.9009074"><ele>935.4000000000001</ele><time>2026-04-18T15:33:18.582Z</time></trkpt><trkpt lat="44.2657924" lon="7.9009263"><ele>933.8000000000001</ele><time>2026-04-18T15:33:19.581Z</time></trkpt><trkpt lat="44.2659387" lon="7.9008914"><ele>932.2</ele><time>2026-04-18T15:33:21.581Z</time></trkpt><trkpt lat="44.2660315" lon="7.900851"><ele>930.6</ele><time>2026-04-18T15:33:22.581Z</time></trkpt><trkpt lat="44.2660945" lon="7.9007667"><ele>929.0</ele><time>2026-04-18T15:33:23.582Z</time></trkpt><trkpt lat="44.2662066" lon="7.9007131"><ele>935.8000000000001</ele><time>2026-04-18T15:33:24.581Z</time></trkpt><trkpt lat="44.2662567" lon="7.9006374"><ele>942.6000000000001</ele><time>2026-04-18T15:33:25.582Z</time></trkpt><trkpt lat="44.2663102" lon="7.9005859"><ele>949.4</ele><time>2026-04-18T15:33:26.582Z</time></trkpt><trkpt lat="44.2664005" lon="7.9004936"><ele>956.2</ele><time>2026-04-18T15:33:28.581Z</time></trkpt><trkpt lat="44.2664883" lon="7.900577"><ele>963.0</ele><time>2026-04-18T15:33:30.581Z</time></trkpt><trkpt lat="44.2665633" lon="7.9007001"><ele>963.0</ele><time>2026-04-18T15:33:32.581Z</time></trkpt><trkpt lat="44.2665928" lon="7.9007794"><ele>963.0</ele><time>2026-04-18T15:33:33.582Z</time></trkpt><trkpt lat="44.2666109" lon="7.900864"><ele>963.0</ele><time>2026-04-18T15:33:34.581Z</time></trkpt><trkpt lat="44.2667044" lon="7.9009607"><ele>963.0</ele><time>2026-04-18T15:33:36.581Z</time></trkpt><trkpt lat="44.2667708" lon="7.9010898"><ele>963.0</ele><time>2026-04-18T15:33:38.583Z</time></trkpt><trkpt lat="44.2668246" lon="7.9011404"><ele>963.0</ele><time>2026-04-18T15:33:39.582Z</time></trkpt><trkpt lat="44.2668801" lon="7.9011905"><ele>962.8333333333334</ele><time>2026-04-18T15:33:40.583Z</time></trkpt><trkpt lat="44.2669611" lon="7.9012565"><ele>962.6666666666667</ele><time>2026-04-18T15:33:41.583Z</time></trkpt><trkpt lat="44.2670283" lon="7.9012933"><ele>962.5</ele><time>2026-04-18T15:33:42.581Z</time></trkpt><trkpt lat="44.2671015" lon="7.9013445"><ele>962.3333333333334</ele><time>2026-04-18T15:33:43.582Z</time></trkpt><trkpt lat="44.267177" lon="7.9013976"><ele>962.1666666666667</ele><time>2026-04-18T15:33:44.581Z</time></trkpt><trkpt lat="44.2672331" lon="7.901505"><ele>962.0</ele><time>2026-04-18T15:33:45.581Z</time></trkpt><trkpt lat="44.2672842" lon="7.9015867"><ele>962.0</ele><time>2026-04-18T15:33:46.582Z</time></trkpt><trkpt lat="44.2673435" lon="7.9017079"><ele>962.0</ele><time>2026-04-18T15:33:47.582Z</time></trkpt><trkpt lat="44.2673899" lon="7.9017984"><ele>962.0</ele><time>2026-04-18T15:33:48.583Z</time></trkpt><trkpt lat="44.2674373" lon="7.9018943"><ele>962.0</ele><time>2026-04-18T15:33:49.582Z</time></trkpt><trkpt lat="44.267524" lon="7.9019893"><ele>962.0</ele><time>2026-04-18T15:33:51.581Z</time></trkpt><trkpt lat="44.2675847" lon="7.9021203"><ele>959.6</ele><time>2026-04-18T15:33:53.581Z</time></trkpt><trkpt lat="44.2675625" lon="7.9022338"><ele>957.2</ele><time>2026-04-18T15:33:54.581Z</time></trkpt><trkpt lat="44.2675492" lon="7.9023979"><ele>954.8</ele><time>2026-04-18T15:33:56.582Z</time></trkpt><trkpt lat="44.267548" lon="7.9025375"><ele>952.4</ele><time>2026-04-18T15:33:58.582Z</time></trkpt><trkpt lat="44.2676011" lon="7.9026166"><ele>950.0</ele><time>2026-04-18T15:34:00.581Z</time></trkpt><trkpt lat="44.2676911" lon="7.90273"><ele>947.1666666666667</ele><time>2026-04-18T15:34:02.583Z</time></trkpt><trkpt lat="44.2677417" lon="7.902804"><ele>944.3333333333334</ele><time>2026-04-18T15:34:03.582Z</time></trkpt><trkpt lat="44.2678013" lon="7.9028759"><ele>941.5</ele><time>2026-04-18T15:34:04.581Z</time></trkpt><trkpt lat="44.2678551" lon="7.9029304"><ele>938.6666666666667</ele><time>2026-04-18T15:34:05.581Z</time></trkpt><trkpt lat="44.267906" lon="7.9028648"><ele>935.8333333333334</ele><time>2026-04-18T15:34:06.583Z</time></trkpt><trkpt lat="44.2680031" lon="7.9027895"><ele>933.0</ele><time>2026-04-18T15:34:08.581Z</time></trkpt><trkpt lat="44.2680571" lon="7.9026984"><ele>933.0</ele><time>2026-04-18T15:34:09.581Z</time></trkpt><trkpt lat="44.2681069" lon="7.9026409"><ele>933.0</ele><time>2026-04-18T15:34:10.581Z</time></trkpt><trkpt lat="44.2681616" lon="7.9024566"><ele>933.0</ele><time>2026-04-18T15:34:12.583Z</time></trkpt><trkpt lat="44.2682054" lon="7.9023451"><ele>933.0</ele><time>2026-04-18T15:34:13.581Z</time></trkpt><trkpt lat="44.2682412" lon="7.9022522"><ele>933.0</ele><time>2026-04-18T15:34:14.581Z</time></trkpt><trkpt lat="44.2682891" lon="7.9021712"><ele>933.0</ele><time>2026-04-18T15:34:15.582Z</time></trkpt><trkpt lat="44.2683335" lon="7.9020971"><ele>935.5</ele><time>2026-04-18T15:34:16.581Z</time></trkpt><trkpt lat="44.2683976" lon="7.9019762"><ele>938.0</ele><time>2026-04-18T15:34:18.581Z</time></trkpt><trkpt lat="44.2684569" lon="7.9019147"><ele>940.5</ele><time>2026-04-18T15:34:19.581Z</time></trkpt><trkpt lat="44.2685022" lon="7.9018175"><ele>943.0</ele><time>2026-04-18T15:34:20.583Z</time></trkpt><trkpt lat="44.2685344" lon="7.9017049"><ele>945.5</ele><time>2026-04-18T15:34:21.582Z</time></trkpt><trkpt lat="44.2685603" lon="7.9016061"><ele>948.0</ele><time>2026-04-18T15:34:22.581Z</time></trkpt><trkpt lat="44.268569" lon="7.9014945"><ele>951.6666666666666</ele><time>2026-04-18T15:34:23.582Z</time></trkpt><trkpt lat="44.2685835" lon="7.9014008"><ele>955.3333333333333</ele><time>2026-04-18T15:34:24.582Z</time></trkpt><trkpt lat="44.2686225" lon="7.9012927"><ele>959.0</ele><time>2026-04-18T15:34:25.581Z</time></trkpt><trkpt lat="44.268622" lon="7.9012044"><ele>962.6666666666666</ele><time>2026-04-18T15:34:26.581Z</time></trkpt><trkpt lat="44.2686281" lon="7.9010974"><ele>966.3333333333333</ele><time>2026-04-18T15:34:27.581Z</time></trkpt><trkpt lat="44.2687171" lon="7.9009952"><ele>970.0</ele><time>2026-04-18T15:34:29.582Z</time></trkpt><trkpt lat="44.2688078" lon="7.9010049"><ele>970.0</ele><time>2026-04-18T15:34:31.582Z</time></trkpt><trkpt lat="44.2688939" lon="7.9011105"><ele>970.0</ele><time>2026-04-18T15:34:33.582Z</time></trkpt><trkpt lat="44.2689585" lon="7.9011617"><ele>970.0</ele><time>2026-04-18T15:34:34.581Z</time></trkpt><trkpt lat="44.2690189" lon="7.9012341"><ele>970.0</ele><time>2026-04-18T15:34:35.581Z</time></trkpt><trkpt lat="44.2690811" lon="7.9013055"><ele>970.0</ele><time>2026-04-18T15:34:36.582Z</time></trkpt><trkpt lat="44.2691961" lon="7.9013776"><ele>964.2</ele><time>2026-04-18T15:34:38.582Z</time></trkpt><trkpt lat="44.2692887" lon="7.9013819"><ele>958.4</ele><time>2026-04-18T15:34:39.583Z</time></trkpt><trkpt lat="44.2693658" lon="7.9013847"><ele>952.5999999999999</ele><time>2026-04-18T15:34:40.583Z</time></trkpt><trkpt lat="44.26943" lon="7.9013932"><ele>946.8</ele><time>2026-04-18T15:34:41.581Z</time></trkpt><trkpt lat="44.2695279" lon="7.9015687"><ele>941.0</ele><time>2026-04-18T15:34:43.583Z</time></trkpt><trkpt lat="44.269572" lon="7.9016484"><ele>941.0000000000001</ele><time>2026-04-18T15:34:44.581Z</time></trkpt><trkpt lat="44.2696236" lon="7.9017134"><ele>941.0</ele><time>2026-04-18T15:34:45.582Z</time></trkpt><trkpt lat="44.2696912" lon="7.9017974"><ele>941.0</ele><time>2026-04-18T15:34:47.581Z</time></trkpt><trkpt lat="44.2697709" lon="7.9017944"><ele>941.0</ele><time>2026-04-18T15:34:48.583Z</time></trkpt><trkpt lat="44.2698547" lon="7.9017909"><ele>941.0000000000001</ele><time>2026-04-18T15:34:49.581Z</time></trkpt><trkpt lat="44.2699293" lon="7.9017814"><ele>941.0</ele><time>2026-04-18T15:34:50.581Z</time></trkpt><trkpt lat="44.2700122" lon="7.9017732"><ele>936.0</ele><time>2026-04-18T15:34:51.582Z</time></trkpt><trkpt lat="44.2701108" lon="7.9017562"><ele>930.9999999999999</ele><time>2026-04-18T15:34:52.581Z</time></trkpt><trkpt lat="44.2701974" lon="7.90178"><ele>925.9999999999999</ele><time>2026-04-18T15:34:53.583Z</time></trkpt><trkpt lat="44.2702995" lon="7.9017787"><ele>921.0</ele><time>2026-04-18T15:34:54.582Z</time></trkpt><trkpt lat="44.2703909" lon="7.9017966"><ele>916.0</ele><time>2026-04-18T15:34:55.582Z</time></trkpt><trkpt lat="44.2705293" lon="7.9017954"><ele>927.25</ele><time>2026-04-18T15:34:57.582Z</time></trkpt><trkpt lat="44.2706679" lon="7.9017425"><ele>938.5</ele><time>2026-04-18T15:34:59.583Z</time></trkpt><trkpt lat="44.2707573" lon="7.9017163"><ele>949.75</ele><time>2026-04-18T15:35:00.583Z</time></trkpt><trkpt lat="44.270908" lon="7.9016694"><ele>961.0</ele><time>2026-04-18T15:35:01.582Z</time></trkpt><trkpt lat="44.2710121" lon="7.9016295"><ele>961.0</ele><time>2026-04-18T15:35:02.581Z</time></trkpt><trkpt lat="44.2711309" lon="7.9015961"><ele>960.9999999999999</ele><time>2026-04-18T15:35:03.581Z</time></trkpt><trkpt lat="44.2712461" lon="7.9015688"><ele>960.9999999999999</ele><time>2026-04-18T15:35:04.581Z</time></trkpt><trkpt lat="44.271362" lon="7.9015399"><ele>961.0</ele><time>2026-04-18T15:35:05.581Z</time></trkpt><trkpt lat="44.2714494" lon="7.9014939"><ele>961.0</ele><time>2026-04-18T15:35:06.582Z</time></trkpt><trkpt lat="44.2715526" lon="7.9014823"><ele>957.1999999999999</ele><time>2026-04-18T15:35:07.583Z</time></trkpt><trkpt lat="44.2716262" lon="7.9014833"><ele>953.3999999999999</ele><time>2026-04-18T15:35:09.583Z</time></trkpt><trkpt lat="44.2716935" lon="7.9014511"><ele>949.6</ele><time>2026-04-18T15:35:10.582Z</time></trkpt><trkpt lat="44.2717953" lon="7.9013845"><ele>945.8</ele><time>2026-04-18T15:35:11.581Z</time></trkpt><trkpt lat="44.2718873" lon="7.90132"><ele>942.0</ele><time>2026-04-18T15:35:12.582Z</time></trkpt><trkpt lat="44.2719717" lon="7.9012091"><ele>942.0</ele><time>2026-04-18T15:35:13.582Z</time></trkpt><trkpt lat="44.2720363" lon="7.9011255"><ele>942.0</ele><time>2026-04-18T15:35:14.583Z</time></trkpt><trkpt lat="44.272118" lon="7.9010541"><ele>942.0</ele><time>2026-04-18T15:35:15.581Z</time></trkpt><trkpt lat="44.2721642" lon="7.9009894"><ele>942.0</ele><time>2026-04-18T15:35:16.582Z</time></trkpt><trkpt lat="44.2722372" lon="7.9009684"><ele>942.0</ele><time>2026-04-18T15:35:17.582Z</time></trkpt><trkpt lat="44.2723072" lon="7.9009658"><ele>942.0</ele><time>2026-04-18T15:35:18.582Z</time></trkpt><trkpt lat="44.2724168" lon="7.9009969"><ele>940.8</ele><time>2026-04-18T15:35:20.581Z</time></trkpt><trkpt lat="44.2725023" lon="7.9011016"><ele>939.6</ele><time>2026-04-18T15:35:22.583Z</time></trkpt><trkpt lat="44.2725613" lon="7.9011519"><ele>938.3999999999999</ele><time>2026-04-18T15:35:23.582Z</time></trkpt><trkpt lat="44.2726753" lon="7.901213"><ele>937.1999999999999</ele><time>2026-04-18T15:35:24.582Z</time></trkpt><trkpt lat="44.272783" lon="7.9012502"><ele>936.0</ele><time>2026-04-18T15:35:25.581Z</time></trkpt><trkpt lat="44.2729047" lon="7.9012837"><ele>936.0</ele><time>2026-04-18T15:35:26.581Z</time></trkpt><trkpt lat="44.2730033" lon="7.9013495"><ele>936.0</ele><time>2026-04-18T15:35:27.582Z</time></trkpt><trkpt lat="44.2731158" lon="7.9014103"><ele>936.0</ele><time>2026-04-18T15:35:28.581Z</time></trkpt><trkpt lat="44.2732327" lon="7.9014883"><ele>936.0</ele><time>2026-04-18T15:35:29.581Z</time></trkpt><trkpt lat="44.2733607" lon="7.9015624"><ele>935.6666666666666</ele><time>2026-04-18T15:35:31.582Z</time></trkpt><trkpt lat="44.2734533" lon="7.9016007"><ele>935.3333333333333</ele><time>2026-04-18T15:35:32.582Z</time></trkpt><trkpt lat="44.2735485" lon="7.9016365"><ele>935.0</ele><time>2026-04-18T15:35:33.581Z</time></trkpt><trkpt lat="44.2736325" lon="7.9017301"><ele>934.6666666666666</ele><time>2026-04-18T15:35:34.583Z</time></trkpt><trkpt lat="44.2736661" lon="7.9018118"><ele>934.3333333333333</ele><time>2026-04-18T15:35:35.581Z</time></trkpt><trkpt lat="44.2737094" lon="7.9018899"><ele>934.0</ele><time>2026-04-18T15:35:36.581Z</time></trkpt><trkpt lat="44.2738181" lon="7.9019893"><ele>933.9999999999999</ele><time>2026-04-18T15:35:37.582Z</time></trkpt><trkpt lat="44.2739007" lon="7.9020562"><ele>934.0</ele><time>2026-04-18T15:35:38.583Z</time></trkpt><trkpt lat="44.2739644" lon="7.9020808"><ele>934.0</ele><time>2026-04-18T15:35:39.582Z</time></trkpt><trkpt lat="44.2740651" lon="7.9020574"><ele>934.0</ele><time>2026-04-18T15:35:40.581Z</time></trkpt><trkpt lat="44.2741396" lon="7.9020376"><ele>933.9999999999999</ele><time>2026-04-18T15:35:41.581Z</time></trkpt><trkpt lat="44.27423" lon="7.9020133"><ele>934.0</ele><time>2026-04-18T15:35:42.582Z</time></trkpt><trkpt lat="44.2743132" lon="7.9019582"><ele>935.8000000000001</ele><time>2026-04-18T15:35:43.581Z</time></trkpt><trkpt lat="44.2744258" lon="7.901909"><ele>937.6000000000001</ele><time>2026-04-18T15:35:44.582Z</time></trkpt><trkpt lat="44.2745318" lon="7.9018987"><ele>939.4</ele><time>2026-04-18T15:35:45.582Z</time></trkpt><trkpt lat="44.2746357" lon="7.9019103"><ele>941.2</ele><time>2026-04-18T15:35:46.582Z</time></trkpt><trkpt lat="44.2747331" lon="7.9019468"><ele>943.0</ele><time>2026-04-18T15:35:47.583Z</time></trkpt><trkpt lat="44.2748424" lon="7.9019121"><ele>943.0</ele><time>2026-04-18T15:35:49.583Z</time></trkpt><trkpt lat="44.2749603" lon="7.9018242"><ele>943.0</ele><time>2026-04-18T15:35:51.582Z</time></trkpt><trkpt lat="44.2750001" lon="7.9016878"><ele>943.0</ele><time>2026-04-18T15:35:52.581Z</time></trkpt><trkpt lat="44.2750534" lon="7.9016057"><ele>943.0</ele><time>2026-04-18T15:35:53.582Z</time></trkpt><trkpt lat="44.2751278" lon="7.9015121"><ele>943.0</ele><time>2026-04-18T15:35:54.582Z</time></trkpt><trkpt lat="44.2752087" lon="7.9014509"><ele>944.9999999999999</ele><time>2026-04-18T15:35:55.582Z</time></trkpt><trkpt lat="44.2752782" lon="7.9014087"><ele>947.0</ele><time>2026-04-18T15:35:56.582Z</time></trkpt><trkpt lat="44.2753535" lon="7.9014166"><ele>949.0</ele><time>2026-04-18T15:35:57.582Z</time></trkpt><trkpt lat="44.2754358" lon="7.9014226"><ele>951.0</ele><time>2026-04-18T15:35:58.582Z</time></trkpt><trkpt lat="44.2755125" lon="7.9014232"><ele>952.9999999999999</ele><time>2026-04-18T15:35:59.583Z</time></trkpt><trkpt lat="44.2756297" lon="7.9014023"><ele>955.0</ele><time>2026-04-18T15:36:00.581Z</time></trkpt><trkpt lat="44.2757486" lon="7.9014057"><ele>955.0</ele><time>2026-04-18T15:36:01.582Z</time></trkpt><trkpt lat="44.2758421" lon="7.901439"><ele>955.0</ele><time>2026-04-18T15:36:02.581Z</time></trkpt><trkpt lat="44.2759799" lon="7.9014445"><ele>955.0</ele><time>2026-04-18T15:36:03.582Z</time></trkpt><trkpt lat="44.2760886" lon="7.9014876"><ele>955.0</ele><time>2026-04-18T15:36:04.582Z</time></trkpt><trkpt lat="44.2761899" lon="7.9015316"><ele>955.0</ele><time>2026-04-18T15:36:05.582Z</time></trkpt><trkpt lat="44.2763265" lon="7.9015708"><ele>955.0</ele><time>2026-04-18T15:36:06.582Z</time></trkpt><trkpt lat="44.2763931" lon="7.9016206"><ele>955.0</ele><time>2026-04-18T15:36:07.582Z</time></trkpt><trkpt lat="44.2764655" lon="7.9016771"><ele>955.0</ele><time>2026-04-18T15:36:08.581Z</time></trkpt><trkpt lat="44.2765197" lon="7.9017867"><ele>955.0</ele><time>2026-04-18T15:36:09.581Z</time></trkpt><trkpt lat="44.2765603" lon="7.9018681"><ele>953.1666666666666</ele><time>2026-04-18T15:36:10.581Z</time></trkpt><trkpt lat="44.2766093" lon="7.9019481"><ele>951.3333333333333</ele><time>2026-04-18T15:36:11.581Z</time></trkpt><trkpt lat="44.2767067" lon="7.9020282"><ele>949.5</ele><time>2026-04-18T15:36:13.582Z</time></trkpt><trkpt lat="44.2767726" lon="7.9020327"><ele>947.6666666666667</ele><time>2026-04-18T15:36:14.581Z</time></trkpt><trkpt lat="44.2768466" lon="7.9020048"><ele>945.8333333333334</ele><time>2026-04-18T15:36:15.581Z</time></trkpt><trkpt lat="44.2769239" lon="7.9019734"><ele>944.0</ele><time>2026-04-18T15:36:16.581Z</time></trkpt><trkpt lat="44.2769872" lon="7.9019676"><ele>944.0</ele><time>2026-04-18T15:36:17.582Z</time></trkpt><trkpt lat="44.2770803" lon="7.9019535"><ele>944.0</ele><time>2026-04-18T15:36:18.582Z</time></trkpt><trkpt lat="44.2771814" lon="7.9019398"><ele>944.0</ele><time>2026-04-18T15:36:19.582Z</time></trkpt><trkpt lat="44.2773487" lon="7.9020273"><ele>944.0</ele><time>2026-04-18T15:36:21.581Z</time></trkpt><trkpt lat="44.2774301" lon="7.9020655"><ele>945.2</ele><time>2026-04-18T15:36:22.581Z</time></trkpt><trkpt lat="44.2775208" lon="7.9021056"><ele>946.4000000000001</ele><time>2026-04-18T15:36:23.582Z</time></trkpt><trkpt lat="44.2775981" lon="7.9021195"><ele>947.6</ele><time>2026-04-18T15:36:24.582Z</time></trkpt><trkpt lat="44.277689" lon="7.9021414"><ele>948.8</ele><time>2026-04-18T15:36:25.581Z</time></trkpt><trkpt lat="44.2777823" lon="7.9021967"><ele>950.0</ele><time>2026-04-18T15:36:26.582Z</time></trkpt><trkpt lat="44.2778721" lon="7.9021696"><ele>950.0</ele><time>2026-04-18T15:36:27.582Z</time></trkpt><trkpt lat="44.2779679" lon="7.9021553"><ele>950.0</ele><time>2026-04-18T15:36:28.582Z</time></trkpt><trkpt lat="44.2780439" lon="7.9021667"><ele>950.0</ele><time>2026-04-18T15:36:29.582Z</time></trkpt><trkpt lat="44.2781213" lon="7.9020807"><ele>950.0</ele><time>2026-04-18T15:36:30.582Z</time></trkpt><trkpt lat="44.2781999" lon="7.9019913"><ele>950.0</ele><time>2026-04-18T15:36:31.583Z</time></trkpt><trkpt lat="44.2782799" lon="7.9019103"><ele>950.5000000000001</ele><time>2026-04-18T15:36:32.581Z</time></trkpt><trkpt lat="44.2783386" lon="7.9018188"><ele>951.0</ele><time>2026-04-18T15:36:33.581Z</time></trkpt><trkpt lat="44.2784162" lon="7.9017843"><ele>951.5</ele><time>2026-04-18T15:36:35.581Z</time></trkpt><trkpt lat="44.2784926" lon="7.9017136"><ele>952.0</ele><time>2026-04-18T15:36:36.581Z</time></trkpt><trkpt lat="44.2785699" lon="7.9016628"><ele>952.5000000000001</ele><time>2026-04-18T15:36:37.581Z</time></trkpt><trkpt lat="44.2786644" lon="7.9016133"><ele>953.0</ele><time>2026-04-18T15:36:38.581Z</time></trkpt><trkpt lat="44.27877" lon="7.9015668"><ele>954.5</ele><time>2026-04-18T15:36:39.581Z</time></trkpt><trkpt lat="44.2788979" lon="7.9015537"><ele>956.0</ele><time>2026-04-18T15:36:40.581Z</time></trkpt><trkpt lat="44.2790346" lon="7.9015055"><ele>957.5</ele><time>2026-04-18T15:36:41.582Z</time></trkpt><trkpt lat="44.2791708" lon="7.9014439"><ele>959.0</ele><time>2026-04-18T15:36:42.581Z</time></trkpt><trkpt lat="44.2792953" lon="7.9013767"><ele>959.0</ele><time>2026-04-18T15:36:43.581Z</time></trkpt><trkpt lat="44.2794467" lon="7.9013092"><ele>959.0</ele><time>2026-04-18T15:36:44.581Z</time></trkpt><trkpt lat="44.2795769" lon="7.9012474"><ele>959.0</ele><time>2026-04-18T15:36:45.583Z</time></trkpt><trkpt lat="44.279697" lon="7.9011983"><ele>959.0</ele><time>2026-04-18T15:36:46.581Z</time></trkpt><trkpt lat="44.2798254" lon="7.9011382"><ele>957.4000000000001</ele><time>2026-04-18T15:36:47.582Z</time></trkpt><trkpt lat="44.2799439" lon="7.9010791"><ele>955.8000000000001</ele><time>2026-04-18T15:36:48.583Z</time></trkpt><trkpt lat="44.2800326" lon="7.9010502"><ele>954.1999999999999</ele><time>2026-04-18T15:36:49.582Z</time></trkpt><trkpt lat="44.2801433" lon="7.9010211"><ele>952.5999999999999</ele><time>2026-04-18T15:36:50.582Z</time></trkpt><trkpt lat="44.2802189" lon="7.9010123"><ele>951.0</ele><time>2026-04-18T15:36:55.582Z</time></trkpt><trkpt lat="44.2802811" lon="7.9010563"><ele>951.0</ele><time>2026-04-18T15:36:56.581Z</time></trkpt><trkpt lat="44.2803439" lon="7.9011054"><ele>950.9999999999999</ele><time>2026-04-18T15:36:57.582Z</time></trkpt><trkpt lat="44.2804354" lon="7.9011601"><ele>950.9999999999999</ele><time>2026-04-18T15:36:58.581Z</time></trkpt><trkpt lat="44.280524" lon="7.901228"><ele>951.0</ele><time>2026-04-18T15:36:59.583Z</time></trkpt><trkpt lat="44.2805905" lon="7.9013207"><ele>951.0</ele><time>2026-04-18T15:37:00.582Z</time></trkpt><trkpt lat="44.2806722" lon="7.9014114"><ele>951.25</ele><time>2026-04-18T15:37:01.581Z</time></trkpt><trkpt lat="44.2807528" lon="7.901523"><ele>951.5</ele><time>2026-04-18T15:37:02.581Z</time></trkpt><trkpt lat="44.2808294" lon="7.9016371"><ele>951.75</ele><time>2026-04-18T15:37:03.582Z</time></trkpt><trkpt lat="44.2809199" lon="7.901747"><ele>952.0</ele><time>2026-04-18T15:37:04.583Z</time></trkpt><trkpt lat="44.2810002" lon="7.9018627"><ele>952.0</ele><time>2026-04-18T15:37:05.582Z</time></trkpt><trkpt lat="44.2810742" lon="7.9019741"><ele>952.0</ele><time>2026-04-18T15:37:06.581Z</time></trkpt><trkpt lat="44.2811468" lon="7.9020813"><ele>952.0</ele><time>2026-04-18T15:37:07.582Z</time></trkpt><trkpt lat="44.2812112" lon="7.9021918"><ele>952.0</ele><time>2026-04-18T15:37:08.581Z</time></trkpt><trkpt lat="44.2812821" lon="7.9022805"><ele>952.0</ele><time>2026-04-18T15:37:09.581Z</time></trkpt><trkpt lat="44.2813477" lon="7.902385"><ele>951.9999999999999</ele><time>2026-04-18T15:37:10.583Z</time></trkpt><trkpt lat="44.2813975" lon="7.9024758"><ele>952.0</ele><time>2026-04-18T15:37:11.582Z</time></trkpt><trkpt lat="44.2814266" lon="7.9025625"><ele>952.0</ele><time>2026-04-18T15:37:12.581Z</time></trkpt><trkpt lat="44.2814414" lon="7.902681"><ele>952.0</ele><time>2026-04-18T15:37:14.581Z</time></trkpt><trkpt lat="44.2814528" lon="7.9028226"><ele>951.9999999999999</ele><time>2026-04-18T15:37:17.582Z</time></trkpt><trkpt lat="44.2815083" lon="7.9028944"><ele>952.0</ele><time>2026-04-18T15:37:18.581Z</time></trkpt><trkpt lat="44.281561" lon="7.9029812"><ele>952.9999999999999</ele><time>2026-04-18T15:37:19.581Z</time></trkpt><trkpt lat="44.2816276" lon="7.9030702"><ele>954.0</ele><time>2026-04-18T15:37:20.581Z</time></trkpt><trkpt lat="44.2816966" lon="7.9031473"><ele>955.0</ele><time>2026-04-18T15:37:21.581Z</time></trkpt><trkpt lat="44.2817528" lon="7.9032115"><ele>956.0</ele><time>2026-04-18T15:37:22.581Z</time></trkpt><trkpt lat="44.2818056" lon="7.9031375"><ele>956.9999999999999</ele><time>2026-04-18T15:37:23.582Z</time></trkpt><trkpt lat="44.2818724" lon="7.9031062"><ele>958.0</ele><time>2026-04-18T15:37:24.582Z</time></trkpt><trkpt lat="44.2819623" lon="7.9030978"><ele>958.0</ele><time>2026-04-18T15:37:25.582Z</time></trkpt><trkpt lat="44.2820623" lon="7.903097"><ele>958.0</ele><time>2026-04-18T15:37:26.581Z</time></trkpt><trkpt lat="44.2821786" lon="7.9030954"><ele>958.0</ele><time>2026-04-18T15:37:27.581Z</time></trkpt><trkpt lat="44.2822932" lon="7.903067"><ele>958.0</ele><time>2026-04-18T15:37:28.582Z</time></trkpt><trkpt lat="44.2824228" lon="7.9030222"><ele>960.0</ele><time>2026-04-18T15:37:29.581Z</time></trkpt><trkpt lat="44.2825356" lon="7.9029769"><ele>962.0</ele><time>2026-04-18T15:37:30.581Z</time></trkpt><trkpt lat="44.2826304" lon="7.9029493"><ele>964.0</ele><time>2026-04-18T15:37:31.583Z</time></trkpt><trkpt lat="44.2827052" lon="7.9029425"><ele>966.0</ele><time>2026-04-18T15:37:32.582Z</time></trkpt><trkpt lat="44.2827822" lon="7.902919"><ele>968.0</ele><time>2026-04-18T15:37:34.581Z</time></trkpt><trkpt lat="44.2826849" lon="7.9029509"><ele>968.0</ele><time>2026-04-18T15:37:37.582Z</time></trkpt><trkpt lat="44.2825189" lon="7.9030189"><ele>968.0</ele><time>2026-04-18T15:37:39.582Z</time></trkpt><trkpt lat="44.2824051" lon="7.9030473"><ele>968.0</ele><time>2026-04-18T15:37:40.582Z</time></trkpt><trkpt lat="44.2822866" lon="7.903061"><ele>968.0</ele><time>2026-04-18T15:37:41.582Z</time></trkpt><trkpt lat="44.2821776" lon="7.9030867"><ele>966.3333333333334</ele><time>2026-04-18T15:37:42.583Z</time></trkpt><trkpt lat="44.2820686" lon="7.9031073"><ele>964.6666666666667</ele><time>2026-04-18T15:37:43.581Z</time></trkpt><trkpt lat="44.2819793" lon="7.9031171"><ele>963.0</ele><time>2026-04-18T15:37:44.583Z</time></trkpt><trkpt lat="44.2818954" lon="7.9031327"><ele>961.3333333333333</ele><time>2026-04-18T15:37:45.582Z</time></trkpt><trkpt lat="44.2818209" lon="7.903188"><ele>959.6666666666666</ele><time>2026-04-18T15:37:47.582Z</time></trkpt><trkpt lat="44.2818637" lon="7.9032695"><ele>958.0</ele><time>2026-04-18T15:37:50.581Z</time></trkpt><trkpt lat="44.2819908" lon="7.9032917"><ele>958.0</ele><time>2026-04-18T15:37:51.582Z</time></trkpt><trkpt lat="44.2820865" lon="7.9033067"><ele>958.0</ele><time>2026-04-18T15:37:52.581Z</time></trkpt><trkpt lat="44.2821806" lon="7.9033174"><ele>958.0</ele><time>2026-04-18T15:37:53.581Z</time></trkpt><trkpt lat="44.2823131" lon="7.9033361"><ele>958.0</ele><time>2026-04-18T15:37:54.582Z</time></trkpt><trkpt lat="44.2824237" lon="7.903378"><ele>958.0</ele><time>2026-04-18T15:37:55.582Z</time></trkpt><trkpt lat="44.282526" lon="7.903465"><ele>960.0</ele><time>2026-04-18T15:37:56.581Z</time></trkpt><trkpt lat="44.2825959" lon="7.9035647"><ele>962.0</ele><time>2026-04-18T15:37:57.582Z</time></trkpt><trkpt lat="44.282683" lon="7.9036699"><ele>964.0</ele><time>2026-04-18T15:37:58.582Z</time></trkpt><trkpt lat="44.2827817" lon="7.9037719"><ele>966.0</ele><time>2026-04-18T15:37:59.582Z</time></trkpt><trkpt lat="44.2828833" lon="7.90388"><ele>966.0</ele><time>2026-04-18T15:38:00.581Z</time></trkpt><trkpt lat="44.2829961" lon="7.9040031"><ele>966.0</ele><time>2026-04-18T15:38:01.581Z</time></trkpt><trkpt lat="44.2831027" lon="7.904135"><ele>966.0</ele><time>2026-04-18T15:38:02.581Z</time></trkpt><trkpt lat="44.2832254" lon="7.9042571"><ele>966.0</ele><time>2026-04-18T15:38:03.582Z</time></trkpt><trkpt lat="44.2833534" lon="7.9043851"><ele>968.0</ele><time>2026-04-18T15:38:04.581Z</time></trkpt><trkpt lat="44.2834809" lon="7.9045018"><ele>970.0</ele><time>2026-04-18T15:38:05.581Z</time></trkpt><trkpt lat="44.2836049" lon="7.9046407"><ele>972.0</ele><time>2026-04-18T15:38:06.581Z</time></trkpt><trkpt lat="44.2837269" lon="7.9047887"><ele>972.0</ele><time>2026-04-18T15:38:07.583Z</time></trkpt><trkpt lat="44.2838534" lon="7.9049261"><ele>972.0</ele><time>2026-04-18T15:38:08.581Z</time></trkpt><trkpt lat="44.2839772" lon="7.9050391"><ele>972.0</ele><time>2026-04-18T15:38:09.582Z</time></trkpt><trkpt lat="44.2840926" lon="7.9051428"><ele>972.0</ele><time>2026-04-18T15:38:10.583Z</time></trkpt><trkpt lat="44.2841783" lon="7.9052088"><ele>972.25</ele><time>2026-04-18T15:38:11.582Z</time></trkpt><trkpt lat="44.2842836" lon="7.9052838"><ele>972.5</ele><time>2026-04-18T15:38:12.581Z</time></trkpt><trkpt lat="44.2843909" lon="7.9053298"><ele>972.75</ele><time>2026-04-18T15:38:13.581Z</time></trkpt><trkpt lat="44.2845261" lon="7.9053619"><ele>973.0</ele><time>2026-04-18T15:38:14.581Z</time></trkpt><trkpt lat="44.2846596" lon="7.9054039"><ele>974.5</ele><time>2026-04-18T15:38:15.582Z</time></trkpt><trkpt lat="44.2847945" lon="7.905448"><ele>976.0</ele><time>2026-04-18T15:38:16.582Z</time></trkpt><trkpt lat="44.2849163" lon="7.9055017"><ele>977.5</ele><time>2026-04-18T15:38:17.581Z</time></trkpt><trkpt lat="44.2850208" lon="7.9055538"><ele>979.0</ele><time>2026-04-18T15:38:18.583Z</time></trkpt><trkpt lat="44.2851166" lon="7.9055791"><ele>979.0</ele><time>2026-04-18T15:38:19.582Z</time></trkpt><trkpt lat="44.2852141" lon="7.9055691"><ele>979.0000000000001</ele><time>2026-04-18T15:38:20.581Z</time></trkpt><trkpt lat="44.2853109" lon="7.9055663"><ele>979.0000000000001</ele><time>2026-04-18T15:38:21.583Z</time></trkpt><trkpt lat="44.2853979" lon="7.9055704"><ele>979.0</ele><time>2026-04-18T15:38:22.582Z</time></trkpt><trkpt lat="44.2855102" lon="7.9056381"><ele>979.0</ele><time>2026-04-18T15:38:23.583Z</time></trkpt><trkpt lat="44.285627" lon="7.9056793"><ele>979.0</ele><time>2026-04-18T15:38:24.581Z</time></trkpt><trkpt lat="44.2857462" lon="7.9057387"><ele>979.0</ele><time>2026-04-18T15:38:25.582Z</time></trkpt><trkpt lat="44.2858727" lon="7.9058147"><ele>979.0</ele><time>2026-04-18T15:38:26.581Z</time></trkpt><trkpt lat="44.286009" lon="7.9058996"><ele>979.0</ele><time>2026-04-18T15:38:27.582Z</time></trkpt><trkpt lat="44.2861544" lon="7.9060016"><ele>979.0</ele><time>2026-04-18T15:38:28.581Z</time></trkpt><trkpt lat="44.2862936" lon="7.9061012"><ele>979.0</ele><time>2026-04-18T15:38:29.581Z</time></trkpt><trkpt lat="44.2864396" lon="7.9061956"><ele>979.0</ele><time>2026-04-18T15:38:30.581Z</time></trkpt><trkpt lat="44.2865885" lon="7.9062911"><ele>982.0</ele><time>2026-04-18T15:38:31.582Z</time></trkpt><trkpt lat="44.286722" lon="7.9063797"><ele>985.0</ele><time>2026-04-18T15:38:32.582Z</time></trkpt><trkpt lat="44.2868424" lon="7.9064634"><ele>988.0</ele><time>2026-04-18T15:38:33.581Z</time></trkpt><trkpt lat="44.2869469" lon="7.9065187"><ele>991.0</ele><time>2026-04-18T15:38:34.583Z</time></trkpt><trkpt lat="44.2870401" lon="7.9066059"><ele>991.0</ele><time>2026-04-18T15:38:35.581Z</time></trkpt><trkpt lat="44.2871404" lon="7.9066876"><ele>991.0</ele><time>2026-04-18T15:38:36.582Z</time></trkpt><trkpt lat="44.2872419" lon="7.9067914"><ele>991.0</ele><time>2026-04-18T15:38:37.582Z</time></trkpt><trkpt lat="44.2873502" lon="7.9069338"><ele>991.0</ele><time>2026-04-18T15:38:38.582Z</time></trkpt><trkpt lat="44.2874553" lon="7.9070475"><ele>990.3333333333333</ele><time>2026-04-18T15:38:39.582Z</time></trkpt><trkpt lat="44.2875922" lon="7.90715"><ele>989.6666666666667</ele><time>2026-04-18T15:38:40.581Z</time></trkpt><trkpt lat="44.2877095" lon="7.9072483"><ele>989.0</ele><time>2026-04-18T15:38:41.582Z</time></trkpt><trkpt lat="44.2878748" lon="7.9072886"><ele>989.0</ele><time>2026-04-18T15:38:42.581Z</time></trkpt><trkpt lat="44.2880288" lon="7.9073616"><ele>989.0</ele><time>2026-04-18T15:38:43.581Z</time></trkpt><trkpt lat="44.2881757" lon="7.9074457"><ele>989.0</ele><time>2026-04-18T15:38:44.581Z</time></trkpt><trkpt lat="44.2883185" lon="7.9075692"><ele>989.5</ele><time>2026-04-18T15:38:45.583Z</time></trkpt><trkpt lat="44.2884407" lon="7.9076899"><ele>990.0</ele><time>2026-04-18T15:38:46.581Z</time></trkpt><trkpt lat="44.2885455" lon="7.9077979"><ele>990.5</ele><time>2026-04-18T15:38:47.581Z</time></trkpt><trkpt lat="44.2886261" lon="7.9078646"><ele>991.0</ele><time>2026-04-18T15:38:48.582Z</time></trkpt><trkpt lat="44.2887193" lon="7.9079018"><ele>991.0</ele><time>2026-04-18T15:38:49.581Z</time></trkpt><trkpt lat="44.2888321" lon="7.907934"><ele>991.0</ele><time>2026-04-18T15:38:50.582Z</time></trkpt><trkpt lat="44.2889578" lon="7.9078777"><ele>991.0</ele><time>2026-04-18T15:38:51.583Z</time></trkpt><trkpt lat="44.2890934" lon="7.9078195"><ele>991.0</ele><time>2026-04-18T15:38:52.582Z</time></trkpt><trkpt lat="44.2892403" lon="7.9077112"><ele>993.6666666666666</ele><time>2026-04-18T15:38:53.582Z</time></trkpt><trkpt lat="44.2893683" lon="7.9075757"><ele>996.3333333333333</ele><time>2026-04-18T15:38:54.583Z</time></trkpt><trkpt lat="44.2895008" lon="7.9074351"><ele>999.0</ele><time>2026-04-18T15:38:55.582Z</time></trkpt><trkpt lat="44.289644" lon="7.907298"><ele>998.5</ele><time>2026-04-18T15:38:56.581Z</time></trkpt><trkpt lat="44.2897653" lon="7.907168"><ele>998.0</ele><time>2026-04-18T15:38:57.582Z</time></trkpt><trkpt lat="44.2898897" lon="7.9070395"><ele>997.5</ele><time>2026-04-18T15:38:58.581Z</time></trkpt><trkpt lat="44.2900147" lon="7.906994"><ele>997.0</ele><time>2026-04-18T15:38:59.582Z</time></trkpt><trkpt lat="44.2901136" lon="7.9069903"><ele>997.0</ele><time>2026-04-18T15:39:00.581Z</time></trkpt><trkpt lat="44.2902051" lon="7.9070008"><ele>997.0</ele><time>2026-04-18T15:39:01.582Z</time></trkpt><trkpt lat="44.2903065" lon="7.9070344"><ele>997.0</ele><time>2026-04-18T15:39:02.581Z</time></trkpt><trkpt lat="44.290406" lon="7.9070664"><ele>997.0</ele><time>2026-04-18T15:39:03.582Z</time></trkpt><trkpt lat="44.2905157" lon="7.9071024"><ele>997.0</ele><time>2026-04-18T15:39:04.582Z</time></trkpt><trkpt lat="44.2906358" lon="7.907142"><ele>998.5</ele><time>2026-04-18T15:39:05.582Z</time></trkpt><trkpt lat="44.2907408" lon="7.9071919"><ele>1000.0</ele><time>2026-04-18T15:39:06.582Z</time></trkpt><trkpt lat="44.2908496" lon="7.9072405"><ele>1001.5</ele><time>2026-04-18T15:39:07.581Z</time></trkpt><trkpt lat="44.2909601" lon="7.9072773"><ele>1003.0</ele><time>2026-04-18T15:39:08.582Z</time></trkpt><trkpt lat="44.291089" lon="7.9072118"><ele>1003.0</ele><time>2026-04-18T15:39:09.581Z</time></trkpt><trkpt lat="44.291201" lon="7.907211"><ele>1003.0</ele><time>2026-04-18T15:39:10.583Z</time></trkpt><trkpt lat="44.2913051" lon="7.9071637"><ele>1003.0</ele><time>2026-04-18T15:39:11.582Z</time></trkpt><trkpt lat="44.2914085" lon="7.9071105"><ele>1003.0</ele><time>2026-04-18T15:39:12.582Z</time></trkpt><trkpt lat="44.291532" lon="7.9069904"><ele>1003.25</ele><time>2026-04-18T15:39:13.581Z</time></trkpt><trkpt lat="44.2916489" lon="7.9069344"><ele>1003.5</ele><time>2026-04-18T15:39:14.581Z</time></trkpt><trkpt lat="44.2917606" lon="7.9069113"><ele>1003.75</ele><time>2026-04-18T15:39:15.581Z</time></trkpt><trkpt lat="44.2918758" lon="7.9068951"><ele>1004.0</ele><time>2026-04-18T15:39:16.583Z</time></trkpt><trkpt lat="44.2919957" lon="7.9069394"><ele>1004.0</ele><time>2026-04-18T15:39:17.582Z</time></trkpt><trkpt lat="44.2921217" lon="7.9070012"><ele>1004.0</ele><time>2026-04-18T15:39:18.581Z</time></trkpt><trkpt lat="44.2922369" lon="7.90709"><ele>1004.0</ele><time>2026-04-18T15:39:19.582Z</time></trkpt><trkpt lat="44.2923506" lon="7.9072094"><ele>1004.0</ele><time>2026-04-18T15:39:20.583Z</time></trkpt><trkpt lat="44.2924619" lon="7.9073296"><ele>1004.0</ele><time>2026-04-18T15:39:21.581Z</time></trkpt><trkpt lat="44.2925749" lon="7.9074378"><ele>1004.0</ele><time>2026-04-18T15:39:22.581Z</time></trkpt><trkpt lat="44.2926624" lon="7.9075102"><ele>1004.0</ele><time>2026-04-18T15:39:23.582Z</time></trkpt><trkpt lat="44.2927472" lon="7.9075848"><ele>1004.0</ele><time>2026-04-18T15:39:24.582Z</time></trkpt><trkpt lat="44.292851" lon="7.9077338"><ele>1004.0</ele><time>2026-04-18T15:39:26.582Z</time></trkpt><trkpt lat="44.2928759" lon="7.9078295"><ele>1004.0000000000001</ele><time>2026-04-18T15:39:27.581Z</time></trkpt><trkpt lat="44.2929047" lon="7.9079637"><ele>1004.0000000000001</ele><time>2026-04-18T15:39:28.582Z</time></trkpt><trkpt lat="44.2929275" lon="7.9080911"><ele>1004.0</ele><time>2026-04-18T15:39:29.581Z</time></trkpt><trkpt lat="44.2929623" lon="7.9082869"><ele>1004.0</ele><time>2026-04-18T15:39:30.582Z</time></trkpt><trkpt lat="44.2929993" lon="7.9084652"><ele>1003.8000000000001</ele><time>2026-04-18T15:39:31.581Z</time></trkpt><trkpt lat="44.2930278" lon="7.9086298"><ele>1003.6000000000001</ele><time>2026-04-18T15:39:32.582Z</time></trkpt><trkpt lat="44.293052" lon="7.9087867"><ele>1003.4</ele><time>2026-04-18T15:39:33.583Z</time></trkpt><trkpt lat="44.2930806" lon="7.9089158"><ele>1003.2</ele><time>2026-04-18T15:39:34.582Z</time></trkpt><trkpt lat="44.2931322" lon="7.909056"><ele>1003.0</ele><time>2026-04-18T15:39:35.581Z</time></trkpt><trkpt lat="44.293189" lon="7.9091973"><ele>1002.0</ele><time>2026-04-18T15:39:36.582Z</time></trkpt><trkpt lat="44.2932891" lon="7.9093484"><ele>1001.0</ele><time>2026-04-18T15:39:37.583Z</time></trkpt><trkpt lat="44.2933792" lon="7.9094792"><ele>1000.0</ele><time>2026-04-18T15:39:38.581Z</time></trkpt><trkpt lat="44.2934766" lon="7.9096289"><ele>999.0</ele><time>2026-04-18T15:39:39.582Z</time></trkpt><trkpt lat="44.2935663" lon="7.9097597"><ele>999.0</ele><time>2026-04-18T15:39:40.582Z</time></trkpt><trkpt lat="44.2936316" lon="7.909885"><ele>999.0000000000001</ele><time>2026-04-18T15:39:41.581Z</time></trkpt><trkpt lat="44.2937046" lon="7.910002"><ele>999.0000000000001</ele><time>2026-04-18T15:39:42.581Z</time></trkpt><trkpt lat="44.2937786" lon="7.9100857"><ele>999.0</ele><time>2026-04-18T15:39:43.582Z</time></trkpt><trkpt lat="44.2938494" lon="7.9101536"><ele>999.0</ele><time>2026-04-18T15:39:44.581Z</time></trkpt><trkpt lat="44.293941" lon="7.9101932"><ele>1001.0</ele><time>2026-04-18T15:39:45.581Z</time></trkpt><trkpt lat="44.2940209" lon="7.9102943"><ele>1003.0</ele><time>2026-04-18T15:39:46.582Z</time></trkpt><trkpt lat="44.2941162" lon="7.9104035"><ele>1005.0</ele><time>2026-04-18T15:39:47.582Z</time></trkpt><trkpt lat="44.2942186" lon="7.910507"><ele>1007.0</ele><time>2026-04-18T15:39:48.581Z</time></trkpt><trkpt lat="44.2943394" lon="7.9105758"><ele>1007.0</ele><time>2026-04-18T15:39:49.581Z</time></trkpt><trkpt lat="44.2944653" lon="7.9106142"><ele>1007.0</ele><time>2026-04-18T15:39:50.583Z</time></trkpt><trkpt lat="44.2945995" lon="7.9106311"><ele>1007.0</ele><time>2026-04-18T15:39:51.581Z</time></trkpt><trkpt lat="44.2947381" lon="7.9106324"><ele>1007.0</ele><time>2026-04-18T15:39:52.582Z</time></trkpt><trkpt lat="44.2948727" lon="7.910627"><ele>1009.8</ele><time>2026-04-18T15:39:53.581Z</time></trkpt><trkpt lat="44.2949958" lon="7.9106084"><ele>1012.6</ele><time>2026-04-18T15:39:54.581Z</time></trkpt><trkpt lat="44.2950965" lon="7.9105971"><ele>1015.3999999999999</ele><time>2026-04-18T15:39:55.582Z</time></trkpt><trkpt lat="44.2952044" lon="7.9106069"><ele>1018.1999999999999</ele><time>2026-04-18T15:39:56.581Z</time></trkpt><trkpt lat="44.2953111" lon="7.910591"><ele>1021.0</ele><time>2026-04-18T15:39:57.582Z</time></trkpt><trkpt lat="44.2954093" lon="7.9104922"><ele>1021.0</ele><time>2026-04-18T15:39:58.582Z</time></trkpt><trkpt lat="44.2954934" lon="7.9103513"><ele>1021.0</ele><time>2026-04-18T15:39:59.582Z</time></trkpt><trkpt lat="44.2955766" lon="7.9102336"><ele>1021.0</ele><time>2026-04-18T15:40:00.581Z</time></trkpt><trkpt lat="44.295669" lon="7.9100984"><ele>1021.0</ele><time>2026-04-18T15:40:01.582Z</time></trkpt><trkpt lat="44.2957509" lon="7.9099452"><ele>1024.0</ele><time>2026-04-18T15:40:02.582Z</time></trkpt><trkpt lat="44.2958152" lon="7.9097898"><ele>1027.0</ele><time>2026-04-18T15:40:03.581Z</time></trkpt><trkpt lat="44.2958815" lon="7.9096222"><ele>1030.0</ele><time>2026-04-18T15:40:04.583Z</time></trkpt><trkpt lat="44.2959452" lon="7.9094631"><ele>1033.0</ele><time>2026-04-18T15:40:05.581Z</time></trkpt><trkpt lat="44.2960173" lon="7.9093201"><ele>1030.75</ele><time>2026-04-18T15:40:06.582Z</time></trkpt><trkpt lat="44.2961189" lon="7.909204"><ele>1028.5</ele><time>2026-04-18T15:40:07.582Z</time></trkpt><trkpt lat="44.2962004" lon="7.9090912"><ele>1026.25</ele><time>2026-04-18T15:40:08.582Z</time></trkpt><trkpt lat="44.2963161" lon="7.9090042"><ele>1024.0</ele><time>2026-04-18T15:40:09.581Z</time></trkpt><trkpt lat="44.296426" lon="7.9089105"><ele>1032.3333333333333</ele><time>2026-04-18T15:40:10.581Z</time></trkpt><trkpt lat="44.2965644" lon="7.9088745"><ele>1040.6666666666667</ele><time>2026-04-18T15:40:11.581Z</time></trkpt><trkpt lat="44.2967207" lon="7.9088317"><ele>1049.0</ele><time>2026-04-18T15:40:12.581Z</time></trkpt><trkpt lat="44.2968735" lon="7.9087757"><ele>1049.0</ele><time>2026-04-18T15:40:13.581Z</time></trkpt><trkpt lat="44.2970207" lon="7.908665"><ele>1049.0</ele><time>2026-04-18T15:40:14.582Z</time></trkpt><trkpt lat="44.2971722" lon="7.9085713"><ele>1049.0</ele><time>2026-04-18T15:40:15.582Z</time></trkpt><trkpt lat="44.2973169" lon="7.9084823"><ele>1050.0</ele><time>2026-04-18T15:40:16.582Z</time></trkpt><trkpt lat="44.2974621" lon="7.9083902"><ele>1051.0</ele><time>2026-04-18T15:40:17.582Z</time></trkpt><trkpt lat="44.2976109" lon="7.9083041"><ele>1052.0</ele><time>2026-04-18T15:40:18.582Z</time></trkpt><trkpt lat="44.2977361" lon="7.9081938"><ele>1052.0</ele><time>2026-04-18T15:40:19.581Z</time></trkpt><trkpt lat="44.2978431" lon="7.9081096"><ele>1052.0</ele><time>2026-04-18T15:40:20.581Z</time></trkpt><trkpt lat="44.2979516" lon="7.9080636"><ele>1052.0</ele><time>2026-04-18T15:40:21.581Z</time></trkpt><trkpt lat="44.2980624" lon="7.9080264"><ele>1052.0</ele><time>2026-04-18T15:40:22.582Z</time></trkpt><trkpt lat="44.298183" lon="7.9080349"><ele>1054.2</ele><time>2026-04-18T15:40:23.581Z</time></trkpt><trkpt lat="44.2982945" lon="7.9080482"><ele>1056.4</ele><time>2026-04-18T15:40:24.581Z</time></trkpt><trkpt lat="44.2984058" lon="7.9080539"><ele>1058.6</ele><time>2026-04-18T15:40:25.582Z</time></trkpt><trkpt lat="44.2984879" lon="7.9080307"><ele>1060.8</ele><time>2026-04-18T15:40:26.582Z</time></trkpt><trkpt lat="44.2985759" lon="7.9079876"><ele>1063.0</ele><time>2026-04-18T15:40:27.581Z</time></trkpt><trkpt lat="44.2986902" lon="7.907964"><ele>1063.0</ele><time>2026-04-18T15:40:28.582Z</time></trkpt><trkpt lat="44.2987812" lon="7.9078193"><ele>1063.0</ele><time>2026-04-18T15:40:29.581Z</time></trkpt><trkpt lat="44.2988821" lon="7.9077209"><ele>1063.0</ele><time>2026-04-18T15:40:30.581Z</time></trkpt><trkpt lat="44.2989701" lon="7.9076269"><ele>1063.0</ele><time>2026-04-18T15:40:31.581Z</time></trkpt><trkpt lat="44.2990888" lon="7.9075844"><ele>1062.8</ele><time>2026-04-18T15:40:32.583Z</time></trkpt><trkpt lat="44.299196" lon="7.9075521"><ele>1062.6</ele><time>2026-04-18T15:40:33.583Z</time></trkpt><trkpt lat="44.2993129" lon="7.9075679"><ele>1062.4</ele><time>2026-04-18T15:40:34.581Z</time></trkpt><trkpt lat="44.2994191" lon="7.9076151"><ele>1062.2</ele><time>2026-04-18T15:40:35.581Z</time></trkpt><trkpt lat="44.2995199" lon="7.9076553"><ele>1062.0</ele><time>2026-04-18T15:40:36.582Z</time></trkpt><trkpt lat="44.2996268" lon="7.9076956"><ele>1060.5</ele><time>2026-04-18T15:40:37.583Z</time></trkpt><trkpt lat="44.2997305" lon="7.9077118"><ele>1059.0</ele><time>2026-04-18T15:40:38.581Z</time></trkpt><trkpt lat="44.2998443" lon="7.9077166"><ele>1057.5</ele><time>2026-04-18T15:40:39.582Z</time></trkpt><trkpt lat="44.2999706" lon="7.907709"><ele>1056.0</ele><time>2026-04-18T15:40:40.582Z</time></trkpt><trkpt lat="44.3000998" lon="7.9076725"><ele>1056.0</ele><time>2026-04-18T15:40:41.582Z</time></trkpt><trkpt lat="44.3002321" lon="7.9076373"><ele>1056.0</ele><time>2026-04-18T15:40:42.581Z</time></trkpt><trkpt lat="44.3003574" lon="7.9076243"><ele>1056.0</ele><time>2026-04-18T15:40:43.581Z</time></trkpt><trkpt lat="44.3004758" lon="7.9076133"><ele>1056.0</ele><time>2026-04-18T15:40:44.582Z</time></trkpt><trkpt lat="44.3005927" lon="7.9075973"><ele>1055.5</ele><time>2026-04-18T15:40:45.583Z</time></trkpt><trkpt lat="44.3007128" lon="7.9075836"><ele>1055.0</ele><time>2026-04-18T15:40:46.582Z</time></trkpt><trkpt lat="44.300849" lon="7.907605"><ele>1054.5</ele><time>2026-04-18T15:40:47.581Z</time></trkpt><trkpt lat="44.3009767" lon="7.907625"><ele>1054.0</ele><time>2026-04-18T15:40:48.581Z</time></trkpt><trkpt lat="44.3010965" lon="7.9076413"><ele>1054.0</ele><time>2026-04-18T15:40:49.581Z</time></trkpt><trkpt lat="44.3012571" lon="7.9075904"><ele>1054.0</ele><time>2026-04-18T15:40:50.582Z</time></trkpt><trkpt lat="44.3013929" lon="7.9075848"><ele>1054.0</ele><time>2026-04-18T15:40:51.581Z</time></trkpt><trkpt lat="44.3015351" lon="7.9075786"><ele>1054.0</ele><time>2026-04-18T15:40:52.581Z</time></trkpt><trkpt lat="44.3016557" lon="7.9075778"><ele>1052.25</ele><time>2026-04-18T15:40:53.582Z</time></trkpt><trkpt lat="44.3017763" lon="7.907579"><ele>1050.5</ele><time>2026-04-18T15:40:54.581Z</time></trkpt><trkpt lat="44.3019074" lon="7.9075978"><ele>1048.75</ele><time>2026-04-18T15:40:55.582Z</time></trkpt><trkpt lat="44.3020076" lon="7.9076764"><ele>1047.0</ele><time>2026-04-18T15:40:56.582Z</time></trkpt><trkpt lat="44.3021349" lon="7.9077432"><ele>1044.5</ele><time>2026-04-18T15:40:57.581Z</time></trkpt><trkpt lat="44.3022556" lon="7.9078251"><ele>1042.0</ele><time>2026-04-18T15:40:58.581Z</time></trkpt><trkpt lat="44.3023579" lon="7.90793"><ele>1039.5</ele><time>2026-04-18T15:40:59.583Z</time></trkpt><trkpt lat="44.3024552" lon="7.9080391"><ele>1037.0</ele><time>2026-04-18T15:41:00.582Z</time></trkpt><trkpt lat="44.3025564" lon="7.9081395"><ele>1037.0</ele><time>2026-04-18T15:41:01.581Z</time></trkpt><trkpt lat="44.3026478" lon="7.9082249"><ele>1037.0</ele><time>2026-04-18T15:41:02.581Z</time></trkpt><trkpt lat="44.3027183" lon="7.9082854"><ele>1037.0</ele><time>2026-04-18T15:41:03.581Z</time></trkpt><trkpt lat="44.3028061" lon="7.908364"><ele>1037.0</ele><time>2026-04-18T15:41:05.582Z</time></trkpt><trkpt lat="44.3028751" lon="7.9083367"><ele>1037.0</ele><time>2026-04-18T15:41:13.582Z</time></trkpt><trkpt lat="44.3028937" lon="7.9081941"><ele>1037.0</ele><time>2026-04-18T15:41:15.581Z</time></trkpt><trkpt lat="44.3028926" lon="7.9081008"><ele>1037.0</ele><time>2026-04-18T15:41:16.582Z</time></trkpt><trkpt lat="44.3028853" lon="7.90795"><ele>1037.0</ele><time>2026-04-18T15:41:18.581Z</time></trkpt><trkpt lat="44.3028448" lon="7.9078051"><ele>1037.0</ele><time>2026-04-18T15:41:20.581Z</time></trkpt><trkpt lat="44.3028163" lon="7.907652"><ele>1037.0</ele><time>2026-04-18T15:41:22.582Z</time></trkpt><trkpt lat="44.3028074" lon="7.907502"><ele>1036.5</ele><time>2026-04-18T15:41:24.582Z</time></trkpt><trkpt lat="44.3028363" lon="7.907394"><ele>1036.0</ele><time>2026-04-18T15:41:26.584Z</time></trkpt><trkpt lat="44.3028704" lon="7.9072433"><ele>1035.5</ele><time>2026-04-18T15:41:28.583Z</time></trkpt><trkpt lat="44.3028747" lon="7.907095"><ele>1035.0</ele><time>2026-04-18T15:41:30.582Z</time></trkpt><trkpt lat="44.302885" lon="7.9070074"><ele>1034.5</ele><time>2026-04-18T15:41:32.582Z</time></trkpt><trkpt lat="44.3029115" lon="7.9069117"><ele>1034.0</ele><time>2026-04-18T15:41:34.583Z</time></trkpt><trkpt lat="44.3029156" lon="7.9068042"><ele>1030.6000000000001</ele><time>2026-04-18T15:41:36.582Z</time></trkpt><trkpt lat="44.3028987" lon="7.9066491"><ele>1027.2</ele><time>2026-04-18T15:41:38.582Z</time></trkpt><trkpt lat="44.302935" lon="7.906526"><ele>1023.8000000000001</ele><time>2026-04-18T15:41:40.582Z</time></trkpt><trkpt lat="44.3029489" lon="7.9064026"><ele>1020.4000000000001</ele><time>2026-04-18T15:41:42.583Z</time></trkpt><trkpt lat="44.3029619" lon="7.9063095"><ele>1017.0</ele><time>2026-04-18T15:41:43.582Z</time></trkpt><trkpt lat="44.3029951" lon="7.9061568"><ele>1017.0</ele><time>2026-04-18T15:41:45.582Z</time></trkpt><trkpt lat="44.3030228" lon="7.9059968"><ele>1017.0</ele><time>2026-04-18T15:41:47.583Z</time></trkpt><trkpt lat="44.3030328" lon="7.9058354"><ele>1017.0</ele><time>2026-04-18T15:41:49.583Z</time></trkpt><trkpt lat="44.3030753" lon="7.9056987"><ele>1017.0</ele><time>2026-04-18T15:41:51.582Z</time></trkpt><trkpt lat="44.3031515" lon="7.9055824"><ele>1017.0</ele><time>2026-04-18T15:41:53.582Z</time></trkpt><trkpt lat="44.3032009" lon="7.9054716"><ele>1017.0</ele><time>2026-04-18T15:41:55.583Z</time></trkpt><trkpt lat="44.3032504" lon="7.9053873"><ele>1017.0</ele><time>2026-04-18T15:41:57.583Z</time></trkpt><trkpt lat="44.3033942" lon="7.9053228"><ele>1017.0</ele><time>2026-04-18T15:42:00.583Z</time></trkpt><trkpt lat="44.3034933" lon="7.9052717"><ele>1017.0</ele><time>2026-04-18T15:42:02.583Z</time></trkpt><trkpt lat="44.3035261" lon="7.9051685"><ele>1017.0</ele><time>2026-04-18T15:42:11.582Z</time></trkpt><trkpt lat="44.3035696" lon="7.9050999"><ele>1017.0</ele><time>2026-04-18T15:42:26.582Z</time></trkpt><trkpt lat="44.3036203" lon="7.905046"><ele>1017.0</ele><time>2026-04-18T15:42:28.582Z</time></trkpt><trkpt lat="44.3036951" lon="7.904993"><ele>1017.0</ele><time>2026-04-18T15:42:30.582Z</time></trkpt><trkpt lat="44.3037854" lon="7.9049769"><ele>1017.0</ele><time>2026-04-18T15:42:31.582Z</time></trkpt><trkpt lat="44.303899" lon="7.9049567"><ele>1017.0</ele><time>2026-04-18T15:42:33.583Z</time></trkpt><trkpt lat="44.303997" lon="7.9048935"><ele>1015.0</ele><time>2026-04-18T15:42:35.584Z</time></trkpt><trkpt lat="44.3040575" lon="7.9048148"><ele>1013.0</ele><time>2026-04-18T15:42:36.582Z</time></trkpt><trkpt lat="44.3041192" lon="7.9047722"><ele>1011.0</ele><time>2026-04-18T15:42:37.584Z</time></trkpt><trkpt lat="44.3042169" lon="7.9047155"><ele>1009.0</ele><time>2026-04-18T15:42:39.582Z</time></trkpt><trkpt lat="44.3042974" lon="7.9047305"><ele>1007.0</ele><time>2026-04-18T15:42:41.583Z</time></trkpt><trkpt lat="44.3043026" lon="7.9048365"><ele>1005.0</ele><time>2026-04-18T15:42:42.582Z</time></trkpt><trkpt lat="44.3043368" lon="7.9049652"><ele>1005.0</ele><time>2026-04-18T15:42:44.583Z</time></trkpt><trkpt lat="44.3043963" lon="7.905075"><ele>1005.0</ele><time>2026-04-18T15:42:46.583Z</time></trkpt><trkpt lat="44.304458" lon="7.9050984"><ele>1005.0</ele><time>2026-04-18T15:42:47.583Z</time></trkpt><trkpt lat="44.3045718" lon="7.9051623"><ele>1005.0</ele><time>2026-04-18T15:42:49.582Z</time></trkpt><trkpt lat="44.3046356" lon="7.9052116"><ele>1005.0</ele><time>2026-04-18T15:42:50.583Z</time></trkpt><trkpt lat="44.3046913" lon="7.9052554"><ele>1005.0</ele><time>2026-04-18T15:42:51.582Z</time></trkpt><trkpt lat="44.3047672" lon="7.9053067"><ele>1007.0</ele><time>2026-04-18T15:42:52.582Z</time></trkpt><trkpt lat="44.304879" lon="7.9053675"><ele>1009.0</ele><time>2026-04-18T15:42:54.583Z</time></trkpt><trkpt lat="44.3049587" lon="7.9053951"><ele>1011.0</ele><time>2026-04-18T15:42:55.583Z</time></trkpt><trkpt lat="44.3050235" lon="7.9053784"><ele>1013.0</ele><time>2026-04-18T15:42:56.584Z</time></trkpt><trkpt lat="44.3050966" lon="7.9053774"><ele>1015.0</ele><time>2026-04-18T15:42:57.582Z</time></trkpt><trkpt lat="44.3051685" lon="7.9053679"><ele>1017.0</ele><time>2026-04-18T15:42:58.582Z</time></trkpt><trkpt lat="44.3053886" lon="7.9054514"><ele>1017.0</ele><time>2026-04-18T15:43:04.584Z</time></trkpt><trkpt lat="44.3055111" lon="7.9055833"><ele>1017.0</ele><time>2026-04-18T15:43:06.583Z</time></trkpt><trkpt lat="44.3055742" lon="7.905643"><ele>1017.0</ele><time>2026-04-18T15:43:07.583Z</time></trkpt><trkpt lat="44.3056386" lon="7.9057032"><ele>1017.0</ele><time>2026-04-18T15:43:08.584Z</time></trkpt><trkpt lat="44.3056913" lon="7.905775"><ele>1017.0</ele><time>2026-04-18T15:43:09.583Z</time></trkpt><trkpt lat="44.3057334" lon="7.9058407"><ele>1017.0</ele><time>2026-04-18T15:43:10.584Z</time></trkpt><trkpt lat="44.3058116" lon="7.9059116"><ele>1017.2</ele><time>2026-04-18T15:43:11.583Z</time></trkpt><trkpt lat="44.3059157" lon="7.9059294"><ele>1017.4000000000001</ele><time>2026-04-18T15:43:13.583Z</time></trkpt><trkpt lat="44.306022" lon="7.9059671"><ele>1017.5999999999999</ele><time>2026-04-18T15:43:15.583Z</time></trkpt><trkpt lat="44.3061086" lon="7.9060806"><ele>1017.8</ele><time>2026-04-18T15:43:17.584Z</time></trkpt><trkpt lat="44.3061527" lon="7.9061597"><ele>1018.0</ele><time>2026-04-18T15:43:18.584Z</time></trkpt><trkpt lat="44.306209" lon="7.9062267"><ele>1018.0</ele><time>2026-04-18T15:43:19.582Z</time></trkpt><trkpt lat="44.3062714" lon="7.9062993"><ele>1018.0</ele><time>2026-04-18T15:43:20.583Z</time></trkpt><trkpt lat="44.3063251" lon="7.9063912"><ele>1018.0</ele><time>2026-04-18T15:43:21.583Z</time></trkpt><trkpt lat="44.3064204" lon="7.9065329"><ele>1018.0</ele><time>2026-04-18T15:43:23.582Z</time></trkpt><trkpt lat="44.3064725" lon="7.906611"><ele>1018.0</ele><time>2026-04-18T15:43:24.583Z</time></trkpt><trkpt lat="44.3065483" lon="7.90677"><ele>1016.4999999999999</ele><time>2026-04-18T15:43:26.583Z</time></trkpt><trkpt lat="44.3065926" lon="7.9068636"><ele>1015.0</ele><time>2026-04-18T15:43:27.583Z</time></trkpt><trkpt lat="44.3066596" lon="7.9070178"><ele>1013.5</ele><time>2026-04-18T15:43:29.582Z</time></trkpt><trkpt lat="44.3066918" lon="7.9071095"><ele>1012.0</ele><time>2026-04-18T15:43:30.583Z</time></trkpt><trkpt lat="44.3067531" lon="7.9071767"><ele>1010.4999999999999</ele><time>2026-04-18T15:43:31.582Z</time></trkpt><trkpt lat="44.3068013" lon="7.9072592"><ele>1009.0</ele><time>2026-04-18T15:43:32.582Z</time></trkpt><trkpt lat="44.3068355" lon="7.907377"><ele>1008.9999999999999</ele><time>2026-04-18T15:43:33.583Z</time></trkpt><trkpt lat="44.30688" lon="7.9074934"><ele>1009.0</ele><time>2026-04-18T15:43:34.582Z</time></trkpt><trkpt lat="44.306918" lon="7.9076094"><ele>1009.0</ele><time>2026-04-18T15:43:35.582Z</time></trkpt><trkpt lat="44.3069589" lon="7.9077171"><ele>1009.0</ele><time>2026-04-18T15:43:36.583Z</time></trkpt><trkpt lat="44.3070037" lon="7.9078203"><ele>1008.9999999999999</ele><time>2026-04-18T15:43:37.582Z</time></trkpt><trkpt lat="44.3070606" lon="7.9079084"><ele>1009.0</ele><time>2026-04-18T15:43:38.582Z</time></trkpt><trkpt lat="44.3071077" lon="7.9080104"><ele>1008.8333333333333</ele><time>2026-04-18T15:43:39.583Z</time></trkpt><trkpt lat="44.3071317" lon="7.9080994"><ele>1008.6666666666666</ele><time>2026-04-18T15:43:40.582Z</time></trkpt><trkpt lat="44.3071517" lon="7.9082117"><ele>1008.5</ele><time>2026-04-18T15:43:41.583Z</time></trkpt><trkpt lat="44.3071696" lon="7.9083234"><ele>1008.3333333333333</ele><time>2026-04-18T15:43:42.582Z</time></trkpt><trkpt lat="44.3072118" lon="7.9084295"><ele>1008.1666666666666</ele><time>2026-04-18T15:43:43.582Z</time></trkpt><trkpt lat="44.3072575" lon="7.9085171"><ele>1008.0</ele><time>2026-04-18T15:43:44.583Z</time></trkpt><trkpt lat="44.3073147" lon="7.9086121"><ele>1008.0</ele><time>2026-04-18T15:43:45.583Z</time></trkpt><trkpt lat="44.3073875" lon="7.9086976"><ele>1008.0</ele><time>2026-04-18T15:43:46.582Z</time></trkpt><trkpt lat="44.307446" lon="7.9087778"><ele>1008.0</ele><time>2026-04-18T15:43:47.583Z</time></trkpt><trkpt lat="44.3075061" lon="7.9088601"><ele>1008.0</ele><time>2026-04-18T15:43:48.582Z</time></trkpt><trkpt lat="44.3075483" lon="7.9089519"><ele>1008.0</ele><time>2026-04-18T15:43:49.583Z</time></trkpt><trkpt lat="44.3076216" lon="7.9090086"><ele>1008.0</ele><time>2026-04-18T15:43:50.583Z</time></trkpt><trkpt lat="44.3076947" lon="7.9090534"><ele>1008.0</ele><time>2026-04-18T15:43:51.582Z</time></trkpt><trkpt lat="44.3077675" lon="7.9090672"><ele>1008.0</ele><time>2026-04-18T15:43:52.583Z</time></trkpt><trkpt lat="44.3078474" lon="7.9090987"><ele>1008.0</ele><time>2026-04-18T15:43:53.582Z</time></trkpt><trkpt lat="44.3079158" lon="7.9091465"><ele>1008.0</ele><time>2026-04-18T15:43:54.582Z</time></trkpt><trkpt lat="44.3079839" lon="7.9091836"><ele>1008.0</ele><time>2026-04-18T15:43:55.583Z</time></trkpt><trkpt lat="44.3080581" lon="7.90923"><ele>1008.0</ele><time>2026-04-18T15:43:56.584Z</time></trkpt><trkpt lat="44.3081335" lon="7.9092725"><ele>1010.0</ele><time>2026-04-18T15:43:57.582Z</time></trkpt><trkpt lat="44.3082064" lon="7.9093004"><ele>1012.0</ele><time>2026-04-18T15:43:58.583Z</time></trkpt><trkpt lat="44.3083153" lon="7.9093614"><ele>1014.0</ele><time>2026-04-18T15:44:00.583Z</time></trkpt><trkpt lat="44.3083914" lon="7.9094622"><ele>1016.0</ele><time>2026-04-18T15:44:02.582Z</time></trkpt><trkpt lat="44.3084515" lon="7.9095564"><ele>1018.0</ele><time>2026-04-18T15:44:06.583Z</time></trkpt><trkpt lat="44.308593" lon="7.9095429"><ele>1018.0</ele><time>2026-04-18T15:44:08.583Z</time></trkpt><trkpt lat="44.3086856" lon="7.9095167"><ele>1018.0</ele><time>2026-04-18T15:44:09.582Z</time></trkpt><trkpt lat="44.308794" lon="7.9095032"><ele>1018.0</ele><time>2026-04-18T15:44:10.582Z</time></trkpt><trkpt lat="44.3089018" lon="7.9094847"><ele>1018.0</ele><time>2026-04-18T15:44:11.583Z</time></trkpt><trkpt lat="44.3090168" lon="7.9094477"><ele>1018.0</ele><time>2026-04-18T15:44:12.582Z</time></trkpt><trkpt lat="44.3091364" lon="7.9094091"><ele>1017.5</ele><time>2026-04-18T15:44:13.582Z</time></trkpt><trkpt lat="44.3092598" lon="7.9093702"><ele>1017.0</ele><time>2026-04-18T15:44:14.583Z</time></trkpt><trkpt lat="44.309386" lon="7.9093365"><ele>1016.5</ele><time>2026-04-18T15:44:15.583Z</time></trkpt><trkpt lat="44.3094915" lon="7.9092799"><ele>1016.0</ele><time>2026-04-18T15:44:16.583Z</time></trkpt><trkpt lat="44.3096148" lon="7.9092245"><ele>1013.25</ele><time>2026-04-18T15:44:17.582Z</time></trkpt><trkpt lat="44.3097215" lon="7.9091637"><ele>1010.5</ele><time>2026-04-18T15:44:18.582Z</time></trkpt><trkpt lat="44.3098359" lon="7.9091242"><ele>1007.75</ele><time>2026-04-18T15:44:19.582Z</time></trkpt><trkpt lat="44.3099344" lon="7.9090607"><ele>1005.0</ele><time>2026-04-18T15:44:20.583Z</time></trkpt><trkpt lat="44.3100312" lon="7.9089889"><ele>1005.0</ele><time>2026-04-18T15:44:21.582Z</time></trkpt><trkpt lat="44.310125" lon="7.9089349"><ele>1005.0</ele><time>2026-04-18T15:44:22.583Z</time></trkpt><trkpt lat="44.3102303" lon="7.9089073"><ele>1005.0</ele><time>2026-04-18T15:44:23.584Z</time></trkpt><trkpt lat="44.310339" lon="7.9088954"><ele>1005.0</ele><time>2026-04-18T15:44:24.583Z</time></trkpt><trkpt lat="44.3104519" lon="7.908861"><ele>1005.0</ele><time>2026-04-18T15:44:25.582Z</time></trkpt><trkpt lat="44.3105745" lon="7.9088255"><ele>1004.0</ele><time>2026-04-18T15:44:26.582Z</time></trkpt><trkpt lat="44.3107045" lon="7.9088081"><ele>1003.0</ele><time>2026-04-18T15:44:27.582Z</time></trkpt><trkpt lat="44.3108247" lon="7.9088162"><ele>1002.0</ele><time>2026-04-18T15:44:28.582Z</time></trkpt><trkpt lat="44.3109526" lon="7.9088588"><ele>1001.0</ele><time>2026-04-18T15:44:29.582Z</time></trkpt><trkpt lat="44.3110751" lon="7.9088971"><ele>1001.0</ele><time>2026-04-18T15:44:30.583Z</time></trkpt><trkpt lat="44.3111986" lon="7.908962"><ele>1001.0</ele><time>2026-04-18T15:44:31.584Z</time></trkpt><trkpt lat="44.3113218" lon="7.9090296"><ele>1001.0</ele><time>2026-04-18T15:44:32.583Z</time></trkpt><trkpt lat="44.3114076" lon="7.9091618"><ele>1001.0</ele><time>2026-04-18T15:44:33.583Z</time></trkpt><trkpt lat="44.3115344" lon="7.9092666"><ele>1004.25</ele><time>2026-04-18T15:44:34.583Z</time></trkpt><trkpt lat="44.3116501" lon="7.9093617"><ele>1007.5</ele><time>2026-04-18T15:44:35.582Z</time></trkpt><trkpt lat="44.311771" lon="7.9094716"><ele>1010.75</ele><time>2026-04-18T15:44:36.584Z</time></trkpt><trkpt lat="44.3118767" lon="7.9095833"><ele>1014.0</ele><time>2026-04-18T15:44:37.583Z</time></trkpt><trkpt lat="44.3119828" lon="7.9096879"><ele>1014.0</ele><time>2026-04-18T15:44:38.582Z</time></trkpt><trkpt lat="44.3121049" lon="7.9097848"><ele>1014.0</ele><time>2026-04-18T15:44:39.583Z</time></trkpt><trkpt lat="44.3122039" lon="7.9098711"><ele>1014.0</ele><time>2026-04-18T15:44:40.582Z</time></trkpt><trkpt lat="44.3123463" lon="7.9099341"><ele>1014.0</ele><time>2026-04-18T15:44:41.584Z</time></trkpt><trkpt lat="44.3124853" lon="7.9100013"><ele>1013.75</ele><time>2026-04-18T15:44:42.582Z</time></trkpt><trkpt lat="44.3126269" lon="7.9100703"><ele>1013.5</ele><time>2026-04-18T15:44:43.582Z</time></trkpt><trkpt lat="44.3127466" lon="7.9101327"><ele>1013.25</ele><time>2026-04-18T15:44:44.582Z</time></trkpt><trkpt lat="44.312869" lon="7.9101866"><ele>1013.0</ele><time>2026-04-18T15:44:45.583Z</time></trkpt><trkpt lat="44.3129809" lon="7.9102302"><ele>1011.0</ele><time>2026-04-18T15:44:46.582Z</time></trkpt><trkpt lat="44.3131004" lon="7.9102615"><ele>1009.0</ele><time>2026-04-18T15:44:47.582Z</time></trkpt><trkpt lat="44.3132197" lon="7.9102812"><ele>1007.0</ele><time>2026-04-18T15:44:48.583Z</time></trkpt><trkpt lat="44.3133137" lon="7.9102373"><ele>1005.0</ele><time>2026-04-18T15:44:49.582Z</time></trkpt><trkpt lat="44.3133905" lon="7.9101492"><ele>1003.0</ele><time>2026-04-18T15:44:50.583Z</time></trkpt><trkpt lat="44.3134643" lon="7.9100242"><ele>1001.0</ele><time>2026-04-18T15:44:51.583Z</time></trkpt><trkpt lat="44.3135401" lon="7.909895"><ele>999.0</ele><time>2026-04-18T15:44:52.584Z</time></trkpt><trkpt lat="44.3136207" lon="7.90976"><ele>997.0</ele><time>2026-04-18T15:44:53.582Z</time></trkpt><trkpt lat="44.3136935" lon="7.9096309"><ele>995.0</ele><time>2026-04-18T15:44:54.582Z</time></trkpt><trkpt lat="44.313774" lon="7.9095396"><ele>995.0</ele><time>2026-04-18T15:44:55.583Z</time></trkpt><trkpt lat="44.3138596" lon="7.9094382"><ele>995.0</ele><time>2026-04-18T15:44:56.584Z</time></trkpt><trkpt lat="44.3139474" lon="7.9093539"><ele>995.0</ele><time>2026-04-18T15:44:57.582Z</time></trkpt><trkpt lat="44.3140425" lon="7.9092857"><ele>995.0</ele><time>2026-04-18T15:44:58.583Z</time></trkpt><trkpt lat="44.3141274" lon="7.9092356"><ele>995.0</ele><time>2026-04-18T15:44:59.583Z</time></trkpt><trkpt lat="44.3142241" lon="7.9091687"><ele>994.0</ele><time>2026-04-18T15:45:00.583Z</time></trkpt><trkpt lat="44.3142975" lon="7.9090923"><ele>993.0</ele><time>2026-04-18T15:45:01.583Z</time></trkpt><trkpt lat="44.3143584" lon="7.908983"><ele>992.0</ele><time>2026-04-18T15:45:02.582Z</time></trkpt><trkpt lat="44.314409" lon="7.9088764"><ele>991.0</ele><time>2026-04-18T15:45:03.582Z</time></trkpt><trkpt lat="44.3142732" lon="7.9085641"><ele>991.0</ele><time>2026-04-18T15:45:04.582Z</time></trkpt><trkpt lat="44.314284" lon="7.90841"><ele>991.0</ele><time>2026-04-18T15:45:05.583Z</time></trkpt><trkpt lat="44.3143059" lon="7.9082338"><ele>991.0</ele><time>2026-04-18T15:45:06.584Z</time></trkpt><trkpt lat="44.3144044" lon="7.9081008"><ele>991.0</ele><time>2026-04-18T15:45:07.583Z</time></trkpt><trkpt lat="44.314464" lon="7.9079572"><ele>989.0</ele><time>2026-04-18T15:45:08.582Z</time></trkpt><trkpt lat="44.3145038" lon="7.9078078"><ele>986.9999999999999</ele><time>2026-04-18T15:45:09.584Z</time></trkpt><trkpt lat="44.3145106" lon="7.9076553"><ele>984.9999999999999</ele><time>2026-04-18T15:45:10.583Z</time></trkpt><trkpt lat="44.3145115" lon="7.9075228"><ele>983.0</ele><time>2026-04-18T15:45:11.582Z</time></trkpt><trkpt lat="44.3145217" lon="7.9073434"><ele>981.0</ele><time>2026-04-18T15:45:13.582Z</time></trkpt><trkpt lat="44.3145468" lon="7.9072478"><ele>981.25</ele><time>2026-04-18T15:45:14.584Z</time></trkpt><trkpt lat="44.3145878" lon="7.907168"><ele>981.5</ele><time>2026-04-18T15:45:15.583Z</time></trkpt><trkpt lat="44.3147956" lon="7.9071989"><ele>981.75</ele><time>2026-04-18T15:45:16.583Z</time></trkpt><trkpt lat="44.3149092" lon="7.9071218"><ele>982.0</ele><time>2026-04-18T15:45:17.583Z</time></trkpt><trkpt lat="44.3150359" lon="7.9070653"><ele>982.0</ele><time>2026-04-18T15:45:18.583Z</time></trkpt><trkpt lat="44.3151697" lon="7.907037"><ele>982.0</ele><time>2026-04-18T15:45:19.583Z</time></trkpt><trkpt lat="44.3152913" lon="7.9070061"><ele>982.0</ele><time>2026-04-18T15:45:20.583Z</time></trkpt><trkpt lat="44.3154568" lon="7.9070331"><ele>982.0</ele><time>2026-04-18T15:45:21.582Z</time></trkpt><trkpt lat="44.3156042" lon="7.9070774"><ele>979.75</ele><time>2026-04-18T15:45:22.583Z</time></trkpt><trkpt lat="44.3157518" lon="7.9071199"><ele>977.5</ele><time>2026-04-18T15:45:23.584Z</time></trkpt><trkpt lat="44.3158944" lon="7.907146"><ele>975.25</ele><time>2026-04-18T15:45:24.583Z</time></trkpt><trkpt lat="44.31603" lon="7.9071681"><ele>973.0</ele><time>2026-04-18T15:45:25.584Z</time></trkpt><trkpt lat="44.3161556" lon="7.9071791"><ele>973.0</ele><time>2026-04-18T15:45:26.582Z</time></trkpt><trkpt lat="44.3162888" lon="7.9071835"><ele>973.0</ele><time>2026-04-18T15:45:27.583Z</time></trkpt><trkpt lat="44.3164068" lon="7.9071798"><ele>973.0</ele><time>2026-04-18T15:45:28.582Z</time></trkpt><trkpt lat="44.3165029" lon="7.9071978"><ele>973.0</ele><time>2026-04-18T15:45:29.583Z</time></trkpt><trkpt lat="44.3165976" lon="7.9072387"><ele>973.0</ele><time>2026-04-18T15:45:30.582Z</time></trkpt><trkpt lat="44.3166624" lon="7.9073054"><ele>971.2</ele><time>2026-04-18T15:45:31.583Z</time></trkpt><trkpt lat="44.3167451" lon="7.907347"><ele>969.4</ele><time>2026-04-18T15:45:32.583Z</time></trkpt><trkpt lat="44.3168304" lon="7.9074137"><ele>967.6000000000001</ele><time>2026-04-18T15:45:33.584Z</time></trkpt><trkpt lat="44.3169012" lon="7.9074491"><ele>965.8000000000001</ele><time>2026-04-18T15:45:34.583Z</time></trkpt><trkpt lat="44.3170859" lon="7.9074468"><ele>964.0</ele><time>2026-04-18T15:45:40.582Z</time></trkpt><trkpt lat="44.3171595" lon="7.9074346"><ele>962.4999999999999</ele><time>2026-04-18T15:45:42.584Z</time></trkpt><trkpt lat="44.3172387" lon="7.9074024"><ele>961.0</ele><time>2026-04-18T15:45:44.582Z</time></trkpt><trkpt lat="44.3172987" lon="7.9073344"><ele>959.5</ele><time>2026-04-18T15:45:46.583Z</time></trkpt><trkpt lat="44.3173469" lon="7.9072501"><ele>958.0</ele><time>2026-04-18T15:45:48.583Z</time></trkpt><trkpt lat="44.3173623" lon="7.9071401"><ele>956.4999999999999</ele><time>2026-04-18T15:45:51.582Z</time></trkpt><trkpt lat="44.3173288" lon="7.907027"><ele>955.0</ele><time>2026-04-18T15:45:54.582Z</time></trkpt><trkpt lat="44.317386" lon="7.9069198"><ele>955.0</ele><time>2026-04-18T15:45:56.582Z</time></trkpt><trkpt lat="44.3174772" lon="7.9068567"><ele>955.0</ele><time>2026-04-18T15:45:58.583Z</time></trkpt><trkpt lat="44.3175941" lon="7.9067821"><ele>955.0</ele><time>2026-04-18T15:46:00.584Z</time></trkpt><trkpt lat="44.3176903" lon="7.9066893"><ele>955.0</ele><time>2026-04-18T15:46:02.582Z</time></trkpt><trkpt lat="44.3177736" lon="7.9066083"><ele>955.0</ele><time>2026-04-18T15:46:03.583Z</time></trkpt><trkpt lat="44.3178485" lon="7.9065514"><ele>952.4</ele><time>2026-04-18T15:46:04.583Z</time></trkpt><trkpt lat="44.3179173" lon="7.9064921"><ele>949.8</ele><time>2026-04-18T15:46:05.583Z</time></trkpt><trkpt lat="44.3179845" lon="7.9065301"><ele>947.2</ele><time>2026-04-18T15:46:06.582Z</time></trkpt><trkpt lat="44.3181039" lon="7.9064745"><ele>944.6</ele><time>2026-04-18T15:46:08.583Z</time></trkpt><trkpt lat="44.3181691" lon="7.9064512"><ele>942.0</ele><time>2026-04-18T15:46:09.582Z</time></trkpt><trkpt lat="44.3182887" lon="7.9063945"><ele>942.0</ele><time>2026-04-18T15:46:11.583Z</time></trkpt><trkpt lat="44.3183417" lon="7.9063273"><ele>942.0</ele><time>2026-04-18T15:46:12.582Z</time></trkpt><trkpt lat="44.3184363" lon="7.9062263"><ele>942.0</ele><time>2026-04-18T15:46:14.583Z</time></trkpt><trkpt lat="44.3184914" lon="7.9061814"><ele>942.0</ele><time>2026-04-18T15:46:15.582Z</time></trkpt><trkpt lat="44.3185556" lon="7.9061658"><ele>942.0</ele><time>2026-04-18T15:46:16.582Z</time></trkpt><trkpt lat="44.3186019" lon="7.9061058"><ele>942.0</ele><time>2026-04-18T15:46:17.583Z</time></trkpt><trkpt lat="44.318629" lon="7.9060177"><ele>938.2</ele><time>2026-04-18T15:46:18.583Z</time></trkpt><trkpt lat="44.3186602" lon="7.9058811"><ele>934.4000000000001</ele><time>2026-04-18T15:46:20.583Z</time></trkpt><trkpt lat="44.3186353" lon="7.9057833"><ele>930.5999999999999</ele><time>2026-04-18T15:46:21.582Z</time></trkpt><trkpt lat="44.3186077" lon="7.9056465"><ele>926.8</ele><time>2026-04-18T15:46:23.583Z</time></trkpt><trkpt lat="44.3186709" lon="7.9055126"><ele>923.0</ele><time>2026-04-18T15:46:25.583Z</time></trkpt><trkpt lat="44.3187273" lon="7.9054416"><ele>923.0</ele><time>2026-04-18T15:46:26.584Z</time></trkpt><trkpt lat="44.318813" lon="7.9053065"><ele>923.0</ele><time>2026-04-18T15:46:28.582Z</time></trkpt><trkpt lat="44.318864" lon="7.9052468"><ele>923.0</ele><time>2026-04-18T15:46:29.583Z</time></trkpt><trkpt lat="44.3189439" lon="7.9051724"><ele>923.0</ele><time>2026-04-18T15:46:30.583Z</time></trkpt><trkpt lat="44.3190261" lon="7.9051424"><ele>923.0</ele><time>2026-04-18T15:46:31.583Z</time></trkpt><trkpt lat="44.3190929" lon="7.9050991"><ele>922.2</ele><time>2026-04-18T15:46:32.582Z</time></trkpt><trkpt lat="44.3191885" lon="7.905044"><ele>921.4</ele><time>2026-04-18T15:46:33.583Z</time></trkpt><trkpt lat="44.3192699" lon="7.9050071"><ele>920.6000000000001</ele><time>2026-04-18T15:46:34.582Z</time></trkpt><trkpt lat="44.3193534" lon="7.9049454"><ele>919.8000000000001</ele><time>2026-04-18T15:46:35.582Z</time></trkpt><trkpt lat="44.3194434" lon="7.9048783"><ele>919.0</ele><time>2026-04-18T15:46:36.583Z</time></trkpt><trkpt lat="44.3195428" lon="7.9048006"><ele>918.9999999999999</ele><time>2026-04-18T15:46:37.584Z</time></trkpt><trkpt lat="44.3196151" lon="7.9047414"><ele>919.0</ele><time>2026-04-18T15:46:38.582Z</time></trkpt><trkpt lat="44.3197095" lon="7.9047017"><ele>919.0</ele><time>2026-04-18T15:46:39.584Z</time></trkpt><trkpt lat="44.3197983" lon="7.9046926"><ele>919.0</ele><time>2026-04-18T15:46:40.582Z</time></trkpt><trkpt lat="44.3198764" lon="7.9046787"><ele>918.9999999999999</ele><time>2026-04-18T15:46:41.582Z</time></trkpt><trkpt lat="44.3199382" lon="7.9046234"><ele>919.0</ele><time>2026-04-18T15:46:42.583Z</time></trkpt><trkpt lat="44.3200154" lon="7.9045728"><ele>920.4000000000001</ele><time>2026-04-18T15:46:43.582Z</time></trkpt><trkpt lat="44.3201169" lon="7.9045231"><ele>921.8000000000001</ele><time>2026-04-18T15:46:44.584Z</time></trkpt><trkpt lat="44.3202075" lon="7.9044535"><ele>923.1999999999999</ele><time>2026-04-18T15:46:45.582Z</time></trkpt><trkpt lat="44.3202754" lon="7.9043566"><ele>924.5999999999999</ele><time>2026-04-18T15:46:46.582Z</time></trkpt><trkpt lat="44.3203772" lon="7.9043209"><ele>926.0</ele><time>2026-04-18T15:46:47.583Z</time></trkpt><trkpt lat="44.3204609" lon="7.9042604"><ele>923.0000000000001</ele><time>2026-04-18T15:46:48.583Z</time></trkpt><trkpt lat="44.3205396" lon="7.9042436"><ele>920.0</ele><time>2026-04-18T15:46:49.583Z</time></trkpt><trkpt lat="44.3206061" lon="7.9042167"><ele>917.0</ele><time>2026-04-18T15:46:50.583Z</time></trkpt><trkpt lat="44.3206685" lon="7.9041645"><ele>914.0</ele><time>2026-04-18T15:46:51.582Z</time></trkpt><trkpt lat="44.3207629" lon="7.904123"><ele>911.0000000000001</ele><time>2026-04-18T15:46:52.583Z</time></trkpt><trkpt lat="44.3208661" lon="7.9040975"><ele>908.0</ele><time>2026-04-18T15:46:53.582Z</time></trkpt><trkpt lat="44.3209658" lon="7.9040617"><ele>908.0</ele><time>2026-04-18T15:46:54.582Z</time></trkpt><trkpt lat="44.3210688" lon="7.904032"><ele>908.0</ele><time>2026-04-18T15:46:55.582Z</time></trkpt><trkpt lat="44.3211397" lon="7.9039502"><ele>908.0</ele><time>2026-04-18T15:46:56.583Z</time></trkpt><trkpt lat="44.3212204" lon="7.9038834"><ele>908.0</ele><time>2026-04-18T15:46:57.583Z</time></trkpt><trkpt lat="44.3213497" lon="7.9037996"><ele>908.0</ele><time>2026-04-18T15:46:59.583Z</time></trkpt><trkpt lat="44.321426" lon="7.9037365"><ele>905.3333333333334</ele><time>2026-04-18T15:47:00.583Z</time></trkpt><trkpt lat="44.3214938" lon="7.9036561"><ele>902.6666666666667</ele><time>2026-04-18T15:47:01.583Z</time></trkpt><trkpt lat="44.321567" lon="7.9035965"><ele>900.0</ele><time>2026-04-18T15:47:02.583Z</time></trkpt><trkpt lat="44.3216422" lon="7.9035426"><ele>897.3333333333333</ele><time>2026-04-18T15:47:03.582Z</time></trkpt><trkpt lat="44.3217264" lon="7.9034762"><ele>894.6666666666666</ele><time>2026-04-18T15:47:04.582Z</time></trkpt><trkpt lat="44.3217964" lon="7.9034312"><ele>892.0</ele><time>2026-04-18T15:47:05.583Z</time></trkpt><trkpt lat="44.3218857" lon="7.903424"><ele>892.4999999999999</ele><time>2026-04-18T15:47:06.583Z</time></trkpt><trkpt lat="44.3219507" lon="7.9033897"><ele>893.0</ele><time>2026-04-18T15:47:07.583Z</time></trkpt><trkpt lat="44.3220349" lon="7.9033331"><ele>893.5</ele><time>2026-04-18T15:47:08.582Z</time></trkpt><trkpt lat="44.3220968" lon="7.9032669"><ele>894.0</ele><time>2026-04-18T15:47:09.584Z</time></trkpt><trkpt lat="44.3221594" lon="7.9031881"><ele>894.4999999999999</ele><time>2026-04-18T15:47:10.582Z</time></trkpt><trkpt lat="44.3222305" lon="7.9031242"><ele>895.0</ele><time>2026-04-18T15:47:11.582Z</time></trkpt><trkpt lat="44.3222982" lon="7.9030854"><ele>895.0</ele><time>2026-04-18T15:47:12.582Z</time></trkpt><trkpt lat="44.3223735" lon="7.9030475"><ele>895.0</ele><time>2026-04-18T15:47:13.582Z</time></trkpt><trkpt lat="44.3224397" lon="7.9030144"><ele>895.0</ele><time>2026-04-18T15:47:14.582Z</time></trkpt><trkpt lat="44.3225374" lon="7.9029507"><ele>895.0</ele><time>2026-04-18T15:47:16.582Z</time></trkpt><trkpt lat="44.3226394" lon="7.9029143"><ele>895.0</ele><time>2026-04-18T15:47:18.582Z</time></trkpt><trkpt lat="44.3227868" lon="7.9029008"><ele>894.9999999999999</ele><time>2026-04-18T15:47:20.582Z</time></trkpt><trkpt lat="44.3228736" lon="7.9029088"><ele>895.0</ele><time>2026-04-18T15:47:21.582Z</time></trkpt><trkpt lat="44.3229592" lon="7.9029061"><ele>895.0</ele><time>2026-04-18T15:47:22.583Z</time></trkpt><trkpt lat="44.323031" lon="7.9029064"><ele>895.0</ele><time>2026-04-18T15:47:23.583Z</time></trkpt><trkpt lat="44.3231209" lon="7.9029077"><ele>894.9999999999999</ele><time>2026-04-18T15:47:24.583Z</time></trkpt><trkpt lat="44.3232103" lon="7.9029119"><ele>895.0</ele><time>2026-04-18T15:47:25.583Z</time></trkpt><trkpt lat="44.3233062" lon="7.9029085"><ele>894.0</ele><time>2026-04-18T15:47:26.583Z</time></trkpt><trkpt lat="44.3233962" lon="7.9029057"><ele>893.0</ele><time>2026-04-18T15:47:27.583Z</time></trkpt><trkpt lat="44.3235316" lon="7.9029239"><ele>892.0</ele><time>2026-04-18T15:47:29.582Z</time></trkpt><trkpt lat="44.3236076" lon="7.9029009"><ele>891.0</ele><time>2026-04-18T15:47:30.583Z</time></trkpt><trkpt lat="44.3237489" lon="7.902973"><ele>891.0</ele><time>2026-04-18T15:47:32.583Z</time></trkpt><trkpt lat="44.3238425" lon="7.9030272"><ele>890.9999999999999</ele><time>2026-04-18T15:47:33.582Z</time></trkpt><trkpt lat="44.3239233" lon="7.9030873"><ele>890.9999999999999</ele><time>2026-04-18T15:47:34.583Z</time></trkpt><trkpt lat="44.3239833" lon="7.9031429"><ele>891.0</ele><time>2026-04-18T15:47:35.583Z</time></trkpt><trkpt lat="44.3241253" lon="7.9032164"><ele>891.0</ele><time>2026-04-18T15:47:37.582Z</time></trkpt><trkpt lat="44.3242031" lon="7.9032192"><ele>889.6666666666666</ele><time>2026-04-18T15:47:38.582Z</time></trkpt><trkpt lat="44.3242823" lon="7.9032267"><ele>888.3333333333333</ele><time>2026-04-18T15:47:39.583Z</time></trkpt><trkpt lat="44.3243687" lon="7.9032169"><ele>887.0</ele><time>2026-04-18T15:47:40.582Z</time></trkpt><trkpt lat="44.3244554" lon="7.9032069"><ele>885.6666666666666</ele><time>2026-04-18T15:47:41.583Z</time></trkpt><trkpt lat="44.3245536" lon="7.9032039"><ele>884.3333333333333</ele><time>2026-04-18T15:47:42.582Z</time></trkpt><trkpt lat="44.3246389" lon="7.9031974"><ele>883.0</ele><time>2026-04-18T15:47:43.582Z</time></trkpt><trkpt lat="44.3247455" lon="7.9031954"><ele>882.6666666666666</ele><time>2026-04-18T15:47:44.583Z</time></trkpt><trkpt lat="44.3248066" lon="7.9032193"><ele>882.3333333333333</ele><time>2026-04-18T15:47:45.583Z</time></trkpt><trkpt lat="44.3248873" lon="7.9032359"><ele>882.0</ele><time>2026-04-18T15:47:46.583Z</time></trkpt><trkpt lat="44.3249816" lon="7.9032435"><ele>881.6666666666667</ele><time>2026-04-18T15:47:47.582Z</time></trkpt><trkpt lat="44.3250907" lon="7.9032504"><ele>881.3333333333334</ele><time>2026-04-18T15:47:48.583Z</time></trkpt><trkpt lat="44.3251732" lon="7.9032695"><ele>881.0</ele><time>2026-04-18T15:47:49.584Z</time></trkpt><trkpt lat="44.3252685" lon="7.9032914"><ele>881.0</ele><time>2026-04-18T15:47:50.584Z</time></trkpt><trkpt lat="44.3253904" lon="7.9033114"><ele>880.9999999999999</ele><time>2026-04-18T15:47:52.582Z</time></trkpt><trkpt lat="44.3254589" lon="7.9033357"><ele>880.9999999999999</ele><time>2026-04-18T15:47:53.582Z</time></trkpt><trkpt lat="44.3255645" lon="7.9033581"><ele>881.0</ele><time>2026-04-18T15:47:55.582Z</time></trkpt><trkpt lat="44.3256323" lon="7.903344"><ele>881.0</ele><time>2026-04-18T15:47:56.582Z</time></trkpt><trkpt lat="44.325765" lon="7.9033483"><ele>879.5999999999999</ele><time>2026-04-18T15:47:58.582Z</time></trkpt><trkpt lat="44.3258796" lon="7.903373"><ele>878.1999999999999</ele><time>2026-04-18T15:48:00.583Z</time></trkpt><trkpt lat="44.3259525" lon="7.9033808"><ele>876.8000000000001</ele><time>2026-04-18T15:48:01.583Z</time></trkpt><trkpt lat="44.3260337" lon="7.9033785"><ele>875.4000000000001</ele><time>2026-04-18T15:48:02.583Z</time></trkpt><trkpt lat="44.3261598" lon="7.9033325"><ele>874.0</ele><time>2026-04-18T15:48:04.582Z</time></trkpt><trkpt lat="44.3262765" lon="7.9033039"><ele>873.25</ele><time>2026-04-18T15:48:06.583Z</time></trkpt><trkpt lat="44.3264407" lon="7.9032562"><ele>872.5</ele><time>2026-04-18T15:48:09.582Z</time></trkpt><trkpt lat="44.3266015" lon="7.9032083"><ele>871.75</ele><time>2026-04-18T15:48:12.583Z</time></trkpt><trkpt lat="44.3266667" lon="7.9031863"><ele>871.0</ele><time>2026-04-18T15:48:13.582Z</time></trkpt><trkpt lat="44.3267605" lon="7.9031444"><ele>871.0</ele><time>2026-04-18T15:48:15.584Z</time></trkpt><trkpt lat="44.3268507" lon="7.9030974"><ele>870.9999999999999</ele><time>2026-04-18T15:48:17.583Z</time></trkpt><trkpt lat="44.3269243" lon="7.9030557"><ele>870.9999999999999</ele><time>2026-04-18T15:48:19.584Z</time></trkpt><trkpt lat="44.3270205" lon="7.9029471"><ele>871.0</ele><time>2026-04-18T15:48:21.583Z</time></trkpt><trkpt lat="44.3270986" lon="7.902792"><ele>871.0</ele><time>2026-04-18T15:48:23.583Z</time></trkpt><trkpt lat="44.3271722" lon="7.9026734"><ele>869.3333333333333</ele><time>2026-04-18T15:48:25.583Z</time></trkpt><trkpt lat="44.327205" lon="7.9025646"><ele>867.6666666666666</ele><time>2026-04-18T15:48:27.583Z</time></trkpt><trkpt lat="44.3272697" lon="7.9025169"><ele>866.0</ele><time>2026-04-18T15:48:29.582Z</time></trkpt><trkpt lat="44.3273085" lon="7.902411"><ele>864.3333333333333</ele><time>2026-04-18T15:48:31.582Z</time></trkpt><trkpt lat="44.32736" lon="7.9023199"><ele>862.6666666666666</ele><time>2026-04-18T15:48:33.582Z</time></trkpt><trkpt lat="44.3273776" lon="7.9021954"><ele>861.0</ele><time>2026-04-18T15:48:35.582Z</time></trkpt><trkpt lat="44.327445" lon="7.9020567"><ele>860.8333333333334</ele><time>2026-04-18T15:48:37.583Z</time></trkpt><trkpt lat="44.3274917" lon="7.9019905"><ele>860.6666666666667</ele><time>2026-04-18T15:48:38.582Z</time></trkpt><trkpt lat="44.3275357" lon="7.9019186"><ele>860.5</ele><time>2026-04-18T15:48:39.584Z</time></trkpt><trkpt lat="44.3276244" lon="7.9018175"><ele>860.3333333333334</ele><time>2026-04-18T15:48:41.583Z</time></trkpt><trkpt lat="44.3276916" lon="7.9017628"><ele>860.1666666666667</ele><time>2026-04-18T15:48:42.583Z</time></trkpt><trkpt lat="44.3277565" lon="7.9017163"><ele>860.0</ele><time>2026-04-18T15:48:43.582Z</time></trkpt><trkpt lat="44.3278059" lon="7.9016559"><ele>858.2</ele><time>2026-04-18T15:48:44.582Z</time></trkpt><trkpt lat="44.3279002" lon="7.9015569"><ele>856.4</ele><time>2026-04-18T15:48:46.583Z</time></trkpt><trkpt lat="44.3279922" lon="7.9014447"><ele>854.5999999999999</ele><time>2026-04-18T15:48:48.584Z</time></trkpt><trkpt lat="44.3280502" lon="7.9013739"><ele>852.8</ele><time>2026-04-18T15:48:49.582Z</time></trkpt><trkpt lat="44.3280983" lon="7.9013135"><ele>851.0</ele><time>2026-04-18T15:48:50.582Z</time></trkpt><trkpt lat="44.3281848" lon="7.9011775"><ele>851.0</ele><time>2026-04-18T15:48:52.583Z</time></trkpt><trkpt lat="44.3283167" lon="7.9010906"><ele>851.0</ele><time>2026-04-18T15:48:55.583Z</time></trkpt><trkpt lat="44.3283927" lon="7.9009492"><ele>851.0</ele><time>2026-04-18T15:48:57.583Z</time></trkpt><trkpt lat="44.3284563" lon="7.900893"><ele>851.0</ele><time>2026-04-18T15:48:58.583Z</time></trkpt><trkpt lat="44.3285085" lon="7.9008136"><ele>851.0</ele><time>2026-04-18T15:48:59.582Z</time></trkpt><trkpt lat="44.3285897" lon="7.9007869"><ele>848.8333333333334</ele><time>2026-04-18T15:49:00.583Z</time></trkpt><trkpt lat="44.3286673" lon="7.9007587"><ele>846.6666666666667</ele><time>2026-04-18T15:49:01.582Z</time></trkpt><trkpt lat="44.3287256" lon="7.9006848"><ele>844.5</ele><time>2026-04-18T15:49:02.583Z</time></trkpt><trkpt lat="44.3287856" lon="7.9005751"><ele>842.3333333333333</ele><time>2026-04-18T15:49:04.582Z</time></trkpt><trkpt lat="44.3288622" lon="7.9005061"><ele>840.1666666666666</ele><time>2026-04-18T15:49:06.582Z</time></trkpt><trkpt lat="44.3289118" lon="7.9004498"><ele>838.0</ele><time>2026-04-18T15:49:07.583Z</time></trkpt><trkpt lat="44.3289692" lon="7.9003595"><ele>838.0</ele><time>2026-04-18T15:49:09.583Z</time></trkpt><trkpt lat="44.3290326" lon="7.9002996"><ele>838.0</ele><time>2026-04-18T15:49:11.584Z</time></trkpt><trkpt lat="44.3291199" lon="7.9002164"><ele>838.0</ele><time>2026-04-18T15:49:13.584Z</time></trkpt><trkpt lat="44.3292084" lon="7.9001314"><ele>838.0</ele><time>2026-04-18T15:49:15.583Z</time></trkpt><trkpt lat="44.3292721" lon="7.9000828"><ele>838.0</ele><time>2026-04-18T15:49:16.583Z</time></trkpt><trkpt lat="44.329358" lon="7.8999859"><ele>834.6666666666666</ele><time>2026-04-18T15:49:18.582Z</time></trkpt><trkpt lat="44.3294055" lon="7.8998876"><ele>831.3333333333333</ele><time>2026-04-18T15:49:21.582Z</time></trkpt><trkpt lat="44.32942" lon="7.8997823"><ele>828.0</ele><time>2026-04-18T15:49:24.582Z</time></trkpt><trkpt lat="44.3294574" lon="7.8996912"><ele>824.6666666666667</ele><time>2026-04-18T15:49:26.583Z</time></trkpt><trkpt lat="44.3295201" lon="7.899588"><ele>821.3333333333334</ele><time>2026-04-18T15:49:28.583Z</time></trkpt><trkpt lat="44.3295804" lon="7.8995206"><ele>818.0</ele><time>2026-04-18T15:49:30.583Z</time></trkpt><trkpt lat="44.3296374" lon="7.8994273"><ele>818.0</ele><time>2026-04-18T15:49:33.583Z</time></trkpt><trkpt lat="44.3296322" lon="7.8993069"><ele>818.0</ele><time>2026-04-18T15:49:36.583Z</time></trkpt><trkpt lat="44.329623" lon="7.8991948"><ele>818.0</ele><time>2026-04-18T15:49:38.584Z</time></trkpt><trkpt lat="44.3296185" lon="7.899099"><ele>818.0</ele><time>2026-04-18T15:49:40.583Z</time></trkpt><trkpt lat="44.3296201" lon="7.89901"><ele>818.0</ele><time>2026-04-18T15:49:42.582Z</time></trkpt><trkpt lat="44.3296246" lon="7.8989183"><ele>818.0</ele><time>2026-04-18T15:49:44.584Z</time></trkpt><trkpt lat="44.3296483" lon="7.8988233"><ele>818.0</ele><time>2026-04-18T15:49:46.582Z</time></trkpt><trkpt lat="44.329669" lon="7.8986975"><ele>818.6666666666667</ele><time>2026-04-18T15:49:49.582Z</time></trkpt><trkpt lat="44.3296952" lon="7.8986078"><ele>819.3333333333334</ele><time>2026-04-18T15:49:51.583Z</time></trkpt><trkpt lat="44.329741" lon="7.8985221"><ele>820.0</ele><time>2026-04-18T15:49:53.583Z</time></trkpt><trkpt lat="44.3298364" lon="7.8984346"><ele>820.6666666666667</ele><time>2026-04-18T15:49:55.584Z</time></trkpt><trkpt lat="44.3299236" lon="7.8983466"><ele>821.3333333333334</ele><time>2026-04-18T15:49:57.582Z</time></trkpt><trkpt lat="44.3299653" lon="7.8982672"><ele>822.0</ele><time>2026-04-18T15:49:59.584Z</time></trkpt><trkpt lat="44.3300251" lon="7.8982121"><ele>819.8333333333334</ele><time>2026-04-18T15:50:01.582Z</time></trkpt><trkpt lat="44.3300807" lon="7.8981073"><ele>817.6666666666667</ele><time>2026-04-18T15:50:03.582Z</time></trkpt><trkpt lat="44.3301356" lon="7.8980547"><ele>815.5</ele><time>2026-04-18T15:50:04.582Z</time></trkpt><trkpt lat="44.3302211" lon="7.8979916"><ele>813.3333333333334</ele><time>2026-04-18T15:50:06.583Z</time></trkpt><trkpt lat="44.3303102" lon="7.8979343"><ele>811.1666666666667</ele><time>2026-04-18T15:50:08.583Z</time></trkpt><trkpt lat="44.3303876" lon="7.8978971"><ele>809.0</ele><time>2026-04-18T15:50:09.583Z</time></trkpt><trkpt lat="44.3304975" lon="7.8978447"><ele>810.6666666666667</ele><time>2026-04-18T15:50:11.583Z</time></trkpt><trkpt lat="44.3305851" lon="7.8977606"><ele>812.3333333333334</ele><time>2026-04-18T15:50:13.582Z</time></trkpt><trkpt lat="44.3306457" lon="7.8976907"><ele>814.0</ele><time>2026-04-18T15:50:14.584Z</time></trkpt><trkpt lat="44.330703" lon="7.8976292"><ele>815.6666666666667</ele><time>2026-04-18T15:50:15.583Z</time></trkpt><trkpt lat="44.3307611" lon="7.8975654"><ele>817.3333333333334</ele><time>2026-04-18T15:50:16.582Z</time></trkpt><trkpt lat="44.3308306" lon="7.897453"><ele>819.0</ele><time>2026-04-18T15:50:18.583Z</time></trkpt><trkpt lat="44.3309054" lon="7.8973451"><ele>814.2</ele><time>2026-04-18T15:50:20.582Z</time></trkpt><trkpt lat="44.3309944" lon="7.8972584"><ele>809.4000000000001</ele><time>2026-04-18T15:50:22.582Z</time></trkpt><trkpt lat="44.3311283" lon="7.8972696"><ele>804.6</ele><time>2026-04-18T15:50:24.582Z</time></trkpt><trkpt lat="44.3311918" lon="7.8972677"><ele>799.8</ele><time>2026-04-18T15:50:25.582Z</time></trkpt><trkpt lat="44.3312592" lon="7.8972702"><ele>795.0</ele><time>2026-04-18T15:50:26.583Z</time></trkpt><trkpt lat="44.331337" lon="7.8972612"><ele>795.4</ele><time>2026-04-18T15:50:27.583Z</time></trkpt><trkpt lat="44.3314654" lon="7.8972386"><ele>795.8</ele><time>2026-04-18T15:50:29.582Z</time></trkpt><trkpt lat="44.3315321" lon="7.8972561"><ele>796.2</ele><time>2026-04-18T15:50:30.582Z</time></trkpt><trkpt lat="44.3316064" lon="7.8972679"><ele>796.6</ele><time>2026-04-18T15:50:31.583Z</time></trkpt><trkpt lat="44.3316713" lon="7.897266"><ele>797.0</ele><time>2026-04-18T15:50:33.582Z</time></trkpt><trkpt lat="44.3318592" lon="7.8972094"><ele>797.0000000000001</ele><time>2026-04-18T15:50:37.582Z</time></trkpt><trkpt lat="44.3319609" lon="7.8971338"><ele>797.0</ele><time>2026-04-18T15:50:39.583Z</time></trkpt><trkpt lat="44.3320122" lon="7.8970672"><ele>797.0</ele><time>2026-04-18T15:50:40.583Z</time></trkpt><trkpt lat="44.3320829" lon="7.8970179"><ele>797.0</ele><time>2026-04-18T15:50:41.583Z</time></trkpt><trkpt lat="44.3321255" lon="7.8969483"><ele>797.0000000000001</ele><time>2026-04-18T15:50:42.583Z</time></trkpt><trkpt lat="44.3321765" lon="7.8968613"><ele>797.0</ele><time>2026-04-18T15:50:43.582Z</time></trkpt><trkpt lat="44.3322473" lon="7.8968108"><ele>797.0000000000001</ele><time>2026-04-18T15:50:44.582Z</time></trkpt><trkpt lat="44.3323163" lon="7.896785"><ele>797.0</ele><time>2026-04-18T15:50:45.583Z</time></trkpt><trkpt lat="44.3323756" lon="7.896728"><ele>797.0</ele><time>2026-04-18T15:50:46.583Z</time></trkpt><trkpt lat="44.3324988" lon="7.8966579"><ele>797.0</ele><time>2026-04-18T15:50:48.583Z</time></trkpt><trkpt lat="44.3325483" lon="7.8965924"><ele>797.0000000000001</ele><time>2026-04-18T15:50:49.582Z</time></trkpt><trkpt lat="44.3326331" lon="7.8965108"><ele>797.0</ele><time>2026-04-18T15:50:50.583Z</time></trkpt><trkpt lat="44.3327174" lon="7.8964309"><ele>796.2</ele><time>2026-04-18T15:50:51.582Z</time></trkpt><trkpt lat="44.3327866" lon="7.8963557"><ele>795.4000000000001</ele><time>2026-04-18T15:50:52.583Z</time></trkpt><trkpt lat="44.3328682" lon="7.896321"><ele>794.5999999999999</ele><time>2026-04-18T15:50:53.583Z</time></trkpt><trkpt lat="44.3329482" lon="7.8962602"><ele>793.8</ele><time>2026-04-18T15:50:54.582Z</time></trkpt><trkpt lat="44.3330243" lon="7.8962022"><ele>793.0</ele><time>2026-04-18T15:50:55.584Z</time></trkpt><trkpt lat="44.3331347" lon="7.8961389"><ele>793.0</ele><time>2026-04-18T15:50:56.583Z</time></trkpt><trkpt lat="44.3332483" lon="7.8961037"><ele>793.0</ele><time>2026-04-18T15:50:57.582Z</time></trkpt><trkpt lat="44.3333644" lon="7.8960446"><ele>793.0</ele><time>2026-04-18T15:50:58.582Z</time></trkpt><trkpt lat="44.3334343" lon="7.8959665"><ele>793.0</ele><time>2026-04-18T15:50:59.582Z</time></trkpt><trkpt lat="44.3335162" lon="7.8959123"><ele>793.0</ele><time>2026-04-18T15:51:00.584Z</time></trkpt><trkpt lat="44.3336017" lon="7.8958521"><ele>790.9999999999999</ele><time>2026-04-18T15:51:01.583Z</time></trkpt><trkpt lat="44.333653" lon="7.8957927"><ele>789.0</ele><time>2026-04-18T15:51:02.582Z</time></trkpt><trkpt lat="44.3337383" lon="7.8957236"><ele>787.0</ele><time>2026-04-18T15:51:03.583Z</time></trkpt><trkpt lat="44.3338203" lon="7.8956807"><ele>785.0</ele><time>2026-04-18T15:51:04.582Z</time></trkpt><trkpt lat="44.3339043" lon="7.8956744"><ele>782.9999999999999</ele><time>2026-04-18T15:51:05.582Z</time></trkpt><trkpt lat="44.3339886" lon="7.8956393"><ele>781.0</ele><time>2026-04-18T15:51:06.583Z</time></trkpt><trkpt lat="44.3340782" lon="7.895623"><ele>780.9999999999999</ele><time>2026-04-18T15:51:07.582Z</time></trkpt><trkpt lat="44.3341594" lon="7.8955622"><ele>781.0</ele><time>2026-04-18T15:51:08.582Z</time></trkpt><trkpt lat="44.3342531" lon="7.895491"><ele>781.0</ele><time>2026-04-18T15:51:09.582Z</time></trkpt><trkpt lat="44.3343308" lon="7.8954502"><ele>781.0</ele><time>2026-04-18T15:51:10.582Z</time></trkpt><trkpt lat="44.3344051" lon="7.8953786"><ele>780.9999999999999</ele><time>2026-04-18T15:51:11.583Z</time></trkpt><trkpt lat="44.3344736" lon="7.895384"><ele>781.0</ele><time>2026-04-18T15:51:12.584Z</time></trkpt><trkpt lat="44.3345541" lon="7.8953675"><ele>780.9999999999999</ele><time>2026-04-18T15:51:13.584Z</time></trkpt><trkpt lat="44.3346263" lon="7.8953145"><ele>781.0</ele><time>2026-04-18T15:51:14.582Z</time></trkpt><trkpt lat="44.3347122" lon="7.8953261"><ele>781.0</ele><time>2026-04-18T15:51:15.582Z</time></trkpt><trkpt lat="44.3348271" lon="7.8953081"><ele>781.0</ele><time>2026-04-18T15:51:17.582Z</time></trkpt><trkpt lat="44.3349075" lon="7.895303"><ele>780.9999999999999</ele><time>2026-04-18T15:51:18.584Z</time></trkpt><trkpt lat="44.3349899" lon="7.8952813"><ele>781.0</ele><time>2026-04-18T15:51:19.584Z</time></trkpt><trkpt lat="44.3350739" lon="7.8952813"><ele>778.8333333333333</ele><time>2026-04-18T15:51:20.582Z</time></trkpt><trkpt lat="44.3351341" lon="7.8952532"><ele>776.6666666666666</ele><time>2026-04-18T15:51:21.582Z</time></trkpt><trkpt lat="44.3352262" lon="7.8952701"><ele>774.5</ele><time>2026-04-18T15:51:22.582Z</time></trkpt><trkpt lat="44.3353012" lon="7.8952318"><ele>772.3333333333333</ele><time>2026-04-18T15:51:23.582Z</time></trkpt><trkpt lat="44.335368" lon="7.8952028"><ele>770.1666666666666</ele><time>2026-04-18T15:51:24.582Z</time></trkpt><trkpt lat="44.3354282" lon="7.8951487"><ele>768.0</ele><time>2026-04-18T15:51:25.583Z</time></trkpt><trkpt lat="44.3355015" lon="7.8951156"><ele>766.0</ele><time>2026-04-18T15:51:26.583Z</time></trkpt><trkpt lat="44.3355726" lon="7.8950971"><ele>764.0</ele><time>2026-04-18T15:51:27.583Z</time></trkpt><trkpt lat="44.3356517" lon="7.8950864"><ele>762.0</ele><time>2026-04-18T15:51:28.583Z</time></trkpt><trkpt lat="44.3357144" lon="7.895071"><ele>760.0</ele><time>2026-04-18T15:51:29.582Z</time></trkpt><trkpt lat="44.335849" lon="7.8950618"><ele>758.0</ele><time>2026-04-18T15:51:31.584Z</time></trkpt><trkpt lat="44.3359292" lon="7.8950383"><ele>756.0</ele><time>2026-04-18T15:51:32.583Z</time></trkpt><trkpt lat="44.3360121" lon="7.8950195"><ele>756.0</ele><time>2026-04-18T15:51:33.582Z</time></trkpt><trkpt lat="44.3360869" lon="7.8949863"><ele>756.0</ele><time>2026-04-18T15:51:34.583Z</time></trkpt><trkpt lat="44.3361677" lon="7.894972"><ele>756.0</ele><time>2026-04-18T15:51:35.583Z</time></trkpt><trkpt lat="44.336282" lon="7.8949539"><ele>756.0</ele><time>2026-04-18T15:51:37.582Z</time></trkpt><trkpt lat="44.3363514" lon="7.8949395"><ele>756.0</ele><time>2026-04-18T15:51:38.583Z</time></trkpt><trkpt lat="44.3364668" lon="7.8948892"><ele>754.3333333333334</ele><time>2026-04-18T15:51:40.582Z</time></trkpt><trkpt lat="44.3365806" lon="7.8948776"><ele>752.6666666666666</ele><time>2026-04-18T15:51:42.582Z</time></trkpt><trkpt lat="44.3367043" lon="7.8948982"><ele>751.0</ele><time>2026-04-18T15:51:44.582Z</time></trkpt><trkpt lat="44.3367673" lon="7.8949104"><ele>749.3333333333333</ele><time>2026-04-18T15:51:45.582Z</time></trkpt><trkpt lat="44.3368293" lon="7.8949478"><ele>747.6666666666666</ele><time>2026-04-18T15:51:46.582Z</time></trkpt><trkpt lat="44.336891" lon="7.8949913"><ele>746.0</ele><time>2026-04-18T15:51:47.583Z</time></trkpt><trkpt lat="44.3369991" lon="7.8950836"><ele>745.5999999999999</ele><time>2026-04-18T15:51:49.583Z</time></trkpt><trkpt lat="44.337088" lon="7.8951464"><ele>745.2</ele><time>2026-04-18T15:51:50.582Z</time></trkpt><trkpt lat="44.3371633" lon="7.895192"><ele>744.8</ele><time>2026-04-18T15:51:51.583Z</time></trkpt><trkpt lat="44.3372147" lon="7.8952462"><ele>744.4000000000001</ele><time>2026-04-18T15:51:52.584Z</time></trkpt><trkpt lat="44.3373163" lon="7.8953147"><ele>744.0</ele><time>2026-04-18T15:51:54.584Z</time></trkpt><trkpt lat="44.337422" lon="7.8953763"><ele>741.0</ele><time>2026-04-18T15:51:56.583Z</time></trkpt><trkpt lat="44.3374791" lon="7.8954664"><ele>738.0</ele><time>2026-04-18T15:51:58.583Z</time></trkpt><trkpt lat="44.3375332" lon="7.8955172"><ele>735.0</ele><time>2026-04-18T15:51:59.582Z</time></trkpt><trkpt lat="44.3376366" lon="7.8955923"><ele>732.0</ele><time>2026-04-18T15:52:01.583Z</time></trkpt><trkpt lat="44.3377153" lon="7.8956801"><ele>729.0</ele><time>2026-04-18T15:52:03.583Z</time></trkpt><trkpt lat="44.3378345" lon="7.8957641"><ele>729.0</ele><time>2026-04-18T15:52:05.583Z</time></trkpt><trkpt lat="44.337896" lon="7.8957967"><ele>729.0</ele><time>2026-04-18T15:52:06.583Z</time></trkpt><trkpt lat="44.3380148" lon="7.8958341"><ele>729.0</ele><time>2026-04-18T15:52:08.582Z</time></trkpt><trkpt lat="44.3380834" lon="7.8958526"><ele>729.0</ele><time>2026-04-18T15:52:09.583Z</time></trkpt><trkpt lat="44.3381596" lon="7.8958627"><ele>729.0</ele><time>2026-04-18T15:52:10.582Z</time></trkpt><trkpt lat="44.338227" lon="7.8958828"><ele>729.0</ele><time>2026-04-18T15:52:11.584Z</time></trkpt><trkpt lat="44.3383053" lon="7.8958966"><ele>726.0</ele><time>2026-04-18T15:52:12.583Z</time></trkpt><trkpt lat="44.3383817" lon="7.8959088"><ele>723.0</ele><time>2026-04-18T15:52:13.582Z</time></trkpt><trkpt lat="44.3384698" lon="7.8959214"><ele>720.0</ele><time>2026-04-18T15:52:14.582Z</time></trkpt><trkpt lat="44.3385537" lon="7.8959412"><ele>717.0</ele><time>2026-04-18T15:52:15.583Z</time></trkpt><trkpt lat="44.3386246" lon="7.8959629"><ele>714.0</ele><time>2026-04-18T15:52:16.584Z</time></trkpt><trkpt lat="44.3386998" lon="7.8959881"><ele>711.0</ele><time>2026-04-18T15:52:17.582Z</time></trkpt><trkpt lat="44.3387701" lon="7.8960148"><ele>710.6666666666666</ele><time>2026-04-18T15:52:18.582Z</time></trkpt><trkpt lat="44.3388112" lon="7.8961283"><ele>710.3333333333334</ele><time>2026-04-18T15:52:19.582Z</time></trkpt><trkpt lat="44.338842" lon="7.8962232"><ele>710.0</ele><time>2026-04-18T15:52:20.582Z</time></trkpt><trkpt lat="44.3388857" lon="7.8963207"><ele>709.6666666666667</ele><time>2026-04-18T15:52:21.583Z</time></trkpt><trkpt lat="44.3389459" lon="7.8964152"><ele>709.3333333333334</ele><time>2026-04-18T15:52:22.582Z</time></trkpt><trkpt lat="44.3389923" lon="7.8965013"><ele>709.0</ele><time>2026-04-18T15:52:23.583Z</time></trkpt><trkpt lat="44.3390676" lon="7.8965689"><ele>706.8333333333334</ele><time>2026-04-18T15:52:24.582Z</time></trkpt><trkpt lat="44.3391367" lon="7.896656"><ele>704.6666666666667</ele><time>2026-04-18T15:52:25.584Z</time></trkpt><trkpt lat="44.3392098" lon="7.8967054"><ele>702.5</ele><time>2026-04-18T15:52:26.582Z</time></trkpt><trkpt lat="44.3392768" lon="7.8967913"><ele>700.3333333333334</ele><time>2026-04-18T15:52:27.584Z</time></trkpt><trkpt lat="44.3393525" lon="7.8968468"><ele>698.1666666666666</ele><time>2026-04-18T15:52:28.583Z</time></trkpt><trkpt lat="44.3394057" lon="7.8969268"><ele>696.0</ele><time>2026-04-18T15:52:29.582Z</time></trkpt><trkpt lat="44.3394697" lon="7.8970032"><ele>694.5</ele><time>2026-04-18T15:52:30.583Z</time></trkpt><trkpt lat="44.3395305" lon="7.897061"><ele>693.0</ele><time>2026-04-18T15:52:31.584Z</time></trkpt><trkpt lat="44.3396119" lon="7.8971198"><ele>691.5</ele><time>2026-04-18T15:52:32.582Z</time></trkpt><trkpt lat="44.3396949" lon="7.8971623"><ele>690.0</ele><time>2026-04-18T15:52:33.583Z</time></trkpt><trkpt lat="44.3397601" lon="7.897193"><ele>688.5</ele><time>2026-04-18T15:52:34.582Z</time></trkpt><trkpt lat="44.339836" lon="7.8972152"><ele>687.0</ele><time>2026-04-18T15:52:35.583Z</time></trkpt><trkpt lat="44.3399242" lon="7.897245"><ele>686.4000000000001</ele><time>2026-04-18T15:52:36.583Z</time></trkpt><trkpt lat="44.3400093" lon="7.8972842"><ele>685.8000000000001</ele><time>2026-04-18T15:52:37.584Z</time></trkpt><trkpt lat="44.3400968" lon="7.8973116"><ele>685.2</ele><time>2026-04-18T15:52:38.584Z</time></trkpt><trkpt lat="44.3401921" lon="7.8973655"><ele>684.6</ele><time>2026-04-18T15:52:39.583Z</time></trkpt><trkpt lat="44.3402913" lon="7.8974189"><ele>684.0</ele><time>2026-04-18T15:52:40.582Z</time></trkpt><trkpt lat="44.3403525" lon="7.8974671"><ele>684.0</ele><time>2026-04-18T15:52:41.582Z</time></trkpt><trkpt lat="44.3404265" lon="7.8975173"><ele>684.0</ele><time>2026-04-18T15:52:42.583Z</time></trkpt><trkpt lat="44.3404984" lon="7.8975656"><ele>684.0</ele><time>2026-04-18T15:52:43.583Z</time></trkpt><trkpt lat="44.3405764" lon="7.8976089"><ele>684.0</ele><time>2026-04-18T15:52:44.582Z</time></trkpt><trkpt lat="44.3406713" lon="7.8976519"><ele>684.0</ele><time>2026-04-18T15:52:45.582Z</time></trkpt><trkpt lat="44.3407585" lon="7.8976853"><ele>684.0</ele><time>2026-04-18T15:52:46.582Z</time></trkpt><trkpt lat="44.3408521" lon="7.8977225"><ele>683.2</ele><time>2026-04-18T15:52:47.582Z</time></trkpt><trkpt lat="44.3409344" lon="7.8977611"><ele>682.4000000000001</ele><time>2026-04-18T15:52:48.583Z</time></trkpt><trkpt lat="44.3410467" lon="7.8977852"><ele>681.6</ele><time>2026-04-18T15:52:49.583Z</time></trkpt><trkpt lat="44.3411375" lon="7.897795"><ele>680.8</ele><time>2026-04-18T15:52:50.582Z</time></trkpt><trkpt lat="44.3412217" lon="7.8978031"><ele>680.0</ele><time>2026-04-18T15:52:51.582Z</time></trkpt><trkpt lat="44.3413166" lon="7.8978123"><ele>677.4</ele><time>2026-04-18T15:52:52.584Z</time></trkpt><trkpt lat="44.3413825" lon="7.897844"><ele>674.8</ele><time>2026-04-18T15:52:53.584Z</time></trkpt><trkpt lat="44.3414561" lon="7.8978559"><ele>672.2</ele><time>2026-04-18T15:52:54.582Z</time></trkpt><trkpt lat="44.3416099" lon="7.8979369"><ele>669.6</ele><time>2026-04-18T15:52:56.582Z</time></trkpt><trkpt lat="44.3416786" lon="7.897972"><ele>667.0</ele><time>2026-04-18T15:52:57.582Z</time></trkpt><trkpt lat="44.341751" lon="7.8980165"><ele>667.0</ele><time>2026-04-18T15:52:58.583Z</time></trkpt><trkpt lat="44.3418178" lon="7.8980397"><ele>667.0</ele><time>2026-04-18T15:52:59.582Z</time></trkpt><trkpt lat="44.3418903" lon="7.8980992"><ele>667.0</ele><time>2026-04-18T15:53:00.583Z</time></trkpt><trkpt lat="44.3419903" lon="7.8981628"><ele>667.0</ele><time>2026-04-18T15:53:01.583Z</time></trkpt><trkpt lat="44.3420879" lon="7.8982551"><ele>667.0</ele><time>2026-04-18T15:53:03.584Z</time></trkpt><trkpt lat="44.3421427" lon="7.8983418"><ele>669.0</ele><time>2026-04-18T15:53:04.584Z</time></trkpt><trkpt lat="44.3421945" lon="7.8984195"><ele>671.0</ele><time>2026-04-18T15:53:05.583Z</time></trkpt><trkpt lat="44.3422649" lon="7.8985116"><ele>673.0</ele><time>2026-04-18T15:53:06.584Z</time></trkpt><trkpt lat="44.3423767" lon="7.8985566"><ele>675.0</ele><time>2026-04-18T15:53:07.583Z</time></trkpt><trkpt lat="44.3424445" lon="7.8986583"><ele>677.0</ele><time>2026-04-18T15:53:08.582Z</time></trkpt><trkpt lat="44.3424799" lon="7.8987882"><ele>671.8333333333333</ele><time>2026-04-18T15:53:09.583Z</time></trkpt><trkpt lat="44.3425527" lon="7.8988573"><ele>666.6666666666666</ele><time>2026-04-18T15:53:10.583Z</time></trkpt><trkpt lat="44.3425908" lon="7.8989719"><ele>661.5</ele><time>2026-04-18T15:53:11.583Z</time></trkpt><trkpt lat="44.342646" lon="7.899057"><ele>656.3333333333334</ele><time>2026-04-18T15:53:12.582Z</time></trkpt><trkpt lat="44.342734" lon="7.8990745"><ele>651.1666666666667</ele><time>2026-04-18T15:53:13.582Z</time></trkpt><trkpt lat="44.3428211" lon="7.8990668"><ele>646.0</ele><time>2026-04-18T15:53:14.583Z</time></trkpt><trkpt lat="44.3429152" lon="7.8989673"><ele>646.0</ele><time>2026-04-18T15:53:16.583Z</time></trkpt><trkpt lat="44.342983" lon="7.8989151"><ele>646.0</ele><time>2026-04-18T15:53:17.582Z</time></trkpt><trkpt lat="44.3430822" lon="7.8988863"><ele>646.0</ele><time>2026-04-18T15:53:18.582Z</time></trkpt><trkpt lat="44.3431635" lon="7.8988897"><ele>646.0</ele><time>2026-04-18T15:53:19.584Z</time></trkpt><trkpt lat="44.3432341" lon="7.8988753"><ele>646.0</ele><time>2026-04-18T15:53:20.583Z</time></trkpt><trkpt lat="44.3433183" lon="7.8988713"><ele>646.0</ele><time>2026-04-18T15:53:21.582Z</time></trkpt><trkpt lat="44.3433762" lon="7.8989437"><ele>641.8</ele><time>2026-04-18T15:53:22.583Z</time></trkpt><trkpt lat="44.3434455" lon="7.8989171"><ele>637.5999999999999</ele><time>2026-04-18T15:53:23.582Z</time></trkpt><trkpt lat="44.3435372" lon="7.8989557"><ele>633.4</ele><time>2026-04-18T15:53:24.582Z</time></trkpt><trkpt lat="44.343619" lon="7.8989708"><ele>629.2</ele><time>2026-04-18T15:53:25.583Z</time></trkpt><trkpt lat="44.3437268" lon="7.8990209"><ele>625.0</ele><time>2026-04-18T15:53:26.584Z</time></trkpt><trkpt lat="44.3438191" lon="7.8990754"><ele>621.0</ele><time>2026-04-18T15:53:27.582Z</time></trkpt><trkpt lat="44.3439067" lon="7.8990962"><ele>617.0</ele><time>2026-04-18T15:53:28.584Z</time></trkpt><trkpt lat="44.3440093" lon="7.8991198"><ele>613.0</ele><time>2026-04-18T15:53:29.584Z</time></trkpt><trkpt lat="44.3441073" lon="7.8991726"><ele>609.0</ele><time>2026-04-18T15:53:30.583Z</time></trkpt><trkpt lat="44.3441942" lon="7.8992203"><ele>605.0</ele><time>2026-04-18T15:53:31.584Z</time></trkpt><trkpt lat="44.3442895" lon="7.8992848"><ele>604.8333333333333</ele><time>2026-04-18T15:53:32.582Z</time></trkpt><trkpt lat="44.3443752" lon="7.8993023"><ele>604.6666666666666</ele><time>2026-04-18T15:53:33.583Z</time></trkpt><trkpt lat="44.3444541" lon="7.8992892"><ele>604.5</ele><time>2026-04-18T15:53:34.582Z</time></trkpt><trkpt lat="44.3445252" lon="7.8992859"><ele>604.3333333333334</ele><time>2026-04-18T15:53:35.582Z</time></trkpt><trkpt lat="44.3445871" lon="7.8993088"><ele>604.1666666666667</ele><time>2026-04-18T15:53:36.582Z</time></trkpt><trkpt lat="44.344659" lon="7.8992663"><ele>604.0</ele><time>2026-04-18T15:53:38.584Z</time></trkpt><trkpt lat="44.3447663" lon="7.8992013"><ele>600.0</ele><time>2026-04-18T15:53:40.583Z</time></trkpt><trkpt lat="44.3448066" lon="7.8991304"><ele>596.0</ele><time>2026-04-18T15:53:41.584Z</time></trkpt><trkpt lat="44.3448671" lon="7.899081"><ele>592.0</ele><time>2026-04-18T15:53:42.582Z</time></trkpt><trkpt lat="44.3449265" lon="7.8990113"><ele>588.0</ele><time>2026-04-18T15:53:43.582Z</time></trkpt><trkpt lat="44.3450317" lon="7.8989512"><ele>584.0</ele><time>2026-04-18T15:53:45.582Z</time></trkpt><trkpt lat="44.3450346" lon="7.898855"><ele>580.0</ele><time>2026-04-18T15:53:47.583Z</time></trkpt><trkpt lat="44.3449483" lon="7.8988225"><ele>580.0</ele><time>2026-04-18T15:53:49.583Z</time></trkpt><trkpt lat="44.3448495" lon="7.8987797"><ele>580.0</ele><time>2026-04-18T15:53:51.582Z</time></trkpt><trkpt lat="44.3447916" lon="7.8986616"><ele>580.0</ele><time>2026-04-18T15:53:53.582Z</time></trkpt><trkpt lat="44.344863" lon="7.8985502"><ele>580.0</ele><time>2026-04-18T15:53:55.582Z</time></trkpt><trkpt lat="44.3449342" lon="7.8985118"><ele>580.0</ele><time>2026-04-18T15:53:56.584Z</time></trkpt><trkpt lat="44.3450286" lon="7.8984951"><ele>580.0</ele><time>2026-04-18T15:53:57.584Z</time></trkpt><trkpt lat="44.3451817" lon="7.8984288"><ele>580.0</ele><time>2026-04-18T15:53:59.583Z</time></trkpt><trkpt lat="44.3452773" lon="7.8984657"><ele>580.0</ele><time>2026-04-18T15:54:00.583Z</time></trkpt><trkpt lat="44.3453407" lon="7.8984225"><ele>580.0</ele><time>2026-04-18T15:54:01.583Z</time></trkpt><trkpt lat="44.3454169" lon="7.8983699"><ele>580.0</ele><time>2026-04-18T15:54:02.583Z</time></trkpt><trkpt lat="44.3454813" lon="7.8983266"><ele>575.8333333333334</ele><time>2026-04-18T15:54:03.584Z</time></trkpt><trkpt lat="44.3455472" lon="7.8982595"><ele>571.6666666666667</ele><time>2026-04-18T15:54:04.582Z</time></trkpt><trkpt lat="44.3456073" lon="7.8981878"><ele>567.5</ele><time>2026-04-18T15:54:05.583Z</time></trkpt><trkpt lat="44.3456735" lon="7.8981579"><ele>563.3333333333334</ele><time>2026-04-18T15:54:06.583Z</time></trkpt><trkpt lat="44.34574" lon="7.898113"><ele>559.1666666666666</ele><time>2026-04-18T15:54:07.584Z</time></trkpt><trkpt lat="44.3458331" lon="7.8980948"><ele>555.0</ele><time>2026-04-18T15:54:08.584Z</time></trkpt><trkpt lat="44.3459234" lon="7.8980957"><ele>555.0</ele><time>2026-04-18T15:54:09.582Z</time></trkpt><trkpt lat="44.3460587" lon="7.8981184"><ele>555.0</ele><time>2026-04-18T15:54:11.583Z</time></trkpt><trkpt lat="44.3461517" lon="7.898179"><ele>555.0</ele><time>2026-04-18T15:54:13.582Z</time></trkpt><trkpt lat="44.3462219" lon="7.8982867"><ele>555.0</ele><time>2026-04-18T15:54:15.583Z</time></trkpt><trkpt lat="44.3462797" lon="7.8983716"><ele>555.0</ele><time>2026-04-18T15:54:16.583Z</time></trkpt><trkpt lat="44.3463048" lon="7.8984779"><ele>554.4</ele><time>2026-04-18T15:54:17.583Z</time></trkpt><trkpt lat="44.346356" lon="7.8985687"><ele>553.8</ele><time>2026-04-18T15:54:18.583Z</time></trkpt><trkpt lat="44.3464007" lon="7.8986567"><ele>553.2</ele><time>2026-04-18T15:54:19.582Z</time></trkpt><trkpt lat="44.3464102" lon="7.8987616"><ele>552.6</ele><time>2026-04-18T15:54:20.582Z</time></trkpt><trkpt lat="44.3464288" lon="7.8989259"><ele>552.0</ele><time>2026-04-18T15:54:22.582Z</time></trkpt><trkpt lat="44.3464197" lon="7.8990809"><ele>547.5</ele><time>2026-04-18T15:54:24.582Z</time></trkpt><trkpt lat="44.3463828" lon="7.8991642"><ele>543.0</ele><time>2026-04-18T15:54:25.583Z</time></trkpt><trkpt lat="44.3462941" lon="7.8992861"><ele>538.5</ele><time>2026-04-18T15:54:27.583Z</time></trkpt><trkpt lat="44.3462386" lon="7.8993541"><ele>534.0</ele><time>2026-04-18T15:54:28.584Z</time></trkpt><trkpt lat="44.3461665" lon="7.8993682"><ele>529.5</ele><time>2026-04-18T15:54:29.583Z</time></trkpt><trkpt lat="44.3460947" lon="7.8994203"><ele>525.0</ele><time>2026-04-18T15:54:30.582Z</time></trkpt><trkpt lat="44.3460542" lon="7.8995037"><ele>524.6</ele><time>2026-04-18T15:54:31.582Z</time></trkpt><trkpt lat="44.3459979" lon="7.8995819"><ele>524.2</ele><time>2026-04-18T15:54:32.582Z</time></trkpt><trkpt lat="44.3459444" lon="7.899649"><ele>523.8</ele><time>2026-04-18T15:54:33.583Z</time></trkpt><trkpt lat="44.3458724" lon="7.8997661"><ele>523.4</ele><time>2026-04-18T15:54:35.583Z</time></trkpt><trkpt lat="44.345948" lon="7.8998428"><ele>523.0</ele><time>2026-04-18T15:54:38.582Z</time></trkpt><trkpt lat="44.3461279" lon="7.8998227"><ele>523.0</ele><time>2026-04-18T15:54:40.582Z</time></trkpt><trkpt lat="44.346244" lon="7.8997983"><ele>523.0</ele><time>2026-04-18T15:54:41.583Z</time></trkpt><trkpt lat="44.3463648" lon="7.8997792"><ele>523.0</ele><time>2026-04-18T15:54:42.583Z</time></trkpt><trkpt lat="44.3464773" lon="7.8997547"><ele>523.0</ele><time>2026-04-18T15:54:43.582Z</time></trkpt><trkpt lat="44.3466057" lon="7.8997185"><ele>517.75</ele><time>2026-04-18T15:54:44.583Z</time></trkpt><trkpt lat="44.3467272" lon="7.8996913"><ele>512.5</ele><time>2026-04-18T15:54:45.584Z</time></trkpt><trkpt lat="44.3468534" lon="7.8996474"><ele>507.25</ele><time>2026-04-18T15:54:46.583Z</time></trkpt><trkpt lat="44.3469827" lon="7.8996412"><ele>502.0</ele><time>2026-04-18T15:54:47.582Z</time></trkpt><trkpt lat="44.3471149" lon="7.8996314"><ele>498.0</ele><time>2026-04-18T15:54:48.583Z</time></trkpt><trkpt lat="44.3472511" lon="7.8996197"><ele>494.0</ele><time>2026-04-18T15:54:49.583Z</time></trkpt><trkpt lat="44.3473752" lon="7.8996086"><ele>490.0</ele><time>2026-04-18T15:54:50.582Z</time></trkpt><trkpt lat="44.3474905" lon="7.8995835"><ele>486.0</ele><time>2026-04-18T15:54:51.583Z</time></trkpt><trkpt lat="44.3476122" lon="7.8994463"><ele>486.0</ele><time>2026-04-18T15:54:52.583Z</time></trkpt><trkpt lat="44.347703" lon="7.8993559"><ele>486.0</ele><time>2026-04-18T15:54:53.583Z</time></trkpt><trkpt lat="44.3478093" lon="7.8992863"><ele>486.0</ele><time>2026-04-18T15:54:54.583Z</time></trkpt><trkpt lat="44.3478673" lon="7.8991457"><ele>486.0</ele><time>2026-04-18T15:54:55.583Z</time></trkpt><trkpt lat="44.3479277" lon="7.899066"><ele>486.0</ele><time>2026-04-18T15:54:56.583Z</time></trkpt><trkpt lat="44.3479918" lon="7.8989883"><ele>483.4</ele><time>2026-04-18T15:54:57.583Z</time></trkpt><trkpt lat="44.3480906" lon="7.8989872"><ele>480.8</ele><time>2026-04-18T15:54:58.582Z</time></trkpt><trkpt lat="44.3481866" lon="7.8989472"><ele>478.19999999999993</ele><time>2026-04-18T15:54:59.582Z</time></trkpt><trkpt lat="44.3482834" lon="7.898914"><ele>475.59999999999997</ele><time>2026-04-18T15:55:00.582Z</time></trkpt><trkpt lat="44.3483816" lon="7.898907"><ele>473.0</ele><time>2026-04-18T15:55:01.582Z</time></trkpt><trkpt lat="44.3484304" lon="7.8988498"><ele>472.99999999999994</ele><time>2026-04-18T15:55:03.582Z</time></trkpt><trkpt lat="44.348504" lon="7.8988608"><ele>473.0</ele><time>2026-04-18T15:55:11.582Z</time></trkpt><trkpt lat="44.3485134" lon="7.8989502"><ele>473.0</ele><time>2026-04-18T15:55:12.582Z</time></trkpt><trkpt lat="44.3485577" lon="7.8991202"><ele>473.0</ele><time>2026-04-18T15:55:14.582Z</time></trkpt><trkpt lat="44.3485854" lon="7.8992118"><ele>472.99999999999994</ele><time>2026-04-18T15:55:15.583Z</time></trkpt><trkpt lat="44.3486025" lon="7.8993052"><ele>473.0</ele><time>2026-04-18T15:55:16.582Z</time></trkpt><trkpt lat="44.3486286" lon="7.8994529"><ele>474.16666666666663</ele><time>2026-04-18T15:55:18.583Z</time></trkpt><trkpt lat="44.3486529" lon="7.8995886"><ele>475.3333333333333</ele><time>2026-04-18T15:55:20.582Z</time></trkpt><trkpt lat="44.3486846" lon="7.8997085"><ele>476.5</ele><time>2026-04-18T15:55:22.582Z</time></trkpt><trkpt lat="44.3487608" lon="7.8996655"><ele>477.66666666666663</ele><time>2026-04-18T15:55:24.583Z</time></trkpt><trkpt lat="44.3487403" lon="7.8995412"><ele>478.8333333333333</ele><time>2026-04-18T15:55:26.583Z</time></trkpt><trkpt lat="44.348732" lon="7.8994492"><ele>480.0</ele><time>2026-04-18T15:55:27.583Z</time></trkpt><trkpt lat="44.3486524" lon="7.8993204"><ele>478.25</ele><time>2026-04-18T15:55:28.582Z</time></trkpt><trkpt lat="44.3486089" lon="7.8991852"><ele>476.5</ele><time>2026-04-18T15:55:29.582Z</time></trkpt><trkpt lat="44.3485689" lon="7.8990435"><ele>474.75</ele><time>2026-04-18T15:55:30.583Z</time></trkpt><trkpt lat="44.3485205" lon="7.8988741"><ele>473.0</ele><time>2026-04-18T15:55:31.583Z</time></trkpt><trkpt lat="44.3484721" lon="7.8986941"><ele>473.0</ele><time>2026-04-18T15:55:32.582Z</time></trkpt><trkpt lat="44.3484141" lon="7.8985044"><ele>473.0</ele><time>2026-04-18T15:55:33.583Z</time></trkpt><trkpt lat="44.3483536" lon="7.8982943"><ele>473.0</ele><time>2026-04-18T15:55:34.583Z</time></trkpt><trkpt lat="44.3482859" lon="7.8980648"><ele>472.66666666666663</ele><time>2026-04-18T15:55:35.584Z</time></trkpt><trkpt lat="44.3482166" lon="7.8978225"><ele>472.33333333333337</ele><time>2026-04-18T15:55:36.582Z</time></trkpt><trkpt lat="44.3481493" lon="7.897586"><ele>472.0</ele><time>2026-04-18T15:55:37.584Z</time></trkpt><trkpt lat="44.34808" lon="7.8973174"><ele>474.33333333333337</ele><time>2026-04-18T15:55:38.583Z</time></trkpt><trkpt lat="44.3480113" lon="7.8970623"><ele>476.66666666666663</ele><time>2026-04-18T15:55:39.583Z</time></trkpt><trkpt lat="44.3479406" lon="7.8967907"><ele>479.0</ele><time>2026-04-18T15:55:40.582Z</time></trkpt><trkpt lat="44.347866" lon="7.8965363"><ele>479.0</ele><time>2026-04-18T15:55:41.583Z</time></trkpt><trkpt lat="44.3478063" lon="7.896271"><ele>479.0</ele><time>2026-04-18T15:55:42.583Z</time></trkpt><trkpt lat="44.347735" lon="7.8960072"><ele>479.0</ele><time>2026-04-18T15:55:43.582Z</time></trkpt><trkpt lat="44.3476688" lon="7.8957452"><ele>477.66666666666663</ele><time>2026-04-18T15:55:44.584Z</time></trkpt><trkpt lat="44.3475986" lon="7.8954912"><ele>476.33333333333337</ele><time>2026-04-18T15:55:45.582Z</time></trkpt><trkpt lat="44.3475309" lon="7.8952283"><ele>475.0</ele><time>2026-04-18T15:55:46.583Z</time></trkpt><trkpt lat="44.3474653" lon="7.8949708"><ele>474.6666666666667</ele><time>2026-04-18T15:55:47.582Z</time></trkpt><trkpt lat="44.3473898" lon="7.8947114"><ele>474.33333333333337</ele><time>2026-04-18T15:55:48.582Z</time></trkpt><trkpt lat="44.3473053" lon="7.8944576"><ele>474.0</ele><time>2026-04-18T15:55:49.584Z</time></trkpt><trkpt lat="44.3472094" lon="7.8942039"><ele>478.0</ele><time>2026-04-18T15:55:50.583Z</time></trkpt><trkpt lat="44.3471131" lon="7.8939495"><ele>482.0</ele><time>2026-04-18T15:55:51.583Z</time></trkpt><trkpt lat="44.3470188" lon="7.8937103"><ele>486.0</ele><time>2026-04-18T15:55:52.582Z</time></trkpt><trkpt lat="44.346935" lon="7.8934925"><ele>484.5</ele><time>2026-04-18T15:55:53.582Z</time></trkpt><trkpt lat="44.3468661" lon="7.8933096"><ele>483.0</ele><time>2026-04-18T15:55:54.582Z</time></trkpt><trkpt lat="44.3468091" lon="7.8931654"><ele>481.5</ele><time>2026-04-18T15:55:55.582Z</time></trkpt><trkpt lat="44.3467822" lon="7.8930307"><ele>480.0</ele><time>2026-04-18T15:55:56.582Z</time></trkpt><trkpt lat="44.3467838" lon="7.8929105"><ele>480.0</ele><time>2026-04-18T15:55:57.584Z</time></trkpt><trkpt lat="44.3468165" lon="7.8927837"><ele>480.0</ele><time>2026-04-18T15:55:58.582Z</time></trkpt><trkpt lat="44.3468653" lon="7.8926516"><ele>480.0</ele><time>2026-04-18T15:55:59.582Z</time></trkpt><trkpt lat="44.3469285" lon="7.8925122"><ele>480.0</ele><time>2026-04-18T15:56:00.582Z</time></trkpt><trkpt lat="44.3469984" lon="7.8923919"><ele>480.0</ele><time>2026-04-18T15:56:01.583Z</time></trkpt><trkpt lat="44.3471319" lon="7.8923774"><ele>479.75</ele><time>2026-04-18T15:56:02.584Z</time></trkpt><trkpt lat="44.3472478" lon="7.8923669"><ele>479.5</ele><time>2026-04-18T15:56:03.582Z</time></trkpt><trkpt lat="44.3473752" lon="7.8923918"><ele>479.25</ele><time>2026-04-18T15:56:04.582Z</time></trkpt><trkpt lat="44.3475151" lon="7.8924223"><ele>479.0</ele><time>2026-04-18T15:56:05.583Z</time></trkpt><trkpt lat="44.3476606" lon="7.8924338"><ele>479.0</ele><time>2026-04-18T15:56:06.583Z</time></trkpt><trkpt lat="44.347807" lon="7.8924319"><ele>479.0</ele><time>2026-04-18T15:56:07.584Z</time></trkpt><trkpt lat="44.3479692" lon="7.8923197"><ele>479.0</ele><time>2026-04-18T15:56:08.583Z</time></trkpt><trkpt lat="44.3481227" lon="7.892245"><ele>476.3333333333333</ele><time>2026-04-18T15:56:09.584Z</time></trkpt><trkpt lat="44.3482485" lon="7.8920828"><ele>473.66666666666663</ele><time>2026-04-18T15:56:10.582Z</time></trkpt><trkpt lat="44.3483468" lon="7.8919227"><ele>471.0</ele><time>2026-04-18T15:56:11.582Z</time></trkpt><trkpt lat="44.3484065" lon="7.8917037"><ele>471.0</ele><time>2026-04-18T15:56:12.582Z</time></trkpt><trkpt lat="44.3484326" lon="7.891475"><ele>471.0</ele><time>2026-04-18T15:56:13.583Z</time></trkpt><trkpt lat="44.34845" lon="7.8912157"><ele>471.0</ele><time>2026-04-18T15:56:14.582Z</time></trkpt><trkpt lat="44.3484571" lon="7.8909605"><ele>471.66666666666663</ele><time>2026-04-18T15:56:15.583Z</time></trkpt><trkpt lat="44.3484677" lon="7.890709"><ele>472.3333333333333</ele><time>2026-04-18T15:56:16.583Z</time></trkpt><trkpt lat="44.3484695" lon="7.8904486"><ele>473.0</ele><time>2026-04-18T15:56:17.583Z</time></trkpt><trkpt lat="44.3484703" lon="7.8901735"><ele>474.0</ele><time>2026-04-18T15:56:18.582Z</time></trkpt><trkpt lat="44.3484657" lon="7.8898985"><ele>475.0</ele><time>2026-04-18T15:56:19.582Z</time></trkpt><trkpt lat="44.3484534" lon="7.889621"><ele>476.0</ele><time>2026-04-18T15:56:20.582Z</time></trkpt><trkpt lat="44.3484388" lon="7.8893423"><ele>476.3333333333333</ele><time>2026-04-18T15:56:21.583Z</time></trkpt><trkpt lat="44.3484212" lon="7.8890697"><ele>476.66666666666663</ele><time>2026-04-18T15:56:22.582Z</time></trkpt><trkpt lat="44.3484006" lon="7.8887953"><ele>477.0</ele><time>2026-04-18T15:56:23.584Z</time></trkpt><trkpt lat="44.3483847" lon="7.8885387"><ele>476.66666666666663</ele><time>2026-04-18T15:56:24.584Z</time></trkpt><trkpt lat="44.348365" lon="7.8882926"><ele>476.3333333333333</ele><time>2026-04-18T15:56:25.583Z</time></trkpt><trkpt lat="44.3483471" lon="7.8880621"><ele>476.0</ele><time>2026-04-18T15:56:26.583Z</time></trkpt><trkpt lat="44.3483047" lon="7.8878433"><ele>476.0</ele><time>2026-04-18T15:56:27.583Z</time></trkpt><trkpt lat="44.3482321" lon="7.8876455"><ele>476.0</ele><time>2026-04-18T15:56:28.582Z</time></trkpt><trkpt lat="44.3481353" lon="7.8874694"><ele>476.0</ele><time>2026-04-18T15:56:29.583Z</time></trkpt><trkpt lat="44.3479824" lon="7.8873707"><ele>477.0</ele><time>2026-04-18T15:56:30.583Z</time></trkpt><trkpt lat="44.3478385" lon="7.8872853"><ele>478.0</ele><time>2026-04-18T15:56:31.583Z</time></trkpt><trkpt lat="44.3476593" lon="7.8872327"><ele>479.0</ele><time>2026-04-18T15:56:32.583Z</time></trkpt><trkpt lat="44.3474801" lon="7.8871752"><ele>479.0</ele><time>2026-04-18T15:56:33.584Z</time></trkpt><trkpt lat="44.3472944" lon="7.8871213"><ele>479.0</ele><time>2026-04-18T15:56:34.582Z</time></trkpt><trkpt lat="44.3471015" lon="7.8870652"><ele>479.0</ele><time>2026-04-18T15:56:35.583Z</time></trkpt><trkpt lat="44.3469021" lon="7.8870022"><ele>485.66666666666663</ele><time>2026-04-18T15:56:36.582Z</time></trkpt><trkpt lat="44.3467054" lon="7.8869428"><ele>492.33333333333337</ele><time>2026-04-18T15:56:37.582Z</time></trkpt><trkpt lat="44.3465208" lon="7.8868917"><ele>499.0</ele><time>2026-04-18T15:56:38.583Z</time></trkpt><trkpt lat="44.3463709" lon="7.8868533"><ele>498.79999999999995</ele><time>2026-04-18T15:56:39.582Z</time></trkpt><trkpt lat="44.3462679" lon="7.8868186"><ele>498.59999999999997</ele><time>2026-04-18T15:56:40.583Z</time></trkpt><trkpt lat="44.3461654" lon="7.8867729"><ele>498.4</ele><time>2026-04-18T15:56:41.583Z</time></trkpt><trkpt lat="44.3460818" lon="7.8867165"><ele>498.2</ele><time>2026-04-18T15:56:43.583Z</time></trkpt><trkpt lat="44.3461632" lon="7.8867871"><ele>498.0</ele><time>2026-04-18T15:56:48.582Z</time></trkpt><trkpt lat="44.3462414" lon="7.8868058"><ele>498.1666666666667</ele><time>2026-04-18T15:56:49.582Z</time></trkpt><trkpt lat="44.346339" lon="7.8868347"><ele>498.33333333333337</ele><time>2026-04-18T15:56:50.583Z</time></trkpt><trkpt lat="44.3464193" lon="7.8868492"><ele>498.5</ele><time>2026-04-18T15:56:51.583Z</time></trkpt><trkpt lat="44.3464844" lon="7.8868441"><ele>498.6666666666667</ele><time>2026-04-18T15:56:52.583Z</time></trkpt><trkpt lat="44.346544" lon="7.886808"><ele>498.83333333333337</ele><time>2026-04-18T15:56:53.583Z</time></trkpt><trkpt lat="44.3465943" lon="7.8867527"><ele>499.0</ele><time>2026-04-18T15:56:54.582Z</time></trkpt><trkpt lat="44.3466204" lon="7.8865929"><ele>495.5</ele><time>2026-04-18T15:56:56.583Z</time></trkpt><trkpt lat="44.3465865" lon="7.8864663"><ele>492.0</ele><time>2026-04-18T15:56:57.582Z</time></trkpt><trkpt lat="44.3465598" lon="7.8863196"><ele>488.5</ele><time>2026-04-18T15:56:58.582Z</time></trkpt><trkpt lat="44.3465285" lon="7.886164"><ele>485.0</ele><time>2026-04-18T15:56:59.583Z</time></trkpt><trkpt lat="44.3464947" lon="7.8859796"><ele>486.0</ele><time>2026-04-18T15:57:00.583Z</time></trkpt><trkpt lat="44.346453" lon="7.8858019"><ele>487.0</ele><time>2026-04-18T15:57:01.583Z</time></trkpt><trkpt lat="44.3463861" lon="7.8856193"><ele>488.0</ele><time>2026-04-18T15:57:02.583Z</time></trkpt><trkpt lat="44.3462466" lon="7.8855125"><ele>489.0</ele><time>2026-04-18T15:57:03.582Z</time></trkpt><trkpt lat="44.3461185" lon="7.8854053"><ele>489.0</ele><time>2026-04-18T15:57:04.583Z</time></trkpt><trkpt lat="44.3459863" lon="7.8853339"><ele>489.0</ele><time>2026-04-18T15:57:05.583Z</time></trkpt><trkpt lat="44.345849" lon="7.8852708"><ele>489.0</ele><time>2026-04-18T15:57:06.583Z</time></trkpt><trkpt lat="44.3457382" lon="7.8852117"><ele>489.0</ele><time>2026-04-18T15:57:07.584Z</time></trkpt><trkpt lat="44.3456618" lon="7.8851432"><ele>489.4</ele><time>2026-04-18T15:57:08.583Z</time></trkpt><trkpt lat="44.345585" lon="7.8850946"><ele>489.79999999999995</ele><time>2026-04-18T15:57:09.583Z</time></trkpt><trkpt lat="44.3455209" lon="7.8850156"><ele>490.20000000000005</ele><time>2026-04-18T15:57:10.583Z</time></trkpt><trkpt lat="44.345626" lon="7.8848191"><ele>490.6</ele><time>2026-04-18T15:57:11.582Z</time></trkpt><trkpt lat="44.3456404" lon="7.8846878"><ele>491.0</ele><time>2026-04-18T15:57:12.582Z</time></trkpt><trkpt lat="44.3456965" lon="7.8845285"><ele>493.3333333333333</ele><time>2026-04-18T15:57:13.582Z</time></trkpt><trkpt lat="44.3457539" lon="7.8843551"><ele>495.66666666666663</ele><time>2026-04-18T15:57:14.582Z</time></trkpt><trkpt lat="44.3458258" lon="7.8841744"><ele>498.0</ele><time>2026-04-18T15:57:15.583Z</time></trkpt><trkpt lat="44.3459022" lon="7.8839639"><ele>498.33333333333337</ele><time>2026-04-18T15:57:16.584Z</time></trkpt><trkpt lat="44.3459839" lon="7.8837604"><ele>498.6666666666667</ele><time>2026-04-18T15:57:17.583Z</time></trkpt><trkpt lat="44.3460668" lon="7.8835468"><ele>499.0</ele><time>2026-04-18T15:57:18.584Z</time></trkpt><trkpt lat="44.3461495" lon="7.8833378"><ele>496.6666666666667</ele><time>2026-04-18T15:57:19.583Z</time></trkpt><trkpt lat="44.3462278" lon="7.8830934"><ele>494.33333333333337</ele><time>2026-04-18T15:57:20.583Z</time></trkpt><trkpt lat="44.3462965" lon="7.8828669"><ele>492.0</ele><time>2026-04-18T15:57:21.584Z</time></trkpt><trkpt lat="44.3463608" lon="7.8826279"><ele>495.66666666666663</ele><time>2026-04-18T15:57:22.582Z</time></trkpt><trkpt lat="44.3464245" lon="7.8823841"><ele>499.3333333333333</ele><time>2026-04-18T15:57:23.583Z</time></trkpt><trkpt lat="44.3464691" lon="7.8821177"><ele>503.0</ele><time>2026-04-18T15:57:24.582Z</time></trkpt><trkpt lat="44.3465011" lon="7.8818595"><ele>503.66666666666663</ele><time>2026-04-18T15:57:25.583Z</time></trkpt><trkpt lat="44.346517" lon="7.881593"><ele>504.33333333333337</ele><time>2026-04-18T15:57:26.583Z</time></trkpt><trkpt lat="44.346511" lon="7.881339"><ele>505.0</ele><time>2026-04-18T15:57:27.583Z</time></trkpt><trkpt lat="44.3465151" lon="7.8810609"><ele>506.0</ele><time>2026-04-18T15:57:28.582Z</time></trkpt><trkpt lat="44.3465066" lon="7.8808017"><ele>507.0</ele><time>2026-04-18T15:57:29.584Z</time></trkpt><trkpt lat="44.346506" lon="7.8805283"><ele>508.0</ele><time>2026-04-18T15:57:30.583Z</time></trkpt><trkpt lat="44.346501" lon="7.8802884"><ele>508.33333333333337</ele><time>2026-04-18T15:57:31.583Z</time></trkpt><trkpt lat="44.3464889" lon="7.8800419"><ele>508.66666666666663</ele><time>2026-04-18T15:57:32.582Z</time></trkpt><trkpt lat="44.3464842" lon="7.8798097"><ele>509.0</ele><time>2026-04-18T15:57:33.582Z</time></trkpt><trkpt lat="44.3464763" lon="7.8795947"><ele>509.0</ele><time>2026-04-18T15:57:34.583Z</time></trkpt><trkpt lat="44.3465092" lon="7.8794197"><ele>509.0</ele><time>2026-04-18T15:57:35.582Z</time></trkpt><trkpt lat="44.3465517" lon="7.8792729"><ele>509.0</ele><time>2026-04-18T15:57:36.582Z</time></trkpt><trkpt lat="44.3465838" lon="7.8791211"><ele>509.0</ele><time>2026-04-18T15:57:37.582Z</time></trkpt><trkpt lat="44.3466056" lon="7.8789948"><ele>509.0</ele><time>2026-04-18T15:57:38.582Z</time></trkpt><trkpt lat="44.3466266" lon="7.8788606"><ele>509.4</ele><time>2026-04-18T15:57:39.582Z</time></trkpt><trkpt lat="44.3466712" lon="7.878758"><ele>509.79999999999995</ele><time>2026-04-18T15:57:40.583Z</time></trkpt><trkpt lat="44.3467394" lon="7.8786753"><ele>510.20000000000005</ele><time>2026-04-18T15:57:41.582Z</time></trkpt><trkpt lat="44.3468234" lon="7.8785848"><ele>510.6</ele><time>2026-04-18T15:57:42.582Z</time></trkpt><trkpt lat="44.3469131" lon="7.8785025"><ele>511.0</ele><time>2026-04-18T15:57:43.582Z</time></trkpt><trkpt lat="44.3470171" lon="7.8784293"><ele>511.0</ele><time>2026-04-18T15:57:44.582Z</time></trkpt><trkpt lat="44.3471634" lon="7.8783824"><ele>511.0</ele><time>2026-04-18T15:57:45.582Z</time></trkpt><trkpt lat="44.3473011" lon="7.8783099"><ele>511.0</ele><time>2026-04-18T15:57:46.583Z</time></trkpt><trkpt lat="44.347434" lon="7.8781718"><ele>513.3333333333334</ele><time>2026-04-18T15:57:47.582Z</time></trkpt><trkpt lat="44.3475767" lon="7.8780662"><ele>515.6666666666666</ele><time>2026-04-18T15:57:48.584Z</time></trkpt><trkpt lat="44.3476962" lon="7.8779317"><ele>518.0</ele><time>2026-04-18T15:57:49.583Z</time></trkpt><trkpt lat="44.3478277" lon="7.8777886"><ele>518.0</ele><time>2026-04-18T15:57:50.584Z</time></trkpt><trkpt lat="44.3479529" lon="7.8776178"><ele>518.0</ele><time>2026-04-18T15:57:51.582Z</time></trkpt><trkpt lat="44.3480814" lon="7.8774789"><ele>518.0</ele><time>2026-04-18T15:57:52.582Z</time></trkpt><trkpt lat="44.3481929" lon="7.8773081"><ele>524.6666666666666</ele><time>2026-04-18T15:57:53.582Z</time></trkpt><trkpt lat="44.3483086" lon="7.8771268"><ele>531.3333333333334</ele><time>2026-04-18T15:57:54.583Z</time></trkpt><trkpt lat="44.3484112" lon="7.8769682"><ele>538.0</ele><time>2026-04-18T15:57:55.583Z</time></trkpt><trkpt lat="44.3485357" lon="7.8768527"><ele>538.4</ele><time>2026-04-18T15:57:56.583Z</time></trkpt><trkpt lat="44.3486325" lon="7.8767478"><ele>538.8</ele><time>2026-04-18T15:57:57.582Z</time></trkpt><trkpt lat="44.3487138" lon="7.876671"><ele>539.2</ele><time>2026-04-18T15:57:58.582Z</time></trkpt><trkpt lat="44.3487923" lon="7.8766105"><ele>539.6</ele><time>2026-04-18T15:57:59.583Z</time></trkpt><trkpt lat="44.3488602" lon="7.8765607"><ele>540.0</ele><time>2026-04-18T15:58:00.583Z</time></trkpt><trkpt lat="44.3489666" lon="7.8765515"><ele>540.75</ele><time>2026-04-18T15:58:01.583Z</time></trkpt><trkpt lat="44.3490584" lon="7.8765403"><ele>541.5</ele><time>2026-04-18T15:58:02.584Z</time></trkpt><trkpt lat="44.3491689" lon="7.8765703"><ele>542.25</ele><time>2026-04-18T15:58:03.582Z</time></trkpt><trkpt lat="44.3492967" lon="7.876636"><ele>543.0</ele><time>2026-04-18T15:58:04.582Z</time></trkpt><trkpt lat="44.3494233" lon="7.876683"><ele>543.0</ele><time>2026-04-18T15:58:05.582Z</time></trkpt><trkpt lat="44.3495602" lon="7.8767572"><ele>543.0</ele><time>2026-04-18T15:58:06.582Z</time></trkpt><trkpt lat="44.3497042" lon="7.8768208"><ele>543.0</ele><time>2026-04-18T15:58:07.583Z</time></trkpt><trkpt lat="44.3498388" lon="7.8768432"><ele>543.0</ele><time>2026-04-18T15:58:08.583Z</time></trkpt><trkpt lat="44.3499784" lon="7.8769099"><ele>551.0</ele><time>2026-04-18T15:58:09.584Z</time></trkpt><trkpt lat="44.3501464" lon="7.8769037"><ele>559.0</ele><time>2026-04-18T15:58:10.582Z</time></trkpt><trkpt lat="44.3502794" lon="7.8768511"><ele>567.0</ele><time>2026-04-18T15:58:11.583Z</time></trkpt><trkpt lat="44.3504027" lon="7.8768636"><ele>575.0</ele><time>2026-04-18T15:58:12.583Z</time></trkpt><trkpt lat="44.3505076" lon="7.8768408"><ele>574.2</ele><time>2026-04-18T15:58:13.583Z</time></trkpt><trkpt lat="44.3505929" lon="7.8768317"><ele>573.4</ele><time>2026-04-18T15:58:14.584Z</time></trkpt><trkpt lat="44.350705" lon="7.8768337"><ele>572.6</ele><time>2026-04-18T15:58:15.582Z</time></trkpt><trkpt lat="44.3508107" lon="7.8767939"><ele>571.8</ele><time>2026-04-18T15:58:16.582Z</time></trkpt><trkpt lat="44.3509354" lon="7.8767954"><ele>571.0</ele><time>2026-04-18T15:58:17.583Z</time></trkpt><trkpt lat="44.351047" lon="7.8767365"><ele>571.0</ele><time>2026-04-18T15:58:18.582Z</time></trkpt><trkpt lat="44.35117" lon="7.8767101"><ele>571.0</ele><time>2026-04-18T15:58:19.582Z</time></trkpt><trkpt lat="44.3513022" lon="7.8767257"><ele>571.0</ele><time>2026-04-18T15:58:20.582Z</time></trkpt><trkpt lat="44.3514228" lon="7.8767456"><ele>571.0</ele><time>2026-04-18T15:58:21.583Z</time></trkpt><trkpt lat="44.3515367" lon="7.8767708"><ele>571.0</ele><time>2026-04-18T15:58:22.583Z</time></trkpt><trkpt lat="44.3516303" lon="7.876789"><ele>571.0</ele><time>2026-04-18T15:58:23.583Z</time></trkpt><trkpt lat="44.3517028" lon="7.876794"><ele>571.0</ele><time>2026-04-18T15:58:24.584Z</time></trkpt><trkpt lat="44.3517312" lon="7.8767065"><ele>571.0</ele><time>2026-04-18T15:58:26.582Z</time></trkpt><trkpt lat="44.3516672" lon="7.8766528"><ele>571.0</ele><time>2026-04-18T15:58:28.583Z</time></trkpt><trkpt lat="44.3515454" lon="7.8766782"><ele>571.0</ele><time>2026-04-18T15:58:29.582Z</time></trkpt><trkpt lat="44.3514388" lon="7.8766629"><ele>566.75</ele><time>2026-04-18T15:58:30.583Z</time></trkpt><trkpt lat="44.3513062" lon="7.8766784"><ele>562.5</ele><time>2026-04-18T15:58:31.582Z</time></trkpt><trkpt lat="44.3511492" lon="7.8766279"><ele>558.25</ele><time>2026-04-18T15:58:32.582Z</time></trkpt><trkpt lat="44.3510093" lon="7.8765966"><ele>554.0</ele><time>2026-04-18T15:58:33.582Z</time></trkpt><trkpt lat="44.3508585" lon="7.8766154"><ele>554.0</ele><time>2026-04-18T15:58:34.583Z</time></trkpt><trkpt lat="44.3507054" lon="7.8766416"><ele>554.0</ele><time>2026-04-18T15:58:35.583Z</time></trkpt><trkpt lat="44.3505553" lon="7.8766536"><ele>554.0</ele><time>2026-04-18T15:58:36.583Z</time></trkpt><trkpt lat="44.3504102" lon="7.8766764"><ele>554.25</ele><time>2026-04-18T15:58:37.584Z</time></trkpt><trkpt lat="44.3502878" lon="7.8766956"><ele>554.5</ele><time>2026-04-18T15:58:38.583Z</time></trkpt><trkpt lat="44.3501507" lon="7.876722"><ele>554.75</ele><time>2026-04-18T15:58:39.582Z</time></trkpt><trkpt lat="44.3500206" lon="7.8767414"><ele>555.0</ele><time>2026-04-18T15:58:40.583Z</time></trkpt><trkpt lat="44.3498869" lon="7.8767356"><ele>555.0</ele><time>2026-04-18T15:58:41.583Z</time></trkpt><trkpt lat="44.3497685" lon="7.8767248"><ele>555.0</ele><time>2026-04-18T15:58:42.583Z</time></trkpt><trkpt lat="44.3496345" lon="7.8766898"><ele>555.0</ele><time>2026-04-18T15:58:43.583Z</time></trkpt><trkpt lat="44.349517" lon="7.8766625"><ele>555.0</ele><time>2026-04-18T15:58:44.583Z</time></trkpt><trkpt lat="44.3494113" lon="7.8766163"><ele>553.0</ele><time>2026-04-18T15:58:45.582Z</time></trkpt><trkpt lat="44.3492995" lon="7.8765662"><ele>551.0</ele><time>2026-04-18T15:58:46.584Z</time></trkpt><trkpt lat="44.3492156" lon="7.8765426"><ele>549.0</ele><time>2026-04-18T15:58:47.583Z</time></trkpt><trkpt lat="44.3491295" lon="7.8765092"><ele>547.0</ele><time>2026-04-18T15:58:48.583Z</time></trkpt><trkpt lat="44.3491335" lon="7.8764187"><ele>545.0</ele><time>2026-04-18T15:58:52.582Z</time></trkpt><trkpt lat="44.3491135" lon="7.8763221"><ele>543.0</ele><time>2026-04-18T15:58:56.584Z</time></trkpt><trkpt lat="44.3490826" lon="7.8761971"><ele>543.0</ele><time>2026-04-18T15:58:59.582Z</time></trkpt><trkpt lat="44.3490439" lon="7.876115"><ele>543.0</ele><time>2026-04-18T15:59:09.582Z</time></trkpt><trkpt lat="44.3490349" lon="7.8760138"><ele>543.0</ele><time>2026-04-18T15:59:14.582Z</time></trkpt><trkpt lat="44.3489931" lon="7.8758987"><ele>543.0</ele><time>2026-04-18T15:59:19.583Z</time></trkpt><trkpt lat="44.3489548" lon="7.8757794"><ele>543.0</ele><time>2026-04-18T15:59:22.582Z</time></trkpt><trkpt lat="44.3489558" lon="7.8756815"><ele>543.0</ele><time>2026-04-18T15:59:24.582Z</time></trkpt><trkpt lat="44.3490028" lon="7.8755942"><ele>543.3333333333334</ele><time>2026-04-18T15:59:26.582Z</time></trkpt><trkpt lat="44.3490138" lon="7.8754758"><ele>543.6666666666666</ele><time>2026-04-18T15:59:29.583Z</time></trkpt><trkpt lat="44.34901" lon="7.8753547"><ele>544.0</ele><time>2026-04-18T15:59:32.583Z</time></trkpt><trkpt lat="44.3489998" lon="7.8752661"><ele>544.3333333333333</ele><time>2026-04-18T15:59:35.582Z</time></trkpt><trkpt lat="44.3489809" lon="7.8751572"><ele>544.6666666666666</ele><time>2026-04-18T15:59:38.582Z</time></trkpt><trkpt lat="44.3489819" lon="7.8750408"><ele>545.0</ele><time>2026-04-18T15:59:41.582Z</time></trkpt><trkpt lat="44.3489748" lon="7.8749516"><ele>546.8571428571429</ele><time>2026-04-18T15:59:43.582Z</time></trkpt><trkpt lat="44.3489718" lon="7.8748421"><ele>548.7142857142858</ele><time>2026-04-18T15:59:46.582Z</time></trkpt><trkpt lat="44.3489788" lon="7.8747458"><ele>550.5714285714286</ele><time>2026-04-18T15:59:48.583Z</time></trkpt><trkpt lat="44.3490012" lon="7.8746589"><ele>552.4285714285714</ele><time>2026-04-18T15:59:50.583Z</time></trkpt><trkpt lat="44.3490274" lon="7.8745547"><ele>554.2857142857142</ele><time>2026-04-18T15:59:52.582Z</time></trkpt><trkpt lat="44.3490065" lon="7.8744558"><ele>556.1428571428571</ele><time>2026-04-18T15:59:54.583Z</time></trkpt><trkpt lat="44.3489912" lon="7.8743593"><ele>558.0</ele><time>2026-04-18T15:59:56.584Z</time></trkpt><trkpt lat="44.3489901" lon="7.8742586"><ele>560.8333333333334</ele><time>2026-04-18T15:59:58.583Z</time></trkpt><trkpt lat="44.3489878" lon="7.8741553"><ele>563.6666666666666</ele><time>2026-04-18T16:00:00.582Z</time></trkpt><trkpt lat="44.348975" lon="7.8740346"><ele>566.5</ele><time>2026-04-18T16:00:02.584Z</time></trkpt><trkpt lat="44.3489667" lon="7.8739181"><ele>569.3333333333333</ele><time>2026-04-18T16:00:04.583Z</time></trkpt><trkpt lat="44.3489374" lon="7.8738015"><ele>572.1666666666666</ele><time>2026-04-18T16:00:06.583Z</time></trkpt><trkpt lat="44.3489066" lon="7.8737053"><ele>575.0</ele><time>2026-04-18T16:00:08.582Z</time></trkpt><trkpt lat="44.3489077" lon="7.873611"><ele>575.0</ele><time>2026-04-18T16:00:10.583Z</time></trkpt><trkpt lat="44.3489063" lon="7.8734796"><ele>575.0</ele><time>2026-04-18T16:00:12.583Z</time></trkpt><trkpt lat="44.3489106" lon="7.8733221"><ele>575.0</ele><time>2026-04-18T16:00:14.582Z</time></trkpt><trkpt lat="44.3489145" lon="7.8731899"><ele>575.0</ele><time>2026-04-18T16:00:16.582Z</time></trkpt><trkpt lat="44.34893" lon="7.8730409"><ele>575.0</ele><time>2026-04-18T16:00:18.584Z</time></trkpt><trkpt lat="44.3489425" lon="7.8729382"><ele>577.2</ele><time>2026-04-18T16:00:20.582Z</time></trkpt><trkpt lat="44.3489787" lon="7.8728337"><ele>579.4</ele><time>2026-04-18T16:00:22.582Z</time></trkpt><trkpt lat="44.3490253" lon="7.8727335"><ele>581.6</ele><time>2026-04-18T16:00:24.584Z</time></trkpt><trkpt lat="44.3490923" lon="7.8726308"><ele>583.8</ele><time>2026-04-18T16:00:26.583Z</time></trkpt><trkpt lat="44.3491565" lon="7.8724974"><ele>586.0</ele><time>2026-04-18T16:00:28.582Z</time></trkpt><trkpt lat="44.349221" lon="7.8723841"><ele>587.0</ele><time>2026-04-18T16:00:30.583Z</time></trkpt><trkpt lat="44.3492747" lon="7.8722774"><ele>588.0</ele><time>2026-04-18T16:00:32.583Z</time></trkpt><trkpt lat="44.3493462" lon="7.8721835"><ele>589.0</ele><time>2026-04-18T16:00:34.582Z</time></trkpt><trkpt lat="44.3494097" lon="7.8720683"><ele>590.0</ele><time>2026-04-18T16:00:36.582Z</time></trkpt><trkpt lat="44.3494548" lon="7.8719768"><ele>591.0</ele><time>2026-04-18T16:00:38.583Z</time></trkpt><trkpt lat="44.3495125" lon="7.8718856"><ele>591.0</ele><time>2026-04-18T16:00:40.583Z</time></trkpt><trkpt lat="44.3495655" lon="7.8717941"><ele>591.0</ele><time>2026-04-18T16:00:51.582Z</time></trkpt><trkpt lat="44.3496259" lon="7.871732"><ele>591.0</ele><time>2026-04-18T16:00:53.582Z</time></trkpt><trkpt lat="44.3496722" lon="7.8716574"><ele>591.0</ele><time>2026-04-18T16:00:55.582Z</time></trkpt><trkpt lat="44.349734" lon="7.8715854"><ele>591.0</ele><time>2026-04-18T16:00:57.583Z</time></trkpt><trkpt lat="44.3497849" lon="7.8715314"><ele>591.0</ele><time>2026-04-18T16:01:03.556Z</time></trkpt><trkpt lat="44.3498552" lon="7.8714375"><ele>593.8</ele><time>2026-04-18T16:01:05.583Z</time></trkpt><trkpt lat="44.3498837" lon="7.8713548"><ele>596.6</ele><time>2026-04-18T16:01:07.525Z</time></trkpt><trkpt lat="44.3499138" lon="7.8712432"><ele>599.4</ele><time>2026-04-18T16:01:09.582Z</time></trkpt><trkpt lat="44.3499459" lon="7.8711486"><ele>602.2</ele><time>2026-04-18T16:01:11.582Z</time></trkpt><trkpt lat="44.34997" lon="7.8710669"><ele>605.0</ele><time>2026-04-18T16:01:13.586Z</time></trkpt><trkpt lat="44.3500504" lon="7.8707772"><ele>605.0</ele><time>2026-04-18T16:01:15.583Z</time></trkpt><trkpt lat="44.3500495" lon="7.8706665"><ele>605.0</ele><time>2026-04-18T16:01:23.584Z</time></trkpt><trkpt lat="44.3500706" lon="7.8705367"><ele>605.0</ele><time>2026-04-18T16:01:27.583Z</time></trkpt><trkpt lat="44.3501135" lon="7.8703831"><ele>605.0</ele><time>2026-04-18T16:01:30.584Z</time></trkpt><trkpt lat="44.3501681" lon="7.8702515"><ele>605.0</ele><time>2026-04-18T16:01:31.582Z</time></trkpt><trkpt lat="44.3502403" lon="7.8701232"><ele>607.6</ele><time>2026-04-18T16:01:32.582Z</time></trkpt><trkpt lat="44.3503067" lon="7.8699981"><ele>610.2</ele><time>2026-04-18T16:01:33.582Z</time></trkpt><trkpt lat="44.3503665" lon="7.869881"><ele>612.8</ele><time>2026-04-18T16:01:34.584Z</time></trkpt><trkpt lat="44.350421" lon="7.8697804"><ele>615.4</ele><time>2026-04-18T16:01:35.584Z</time></trkpt><trkpt lat="44.3504709" lon="7.869697"><ele>618.0</ele><time>2026-04-18T16:01:36.583Z</time></trkpt><trkpt lat="44.3505334" lon="7.8695986"><ele>619.0</ele><time>2026-04-18T16:01:38.583Z</time></trkpt><trkpt lat="44.3505994" lon="7.8695327"><ele>620.0</ele><time>2026-04-18T16:01:44.582Z</time></trkpt><trkpt lat="44.3507409" lon="7.8695212"><ele>621.0</ele><time>2026-04-18T16:01:46.582Z</time></trkpt><trkpt lat="44.3508343" lon="7.8695342"><ele>622.0</ele><time>2026-04-18T16:01:47.582Z</time></trkpt><trkpt lat="44.3509373" lon="7.8695579"><ele>623.0</ele><time>2026-04-18T16:01:48.582Z</time></trkpt><trkpt lat="44.3510398" lon="7.8695919"><ele>623.0</ele><time>2026-04-18T16:01:49.582Z</time></trkpt><trkpt lat="44.351145" lon="7.8696111"><ele>623.0</ele><time>2026-04-18T16:01:50.583Z</time></trkpt><trkpt lat="44.3512457" lon="7.8696089"><ele>623.0</ele><time>2026-04-18T16:01:51.582Z</time></trkpt><trkpt lat="44.3513382" lon="7.8696"><ele>623.0</ele><time>2026-04-18T16:01:52.582Z</time></trkpt><trkpt lat="44.3514208" lon="7.8695731"><ele>623.0</ele><time>2026-04-18T16:01:53.583Z</time></trkpt><trkpt lat="44.3515092" lon="7.8695512"><ele>625.3333333333333</ele><time>2026-04-18T16:01:54.582Z</time></trkpt><trkpt lat="44.3515952" lon="7.8695491"><ele>627.6666666666666</ele><time>2026-04-18T16:01:55.583Z</time></trkpt><trkpt lat="44.3516801" lon="7.8695569"><ele>630.0</ele><time>2026-04-18T16:01:56.582Z</time></trkpt><trkpt lat="44.3517665" lon="7.8695691"><ele>632.3333333333334</ele><time>2026-04-18T16:01:57.584Z</time></trkpt><trkpt lat="44.3518379" lon="7.8695568"><ele>634.6666666666667</ele><time>2026-04-18T16:01:58.583Z</time></trkpt><trkpt lat="44.3519146" lon="7.8695326"><ele>637.0</ele><time>2026-04-18T16:01:59.582Z</time></trkpt><trkpt lat="44.3519974" lon="7.8694879"><ele>637.0</ele><time>2026-04-18T16:02:00.582Z</time></trkpt><trkpt lat="44.3520934" lon="7.8694192"><ele>637.0</ele><time>2026-04-18T16:02:01.583Z</time></trkpt><trkpt lat="44.3521774" lon="7.8693523"><ele>637.0</ele><time>2026-04-18T16:02:02.583Z</time></trkpt><trkpt lat="44.3522532" lon="7.8692928"><ele>637.0</ele><time>2026-04-18T16:02:03.583Z</time></trkpt><trkpt lat="44.3523347" lon="7.869248"><ele>637.0</ele><time>2026-04-18T16:02:04.582Z</time></trkpt><trkpt lat="44.3524065" lon="7.8692224"><ele>635.4285714285714</ele><time>2026-04-18T16:02:05.583Z</time></trkpt><trkpt lat="44.3524783" lon="7.8691889"><ele>633.8571428571429</ele><time>2026-04-18T16:02:07.582Z</time></trkpt><trkpt lat="44.3525164" lon="7.8691154"><ele>632.2857142857142</ele><time>2026-04-18T16:02:09.584Z</time></trkpt><trkpt lat="44.352604" lon="7.8690253"><ele>630.7142857142858</ele><time>2026-04-18T16:02:11.583Z</time></trkpt><trkpt lat="44.3526544" lon="7.8689706"><ele>629.1428571428571</ele><time>2026-04-18T16:02:12.583Z</time></trkpt><trkpt lat="44.352712" lon="7.8689227"><ele>627.5714285714286</ele><time>2026-04-18T16:02:13.583Z</time></trkpt><trkpt lat="44.3527664" lon="7.8688765"><ele>626.0</ele><time>2026-04-18T16:02:14.582Z</time></trkpt><trkpt lat="44.3528719" lon="7.8687875"><ele>626.0</ele><time>2026-04-18T16:02:16.582Z</time></trkpt><trkpt lat="44.3529355" lon="7.8687482"><ele>626.0</ele><time>2026-04-18T16:02:17.582Z</time></trkpt><trkpt lat="44.3530193" lon="7.8686375"><ele>626.0</ele><time>2026-04-18T16:02:19.582Z</time></trkpt><trkpt lat="44.3530483" lon="7.8685553"><ele>626.0</ele><time>2026-04-18T16:02:20.582Z</time></trkpt><trkpt lat="44.3530739" lon="7.8684748"><ele>626.0</ele><time>2026-04-18T16:02:21.583Z</time></trkpt><trkpt lat="44.3531009" lon="7.8683874"><ele>626.0</ele><time>2026-04-18T16:02:22.582Z</time></trkpt><trkpt lat="44.3531266" lon="7.8682912"><ele>626.0</ele><time>2026-04-18T16:02:23.582Z</time></trkpt><trkpt lat="44.3531581" lon="7.8681907"><ele>626.0</ele><time>2026-04-18T16:02:24.583Z</time></trkpt><trkpt lat="44.3531863" lon="7.8680975"><ele>626.0</ele><time>2026-04-18T16:02:25.584Z</time></trkpt><trkpt lat="44.3532333" lon="7.8679501"><ele>626.0</ele><time>2026-04-18T16:02:27.582Z</time></trkpt><trkpt lat="44.3532735" lon="7.8678766"><ele>626.0</ele><time>2026-04-18T16:02:28.583Z</time></trkpt><trkpt lat="44.3533192" lon="7.8678098"><ele>626.0</ele><time>2026-04-18T16:02:29.583Z</time></trkpt><trkpt lat="44.3533674" lon="7.8677406"><ele>626.0</ele><time>2026-04-18T16:02:30.583Z</time></trkpt><trkpt lat="44.3534141" lon="7.8676807"><ele>626.0</ele><time>2026-04-18T16:02:31.584Z</time></trkpt><trkpt lat="44.3534947" lon="7.8676115"><ele>626.0</ele><time>2026-04-18T16:02:33.583Z</time></trkpt><trkpt lat="44.3536038" lon="7.8675573"><ele>626.0</ele><time>2026-04-18T16:02:35.583Z</time></trkpt><trkpt lat="44.3536736" lon="7.8675367"><ele>626.0</ele><time>2026-04-18T16:02:36.583Z</time></trkpt><trkpt lat="44.35374" lon="7.8675021"><ele>626.0</ele><time>2026-04-18T16:02:37.583Z</time></trkpt><trkpt lat="44.3538535" lon="7.8674584"><ele>624.2</ele><time>2026-04-18T16:02:39.582Z</time></trkpt><trkpt lat="44.353958" lon="7.8674335"><ele>622.4000000000001</ele><time>2026-04-18T16:02:41.583Z</time></trkpt><trkpt lat="44.3540627" lon="7.8674498"><ele>620.6</ele><time>2026-04-18T16:02:43.583Z</time></trkpt><trkpt lat="44.3541381" lon="7.8675394"><ele>618.8000000000001</ele><time>2026-04-18T16:02:45.582Z</time></trkpt><trkpt lat="44.3541982" lon="7.8676918"><ele>617.0</ele><time>2026-04-18T16:02:47.582Z</time></trkpt><trkpt lat="44.3542224" lon="7.8677838"><ele>617.0</ele><time>2026-04-18T16:02:48.582Z</time></trkpt><trkpt lat="44.3542298" lon="7.8678845"><ele>617.0</ele><time>2026-04-18T16:02:49.583Z</time></trkpt><trkpt lat="44.3542383" lon="7.8679869"><ele>617.0</ele><time>2026-04-18T16:02:50.582Z</time></trkpt><trkpt lat="44.3542559" lon="7.8680916"><ele>617.0</ele><time>2026-04-18T16:02:51.583Z</time></trkpt><trkpt lat="44.3542806" lon="7.8681854"><ele>617.0</ele><time>2026-04-18T16:02:52.582Z</time></trkpt><trkpt lat="44.3543099" lon="7.8682678"><ele>617.0</ele><time>2026-04-18T16:02:53.582Z</time></trkpt><trkpt lat="44.3543323" lon="7.8683514"><ele>617.0</ele><time>2026-04-18T16:02:54.583Z</time></trkpt><trkpt lat="44.3543301" lon="7.8685146"><ele>618.2</ele><time>2026-04-18T16:02:56.582Z</time></trkpt><trkpt lat="44.3543165" lon="7.8686028"><ele>619.4000000000001</ele><time>2026-04-18T16:02:57.582Z</time></trkpt><trkpt lat="44.3542964" lon="7.8686936"><ele>620.5999999999999</ele><time>2026-04-18T16:02:58.583Z</time></trkpt><trkpt lat="44.3542793" lon="7.8688491"><ele>621.8</ele><time>2026-04-18T16:03:00.584Z</time></trkpt><trkpt lat="44.3543436" lon="7.8689549"><ele>623.0</ele><time>2026-04-18T16:03:02.583Z</time></trkpt><trkpt lat="44.3544437" lon="7.8690312"><ele>623.0</ele><time>2026-04-18T16:03:04.584Z</time></trkpt><trkpt lat="44.3545235" lon="7.8691527"><ele>623.0</ele><time>2026-04-18T16:03:06.582Z</time></trkpt><trkpt lat="44.3545581" lon="7.8692263"><ele>623.0</ele><time>2026-04-18T16:03:07.583Z</time></trkpt><trkpt lat="44.3545862" lon="7.8693105"><ele>623.0</ele><time>2026-04-18T16:03:08.583Z</time></trkpt><trkpt lat="44.3546041" lon="7.8694037"><ele>623.0</ele><time>2026-04-18T16:03:09.582Z</time></trkpt><trkpt lat="44.3546275" lon="7.8694867"><ele>623.0</ele><time>2026-04-18T16:03:10.583Z</time></trkpt><trkpt lat="44.3546989" lon="7.8695951"><ele>622.0</ele><time>2026-04-18T16:03:12.583Z</time></trkpt><trkpt lat="44.3548197" lon="7.869582"><ele>621.0</ele><time>2026-04-18T16:03:14.583Z</time></trkpt><trkpt lat="44.3549311" lon="7.8695175"><ele>620.0</ele><time>2026-04-18T16:03:16.583Z</time></trkpt><trkpt lat="44.3550607" lon="7.8694516"><ele>619.0</ele><time>2026-04-18T16:03:18.584Z</time></trkpt><trkpt lat="44.3551903" lon="7.869424"><ele>619.0</ele><time>2026-04-18T16:03:20.584Z</time></trkpt><trkpt lat="44.3552863" lon="7.8693876"><ele>619.0</ele><time>2026-04-18T16:03:22.583Z</time></trkpt><trkpt lat="44.3554039" lon="7.8693792"><ele>619.0</ele><time>2026-04-18T16:03:24.582Z</time></trkpt><trkpt lat="44.3555142" lon="7.8694025"><ele>619.0</ele><time>2026-04-18T16:03:26.583Z</time></trkpt><trkpt lat="44.35559" lon="7.8694227"><ele>619.0</ele><time>2026-04-18T16:03:28.582Z</time></trkpt><trkpt lat="44.355678" lon="7.8693702"><ele>613.0</ele><time>2026-04-18T16:03:31.584Z</time></trkpt><trkpt lat="44.3558068" lon="7.869246"><ele>607.0</ele><time>2026-04-18T16:03:33.583Z</time></trkpt><trkpt lat="44.3558943" lon="7.8692037"><ele>601.0</ele><time>2026-04-18T16:03:34.583Z</time></trkpt><trkpt lat="44.3560015" lon="7.8691411"><ele>595.0</ele><time>2026-04-18T16:03:35.582Z</time></trkpt><trkpt lat="44.356113" lon="7.8690813"><ele>595.0</ele><time>2026-04-18T16:03:36.582Z</time></trkpt><trkpt lat="44.3562387" lon="7.8690109"><ele>595.0</ele><time>2026-04-18T16:03:37.583Z</time></trkpt><trkpt lat="44.3563745" lon="7.8689403"><ele>595.0</ele><time>2026-04-18T16:03:38.582Z</time></trkpt><trkpt lat="44.35652" lon="7.868849"><ele>595.0</ele><time>2026-04-18T16:03:39.583Z</time></trkpt><trkpt lat="44.3566519" lon="7.8687562"><ele>593.0</ele><time>2026-04-18T16:03:40.583Z</time></trkpt><trkpt lat="44.3567822" lon="7.8686544"><ele>591.0</ele><time>2026-04-18T16:03:41.584Z</time></trkpt><trkpt lat="44.3569105" lon="7.8685499"><ele>589.0</ele><time>2026-04-18T16:03:42.582Z</time></trkpt><trkpt lat="44.357033" lon="7.8684443"><ele>587.0</ele><time>2026-04-18T16:03:43.582Z</time></trkpt><trkpt lat="44.3571516" lon="7.868359"><ele>586.5</ele><time>2026-04-18T16:03:44.583Z</time></trkpt><trkpt lat="44.3572787" lon="7.8682906"><ele>586.0</ele><time>2026-04-18T16:03:45.584Z</time></trkpt><trkpt lat="44.3573977" lon="7.8682575"><ele>585.5</ele><time>2026-04-18T16:03:46.583Z</time></trkpt><trkpt lat="44.3575071" lon="7.8682047"><ele>585.0</ele><time>2026-04-18T16:03:47.582Z</time></trkpt><trkpt lat="44.3576152" lon="7.8681458"><ele>585.0</ele><time>2026-04-18T16:03:48.583Z</time></trkpt><trkpt lat="44.3577248" lon="7.8680435"><ele>585.0</ele><time>2026-04-18T16:03:49.583Z</time></trkpt><trkpt lat="44.3578416" lon="7.8679488"><ele>585.0</ele><time>2026-04-18T16:03:50.582Z</time></trkpt><trkpt lat="44.357969" lon="7.8678349"><ele>585.0</ele><time>2026-04-18T16:03:51.583Z</time></trkpt><trkpt lat="44.3580819" lon="7.8676669"><ele>582.6666666666666</ele><time>2026-04-18T16:03:52.582Z</time></trkpt><trkpt lat="44.3581896" lon="7.8674982"><ele>580.3333333333333</ele><time>2026-04-18T16:03:53.582Z</time></trkpt><trkpt lat="44.3582937" lon="7.8673528"><ele>578.0</ele><time>2026-04-18T16:03:54.582Z</time></trkpt><trkpt lat="44.3584258" lon="7.8672332"><ele>578.0</ele><time>2026-04-18T16:03:55.583Z</time></trkpt><trkpt lat="44.3585664" lon="7.8671298"><ele>578.0</ele><time>2026-04-18T16:03:56.582Z</time></trkpt><trkpt lat="44.358721" lon="7.8670504"><ele>578.0</ele><time>2026-04-18T16:03:57.583Z</time></trkpt><trkpt lat="44.3588604" lon="7.8669723"><ele>577.5</ele><time>2026-04-18T16:03:58.582Z</time></trkpt><trkpt lat="44.3590023" lon="7.8669077"><ele>577.0</ele><time>2026-04-18T16:03:59.582Z</time></trkpt><trkpt lat="44.3591349" lon="7.8668491"><ele>576.5</ele><time>2026-04-18T16:04:00.582Z</time></trkpt><trkpt lat="44.3592676" lon="7.8667891"><ele>576.0</ele><time>2026-04-18T16:04:01.584Z</time></trkpt><trkpt lat="44.3593832" lon="7.866726"><ele>576.0</ele><time>2026-04-18T16:04:02.583Z</time></trkpt><trkpt lat="44.359498" lon="7.8666493"><ele>576.0</ele><time>2026-04-18T16:04:03.584Z</time></trkpt><trkpt lat="44.3596156" lon="7.8665565"><ele>576.0</ele><time>2026-04-18T16:04:04.583Z</time></trkpt><trkpt lat="44.359744" lon="7.8664642"><ele>576.0</ele><time>2026-04-18T16:04:05.582Z</time></trkpt><trkpt lat="44.3598805" lon="7.8663704"><ele>572.3333333333334</ele><time>2026-04-18T16:04:06.583Z</time></trkpt><trkpt lat="44.3600292" lon="7.8662709"><ele>568.6666666666667</ele><time>2026-04-18T16:04:07.583Z</time></trkpt><trkpt lat="44.3601803" lon="7.8661781"><ele>565.0</ele><time>2026-04-18T16:04:08.583Z</time></trkpt><trkpt lat="44.3603291" lon="7.8660819"><ele>565.0</ele><time>2026-04-18T16:04:09.583Z</time></trkpt><trkpt lat="44.3604825" lon="7.8660132"><ele>565.0</ele><time>2026-04-18T16:04:10.582Z</time></trkpt><trkpt lat="44.360636" lon="7.865969"><ele>565.0</ele><time>2026-04-18T16:04:11.582Z</time></trkpt><trkpt lat="44.3607749" lon="7.8659509"><ele>562.25</ele><time>2026-04-18T16:04:12.583Z</time></trkpt><trkpt lat="44.3609153" lon="7.8659281"><ele>559.5</ele><time>2026-04-18T16:04:13.582Z</time></trkpt><trkpt lat="44.3610424" lon="7.8659071"><ele>556.75</ele><time>2026-04-18T16:04:14.583Z</time></trkpt><trkpt lat="44.361171" lon="7.8658828"><ele>554.0</ele><time>2026-04-18T16:04:15.583Z</time></trkpt><trkpt lat="44.3612951" lon="7.8657989"><ele>549.25</ele><time>2026-04-18T16:04:16.583Z</time></trkpt><trkpt lat="44.3613924" lon="7.8656694"><ele>544.5</ele><time>2026-04-18T16:04:17.584Z</time></trkpt><trkpt lat="44.3614852" lon="7.8655399"><ele>539.75</ele><time>2026-04-18T16:04:18.584Z</time></trkpt><trkpt lat="44.3615518" lon="7.865412"><ele>535.0</ele><time>2026-04-18T16:04:19.583Z</time></trkpt><trkpt lat="44.3615899" lon="7.8652527"><ele>535.25</ele><time>2026-04-18T16:04:20.584Z</time></trkpt><trkpt lat="44.3616056" lon="7.8650874"><ele>535.5</ele><time>2026-04-18T16:04:21.582Z</time></trkpt><trkpt lat="44.3616259" lon="7.8649254"><ele>535.75</ele><time>2026-04-18T16:04:22.583Z</time></trkpt><trkpt lat="44.361666" lon="7.8647716"><ele>536.0</ele><time>2026-04-18T16:04:23.583Z</time></trkpt><trkpt lat="44.3617429" lon="7.8646631"><ele>536.0</ele><time>2026-04-18T16:04:24.583Z</time></trkpt><trkpt lat="44.361821" lon="7.86452"><ele>536.0</ele><time>2026-04-18T16:04:25.583Z</time></trkpt><trkpt lat="44.3618822" lon="7.8643734"><ele>536.0</ele><time>2026-04-18T16:04:26.583Z</time></trkpt><trkpt lat="44.3619438" lon="7.8642088"><ele>536.0</ele><time>2026-04-18T16:04:27.583Z</time></trkpt><trkpt lat="44.3619278" lon="7.8639475"><ele>535.25</ele><time>2026-04-18T16:04:28.583Z</time></trkpt><trkpt lat="44.3619629" lon="7.8637592"><ele>534.5</ele><time>2026-04-18T16:04:29.583Z</time></trkpt><trkpt lat="44.3619234" lon="7.8635565"><ele>533.75</ele><time>2026-04-18T16:04:30.584Z</time></trkpt><trkpt lat="44.3618896" lon="7.8633646"><ele>533.0</ele><time>2026-04-18T16:04:31.583Z</time></trkpt><trkpt lat="44.3618525" lon="7.8631766"><ele>531.0</ele><time>2026-04-18T16:04:32.582Z</time></trkpt><trkpt lat="44.3618141" lon="7.8629977"><ele>529.0</ele><time>2026-04-18T16:04:33.582Z</time></trkpt><trkpt lat="44.3617854" lon="7.8628144"><ele>527.0</ele><time>2026-04-18T16:04:34.583Z</time></trkpt><trkpt lat="44.3617646" lon="7.862622"><ele>525.0</ele><time>2026-04-18T16:04:35.583Z</time></trkpt><trkpt lat="44.3617993" lon="7.8624312"><ele>522.25</ele><time>2026-04-18T16:04:36.584Z</time></trkpt><trkpt lat="44.3617893" lon="7.8622682"><ele>519.5</ele><time>2026-04-18T16:04:37.582Z</time></trkpt><trkpt lat="44.3617532" lon="7.862117"><ele>516.75</ele><time>2026-04-18T16:04:38.582Z</time></trkpt><trkpt lat="44.3617198" lon="7.8619722"><ele>514.0</ele><time>2026-04-18T16:04:39.582Z</time></trkpt><trkpt lat="44.361659" lon="7.8618292"><ele>514.0</ele><time>2026-04-18T16:04:40.582Z</time></trkpt><trkpt lat="44.3615163" lon="7.8618421"><ele>514.0</ele><time>2026-04-18T16:04:41.583Z</time></trkpt><trkpt lat="44.3614144" lon="7.8617608"><ele>514.0</ele><time>2026-04-18T16:04:42.582Z</time></trkpt><trkpt lat="44.3613464" lon="7.8616839"><ele>514.0</ele><time>2026-04-18T16:04:43.583Z</time></trkpt><trkpt lat="44.3612964" lon="7.8615898"><ele>514.0</ele><time>2026-04-18T16:04:44.583Z</time></trkpt><trkpt lat="44.3612898" lon="7.8614864"><ele>514.1666666666667</ele><time>2026-04-18T16:04:45.584Z</time></trkpt><trkpt lat="44.3613164" lon="7.8613936"><ele>514.3333333333334</ele><time>2026-04-18T16:04:46.582Z</time></trkpt><trkpt lat="44.3613758" lon="7.8613019"><ele>514.5</ele><time>2026-04-18T16:04:47.582Z</time></trkpt><trkpt lat="44.3614539" lon="7.8612532"><ele>514.6666666666666</ele><time>2026-04-18T16:04:48.583Z</time></trkpt><trkpt lat="44.3615417" lon="7.8612434"><ele>514.8333333333333</ele><time>2026-04-18T16:04:49.583Z</time></trkpt><trkpt lat="44.3616181" lon="7.8612293"><ele>515.0</ele><time>2026-04-18T16:04:50.584Z</time></trkpt><trkpt lat="44.3616842" lon="7.8611678"><ele>513.75</ele><time>2026-04-18T16:04:51.583Z</time></trkpt><trkpt lat="44.3617245" lon="7.8610808"><ele>512.5</ele><time>2026-04-18T16:04:52.583Z</time></trkpt><trkpt lat="44.3617641" lon="7.8609996"><ele>511.25</ele><time>2026-04-18T16:04:53.583Z</time></trkpt><trkpt lat="44.361647" lon="7.8607024"><ele>510.0</ele><time>2026-04-18T16:04:56.584Z</time></trkpt><trkpt lat="44.3615187" lon="7.8605248"><ele>510.0</ele><time>2026-04-18T16:04:57.584Z</time></trkpt><trkpt lat="44.3614466" lon="7.8603355"><ele>510.0</ele><time>2026-04-18T16:04:58.584Z</time></trkpt><trkpt lat="44.3613705" lon="7.860115"><ele>510.0</ele><time>2026-04-18T16:04:59.584Z</time></trkpt><trkpt lat="44.3612853" lon="7.8599118"><ele>508.66666666666663</ele><time>2026-04-18T16:05:00.584Z</time></trkpt><trkpt lat="44.3612076" lon="7.8596839"><ele>507.3333333333333</ele><time>2026-04-18T16:05:01.583Z</time></trkpt><trkpt lat="44.3611295" lon="7.8594489"><ele>506.0</ele><time>2026-04-18T16:05:02.583Z</time></trkpt><trkpt lat="44.361056" lon="7.8591992"><ele>506.0</ele><time>2026-04-18T16:05:03.583Z</time></trkpt><trkpt lat="44.3609813" lon="7.8589664"><ele>506.0</ele><time>2026-04-18T16:05:04.584Z</time></trkpt><trkpt lat="44.3609059" lon="7.8587215"><ele>506.0</ele><time>2026-04-18T16:05:05.584Z</time></trkpt><trkpt lat="44.3608363" lon="7.8584902"><ele>506.0</ele><time>2026-04-18T16:05:06.583Z</time></trkpt><trkpt lat="44.3607696" lon="7.8582663"><ele>506.0</ele><time>2026-04-18T16:05:07.583Z</time></trkpt><trkpt lat="44.3607091" lon="7.8580579"><ele>506.0</ele><time>2026-04-18T16:05:08.584Z</time></trkpt><trkpt lat="44.3606453" lon="7.8578459"><ele>506.0</ele><time>2026-04-18T16:05:09.583Z</time></trkpt><trkpt lat="44.3605859" lon="7.8576399"><ele>506.0</ele><time>2026-04-18T16:05:10.583Z</time></trkpt><trkpt lat="44.3605206" lon="7.8574393"><ele>506.0</ele><time>2026-04-18T16:05:11.584Z</time></trkpt><trkpt lat="44.3604585" lon="7.8572328"><ele>505.3333333333333</ele><time>2026-04-18T16:05:12.583Z</time></trkpt><trkpt lat="44.3603973" lon="7.8570295"><ele>504.66666666666663</ele><time>2026-04-18T16:05:13.584Z</time></trkpt><trkpt lat="44.3603398" lon="7.8568238"><ele>504.0</ele><time>2026-04-18T16:05:14.584Z</time></trkpt><trkpt lat="44.3602892" lon="7.8566378"><ele>503.75</ele><time>2026-04-18T16:05:15.583Z</time></trkpt><trkpt lat="44.3602363" lon="7.8564551"><ele>503.5</ele><time>2026-04-18T16:05:16.583Z</time></trkpt><trkpt lat="44.3601841" lon="7.8562771"><ele>503.25</ele><time>2026-04-18T16:05:17.583Z</time></trkpt><trkpt lat="44.360133" lon="7.8561053"><ele>503.0</ele><time>2026-04-18T16:05:18.583Z</time></trkpt><trkpt lat="44.3600904" lon="7.8559455"><ele>502.5</ele><time>2026-04-18T16:05:19.584Z</time></trkpt><trkpt lat="44.3600455" lon="7.8557842"><ele>502.0</ele><time>2026-04-18T16:05:20.583Z</time></trkpt><trkpt lat="44.360005" lon="7.855629"><ele>501.5</ele><time>2026-04-18T16:05:21.584Z</time></trkpt><trkpt lat="44.3599582" lon="7.8554693"><ele>501.0</ele><time>2026-04-18T16:05:22.584Z</time></trkpt><trkpt lat="44.3599123" lon="7.8553088"><ele>501.0</ele><time>2026-04-18T16:05:23.583Z</time></trkpt><trkpt lat="44.3598615" lon="7.8551465"><ele>501.0</ele><time>2026-04-18T16:05:24.583Z</time></trkpt><trkpt lat="44.3598111" lon="7.8549782"><ele>501.0</ele><time>2026-04-18T16:05:25.584Z</time></trkpt><trkpt lat="44.3597625" lon="7.8548036"><ele>501.0</ele><time>2026-04-18T16:05:26.583Z</time></trkpt><trkpt lat="44.3597143" lon="7.8546316"><ele>500.75</ele><time>2026-04-18T16:05:27.583Z</time></trkpt><trkpt lat="44.3596655" lon="7.8544556"><ele>500.5</ele><time>2026-04-18T16:05:28.583Z</time></trkpt><trkpt lat="44.3596099" lon="7.8542797"><ele>500.25</ele><time>2026-04-18T16:05:29.583Z</time></trkpt><trkpt lat="44.3595606" lon="7.8541016"><ele>500.0</ele><time>2026-04-18T16:05:30.584Z</time></trkpt><trkpt lat="44.3595096" lon="7.8539221"><ele>499.75</ele><time>2026-04-18T16:05:31.585Z</time></trkpt><trkpt lat="44.3594579" lon="7.8537395"><ele>499.5</ele><time>2026-04-18T16:05:32.584Z</time></trkpt><trkpt lat="44.3594064" lon="7.8535578"><ele>499.25</ele><time>2026-04-18T16:05:33.584Z</time></trkpt><trkpt lat="44.3593519" lon="7.8533834"><ele>499.0</ele><time>2026-04-18T16:05:34.583Z</time></trkpt><trkpt lat="44.3593027" lon="7.8532028"><ele>498.75</ele><time>2026-04-18T16:05:35.583Z</time></trkpt><trkpt lat="44.3592509" lon="7.8530157"><ele>498.5</ele><time>2026-04-18T16:05:36.583Z</time></trkpt><trkpt lat="44.3591969" lon="7.852824"><ele>498.25</ele><time>2026-04-18T16:05:37.584Z</time></trkpt><trkpt lat="44.3591385" lon="7.8526206"><ele>498.0</ele><time>2026-04-18T16:05:38.584Z</time></trkpt><trkpt lat="44.3590776" lon="7.8524132"><ele>499.0</ele><time>2026-04-18T16:05:39.585Z</time></trkpt><trkpt lat="44.3590146" lon="7.8521999"><ele>500.0</ele><time>2026-04-18T16:05:40.583Z</time></trkpt><trkpt lat="44.3589533" lon="7.8519848"><ele>501.0</ele><time>2026-04-18T16:05:41.585Z</time></trkpt><trkpt lat="44.3588887" lon="7.8517608"><ele>498.66666666666663</ele><time>2026-04-18T16:05:42.584Z</time></trkpt><trkpt lat="44.3588228" lon="7.8515413"><ele>496.3333333333333</ele><time>2026-04-18T16:05:43.583Z</time></trkpt><trkpt lat="44.3587599" lon="7.8513231"><ele>494.0</ele><time>2026-04-18T16:05:44.583Z</time></trkpt><trkpt lat="44.3586954" lon="7.8511093"><ele>494.0</ele><time>2026-04-18T16:05:45.584Z</time></trkpt><trkpt lat="44.3586299" lon="7.850888"><ele>494.0</ele><time>2026-04-18T16:05:46.584Z</time></trkpt><trkpt lat="44.3585637" lon="7.8506615"><ele>494.0</ele><time>2026-04-18T16:05:47.584Z</time></trkpt><trkpt lat="44.3584973" lon="7.8504243"><ele>494.0</ele><time>2026-04-18T16:05:48.583Z</time></trkpt><trkpt lat="44.3584236" lon="7.8501771"><ele>494.0</ele><time>2026-04-18T16:05:49.584Z</time></trkpt><trkpt lat="44.3583508" lon="7.8499276"><ele>494.0</ele><time>2026-04-18T16:05:50.585Z</time></trkpt><trkpt lat="44.3582734" lon="7.8496649"><ele>494.0</ele><time>2026-04-18T16:05:51.584Z</time></trkpt><trkpt lat="44.3581967" lon="7.849398"><ele>494.0</ele><time>2026-04-18T16:05:52.583Z</time></trkpt><trkpt lat="44.3581129" lon="7.8491236"><ele>494.0</ele><time>2026-04-18T16:05:53.583Z</time></trkpt><trkpt lat="44.3580295" lon="7.8488448"><ele>494.0</ele><time>2026-04-18T16:05:54.585Z</time></trkpt><trkpt lat="44.3579433" lon="7.8485623"><ele>494.0</ele><time>2026-04-18T16:05:55.584Z</time></trkpt><trkpt lat="44.3578588" lon="7.8482844"><ele>494.0</ele><time>2026-04-18T16:05:56.583Z</time></trkpt><trkpt lat="44.3577873" lon="7.8479971"><ele>492.66666666666663</ele><time>2026-04-18T16:05:57.584Z</time></trkpt><trkpt lat="44.3577115" lon="7.8477166"><ele>491.33333333333337</ele><time>2026-04-18T16:05:58.583Z</time></trkpt><trkpt lat="44.3576391" lon="7.8474583"><ele>490.0</ele><time>2026-04-18T16:05:59.583Z</time></trkpt><trkpt lat="44.3575696" lon="7.8472111"><ele>490.0</ele><time>2026-04-18T16:06:00.584Z</time></trkpt><trkpt lat="44.3575016" lon="7.8469786"><ele>490.0</ele><time>2026-04-18T16:06:01.583Z</time></trkpt><trkpt lat="44.3574368" lon="7.8467444"><ele>490.0</ele><time>2026-04-18T16:06:02.584Z</time></trkpt><trkpt lat="44.3573671" lon="7.8465196"><ele>490.33333333333337</ele><time>2026-04-18T16:06:03.585Z</time></trkpt><trkpt lat="44.3573025" lon="7.8462932"><ele>490.66666666666663</ele><time>2026-04-18T16:06:04.584Z</time></trkpt><trkpt lat="44.3572346" lon="7.8460716"><ele>491.0</ele><time>2026-04-18T16:06:05.584Z</time></trkpt><trkpt lat="44.3571705" lon="7.8458482"><ele>489.66666666666663</ele><time>2026-04-18T16:06:06.583Z</time></trkpt><trkpt lat="44.3571064" lon="7.8456199"><ele>488.33333333333337</ele><time>2026-04-18T16:06:07.584Z</time></trkpt><trkpt lat="44.3570472" lon="7.8454074"><ele>487.0</ele><time>2026-04-18T16:06:08.584Z</time></trkpt><trkpt lat="44.356988" lon="7.8452083"><ele>487.6666666666667</ele><time>2026-04-18T16:06:09.583Z</time></trkpt><trkpt lat="44.3569312" lon="7.8450172"><ele>488.33333333333337</ele><time>2026-04-18T16:06:10.585Z</time></trkpt><trkpt lat="44.3568785" lon="7.8448179"><ele>489.0</ele><time>2026-04-18T16:06:11.584Z</time></trkpt><trkpt lat="44.3568206" lon="7.8446086"><ele>489.0</ele><time>2026-04-18T16:06:12.585Z</time></trkpt><trkpt lat="44.3567541" lon="7.8443924"><ele>489.0</ele><time>2026-04-18T16:06:13.585Z</time></trkpt><trkpt lat="44.3566859" lon="7.8441655"><ele>489.0</ele><time>2026-04-18T16:06:14.585Z</time></trkpt><trkpt lat="44.3566093" lon="7.8439254"><ele>489.66666666666663</ele><time>2026-04-18T16:06:15.584Z</time></trkpt><trkpt lat="44.3565378" lon="7.8436794"><ele>490.3333333333333</ele><time>2026-04-18T16:06:16.584Z</time></trkpt><trkpt lat="44.3564663" lon="7.8434095"><ele>491.0</ele><time>2026-04-18T16:06:17.584Z</time></trkpt><trkpt lat="44.3564071" lon="7.8431298"><ele>488.66666666666663</ele><time>2026-04-18T16:06:18.584Z</time></trkpt><trkpt lat="44.3563659" lon="7.8428438"><ele>486.33333333333337</ele><time>2026-04-18T16:06:19.585Z</time></trkpt><trkpt lat="44.3563484" lon="7.8425467"><ele>484.0</ele><time>2026-04-18T16:06:20.583Z</time></trkpt><trkpt lat="44.3563652" lon="7.8422491"><ele>485.0</ele><time>2026-04-18T16:06:21.584Z</time></trkpt><trkpt lat="44.3564078" lon="7.8419602"><ele>486.0</ele><time>2026-04-18T16:06:22.584Z</time></trkpt><trkpt lat="44.356479" lon="7.8416767"><ele>487.0</ele><time>2026-04-18T16:06:23.583Z</time></trkpt><trkpt lat="44.3565659" lon="7.8413914"><ele>487.0</ele><time>2026-04-18T16:06:24.583Z</time></trkpt><trkpt lat="44.3566565" lon="7.8410998"><ele>487.0</ele><time>2026-04-18T16:06:25.584Z</time></trkpt><trkpt lat="44.356753" lon="7.8408078"><ele>483.5</ele><time>2026-04-18T16:06:26.583Z</time></trkpt><trkpt lat="44.3568487" lon="7.8405091"><ele>480.0</ele><time>2026-04-18T16:06:27.583Z</time></trkpt><trkpt lat="44.3569465" lon="7.8402054"><ele>478.5</ele><time>2026-04-18T16:06:28.584Z</time></trkpt><trkpt lat="44.3570483" lon="7.8398935"><ele>477.0</ele><time>2026-04-18T16:06:29.583Z</time></trkpt><trkpt lat="44.3571592" lon="7.8395804"><ele>478.0</ele><time>2026-04-18T16:06:30.584Z</time></trkpt><trkpt lat="44.3572637" lon="7.8392587"><ele>479.0</ele><time>2026-04-18T16:06:31.583Z</time></trkpt><trkpt lat="44.3573647" lon="7.8389379"><ele>479.0</ele><time>2026-04-18T16:06:32.584Z</time></trkpt><trkpt lat="44.3574713" lon="7.8386302"><ele>479.0</ele><time>2026-04-18T16:06:33.584Z</time></trkpt><trkpt lat="44.3575772" lon="7.8383227"><ele>478.0</ele><time>2026-04-18T16:06:34.583Z</time></trkpt><trkpt lat="44.3576796" lon="7.8380139"><ele>477.0</ele><time>2026-04-18T16:06:35.584Z</time></trkpt><trkpt lat="44.357776" lon="7.8377061"><ele>474.5</ele><time>2026-04-18T16:06:36.583Z</time></trkpt><trkpt lat="44.357874" lon="7.8374097"><ele>472.0</ele><time>2026-04-18T16:06:37.585Z</time></trkpt><trkpt lat="44.3579717" lon="7.8371126"><ele>472.0</ele><time>2026-04-18T16:06:38.584Z</time></trkpt><trkpt lat="44.3580676" lon="7.8368199"><ele>472.0</ele><time>2026-04-18T16:06:39.583Z</time></trkpt><trkpt lat="44.3581635" lon="7.8365291"><ele>471.33333333333337</ele><time>2026-04-18T16:06:40.583Z</time></trkpt><trkpt lat="44.3582558" lon="7.8362451"><ele>470.66666666666663</ele><time>2026-04-18T16:06:41.584Z</time></trkpt><trkpt lat="44.3583471" lon="7.8359719"><ele>470.0</ele><time>2026-04-18T16:06:42.583Z</time></trkpt><trkpt lat="44.3584331" lon="7.8357152"><ele>470.0</ele><time>2026-04-18T16:06:43.584Z</time></trkpt><trkpt lat="44.3585204" lon="7.8354766"><ele>470.0</ele><time>2026-04-18T16:06:44.584Z</time></trkpt><trkpt lat="44.3586168" lon="7.835258"><ele>470.0</ele><time>2026-04-18T16:06:45.583Z</time></trkpt><trkpt lat="44.3587334" lon="7.8350813"><ele>471.3333333333333</ele><time>2026-04-18T16:06:46.584Z</time></trkpt><trkpt lat="44.3588532" lon="7.8349243"><ele>472.66666666666663</ele><time>2026-04-18T16:06:47.584Z</time></trkpt><trkpt lat="44.3590295" lon="7.8348639"><ele>474.0</ele><time>2026-04-18T16:06:48.584Z</time></trkpt><trkpt lat="44.3591821" lon="7.8347956"><ele>474.0</ele><time>2026-04-18T16:06:49.585Z</time></trkpt><trkpt lat="44.3593236" lon="7.8347306"><ele>474.0</ele><time>2026-04-18T16:06:50.584Z</time></trkpt><trkpt lat="44.3594614" lon="7.834665"><ele>474.0</ele><time>2026-04-18T16:06:51.583Z</time></trkpt><trkpt lat="44.3595962" lon="7.8346154"><ele>474.0</ele><time>2026-04-18T16:06:52.583Z</time></trkpt><trkpt lat="44.359716" lon="7.8345638"><ele>474.2</ele><time>2026-04-18T16:06:53.583Z</time></trkpt><trkpt lat="44.3598291" lon="7.8345073"><ele>474.4</ele><time>2026-04-18T16:06:54.584Z</time></trkpt><trkpt lat="44.3599242" lon="7.8344527"><ele>474.6</ele><time>2026-04-18T16:06:55.584Z</time></trkpt><trkpt lat="44.3600106" lon="7.8344022"><ele>474.8</ele><time>2026-04-18T16:06:56.583Z</time></trkpt><trkpt lat="44.3600186" lon="7.8343016"><ele>475.0</ele><time>2026-04-18T16:06:57.583Z</time></trkpt><trkpt lat="44.360044" lon="7.8342163"><ele>475.0</ele><time>2026-04-18T16:06:58.583Z</time></trkpt><trkpt lat="44.3599628" lon="7.8341397"><ele>475.0</ele><time>2026-04-18T16:06:59.583Z</time></trkpt><trkpt lat="44.3597939" lon="7.8339276"><ele>475.0</ele><time>2026-04-18T16:07:01.583Z</time></trkpt><trkpt lat="44.3597029" lon="7.8337815"><ele>476.0</ele><time>2026-04-18T16:07:02.584Z</time></trkpt><trkpt lat="44.3596088" lon="7.8336258"><ele>477.0</ele><time>2026-04-18T16:07:03.583Z</time></trkpt><trkpt lat="44.3595081" lon="7.8334496"><ele>478.0</ele><time>2026-04-18T16:07:04.584Z</time></trkpt><trkpt lat="44.3594032" lon="7.8332587"><ele>478.6666666666667</ele><time>2026-04-18T16:07:05.583Z</time></trkpt><trkpt lat="44.3592957" lon="7.8330557"><ele>479.33333333333337</ele><time>2026-04-18T16:07:06.583Z</time></trkpt><trkpt lat="44.3591694" lon="7.8328302"><ele>480.0</ele><time>2026-04-18T16:07:07.583Z</time></trkpt><trkpt lat="44.3590504" lon="7.8325966"><ele>481.33333333333337</ele><time>2026-04-18T16:07:08.583Z</time></trkpt><trkpt lat="44.3589273" lon="7.8323667"><ele>482.6666666666667</ele><time>2026-04-18T16:07:09.583Z</time></trkpt><trkpt lat="44.3587962" lon="7.8321262"><ele>484.0</ele><time>2026-04-18T16:07:10.583Z</time></trkpt><trkpt lat="44.3586571" lon="7.8318828"><ele>485.33333333333337</ele><time>2026-04-18T16:07:11.583Z</time></trkpt><trkpt lat="44.3585058" lon="7.8316456"><ele>486.66666666666663</ele><time>2026-04-18T16:07:12.583Z</time></trkpt><trkpt lat="44.3583642" lon="7.8314283"><ele>488.0</ele><time>2026-04-18T16:07:13.583Z</time></trkpt><trkpt lat="44.3582307" lon="7.8312228"><ele>488.0</ele><time>2026-04-18T16:07:14.584Z</time></trkpt><trkpt lat="44.3580945" lon="7.8310156"><ele>488.0</ele><time>2026-04-18T16:07:15.583Z</time></trkpt><trkpt lat="44.3579701" lon="7.830802"><ele>488.0</ele><time>2026-04-18T16:07:16.583Z</time></trkpt><trkpt lat="44.3578577" lon="7.8305721"><ele>489.66666666666663</ele><time>2026-04-18T16:07:17.584Z</time></trkpt><trkpt lat="44.3577627" lon="7.830323"><ele>491.33333333333337</ele><time>2026-04-18T16:07:18.585Z</time></trkpt><trkpt lat="44.3576877" lon="7.8300664"><ele>493.0</ele><time>2026-04-18T16:07:19.584Z</time></trkpt><trkpt lat="44.3576267" lon="7.8297991"><ele>494.6666666666667</ele><time>2026-04-18T16:07:20.584Z</time></trkpt><trkpt lat="44.3575782" lon="7.8295258"><ele>496.33333333333337</ele><time>2026-04-18T16:07:21.584Z</time></trkpt><trkpt lat="44.3575369" lon="7.8292409"><ele>498.0</ele><time>2026-04-18T16:07:22.585Z</time></trkpt><trkpt lat="44.3575085" lon="7.8289586"><ele>500.66666666666663</ele><time>2026-04-18T16:07:23.584Z</time></trkpt><trkpt lat="44.357491" lon="7.8286632"><ele>503.3333333333333</ele><time>2026-04-18T16:07:24.584Z</time></trkpt><trkpt lat="44.3574872" lon="7.8283711"><ele>506.0</ele><time>2026-04-18T16:07:25.583Z</time></trkpt><trkpt lat="44.3574981" lon="7.8280814"><ele>508.0</ele><time>2026-04-18T16:07:26.584Z</time></trkpt><trkpt lat="44.3575178" lon="7.8278006"><ele>510.0</ele><time>2026-04-18T16:07:27.585Z</time></trkpt><trkpt lat="44.3575443" lon="7.8275596"><ele>512.0</ele><time>2026-04-18T16:07:28.584Z</time></trkpt><trkpt lat="44.357566" lon="7.8273248"><ele>513.25</ele><time>2026-04-18T16:07:29.584Z</time></trkpt><trkpt lat="44.357585" lon="7.827115"><ele>514.5</ele><time>2026-04-18T16:07:30.583Z</time></trkpt><trkpt lat="44.3575787" lon="7.8269119"><ele>515.75</ele><time>2026-04-18T16:07:31.583Z</time></trkpt><trkpt lat="44.357538" lon="7.8267336"><ele>517.0</ele><time>2026-04-18T16:07:32.584Z</time></trkpt><trkpt lat="44.3574049" lon="7.8267231"><ele>519.0</ele><time>2026-04-18T16:07:33.585Z</time></trkpt><trkpt lat="44.3572907" lon="7.8266863"><ele>521.0</ele><time>2026-04-18T16:07:34.583Z</time></trkpt><trkpt lat="44.3571718" lon="7.8268522"><ele>523.0</ele><time>2026-04-18T16:07:35.584Z</time></trkpt><trkpt lat="44.35705" lon="7.8269693"><ele>525.0</ele><time>2026-04-18T16:07:36.585Z</time></trkpt><trkpt lat="44.3568874" lon="7.8271902"><ele>525.0</ele><time>2026-04-18T16:07:37.584Z</time></trkpt><trkpt lat="44.3567418" lon="7.8273554"><ele>525.0</ele><time>2026-04-18T16:07:38.583Z</time></trkpt><trkpt lat="44.3566098" lon="7.8275253"><ele>525.0</ele><time>2026-04-18T16:07:39.584Z</time></trkpt><trkpt lat="44.3564996" lon="7.8276722"><ele>525.6666666666666</ele><time>2026-04-18T16:07:40.583Z</time></trkpt><trkpt lat="44.3563982" lon="7.8278585"><ele>526.3333333333333</ele><time>2026-04-18T16:07:41.585Z</time></trkpt><trkpt lat="44.3563308" lon="7.8280422"><ele>527.0</ele><time>2026-04-18T16:07:42.584Z</time></trkpt><trkpt lat="44.3563176" lon="7.8282375"><ele>527.0</ele><time>2026-04-18T16:07:43.583Z</time></trkpt><trkpt lat="44.3563126" lon="7.8283299"><ele>527.0</ele><time>2026-04-18T16:07:44.583Z</time></trkpt><trkpt lat="44.3562391" lon="7.8284169"><ele>527.0</ele><time>2026-04-18T16:07:45.583Z</time></trkpt><trkpt lat="44.356095" lon="7.828342"><ele>527.0</ele><time>2026-04-18T16:07:47.583Z</time></trkpt><trkpt lat="44.3560466" lon="7.8282202"><ele>527.0</ele><time>2026-04-18T16:07:48.584Z</time></trkpt><trkpt lat="44.3559846" lon="7.8280786"><ele>527.0</ele><time>2026-04-18T16:07:49.583Z</time></trkpt><trkpt lat="44.3559313" lon="7.8279127"><ele>527.0</ele><time>2026-04-18T16:07:50.583Z</time></trkpt><trkpt lat="44.3558764" lon="7.8277391"><ele>527.0</ele><time>2026-04-18T16:07:51.583Z</time></trkpt><trkpt lat="44.3558113" lon="7.8275386"><ele>527.0</ele><time>2026-04-18T16:07:52.583Z</time></trkpt><trkpt lat="44.3557391" lon="7.8273377"><ele>528.3333333333333</ele><time>2026-04-18T16:07:53.584Z</time></trkpt><trkpt lat="44.3556725" lon="7.8271451"><ele>529.6666666666666</ele><time>2026-04-18T16:07:54.585Z</time></trkpt><trkpt lat="44.3555983" lon="7.8269421"><ele>531.0</ele><time>2026-04-18T16:07:55.584Z</time></trkpt><trkpt lat="44.355531" lon="7.8267424"><ele>531.0</ele><time>2026-04-18T16:07:56.584Z</time></trkpt><trkpt lat="44.3554455" lon="7.8265124"><ele>531.0</ele><time>2026-04-18T16:07:57.583Z</time></trkpt><trkpt lat="44.3553795" lon="7.8262879"><ele>531.0</ele><time>2026-04-18T16:07:58.583Z</time></trkpt><trkpt lat="44.3553365" lon="7.8260661"><ele>532.75</ele><time>2026-04-18T16:07:59.583Z</time></trkpt><trkpt lat="44.3553188" lon="7.8258407"><ele>534.5</ele><time>2026-04-18T16:08:00.584Z</time></trkpt><trkpt lat="44.3553142" lon="7.8256296"><ele>536.25</ele><time>2026-04-18T16:08:01.585Z</time></trkpt><trkpt lat="44.3553068" lon="7.8254499"><ele>538.0</ele><time>2026-04-18T16:08:02.584Z</time></trkpt><trkpt lat="44.3552986" lon="7.8252749"><ele>539.6</ele><time>2026-04-18T16:08:03.584Z</time></trkpt><trkpt lat="44.3553001" lon="7.8251281"><ele>541.1999999999999</ele><time>2026-04-18T16:08:04.585Z</time></trkpt><trkpt lat="44.3553027" lon="7.824998"><ele>542.8</ele><time>2026-04-18T16:08:05.583Z</time></trkpt><trkpt lat="44.3553075" lon="7.8248694"><ele>544.4</ele><time>2026-04-18T16:08:06.584Z</time></trkpt><trkpt lat="44.3552958" lon="7.8247396"><ele>546.0</ele><time>2026-04-18T16:08:07.583Z</time></trkpt><trkpt lat="44.3552799" lon="7.824612"><ele>546.0</ele><time>2026-04-18T16:08:08.584Z</time></trkpt><trkpt lat="44.3551678" lon="7.8245084"><ele>546.0</ele><time>2026-04-18T16:08:09.584Z</time></trkpt><trkpt lat="44.3550885" lon="7.8244131"><ele>546.0</ele><time>2026-04-18T16:08:10.583Z</time></trkpt><trkpt lat="44.3549689" lon="7.824392"><ele>546.0</ele><time>2026-04-18T16:08:11.583Z</time></trkpt><trkpt lat="44.3548881" lon="7.8243345"><ele>547.8</ele><time>2026-04-18T16:08:12.583Z</time></trkpt><trkpt lat="44.3548257" lon="7.824219"><ele>549.6</ele><time>2026-04-18T16:08:14.583Z</time></trkpt><trkpt lat="44.3547874" lon="7.8241384"><ele>551.4</ele><time>2026-04-18T16:08:15.584Z</time></trkpt><trkpt lat="44.3548943" lon="7.824124"><ele>553.2</ele><time>2026-04-18T16:08:17.583Z</time></trkpt><trkpt lat="44.3550345" lon="7.8241454"><ele>555.0</ele><time>2026-04-18T16:08:19.584Z</time></trkpt><trkpt lat="44.3551216" lon="7.8241584"><ele>555.0</ele><time>2026-04-18T16:08:20.583Z</time></trkpt><trkpt lat="44.3552093" lon="7.8241813"><ele>555.0</ele><time>2026-04-18T16:08:21.584Z</time></trkpt><trkpt lat="44.3552836" lon="7.8242042"><ele>555.0</ele><time>2026-04-18T16:08:22.583Z</time></trkpt><trkpt lat="44.3553602" lon="7.8242448"><ele>555.0</ele><time>2026-04-18T16:08:24.583Z</time></trkpt><trkpt lat="44.3552982" lon="7.8241955"><ele>555.0</ele><time>2026-04-18T16:08:29.584Z</time></trkpt><trkpt lat="44.3552372" lon="7.8241612"><ele>555.0</ele><time>2026-04-18T16:08:30.584Z</time></trkpt><trkpt lat="44.355161" lon="7.8241504"><ele>555.0</ele><time>2026-04-18T16:08:31.583Z</time></trkpt><trkpt lat="44.3550898" lon="7.8241431"><ele>555.0</ele><time>2026-04-18T16:08:32.584Z</time></trkpt><trkpt lat="44.3549655" lon="7.8241273"><ele>555.0</ele><time>2026-04-18T16:08:34.583Z</time></trkpt><trkpt lat="44.3548836" lon="7.8241134"><ele>555.0</ele><time>2026-04-18T16:08:36.584Z</time></trkpt><trkpt lat="44.3548396" lon="7.8240305"><ele>555.0</ele><time>2026-04-18T16:08:40.584Z</time></trkpt><trkpt lat="44.3548754" lon="7.8239109"><ele>555.0</ele><time>2026-04-18T16:08:42.585Z</time></trkpt><trkpt lat="44.3549368" lon="7.8237865"><ele>555.0</ele><time>2026-04-18T16:08:44.584Z</time></trkpt><trkpt lat="44.3549826" lon="7.8237098"><ele>555.0</ele><time>2026-04-18T16:08:45.583Z</time></trkpt><trkpt lat="44.3550222" lon="7.8236263"><ele>555.0</ele><time>2026-04-18T16:08:46.583Z</time></trkpt><trkpt lat="44.3550611" lon="7.8235238"><ele>555.0</ele><time>2026-04-18T16:08:47.583Z</time></trkpt><trkpt lat="44.3550918" lon="7.823414"><ele>555.0</ele><time>2026-04-18T16:08:48.583Z</time></trkpt><trkpt lat="44.3551318" lon="7.8233007"><ele>555.0</ele><time>2026-04-18T16:08:49.584Z</time></trkpt><trkpt lat="44.3551745" lon="7.8231835"><ele>554.5</ele><time>2026-04-18T16:08:50.583Z</time></trkpt><trkpt lat="44.3552121" lon="7.8230567"><ele>554.0</ele><time>2026-04-18T16:08:51.583Z</time></trkpt><trkpt lat="44.3552213" lon="7.8228922"><ele>553.5</ele><time>2026-04-18T16:08:52.584Z</time></trkpt><trkpt lat="44.3551391" lon="7.8226628"><ele>553.0</ele><time>2026-04-18T16:08:53.584Z</time></trkpt><trkpt lat="44.3550973" lon="7.8224667"><ele>552.0</ele><time>2026-04-18T16:08:54.583Z</time></trkpt><trkpt lat="44.3550449" lon="7.8222844"><ele>551.0</ele><time>2026-04-18T16:08:55.585Z</time></trkpt><trkpt lat="44.3549865" lon="7.8221104"><ele>550.0</ele><time>2026-04-18T16:08:56.584Z</time></trkpt><trkpt lat="44.3549226" lon="7.8219433"><ele>549.0</ele><time>2026-04-18T16:08:57.584Z</time></trkpt><trkpt lat="44.3548531" lon="7.8217862"><ele>549.0</ele><time>2026-04-18T16:08:58.583Z</time></trkpt><trkpt lat="44.3547923" lon="7.8216399"><ele>549.0</ele><time>2026-04-18T16:08:59.583Z</time></trkpt><trkpt lat="44.3547341" lon="7.8215011"><ele>549.0</ele><time>2026-04-18T16:09:00.584Z</time></trkpt><trkpt lat="44.3546886" lon="7.82136"><ele>549.0</ele><time>2026-04-18T16:09:01.584Z</time></trkpt><trkpt lat="44.3546534" lon="7.821221"><ele>547.8</ele><time>2026-04-18T16:09:02.583Z</time></trkpt><trkpt lat="44.3546365" lon="7.8210793"><ele>546.5999999999999</ele><time>2026-04-18T16:09:03.583Z</time></trkpt><trkpt lat="44.354643" lon="7.8209362"><ele>545.4</ele><time>2026-04-18T16:09:04.584Z</time></trkpt><trkpt lat="44.3546392" lon="7.8208125"><ele>544.1999999999999</ele><time>2026-04-18T16:09:05.584Z</time></trkpt><trkpt lat="44.3546323" lon="7.8206939"><ele>543.0</ele><time>2026-04-18T16:09:07.583Z</time></trkpt><trkpt lat="44.3546247" lon="7.8205556"><ele>543.0</ele><time>2026-04-18T16:09:09.584Z</time></trkpt><trkpt lat="44.3546042" lon="7.820442"><ele>543.0</ele><time>2026-04-18T16:09:10.584Z</time></trkpt><trkpt lat="44.3545661" lon="7.820283"><ele>543.0</ele><time>2026-04-18T16:09:11.585Z</time></trkpt><trkpt lat="44.354578" lon="7.8200641"><ele>543.0</ele><time>2026-04-18T16:09:12.585Z</time></trkpt><trkpt lat="44.3545938" lon="7.8198856"><ele>542.5</ele><time>2026-04-18T16:09:13.583Z</time></trkpt><trkpt lat="44.3546076" lon="7.8197156"><ele>542.0</ele><time>2026-04-18T16:09:14.583Z</time></trkpt><trkpt lat="44.3546064" lon="7.8195437"><ele>541.5</ele><time>2026-04-18T16:09:15.584Z</time></trkpt><trkpt lat="44.3545717" lon="7.8193615"><ele>541.0</ele><time>2026-04-18T16:09:16.583Z</time></trkpt><trkpt lat="44.3545407" lon="7.8191857"><ele>538.5</ele><time>2026-04-18T16:09:17.585Z</time></trkpt><trkpt lat="44.354448" lon="7.8190287"><ele>536.0</ele><time>2026-04-18T16:09:18.584Z</time></trkpt><trkpt lat="44.3543747" lon="7.8188692"><ele>533.5</ele><time>2026-04-18T16:09:19.583Z</time></trkpt><trkpt lat="44.3543003" lon="7.8187051"><ele>531.0</ele><time>2026-04-18T16:09:20.583Z</time></trkpt><trkpt lat="44.3542323" lon="7.8185403"><ele>530.75</ele><time>2026-04-18T16:09:21.584Z</time></trkpt><trkpt lat="44.3541793" lon="7.8183699"><ele>530.5</ele><time>2026-04-18T16:09:22.585Z</time></trkpt><trkpt lat="44.3541499" lon="7.8181786"><ele>530.25</ele><time>2026-04-18T16:09:23.583Z</time></trkpt><trkpt lat="44.3541175" lon="7.817995"><ele>530.0</ele><time>2026-04-18T16:09:24.584Z</time></trkpt><trkpt lat="44.3540667" lon="7.8178107"><ele>530.5</ele><time>2026-04-18T16:09:25.583Z</time></trkpt><trkpt lat="44.3540041" lon="7.8176343"><ele>531.0</ele><time>2026-04-18T16:09:26.583Z</time></trkpt><trkpt lat="44.3539458" lon="7.8174581"><ele>531.5</ele><time>2026-04-18T16:09:27.583Z</time></trkpt><trkpt lat="44.3539005" lon="7.8172724"><ele>532.0</ele><time>2026-04-18T16:09:28.584Z</time></trkpt><trkpt lat="44.3538621" lon="7.817091"><ele>526.0</ele><time>2026-04-18T16:09:29.583Z</time></trkpt><trkpt lat="44.3538275" lon="7.8168994"><ele>520.0</ele><time>2026-04-18T16:09:30.584Z</time></trkpt><trkpt lat="44.3537953" lon="7.8166933"><ele>514.0</ele><time>2026-04-18T16:09:31.583Z</time></trkpt><trkpt lat="44.3537631" lon="7.816489"><ele>508.0</ele><time>2026-04-18T16:09:32.583Z</time></trkpt><trkpt lat="44.3537339" lon="7.8162978"><ele>508.0</ele><time>2026-04-18T16:09:33.583Z</time></trkpt><trkpt lat="44.3537046" lon="7.8161057"><ele>508.0</ele><time>2026-04-18T16:09:34.584Z</time></trkpt><trkpt lat="44.353684" lon="7.8159058"><ele>508.0</ele><time>2026-04-18T16:09:35.583Z</time></trkpt><trkpt lat="44.353688" lon="7.8157042"><ele>508.0</ele><time>2026-04-18T16:09:36.584Z</time></trkpt><trkpt lat="44.3537051" lon="7.8154968"><ele>507.5</ele><time>2026-04-18T16:09:37.583Z</time></trkpt><trkpt lat="44.3537179" lon="7.8152927"><ele>507.0</ele><time>2026-04-18T16:09:38.584Z</time></trkpt><trkpt lat="44.3537283" lon="7.815091"><ele>506.5</ele><time>2026-04-18T16:09:39.584Z</time></trkpt><trkpt lat="44.353737" lon="7.8149041"><ele>506.0</ele><time>2026-04-18T16:09:40.583Z</time></trkpt><trkpt lat="44.3537613" lon="7.8147143"><ele>505.0</ele><time>2026-04-18T16:09:41.584Z</time></trkpt><trkpt lat="44.3537994" lon="7.8145244"><ele>504.0</ele><time>2026-04-18T16:09:42.584Z</time></trkpt><trkpt lat="44.3538417" lon="7.8143366"><ele>503.0</ele><time>2026-04-18T16:09:43.583Z</time></trkpt><trkpt lat="44.3538683" lon="7.8141556"><ele>502.0</ele><time>2026-04-18T16:09:44.584Z</time></trkpt><trkpt lat="44.3538978" lon="7.8139837"><ele>504.75</ele><time>2026-04-18T16:09:45.583Z</time></trkpt><trkpt lat="44.3539256" lon="7.8138103"><ele>507.5</ele><time>2026-04-18T16:09:46.583Z</time></trkpt><trkpt lat="44.3539691" lon="7.81363"><ele>510.25</ele><time>2026-04-18T16:09:47.584Z</time></trkpt><trkpt lat="44.3540189" lon="7.813453"><ele>513.0</ele><time>2026-04-18T16:09:48.584Z</time></trkpt><trkpt lat="44.3540869" lon="7.8132767"><ele>513.0</ele><time>2026-04-18T16:09:49.583Z</time></trkpt><trkpt lat="44.354177" lon="7.8131347"><ele>513.0</ele><time>2026-04-18T16:09:50.584Z</time></trkpt><trkpt lat="44.3542749" lon="7.8130229"><ele>513.0</ele><time>2026-04-18T16:09:51.584Z</time></trkpt><trkpt lat="44.3543489" lon="7.812929"><ele>513.0</ele><time>2026-04-18T16:09:52.583Z</time></trkpt><trkpt lat="44.3543934" lon="7.812824"><ele>513.0</ele><time>2026-04-18T16:09:53.583Z</time></trkpt><trkpt lat="44.3544329" lon="7.8127316"><ele>510.0</ele><time>2026-04-18T16:09:54.584Z</time></trkpt><trkpt lat="44.3544278" lon="7.8126052"><ele>507.0</ele><time>2026-04-18T16:09:55.583Z</time></trkpt><trkpt lat="44.3543504" lon="7.8123915"><ele>504.0</ele><time>2026-04-18T16:09:56.584Z</time></trkpt><trkpt lat="44.3543071" lon="7.8122291"><ele>501.0</ele><time>2026-04-18T16:09:57.583Z</time></trkpt><trkpt lat="44.3542543" lon="7.8120467"><ele>501.0</ele><time>2026-04-18T16:09:58.584Z</time></trkpt><trkpt lat="44.3542099" lon="7.8118502"><ele>501.0</ele><time>2026-04-18T16:09:59.584Z</time></trkpt><trkpt lat="44.354181" lon="7.8116523"><ele>501.0</ele><time>2026-04-18T16:10:00.584Z</time></trkpt><trkpt lat="44.3541472" lon="7.8114624"><ele>501.0</ele><time>2026-04-18T16:10:01.584Z</time></trkpt><trkpt lat="44.3541344" lon="7.811281"><ele>500.25</ele><time>2026-04-18T16:10:02.585Z</time></trkpt><trkpt lat="44.354163" lon="7.8110903"><ele>499.5</ele><time>2026-04-18T16:10:03.584Z</time></trkpt><trkpt lat="44.354199" lon="7.8109078"><ele>498.75</ele><time>2026-04-18T16:10:04.584Z</time></trkpt><trkpt lat="44.3542406" lon="7.8107507"><ele>498.0</ele><time>2026-04-18T16:10:05.584Z</time></trkpt><trkpt lat="44.3542853" lon="7.8106023"><ele>497.0</ele><time>2026-04-18T16:10:06.583Z</time></trkpt><trkpt lat="44.3543268" lon="7.810456"><ele>496.0</ele><time>2026-04-18T16:10:07.585Z</time></trkpt><trkpt lat="44.3543616" lon="7.8103126"><ele>495.0</ele><time>2026-04-18T16:10:08.583Z</time></trkpt><trkpt lat="44.3543855" lon="7.8101611"><ele>494.0</ele><time>2026-04-18T16:10:09.583Z</time></trkpt><trkpt lat="44.3543792" lon="7.8099355"><ele>492.5</ele><time>2026-04-18T16:10:10.583Z</time></trkpt><trkpt lat="44.3543971" lon="7.8097468"><ele>491.0</ele><time>2026-04-18T16:10:11.583Z</time></trkpt><trkpt lat="44.354413" lon="7.8095572"><ele>489.5</ele><time>2026-04-18T16:10:12.584Z</time></trkpt><trkpt lat="44.3544293" lon="7.8093708"><ele>488.0</ele><time>2026-04-18T16:10:13.584Z</time></trkpt><trkpt lat="44.3544246" lon="7.8091769"><ele>486.5</ele><time>2026-04-18T16:10:14.584Z</time></trkpt><trkpt lat="44.3543938" lon="7.8089974"><ele>485.0</ele><time>2026-04-18T16:10:15.584Z</time></trkpt><trkpt lat="44.3543441" lon="7.8088215"><ele>483.5</ele><time>2026-04-18T16:10:16.583Z</time></trkpt><trkpt lat="44.3542921" lon="7.808637"><ele>482.0</ele><time>2026-04-18T16:10:17.583Z</time></trkpt><trkpt lat="44.3542424" lon="7.8084566"><ele>480.25</ele><time>2026-04-18T16:10:18.585Z</time></trkpt><trkpt lat="44.354227" lon="7.8082678"><ele>478.5</ele><time>2026-04-18T16:10:19.585Z</time></trkpt><trkpt lat="44.3542047" lon="7.8080989"><ele>476.75</ele><time>2026-04-18T16:10:20.583Z</time></trkpt><trkpt lat="44.3541868" lon="7.807919"><ele>475.0</ele><time>2026-04-18T16:10:21.583Z</time></trkpt><trkpt lat="44.3541776" lon="7.8077379"><ele>474.25</ele><time>2026-04-18T16:10:22.583Z</time></trkpt><trkpt lat="44.3541641" lon="7.8075726"><ele>473.5</ele><time>2026-04-18T16:10:23.584Z</time></trkpt><trkpt lat="44.3541444" lon="7.8073923"><ele>472.75</ele><time>2026-04-18T16:10:24.583Z</time></trkpt><trkpt lat="44.354115" lon="7.8071889"><ele>472.0</ele><time>2026-04-18T16:10:25.583Z</time></trkpt><trkpt lat="44.3540954" lon="7.8069797"><ele>470.0</ele><time>2026-04-18T16:10:26.583Z</time></trkpt><trkpt lat="44.3540652" lon="7.8067584"><ele>468.0</ele><time>2026-04-18T16:10:27.583Z</time></trkpt><trkpt lat="44.3540373" lon="7.8065231"><ele>466.0</ele><time>2026-04-18T16:10:28.584Z</time></trkpt><trkpt lat="44.3540056" lon="7.8062736"><ele>466.0</ele><time>2026-04-18T16:10:29.583Z</time></trkpt><trkpt lat="44.353971" lon="7.8060161"><ele>466.0</ele><time>2026-04-18T16:10:30.584Z</time></trkpt><trkpt lat="44.3539362" lon="7.8057473"><ele>466.0</ele><time>2026-04-18T16:10:31.583Z</time></trkpt><trkpt lat="44.3539003" lon="7.8054625"><ele>465.6666666666667</ele><time>2026-04-18T16:10:32.584Z</time></trkpt><trkpt lat="44.3538697" lon="7.8051729"><ele>465.33333333333337</ele><time>2026-04-18T16:10:33.584Z</time></trkpt><trkpt lat="44.3538306" lon="7.8048758"><ele>465.0</ele><time>2026-04-18T16:10:34.584Z</time></trkpt><trkpt lat="44.3537783" lon="7.8045755"><ele>465.0</ele><time>2026-04-18T16:10:35.584Z</time></trkpt><trkpt lat="44.3537186" lon="7.804271"><ele>465.0</ele><time>2026-04-18T16:10:36.583Z</time></trkpt><trkpt lat="44.3536491" lon="7.8039593"><ele>465.0</ele><time>2026-04-18T16:10:37.585Z</time></trkpt><trkpt lat="44.3535677" lon="7.8036542"><ele>465.0</ele><time>2026-04-18T16:10:38.584Z</time></trkpt><trkpt lat="44.3534698" lon="7.8033514"><ele>465.0</ele><time>2026-04-18T16:10:39.583Z</time></trkpt><trkpt lat="44.3533651" lon="7.8030467"><ele>465.0</ele><time>2026-04-18T16:10:40.583Z</time></trkpt><trkpt lat="44.3532479" lon="7.802749"><ele>464.5</ele><time>2026-04-18T16:10:41.584Z</time></trkpt><trkpt lat="44.3531265" lon="7.8024502"><ele>464.0</ele><time>2026-04-18T16:10:42.585Z</time></trkpt><trkpt lat="44.3530008" lon="7.8021523"><ele>465.0</ele><time>2026-04-18T16:10:43.583Z</time></trkpt><trkpt lat="44.3528744" lon="7.8018457"><ele>466.0</ele><time>2026-04-18T16:10:44.583Z</time></trkpt><trkpt lat="44.3527483" lon="7.8015435"><ele>466.5</ele><time>2026-04-18T16:10:45.585Z</time></trkpt><trkpt lat="44.3526201" lon="7.8012396"><ele>467.0</ele><time>2026-04-18T16:10:46.585Z</time></trkpt><trkpt lat="44.3524949" lon="7.8009391"><ele>466.0</ele><time>2026-04-18T16:10:47.584Z</time></trkpt><trkpt lat="44.352365" lon="7.8006308"><ele>465.0</ele><time>2026-04-18T16:10:48.583Z</time></trkpt><trkpt lat="44.3522328" lon="7.8003263"><ele>465.5</ele><time>2026-04-18T16:10:49.585Z</time></trkpt><trkpt lat="44.3521035" lon="7.8000203"><ele>466.0</ele><time>2026-04-18T16:10:50.584Z</time></trkpt><trkpt lat="44.3519679" lon="7.7997076"><ele>466.0</ele><time>2026-04-18T16:10:51.583Z</time></trkpt><trkpt lat="44.3518323" lon="7.7993992"><ele>466.0</ele><time>2026-04-18T16:10:52.585Z</time></trkpt><trkpt lat="44.3517013" lon="7.7990843"><ele>467.0</ele><time>2026-04-18T16:10:53.583Z</time></trkpt><trkpt lat="44.3515707" lon="7.7987761"><ele>468.0</ele><time>2026-04-18T16:10:54.584Z</time></trkpt><trkpt lat="44.3514387" lon="7.7984664"><ele>469.0</ele><time>2026-04-18T16:10:55.583Z</time></trkpt><trkpt lat="44.3513123" lon="7.7981589"><ele>470.0</ele><time>2026-04-18T16:10:56.583Z</time></trkpt><trkpt lat="44.3511841" lon="7.7978552"><ele>469.5</ele><time>2026-04-18T16:10:57.584Z</time></trkpt><trkpt lat="44.3510606" lon="7.7975535"><ele>469.0</ele><time>2026-04-18T16:10:58.583Z</time></trkpt><trkpt lat="44.3509391" lon="7.7972551"><ele>469.0</ele><time>2026-04-18T16:10:59.584Z</time></trkpt><trkpt lat="44.3508157" lon="7.7969638"><ele>469.0</ele><time>2026-04-18T16:11:00.583Z</time></trkpt><trkpt lat="44.3506936" lon="7.7966759"><ele>468.5</ele><time>2026-04-18T16:11:01.585Z</time></trkpt><trkpt lat="44.3505693" lon="7.7963895"><ele>468.0</ele><time>2026-04-18T16:11:02.583Z</time></trkpt><trkpt lat="44.3504453" lon="7.7961054"><ele>469.0</ele><time>2026-04-18T16:11:03.584Z</time></trkpt><trkpt lat="44.350318" lon="7.795829"><ele>470.0</ele><time>2026-04-18T16:11:04.584Z</time></trkpt><trkpt lat="44.3501871" lon="7.7955528"><ele>470.0</ele><time>2026-04-18T16:11:05.583Z</time></trkpt><trkpt lat="44.3500476" lon="7.7952792"><ele>470.0</ele><time>2026-04-18T16:11:06.584Z</time></trkpt><trkpt lat="44.3499046" lon="7.7950147"><ele>471.0</ele><time>2026-04-18T16:11:07.584Z</time></trkpt><trkpt lat="44.3497553" lon="7.7947546"><ele>472.0</ele><time>2026-04-18T16:11:08.583Z</time></trkpt><trkpt lat="44.3496013" lon="7.7944949"><ele>472.0</ele><time>2026-04-18T16:11:09.584Z</time></trkpt><trkpt lat="44.3494399" lon="7.7942393"><ele>472.0</ele><time>2026-04-18T16:11:10.584Z</time></trkpt><trkpt lat="44.3492736" lon="7.7939898"><ele>472.0</ele><time>2026-04-18T16:11:11.583Z</time></trkpt><trkpt lat="44.3491006" lon="7.7937463"><ele>472.0</ele><time>2026-04-18T16:11:12.583Z</time></trkpt><trkpt lat="44.3489261" lon="7.7935068"><ele>473.0</ele><time>2026-04-18T16:11:13.584Z</time></trkpt><trkpt lat="44.3487394" lon="7.793277"><ele>474.0</ele><time>2026-04-18T16:11:14.583Z</time></trkpt><trkpt lat="44.3485506" lon="7.7930502"><ele>474.0</ele><time>2026-04-18T16:11:15.584Z</time></trkpt><trkpt lat="44.3483597" lon="7.7928292"><ele>474.0</ele><time>2026-04-18T16:11:16.584Z</time></trkpt><trkpt lat="44.3481666" lon="7.7926082"><ele>474.5</ele><time>2026-04-18T16:11:17.583Z</time></trkpt><trkpt lat="44.3479764" lon="7.7923883"><ele>475.0</ele><time>2026-04-18T16:11:18.584Z</time></trkpt><trkpt lat="44.3477884" lon="7.7921741"><ele>475.0</ele><time>2026-04-18T16:11:19.584Z</time></trkpt><trkpt lat="44.3476024" lon="7.7919597"><ele>475.0</ele><time>2026-04-18T16:11:20.583Z</time></trkpt><trkpt lat="44.3474151" lon="7.7917564"><ele>476.0</ele><time>2026-04-18T16:11:21.583Z</time></trkpt><trkpt lat="44.3472304" lon="7.7915499"><ele>477.0</ele><time>2026-04-18T16:11:22.585Z</time></trkpt><trkpt lat="44.3470459" lon="7.7913387"><ele>478.5</ele><time>2026-04-18T16:11:23.584Z</time></trkpt><trkpt lat="44.3468671" lon="7.7911222"><ele>480.0</ele><time>2026-04-18T16:11:24.583Z</time></trkpt><trkpt lat="44.3466868" lon="7.7909004"><ele>480.0</ele><time>2026-04-18T16:11:25.583Z</time></trkpt><trkpt lat="44.3465076" lon="7.7906725"><ele>480.0</ele><time>2026-04-18T16:11:26.584Z</time></trkpt><trkpt lat="44.3463376" lon="7.7904282"><ele>480.0</ele><time>2026-04-18T16:11:27.584Z</time></trkpt><trkpt lat="44.3461612" lon="7.7901825"><ele>480.0</ele><time>2026-04-18T16:11:28.583Z</time></trkpt><trkpt lat="44.3460047" lon="7.7899179"><ele>480.0</ele><time>2026-04-18T16:11:29.583Z</time></trkpt><trkpt lat="44.3458549" lon="7.7896486"><ele>480.0</ele><time>2026-04-18T16:11:30.583Z</time></trkpt><trkpt lat="44.3457036" lon="7.7893776"><ele>480.0</ele><time>2026-04-18T16:11:31.584Z</time></trkpt><trkpt lat="44.3455639" lon="7.7891012"><ele>480.0</ele><time>2026-04-18T16:11:32.585Z</time></trkpt><trkpt lat="44.3454246" lon="7.788831"><ele>480.5</ele><time>2026-04-18T16:11:33.583Z</time></trkpt><trkpt lat="44.3452808" lon="7.7885617"><ele>481.0</ele><time>2026-04-18T16:11:34.584Z</time></trkpt><trkpt lat="44.3451404" lon="7.788288"><ele>481.5</ele><time>2026-04-18T16:11:35.585Z</time></trkpt><trkpt lat="44.3449956" lon="7.7880112"><ele>482.0</ele><time>2026-04-18T16:11:36.583Z</time></trkpt><trkpt lat="44.3448509" lon="7.7877353"><ele>482.5</ele><time>2026-04-18T16:11:37.583Z</time></trkpt><trkpt lat="44.3447057" lon="7.7874566"><ele>483.0</ele><time>2026-04-18T16:11:38.584Z</time></trkpt><trkpt lat="44.3445607" lon="7.7871841"><ele>483.0</ele><time>2026-04-18T16:11:39.584Z</time></trkpt><trkpt lat="44.3444127" lon="7.7869105"><ele>483.0</ele><time>2026-04-18T16:11:40.583Z</time></trkpt><trkpt lat="44.3442605" lon="7.7866411"><ele>483.5</ele><time>2026-04-18T16:11:41.584Z</time></trkpt><trkpt lat="44.3441125" lon="7.7863613"><ele>484.0</ele><time>2026-04-18T16:11:42.585Z</time></trkpt><trkpt lat="44.3439673" lon="7.7860734"><ele>485.0</ele><time>2026-04-18T16:11:43.584Z</time></trkpt><trkpt lat="44.3438196" lon="7.785787"><ele>486.0</ele><time>2026-04-18T16:11:44.585Z</time></trkpt><trkpt lat="44.3436695" lon="7.7855064"><ele>486.0</ele><time>2026-04-18T16:11:45.583Z</time></trkpt><trkpt lat="44.343523" lon="7.7852259"><ele>486.0</ele><time>2026-04-18T16:11:46.583Z</time></trkpt><trkpt lat="44.3433746" lon="7.7849449"><ele>486.5</ele><time>2026-04-18T16:11:47.584Z</time></trkpt><trkpt lat="44.343227" lon="7.7846644"><ele>487.0</ele><time>2026-04-18T16:11:48.585Z</time></trkpt><trkpt lat="44.3430776" lon="7.7843854"><ele>487.5</ele><time>2026-04-18T16:11:49.583Z</time></trkpt><trkpt lat="44.3429298" lon="7.784114"><ele>488.0</ele><time>2026-04-18T16:11:50.583Z</time></trkpt><trkpt lat="44.342788" lon="7.7838394"><ele>488.0</ele><time>2026-04-18T16:11:51.583Z</time></trkpt><trkpt lat="44.3426445" lon="7.7835715"><ele>488.0</ele><time>2026-04-18T16:11:52.584Z</time></trkpt><trkpt lat="44.3424982" lon="7.7833073"><ele>489.0</ele><time>2026-04-18T16:11:53.584Z</time></trkpt><trkpt lat="44.3423527" lon="7.7830331"><ele>490.0</ele><time>2026-04-18T16:11:54.584Z</time></trkpt><trkpt lat="44.3422067" lon="7.7827639"><ele>490.5</ele><time>2026-04-18T16:11:55.584Z</time></trkpt><trkpt lat="44.3420686" lon="7.7824997"><ele>491.0</ele><time>2026-04-18T16:11:56.584Z</time></trkpt><trkpt lat="44.3419261" lon="7.7822263"><ele>491.0</ele><time>2026-04-18T16:11:57.584Z</time></trkpt><trkpt lat="44.341789" lon="7.7819544"><ele>491.0</ele><time>2026-04-18T16:11:58.584Z</time></trkpt><trkpt lat="44.3416464" lon="7.7816805"><ele>491.0</ele><time>2026-04-18T16:11:59.583Z</time></trkpt><trkpt lat="44.3415073" lon="7.7814164"><ele>491.0</ele><time>2026-04-18T16:12:00.584Z</time></trkpt><trkpt lat="44.3413699" lon="7.7811582"><ele>490.66666666666663</ele><time>2026-04-18T16:12:01.584Z</time></trkpt><trkpt lat="44.3412424" lon="7.7809171"><ele>490.33333333333337</ele><time>2026-04-18T16:12:02.584Z</time></trkpt><trkpt lat="44.341119" lon="7.7806859"><ele>490.0</ele><time>2026-04-18T16:12:03.583Z</time></trkpt><trkpt lat="44.3409946" lon="7.7804567"><ele>490.0</ele><time>2026-04-18T16:12:04.583Z</time></trkpt><trkpt lat="44.340879" lon="7.7802316"><ele>490.0</ele><time>2026-04-18T16:12:05.584Z</time></trkpt><trkpt lat="44.3407655" lon="7.7800202"><ele>490.0</ele><time>2026-04-18T16:12:06.583Z</time></trkpt><trkpt lat="44.3406481" lon="7.7798203"><ele>490.33333333333337</ele><time>2026-04-18T16:12:07.585Z</time></trkpt><trkpt lat="44.3405345" lon="7.7796317"><ele>490.66666666666663</ele><time>2026-04-18T16:12:08.583Z</time></trkpt><trkpt lat="44.3404363" lon="7.7794403"><ele>491.0</ele><time>2026-04-18T16:12:09.584Z</time></trkpt><trkpt lat="44.3403357" lon="7.7792492"><ele>491.25</ele><time>2026-04-18T16:12:10.585Z</time></trkpt><trkpt lat="44.3402407" lon="7.7790786"><ele>491.5</ele><time>2026-04-18T16:12:11.584Z</time></trkpt><trkpt lat="44.3401577" lon="7.7789216"><ele>491.75</ele><time>2026-04-18T16:12:12.585Z</time></trkpt><trkpt lat="44.3400908" lon="7.7787861"><ele>492.0</ele><time>2026-04-18T16:12:13.583Z</time></trkpt><trkpt lat="44.3400379" lon="7.7786539"><ele>492.0</ele><time>2026-04-18T16:12:14.584Z</time></trkpt><trkpt lat="44.3400018" lon="7.7785435"><ele>492.0</ele><time>2026-04-18T16:12:15.583Z</time></trkpt><trkpt lat="44.3399798" lon="7.7784408"><ele>492.0</ele><time>2026-04-18T16:12:16.583Z</time></trkpt><trkpt lat="44.3399768" lon="7.7782859"><ele>492.0</ele><time>2026-04-18T16:12:18.583Z</time></trkpt><trkpt lat="44.3400091" lon="7.7782007"><ele>492.0</ele><time>2026-04-18T16:12:19.585Z</time></trkpt><trkpt lat="44.3400678" lon="7.778107"><ele>492.0</ele><time>2026-04-18T16:12:20.584Z</time></trkpt><trkpt lat="44.3401569" lon="7.7780321"><ele>492.0</ele><time>2026-04-18T16:12:21.585Z</time></trkpt><trkpt lat="44.3402529" lon="7.7779793"><ele>492.0</ele><time>2026-04-18T16:12:22.583Z</time></trkpt><trkpt lat="44.3403728" lon="7.7779241"><ele>492.0</ele><time>2026-04-18T16:12:23.583Z</time></trkpt><trkpt lat="44.3405056" lon="7.7778792"><ele>492.0</ele><time>2026-04-18T16:12:24.583Z</time></trkpt><trkpt lat="44.3406471" lon="7.7778469"><ele>491.0</ele><time>2026-04-18T16:12:25.584Z</time></trkpt><trkpt lat="44.3407884" lon="7.7778205"><ele>490.0</ele><time>2026-04-18T16:12:26.583Z</time></trkpt><trkpt lat="44.3409388" lon="7.7777964"><ele>489.0</ele><time>2026-04-18T16:12:27.584Z</time></trkpt><trkpt lat="44.341094" lon="7.7777697"><ele>489.0</ele><time>2026-04-18T16:12:28.583Z</time></trkpt><trkpt lat="44.3412516" lon="7.7777425"><ele>489.0</ele><time>2026-04-18T16:12:29.583Z</time></trkpt><trkpt lat="44.3414191" lon="7.7777152"><ele>489.0</ele><time>2026-04-18T16:12:30.583Z</time></trkpt><trkpt lat="44.3415865" lon="7.7776974"><ele>490.33333333333337</ele><time>2026-04-18T16:12:31.584Z</time></trkpt><trkpt lat="44.3417618" lon="7.7776767"><ele>491.6666666666667</ele><time>2026-04-18T16:12:32.583Z</time></trkpt><trkpt lat="44.3419387" lon="7.7776545"><ele>493.0</ele><time>2026-04-18T16:12:33.583Z</time></trkpt><trkpt lat="44.3421143" lon="7.7776191"><ele>494.0</ele><time>2026-04-18T16:12:34.584Z</time></trkpt><trkpt lat="44.342291" lon="7.777592"><ele>495.0</ele><time>2026-04-18T16:12:35.584Z</time></trkpt><trkpt lat="44.34247" lon="7.7775697"><ele>496.0</ele><time>2026-04-18T16:12:36.583Z</time></trkpt><trkpt lat="44.3426504" lon="7.7775478"><ele>496.0</ele><time>2026-04-18T16:12:37.585Z</time></trkpt><trkpt lat="44.3428365" lon="7.7775212"><ele>496.0</ele><time>2026-04-18T16:12:38.583Z</time></trkpt><trkpt lat="44.3430252" lon="7.7774942"><ele>496.0</ele><time>2026-04-18T16:12:39.584Z</time></trkpt><trkpt lat="44.3432103" lon="7.7774611"><ele>495.6666666666667</ele><time>2026-04-18T16:12:40.585Z</time></trkpt><trkpt lat="44.3433961" lon="7.7774234"><ele>495.33333333333337</ele><time>2026-04-18T16:12:41.583Z</time></trkpt><trkpt lat="44.3435793" lon="7.777376"><ele>495.0</ele><time>2026-04-18T16:12:42.583Z</time></trkpt><trkpt lat="44.3437579" lon="7.7773136"><ele>496.0</ele><time>2026-04-18T16:12:43.583Z</time></trkpt><trkpt lat="44.3439358" lon="7.7772403"><ele>497.0</ele><time>2026-04-18T16:12:44.583Z</time></trkpt><trkpt lat="44.3441178" lon="7.7771583"><ele>498.0</ele><time>2026-04-18T16:12:45.584Z</time></trkpt><trkpt lat="44.3442979" lon="7.7770687"><ele>498.0</ele><time>2026-04-18T16:12:46.584Z</time></trkpt><trkpt lat="44.344466" lon="7.7769684"><ele>498.0</ele><time>2026-04-18T16:12:47.584Z</time></trkpt><trkpt lat="44.3446192" lon="7.7768772"><ele>498.0</ele><time>2026-04-18T16:12:48.584Z</time></trkpt><trkpt lat="44.3447557" lon="7.7767861"><ele>500.0</ele><time>2026-04-18T16:12:49.584Z</time></trkpt><trkpt lat="44.3448771" lon="7.7766879"><ele>502.0</ele><time>2026-04-18T16:12:50.583Z</time></trkpt><trkpt lat="44.3449999" lon="7.7765944"><ele>504.0</ele><time>2026-04-18T16:12:51.584Z</time></trkpt><trkpt lat="44.3451256" lon="7.7764943"><ele>506.0</ele><time>2026-04-18T16:12:52.583Z</time></trkpt><trkpt lat="44.3452446" lon="7.7763959"><ele>506.0</ele><time>2026-04-18T16:12:53.584Z</time></trkpt><trkpt lat="44.3453638" lon="7.7763012"><ele>506.0</ele><time>2026-04-18T16:12:54.583Z</time></trkpt><trkpt lat="44.3454787" lon="7.7762049"><ele>506.0</ele><time>2026-04-18T16:12:55.583Z</time></trkpt><trkpt lat="44.3455916" lon="7.7761071"><ele>506.0</ele><time>2026-04-18T16:12:56.583Z</time></trkpt><trkpt lat="44.3457051" lon="7.7760103"><ele>506.5</ele><time>2026-04-18T16:12:57.584Z</time></trkpt><trkpt lat="44.3458149" lon="7.7759082"><ele>507.0</ele><time>2026-04-18T16:12:58.583Z</time></trkpt><trkpt lat="44.345929" lon="7.7757949"><ele>507.5</ele><time>2026-04-18T16:12:59.583Z</time></trkpt><trkpt lat="44.3460434" lon="7.775682"><ele>508.0</ele><time>2026-04-18T16:13:00.584Z</time></trkpt><trkpt lat="44.3461551" lon="7.7755645"><ele>508.0</ele><time>2026-04-18T16:13:01.584Z</time></trkpt><trkpt lat="44.3462645" lon="7.7754348"><ele>508.0</ele><time>2026-04-18T16:13:02.585Z</time></trkpt><trkpt lat="44.346377" lon="7.7752958"><ele>508.0</ele><time>2026-04-18T16:13:03.584Z</time></trkpt><trkpt lat="44.3464861" lon="7.7751516"><ele>508.0</ele><time>2026-04-18T16:13:04.584Z</time></trkpt><trkpt lat="44.3465906" lon="7.7749965"><ele>507.6666666666667</ele><time>2026-04-18T16:13:05.584Z</time></trkpt><trkpt lat="44.3466929" lon="7.7748312"><ele>507.33333333333337</ele><time>2026-04-18T16:13:06.584Z</time></trkpt><trkpt lat="44.3467919" lon="7.7746625"><ele>507.0</ele><time>2026-04-18T16:13:07.583Z</time></trkpt><trkpt lat="44.3468833" lon="7.7744805"><ele>507.66666666666663</ele><time>2026-04-18T16:13:08.583Z</time></trkpt><trkpt lat="44.346971" lon="7.7742875"><ele>508.3333333333333</ele><time>2026-04-18T16:13:09.583Z</time></trkpt><trkpt lat="44.3470462" lon="7.7740756"><ele>509.0</ele><time>2026-04-18T16:13:10.584Z</time></trkpt><trkpt lat="44.3471208" lon="7.7738627"><ele>509.0</ele><time>2026-04-18T16:13:11.584Z</time></trkpt><trkpt lat="44.3471923" lon="7.7736443"><ele>509.0</ele><time>2026-04-18T16:13:12.583Z</time></trkpt><trkpt lat="44.3472531" lon="7.7734329"><ele>509.0</ele><time>2026-04-18T16:13:13.585Z</time></trkpt><trkpt lat="44.347306" lon="7.7732365"><ele>508.75</ele><time>2026-04-18T16:13:14.585Z</time></trkpt><trkpt lat="44.3473526" lon="7.7730556"><ele>508.5</ele><time>2026-04-18T16:13:15.583Z</time></trkpt><trkpt lat="44.3473994" lon="7.7728728"><ele>508.25</ele><time>2026-04-18T16:13:16.585Z</time></trkpt><trkpt lat="44.3474518" lon="7.7726975"><ele>508.0</ele><time>2026-04-18T16:13:17.584Z</time></trkpt><trkpt lat="44.3474995" lon="7.7725159"><ele>508.0</ele><time>2026-04-18T16:13:18.585Z</time></trkpt><trkpt lat="44.3475505" lon="7.7723336"><ele>508.0</ele><time>2026-04-18T16:13:19.583Z</time></trkpt><trkpt lat="44.3476032" lon="7.7721595"><ele>508.0</ele><time>2026-04-18T16:13:20.583Z</time></trkpt><trkpt lat="44.3476573" lon="7.7719906"><ele>508.0</ele><time>2026-04-18T16:13:21.584Z</time></trkpt><trkpt lat="44.3477103" lon="7.7718487"><ele>508.2</ele><time>2026-04-18T16:13:22.583Z</time></trkpt><trkpt lat="44.3477848" lon="7.7717361"><ele>508.4</ele><time>2026-04-18T16:13:23.583Z</time></trkpt><trkpt lat="44.347866" lon="7.7716481"><ele>508.59999999999997</ele><time>2026-04-18T16:13:24.585Z</time></trkpt><trkpt lat="44.3479478" lon="7.7715762"><ele>508.79999999999995</ele><time>2026-04-18T16:13:25.584Z</time></trkpt><trkpt lat="44.3480107" lon="7.7714774"><ele>509.0</ele><time>2026-04-18T16:13:26.583Z</time></trkpt><trkpt lat="44.3480296" lon="7.7713675"><ele>509.0</ele><time>2026-04-18T16:13:27.584Z</time></trkpt><trkpt lat="44.348048" lon="7.7712506"><ele>509.0</ele><time>2026-04-18T16:13:28.583Z</time></trkpt><trkpt lat="44.3479615" lon="7.7711705"><ele>509.0</ele><time>2026-04-18T16:13:29.583Z</time></trkpt><trkpt lat="44.3479025" lon="7.7710673"><ele>509.0</ele><time>2026-04-18T16:13:30.585Z</time></trkpt><trkpt lat="44.347844" lon="7.7709457"><ele>509.0</ele><time>2026-04-18T16:13:31.583Z</time></trkpt><trkpt lat="44.3477892" lon="7.7707927"><ele>510.0</ele><time>2026-04-18T16:13:32.585Z</time></trkpt><trkpt lat="44.3477586" lon="7.7706126"><ele>511.0</ele><time>2026-04-18T16:13:33.583Z</time></trkpt><trkpt lat="44.3477592" lon="7.770416"><ele>512.0</ele><time>2026-04-18T16:13:34.584Z</time></trkpt><trkpt lat="44.347783" lon="7.7701956"><ele>513.0</ele><time>2026-04-18T16:13:35.583Z</time></trkpt><trkpt lat="44.3478167" lon="7.7699568"><ele>514.0</ele><time>2026-04-18T16:13:36.583Z</time></trkpt><trkpt lat="44.3478521" lon="7.7697055"><ele>515.0</ele><time>2026-04-18T16:13:37.584Z</time></trkpt><trkpt lat="44.3478884" lon="7.7694656"><ele>516.0</ele><time>2026-04-18T16:13:38.584Z</time></trkpt><trkpt lat="44.3479276" lon="7.769202"><ele>517.0</ele><time>2026-04-18T16:13:39.584Z</time></trkpt><trkpt lat="44.3479672" lon="7.7689335"><ele>518.0</ele><time>2026-04-18T16:13:40.585Z</time></trkpt><trkpt lat="44.3480083" lon="7.7686582"><ele>519.0</ele><time>2026-04-18T16:13:41.584Z</time></trkpt><trkpt lat="44.3480507" lon="7.7683793"><ele>521.0</ele><time>2026-04-18T16:13:42.584Z</time></trkpt><trkpt lat="44.3480891" lon="7.7681249"><ele>523.0</ele><time>2026-04-18T16:13:43.583Z</time></trkpt><trkpt lat="44.3481279" lon="7.7678933"><ele>525.0</ele><time>2026-04-18T16:13:44.583Z</time></trkpt><trkpt lat="44.3481573" lon="7.7676975"><ele>525.8</ele><time>2026-04-18T16:13:45.583Z</time></trkpt><trkpt lat="44.3481839" lon="7.7675408"><ele>526.6</ele><time>2026-04-18T16:13:46.583Z</time></trkpt><trkpt lat="44.3482205" lon="7.7674077"><ele>527.4</ele><time>2026-04-18T16:13:47.584Z</time></trkpt><trkpt lat="44.3482641" lon="7.76731"><ele>528.2</ele><time>2026-04-18T16:13:48.585Z</time></trkpt><trkpt lat="44.3483472" lon="7.7672103"><ele>529.0</ele><time>2026-04-18T16:13:50.584Z</time></trkpt><trkpt lat="44.3484499" lon="7.7671228"><ele>529.0</ele><time>2026-04-18T16:13:52.584Z</time></trkpt><trkpt lat="44.3484744" lon="7.7669568"><ele>529.0</ele><time>2026-04-18T16:13:54.584Z</time></trkpt><trkpt lat="44.3484571" lon="7.7668678"><ele>529.0</ele><time>2026-04-18T16:13:55.584Z</time></trkpt><trkpt lat="44.3484348" lon="7.7667656"><ele>529.0</ele><time>2026-04-18T16:13:56.584Z</time></trkpt><trkpt lat="44.3484206" lon="7.7666541"><ele>529.0</ele><time>2026-04-18T16:13:57.584Z</time></trkpt><trkpt lat="44.3484117" lon="7.7665439"><ele>529.0</ele><time>2026-04-18T16:13:58.583Z</time></trkpt><trkpt lat="44.348411" lon="7.7664178"><ele>529.3333333333334</ele><time>2026-04-18T16:13:59.585Z</time></trkpt><trkpt lat="44.348411" lon="7.7662874"><ele>529.6666666666667</ele><time>2026-04-18T16:14:00.584Z</time></trkpt><trkpt lat="44.3484095" lon="7.7661685"><ele>530.0</ele><time>2026-04-18T16:14:01.584Z</time></trkpt><trkpt lat="44.3484082" lon="7.7660599"><ele>530.3333333333334</ele><time>2026-04-18T16:14:02.584Z</time></trkpt><trkpt lat="44.3484185" lon="7.7659628"><ele>530.6666666666666</ele><time>2026-04-18T16:14:03.585Z</time></trkpt><trkpt lat="44.3484459" lon="7.7658442"><ele>531.0</ele><time>2026-04-18T16:14:04.583Z</time></trkpt><trkpt lat="44.3484784" lon="7.7656982"><ele>531.3333333333334</ele><time>2026-04-18T16:14:05.584Z</time></trkpt><trkpt lat="44.3485047" lon="7.7655331"><ele>531.6666666666667</ele><time>2026-04-18T16:14:06.583Z</time></trkpt><trkpt lat="44.3485296" lon="7.7652966"><ele>532.0</ele><time>2026-04-18T16:14:07.583Z</time></trkpt><trkpt lat="44.3485647" lon="7.7650671"><ele>532.0</ele><time>2026-04-18T16:14:08.584Z</time></trkpt><trkpt lat="44.348611" lon="7.7648167"><ele>532.0</ele><time>2026-04-18T16:14:09.585Z</time></trkpt><trkpt lat="44.3486564" lon="7.7645502"><ele>532.0</ele><time>2026-04-18T16:14:10.584Z</time></trkpt><trkpt lat="44.3487019" lon="7.7642638"><ele>532.6666666666667</ele><time>2026-04-18T16:14:11.584Z</time></trkpt><trkpt lat="44.3487385" lon="7.7639756"><ele>533.3333333333334</ele><time>2026-04-18T16:14:12.583Z</time></trkpt><trkpt lat="44.3487528" lon="7.7636716"><ele>534.0</ele><time>2026-04-18T16:14:13.584Z</time></trkpt><trkpt lat="44.3487408" lon="7.7633496"><ele>535.0</ele><time>2026-04-18T16:14:14.585Z</time></trkpt><trkpt lat="44.3487035" lon="7.7630214"><ele>536.0</ele><time>2026-04-18T16:14:15.584Z</time></trkpt><trkpt lat="44.3486359" lon="7.7626954"><ele>538.0</ele><time>2026-04-18T16:14:16.584Z</time></trkpt><trkpt lat="44.3485301" lon="7.7623844"><ele>540.0</ele><time>2026-04-18T16:14:17.584Z</time></trkpt><trkpt lat="44.3484252" lon="7.7620744"><ele>540.0</ele><time>2026-04-18T16:14:18.583Z</time></trkpt><trkpt lat="44.348265" lon="7.7618882"><ele>540.0</ele><time>2026-04-18T16:14:19.585Z</time></trkpt><trkpt lat="44.3481004" lon="7.7616686"><ele>540.0</ele><time>2026-04-18T16:14:20.583Z</time></trkpt><trkpt lat="44.347926" lon="7.7614759"><ele>541.0</ele><time>2026-04-18T16:14:21.584Z</time></trkpt><trkpt lat="44.3477488" lon="7.7612853"><ele>542.0</ele><time>2026-04-18T16:14:22.583Z</time></trkpt><trkpt lat="44.3475782" lon="7.7611012"><ele>543.0</ele><time>2026-04-18T16:14:23.583Z</time></trkpt><trkpt lat="44.3473997" lon="7.7609175"><ele>543.6666666666666</ele><time>2026-04-18T16:14:24.583Z</time></trkpt><trkpt lat="44.3472264" lon="7.7607364"><ele>544.3333333333333</ele><time>2026-04-18T16:14:25.585Z</time></trkpt><trkpt lat="44.3470572" lon="7.760567"><ele>545.0</ele><time>2026-04-18T16:14:26.584Z</time></trkpt><trkpt lat="44.3468971" lon="7.7604106"><ele>545.0</ele><time>2026-04-18T16:14:27.583Z</time></trkpt><trkpt lat="44.3467554" lon="7.7602664"><ele>545.0</ele><time>2026-04-18T16:14:28.583Z</time></trkpt><trkpt lat="44.3466336" lon="7.7601358"><ele>545.0</ele><time>2026-04-18T16:14:29.583Z</time></trkpt><trkpt lat="44.3465325" lon="7.7600167"><ele>545.0</ele><time>2026-04-18T16:14:30.584Z</time></trkpt><trkpt lat="44.3464593" lon="7.7599146"><ele>545.0</ele><time>2026-04-18T16:14:31.584Z</time></trkpt><trkpt lat="44.3464052" lon="7.7598298"><ele>545.0</ele><time>2026-04-18T16:14:32.583Z</time></trkpt><trkpt lat="44.3463073" lon="7.7597378"><ele>545.0</ele><time>2026-04-18T16:14:34.584Z</time></trkpt><trkpt lat="44.3463837" lon="7.7598435"><ele>545.0</ele><time>2026-04-18T16:14:36.584Z</time></trkpt><trkpt lat="44.3464894" lon="7.7599837"><ele>545.0</ele><time>2026-04-18T16:14:38.584Z</time></trkpt><trkpt lat="44.3465666" lon="7.7600905"><ele>545.0</ele><time>2026-04-18T16:14:39.583Z</time></trkpt><trkpt lat="44.3466585" lon="7.7601925"><ele>545.0</ele><time>2026-04-18T16:14:40.583Z</time></trkpt><trkpt lat="44.3467598" lon="7.7602885"><ele>545.0</ele><time>2026-04-18T16:14:41.584Z</time></trkpt><trkpt lat="44.3468645" lon="7.7603981"><ele>545.0</ele><time>2026-04-18T16:14:42.584Z</time></trkpt><trkpt lat="44.3469711" lon="7.7605143"><ele>545.0</ele><time>2026-04-18T16:14:43.585Z</time></trkpt><trkpt lat="44.3470792" lon="7.7606306"><ele>545.0</ele><time>2026-04-18T16:14:44.583Z</time></trkpt><trkpt lat="44.3471969" lon="7.7607469"><ele>545.0</ele><time>2026-04-18T16:14:45.584Z</time></trkpt><trkpt lat="44.3473156" lon="7.7608774"><ele>544.5</ele><time>2026-04-18T16:14:46.583Z</time></trkpt><trkpt lat="44.3474406" lon="7.761008"><ele>544.0</ele><time>2026-04-18T16:14:47.583Z</time></trkpt><trkpt lat="44.3475603" lon="7.7611301"><ele>543.5</ele><time>2026-04-18T16:14:48.584Z</time></trkpt><trkpt lat="44.3476781" lon="7.7612399"><ele>543.0</ele><time>2026-04-18T16:14:49.584Z</time></trkpt><trkpt lat="44.3477859" lon="7.7613535"><ele>543.0</ele><time>2026-04-18T16:14:50.583Z</time></trkpt><trkpt lat="44.3478862" lon="7.7614606"><ele>543.0</ele><time>2026-04-18T16:14:51.584Z</time></trkpt><trkpt lat="44.3479779" lon="7.7615631"><ele>543.0</ele><time>2026-04-18T16:14:52.584Z</time></trkpt><trkpt lat="44.3480496" lon="7.7616456"><ele>543.0</ele><time>2026-04-18T16:14:53.584Z</time></trkpt><trkpt lat="44.3481114" lon="7.7617077"><ele>543.0</ele><time>2026-04-18T16:14:54.583Z</time></trkpt><trkpt lat="44.3481682" lon="7.7617597"><ele>543.0</ele><time>2026-04-18T16:14:55.584Z</time></trkpt><trkpt lat="44.3482553" lon="7.7617837"><ele>543.0</ele><time>2026-04-18T16:14:57.584Z</time></trkpt><trkpt lat="44.3483117" lon="7.7617445"><ele>543.0</ele><time>2026-04-18T16:14:59.583Z</time></trkpt><trkpt lat="44.3483312" lon="7.7616575"><ele>543.0</ele><time>2026-04-18T16:15:02.585Z</time></trkpt><trkpt lat="44.3482649" lon="7.7615845"><ele>543.0</ele><time>2026-04-18T16:15:04.584Z</time></trkpt><trkpt lat="44.3482326" lon="7.761383"><ele>543.0</ele><time>2026-04-18T16:15:06.585Z</time></trkpt><trkpt lat="44.3482113" lon="7.761257"><ele>543.0</ele><time>2026-04-18T16:15:07.584Z</time></trkpt><trkpt lat="44.3481721" lon="7.7611279"><ele>543.0</ele><time>2026-04-18T16:15:08.583Z</time></trkpt><trkpt lat="44.3481191" lon="7.7609886"><ele>543.0</ele><time>2026-04-18T16:15:09.583Z</time></trkpt><trkpt lat="44.3480632" lon="7.7608505"><ele>543.0</ele><time>2026-04-18T16:15:10.584Z</time></trkpt><trkpt lat="44.3480156" lon="7.7606921"><ele>543.0</ele><time>2026-04-18T16:15:11.584Z</time></trkpt><trkpt lat="44.3479666" lon="7.7605281"><ele>544.25</ele><time>2026-04-18T16:15:12.583Z</time></trkpt><trkpt lat="44.3479261" lon="7.7603591"><ele>545.5</ele><time>2026-04-18T16:15:13.584Z</time></trkpt><trkpt lat="44.3479018" lon="7.7601846"><ele>546.75</ele><time>2026-04-18T16:15:14.583Z</time></trkpt><trkpt lat="44.3478998" lon="7.7600105"><ele>548.0</ele><time>2026-04-18T16:15:15.583Z</time></trkpt><trkpt lat="44.347924" lon="7.7598494"><ele>549.0</ele><time>2026-04-18T16:15:16.584Z</time></trkpt><trkpt lat="44.3479661" lon="7.7596815"><ele>550.0</ele><time>2026-04-18T16:15:17.584Z</time></trkpt><trkpt lat="44.3480292" lon="7.7595163"><ele>551.0</ele><time>2026-04-18T16:15:18.584Z</time></trkpt><trkpt lat="44.348097" lon="7.7593466"><ele>552.0</ele><time>2026-04-18T16:15:19.584Z</time></trkpt><trkpt lat="44.3481681" lon="7.7591651"><ele>556.0</ele><time>2026-04-18T16:15:20.584Z</time></trkpt><trkpt lat="44.3482344" lon="7.7589706"><ele>560.0</ele><time>2026-04-18T16:15:21.583Z</time></trkpt><trkpt lat="44.3482871" lon="7.7587784"><ele>564.0</ele><time>2026-04-18T16:15:22.584Z</time></trkpt><trkpt lat="44.3483076" lon="7.75857"><ele>565.25</ele><time>2026-04-18T16:15:23.584Z</time></trkpt><trkpt lat="44.3482981" lon="7.7583575"><ele>566.5</ele><time>2026-04-18T16:15:24.584Z</time></trkpt><trkpt lat="44.348268" lon="7.758165"><ele>567.75</ele><time>2026-04-18T16:15:25.583Z</time></trkpt><trkpt lat="44.3482385" lon="7.7579763"><ele>569.0</ele><time>2026-04-18T16:15:26.584Z</time></trkpt><trkpt lat="44.3482246" lon="7.7577894"><ele>571.25</ele><time>2026-04-18T16:15:27.584Z</time></trkpt><trkpt lat="44.34823" lon="7.7576091"><ele>573.5</ele><time>2026-04-18T16:15:28.583Z</time></trkpt><trkpt lat="44.348261" lon="7.757439"><ele>575.75</ele><time>2026-04-18T16:15:29.585Z</time></trkpt><trkpt lat="44.3483039" lon="7.7573014"><ele>578.0</ele><time>2026-04-18T16:15:30.583Z</time></trkpt><trkpt lat="44.34836" lon="7.7571722"><ele>578.0</ele><time>2026-04-18T16:15:31.584Z</time></trkpt><trkpt lat="44.3484209" lon="7.7570598"><ele>578.0</ele><time>2026-04-18T16:15:32.583Z</time></trkpt><trkpt lat="44.3484894" lon="7.7569698"><ele>578.0</ele><time>2026-04-18T16:15:33.583Z</time></trkpt><trkpt lat="44.3485443" lon="7.7568746"><ele>578.0</ele><time>2026-04-18T16:15:34.584Z</time></trkpt><trkpt lat="44.3485911" lon="7.756767"><ele>578.0</ele><time>2026-04-18T16:15:35.583Z</time></trkpt><trkpt lat="44.348637" lon="7.7566415"><ele>579.25</ele><time>2026-04-18T16:15:36.584Z</time></trkpt><trkpt lat="44.3486789" lon="7.756495"><ele>580.5</ele><time>2026-04-18T16:15:37.584Z</time></trkpt><trkpt lat="44.3487088" lon="7.7563338"><ele>581.75</ele><time>2026-04-18T16:15:38.584Z</time></trkpt><trkpt lat="44.348742" lon="7.7561613"><ele>583.0</ele><time>2026-04-18T16:15:39.584Z</time></trkpt><trkpt lat="44.3487802" lon="7.7559811"><ele>583.0</ele><time>2026-04-18T16:15:40.584Z</time></trkpt><trkpt lat="44.3488134" lon="7.7557925"><ele>583.0</ele><time>2026-04-18T16:15:41.585Z</time></trkpt><trkpt lat="44.3488731" lon="7.755243"><ele>583.25</ele><time>2026-04-18T16:15:44.585Z</time></trkpt><trkpt lat="44.3488741" lon="7.7550575"><ele>583.5</ele><time>2026-04-18T16:15:45.583Z</time></trkpt><trkpt lat="44.3488663" lon="7.7548747"><ele>583.75</ele><time>2026-04-18T16:15:46.585Z</time></trkpt><trkpt lat="44.3488582" lon="7.7547115"><ele>584.0</ele><time>2026-04-18T16:15:47.583Z</time></trkpt><trkpt lat="44.3488412" lon="7.7545583"><ele>584.0</ele><time>2026-04-18T16:15:48.584Z</time></trkpt><trkpt lat="44.3488189" lon="7.7544122"><ele>584.0</ele><time>2026-04-18T16:15:49.583Z</time></trkpt><trkpt lat="44.3487719" lon="7.7542371"><ele>584.0</ele><time>2026-04-18T16:15:50.584Z</time></trkpt><trkpt lat="44.3486894" lon="7.754177"><ele>584.0</ele><time>2026-04-18T16:15:51.583Z</time></trkpt><trkpt lat="44.3486544" lon="7.7540685"><ele>584.0</ele><time>2026-04-18T16:15:52.585Z</time></trkpt><trkpt lat="44.348623" lon="7.7539759"><ele>584.3333333333333</ele><time>2026-04-18T16:15:53.584Z</time></trkpt><trkpt lat="44.3486002" lon="7.7538916"><ele>584.6666666666666</ele><time>2026-04-18T16:15:54.584Z</time></trkpt><trkpt lat="44.3485634" lon="7.7538095"><ele>585.0</ele><time>2026-04-18T16:15:56.584Z</time></trkpt><trkpt lat="44.3486171" lon="7.7539811"><ele>585.3333333333334</ele><time>2026-04-18T16:16:02.585Z</time></trkpt><trkpt lat="44.348656" lon="7.7540716"><ele>585.6666666666667</ele><time>2026-04-18T16:16:03.583Z</time></trkpt><trkpt lat="44.3486724" lon="7.7541626"><ele>586.0</ele><time>2026-04-18T16:16:04.584Z</time></trkpt><trkpt lat="44.3487317" lon="7.7543022"><ele>586.0</ele><time>2026-04-18T16:16:06.585Z</time></trkpt><trkpt lat="44.3487874" lon="7.7544244"><ele>586.0</ele><time>2026-04-18T16:16:08.584Z</time></trkpt><trkpt lat="44.3489069" lon="7.7543914"><ele>586.0</ele><time>2026-04-18T16:16:11.585Z</time></trkpt><trkpt lat="44.3490448" lon="7.7543307"><ele>586.0</ele><time>2026-04-18T16:16:13.583Z</time></trkpt><trkpt lat="44.3491548" lon="7.7542991"><ele>586.8</ele><time>2026-04-18T16:16:14.583Z</time></trkpt><trkpt lat="44.3492569" lon="7.7542665"><ele>587.6</ele><time>2026-04-18T16:16:15.584Z</time></trkpt><trkpt lat="44.3493581" lon="7.7542415"><ele>588.4</ele><time>2026-04-18T16:16:16.583Z</time></trkpt><trkpt lat="44.3494462" lon="7.7542199"><ele>589.2</ele><time>2026-04-18T16:16:17.584Z</time></trkpt><trkpt lat="44.3495409" lon="7.7542215"><ele>590.0</ele><time>2026-04-18T16:16:18.584Z</time></trkpt><trkpt lat="44.3496422" lon="7.7542315"><ele>589.0</ele><time>2026-04-18T16:16:19.583Z</time></trkpt><trkpt lat="44.3497631" lon="7.7542473"><ele>588.0</ele><time>2026-04-18T16:16:20.583Z</time></trkpt><trkpt lat="44.3498865" lon="7.7542647"><ele>587.0</ele><time>2026-04-18T16:16:21.583Z</time></trkpt><trkpt lat="44.3500051" lon="7.7542726"><ele>586.0</ele><time>2026-04-18T16:16:22.584Z</time></trkpt><trkpt lat="44.3501215" lon="7.7542647"><ele>586.0</ele><time>2026-04-18T16:16:23.584Z</time></trkpt><trkpt lat="44.3502333" lon="7.7542371"><ele>586.0</ele><time>2026-04-18T16:16:24.584Z</time></trkpt><trkpt lat="44.3503373" lon="7.7542097"><ele>586.0</ele><time>2026-04-18T16:16:25.584Z</time></trkpt><trkpt lat="44.3504559" lon="7.7541779"><ele>586.0</ele><time>2026-04-18T16:16:26.585Z</time></trkpt><trkpt lat="44.3505573" lon="7.7541469"><ele>586.0</ele><time>2026-04-18T16:16:27.583Z</time></trkpt><trkpt lat="44.3506598" lon="7.7541112"><ele>585.1666666666667</ele><time>2026-04-18T16:16:28.585Z</time></trkpt><trkpt lat="44.3507463" lon="7.7540749"><ele>584.3333333333334</ele><time>2026-04-18T16:16:29.583Z</time></trkpt><trkpt lat="44.3508239" lon="7.7540552"><ele>583.5</ele><time>2026-04-18T16:16:30.583Z</time></trkpt><trkpt lat="44.3508995" lon="7.7540017"><ele>582.6666666666666</ele><time>2026-04-18T16:16:31.583Z</time></trkpt><trkpt lat="44.3509834" lon="7.7539664"><ele>581.8333333333333</ele><time>2026-04-18T16:16:32.584Z</time></trkpt><trkpt lat="44.3510564" lon="7.753915"><ele>581.0</ele><time>2026-04-18T16:16:33.585Z</time></trkpt><trkpt lat="44.3511364" lon="7.753843"><ele>581.0</ele><time>2026-04-18T16:16:34.584Z</time></trkpt><trkpt lat="44.3512119" lon="7.7537347"><ele>581.0</ele><time>2026-04-18T16:16:35.583Z</time></trkpt><trkpt lat="44.3512937" lon="7.7535875"><ele>581.0</ele><time>2026-04-18T16:16:36.584Z</time></trkpt><trkpt lat="44.3513796" lon="7.75343"><ele>581.0</ele><time>2026-04-18T16:16:37.584Z</time></trkpt><trkpt lat="44.3514707" lon="7.7532702"><ele>580.6666666666666</ele><time>2026-04-18T16:16:38.583Z</time></trkpt><trkpt lat="44.3515562" lon="7.7530914"><ele>580.3333333333334</ele><time>2026-04-18T16:16:39.584Z</time></trkpt><trkpt lat="44.3516474" lon="7.7529027"><ele>580.0</ele><time>2026-04-18T16:16:40.585Z</time></trkpt><trkpt lat="44.3517236" lon="7.7527345"><ele>580.5</ele><time>2026-04-18T16:16:41.584Z</time></trkpt><trkpt lat="44.3518066" lon="7.7525726"><ele>581.0</ele><time>2026-04-18T16:16:42.584Z</time></trkpt><trkpt lat="44.3518747" lon="7.7524132"><ele>581.5</ele><time>2026-04-18T16:16:43.583Z</time></trkpt><trkpt lat="44.3519402" lon="7.7522723"><ele>582.0</ele><time>2026-04-18T16:16:44.583Z</time></trkpt><trkpt lat="44.3519974" lon="7.7521352"><ele>582.0</ele><time>2026-04-18T16:16:45.584Z</time></trkpt><trkpt lat="44.3520523" lon="7.7520051"><ele>582.0</ele><time>2026-04-18T16:16:46.584Z</time></trkpt><trkpt lat="44.3520927" lon="7.75188"><ele>582.0</ele><time>2026-04-18T16:16:47.585Z</time></trkpt><trkpt lat="44.352117" lon="7.7517549"><ele>582.0</ele><time>2026-04-18T16:16:48.584Z</time></trkpt><trkpt lat="44.3521429" lon="7.7516267"><ele>582.0</ele><time>2026-04-18T16:16:49.583Z</time></trkpt><trkpt lat="44.352158" lon="7.7514669"><ele>582.75</ele><time>2026-04-18T16:16:50.583Z</time></trkpt><trkpt lat="44.3521779" lon="7.7513059"><ele>583.5</ele><time>2026-04-18T16:16:51.583Z</time></trkpt><trkpt lat="44.3522073" lon="7.7511497"><ele>584.25</ele><time>2026-04-18T16:16:52.584Z</time></trkpt><trkpt lat="44.3522432" lon="7.7510016"><ele>585.0</ele><time>2026-04-18T16:16:53.584Z</time></trkpt><trkpt lat="44.3522784" lon="7.7508573"><ele>583.0</ele><time>2026-04-18T16:16:54.585Z</time></trkpt><trkpt lat="44.3523022" lon="7.7507261"><ele>581.0</ele><time>2026-04-18T16:16:55.584Z</time></trkpt><trkpt lat="44.3523256" lon="7.7506025"><ele>579.0</ele><time>2026-04-18T16:16:56.584Z</time></trkpt><trkpt lat="44.3523265" lon="7.7504932"><ele>577.0</ele><time>2026-04-18T16:16:57.584Z</time></trkpt><trkpt lat="44.3523047" lon="7.7503886"><ele>575.0</ele><time>2026-04-18T16:16:58.584Z</time></trkpt><trkpt lat="44.3522664" lon="7.7503012"><ele>573.0</ele><time>2026-04-18T16:16:59.584Z</time></trkpt><trkpt lat="44.3522196" lon="7.7502334"><ele>572.8333333333334</ele><time>2026-04-18T16:17:00.583Z</time></trkpt><trkpt lat="44.3521722" lon="7.7501454"><ele>572.6666666666666</ele><time>2026-04-18T16:17:02.583Z</time></trkpt><trkpt lat="44.3520903" lon="7.7501256"><ele>572.5</ele><time>2026-04-18T16:17:05.583Z</time></trkpt><trkpt lat="44.3520228" lon="7.7501659"><ele>572.3333333333333</ele><time>2026-04-18T16:17:06.585Z</time></trkpt><trkpt lat="44.3519412" lon="7.7502293"><ele>572.1666666666666</ele><time>2026-04-18T16:17:07.584Z</time></trkpt><trkpt lat="44.3518536" lon="7.7502971"><ele>572.0</ele><time>2026-04-18T16:17:08.584Z</time></trkpt><trkpt lat="44.3517565" lon="7.7503734"><ele>573.5</ele><time>2026-04-18T16:17:09.583Z</time></trkpt><trkpt lat="44.3516453" lon="7.7504548"><ele>575.0</ele><time>2026-04-18T16:17:10.583Z</time></trkpt><trkpt lat="44.3515322" lon="7.7505384"><ele>576.5</ele><time>2026-04-18T16:17:11.583Z</time></trkpt><trkpt lat="44.3514088" lon="7.7506251"><ele>578.0</ele><time>2026-04-18T16:17:12.583Z</time></trkpt><trkpt lat="44.3512795" lon="7.7507218"><ele>578.0</ele><time>2026-04-18T16:17:13.584Z</time></trkpt><trkpt lat="44.3511482" lon="7.7508177"><ele>578.0</ele><time>2026-04-18T16:17:14.584Z</time></trkpt><trkpt lat="44.3510163" lon="7.75091"><ele>578.0</ele><time>2026-04-18T16:17:15.583Z</time></trkpt><trkpt lat="44.3508844" lon="7.7509851"><ele>578.0</ele><time>2026-04-18T16:17:16.584Z</time></trkpt><trkpt lat="44.3507494" lon="7.7510497"><ele>579.5</ele><time>2026-04-18T16:17:17.584Z</time></trkpt><trkpt lat="44.3506151" lon="7.7511186"><ele>581.0</ele><time>2026-04-18T16:17:18.583Z</time></trkpt><trkpt lat="44.3504864" lon="7.7512082"><ele>582.5</ele><time>2026-04-18T16:17:19.583Z</time></trkpt><trkpt lat="44.3503705" lon="7.751331"><ele>584.0</ele><time>2026-04-18T16:17:20.584Z</time></trkpt><trkpt lat="44.3502801" lon="7.7514534"><ele>584.0</ele><time>2026-04-18T16:17:21.583Z</time></trkpt><trkpt lat="44.3502016" lon="7.7515567"><ele>584.0</ele><time>2026-04-18T16:17:22.585Z</time></trkpt><trkpt lat="44.3501358" lon="7.7516262"><ele>584.0</ele><time>2026-04-18T16:17:23.584Z</time></trkpt><trkpt lat="44.3500579" lon="7.7516636"><ele>584.0</ele><time>2026-04-18T16:17:25.583Z</time></trkpt><trkpt lat="44.3500276" lon="7.7515466"><ele>584.0</ele><time>2026-04-18T16:17:28.583Z</time></trkpt><trkpt lat="44.3500115" lon="7.7514137"><ele>584.0</ele><time>2026-04-18T16:17:30.583Z</time></trkpt><trkpt lat="44.350017" lon="7.7512648"><ele>584.0</ele><time>2026-04-18T16:17:32.584Z</time></trkpt><trkpt lat="44.3500736" lon="7.7511387"><ele>584.0</ele><time>2026-04-18T16:17:34.585Z</time></trkpt><trkpt lat="44.3501424" lon="7.7510339"><ele>584.0</ele><time>2026-04-18T16:17:36.583Z</time></trkpt><trkpt lat="44.3502189" lon="7.7510128"><ele>584.0</ele><time>2026-04-18T16:17:38.584Z</time></trkpt><trkpt lat="44.3502919" lon="7.7510443"><ele>584.0</ele><time>2026-04-18T16:17:40.583Z</time></trkpt><trkpt lat="44.3503044" lon="7.751167"><ele>584.0</ele><time>2026-04-18T16:17:43.584Z</time></trkpt><trkpt lat="44.3502456" lon="7.7512237"><ele>584.0</ele><time>2026-04-18T16:17:44.584Z</time></trkpt><trkpt lat="44.3501847" lon="7.7512685"><ele>584.0</ele><time>2026-04-18T16:17:45.584Z</time></trkpt><trkpt lat="44.3501255" lon="7.7513218"><ele>584.0</ele><time>2026-04-18T16:17:46.584Z</time></trkpt><trkpt lat="44.3500689" lon="7.7513864"><ele>584.0</ele><time>2026-04-18T16:17:47.583Z</time></trkpt><trkpt lat="44.3500159" lon="7.7514901"><ele>584.0</ele><time>2026-04-18T16:17:49.584Z</time></trkpt><trkpt lat="44.3500148" lon="7.7516248"><ele>584.0</ele><time>2026-04-18T16:17:56.584Z</time></trkpt><trkpt lat="44.3499686" lon="7.7517555"><ele>584.0</ele><time>2026-04-18T16:17:58.584Z</time></trkpt><trkpt lat="44.3498752" lon="7.7518506"><ele>584.0</ele><time>2026-04-18T16:18:00.583Z</time></trkpt><trkpt lat="44.3497933" lon="7.7518783"><ele>584.0</ele><time>2026-04-18T16:18:01.583Z</time></trkpt><trkpt lat="44.3497305" lon="7.7519122"><ele>584.8333333333333</ele><time>2026-04-18T16:18:02.584Z</time></trkpt><trkpt lat="44.3496723" lon="7.7519539"><ele>585.6666666666666</ele><time>2026-04-18T16:18:03.585Z</time></trkpt><trkpt lat="44.349614" lon="7.7519905"><ele>586.5</ele><time>2026-04-18T16:18:04.583Z</time></trkpt><trkpt lat="44.3495422" lon="7.7520218"><ele>587.3333333333334</ele><time>2026-04-18T16:18:05.583Z</time></trkpt><trkpt lat="44.3494622" lon="7.7520631"><ele>588.1666666666667</ele><time>2026-04-18T16:18:06.583Z</time></trkpt><trkpt lat="44.3493832" lon="7.7520969"><ele>589.0</ele><time>2026-04-18T16:18:07.584Z</time></trkpt><trkpt lat="44.3493058" lon="7.7521249"><ele>589.0</ele><time>2026-04-18T16:18:08.584Z</time></trkpt><trkpt lat="44.3492377" lon="7.7521466"><ele>589.0</ele><time>2026-04-18T16:18:09.584Z</time></trkpt><trkpt lat="44.3491252" lon="7.7521598"><ele>589.0</ele><time>2026-04-18T16:18:11.583Z</time></trkpt><trkpt lat="44.349056" lon="7.7521378"><ele>589.0</ele><time>2026-04-18T16:18:14.585Z</time></trkpt><trkpt lat="44.3491506" lon="7.7522033"><ele>589.0</ele><time>2026-04-18T16:18:20.584Z</time></trkpt><trkpt lat="44.3492134" lon="7.7521726"><ele>589.0</ele><time>2026-04-18T16:18:21.583Z</time></trkpt><trkpt lat="44.3493288" lon="7.752126"><ele>589.0</ele><time>2026-04-18T16:18:23.584Z</time></trkpt><trkpt lat="44.349425" lon="7.7520957"><ele>589.0</ele><time>2026-04-18T16:18:25.585Z</time></trkpt><trkpt lat="44.3495008" lon="7.7520682"><ele>589.0</ele><time>2026-04-18T16:18:27.583Z</time></trkpt><trkpt lat="44.3495689" lon="7.7520356"><ele>589.0</ele><time>2026-04-18T16:18:28.583Z</time></trkpt><trkpt lat="44.349637" lon="7.7519973"><ele>589.0</ele><time>2026-04-18T16:18:29.583Z</time></trkpt><trkpt lat="44.3497065" lon="7.7519571"><ele>589.0</ele><time>2026-04-18T16:18:30.584Z</time></trkpt><trkpt lat="44.3497841" lon="7.75191"><ele>588.1666666666667</ele><time>2026-04-18T16:18:31.583Z</time></trkpt><trkpt lat="44.3498564" lon="7.7518698"><ele>587.3333333333334</ele><time>2026-04-18T16:18:32.583Z</time></trkpt><trkpt lat="44.3499229" lon="7.7518156"><ele>586.5</ele><time>2026-04-18T16:18:33.583Z</time></trkpt><trkpt lat="44.34998" lon="7.7517757"><ele>585.6666666666666</ele><time>2026-04-18T16:18:34.583Z</time></trkpt><trkpt lat="44.3500386" lon="7.7517239"><ele>584.8333333333333</ele><time>2026-04-18T16:18:36.584Z</time></trkpt><trkpt lat="44.3500295" lon="7.7515957"><ele>584.0</ele><time>2026-04-18T16:18:39.585Z</time></trkpt><trkpt lat="44.3499917" lon="7.7514239"><ele>584.0</ele><time>2026-04-18T16:18:41.584Z</time></trkpt><trkpt lat="44.3499794" lon="7.7512523"><ele>584.0</ele><time>2026-04-18T16:18:43.583Z</time></trkpt><trkpt lat="44.3499745" lon="7.7511565"><ele>584.0</ele><time>2026-04-18T16:18:44.584Z</time></trkpt><trkpt lat="44.3499695" lon="7.7510669"><ele>584.0</ele><time>2026-04-18T16:18:45.584Z</time></trkpt><trkpt lat="44.3499694" lon="7.7509069"><ele>584.0</ele><time>2026-04-18T16:18:47.584Z</time></trkpt><trkpt lat="44.3499667" lon="7.7508084"><ele>584.0</ele><time>2026-04-18T16:18:48.584Z</time></trkpt><trkpt lat="44.3499663" lon="7.7507115"><ele>583.5714285714286</ele><time>2026-04-18T16:18:49.584Z</time></trkpt><trkpt lat="44.349982" lon="7.7506093"><ele>583.1428571428571</ele><time>2026-04-18T16:18:50.584Z</time></trkpt><trkpt lat="44.3499907" lon="7.7505119"><ele>582.7142857142858</ele><time>2026-04-18T16:18:51.583Z</time></trkpt><trkpt lat="44.3500127" lon="7.7504118"><ele>582.2857142857142</ele><time>2026-04-18T16:18:52.583Z</time></trkpt><trkpt lat="44.3500354" lon="7.7503108"><ele>581.8571428571429</ele><time>2026-04-18T16:18:53.584Z</time></trkpt><trkpt lat="44.3500593" lon="7.7502211"><ele>581.4285714285714</ele><time>2026-04-18T16:18:54.584Z</time></trkpt><trkpt lat="44.3500756" lon="7.7501237"><ele>581.0</ele><time>2026-04-18T16:18:55.584Z</time></trkpt><trkpt lat="44.3500852" lon="7.7500352"><ele>580.6666666666666</ele><time>2026-04-18T16:18:56.583Z</time></trkpt><trkpt lat="44.3500929" lon="7.74994"><ele>580.3333333333333</ele><time>2026-04-18T16:18:57.585Z</time></trkpt><trkpt lat="44.350106" lon="7.7498399"><ele>580.0</ele><time>2026-04-18T16:18:58.584Z</time></trkpt><trkpt lat="44.3501113" lon="7.7497513"><ele>579.6666666666666</ele><time>2026-04-18T16:18:59.584Z</time></trkpt><trkpt lat="44.3501095" lon="7.7495921"><ele>579.3333333333334</ele><time>2026-04-18T16:19:01.584Z</time></trkpt><trkpt lat="44.3501077" lon="7.7494533"><ele>579.0</ele><time>2026-04-18T16:19:03.583Z</time></trkpt><trkpt lat="44.3501084" lon="7.7493367"><ele>578.4</ele><time>2026-04-18T16:19:05.583Z</time></trkpt><trkpt lat="44.3501125" lon="7.7492298"><ele>577.8</ele><time>2026-04-18T16:19:07.584Z</time></trkpt><trkpt lat="44.3501422" lon="7.7491023"><ele>577.2</ele><time>2026-04-18T16:19:09.583Z</time></trkpt><trkpt lat="44.3501755" lon="7.7489431"><ele>576.6</ele><time>2026-04-18T16:19:11.583Z</time></trkpt><trkpt lat="44.350205" lon="7.7488628"><ele>576.0</ele><time>2026-04-18T16:19:12.583Z</time></trkpt><trkpt lat="44.3502662" lon="7.7487066"><ele>576.0000000000001</ele><time>2026-04-18T16:19:14.584Z</time></trkpt><trkpt lat="44.3503031" lon="7.7486331"><ele>576.0</ele><time>2026-04-18T16:19:15.584Z</time></trkpt><trkpt lat="44.3503236" lon="7.7485467"><ele>576.0</ele><time>2026-04-18T16:19:16.583Z</time></trkpt><trkpt lat="44.3503578" lon="7.7484525"><ele>576.0</ele><time>2026-04-18T16:19:17.585Z</time></trkpt><trkpt lat="44.3503791" lon="7.7483567"><ele>576.0</ele><time>2026-04-18T16:19:18.583Z</time></trkpt><trkpt lat="44.3503973" lon="7.7482711"><ele>576.0000000000001</ele><time>2026-04-18T16:19:19.584Z</time></trkpt><trkpt lat="44.3504152" lon="7.7481718"><ele>576.0</ele><time>2026-04-18T16:19:20.583Z</time></trkpt><trkpt lat="44.3504594" lon="7.7480116"><ele>575.6666666666666</ele><time>2026-04-18T16:19:22.584Z</time></trkpt><trkpt lat="44.3504824" lon="7.7479246"><ele>575.3333333333334</ele><time>2026-04-18T16:19:23.584Z</time></trkpt><trkpt lat="44.3505228" lon="7.7477578"><ele>575.0</ele><time>2026-04-18T16:19:25.584Z</time></trkpt><trkpt lat="44.3505519" lon="7.7476746"><ele>574.6666666666667</ele><time>2026-04-18T16:19:26.584Z</time></trkpt><trkpt lat="44.3505804" lon="7.7475836"><ele>574.3333333333334</ele><time>2026-04-18T16:19:27.583Z</time></trkpt><trkpt lat="44.3506164" lon="7.7474855"><ele>574.0</ele><time>2026-04-18T16:19:28.583Z</time></trkpt><trkpt lat="44.3506511" lon="7.7473877"><ele>573.3333333333334</ele><time>2026-04-18T16:19:29.583Z</time></trkpt><trkpt lat="44.3506914" lon="7.7472785"><ele>572.6666666666667</ele><time>2026-04-18T16:19:30.584Z</time></trkpt><trkpt lat="44.3507313" lon="7.7471819"><ele>572.0</ele><time>2026-04-18T16:19:31.584Z</time></trkpt><trkpt lat="44.3507825" lon="7.7470901"><ele>571.3333333333334</ele><time>2026-04-18T16:19:32.584Z</time></trkpt><trkpt lat="44.3508357" lon="7.7469989"><ele>570.6666666666666</ele><time>2026-04-18T16:19:33.584Z</time></trkpt><trkpt lat="44.3508806" lon="7.7469022"><ele>570.0</ele><time>2026-04-18T16:19:34.584Z</time></trkpt><trkpt lat="44.3509339" lon="7.7468214"><ele>570.0</ele><time>2026-04-18T16:19:35.584Z</time></trkpt><trkpt lat="44.3509804" lon="7.7467219"><ele>570.0</ele><time>2026-04-18T16:19:36.584Z</time></trkpt><trkpt lat="44.3510246" lon="7.7466394"><ele>570.0</ele><time>2026-04-18T16:19:37.584Z</time></trkpt><trkpt lat="44.3510708" lon="7.7465704"><ele>570.0</ele><time>2026-04-18T16:19:38.584Z</time></trkpt><trkpt lat="44.3511167" lon="7.7464945"><ele>570.0</ele><time>2026-04-18T16:19:39.584Z</time></trkpt><trkpt lat="44.3511577" lon="7.7464121"><ele>570.0</ele><time>2026-04-18T16:19:40.584Z</time></trkpt><trkpt lat="44.3512033" lon="7.7463358"><ele>570.0</ele><time>2026-04-18T16:19:41.584Z</time></trkpt><trkpt lat="44.3512454" lon="7.7462623"><ele>570.0</ele><time>2026-04-18T16:19:42.583Z</time></trkpt><trkpt lat="44.3512889" lon="7.7461867"><ele>570.0</ele><time>2026-04-18T16:19:43.583Z</time></trkpt><trkpt lat="44.3513337" lon="7.7461154"><ele>570.0</ele><time>2026-04-18T16:19:44.584Z</time></trkpt><trkpt lat="44.351413" lon="7.7459846"><ele>570.0</ele><time>2026-04-18T16:19:46.583Z</time></trkpt><trkpt lat="44.3514809" lon="7.7458529"><ele>570.0</ele><time>2026-04-18T16:19:48.585Z</time></trkpt><trkpt lat="44.3515086" lon="7.7457733"><ele>570.0</ele><time>2026-04-18T16:19:49.583Z</time></trkpt><trkpt lat="44.3515263" lon="7.7456885"><ele>570.3333333333334</ele><time>2026-04-18T16:19:50.583Z</time></trkpt><trkpt lat="44.3515605" lon="7.7455113"><ele>570.6666666666666</ele><time>2026-04-18T16:19:52.583Z</time></trkpt><trkpt lat="44.3515713" lon="7.7454145"><ele>571.0</ele><time>2026-04-18T16:19:53.583Z</time></trkpt><trkpt lat="44.3515849" lon="7.7453143"><ele>571.3333333333333</ele><time>2026-04-18T16:19:54.584Z</time></trkpt><trkpt lat="44.3515974" lon="7.7452187"><ele>571.6666666666666</ele><time>2026-04-18T16:19:55.585Z</time></trkpt><trkpt lat="44.3516074" lon="7.745082"><ele>572.0</ele><time>2026-04-18T16:19:57.583Z</time></trkpt><trkpt lat="44.3516216" lon="7.7449817"><ele>572.5</ele><time>2026-04-18T16:20:01.583Z</time></trkpt><trkpt lat="44.3516053" lon="7.7448472"><ele>573.0</ele><time>2026-04-18T16:20:03.584Z</time></trkpt><trkpt lat="44.3516032" lon="7.7447556"><ele>573.5</ele><time>2026-04-18T16:20:04.584Z</time></trkpt><trkpt lat="44.3515971" lon="7.7445785"><ele>574.0</ele><time>2026-04-18T16:20:06.583Z</time></trkpt><trkpt lat="44.3515989" lon="7.7444884"><ele>574.5</ele><time>2026-04-18T16:20:07.583Z</time></trkpt><trkpt lat="44.3515927" lon="7.7443757"><ele>575.0</ele><time>2026-04-18T16:20:08.584Z</time></trkpt><trkpt lat="44.3515984" lon="7.7442778"><ele>575.4285714285714</ele><time>2026-04-18T16:20:09.583Z</time></trkpt><trkpt lat="44.3515992" lon="7.7441708"><ele>575.8571428571428</ele><time>2026-04-18T16:20:10.584Z</time></trkpt><trkpt lat="44.3516036" lon="7.7440646"><ele>576.2857142857142</ele><time>2026-04-18T16:20:11.584Z</time></trkpt><trkpt lat="44.351604" lon="7.7439612"><ele>576.7142857142857</ele><time>2026-04-18T16:20:12.584Z</time></trkpt><trkpt lat="44.3516076" lon="7.7438684"><ele>577.1428571428571</ele><time>2026-04-18T16:20:13.585Z</time></trkpt><trkpt lat="44.3516138" lon="7.7437803"><ele>577.5714285714286</ele><time>2026-04-18T16:20:14.584Z</time></trkpt><trkpt lat="44.3516207" lon="7.7436878"><ele>578.0</ele><time>2026-04-18T16:20:15.583Z</time></trkpt><trkpt lat="44.3516393" lon="7.7436004"><ele>578.8333333333333</ele><time>2026-04-18T16:20:16.583Z</time></trkpt><trkpt lat="44.3516543" lon="7.7435104"><ele>579.6666666666666</ele><time>2026-04-18T16:20:17.583Z</time></trkpt><trkpt lat="44.3516771" lon="7.7434227"><ele>580.5</ele><time>2026-04-18T16:20:18.583Z</time></trkpt><trkpt lat="44.3517462" lon="7.7432832"><ele>581.3333333333334</ele><time>2026-04-18T16:20:20.585Z</time></trkpt><trkpt lat="44.3518169" lon="7.7431319"><ele>582.1666666666667</ele><time>2026-04-18T16:20:22.583Z</time></trkpt><trkpt lat="44.3518528" lon="7.7430547"><ele>583.0</ele><time>2026-04-18T16:20:23.585Z</time></trkpt><trkpt lat="44.3519329" lon="7.7429052"><ele>583.0</ele><time>2026-04-18T16:20:25.584Z</time></trkpt><trkpt lat="44.3519794" lon="7.7427857"><ele>583.0</ele><time>2026-04-18T16:20:27.584Z</time></trkpt><trkpt lat="44.3519138" lon="7.7426946"><ele>583.0</ele><time>2026-04-18T16:20:30.584Z</time></trkpt><trkpt lat="44.3518512" lon="7.7426579"><ele>583.0</ele><time>2026-04-18T16:20:31.584Z</time></trkpt><trkpt lat="44.3517852" lon="7.742613"><ele>583.0</ele><time>2026-04-18T16:20:32.585Z</time></trkpt><trkpt lat="44.3517209" lon="7.7425685"><ele>583.0</ele><time>2026-04-18T16:20:33.584Z</time></trkpt><trkpt lat="44.3516111" lon="7.7425033"><ele>584.0</ele><time>2026-04-18T16:20:35.583Z</time></trkpt><trkpt lat="44.3515507" lon="7.742452"><ele>585.0</ele><time>2026-04-18T16:20:36.583Z</time></trkpt><trkpt lat="44.3514996" lon="7.742383"><ele>586.0</ele><time>2026-04-18T16:20:37.584Z</time></trkpt><trkpt lat="44.3514393" lon="7.7423129"><ele>587.0</ele><time>2026-04-18T16:20:38.585Z</time></trkpt><trkpt lat="44.3513638" lon="7.7422347"><ele>588.0</ele><time>2026-04-18T16:20:39.585Z</time></trkpt><trkpt lat="44.3512885" lon="7.7421628"><ele>589.0</ele><time>2026-04-18T16:20:40.583Z</time></trkpt><trkpt lat="44.3511979" lon="7.7420742"><ele>589.0</ele><time>2026-04-18T16:20:41.583Z</time></trkpt><trkpt lat="44.3510904" lon="7.7419834"><ele>589.0</ele><time>2026-04-18T16:20:42.584Z</time></trkpt><trkpt lat="44.3509919" lon="7.7418973"><ele>589.0</ele><time>2026-04-18T16:20:43.584Z</time></trkpt><trkpt lat="44.3508916" lon="7.7418109"><ele>589.0</ele><time>2026-04-18T16:20:44.583Z</time></trkpt><trkpt lat="44.350814" lon="7.7417382"><ele>589.4</ele><time>2026-04-18T16:20:45.584Z</time></trkpt><trkpt lat="44.3507206" lon="7.7416745"><ele>589.8</ele><time>2026-04-18T16:20:46.584Z</time></trkpt><trkpt lat="44.3506391" lon="7.7416442"><ele>590.2</ele><time>2026-04-18T16:20:47.583Z</time></trkpt><trkpt lat="44.3505503" lon="7.7416318"><ele>590.6</ele><time>2026-04-18T16:20:48.584Z</time></trkpt><trkpt lat="44.3504643" lon="7.7416403"><ele>591.0</ele><time>2026-04-18T16:20:49.583Z</time></trkpt><trkpt lat="44.3503649" lon="7.7417335"><ele>591.5</ele><time>2026-04-18T16:20:50.584Z</time></trkpt><trkpt lat="44.350269" lon="7.7418123"><ele>592.0</ele><time>2026-04-18T16:20:51.584Z</time></trkpt><trkpt lat="44.3501685" lon="7.7419308"><ele>592.5</ele><time>2026-04-18T16:20:52.584Z</time></trkpt><trkpt lat="44.3500831" lon="7.7420151"><ele>593.0</ele><time>2026-04-18T16:20:53.583Z</time></trkpt><trkpt lat="44.3500054" lon="7.742126"><ele>593.75</ele><time>2026-04-18T16:20:54.583Z</time></trkpt><trkpt lat="44.3498974" lon="7.7422066"><ele>594.5</ele><time>2026-04-18T16:20:55.583Z</time></trkpt><trkpt lat="44.3497958" lon="7.7423027"><ele>595.25</ele><time>2026-04-18T16:20:56.583Z</time></trkpt><trkpt lat="44.349647" lon="7.7424199"><ele>596.0</ele><time>2026-04-18T16:20:57.583Z</time></trkpt><trkpt lat="44.3495132" lon="7.7425393"><ele>596.3333333333333</ele><time>2026-04-18T16:20:58.585Z</time></trkpt><trkpt lat="44.349384" lon="7.7426745"><ele>596.6666666666666</ele><time>2026-04-18T16:20:59.584Z</time></trkpt><trkpt lat="44.3492463" lon="7.7427886"><ele>597.0</ele><time>2026-04-18T16:21:00.584Z</time></trkpt><trkpt lat="44.3491115" lon="7.7429095"><ele>597.0</ele><time>2026-04-18T16:21:01.583Z</time></trkpt><trkpt lat="44.349012" lon="7.7429862"><ele>597.0</ele><time>2026-04-18T16:21:02.583Z</time></trkpt><trkpt lat="44.3489141" lon="7.7430718"><ele>597.0</ele><time>2026-04-18T16:21:03.583Z</time></trkpt><trkpt lat="44.3488179" lon="7.7431538"><ele>597.0</ele><time>2026-04-18T16:21:04.584Z</time></trkpt><trkpt lat="44.3487343" lon="7.7431645"><ele>597.0</ele><time>2026-04-18T16:21:05.584Z</time></trkpt><trkpt lat="44.3486185" lon="7.743168"><ele>597.5</ele><time>2026-04-18T16:21:06.584Z</time></trkpt><trkpt lat="44.3484833" lon="7.743187"><ele>598.0</ele><time>2026-04-18T16:21:07.585Z</time></trkpt><trkpt lat="44.3483448" lon="7.7432044"><ele>598.5</ele><time>2026-04-18T16:21:08.583Z</time></trkpt><trkpt lat="44.3482011" lon="7.7431948"><ele>599.0</ele><time>2026-04-18T16:21:09.584Z</time></trkpt><trkpt lat="44.3480609" lon="7.7431747"><ele>599.0</ele><time>2026-04-18T16:21:10.583Z</time></trkpt><trkpt lat="44.3479307" lon="7.7431538"><ele>599.0</ele><time>2026-04-18T16:21:11.583Z</time></trkpt><trkpt lat="44.3478122" lon="7.7431064"><ele>599.0</ele><time>2026-04-18T16:21:12.584Z</time></trkpt><trkpt lat="44.347708" lon="7.743088"><ele>599.0</ele><time>2026-04-18T16:21:13.584Z</time></trkpt><trkpt lat="44.3476081" lon="7.743061"><ele>599.0</ele><time>2026-04-18T16:21:14.583Z</time></trkpt><trkpt lat="44.3474945" lon="7.7430463"><ele>599.0</ele><time>2026-04-18T16:21:15.584Z</time></trkpt><trkpt lat="44.3473785" lon="7.7430162"><ele>599.0</ele><time>2026-04-18T16:21:16.584Z</time></trkpt><trkpt lat="44.3472685" lon="7.742972"><ele>599.0</ele><time>2026-04-18T16:21:17.584Z</time></trkpt><trkpt lat="44.3471733" lon="7.742921"><ele>599.0</ele><time>2026-04-18T16:21:18.584Z</time></trkpt><trkpt lat="44.3470817" lon="7.7428639"><ele>599.5</ele><time>2026-04-18T16:21:19.584Z</time></trkpt><trkpt lat="44.3470051" lon="7.7428039"><ele>600.0</ele><time>2026-04-18T16:21:20.584Z</time></trkpt><trkpt lat="44.3469441" lon="7.7427559"><ele>600.5</ele><time>2026-04-18T16:21:21.584Z</time></trkpt><trkpt lat="44.3468809" lon="7.7427151"><ele>601.0</ele><time>2026-04-18T16:21:22.583Z</time></trkpt><trkpt lat="44.346812" lon="7.7426785"><ele>601.5</ele><time>2026-04-18T16:21:23.584Z</time></trkpt><trkpt lat="44.3467467" lon="7.7426337"><ele>602.0</ele><time>2026-04-18T16:21:24.584Z</time></trkpt><trkpt lat="44.3466719" lon="7.7425716"><ele>602.0</ele><time>2026-04-18T16:21:25.584Z</time></trkpt><trkpt lat="44.3465921" lon="7.7425022"><ele>602.0</ele><time>2026-04-18T16:21:26.583Z</time></trkpt><trkpt lat="44.3465106" lon="7.7424325"><ele>602.0</ele><time>2026-04-18T16:21:27.584Z</time></trkpt><trkpt lat="44.3464336" lon="7.7423701"><ele>602.0</ele><time>2026-04-18T16:21:28.584Z</time></trkpt><trkpt lat="44.3463575" lon="7.7422991"><ele>602.0</ele><time>2026-04-18T16:21:29.584Z</time></trkpt><trkpt lat="44.3462866" lon="7.7422313"><ele>601.8333333333333</ele><time>2026-04-18T16:21:30.584Z</time></trkpt><trkpt lat="44.3462148" lon="7.7421529"><ele>601.6666666666666</ele><time>2026-04-18T16:21:31.583Z</time></trkpt><trkpt lat="44.3461469" lon="7.7420723"><ele>601.5</ele><time>2026-04-18T16:21:32.584Z</time></trkpt><trkpt lat="44.3460839" lon="7.7419994"><ele>601.3333333333334</ele><time>2026-04-18T16:21:33.584Z</time></trkpt><trkpt lat="44.3460286" lon="7.741929"><ele>601.1666666666667</ele><time>2026-04-18T16:21:34.584Z</time></trkpt><trkpt lat="44.3459702" lon="7.7418677"><ele>601.0</ele><time>2026-04-18T16:21:35.583Z</time></trkpt><trkpt lat="44.3459025" lon="7.7417741"><ele>601.0</ele><time>2026-04-18T16:21:36.583Z</time></trkpt><trkpt lat="44.3458565" lon="7.7416997"><ele>601.0</ele><time>2026-04-18T16:21:37.584Z</time></trkpt><trkpt lat="44.3458014" lon="7.7416207"><ele>601.0</ele><time>2026-04-18T16:21:38.583Z</time></trkpt><trkpt lat="44.3457571" lon="7.7415436"><ele>601.0</ele><time>2026-04-18T16:21:39.584Z</time></trkpt><trkpt lat="44.3456691" lon="7.7414158"><ele>601.0</ele><time>2026-04-18T16:21:41.584Z</time></trkpt><trkpt lat="44.3455895" lon="7.7413189"><ele>599.5</ele><time>2026-04-18T16:21:43.585Z</time></trkpt><trkpt lat="44.3455259" lon="7.7413067"><ele>598.0</ele><time>2026-04-18T16:21:44.583Z</time></trkpt><trkpt lat="44.345461" lon="7.7414258"><ele>596.5</ele><time>2026-04-18T16:21:46.583Z</time></trkpt><trkpt lat="44.3453986" lon="7.7414821"><ele>595.0</ele><time>2026-04-18T16:21:48.585Z</time></trkpt><trkpt lat="44.3453319" lon="7.7415057"><ele>593.5</ele><time>2026-04-18T16:21:50.583Z</time></trkpt><trkpt lat="44.3452303" lon="7.7414108"><ele>592.0</ele><time>2026-04-18T16:21:52.583Z</time></trkpt><trkpt lat="44.3451492" lon="7.7413687"><ele>592.0</ele><time>2026-04-18T16:21:53.585Z</time></trkpt><trkpt lat="44.3450506" lon="7.7413124"><ele>592.0</ele><time>2026-04-18T16:21:54.584Z</time></trkpt><trkpt lat="44.3449667" lon="7.7412372"><ele>592.0</ele><time>2026-04-18T16:21:55.584Z</time></trkpt><trkpt lat="44.344893" lon="7.7411617"><ele>592.0</ele><time>2026-04-18T16:21:56.584Z</time></trkpt><trkpt lat="44.3448212" lon="7.7410423"><ele>592.0</ele><time>2026-04-18T16:21:57.583Z</time></trkpt><trkpt lat="44.3447309" lon="7.7409314"><ele>591.2</ele><time>2026-04-18T16:21:58.583Z</time></trkpt><trkpt lat="44.3446505" lon="7.7408222"><ele>590.4000000000001</ele><time>2026-04-18T16:21:59.583Z</time></trkpt><trkpt lat="44.3445533" lon="7.740731"><ele>589.5999999999999</ele><time>2026-04-18T16:22:00.585Z</time></trkpt><trkpt lat="44.3444688" lon="7.7406821"><ele>588.8</ele><time>2026-04-18T16:22:01.584Z</time></trkpt><trkpt lat="44.3443803" lon="7.7406482"><ele>588.0</ele><time>2026-04-18T16:22:02.584Z</time></trkpt><trkpt lat="44.3443096" lon="7.7406201"><ele>588.0</ele><time>2026-04-18T16:22:03.583Z</time></trkpt><trkpt lat="44.3442432" lon="7.7406339"><ele>588.0</ele><time>2026-04-18T16:22:04.584Z</time></trkpt><trkpt lat="44.3441309" lon="7.7407034"><ele>588.0</ele><time>2026-04-18T16:22:05.583Z</time></trkpt><trkpt lat="44.3440567" lon="7.7407499"><ele>588.0</ele><time>2026-04-18T16:22:06.583Z</time></trkpt><trkpt lat="44.3439672" lon="7.7408355"><ele>588.0</ele><time>2026-04-18T16:22:07.584Z</time></trkpt><trkpt lat="44.3438606" lon="7.7408787"><ele>588.6</ele><time>2026-04-18T16:22:08.584Z</time></trkpt><trkpt lat="44.3437682" lon="7.740962"><ele>589.1999999999999</ele><time>2026-04-18T16:22:09.584Z</time></trkpt><trkpt lat="44.3437049" lon="7.7410198"><ele>589.8</ele><time>2026-04-18T16:22:10.584Z</time></trkpt><trkpt lat="44.3436412" lon="7.7410856"><ele>590.4</ele><time>2026-04-18T16:22:11.584Z</time></trkpt><trkpt lat="44.3436369" lon="7.7412642"><ele>591.0</ele><time>2026-04-18T16:22:13.583Z</time></trkpt><trkpt lat="44.3436859" lon="7.7413742"><ele>591.0</ele><time>2026-04-18T16:22:14.583Z</time></trkpt><trkpt lat="44.3437089" lon="7.7414861"><ele>591.0</ele><time>2026-04-18T16:22:15.584Z</time></trkpt><trkpt lat="44.3437171" lon="7.741623"><ele>591.0</ele><time>2026-04-18T16:22:16.584Z</time></trkpt><trkpt lat="44.343735" lon="7.741726"><ele>591.0</ele><time>2026-04-18T16:22:17.583Z</time></trkpt><trkpt lat="44.3437386" lon="7.7418267"><ele>591.0</ele><time>2026-04-18T16:22:18.583Z</time></trkpt><trkpt lat="44.3437149" lon="7.7419085"><ele>591.0</ele><time>2026-04-18T16:22:19.583Z</time></trkpt><trkpt lat="44.3436553" lon="7.7419577"><ele>591.0</ele><time>2026-04-18T16:22:21.584Z</time></trkpt><trkpt lat="44.3435698" lon="7.7418439"><ele>591.0</ele><time>2026-04-18T16:22:23.584Z</time></trkpt><trkpt lat="44.3435199" lon="7.7417461"><ele>591.0</ele><time>2026-04-18T16:22:24.583Z</time></trkpt><trkpt lat="44.343472" lon="7.7416401"><ele>591.0</ele><time>2026-04-18T16:22:25.583Z</time></trkpt><trkpt lat="44.3433998" lon="7.7415165"><ele>591.0</ele><time>2026-04-18T16:22:26.584Z</time></trkpt><trkpt lat="44.3433251" lon="7.7414185"><ele>591.0</ele><time>2026-04-18T16:22:27.584Z</time></trkpt><trkpt lat="44.3432285" lon="7.7413446"><ele>591.0</ele><time>2026-04-18T16:22:28.585Z</time></trkpt><trkpt lat="44.3430992" lon="7.7413197"><ele>591.0</ele><time>2026-04-18T16:22:29.584Z</time></trkpt><trkpt lat="44.342985" lon="7.7412956"><ele>591.0</ele><time>2026-04-18T16:22:30.584Z</time></trkpt><trkpt lat="44.3428029" lon="7.7413359"><ele>592.6666666666666</ele><time>2026-04-18T16:22:31.585Z</time></trkpt><trkpt lat="44.3426412" lon="7.7413444"><ele>594.3333333333333</ele><time>2026-04-18T16:22:32.585Z</time></trkpt><trkpt lat="44.3424908" lon="7.7413592"><ele>596.0</ele><time>2026-04-18T16:22:33.583Z</time></trkpt><trkpt lat="44.3423455" lon="7.7413905"><ele>595.5</ele><time>2026-04-18T16:22:34.583Z</time></trkpt><trkpt lat="44.3422013" lon="7.7413929"><ele>595.0</ele><time>2026-04-18T16:22:35.584Z</time></trkpt><trkpt lat="44.3420629" lon="7.7413779"><ele>594.5</ele><time>2026-04-18T16:22:36.584Z</time></trkpt><trkpt lat="44.3419412" lon="7.741359"><ele>594.0</ele><time>2026-04-18T16:22:37.583Z</time></trkpt><trkpt lat="44.341836" lon="7.7413069"><ele>594.0</ele><time>2026-04-18T16:22:38.584Z</time></trkpt><trkpt lat="44.3417682" lon="7.7412501"><ele>594.0</ele><time>2026-04-18T16:22:39.585Z</time></trkpt><trkpt lat="44.3418111" lon="7.7411554"><ele>594.0</ele><time>2026-04-18T16:22:40.584Z</time></trkpt><trkpt lat="44.3418825" lon="7.7409925"><ele>594.0</ele><time>2026-04-18T16:22:42.583Z</time></trkpt><trkpt lat="44.3419494" lon="7.7409019"><ele>594.0</ele><time>2026-04-18T16:22:43.583Z</time></trkpt><trkpt lat="44.3420364" lon="7.7408085"><ele>593.4</ele><time>2026-04-18T16:22:44.583Z</time></trkpt><trkpt lat="44.3421273" lon="7.7406944"><ele>592.8</ele><time>2026-04-18T16:22:45.583Z</time></trkpt><trkpt lat="44.3422142" lon="7.7406109"><ele>592.2</ele><time>2026-04-18T16:22:46.583Z</time></trkpt><trkpt lat="44.3422976" lon="7.7405129"><ele>591.6</ele><time>2026-04-18T16:22:47.583Z</time></trkpt><trkpt lat="44.3423817" lon="7.7404159"><ele>591.0</ele><time>2026-04-18T16:22:48.584Z</time></trkpt><trkpt lat="44.3424222" lon="7.7402588"><ele>590.8</ele><time>2026-04-18T16:22:50.584Z</time></trkpt><trkpt lat="44.3424338" lon="7.7401158"><ele>590.6</ele><time>2026-04-18T16:22:52.584Z</time></trkpt><trkpt lat="44.342452" lon="7.7400215"><ele>590.4</ele><time>2026-04-18T16:22:55.584Z</time></trkpt><trkpt lat="44.3424822" lon="7.7398955"><ele>590.2</ele><time>2026-04-18T16:22:58.584Z</time></trkpt><trkpt lat="44.3425142" lon="7.7397484"><ele>590.0</ele><time>2026-04-18T16:23:00.583Z</time></trkpt><trkpt lat="44.3425581" lon="7.7395957"><ele>590.0</ele><time>2026-04-18T16:23:02.585Z</time></trkpt><trkpt lat="44.3425703" lon="7.7394906"><ele>590.0</ele><time>2026-04-18T16:23:03.583Z</time></trkpt><trkpt lat="44.3425828" lon="7.7393798"><ele>590.0</ele><time>2026-04-18T16:23:04.583Z</time></trkpt><trkpt lat="44.3425956" lon="7.739282"><ele>590.0</ele><time>2026-04-18T16:23:05.584Z</time></trkpt><trkpt lat="44.3425713" lon="7.7394073"><ele>590.0</ele><time>2026-04-18T16:23:20.583Z</time></trkpt><trkpt lat="44.3425528" lon="7.7395085"><ele>590.0</ele><time>2026-04-18T16:23:21.583Z</time></trkpt><trkpt lat="44.3425225" lon="7.7396114"><ele>590.0</ele><time>2026-04-18T16:23:22.583Z</time></trkpt><trkpt lat="44.3424929" lon="7.7396991"><ele>590.0</ele><time>2026-04-18T16:23:23.584Z</time></trkpt><trkpt lat="44.3424581" lon="7.7398432"><ele>590.0</ele><time>2026-04-18T16:23:25.583Z</time></trkpt><trkpt lat="44.342465" lon="7.7399312"><ele>590.0</ele><time>2026-04-18T16:23:27.585Z</time></trkpt><trkpt lat="44.3425334" lon="7.7399269"><ele>590.0</ele><time>2026-04-18T16:23:29.584Z</time></trkpt><trkpt lat="44.3426397" lon="7.73985"><ele>590.0</ele><time>2026-04-18T16:23:31.584Z</time></trkpt><trkpt lat="44.3427095" lon="7.7398088"><ele>590.0</ele><time>2026-04-18T16:23:32.584Z</time></trkpt><trkpt lat="44.3427915" lon="7.7397552"><ele>590.0</ele><time>2026-04-18T16:23:33.583Z</time></trkpt><trkpt lat="44.3428773" lon="7.7396993"><ele>590.0</ele><time>2026-04-18T16:23:34.583Z</time></trkpt><trkpt lat="44.342961" lon="7.7396407"><ele>590.0</ele><time>2026-04-18T16:23:35.584Z</time></trkpt><trkpt lat="44.3430454" lon="7.7395685"><ele>590.0</ele><time>2026-04-18T16:23:36.584Z</time></trkpt><trkpt lat="44.3431372" lon="7.7395035"><ele>589.0</ele><time>2026-04-18T16:23:37.585Z</time></trkpt><trkpt lat="44.3432192" lon="7.7394285"><ele>588.0</ele><time>2026-04-18T16:23:38.585Z</time></trkpt><trkpt lat="44.3432909" lon="7.739366"><ele>587.0</ele><time>2026-04-18T16:23:39.584Z</time></trkpt><trkpt lat="44.3433771" lon="7.7393264"><ele>586.0</ele><time>2026-04-18T16:23:40.584Z</time></trkpt><trkpt lat="44.3434621" lon="7.7392612"><ele>585.0</ele><time>2026-04-18T16:23:41.583Z</time></trkpt><trkpt lat="44.3435656" lon="7.7392667"><ele>585.0</ele><time>2026-04-18T16:23:42.584Z</time></trkpt><trkpt lat="44.343667" lon="7.7392423"><ele>585.0</ele><time>2026-04-18T16:23:43.583Z</time></trkpt><trkpt lat="44.3437596" lon="7.7391834"><ele>585.0</ele><time>2026-04-18T16:23:44.584Z</time></trkpt><trkpt lat="44.3438534" lon="7.7391166"><ele>585.0</ele><time>2026-04-18T16:23:45.583Z</time></trkpt><trkpt lat="44.3439368" lon="7.7390468"><ele>585.0</ele><time>2026-04-18T16:23:46.584Z</time></trkpt><trkpt lat="44.3440142" lon="7.7389819"><ele>583.6</ele><time>2026-04-18T16:23:47.583Z</time></trkpt><trkpt lat="44.3440662" lon="7.738905"><ele>582.2</ele><time>2026-04-18T16:23:48.583Z</time></trkpt><trkpt lat="44.3440996" lon="7.738813"><ele>580.8</ele><time>2026-04-18T16:23:49.584Z</time></trkpt><trkpt lat="44.344155" lon="7.7387546"><ele>579.4</ele><time>2026-04-18T16:23:50.585Z</time></trkpt><trkpt lat="44.3442629" lon="7.7386672"><ele>578.0</ele><time>2026-04-18T16:23:52.584Z</time></trkpt><trkpt lat="44.3444309" lon="7.7386084"><ele>578.0</ele><time>2026-04-18T16:23:54.583Z</time></trkpt><trkpt lat="44.344505" lon="7.7385532"><ele>578.0</ele><time>2026-04-18T16:23:55.583Z</time></trkpt><trkpt lat="44.3446019" lon="7.7385225"><ele>578.0</ele><time>2026-04-18T16:23:56.584Z</time></trkpt><trkpt lat="44.3446971" lon="7.7384463"><ele>578.0</ele><time>2026-04-18T16:23:57.584Z</time></trkpt><trkpt lat="44.3448082" lon="7.7383689"><ele>578.0</ele><time>2026-04-18T16:23:58.585Z</time></trkpt><trkpt lat="44.3449312" lon="7.7382593"><ele>577.5</ele><time>2026-04-18T16:23:59.584Z</time></trkpt><trkpt lat="44.3450392" lon="7.7381757"><ele>577.0</ele><time>2026-04-18T16:24:00.583Z</time></trkpt><trkpt lat="44.3451722" lon="7.7380897"><ele>576.5</ele><time>2026-04-18T16:24:01.584Z</time></trkpt><trkpt lat="44.345289" lon="7.7379542"><ele>576.0</ele><time>2026-04-18T16:24:02.584Z</time></trkpt><trkpt lat="44.3453692" lon="7.7378496"><ele>576.0</ele><time>2026-04-18T16:24:04.583Z</time></trkpt><trkpt lat="44.3454335" lon="7.7377749"><ele>576.0</ele><time>2026-04-18T16:24:05.583Z</time></trkpt><trkpt lat="44.3455219" lon="7.737753"><ele>576.0</ele><time>2026-04-18T16:24:06.583Z</time></trkpt><trkpt lat="44.345583" lon="7.7376813"><ele>576.0</ele><time>2026-04-18T16:24:07.583Z</time></trkpt><trkpt lat="44.3456628" lon="7.73763"><ele>576.0</ele><time>2026-04-18T16:24:08.584Z</time></trkpt><trkpt lat="44.3457222" lon="7.7375755"><ele>576.0</ele><time>2026-04-18T16:24:09.583Z</time></trkpt><trkpt lat="44.3458023" lon="7.7375156"><ele>575.6</ele><time>2026-04-18T16:24:10.583Z</time></trkpt><trkpt lat="44.3458972" lon="7.7374574"><ele>575.2</ele><time>2026-04-18T16:24:11.584Z</time></trkpt><trkpt lat="44.3459461" lon="7.7373804"><ele>574.8</ele><time>2026-04-18T16:24:13.584Z</time></trkpt><trkpt lat="44.3459904" lon="7.7372741"><ele>574.4</ele><time>2026-04-18T16:24:15.585Z</time></trkpt><trkpt lat="44.345978" lon="7.7370914"><ele>574.0</ele><time>2026-04-18T16:24:17.583Z</time></trkpt><trkpt lat="44.3459797" lon="7.7369725"><ele>575.1666666666667</ele><time>2026-04-18T16:24:18.583Z</time></trkpt><trkpt lat="44.3459899" lon="7.7368791"><ele>576.3333333333334</ele><time>2026-04-18T16:24:19.584Z</time></trkpt><trkpt lat="44.3460202" lon="7.7367999"><ele>577.5</ele><time>2026-04-18T16:24:20.583Z</time></trkpt><trkpt lat="44.3460779" lon="7.7367278"><ele>578.6666666666666</ele><time>2026-04-18T16:24:21.583Z</time></trkpt><trkpt lat="44.346132" lon="7.7366424"><ele>579.8333333333333</ele><time>2026-04-18T16:24:22.583Z</time></trkpt><trkpt lat="44.3462118" lon="7.7366036"><ele>581.0</ele><time>2026-04-18T16:24:23.584Z</time></trkpt><trkpt lat="44.3462941" lon="7.7365795"><ele>581.0</ele><time>2026-04-18T16:24:24.583Z</time></trkpt><trkpt lat="44.3463774" lon="7.7365413"><ele>581.0</ele><time>2026-04-18T16:24:25.585Z</time></trkpt><trkpt lat="44.3464444" lon="7.7364652"><ele>581.0</ele><time>2026-04-18T16:24:26.583Z</time></trkpt><trkpt lat="44.3464991" lon="7.7363424"><ele>581.0</ele><time>2026-04-18T16:24:27.583Z</time></trkpt><trkpt lat="44.3465779" lon="7.7362036"><ele>581.0</ele><time>2026-04-18T16:24:28.585Z</time></trkpt><trkpt lat="44.3466432" lon="7.7361198"><ele>581.0</ele><time>2026-04-18T16:24:29.583Z</time></trkpt><trkpt lat="44.3467097" lon="7.7360095"><ele>581.0</ele><time>2026-04-18T16:24:30.585Z</time></trkpt><trkpt lat="44.3467629" lon="7.7359035"><ele>581.0</ele><time>2026-04-18T16:24:31.584Z</time></trkpt><trkpt lat="44.3468259" lon="7.7357778"><ele>581.0</ele><time>2026-04-18T16:24:32.583Z</time></trkpt><trkpt lat="44.3468817" lon="7.7356679"><ele>581.0</ele><time>2026-04-18T16:24:33.583Z</time></trkpt><trkpt lat="44.3469514" lon="7.7355537"><ele>581.0</ele><time>2026-04-18T16:24:34.583Z</time></trkpt><trkpt lat="44.3470123" lon="7.7353982"><ele>581.0</ele><time>2026-04-18T16:24:35.584Z</time></trkpt><trkpt lat="44.3470757" lon="7.7352321"><ele>581.0</ele><time>2026-04-18T16:24:36.584Z</time></trkpt><trkpt lat="44.3471412" lon="7.7350711"><ele>581.0</ele><time>2026-04-18T16:24:37.585Z</time></trkpt><trkpt lat="44.3471727" lon="7.7349764"><ele>582.4</ele><time>2026-04-18T16:24:38.584Z</time></trkpt><trkpt lat="44.347208" lon="7.7348371"><ele>583.8</ele><time>2026-04-18T16:24:39.585Z</time></trkpt><trkpt lat="44.3472061" lon="7.7347416"><ele>585.1999999999999</ele><time>2026-04-18T16:24:41.584Z</time></trkpt><trkpt lat="44.3471735" lon="7.7346124"><ele>586.6</ele><time>2026-04-18T16:24:43.584Z</time></trkpt><trkpt lat="44.3471318" lon="7.7345297"><ele>588.0</ele><time>2026-04-18T16:24:44.583Z</time></trkpt><trkpt lat="44.3470448" lon="7.7343738"><ele>588.8</ele><time>2026-04-18T16:24:46.583Z</time></trkpt><trkpt lat="44.3469875" lon="7.7342909"><ele>589.5999999999999</ele><time>2026-04-18T16:24:47.584Z</time></trkpt><trkpt lat="44.3469237" lon="7.7341787"><ele>590.4000000000001</ele><time>2026-04-18T16:24:48.584Z</time></trkpt><trkpt lat="44.3468694" lon="7.7340512"><ele>591.2</ele><time>2026-04-18T16:24:49.583Z</time></trkpt><trkpt lat="44.346822" lon="7.7339337"><ele>592.0</ele><time>2026-04-18T16:24:50.583Z</time></trkpt><trkpt lat="44.3467572" lon="7.73382"><ele>592.0</ele><time>2026-04-18T16:24:51.583Z</time></trkpt><trkpt lat="44.3466838" lon="7.7337156"><ele>592.0</ele><time>2026-04-18T16:24:52.583Z</time></trkpt><trkpt lat="44.3466223" lon="7.7336105"><ele>592.0</ele><time>2026-04-18T16:24:53.585Z</time></trkpt><trkpt lat="44.3465856" lon="7.7335307"><ele>592.0</ele><time>2026-04-18T16:24:54.584Z</time></trkpt><trkpt lat="44.3465477" lon="7.733363"><ele>592.0</ele><time>2026-04-18T16:24:56.584Z</time></trkpt><trkpt lat="44.3465737" lon="7.7331971"><ele>592.0</ele><time>2026-04-18T16:24:58.584Z</time></trkpt><trkpt lat="44.3466008" lon="7.7331053"><ele>592.0</ele><time>2026-04-18T16:24:59.584Z</time></trkpt><trkpt lat="44.3466435" lon="7.7330104"><ele>592.0</ele><time>2026-04-18T16:25:00.584Z</time></trkpt><trkpt lat="44.3466894" lon="7.732912"><ele>592.0</ele><time>2026-04-18T16:25:01.584Z</time></trkpt><trkpt lat="44.3467272" lon="7.7328416"><ele>592.0</ele><time>2026-04-18T16:25:02.584Z</time></trkpt><trkpt lat="44.3467727" lon="7.7327379"><ele>592.0</ele><time>2026-04-18T16:25:03.583Z</time></trkpt><trkpt lat="44.3467675" lon="7.7325946"><ele>594.4</ele><time>2026-04-18T16:25:04.584Z</time></trkpt><trkpt lat="44.3467865" lon="7.7324601"><ele>596.8000000000001</ele><time>2026-04-18T16:25:05.583Z</time></trkpt><trkpt lat="44.3468007" lon="7.7323352"><ele>599.2</ele><time>2026-04-18T16:25:06.583Z</time></trkpt><trkpt lat="44.3468333" lon="7.7321973"><ele>601.6</ele><time>2026-04-18T16:25:07.584Z</time></trkpt><trkpt lat="44.3468798" lon="7.73199"><ele>604.0</ele><time>2026-04-18T16:25:09.583Z</time></trkpt><trkpt lat="44.3468498" lon="7.7318769"><ele>605.0</ele><time>2026-04-18T16:25:10.585Z</time></trkpt><trkpt lat="44.3468421" lon="7.7317455"><ele>606.0</ele><time>2026-04-18T16:25:11.584Z</time></trkpt><trkpt lat="44.3468332" lon="7.731625"><ele>607.0</ele><time>2026-04-18T16:25:12.584Z</time></trkpt><trkpt lat="44.3468071" lon="7.7315132"><ele>608.0</ele><time>2026-04-18T16:25:13.583Z</time></trkpt><trkpt lat="44.3468085" lon="7.7313793"><ele>609.0</ele><time>2026-04-18T16:25:15.584Z</time></trkpt><trkpt lat="44.3468644" lon="7.7312516"><ele>609.0</ele><time>2026-04-18T16:25:17.583Z</time></trkpt><trkpt lat="44.3469138" lon="7.7311062"><ele>609.0</ele><time>2026-04-18T16:25:19.583Z</time></trkpt><trkpt lat="44.3469209" lon="7.7309887"><ele>609.0</ele><time>2026-04-18T16:25:21.585Z</time></trkpt><trkpt lat="44.3468919" lon="7.730878"><ele>609.0</ele><time>2026-04-18T16:25:23.583Z</time></trkpt><trkpt lat="44.3468514" lon="7.7308065"><ele>609.0</ele><time>2026-04-18T16:25:24.584Z</time></trkpt><trkpt lat="44.3468047" lon="7.7306718"><ele>608.8333333333334</ele><time>2026-04-18T16:25:26.584Z</time></trkpt><trkpt lat="44.3467952" lon="7.7305796"><ele>608.6666666666666</ele><time>2026-04-18T16:25:27.583Z</time></trkpt><trkpt lat="44.3468101" lon="7.7304786"><ele>608.5</ele><time>2026-04-18T16:25:28.584Z</time></trkpt><trkpt lat="44.3468043" lon="7.7303884"><ele>608.3333333333333</ele><time>2026-04-18T16:25:29.583Z</time></trkpt><trkpt lat="44.3468151" lon="7.7302952"><ele>608.1666666666666</ele><time>2026-04-18T16:25:30.584Z</time></trkpt><trkpt lat="44.3468692" lon="7.7301645"><ele>608.0</ele><time>2026-04-18T16:25:32.584Z</time></trkpt><trkpt lat="44.3468947" lon="7.7300018"><ele>609.1666666666666</ele><time>2026-04-18T16:25:34.583Z</time></trkpt><trkpt lat="44.346916" lon="7.7298902"><ele>610.3333333333333</ele><time>2026-04-18T16:25:36.585Z</time></trkpt><trkpt lat="44.3469216" lon="7.7297618"><ele>611.5</ele><time>2026-04-18T16:25:38.583Z</time></trkpt><trkpt lat="44.3469492" lon="7.7296176"><ele>612.6666666666666</ele><time>2026-04-18T16:25:40.583Z</time></trkpt><trkpt lat="44.3469257" lon="7.7294989"><ele>613.8333333333334</ele><time>2026-04-18T16:25:42.584Z</time></trkpt><trkpt lat="44.3469348" lon="7.7294031"><ele>615.0</ele><time>2026-04-18T16:25:44.583Z</time></trkpt><trkpt lat="44.3469039" lon="7.7292828"><ele>616.6</ele><time>2026-04-18T16:25:47.583Z</time></trkpt><trkpt lat="44.3469231" lon="7.7290802"><ele>618.2</ele><time>2026-04-18T16:25:49.585Z</time></trkpt><trkpt lat="44.3469199" lon="7.7289611"><ele>619.8</ele><time>2026-04-18T16:25:50.584Z</time></trkpt><trkpt lat="44.3468751" lon="7.7288208"><ele>621.4</ele><time>2026-04-18T16:25:52.584Z</time></trkpt><trkpt lat="44.346864" lon="7.7287241"><ele>623.0</ele><time>2026-04-18T16:25:53.583Z</time></trkpt><trkpt lat="44.3468439" lon="7.7286287"><ele>622.8333333333333</ele><time>2026-04-18T16:25:54.584Z</time></trkpt><trkpt lat="44.3468132" lon="7.7285333"><ele>622.6666666666666</ele><time>2026-04-18T16:26:07.583Z</time></trkpt><trkpt lat="44.346842" lon="7.7284522"><ele>622.5</ele><time>2026-04-18T16:26:28.585Z</time></trkpt><trkpt lat="44.3469037" lon="7.7283859"><ele>622.3333333333334</ele><time>2026-04-18T16:26:45.585Z</time></trkpt><trkpt lat="44.3469083" lon="7.7282683"><ele>622.1666666666667</ele><time>2026-04-18T16:26:47.584Z</time></trkpt><trkpt lat="44.3468775" lon="7.7281113"><ele>622.0</ele><time>2026-04-18T16:26:49.584Z</time></trkpt><trkpt lat="44.3468333" lon="7.7279987"><ele>622.0</ele><time>2026-04-18T16:26:50.583Z</time></trkpt><trkpt lat="44.3468137" lon="7.7279138"><ele>622.0</ele><time>2026-04-18T16:26:51.583Z</time></trkpt><trkpt lat="44.34682" lon="7.7277511"><ele>622.0</ele><time>2026-04-18T16:26:53.585Z</time></trkpt><trkpt lat="44.3468098" lon="7.7275902"><ele>622.0</ele><time>2026-04-18T16:26:55.584Z</time></trkpt><trkpt lat="44.3468059" lon="7.7274585"><ele>622.0</ele><time>2026-04-18T16:26:57.583Z</time></trkpt><trkpt lat="44.3468236" lon="7.7272513"><ele>620.8333333333334</ele><time>2026-04-18T16:26:59.583Z</time></trkpt><trkpt lat="44.3468221" lon="7.7271403"><ele>619.6666666666667</ele><time>2026-04-18T16:27:00.584Z</time></trkpt><trkpt lat="44.3468286" lon="7.7270324"><ele>618.5</ele><time>2026-04-18T16:27:01.583Z</time></trkpt><trkpt lat="44.3468143" lon="7.726932"><ele>617.3333333333334</ele><time>2026-04-18T16:27:02.583Z</time></trkpt><trkpt lat="44.3468091" lon="7.7268265"><ele>616.1666666666666</ele><time>2026-04-18T16:27:03.584Z</time></trkpt><trkpt lat="44.3467836" lon="7.7266705"><ele>615.0</ele><time>2026-04-18T16:27:05.584Z</time></trkpt><trkpt lat="44.3467791" lon="7.7265427"><ele>614.4</ele><time>2026-04-18T16:27:07.584Z</time></trkpt><trkpt lat="44.3467834" lon="7.72645"><ele>613.8</ele><time>2026-04-18T16:27:09.584Z</time></trkpt><trkpt lat="44.3467904" lon="7.7263405"><ele>613.2</ele><time>2026-04-18T16:27:12.583Z</time></trkpt><trkpt lat="44.3467985" lon="7.7262066"><ele>612.6</ele><time>2026-04-18T16:27:14.584Z</time></trkpt><trkpt lat="44.3467822" lon="7.7260689"><ele>612.0</ele><time>2026-04-18T16:27:16.584Z</time></trkpt><trkpt lat="44.3467702" lon="7.7258956"><ele>610.8000000000001</ele><time>2026-04-18T16:27:18.585Z</time></trkpt><trkpt lat="44.3467455" lon="7.7257998"><ele>609.6</ele><time>2026-04-18T16:27:19.584Z</time></trkpt><trkpt lat="44.346731" lon="7.7256621"><ele>608.4000000000001</ele><time>2026-04-18T16:27:21.583Z</time></trkpt><trkpt lat="44.3467052" lon="7.7255196"><ele>607.2</ele><time>2026-04-18T16:27:24.584Z</time></trkpt><trkpt lat="44.3466556" lon="7.7253558"><ele>606.0</ele><time>2026-04-18T16:27:26.584Z</time></trkpt><trkpt lat="44.3466079" lon="7.7252479"><ele>604.8</ele><time>2026-04-18T16:27:27.583Z</time></trkpt><trkpt lat="44.3465803" lon="7.7250784"><ele>603.6</ele><time>2026-04-18T16:27:29.584Z</time></trkpt><trkpt lat="44.3465438" lon="7.724994"><ele>602.4</ele><time>2026-04-18T16:27:30.584Z</time></trkpt><trkpt lat="44.3464776" lon="7.7248261"><ele>601.2</ele><time>2026-04-18T16:27:32.585Z</time></trkpt><trkpt lat="44.3464293" lon="7.7247443"><ele>600.0</ele><time>2026-04-18T16:27:33.584Z</time></trkpt><trkpt lat="44.3463824" lon="7.724643"><ele>601.5</ele><time>2026-04-18T16:27:34.585Z</time></trkpt><trkpt lat="44.3463344" lon="7.7245354"><ele>603.0</ele><time>2026-04-18T16:27:35.583Z</time></trkpt><trkpt lat="44.3463031" lon="7.7244049"><ele>604.5</ele><time>2026-04-18T16:27:36.583Z</time></trkpt><trkpt lat="44.3462646" lon="7.7243046"><ele>606.0</ele><time>2026-04-18T16:27:37.585Z</time></trkpt><trkpt lat="44.3462295" lon="7.7241985"><ele>607.5</ele><time>2026-04-18T16:27:38.584Z</time></trkpt><trkpt lat="44.3461969" lon="7.7240867"><ele>609.0</ele><time>2026-04-18T16:27:39.584Z</time></trkpt><trkpt lat="44.3461243" lon="7.7239352"><ele>609.0</ele><time>2026-04-18T16:27:41.585Z</time></trkpt><trkpt lat="44.3460951" lon="7.7238423"><ele>609.0</ele><time>2026-04-18T16:27:42.583Z</time></trkpt><trkpt lat="44.3460577" lon="7.7237451"><ele>609.0</ele><time>2026-04-18T16:27:43.583Z</time></trkpt><trkpt lat="44.3460126" lon="7.7236584"><ele>609.0</ele><time>2026-04-18T16:27:44.583Z</time></trkpt><trkpt lat="44.3459317" lon="7.7235275"><ele>609.0</ele><time>2026-04-18T16:27:46.584Z</time></trkpt><trkpt lat="44.345876" lon="7.7234354"><ele>609.0</ele><time>2026-04-18T16:27:47.583Z</time></trkpt><trkpt lat="44.3458385" lon="7.7233597"><ele>606.3333333333334</ele><time>2026-04-18T16:27:48.583Z</time></trkpt><trkpt lat="44.3457959" lon="7.7232732"><ele>603.6666666666666</ele><time>2026-04-18T16:27:49.584Z</time></trkpt><trkpt lat="44.3457396" lon="7.7232015"><ele>601.0</ele><time>2026-04-18T16:27:50.583Z</time></trkpt><trkpt lat="44.3456949" lon="7.7231185"><ele>598.3333333333333</ele><time>2026-04-18T16:27:51.583Z</time></trkpt><trkpt lat="44.3456493" lon="7.7230415"><ele>595.6666666666666</ele><time>2026-04-18T16:27:52.584Z</time></trkpt><trkpt lat="44.3455964" lon="7.7229773"><ele>593.0</ele><time>2026-04-18T16:27:53.583Z</time></trkpt><trkpt lat="44.345534" lon="7.7228982"><ele>593.0</ele><time>2026-04-18T16:27:54.584Z</time></trkpt><trkpt lat="44.3454836" lon="7.7228204"><ele>593.0</ele><time>2026-04-18T16:27:55.583Z</time></trkpt><trkpt lat="44.3454375" lon="7.7227523"><ele>593.0</ele><time>2026-04-18T16:27:56.584Z</time></trkpt><trkpt lat="44.3453497" lon="7.7226759"><ele>593.0</ele><time>2026-04-18T16:27:58.584Z</time></trkpt><trkpt lat="44.345233" lon="7.7226192"><ele>593.0</ele><time>2026-04-18T16:28:00.585Z</time></trkpt><trkpt lat="44.3450825" lon="7.7225996"><ele>592.5</ele><time>2026-04-18T16:28:02.584Z</time></trkpt><trkpt lat="44.3449828" lon="7.7226223"><ele>592.0</ele><time>2026-04-18T16:28:03.583Z</time></trkpt><trkpt lat="44.3448887" lon="7.7225727"><ele>591.5</ele><time>2026-04-18T16:28:05.583Z</time></trkpt><trkpt lat="44.3448328" lon="7.7224913"><ele>591.0</ele><time>2026-04-18T16:28:06.583Z</time></trkpt><trkpt lat="44.3447789" lon="7.7223893"><ele>590.5</ele><time>2026-04-18T16:28:07.584Z</time></trkpt><trkpt lat="44.3447189" lon="7.7223247"><ele>590.0</ele><time>2026-04-18T16:28:08.583Z</time></trkpt><trkpt lat="44.3446549" lon="7.7222646"><ele>590.0</ele><time>2026-04-18T16:28:09.583Z</time></trkpt><trkpt lat="44.3445974" lon="7.7221747"><ele>590.0</ele><time>2026-04-18T16:28:10.585Z</time></trkpt><trkpt lat="44.3445318" lon="7.7220956"><ele>590.0</ele><time>2026-04-18T16:28:11.584Z</time></trkpt><trkpt lat="44.3444363" lon="7.7219981"><ele>590.0</ele><time>2026-04-18T16:28:13.583Z</time></trkpt><trkpt lat="44.3443485" lon="7.7219153"><ele>590.0</ele><time>2026-04-18T16:28:15.585Z</time></trkpt><trkpt lat="44.3443103" lon="7.7217757"><ele>588.7142857142858</ele><time>2026-04-18T16:28:19.583Z</time></trkpt><trkpt lat="44.3442882" lon="7.7216853"><ele>587.4285714285714</ele><time>2026-04-18T16:28:21.583Z</time></trkpt><trkpt lat="44.344252" lon="7.7215687"><ele>586.1428571428571</ele><time>2026-04-18T16:28:23.585Z</time></trkpt><trkpt lat="44.3442562" lon="7.7214795"><ele>584.8571428571429</ele><time>2026-04-18T16:28:24.585Z</time></trkpt><trkpt lat="44.344255" lon="7.7213874"><ele>583.5714285714286</ele><time>2026-04-18T16:28:25.584Z</time></trkpt><trkpt lat="44.3442708" lon="7.7212905"><ele>582.2857142857143</ele><time>2026-04-18T16:28:26.583Z</time></trkpt><trkpt lat="44.3442838" lon="7.7211891"><ele>581.0</ele><time>2026-04-18T16:28:27.584Z</time></trkpt><trkpt lat="44.3443247" lon="7.7210962"><ele>580.6666666666666</ele><time>2026-04-18T16:28:28.584Z</time></trkpt><trkpt lat="44.3443447" lon="7.7210025"><ele>580.3333333333333</ele><time>2026-04-18T16:28:29.585Z</time></trkpt><trkpt lat="44.3443616" lon="7.7209131"><ele>580.0</ele><time>2026-04-18T16:28:30.583Z</time></trkpt><trkpt lat="44.344334" lon="7.720823"><ele>579.6666666666666</ele><time>2026-04-18T16:28:32.584Z</time></trkpt><trkpt lat="44.3442676" lon="7.720691"><ele>579.3333333333334</ele><time>2026-04-18T16:28:34.584Z</time></trkpt><trkpt lat="44.3442273" lon="7.7206182"><ele>579.0</ele><time>2026-04-18T16:28:35.583Z</time></trkpt><trkpt lat="44.3441444" lon="7.720522"><ele>579.0</ele><time>2026-04-18T16:28:37.584Z</time></trkpt><trkpt lat="44.3440441" lon="7.7204463"><ele>579.0</ele><time>2026-04-18T16:28:39.584Z</time></trkpt><trkpt lat="44.3439509" lon="7.7203682"><ele>579.0</ele><time>2026-04-18T16:28:41.585Z</time></trkpt><trkpt lat="44.3438896" lon="7.7203207"><ele>579.0</ele><time>2026-04-18T16:28:42.583Z</time></trkpt><trkpt lat="44.343737" lon="7.7203079"><ele>579.0</ele><time>2026-04-18T16:28:43.584Z</time></trkpt><trkpt lat="44.3436368" lon="7.7202832"><ele>580.2</ele><time>2026-04-18T16:28:44.585Z</time></trkpt><trkpt lat="44.3435443" lon="7.7202456"><ele>581.4</ele><time>2026-04-18T16:28:45.584Z</time></trkpt><trkpt lat="44.343444" lon="7.7201969"><ele>582.6</ele><time>2026-04-18T16:28:46.583Z</time></trkpt><trkpt lat="44.343337" lon="7.72016"><ele>583.8</ele><time>2026-04-18T16:28:47.583Z</time></trkpt><trkpt lat="44.3432333" lon="7.7201243"><ele>585.0</ele><time>2026-04-18T16:28:48.585Z</time></trkpt><trkpt lat="44.3431417" lon="7.7200967"><ele>585.0</ele><time>2026-04-18T16:28:49.585Z</time></trkpt><trkpt lat="44.3430596" lon="7.7200893"><ele>585.0</ele><time>2026-04-18T16:28:50.583Z</time></trkpt><trkpt lat="44.342983" lon="7.7200946"><ele>585.0</ele><time>2026-04-18T16:28:51.584Z</time></trkpt><trkpt lat="44.3429059" lon="7.720079"><ele>585.0</ele><time>2026-04-18T16:28:52.583Z</time></trkpt><trkpt lat="44.3428419" lon="7.7199805"><ele>585.0</ele><time>2026-04-18T16:28:54.584Z</time></trkpt><trkpt lat="44.3428305" lon="7.7198121"><ele>585.8</ele><time>2026-04-18T16:28:56.583Z</time></trkpt><trkpt lat="44.3428357" lon="7.7197052"><ele>586.6</ele><time>2026-04-18T16:28:57.584Z</time></trkpt><trkpt lat="44.3428246" lon="7.7195933"><ele>587.4</ele><time>2026-04-18T16:28:58.585Z</time></trkpt><trkpt lat="44.3428222" lon="7.7194537"><ele>588.2</ele><time>2026-04-18T16:28:59.585Z</time></trkpt><trkpt lat="44.3428152" lon="7.7192978"><ele>589.0</ele><time>2026-04-18T16:29:00.585Z</time></trkpt><trkpt lat="44.34281" lon="7.7191392"><ele>590.2</ele><time>2026-04-18T16:29:01.583Z</time></trkpt><trkpt lat="44.3428055" lon="7.7189873"><ele>591.4</ele><time>2026-04-18T16:29:02.584Z</time></trkpt><trkpt lat="44.3428087" lon="7.7188553"><ele>592.6</ele><time>2026-04-18T16:29:03.583Z</time></trkpt><trkpt lat="44.3428293" lon="7.7187466"><ele>593.8</ele><time>2026-04-18T16:29:04.584Z</time></trkpt><trkpt lat="44.3428534" lon="7.7186268"><ele>595.0</ele><time>2026-04-18T16:29:05.584Z</time></trkpt><trkpt lat="44.3428593" lon="7.7185069"><ele>596.4</ele><time>2026-04-18T16:29:06.585Z</time></trkpt><trkpt lat="44.3428657" lon="7.7183895"><ele>597.8</ele><time>2026-04-18T16:29:08.584Z</time></trkpt><trkpt lat="44.3427912" lon="7.7182966"><ele>599.2</ele><time>2026-04-18T16:29:11.583Z</time></trkpt><trkpt lat="44.342644" lon="7.7182687"><ele>600.6</ele><time>2026-04-18T16:29:13.583Z</time></trkpt><trkpt lat="44.3425492" lon="7.7182518"><ele>602.0</ele><time>2026-04-18T16:29:14.584Z</time></trkpt><trkpt lat="44.3424353" lon="7.7182188"><ele>602.0</ele><time>2026-04-18T16:29:15.584Z</time></trkpt><trkpt lat="44.342312" lon="7.7181921"><ele>602.0</ele><time>2026-04-18T16:29:16.584Z</time></trkpt><trkpt lat="44.3421421" lon="7.7182019"><ele>602.0</ele><time>2026-04-18T16:29:17.584Z</time></trkpt><trkpt lat="44.3420182" lon="7.7181956"><ele>602.0</ele><time>2026-04-18T16:29:18.584Z</time></trkpt><trkpt lat="44.3418823" lon="7.7182077"><ele>602.75</ele><time>2026-04-18T16:29:19.583Z</time></trkpt><trkpt lat="44.3417494" lon="7.7182341"><ele>603.5</ele><time>2026-04-18T16:29:20.583Z</time></trkpt><trkpt lat="44.3416033" lon="7.7182818"><ele>604.25</ele><time>2026-04-18T16:29:21.583Z</time></trkpt><trkpt lat="44.3414588" lon="7.7183237"><ele>605.0</ele><time>2026-04-18T16:29:22.583Z</time></trkpt><trkpt lat="44.3413221" lon="7.7183803"><ele>605.5</ele><time>2026-04-18T16:29:23.584Z</time></trkpt><trkpt lat="44.341196" lon="7.7184173"><ele>606.0</ele><time>2026-04-18T16:29:24.584Z</time></trkpt><trkpt lat="44.3410721" lon="7.7184432"><ele>606.5</ele><time>2026-04-18T16:29:25.583Z</time></trkpt><trkpt lat="44.3409563" lon="7.7184557"><ele>607.0</ele><time>2026-04-18T16:29:26.583Z</time></trkpt><trkpt lat="44.3408406" lon="7.7184414"><ele>607.0</ele><time>2026-04-18T16:29:27.583Z</time></trkpt><trkpt lat="44.3407409" lon="7.7184308"><ele>607.0</ele><time>2026-04-18T16:29:28.583Z</time></trkpt><trkpt lat="44.3406368" lon="7.7184007"><ele>607.0</ele><time>2026-04-18T16:29:29.585Z</time></trkpt><trkpt lat="44.3405655" lon="7.7183773"><ele>607.0</ele><time>2026-04-18T16:29:30.584Z</time></trkpt><trkpt lat="44.3404774" lon="7.7183598"><ele>607.0</ele><time>2026-04-18T16:29:32.583Z</time></trkpt><trkpt lat="44.3404179" lon="7.7183152"><ele>607.0</ele><time>2026-04-18T16:29:35.584Z</time></trkpt><trkpt lat="44.3403913" lon="7.7181631"><ele>607.5</ele><time>2026-04-18T16:29:38.584Z</time></trkpt><trkpt lat="44.3403713" lon="7.7180341"><ele>608.0</ele><time>2026-04-18T16:29:40.583Z</time></trkpt><trkpt lat="44.3403635" lon="7.7179306"><ele>608.5</ele><time>2026-04-18T16:29:42.585Z</time></trkpt><trkpt lat="44.3403447" lon="7.7178334"><ele>609.0</ele><time>2026-04-18T16:29:46.583Z</time></trkpt><trkpt lat="44.3403921" lon="7.7177348"><ele>609.5</ele><time>2026-04-18T16:29:56.583Z</time></trkpt><trkpt lat="44.3403801" lon="7.7176316"><ele>610.0</ele><time>2026-04-18T16:29:58.584Z</time></trkpt><trkpt lat="44.340352" lon="7.7175203"><ele>608.4</ele><time>2026-04-18T16:30:00.584Z</time></trkpt><trkpt lat="44.3402663" lon="7.717451"><ele>606.8</ele><time>2026-04-18T16:30:02.583Z</time></trkpt><trkpt lat="44.3401709" lon="7.7173993"><ele>605.2</ele><time>2026-04-18T16:30:04.584Z</time></trkpt><trkpt lat="44.3400631" lon="7.717341"><ele>603.6</ele><time>2026-04-18T16:30:06.584Z</time></trkpt><trkpt lat="44.3400137" lon="7.7172289"><ele>602.0</ele><time>2026-04-18T16:30:08.583Z</time></trkpt><trkpt lat="44.3399744" lon="7.7171011"><ele>602.0</ele><time>2026-04-18T16:30:10.583Z</time></trkpt><trkpt lat="44.3399135" lon="7.7169643"><ele>602.0</ele><time>2026-04-18T16:30:12.584Z</time></trkpt><trkpt lat="44.3398898" lon="7.7168773"><ele>602.0</ele><time>2026-04-18T16:30:13.584Z</time></trkpt><trkpt lat="44.3398902" lon="7.7167501"><ele>602.0</ele><time>2026-04-18T16:30:16.583Z</time></trkpt><trkpt lat="44.3399028" lon="7.7166519"><ele>602.0</ele><time>2026-04-18T16:30:19.583Z</time></trkpt><trkpt lat="44.339868" lon="7.7165776"><ele>602.0</ele><time>2026-04-18T16:30:28.583Z</time></trkpt><trkpt lat="44.3399459" lon="7.7165964"><ele>600.3333333333333</ele><time>2026-04-18T16:33:03.584Z</time></trkpt><trkpt lat="44.3398567" lon="7.7165486"><ele>598.6666666666666</ele><time>2026-04-18T16:33:59.584Z</time></trkpt><trkpt lat="44.3397778" lon="7.7164911"><ele>597.0</ele><time>2026-04-18T16:34:01.583Z</time></trkpt><trkpt lat="44.3398293" lon="7.7164252"><ele>595.3333333333334</ele><time>2026-04-18T16:34:04.584Z</time></trkpt><trkpt lat="44.3398763" lon="7.7163367"><ele>593.6666666666667</ele><time>2026-04-18T16:34:06.583Z</time></trkpt><trkpt lat="44.3398879" lon="7.7162472"><ele>592.0</ele><time>2026-04-18T16:34:08.585Z</time></trkpt><trkpt lat="44.3398771" lon="7.716132"><ele>591.8000000000001</ele><time>2026-04-18T16:34:10.583Z</time></trkpt><trkpt lat="44.3398742" lon="7.7159745"><ele>591.6</ele><time>2026-04-18T16:34:12.584Z</time></trkpt><trkpt lat="44.3399465" lon="7.7158444"><ele>591.4000000000001</ele><time>2026-04-18T16:34:15.585Z</time></trkpt><trkpt lat="44.3400349" lon="7.7158055"><ele>591.2</ele><time>2026-04-18T16:34:16.585Z</time></trkpt><trkpt lat="44.3401402" lon="7.7157318"><ele>591.0</ele><time>2026-04-18T16:34:17.583Z</time></trkpt><trkpt lat="44.3402245" lon="7.7156954"><ele>591.0</ele><time>2026-04-18T16:34:18.583Z</time></trkpt><trkpt lat="44.3403195" lon="7.7156858"><ele>591.0</ele><time>2026-04-18T16:34:19.584Z</time></trkpt><trkpt lat="44.3404225" lon="7.7155995"><ele>591.0</ele><time>2026-04-18T16:34:21.585Z</time></trkpt><trkpt lat="44.3404761" lon="7.7155049"><ele>591.0</ele><time>2026-04-18T16:34:22.583Z</time></trkpt><trkpt lat="44.3405193" lon="7.7154245"><ele>591.0</ele><time>2026-04-18T16:34:23.583Z</time></trkpt><trkpt lat="44.3405743" lon="7.7152991"><ele>589.1666666666666</ele><time>2026-04-18T16:34:24.583Z</time></trkpt><trkpt lat="44.3406346" lon="7.7151956"><ele>587.3333333333334</ele><time>2026-04-18T16:34:25.584Z</time></trkpt><trkpt lat="44.3406772" lon="7.7150641"><ele>585.5</ele><time>2026-04-18T16:34:26.584Z</time></trkpt><trkpt lat="44.3406819" lon="7.7149333"><ele>583.6666666666667</ele><time>2026-04-18T16:34:27.584Z</time></trkpt><trkpt lat="44.3406977" lon="7.7148376"><ele>581.8333333333334</ele><time>2026-04-18T16:34:28.583Z</time></trkpt><trkpt lat="44.34073" lon="7.7147461"><ele>580.0</ele><time>2026-04-18T16:34:29.583Z</time></trkpt><trkpt lat="44.3407799" lon="7.7146547"><ele>580.0</ele><time>2026-04-18T16:34:30.583Z</time></trkpt><trkpt lat="44.3408413" lon="7.7146002"><ele>580.0</ele><time>2026-04-18T16:34:31.584Z</time></trkpt><trkpt lat="44.3409174" lon="7.7145371"><ele>580.0</ele><time>2026-04-18T16:34:32.584Z</time></trkpt><trkpt lat="44.3409743" lon="7.714433"><ele>580.0</ele><time>2026-04-18T16:34:33.584Z</time></trkpt><trkpt lat="44.3410891" lon="7.7143674"><ele>580.0</ele><time>2026-04-18T16:34:34.583Z</time></trkpt><trkpt lat="44.3411811" lon="7.7143049"><ele>581.3333333333334</ele><time>2026-04-18T16:34:35.584Z</time></trkpt><trkpt lat="44.3412547" lon="7.7142501"><ele>582.6666666666667</ele><time>2026-04-18T16:34:36.583Z</time></trkpt><trkpt lat="44.3413123" lon="7.7141928"><ele>584.0</ele><time>2026-04-18T16:34:37.584Z</time></trkpt><trkpt lat="44.341356" lon="7.7141161"><ele>585.3333333333334</ele><time>2026-04-18T16:34:38.585Z</time></trkpt><trkpt lat="44.3413868" lon="7.7140295"><ele>586.6666666666666</ele><time>2026-04-18T16:34:39.584Z</time></trkpt><trkpt lat="44.3414126" lon="7.7139165"><ele>588.0</ele><time>2026-04-18T16:34:40.583Z</time></trkpt><trkpt lat="44.3414863" lon="7.7137849"><ele>586.0</ele><time>2026-04-18T16:34:42.583Z</time></trkpt><trkpt lat="44.3416556" lon="7.7137829"><ele>584.0</ele><time>2026-04-18T16:34:44.583Z</time></trkpt><trkpt lat="44.3417834" lon="7.7137162"><ele>582.0</ele><time>2026-04-18T16:34:46.584Z</time></trkpt><trkpt lat="44.3418408" lon="7.7136261"><ele>580.0</ele><time>2026-04-18T16:34:47.585Z</time></trkpt><trkpt lat="44.3419007" lon="7.7135304"><ele>580.0</ele><time>2026-04-18T16:34:48.583Z</time></trkpt><trkpt lat="44.3419457" lon="7.7133635"><ele>580.0</ele><time>2026-04-18T16:34:49.583Z</time></trkpt><trkpt lat="44.3420165" lon="7.7132247"><ele>580.0</ele><time>2026-04-18T16:34:50.585Z</time></trkpt><trkpt lat="44.3420947" lon="7.7130824"><ele>580.0</ele><time>2026-04-18T16:34:51.584Z</time></trkpt><trkpt lat="44.3421725" lon="7.7129705"><ele>579.0</ele><time>2026-04-18T16:34:52.584Z</time></trkpt><trkpt lat="44.3422306" lon="7.7128742"><ele>578.0</ele><time>2026-04-18T16:34:53.583Z</time></trkpt><trkpt lat="44.3423038" lon="7.7128022"><ele>577.0</ele><time>2026-04-18T16:34:54.584Z</time></trkpt><trkpt lat="44.3423973" lon="7.7127571"><ele>576.0</ele><time>2026-04-18T16:34:55.584Z</time></trkpt><trkpt lat="44.3424648" lon="7.712723"><ele>575.0</ele><time>2026-04-18T16:34:56.583Z</time></trkpt><trkpt lat="44.3425446" lon="7.7126879"><ele>574.0</ele><time>2026-04-18T16:34:57.584Z</time></trkpt><trkpt lat="44.3425806" lon="7.7126152"><ele>574.0</ele><time>2026-04-18T16:34:58.584Z</time></trkpt><trkpt lat="44.3425988" lon="7.7125258"><ele>574.0</ele><time>2026-04-18T16:34:59.583Z</time></trkpt><trkpt lat="44.3426359" lon="7.7123893"><ele>574.0</ele><time>2026-04-18T16:35:01.585Z</time></trkpt><trkpt lat="44.3427243" lon="7.7124007"><ele>574.0</ele><time>2026-04-18T16:35:03.583Z</time></trkpt><trkpt lat="44.3427954" lon="7.712443"><ele>574.0</ele><time>2026-04-18T16:35:04.584Z</time></trkpt><trkpt lat="44.3428667" lon="7.7124963"><ele>574.0</ele><time>2026-04-18T16:35:05.585Z</time></trkpt><trkpt lat="44.3429383" lon="7.7125377"><ele>574.0</ele><time>2026-04-18T16:35:06.583Z</time></trkpt><trkpt lat="44.3430112" lon="7.712538"><ele>574.0</ele><time>2026-04-18T16:35:07.585Z</time></trkpt><trkpt lat="44.3431002" lon="7.7125092"><ele>574.0</ele><time>2026-04-18T16:35:08.583Z</time></trkpt><trkpt lat="44.343202" lon="7.7124708"><ele>574.0</ele><time>2026-04-18T16:35:09.584Z</time></trkpt><trkpt lat="44.3433172" lon="7.7124188"><ele>574.0</ele><time>2026-04-18T16:35:10.583Z</time></trkpt><trkpt lat="44.343427" lon="7.7123494"><ele>572.25</ele><time>2026-04-18T16:35:11.584Z</time></trkpt><trkpt lat="44.3435452" lon="7.7122684"><ele>570.5</ele><time>2026-04-18T16:35:12.583Z</time></trkpt><trkpt lat="44.3436699" lon="7.7121799"><ele>568.75</ele><time>2026-04-18T16:35:13.584Z</time></trkpt><trkpt lat="44.343768" lon="7.7120901"><ele>567.0</ele><time>2026-04-18T16:35:14.584Z</time></trkpt><trkpt lat="44.3438862" lon="7.7120232"><ele>567.2</ele><time>2026-04-18T16:35:15.584Z</time></trkpt><trkpt lat="44.3440032" lon="7.7119839"><ele>567.4000000000001</ele><time>2026-04-18T16:35:16.585Z</time></trkpt><trkpt lat="44.3441024" lon="7.7119395"><ele>567.5999999999999</ele><time>2026-04-18T16:35:17.583Z</time></trkpt><trkpt lat="44.3442026" lon="7.7118726"><ele>567.8</ele><time>2026-04-18T16:35:18.584Z</time></trkpt><trkpt lat="44.344301" lon="7.7117948"><ele>568.0</ele><time>2026-04-18T16:35:19.583Z</time></trkpt><trkpt lat="44.3443274" lon="7.7116989"><ele>568.0</ele><time>2026-04-18T16:35:20.585Z</time></trkpt><trkpt lat="44.3442915" lon="7.7115792"><ele>568.0</ele><time>2026-04-18T16:35:21.583Z</time></trkpt><trkpt lat="44.3442947" lon="7.7114117"><ele>568.0</ele><time>2026-04-18T16:35:23.584Z</time></trkpt><trkpt lat="44.344203" lon="7.711378"><ele>568.0</ele><time>2026-04-18T16:35:24.583Z</time></trkpt><trkpt lat="44.3441109" lon="7.7112934"><ele>568.0</ele><time>2026-04-18T16:35:25.584Z</time></trkpt><trkpt lat="44.3440034" lon="7.7112094"><ele>568.0</ele><time>2026-04-18T16:35:26.584Z</time></trkpt><trkpt lat="44.343922" lon="7.7111147"><ele>568.0</ele><time>2026-04-18T16:35:27.583Z</time></trkpt><trkpt lat="44.3437904" lon="7.7110746"><ele>568.0</ele><time>2026-04-18T16:35:28.583Z</time></trkpt><trkpt lat="44.3436628" lon="7.711042"><ele>568.0</ele><time>2026-04-18T16:35:29.584Z</time></trkpt><trkpt lat="44.3435593" lon="7.7109906"><ele>570.8</ele><time>2026-04-18T16:35:30.584Z</time></trkpt><trkpt lat="44.343493" lon="7.7109126"><ele>573.5999999999999</ele><time>2026-04-18T16:35:31.584Z</time></trkpt><trkpt lat="44.3434348" lon="7.7108062"><ele>576.4000000000001</ele><time>2026-04-18T16:35:32.584Z</time></trkpt><trkpt lat="44.3433911" lon="7.7106983"><ele>579.2</ele><time>2026-04-18T16:35:33.583Z</time></trkpt><trkpt lat="44.343333" lon="7.710603"><ele>582.0</ele><time>2026-04-18T16:35:34.584Z</time></trkpt><trkpt lat="44.343251" lon="7.7105048"><ele>582.0</ele><time>2026-04-18T16:35:35.584Z</time></trkpt><trkpt lat="44.3431376" lon="7.7103988"><ele>582.0</ele><time>2026-04-18T16:35:36.584Z</time></trkpt><trkpt lat="44.3430333" lon="7.7102598"><ele>582.0</ele><time>2026-04-18T16:35:37.584Z</time></trkpt><trkpt lat="44.3429203" lon="7.7101316"><ele>582.0</ele><time>2026-04-18T16:35:38.583Z</time></trkpt><trkpt lat="44.3428195" lon="7.7099882"><ele>583.0</ele><time>2026-04-18T16:35:39.583Z</time></trkpt><trkpt lat="44.3427658" lon="7.7099017"><ele>584.0</ele><time>2026-04-18T16:35:40.584Z</time></trkpt><trkpt lat="44.3426899" lon="7.7098438"><ele>585.0</ele><time>2026-04-18T16:35:41.583Z</time></trkpt><trkpt lat="44.3427469" lon="7.7093733"><ele>584.0</ele><time>2026-04-18T16:35:45.585Z</time></trkpt><trkpt lat="44.3427734" lon="7.7092338"><ele>583.0</ele><time>2026-04-18T16:35:47.584Z</time></trkpt><trkpt lat="44.3426782" lon="7.7091234"><ele>582.0</ele><time>2026-04-18T16:35:50.584Z</time></trkpt><trkpt lat="44.3426083" lon="7.7091024"><ele>581.0</ele><time>2026-04-18T16:35:51.584Z</time></trkpt><trkpt lat="44.3425503" lon="7.7090616"><ele>580.0</ele><time>2026-04-18T16:35:52.584Z</time></trkpt><trkpt lat="44.3424948" lon="7.7090173"><ele>579.0</ele><time>2026-04-18T16:35:53.583Z</time></trkpt><trkpt lat="44.3424099" lon="7.708899"><ele>579.0</ele><time>2026-04-18T16:35:55.583Z</time></trkpt><trkpt lat="44.3423414" lon="7.7087863"><ele>579.0</ele><time>2026-04-18T16:35:57.583Z</time></trkpt><trkpt lat="44.3422764" lon="7.7086827"><ele>579.0</ele><time>2026-04-18T16:35:59.584Z</time></trkpt><trkpt lat="44.3422456" lon="7.7085972"><ele>579.0</ele><time>2026-04-18T16:36:00.584Z</time></trkpt><trkpt lat="44.3422057" lon="7.7085228"><ele>579.0</ele><time>2026-04-18T16:36:01.584Z</time></trkpt><trkpt lat="44.3421239" lon="7.7083528"><ele>579.5</ele><time>2026-04-18T16:36:03.583Z</time></trkpt><trkpt lat="44.3420894" lon="7.7082551"><ele>580.0</ele><time>2026-04-18T16:36:04.584Z</time></trkpt><trkpt lat="44.3420529" lon="7.7081486"><ele>580.5</ele><time>2026-04-18T16:36:05.585Z</time></trkpt><trkpt lat="44.3420315" lon="7.7080472"><ele>581.0</ele><time>2026-04-18T16:36:06.583Z</time></trkpt><trkpt lat="44.3420322" lon="7.7079446"><ele>581.5</ele><time>2026-04-18T16:36:07.583Z</time></trkpt><trkpt lat="44.3420231" lon="7.7078295"><ele>582.0</ele><time>2026-04-18T16:36:08.585Z</time></trkpt><trkpt lat="44.3420138" lon="7.7077234"><ele>583.8000000000001</ele><time>2026-04-18T16:36:09.584Z</time></trkpt><trkpt lat="44.3420188" lon="7.7076079"><ele>585.6</ele><time>2026-04-18T16:36:10.583Z</time></trkpt><trkpt lat="44.3420455" lon="7.7074793"><ele>587.4000000000001</ele><time>2026-04-18T16:36:11.584Z</time></trkpt><trkpt lat="44.3420678" lon="7.7073428"><ele>589.2</ele><time>2026-04-18T16:36:12.584Z</time></trkpt><trkpt lat="44.3420952" lon="7.707214"><ele>591.0</ele><time>2026-04-18T16:36:13.584Z</time></trkpt><trkpt lat="44.3421217" lon="7.7071086"><ele>591.0</ele><time>2026-04-18T16:36:14.583Z</time></trkpt><trkpt lat="44.3421379" lon="7.70701"><ele>591.0</ele><time>2026-04-18T16:36:15.584Z</time></trkpt><trkpt lat="44.3421441" lon="7.7069082"><ele>591.0</ele><time>2026-04-18T16:36:16.583Z</time></trkpt><trkpt lat="44.3421589" lon="7.7068054"><ele>591.0</ele><time>2026-04-18T16:36:17.583Z</time></trkpt><trkpt lat="44.3421693" lon="7.7066999"><ele>591.0</ele><time>2026-04-18T16:36:18.584Z</time></trkpt><trkpt lat="44.3421894" lon="7.7066074"><ele>591.0</ele><time>2026-04-18T16:36:19.584Z</time></trkpt><trkpt lat="44.3421997" lon="7.7064543"><ele>591.1666666666666</ele><time>2026-04-18T16:36:21.583Z</time></trkpt><trkpt lat="44.3421774" lon="7.7063574"><ele>591.3333333333334</ele><time>2026-04-18T16:36:22.583Z</time></trkpt><trkpt lat="44.3421523" lon="7.706244"><ele>591.5</ele><time>2026-04-18T16:36:23.584Z</time></trkpt><trkpt lat="44.3421183" lon="7.7061327"><ele>591.6666666666667</ele><time>2026-04-18T16:36:24.585Z</time></trkpt><trkpt lat="44.3420898" lon="7.7060176"><ele>591.8333333333334</ele><time>2026-04-18T16:36:25.583Z</time></trkpt><trkpt lat="44.3420079" lon="7.70594"><ele>592.0</ele><time>2026-04-18T16:36:26.583Z</time></trkpt><trkpt lat="44.3419505" lon="7.7058565"><ele>590.6</ele><time>2026-04-18T16:36:27.583Z</time></trkpt><trkpt lat="44.3418838" lon="7.7057851"><ele>589.2</ele><time>2026-04-18T16:36:28.584Z</time></trkpt><trkpt lat="44.3418147" lon="7.7057233"><ele>587.8</ele><time>2026-04-18T16:36:29.585Z</time></trkpt><trkpt lat="44.3417541" lon="7.7056504"><ele>586.4</ele><time>2026-04-18T16:36:30.584Z</time></trkpt><trkpt lat="44.341664" lon="7.7055244"><ele>585.0</ele><time>2026-04-18T16:36:32.584Z</time></trkpt><trkpt lat="44.3416391" lon="7.7054174"><ele>585.0</ele><time>2026-04-18T16:36:34.583Z</time></trkpt><trkpt lat="44.3416531" lon="7.7052527"><ele>585.0</ele><time>2026-04-18T16:36:36.584Z</time></trkpt><trkpt lat="44.3416766" lon="7.7051708"><ele>585.0</ele><time>2026-04-18T16:36:37.584Z</time></trkpt><trkpt lat="44.3417011" lon="7.7050785"><ele>585.0</ele><time>2026-04-18T16:36:38.584Z</time></trkpt><trkpt lat="44.3417337" lon="7.7049871"><ele>585.0</ele><time>2026-04-18T16:36:39.583Z</time></trkpt><trkpt lat="44.3417838" lon="7.7049113"><ele>585.0</ele><time>2026-04-18T16:36:40.584Z</time></trkpt><trkpt lat="44.3418206" lon="7.7048293"><ele>585.0</ele><time>2026-04-18T16:36:41.584Z</time></trkpt><trkpt lat="44.3418277" lon="7.7047165"><ele>585.0</ele><time>2026-04-18T16:36:43.584Z</time></trkpt><trkpt lat="44.3417167" lon="7.7045822"><ele>585.0</ele><time>2026-04-18T16:36:54.584Z</time></trkpt><trkpt lat="44.3416826" lon="7.7044653"><ele>585.0</ele><time>2026-04-18T16:36:55.584Z</time></trkpt><trkpt lat="44.3417113" lon="7.704352"><ele>585.0</ele><time>2026-04-18T16:36:56.583Z</time></trkpt><trkpt lat="44.3417716" lon="7.7042826"><ele>585.0</ele><time>2026-04-18T16:36:57.584Z</time></trkpt><trkpt lat="44.3418094" lon="7.7041686"><ele>585.0</ele><time>2026-04-18T16:36:58.584Z</time></trkpt><trkpt lat="44.3418902" lon="7.7041294"><ele>585.0</ele><time>2026-04-18T16:36:59.584Z</time></trkpt><trkpt lat="44.3420089" lon="7.7040538"><ele>585.0</ele><time>2026-04-18T16:37:00.585Z</time></trkpt><trkpt lat="44.3420779" lon="7.703969"><ele>585.0</ele><time>2026-04-18T16:37:01.583Z</time></trkpt><trkpt lat="44.3421697" lon="7.7039108"><ele>582.0</ele><time>2026-04-18T16:37:02.584Z</time></trkpt><trkpt lat="44.3422645" lon="7.7038432"><ele>579.0</ele><time>2026-04-18T16:37:03.583Z</time></trkpt><trkpt lat="44.3423527" lon="7.7038242"><ele>576.0</ele><time>2026-04-18T16:37:04.585Z</time></trkpt><trkpt lat="44.3424341" lon="7.7037909"><ele>573.0</ele><time>2026-04-18T16:37:05.583Z</time></trkpt><trkpt lat="44.3424916" lon="7.7037545"><ele>570.0</ele><time>2026-04-18T16:37:06.584Z</time></trkpt><trkpt lat="44.3426084" lon="7.7036959"><ele>570.0</ele><time>2026-04-18T16:37:08.584Z</time></trkpt><trkpt lat="44.3427034" lon="7.7036673"><ele>570.0</ele><time>2026-04-18T16:37:09.584Z</time></trkpt><trkpt lat="44.3427751" lon="7.7036066"><ele>570.0</ele><time>2026-04-18T16:37:10.585Z</time></trkpt><trkpt lat="44.3428587" lon="7.703536"><ele>570.0</ele><time>2026-04-18T16:37:11.583Z</time></trkpt><trkpt lat="44.3429248" lon="7.7034854"><ele>570.0</ele><time>2026-04-18T16:37:12.583Z</time></trkpt><trkpt lat="44.3430178" lon="7.7033943"><ele>568.4</ele><time>2026-04-18T16:37:13.584Z</time></trkpt><trkpt lat="44.3430683" lon="7.7033311"><ele>566.8</ele><time>2026-04-18T16:37:14.583Z</time></trkpt><trkpt lat="44.3431293" lon="7.7031778"><ele>565.2</ele><time>2026-04-18T16:37:16.584Z</time></trkpt><trkpt lat="44.3431414" lon="7.7030671"><ele>563.6</ele><time>2026-04-18T16:37:17.584Z</time></trkpt><trkpt lat="44.3431593" lon="7.7029439"><ele>562.0</ele><time>2026-04-18T16:37:18.584Z</time></trkpt><trkpt lat="44.3431814" lon="7.7028184"><ele>562.0</ele><time>2026-04-18T16:37:19.583Z</time></trkpt><trkpt lat="44.3431844" lon="7.7027077"><ele>562.0</ele><time>2026-04-18T16:37:20.585Z</time></trkpt><trkpt lat="44.3431886" lon="7.7026039"><ele>562.0</ele><time>2026-04-18T16:37:21.583Z</time></trkpt><trkpt lat="44.3431552" lon="7.7024965"><ele>562.0</ele><time>2026-04-18T16:37:22.584Z</time></trkpt><trkpt lat="44.3431172" lon="7.7023678"><ele>562.0</ele><time>2026-04-18T16:37:24.584Z</time></trkpt><trkpt lat="44.3431137" lon="7.7022284"><ele>562.0</ele><time>2026-04-18T16:37:25.585Z</time></trkpt><trkpt lat="44.3431106" lon="7.7020905"><ele>562.0</ele><time>2026-04-18T16:37:26.585Z</time></trkpt><trkpt lat="44.3430994" lon="7.7019709"><ele>562.0</ele><time>2026-04-18T16:37:27.583Z</time></trkpt><trkpt lat="44.3430984" lon="7.7018563"><ele>562.0</ele><time>2026-04-18T16:37:28.584Z</time></trkpt><trkpt lat="44.3430942" lon="7.7017524"><ele>562.0</ele><time>2026-04-18T16:37:29.584Z</time></trkpt><trkpt lat="44.3430855" lon="7.7016268"><ele>562.0</ele><time>2026-04-18T16:37:30.584Z</time></trkpt><trkpt lat="44.3430627" lon="7.7015316"><ele>562.0</ele><time>2026-04-18T16:37:31.583Z</time></trkpt><trkpt lat="44.343003" lon="7.7014094"><ele>562.8000000000001</ele><time>2026-04-18T16:37:32.583Z</time></trkpt><trkpt lat="44.3429206" lon="7.7012835"><ele>563.6</ele><time>2026-04-18T16:37:33.583Z</time></trkpt><trkpt lat="44.342858" lon="7.7011744"><ele>564.4000000000001</ele><time>2026-04-18T16:37:34.583Z</time></trkpt><trkpt lat="44.3427991" lon="7.7010431"><ele>565.2</ele><time>2026-04-18T16:37:35.585Z</time></trkpt><trkpt lat="44.3427379" lon="7.7009593"><ele>566.0</ele><time>2026-04-18T16:37:36.585Z</time></trkpt><trkpt lat="44.3426672" lon="7.700896"><ele>563.2</ele><time>2026-04-18T16:37:37.583Z</time></trkpt><trkpt lat="44.3425944" lon="7.7008122"><ele>560.4000000000001</ele><time>2026-04-18T16:37:38.583Z</time></trkpt><trkpt lat="44.3425179" lon="7.7007674"><ele>557.6</ele><time>2026-04-18T16:37:39.583Z</time></trkpt><trkpt lat="44.3424144" lon="7.700755"><ele>554.8000000000001</ele><time>2026-04-18T16:37:40.584Z</time></trkpt><trkpt lat="44.3423354" lon="7.7008238"><ele>552.0</ele><time>2026-04-18T16:37:41.584Z</time></trkpt><trkpt lat="44.3422517" lon="7.7007969"><ele>552.6</ele><time>2026-04-18T16:37:42.584Z</time></trkpt><trkpt lat="44.3421544" lon="7.7008641"><ele>553.2</ele><time>2026-04-18T16:37:43.585Z</time></trkpt><trkpt lat="44.3420416" lon="7.70093"><ele>553.8</ele><time>2026-04-18T16:37:44.585Z</time></trkpt><trkpt lat="44.341948" lon="7.7009869"><ele>554.4</ele><time>2026-04-18T16:37:45.584Z</time></trkpt><trkpt lat="44.3418607" lon="7.7010425"><ele>555.0</ele><time>2026-04-18T16:37:46.585Z</time></trkpt><trkpt lat="44.3417808" lon="7.701063"><ele>555.0</ele><time>2026-04-18T16:37:47.584Z</time></trkpt><trkpt lat="44.3417097" lon="7.7011028"><ele>555.0</ele><time>2026-04-18T16:37:48.584Z</time></trkpt><trkpt lat="44.3416092" lon="7.7010283"><ele>555.0</ele><time>2026-04-18T16:37:50.583Z</time></trkpt><trkpt lat="44.3415421" lon="7.7009138"><ele>555.0</ele><time>2026-04-18T16:37:52.583Z</time></trkpt><trkpt lat="44.3415844" lon="7.7007718"><ele>555.0</ele><time>2026-04-18T16:37:53.583Z</time></trkpt><trkpt lat="44.3415888" lon="7.7006735"><ele>555.0</ele><time>2026-04-18T16:37:54.584Z</time></trkpt><trkpt lat="44.3416139" lon="7.7005841"><ele>555.0</ele><time>2026-04-18T16:37:55.583Z</time></trkpt><trkpt lat="44.3417205" lon="7.7004671"><ele>555.0</ele><time>2026-04-18T16:37:56.583Z</time></trkpt><trkpt lat="44.3418075" lon="7.7003421"><ele>555.0</ele><time>2026-04-18T16:37:57.584Z</time></trkpt><trkpt lat="44.3418838" lon="7.7002135"><ele>555.0</ele><time>2026-04-18T16:37:58.584Z</time></trkpt><trkpt lat="44.3419693" lon="7.700091"><ele>556.4</ele><time>2026-04-18T16:37:59.584Z</time></trkpt><trkpt lat="44.3420512" lon="7.6999813"><ele>557.8</ele><time>2026-04-18T16:38:00.583Z</time></trkpt><trkpt lat="44.3421408" lon="7.6998807"><ele>559.2</ele><time>2026-04-18T16:38:01.584Z</time></trkpt><trkpt lat="44.3422044" lon="7.6997591"><ele>560.6</ele><time>2026-04-18T16:38:02.584Z</time></trkpt><trkpt lat="44.3422585" lon="7.6996265"><ele>562.0</ele><time>2026-04-18T16:38:03.583Z</time></trkpt><trkpt lat="44.3423181" lon="7.6994962"><ele>559.8000000000001</ele><time>2026-04-18T16:38:04.584Z</time></trkpt><trkpt lat="44.3423656" lon="7.6993562"><ele>557.6</ele><time>2026-04-18T16:38:05.583Z</time></trkpt><trkpt lat="44.3424001" lon="7.6992153"><ele>555.4000000000001</ele><time>2026-04-18T16:38:06.583Z</time></trkpt><trkpt lat="44.3424168" lon="7.6990793"><ele>553.2</ele><time>2026-04-18T16:38:07.584Z</time></trkpt><trkpt lat="44.3424255" lon="7.6989491"><ele>551.0</ele><time>2026-04-18T16:38:08.583Z</time></trkpt><trkpt lat="44.3424189" lon="7.6987561"><ele>551.0</ele><time>2026-04-18T16:38:09.584Z</time></trkpt><trkpt lat="44.3424408" lon="7.6985949"><ele>551.0</ele><time>2026-04-18T16:38:10.584Z</time></trkpt><trkpt lat="44.3424783" lon="7.6984299"><ele>551.0</ele><time>2026-04-18T16:38:11.584Z</time></trkpt><trkpt lat="44.3425026" lon="7.6982815"><ele>551.0</ele><time>2026-04-18T16:38:12.583Z</time></trkpt><trkpt lat="44.3425199" lon="7.6981562"><ele>551.0</ele><time>2026-04-18T16:38:13.583Z</time></trkpt><trkpt lat="44.3425285" lon="7.698051"><ele>551.3333333333333</ele><time>2026-04-18T16:38:14.585Z</time></trkpt><trkpt lat="44.3425248" lon="7.6979585"><ele>551.6666666666666</ele><time>2026-04-18T16:38:15.584Z</time></trkpt><trkpt lat="44.3425211" lon="7.6978256"><ele>552.0</ele><time>2026-04-18T16:38:17.583Z</time></trkpt><trkpt lat="44.3425143" lon="7.6977369"><ele>552.3333333333334</ele><time>2026-04-18T16:38:18.583Z</time></trkpt><trkpt lat="44.342486" lon="7.6975987"><ele>552.6666666666667</ele><time>2026-04-18T16:38:19.584Z</time></trkpt><trkpt lat="44.342435" lon="7.6974449"><ele>553.0</ele><time>2026-04-18T16:38:20.584Z</time></trkpt><trkpt lat="44.3423742" lon="7.69731"><ele>553.0</ele><time>2026-04-18T16:38:21.584Z</time></trkpt><trkpt lat="44.3423039" lon="7.6971327"><ele>553.0</ele><time>2026-04-18T16:38:22.583Z</time></trkpt><trkpt lat="44.3422281" lon="7.6969589"><ele>553.0</ele><time>2026-04-18T16:38:23.583Z</time></trkpt><trkpt lat="44.3421342" lon="7.6967833"><ele>553.0</ele><time>2026-04-18T16:38:24.583Z</time></trkpt><trkpt lat="44.3420451" lon="7.6966106"><ele>553.25</ele><time>2026-04-18T16:38:25.583Z</time></trkpt><trkpt lat="44.3419623" lon="7.6964434"><ele>553.5</ele><time>2026-04-18T16:38:26.585Z</time></trkpt><trkpt lat="44.3419014" lon="7.6963009"><ele>553.75</ele><time>2026-04-18T16:38:27.584Z</time></trkpt><trkpt lat="44.3418333" lon="7.6961685"><ele>554.0</ele><time>2026-04-18T16:38:28.583Z</time></trkpt><trkpt lat="44.3417446" lon="7.6960562"><ele>553.0</ele><time>2026-04-18T16:38:29.583Z</time></trkpt><trkpt lat="44.3416337" lon="7.6959736"><ele>552.0</ele><time>2026-04-18T16:38:30.583Z</time></trkpt><trkpt lat="44.3415478" lon="7.6959003"><ele>551.0</ele><time>2026-04-18T16:38:31.583Z</time></trkpt><trkpt lat="44.3414638" lon="7.6958676"><ele>550.0</ele><time>2026-04-18T16:38:32.585Z</time></trkpt><trkpt lat="44.341364" lon="7.6958301"><ele>549.0</ele><time>2026-04-18T16:38:33.585Z</time></trkpt><trkpt lat="44.3412625" lon="7.6957847"><ele>547.8</ele><time>2026-04-18T16:38:34.584Z</time></trkpt><trkpt lat="44.3412031" lon="7.6958153"><ele>546.5999999999999</ele><time>2026-04-18T16:38:35.583Z</time></trkpt><trkpt lat="44.3411247" lon="7.6957885"><ele>545.4</ele><time>2026-04-18T16:38:38.584Z</time></trkpt><trkpt lat="44.3411381" lon="7.6955978"><ele>544.1999999999999</ele><time>2026-04-18T16:38:40.584Z</time></trkpt><trkpt lat="44.341198" lon="7.6954367"><ele>543.0</ele><time>2026-04-18T16:38:41.584Z</time></trkpt><trkpt lat="44.341234" lon="7.6952889"><ele>542.25</ele><time>2026-04-18T16:38:42.583Z</time></trkpt><trkpt lat="44.3412557" lon="7.6951164"><ele>541.5</ele><time>2026-04-18T16:38:43.583Z</time></trkpt><trkpt lat="44.3412715" lon="7.6949342"><ele>540.75</ele><time>2026-04-18T16:38:44.585Z</time></trkpt><trkpt lat="44.3412738" lon="7.6947515"><ele>540.0</ele><time>2026-04-18T16:38:45.585Z</time></trkpt><trkpt lat="44.3412771" lon="7.694593"><ele>540.0</ele><time>2026-04-18T16:38:46.583Z</time></trkpt><trkpt lat="44.3412934" lon="7.6944528"><ele>540.0</ele><time>2026-04-18T16:38:47.584Z</time></trkpt><trkpt lat="44.3412991" lon="7.6943025"><ele>540.0</ele><time>2026-04-18T16:38:48.583Z</time></trkpt><trkpt lat="44.3413317" lon="7.6941613"><ele>540.0</ele><time>2026-04-18T16:38:49.584Z</time></trkpt><trkpt lat="44.3413663" lon="7.6940078"><ele>540.0</ele><time>2026-04-18T16:38:50.583Z</time></trkpt><trkpt lat="44.3414239" lon="7.6938678"><ele>539.8333333333334</ele><time>2026-04-18T16:38:51.584Z</time></trkpt><trkpt lat="44.3414696" lon="7.6937415"><ele>539.6666666666666</ele><time>2026-04-18T16:38:52.584Z</time></trkpt><trkpt lat="44.3415112" lon="7.6936217"><ele>539.5</ele><time>2026-04-18T16:38:53.585Z</time></trkpt><trkpt lat="44.3415561" lon="7.6935044"><ele>539.3333333333333</ele><time>2026-04-18T16:38:54.583Z</time></trkpt><trkpt lat="44.3415894" lon="7.6934183"><ele>539.1666666666666</ele><time>2026-04-18T16:38:55.584Z</time></trkpt><trkpt lat="44.3416156" lon="7.6933277"><ele>539.0</ele><time>2026-04-18T16:38:57.583Z</time></trkpt><trkpt lat="44.3415241" lon="7.6932603"><ele>538.8</ele><time>2026-04-18T16:39:00.584Z</time></trkpt><trkpt lat="44.3414304" lon="7.6932284"><ele>538.5999999999999</ele><time>2026-04-18T16:39:01.583Z</time></trkpt><trkpt lat="44.3413329" lon="7.6932017"><ele>538.4</ele><time>2026-04-18T16:39:02.583Z</time></trkpt><trkpt lat="44.3412063" lon="7.6931868"><ele>538.1999999999999</ele><time>2026-04-18T16:39:03.584Z</time></trkpt><trkpt lat="44.3410852" lon="7.6931761"><ele>538.0</ele><time>2026-04-18T16:39:04.583Z</time></trkpt><trkpt lat="44.340949" lon="7.6931523"><ele>538.0</ele><time>2026-04-18T16:39:05.583Z</time></trkpt><trkpt lat="44.3407988" lon="7.6931411"><ele>538.0</ele><time>2026-04-18T16:39:06.583Z</time></trkpt><trkpt lat="44.3406327" lon="7.6931217"><ele>538.0</ele><time>2026-04-18T16:39:07.583Z</time></trkpt><trkpt lat="44.3404683" lon="7.6931001"><ele>539.0</ele><time>2026-04-18T16:39:08.583Z</time></trkpt><trkpt lat="44.3403001" lon="7.6930819"><ele>540.0</ele><time>2026-04-18T16:39:09.583Z</time></trkpt><trkpt lat="44.34012" lon="7.6930546"><ele>541.0</ele><time>2026-04-18T16:39:10.584Z</time></trkpt><trkpt lat="44.339934" lon="7.6930287"><ele>541.0</ele><time>2026-04-18T16:39:11.583Z</time></trkpt><trkpt lat="44.3397447" lon="7.6929964"><ele>541.0</ele><time>2026-04-18T16:39:12.583Z</time></trkpt><trkpt lat="44.3395483" lon="7.6929521"><ele>541.0</ele><time>2026-04-18T16:39:13.583Z</time></trkpt><trkpt lat="44.3393571" lon="7.6928833"><ele>540.0</ele><time>2026-04-18T16:39:14.585Z</time></trkpt><trkpt lat="44.3391567" lon="7.6928069"><ele>539.0</ele><time>2026-04-18T16:39:15.584Z</time></trkpt><trkpt lat="44.3389595" lon="7.6927242"><ele>538.0</ele><time>2026-04-18T16:39:16.583Z</time></trkpt><trkpt lat="44.3387566" lon="7.6926341"><ele>538.0</ele><time>2026-04-18T16:39:17.583Z</time></trkpt><trkpt lat="44.3385565" lon="7.6925405"><ele>538.0</ele><time>2026-04-18T16:39:18.584Z</time></trkpt><trkpt lat="44.3383521" lon="7.6924442"><ele>538.0</ele><time>2026-04-18T16:39:19.583Z</time></trkpt><trkpt lat="44.338151" lon="7.6923461"><ele>539.6666666666667</ele><time>2026-04-18T16:39:20.583Z</time></trkpt><trkpt lat="44.3379463" lon="7.6922549"><ele>541.3333333333334</ele><time>2026-04-18T16:39:21.583Z</time></trkpt><trkpt lat="44.3377354" lon="7.6921535"><ele>543.0</ele><time>2026-04-18T16:39:22.583Z</time></trkpt><trkpt lat="44.3375237" lon="7.6920573"><ele>543.0</ele><time>2026-04-18T16:39:23.584Z</time></trkpt><trkpt lat="44.3373153" lon="7.6919567"><ele>543.0</ele><time>2026-04-18T16:39:24.583Z</time></trkpt><trkpt lat="44.3371138" lon="7.6918646"><ele>543.0</ele><time>2026-04-18T16:39:25.584Z</time></trkpt><trkpt lat="44.336911" lon="7.6917721"><ele>542.3333333333334</ele><time>2026-04-18T16:39:26.584Z</time></trkpt><trkpt lat="44.3367048" lon="7.6916777"><ele>541.6666666666667</ele><time>2026-04-18T16:39:27.584Z</time></trkpt><trkpt lat="44.3364995" lon="7.6915812"><ele>541.0</ele><time>2026-04-18T16:39:28.584Z</time></trkpt><trkpt lat="44.3362981" lon="7.691485"><ele>542.6666666666667</ele><time>2026-04-18T16:39:29.584Z</time></trkpt><trkpt lat="44.3360973" lon="7.6913781"><ele>544.3333333333334</ele><time>2026-04-18T16:39:30.585Z</time></trkpt><trkpt lat="44.3359002" lon="7.6912632"><ele>546.0</ele><time>2026-04-18T16:39:31.583Z</time></trkpt><trkpt lat="44.3357037" lon="7.6911467"><ele>545.3333333333334</ele><time>2026-04-18T16:39:32.585Z</time></trkpt><trkpt lat="44.3355123" lon="7.6910244"><ele>544.6666666666667</ele><time>2026-04-18T16:39:33.584Z</time></trkpt><trkpt lat="44.3353214" lon="7.6908983"><ele>544.0</ele><time>2026-04-18T16:39:34.585Z</time></trkpt><trkpt lat="44.3351302" lon="7.6907666"><ele>544.0</ele><time>2026-04-18T16:39:35.584Z</time></trkpt><trkpt lat="44.3349402" lon="7.6906349"><ele>544.0</ele><time>2026-04-18T16:39:36.583Z</time></trkpt><trkpt lat="44.3347456" lon="7.6905062"><ele>544.0</ele><time>2026-04-18T16:39:37.584Z</time></trkpt><trkpt lat="44.3345485" lon="7.6903685"><ele>544.6666666666667</ele><time>2026-04-18T16:39:38.585Z</time></trkpt><trkpt lat="44.3343554" lon="7.6902295"><ele>545.3333333333334</ele><time>2026-04-18T16:39:39.585Z</time></trkpt><trkpt lat="44.3341554" lon="7.6900877"><ele>546.0</ele><time>2026-04-18T16:39:40.584Z</time></trkpt><trkpt lat="44.3339563" lon="7.6899469"><ele>549.0</ele><time>2026-04-18T16:39:41.584Z</time></trkpt><trkpt lat="44.3337543" lon="7.6898034"><ele>552.0</ele><time>2026-04-18T16:39:42.584Z</time></trkpt><trkpt lat="44.333553" lon="7.6896625"><ele>552.0</ele><time>2026-04-18T16:39:43.583Z</time></trkpt><trkpt lat="44.3333476" lon="7.6895207"><ele>552.0</ele><time>2026-04-18T16:39:44.584Z</time></trkpt><trkpt lat="44.333148" lon="7.6893755"><ele>556.5</ele><time>2026-04-18T16:39:45.585Z</time></trkpt><trkpt lat="44.3329522" lon="7.6892163"><ele>561.0</ele><time>2026-04-18T16:39:46.585Z</time></trkpt><trkpt lat="44.3327593" lon="7.6890482"><ele>561.0</ele><time>2026-04-18T16:39:47.585Z</time></trkpt><trkpt lat="44.3325654" lon="7.68887"><ele>561.0</ele><time>2026-04-18T16:39:48.584Z</time></trkpt><trkpt lat="44.3323771" lon="7.6886833"><ele>557.5</ele><time>2026-04-18T16:39:49.583Z</time></trkpt><trkpt lat="44.3321893" lon="7.6884911"><ele>554.0</ele><time>2026-04-18T16:39:50.583Z</time></trkpt><trkpt lat="44.3320002" lon="7.6882981"><ele>554.0</ele><time>2026-04-18T16:39:51.584Z</time></trkpt><trkpt lat="44.3318139" lon="7.6880954"><ele>554.0</ele><time>2026-04-18T16:39:52.584Z</time></trkpt><trkpt lat="44.3316292" lon="7.6878995"><ele>554.0</ele><time>2026-04-18T16:39:53.584Z</time></trkpt><trkpt lat="44.331447" lon="7.6876897"><ele>554.0</ele><time>2026-04-18T16:39:54.583Z</time></trkpt><trkpt lat="44.3312674" lon="7.687472"><ele>554.0</ele><time>2026-04-18T16:39:55.584Z</time></trkpt><trkpt lat="44.3310849" lon="7.6872449"><ele>554.0</ele><time>2026-04-18T16:39:56.583Z</time></trkpt><trkpt lat="44.3309144" lon="7.6870122"><ele>554.5</ele><time>2026-04-18T16:39:57.584Z</time></trkpt><trkpt lat="44.33075" lon="7.6867707"><ele>555.0</ele><time>2026-04-18T16:39:58.584Z</time></trkpt><trkpt lat="44.3305992" lon="7.6865463"><ele>555.6666666666666</ele><time>2026-04-18T16:39:59.584Z</time></trkpt><trkpt lat="44.3304532" lon="7.6863132"><ele>556.3333333333333</ele><time>2026-04-18T16:40:00.585Z</time></trkpt><trkpt lat="44.3303107" lon="7.6860837"><ele>557.0</ele><time>2026-04-18T16:40:01.584Z</time></trkpt><trkpt lat="44.3301732" lon="7.6858622"><ele>557.0</ele><time>2026-04-18T16:40:02.584Z</time></trkpt><trkpt lat="44.3300389" lon="7.6856393"><ele>557.0</ele><time>2026-04-18T16:40:03.584Z</time></trkpt><trkpt lat="44.3299055" lon="7.6854228"><ele>557.0</ele><time>2026-04-18T16:40:04.584Z</time></trkpt><trkpt lat="44.3297718" lon="7.6852033"><ele>558.3333333333333</ele><time>2026-04-18T16:40:05.583Z</time></trkpt><trkpt lat="44.32964" lon="7.6849849"><ele>559.6666666666666</ele><time>2026-04-18T16:40:06.583Z</time></trkpt><trkpt lat="44.3295037" lon="7.6847693"><ele>561.0</ele><time>2026-04-18T16:40:07.584Z</time></trkpt><trkpt lat="44.3293741" lon="7.68455"><ele>560.3333333333334</ele><time>2026-04-18T16:40:08.583Z</time></trkpt><trkpt lat="44.3292435" lon="7.6843417"><ele>559.6666666666667</ele><time>2026-04-18T16:40:09.584Z</time></trkpt><trkpt lat="44.3291206" lon="7.6841494"><ele>559.0</ele><time>2026-04-18T16:40:10.583Z</time></trkpt><trkpt lat="44.3290051" lon="7.6839519"><ele>562.0</ele><time>2026-04-18T16:40:11.583Z</time></trkpt><trkpt lat="44.3288909" lon="7.6837733"><ele>565.0</ele><time>2026-04-18T16:40:12.583Z</time></trkpt><trkpt lat="44.3287699" lon="7.6835915"><ele>568.0</ele><time>2026-04-18T16:40:13.584Z</time></trkpt><trkpt lat="44.3286528" lon="7.6834017"><ele>568.0</ele><time>2026-04-18T16:40:14.583Z</time></trkpt><trkpt lat="44.3285279" lon="7.6831997"><ele>568.0</ele><time>2026-04-18T16:40:15.584Z</time></trkpt><trkpt lat="44.3284059" lon="7.6830019"><ele>568.0</ele><time>2026-04-18T16:40:16.583Z</time></trkpt><trkpt lat="44.3282907" lon="7.6828054"><ele>567.0</ele><time>2026-04-18T16:40:17.584Z</time></trkpt><trkpt lat="44.3281719" lon="7.682612"><ele>566.0</ele><time>2026-04-18T16:40:18.583Z</time></trkpt><trkpt lat="44.3280508" lon="7.6824252"><ele>565.0</ele><time>2026-04-18T16:40:19.584Z</time></trkpt><trkpt lat="44.3279315" lon="7.6822265"><ele>570.6666666666667</ele><time>2026-04-18T16:40:20.584Z</time></trkpt><trkpt lat="44.3278138" lon="7.6820372"><ele>576.3333333333334</ele><time>2026-04-18T16:40:21.584Z</time></trkpt><trkpt lat="44.3277006" lon="7.681846"><ele>582.0</ele><time>2026-04-18T16:40:22.584Z</time></trkpt><trkpt lat="44.3275944" lon="7.6816703"><ele>582.0</ele><time>2026-04-18T16:40:23.583Z</time></trkpt><trkpt lat="44.3274931" lon="7.6815066"><ele>582.0</ele><time>2026-04-18T16:40:24.584Z</time></trkpt><trkpt lat="44.3273898" lon="7.6813429"><ele>582.0</ele><time>2026-04-18T16:40:25.583Z</time></trkpt><trkpt lat="44.3272854" lon="7.6811817"><ele>583.25</ele><time>2026-04-18T16:40:26.584Z</time></trkpt><trkpt lat="44.3271809" lon="7.6810351"><ele>584.5</ele><time>2026-04-18T16:40:27.583Z</time></trkpt><trkpt lat="44.3270723" lon="7.6808973"><ele>585.75</ele><time>2026-04-18T16:40:28.583Z</time></trkpt><trkpt lat="44.3269612" lon="7.6807744"><ele>587.0</ele><time>2026-04-18T16:40:29.583Z</time></trkpt><trkpt lat="44.3268573" lon="7.6806653"><ele>587.0</ele><time>2026-04-18T16:40:30.583Z</time></trkpt><trkpt lat="44.3267572" lon="7.680574"><ele>587.0</ele><time>2026-04-18T16:40:31.584Z</time></trkpt><trkpt lat="44.3266666" lon="7.6804744"><ele>587.0</ele><time>2026-04-18T16:40:32.585Z</time></trkpt><trkpt lat="44.3266138" lon="7.6803921"><ele>587.0</ele><time>2026-04-18T16:40:33.584Z</time></trkpt><trkpt lat="44.3265679" lon="7.6803095"><ele>587.0</ele><time>2026-04-18T16:40:34.584Z</time></trkpt><trkpt lat="44.3265933" lon="7.6801244"><ele>582.75</ele><time>2026-04-18T16:40:36.583Z</time></trkpt><trkpt lat="44.3266308" lon="7.6799893"><ele>578.5</ele><time>2026-04-18T16:40:37.584Z</time></trkpt><trkpt lat="44.3266815" lon="7.6798416"><ele>574.25</ele><time>2026-04-18T16:40:38.585Z</time></trkpt><trkpt lat="44.3267373" lon="7.6796687"><ele>570.0</ele><time>2026-04-18T16:40:39.583Z</time></trkpt><trkpt lat="44.3267985" lon="7.6794915"><ele>570.6666666666666</ele><time>2026-04-18T16:40:40.583Z</time></trkpt><trkpt lat="44.3268626" lon="7.6792805"><ele>571.3333333333333</ele><time>2026-04-18T16:40:41.583Z</time></trkpt><trkpt lat="44.3269147" lon="7.6790633"><ele>572.0</ele><time>2026-04-18T16:40:42.584Z</time></trkpt><trkpt lat="44.3269574" lon="7.6788175"><ele>572.0</ele><time>2026-04-18T16:40:43.583Z</time></trkpt><trkpt lat="44.3269966" lon="7.6785707"><ele>572.0</ele><time>2026-04-18T16:40:44.583Z</time></trkpt><trkpt lat="44.3270353" lon="7.6783266"><ele>572.0</ele><time>2026-04-18T16:40:45.583Z</time></trkpt><trkpt lat="44.3270709" lon="7.6780881"><ele>572.0</ele><time>2026-04-18T16:40:46.584Z</time></trkpt><trkpt lat="44.3271105" lon="7.6778522"><ele>572.0</ele><time>2026-04-18T16:40:47.583Z</time></trkpt><trkpt lat="44.3271455" lon="7.6776182"><ele>572.0</ele><time>2026-04-18T16:40:48.583Z</time></trkpt><trkpt lat="44.3271789" lon="7.6773847"><ele>571.0</ele><time>2026-04-18T16:40:49.585Z</time></trkpt><trkpt lat="44.3272157" lon="7.6771539"><ele>570.0</ele><time>2026-04-18T16:40:50.584Z</time></trkpt><trkpt lat="44.3272451" lon="7.6769272"><ele>569.0</ele><time>2026-04-18T16:40:51.584Z</time></trkpt><trkpt lat="44.3272829" lon="7.6767048"><ele>568.6666666666666</ele><time>2026-04-18T16:40:52.584Z</time></trkpt><trkpt lat="44.3273219" lon="7.6764777"><ele>568.3333333333334</ele><time>2026-04-18T16:40:53.583Z</time></trkpt><trkpt lat="44.3273635" lon="7.6762314"><ele>568.0</ele><time>2026-04-18T16:40:54.583Z</time></trkpt><trkpt lat="44.3274071" lon="7.6759914"><ele>568.0</ele><time>2026-04-18T16:40:55.584Z</time></trkpt><trkpt lat="44.3274455" lon="7.6757515"><ele>568.0</ele><time>2026-04-18T16:40:56.584Z</time></trkpt><trkpt lat="44.3274834" lon="7.675506"><ele>568.0</ele><time>2026-04-18T16:40:57.584Z</time></trkpt><trkpt lat="44.3275228" lon="7.6752513"><ele>568.0</ele><time>2026-04-18T16:40:58.583Z</time></trkpt><trkpt lat="44.3275588" lon="7.6750066"><ele>568.0</ele><time>2026-04-18T16:40:59.583Z</time></trkpt><trkpt lat="44.3275979" lon="7.6747509"><ele>568.0</ele><time>2026-04-18T16:41:00.583Z</time></trkpt><trkpt lat="44.3276359" lon="7.6744901"><ele>567.6666666666667</ele><time>2026-04-18T16:41:01.583Z</time></trkpt><trkpt lat="44.3276775" lon="7.674235"><ele>567.3333333333334</ele><time>2026-04-18T16:41:02.583Z</time></trkpt><trkpt lat="44.327714" lon="7.6739705"><ele>567.0</ele><time>2026-04-18T16:41:03.584Z</time></trkpt><trkpt lat="44.3277536" lon="7.6737141"><ele>566.3333333333334</ele><time>2026-04-18T16:41:04.584Z</time></trkpt><trkpt lat="44.3277916" lon="7.6734638"><ele>565.6666666666667</ele><time>2026-04-18T16:41:05.583Z</time></trkpt><trkpt lat="44.327828" lon="7.6732039"><ele>565.0</ele><time>2026-04-18T16:41:06.585Z</time></trkpt><trkpt lat="44.327864" lon="7.6729548"><ele>566.3333333333334</ele><time>2026-04-18T16:41:07.583Z</time></trkpt><trkpt lat="44.3279024" lon="7.672704"><ele>567.6666666666666</ele><time>2026-04-18T16:41:08.584Z</time></trkpt><trkpt lat="44.3279435" lon="7.6724615"><ele>569.0</ele><time>2026-04-18T16:41:09.583Z</time></trkpt><trkpt lat="44.3279817" lon="7.6722112"><ele>569.0</ele><time>2026-04-18T16:41:10.584Z</time></trkpt><trkpt lat="44.3280204" lon="7.6719541"><ele>569.0</ele><time>2026-04-18T16:41:11.583Z</time></trkpt><trkpt lat="44.328059" lon="7.6717124"><ele>569.0</ele><time>2026-04-18T16:41:12.584Z</time></trkpt><trkpt lat="44.3280894" lon="7.6714814"><ele>570.5</ele><time>2026-04-18T16:41:13.584Z</time></trkpt><trkpt lat="44.3281182" lon="7.6712672"><ele>572.0</ele><time>2026-04-18T16:41:14.583Z</time></trkpt><trkpt lat="44.3281498" lon="7.671066"><ele>573.5</ele><time>2026-04-18T16:41:15.583Z</time></trkpt><trkpt lat="44.3281734" lon="7.6708966"><ele>575.0</ele><time>2026-04-18T16:41:16.584Z</time></trkpt><trkpt lat="44.3281921" lon="7.6707782"><ele>575.1666666666666</ele><time>2026-04-18T16:41:17.584Z</time></trkpt><trkpt lat="44.3282107" lon="7.6706552"><ele>575.3333333333333</ele><time>2026-04-18T16:41:19.583Z</time></trkpt><trkpt lat="44.3282353" lon="7.670562"><ele>575.5</ele><time>2026-04-18T16:41:22.584Z</time></trkpt><trkpt lat="44.3282622" lon="7.67045"><ele>575.6666666666666</ele><time>2026-04-18T16:41:24.583Z</time></trkpt><trkpt lat="44.3283109" lon="7.6703628"><ele>575.8333333333334</ele><time>2026-04-18T16:41:25.583Z</time></trkpt><trkpt lat="44.3283699" lon="7.67028"><ele>576.0</ele><time>2026-04-18T16:41:26.583Z</time></trkpt><trkpt lat="44.3284318" lon="7.6701811"><ele>575.5</ele><time>2026-04-18T16:41:27.584Z</time></trkpt><trkpt lat="44.328507" lon="7.6700638"><ele>575.0</ele><time>2026-04-18T16:41:28.584Z</time></trkpt><trkpt lat="44.3285943" lon="7.6699219"><ele>574.5</ele><time>2026-04-18T16:41:29.583Z</time></trkpt><trkpt lat="44.3287027" lon="7.6697509"><ele>574.0</ele><time>2026-04-18T16:41:30.583Z</time></trkpt><trkpt lat="44.3288117" lon="7.6695827"><ele>573.3333333333334</ele><time>2026-04-18T16:41:31.584Z</time></trkpt><trkpt lat="44.3289492" lon="7.6693974"><ele>572.6666666666666</ele><time>2026-04-18T16:41:32.583Z</time></trkpt><trkpt lat="44.3290734" lon="7.6692069"><ele>572.0</ele><time>2026-04-18T16:41:33.584Z</time></trkpt><trkpt lat="44.3291894" lon="7.6690196"><ele>572.0</ele><time>2026-04-18T16:41:34.584Z</time></trkpt><trkpt lat="44.3293045" lon="7.6688294"><ele>572.0</ele><time>2026-04-18T16:41:35.583Z</time></trkpt><trkpt lat="44.3294109" lon="7.6686296"><ele>572.0</ele><time>2026-04-18T16:41:36.585Z</time></trkpt><trkpt lat="44.3295116" lon="7.6684055"><ele>572.3333333333333</ele><time>2026-04-18T16:41:37.585Z</time></trkpt><trkpt lat="44.3296045" lon="7.668156"><ele>572.6666666666666</ele><time>2026-04-18T16:41:38.584Z</time></trkpt><trkpt lat="44.3296913" lon="7.6678852"><ele>573.0</ele><time>2026-04-18T16:41:39.583Z</time></trkpt><trkpt lat="44.3297659" lon="7.6676012"><ele>571.6666666666666</ele><time>2026-04-18T16:41:40.583Z</time></trkpt><trkpt lat="44.329828" lon="7.6673211"><ele>570.3333333333333</ele><time>2026-04-18T16:41:41.583Z</time></trkpt><trkpt lat="44.3298668" lon="7.6670257"><ele>569.0</ele><time>2026-04-18T16:41:42.584Z</time></trkpt><trkpt lat="44.3298905" lon="7.6667222"><ele>568.0</ele><time>2026-04-18T16:41:43.584Z</time></trkpt><trkpt lat="44.3298976" lon="7.6664139"><ele>567.0</ele><time>2026-04-18T16:41:44.583Z</time></trkpt><trkpt lat="44.3298924" lon="7.6661034"><ele>566.0</ele><time>2026-04-18T16:41:45.583Z</time></trkpt><trkpt lat="44.3298661" lon="7.665792"><ele>566.0</ele><time>2026-04-18T16:41:46.583Z</time></trkpt><trkpt lat="44.3298373" lon="7.6654723"><ele>566.0</ele><time>2026-04-18T16:41:47.585Z</time></trkpt><trkpt lat="44.3297982" lon="7.6651529"><ele>566.0</ele><time>2026-04-18T16:41:48.584Z</time></trkpt><trkpt lat="44.3297549" lon="7.664829"><ele>566.0</ele><time>2026-04-18T16:41:49.583Z</time></trkpt><trkpt lat="44.3297132" lon="7.6645091"><ele>565.5</ele><time>2026-04-18T16:41:50.584Z</time></trkpt><trkpt lat="44.3296683" lon="7.6641842"><ele>565.0</ele><time>2026-04-18T16:41:51.583Z</time></trkpt><trkpt lat="44.3296199" lon="7.6638548"><ele>565.0</ele><time>2026-04-18T16:41:52.583Z</time></trkpt><trkpt lat="44.3295728" lon="7.6635359"><ele>565.0</ele><time>2026-04-18T16:41:53.584Z</time></trkpt><trkpt lat="44.3295277" lon="7.663212"><ele>565.0</ele><time>2026-04-18T16:41:54.583Z</time></trkpt><trkpt lat="44.3294836" lon="7.6628768"><ele>565.0</ele><time>2026-04-18T16:41:55.583Z</time></trkpt><trkpt lat="44.3294371" lon="7.662533"><ele>565.0</ele><time>2026-04-18T16:41:56.584Z</time></trkpt><trkpt lat="44.3293949" lon="7.6621914"><ele>565.0</ele><time>2026-04-18T16:41:57.583Z</time></trkpt><trkpt lat="44.3293535" lon="7.6618442"><ele>563.0</ele><time>2026-04-18T16:41:58.585Z</time></trkpt><trkpt lat="44.3293111" lon="7.6614938"><ele>561.0</ele><time>2026-04-18T16:41:59.584Z</time></trkpt><trkpt lat="44.3292694" lon="7.661144"><ele>561.0</ele><time>2026-04-18T16:42:00.583Z</time></trkpt><trkpt lat="44.3292215" lon="7.6608021"><ele>561.0</ele><time>2026-04-18T16:42:01.584Z</time></trkpt><trkpt lat="44.3291776" lon="7.660456"><ele>561.0</ele><time>2026-04-18T16:42:02.584Z</time></trkpt><trkpt lat="44.3291356" lon="7.6601118"><ele>561.0</ele><time>2026-04-18T16:42:03.584Z</time></trkpt><trkpt lat="44.329096" lon="7.6597666"><ele>561.0</ele><time>2026-04-18T16:42:04.584Z</time></trkpt><trkpt lat="44.3290518" lon="7.659428"><ele>561.0</ele><time>2026-04-18T16:42:05.583Z</time></trkpt><trkpt lat="44.3290097" lon="7.6590943"><ele>561.0</ele><time>2026-04-18T16:42:06.584Z</time></trkpt><trkpt lat="44.328967" lon="7.6587707"><ele>561.0</ele><time>2026-04-18T16:42:07.584Z</time></trkpt><trkpt lat="44.328928" lon="7.6584402"><ele>559.5</ele><time>2026-04-18T16:42:08.583Z</time></trkpt><trkpt lat="44.3288871" lon="7.6581042"><ele>558.0</ele><time>2026-04-18T16:42:09.584Z</time></trkpt><trkpt lat="44.3288476" lon="7.6577765"><ele>557.5</ele><time>2026-04-18T16:42:10.584Z</time></trkpt><trkpt lat="44.3288079" lon="7.6574477"><ele>557.0</ele><time>2026-04-18T16:42:11.585Z</time></trkpt><trkpt lat="44.3287652" lon="7.6571169"><ele>556.5</ele><time>2026-04-18T16:42:12.583Z</time></trkpt><trkpt lat="44.3287227" lon="7.6567896"><ele>556.0</ele><time>2026-04-18T16:42:13.583Z</time></trkpt><trkpt lat="44.3286777" lon="7.656462"><ele>556.0</ele><time>2026-04-18T16:42:14.584Z</time></trkpt><trkpt lat="44.3286341" lon="7.6561352"><ele>556.0</ele><time>2026-04-18T16:42:15.585Z</time></trkpt><trkpt lat="44.328592" lon="7.655813"><ele>556.5</ele><time>2026-04-18T16:42:16.583Z</time></trkpt><trkpt lat="44.328548" lon="7.6554878"><ele>557.0</ele><time>2026-04-18T16:42:17.584Z</time></trkpt><trkpt lat="44.3285122" lon="7.655157"><ele>557.0</ele><time>2026-04-18T16:42:18.584Z</time></trkpt><trkpt lat="44.3284718" lon="7.6548289"><ele>557.0</ele><time>2026-04-18T16:42:19.583Z</time></trkpt><trkpt lat="44.328433" lon="7.6545072"><ele>557.0</ele><time>2026-04-18T16:42:20.585Z</time></trkpt><trkpt lat="44.328389" lon="7.6541858"><ele>557.0</ele><time>2026-04-18T16:42:21.584Z</time></trkpt><trkpt lat="44.3283421" lon="7.6538628"><ele>557.5</ele><time>2026-04-18T16:42:22.583Z</time></trkpt><trkpt lat="44.3283018" lon="7.653541"><ele>558.0</ele><time>2026-04-18T16:42:23.584Z</time></trkpt><trkpt lat="44.3282597" lon="7.6532321"><ele>558.0</ele><time>2026-04-18T16:42:24.583Z</time></trkpt><trkpt lat="44.3282213" lon="7.6529174"><ele>558.0</ele><time>2026-04-18T16:42:25.584Z</time></trkpt><trkpt lat="44.3281848" lon="7.6526123"><ele>559.0</ele><time>2026-04-18T16:42:26.584Z</time></trkpt><trkpt lat="44.3281459" lon="7.6523056"><ele>560.0</ele><time>2026-04-18T16:42:27.583Z</time></trkpt><trkpt lat="44.3281062" lon="7.6520063"><ele>561.0</ele><time>2026-04-18T16:42:28.585Z</time></trkpt><trkpt lat="44.3280668" lon="7.6517154"><ele>564.0</ele><time>2026-04-18T16:42:29.583Z</time></trkpt><trkpt lat="44.328032" lon="7.6514334"><ele>567.0</ele><time>2026-04-18T16:42:30.583Z</time></trkpt><trkpt lat="44.3279955" lon="7.6511528"><ele>570.0</ele><time>2026-04-18T16:42:31.583Z</time></trkpt><trkpt lat="44.3279622" lon="7.650876"><ele>570.0</ele><time>2026-04-18T16:42:32.583Z</time></trkpt><trkpt lat="44.3279215" lon="7.6505998"><ele>570.0</ele><time>2026-04-18T16:42:33.584Z</time></trkpt><trkpt lat="44.3278768" lon="7.6503147"><ele>570.0</ele><time>2026-04-18T16:42:34.583Z</time></trkpt><trkpt lat="44.3278424" lon="7.6500314"><ele>571.0</ele><time>2026-04-18T16:42:35.584Z</time></trkpt><trkpt lat="44.3278096" lon="7.6497395"><ele>572.0</ele><time>2026-04-18T16:42:36.585Z</time></trkpt><trkpt lat="44.3277717" lon="7.6494431"><ele>573.0</ele><time>2026-04-18T16:42:37.583Z</time></trkpt><trkpt lat="44.3277338" lon="7.6491492"><ele>573.3333333333334</ele><time>2026-04-18T16:42:38.584Z</time></trkpt><trkpt lat="44.3277013" lon="7.6488532"><ele>573.6666666666667</ele><time>2026-04-18T16:42:39.584Z</time></trkpt><trkpt lat="44.3276692" lon="7.6485567"><ele>574.0</ele><time>2026-04-18T16:42:40.584Z</time></trkpt><trkpt lat="44.3276342" lon="7.6482627"><ele>574.0</ele><time>2026-04-18T16:42:41.583Z</time></trkpt><trkpt lat="44.3275948" lon="7.6479698"><ele>574.0</ele><time>2026-04-18T16:42:42.584Z</time></trkpt><trkpt lat="44.3275407" lon="7.6476784"><ele>574.0</ele><time>2026-04-18T16:42:43.583Z</time></trkpt><trkpt lat="44.3274772" lon="7.6473858"><ele>573.0</ele><time>2026-04-18T16:42:44.585Z</time></trkpt><trkpt lat="44.3274072" lon="7.6471003"><ele>572.0</ele><time>2026-04-18T16:42:45.583Z</time></trkpt><trkpt lat="44.3273315" lon="7.6468108"><ele>571.0</ele><time>2026-04-18T16:42:46.583Z</time></trkpt><trkpt lat="44.3272542" lon="7.6465283"><ele>574.0</ele><time>2026-04-18T16:42:47.584Z</time></trkpt><trkpt lat="44.3271821" lon="7.6462368"><ele>577.0</ele><time>2026-04-18T16:42:48.585Z</time></trkpt><trkpt lat="44.3271123" lon="7.645946"><ele>580.0</ele><time>2026-04-18T16:42:49.584Z</time></trkpt><trkpt lat="44.327041" lon="7.6456603"><ele>580.0</ele><time>2026-04-18T16:42:50.585Z</time></trkpt><trkpt lat="44.3269761" lon="7.6453937"><ele>580.0</ele><time>2026-04-18T16:42:51.585Z</time></trkpt><trkpt lat="44.3269186" lon="7.6451695"><ele>580.0</ele><time>2026-04-18T16:42:52.584Z</time></trkpt><trkpt lat="44.3268559" lon="7.6449581"><ele>578.3333333333334</ele><time>2026-04-18T16:42:53.583Z</time></trkpt><trkpt lat="44.3267818" lon="7.6447547"><ele>576.6666666666666</ele><time>2026-04-18T16:42:54.583Z</time></trkpt><trkpt lat="44.3267013" lon="7.64455"><ele>575.0</ele><time>2026-04-18T16:42:55.583Z</time></trkpt><trkpt lat="44.3266193" lon="7.6443412"><ele>575.3333333333333</ele><time>2026-04-18T16:42:56.583Z</time></trkpt><trkpt lat="44.3265298" lon="7.644127"><ele>575.6666666666666</ele><time>2026-04-18T16:42:57.583Z</time></trkpt><trkpt lat="44.3264348" lon="7.6439114"><ele>576.0</ele><time>2026-04-18T16:42:58.583Z</time></trkpt><trkpt lat="44.3263312" lon="7.6436986"><ele>574.3333333333334</ele><time>2026-04-18T16:42:59.583Z</time></trkpt><trkpt lat="44.3262231" lon="7.6434859"><ele>572.6666666666667</ele><time>2026-04-18T16:43:00.583Z</time></trkpt><trkpt lat="44.326119" lon="7.6432771"><ele>571.0</ele><time>2026-04-18T16:43:01.585Z</time></trkpt><trkpt lat="44.3260227" lon="7.6430743"><ele>571.0</ele><time>2026-04-18T16:43:02.584Z</time></trkpt><trkpt lat="44.325933" lon="7.6428789"><ele>571.0</ele><time>2026-04-18T16:43:03.583Z</time></trkpt><trkpt lat="44.325857" lon="7.642684"><ele>571.0</ele><time>2026-04-18T16:43:04.583Z</time></trkpt><trkpt lat="44.3258001" lon="7.6424892"><ele>570.0</ele><time>2026-04-18T16:43:05.583Z</time></trkpt><trkpt lat="44.3257651" lon="7.6422967"><ele>569.0</ele><time>2026-04-18T16:43:06.583Z</time></trkpt><trkpt lat="44.3257594" lon="7.6421061"><ele>568.0</ele><time>2026-04-18T16:43:07.585Z</time></trkpt><trkpt lat="44.3257809" lon="7.6419371"><ele>567.0</ele><time>2026-04-18T16:43:08.584Z</time></trkpt><trkpt lat="44.3258235" lon="7.6417717"><ele>566.6</ele><time>2026-04-18T16:43:09.584Z</time></trkpt><trkpt lat="44.3258835" lon="7.6416306"><ele>566.2</ele><time>2026-04-18T16:43:10.583Z</time></trkpt><trkpt lat="44.3259478" lon="7.6415199"><ele>565.8</ele><time>2026-04-18T16:43:11.583Z</time></trkpt><trkpt lat="44.3260048" lon="7.641414"><ele>565.4</ele><time>2026-04-18T16:43:12.584Z</time></trkpt><trkpt lat="44.3260652" lon="7.6413113"><ele>565.0</ele><time>2026-04-18T16:43:13.583Z</time></trkpt><trkpt lat="44.32613" lon="7.6412134"><ele>565.0</ele><time>2026-04-18T16:43:14.584Z</time></trkpt><trkpt lat="44.3261925" lon="7.6411066"><ele>565.0</ele><time>2026-04-18T16:43:15.583Z</time></trkpt><trkpt lat="44.3262564" lon="7.6410012"><ele>565.0</ele><time>2026-04-18T16:43:16.584Z</time></trkpt><trkpt lat="44.3263189" lon="7.6408954"><ele>565.0</ele><time>2026-04-18T16:43:17.584Z</time></trkpt><trkpt lat="44.3263797" lon="7.6408032"><ele>565.0</ele><time>2026-04-18T16:43:18.583Z</time></trkpt><trkpt lat="44.3264324" lon="7.6407122"><ele>565.0</ele><time>2026-04-18T16:43:19.584Z</time></trkpt><trkpt lat="44.3265051" lon="7.6405957"><ele>565.0</ele><time>2026-04-18T16:43:21.583Z</time></trkpt><trkpt lat="44.3265157" lon="7.6404861"><ele>565.0</ele><time>2026-04-18T16:43:23.583Z</time></trkpt><trkpt lat="44.3264338" lon="7.6403662"><ele>565.0</ele><time>2026-04-18T16:43:25.583Z</time></trkpt><trkpt lat="44.3263748" lon="7.6403116"><ele>565.0</ele><time>2026-04-18T16:43:26.584Z</time></trkpt><trkpt lat="44.326321" lon="7.640256"><ele>565.0</ele><time>2026-04-18T16:43:27.584Z</time></trkpt><trkpt lat="44.3262534" lon="7.6401705"><ele>565.0</ele><time>2026-04-18T16:43:29.585Z</time></trkpt><trkpt lat="44.3262009" lon="7.6400873"><ele>565.0</ele><time>2026-04-18T16:43:32.584Z</time></trkpt><trkpt lat="44.3261506" lon="7.6400229"><ele>565.0</ele><time>2026-04-18T16:43:34.583Z</time></trkpt><trkpt lat="44.3260824" lon="7.6398955"><ele>565.0</ele><time>2026-04-18T16:43:36.583Z</time></trkpt><trkpt lat="44.3260404" lon="7.6398248"><ele>565.0</ele><time>2026-04-18T16:43:37.584Z</time></trkpt><trkpt lat="44.3259795" lon="7.6397569"><ele>565.0</ele><time>2026-04-18T16:43:38.583Z</time></trkpt><trkpt lat="44.3259136" lon="7.6396769"><ele>565.0</ele><time>2026-04-18T16:43:39.584Z</time></trkpt><trkpt lat="44.3258433" lon="7.6396043"><ele>565.0</ele><time>2026-04-18T16:43:40.583Z</time></trkpt><trkpt lat="44.3257752" lon="7.6395662"><ele>565.0</ele><time>2026-04-18T16:43:41.584Z</time></trkpt><trkpt lat="44.325716" lon="7.6394997"><ele>565.0</ele><time>2026-04-18T16:43:42.583Z</time></trkpt><trkpt lat="44.3256516" lon="7.6394452"><ele>565.0</ele><time>2026-04-18T16:43:44.584Z</time></trkpt><trkpt lat="44.3257235" lon="7.6394992"><ele>565.0</ele><time>2026-04-18T16:43:50.583Z</time></trkpt><trkpt lat="44.3257794" lon="7.6395582"><ele>565.0</ele><time>2026-04-18T16:43:51.583Z</time></trkpt><trkpt lat="44.3258535" lon="7.6396319"><ele>565.0</ele><time>2026-04-18T16:43:52.583Z</time></trkpt><trkpt lat="44.3259287" lon="7.6397079"><ele>565.0</ele><time>2026-04-18T16:43:53.583Z</time></trkpt><trkpt lat="44.3260375" lon="7.6398454"><ele>565.0</ele><time>2026-04-18T16:43:54.583Z</time></trkpt><trkpt lat="44.3261279" lon="7.6399852"><ele>565.0</ele><time>2026-04-18T16:43:55.583Z</time></trkpt><trkpt lat="44.3261887" lon="7.6401108"><ele>565.0</ele><time>2026-04-18T16:43:56.584Z</time></trkpt><trkpt lat="44.326261" lon="7.6402431"><ele>565.0</ele><time>2026-04-18T16:43:57.584Z</time></trkpt><trkpt lat="44.326344" lon="7.6403147"><ele>565.0</ele><time>2026-04-18T16:43:58.584Z</time></trkpt><trkpt lat="44.3264038" lon="7.6403867"><ele>565.0</ele><time>2026-04-18T16:43:59.584Z</time></trkpt><trkpt lat="44.3264561" lon="7.6404425"><ele>565.1666666666667</ele><time>2026-04-18T16:44:00.584Z</time></trkpt><trkpt lat="44.3265223" lon="7.6404866"><ele>565.3333333333334</ele><time>2026-04-18T16:44:02.584Z</time></trkpt><trkpt lat="44.326593" lon="7.6404802"><ele>565.5</ele><time>2026-04-18T16:44:06.583Z</time></trkpt><trkpt lat="44.3266666" lon="7.6403537"><ele>565.6666666666666</ele><time>2026-04-18T16:44:08.585Z</time></trkpt><trkpt lat="44.3267041" lon="7.6402527"><ele>565.8333333333333</ele><time>2026-04-18T16:44:09.584Z</time></trkpt><trkpt lat="44.3267568" lon="7.6401604"><ele>566.0</ele><time>2026-04-18T16:44:10.583Z</time></trkpt><trkpt lat="44.3268208" lon="7.6400435"><ele>566.0</ele><time>2026-04-18T16:44:11.583Z</time></trkpt><trkpt lat="44.3269017" lon="7.639923"><ele>566.0</ele><time>2026-04-18T16:44:12.583Z</time></trkpt><trkpt lat="44.3269819" lon="7.6398127"><ele>566.0</ele><time>2026-04-18T16:44:13.584Z</time></trkpt><trkpt lat="44.3270603" lon="7.639679"><ele>566.0</ele><time>2026-04-18T16:44:14.583Z</time></trkpt><trkpt lat="44.3271433" lon="7.6395487"><ele>566.2</ele><time>2026-04-18T16:44:15.584Z</time></trkpt><trkpt lat="44.3272261" lon="7.6394246"><ele>566.4000000000001</ele><time>2026-04-18T16:44:16.584Z</time></trkpt><trkpt lat="44.327299" lon="7.6393119"><ele>566.6</ele><time>2026-04-18T16:44:17.583Z</time></trkpt><trkpt lat="44.327365" lon="7.6392044"><ele>566.8000000000001</ele><time>2026-04-18T16:44:18.584Z</time></trkpt><trkpt lat="44.3274234" lon="7.6391032"><ele>567.0</ele><time>2026-04-18T16:44:19.584Z</time></trkpt><trkpt lat="44.3274992" lon="7.639006"><ele>566.5</ele><time>2026-04-18T16:44:20.583Z</time></trkpt><trkpt lat="44.3275788" lon="7.6388863"><ele>566.0</ele><time>2026-04-18T16:44:21.584Z</time></trkpt><trkpt lat="44.3276585" lon="7.6387574"><ele>565.5</ele><time>2026-04-18T16:44:22.583Z</time></trkpt><trkpt lat="44.3277478" lon="7.6386115"><ele>565.0</ele><time>2026-04-18T16:44:23.583Z</time></trkpt><trkpt lat="44.3278463" lon="7.6384515"><ele>565.0</ele><time>2026-04-18T16:44:24.584Z</time></trkpt><trkpt lat="44.3279528" lon="7.6382841"><ele>565.0</ele><time>2026-04-18T16:44:25.584Z</time></trkpt><trkpt lat="44.328046" lon="7.6381181"><ele>565.0</ele><time>2026-04-18T16:44:26.584Z</time></trkpt><trkpt lat="44.3281308" lon="7.6379853"><ele>565.0</ele><time>2026-04-18T16:44:27.584Z</time></trkpt><trkpt lat="44.3281928" lon="7.6378942"><ele>565.1666666666667</ele><time>2026-04-18T16:44:28.585Z</time></trkpt><trkpt lat="44.3282462" lon="7.6378246"><ele>565.3333333333334</ele><time>2026-04-18T16:44:29.584Z</time></trkpt><trkpt lat="44.3282913" lon="7.6377522"><ele>565.5</ele><time>2026-04-18T16:44:30.583Z</time></trkpt><trkpt lat="44.3283668" lon="7.6376232"><ele>565.6666666666666</ele><time>2026-04-18T16:44:32.583Z</time></trkpt><trkpt lat="44.3284066" lon="7.6375546"><ele>565.8333333333333</ele><time>2026-04-18T16:44:33.583Z</time></trkpt><trkpt lat="44.3284725" lon="7.6374308"><ele>566.0</ele><time>2026-04-18T16:44:35.583Z</time></trkpt><trkpt lat="44.328521" lon="7.6373607"><ele>566.0</ele><time>2026-04-18T16:44:37.583Z</time></trkpt><trkpt lat="44.3286302" lon="7.6374045"><ele>566.0</ele><time>2026-04-18T16:44:47.584Z</time></trkpt><trkpt lat="44.3286867" lon="7.6374596"><ele>566.0</ele><time>2026-04-18T16:44:48.583Z</time></trkpt><trkpt lat="44.3287511" lon="7.6375177"><ele>566.0</ele><time>2026-04-18T16:44:49.583Z</time></trkpt><trkpt lat="44.3288195" lon="7.6375683"><ele>566.0</ele><time>2026-04-18T16:44:50.584Z</time></trkpt><trkpt lat="44.3288898" lon="7.6376262"><ele>566.0</ele><time>2026-04-18T16:44:51.583Z</time></trkpt><trkpt lat="44.3289623" lon="7.6376804"><ele>565.8333333333333</ele><time>2026-04-18T16:44:52.584Z</time></trkpt><trkpt lat="44.329038" lon="7.637732"><ele>565.6666666666666</ele><time>2026-04-18T16:44:53.583Z</time></trkpt><trkpt lat="44.329117" lon="7.6377794"><ele>565.5</ele><time>2026-04-18T16:44:54.584Z</time></trkpt><trkpt lat="44.3291985" lon="7.6378268"><ele>565.3333333333334</ele><time>2026-04-18T16:44:55.585Z</time></trkpt><trkpt lat="44.3292735" lon="7.6378669"><ele>565.1666666666667</ele><time>2026-04-18T16:44:56.584Z</time></trkpt><trkpt lat="44.3293409" lon="7.6379085"><ele>565.0</ele><time>2026-04-18T16:44:57.583Z</time></trkpt><trkpt lat="44.329412" lon="7.6379508"><ele>564.5</ele><time>2026-04-18T16:44:58.584Z</time></trkpt><trkpt lat="44.3294842" lon="7.6379903"><ele>564.0</ele><time>2026-04-18T16:44:59.583Z</time></trkpt><trkpt lat="44.3295532" lon="7.6380266"><ele>563.5</ele><time>2026-04-18T16:45:00.585Z</time></trkpt><trkpt lat="44.3296347" lon="7.6380938"><ele>563.0</ele><time>2026-04-18T16:45:01.584Z</time></trkpt><trkpt lat="44.329703" lon="7.6381537"><ele>562.5</ele><time>2026-04-18T16:45:02.583Z</time></trkpt><trkpt lat="44.3297681" lon="7.6382135"><ele>562.0</ele><time>2026-04-18T16:45:03.583Z</time></trkpt><trkpt lat="44.3298262" lon="7.6382743"><ele>561.8333333333334</ele><time>2026-04-18T16:45:04.583Z</time></trkpt><trkpt lat="44.32993" lon="7.6383808"><ele>561.6666666666667</ele><time>2026-04-18T16:45:06.583Z</time></trkpt><trkpt lat="44.3299914" lon="7.638424"><ele>561.5</ele><time>2026-04-18T16:45:07.584Z</time></trkpt><trkpt lat="44.3300575" lon="7.6384798"><ele>561.3333333333334</ele><time>2026-04-18T16:45:08.584Z</time></trkpt><trkpt lat="44.3301211" lon="7.6385355"><ele>561.1666666666666</ele><time>2026-04-18T16:45:09.583Z</time></trkpt><trkpt lat="44.330183" lon="7.6385851"><ele>561.0</ele><time>2026-04-18T16:45:10.585Z</time></trkpt><trkpt lat="44.3302418" lon="7.6386362"><ele>561.0</ele><time>2026-04-18T16:45:11.584Z</time></trkpt><trkpt lat="44.330298" lon="7.6386873"><ele>561.0</ele><time>2026-04-18T16:45:12.585Z</time></trkpt><trkpt lat="44.3303787" lon="7.6387427"><ele>561.0</ele><time>2026-04-18T16:45:14.584Z</time></trkpt><trkpt lat="44.3304427" lon="7.6386938"><ele>561.0</ele><time>2026-04-18T16:45:16.584Z</time></trkpt><trkpt lat="44.330492" lon="7.6385852"><ele>561.0</ele><time>2026-04-18T16:45:18.584Z</time></trkpt><trkpt lat="44.3305307" lon="7.6384767"><ele>561.0</ele><time>2026-04-18T16:45:20.584Z</time></trkpt><trkpt lat="44.3306156" lon="7.6384744"><ele>560.8</ele><time>2026-04-18T16:45:23.584Z</time></trkpt><trkpt lat="44.330692" lon="7.6385325"><ele>560.6</ele><time>2026-04-18T16:45:25.584Z</time></trkpt><trkpt lat="44.33077" lon="7.6385471"><ele>560.4</ele><time>2026-04-18T16:45:27.584Z</time></trkpt><trkpt lat="44.3308265" lon="7.6384628"><ele>560.2</ele><time>2026-04-18T16:45:29.583Z</time></trkpt><trkpt lat="44.3308788" lon="7.6382952"><ele>560.0</ele><time>2026-04-18T16:45:31.584Z</time></trkpt><trkpt lat="44.3309447" lon="7.6381313"><ele>560.0</ele><time>2026-04-18T16:45:33.585Z</time></trkpt><trkpt lat="44.3309789" lon="7.6380351"><ele>560.0</ele><time>2026-04-18T16:45:34.584Z</time></trkpt><trkpt lat="44.3310135" lon="7.6379432"><ele>560.0</ele><time>2026-04-18T16:45:35.584Z</time></trkpt><trkpt lat="44.3310536" lon="7.6378476"><ele>560.0</ele><time>2026-04-18T16:45:36.584Z</time></trkpt><trkpt lat="44.3311323" lon="7.6377343"><ele>560.0</ele><time>2026-04-18T16:45:38.584Z</time></trkpt><trkpt lat="44.331219" lon="7.637616"><ele>560.0</ele><time>2026-04-18T16:45:40.583Z</time></trkpt><trkpt lat="44.331283" lon="7.6375658"><ele>560.0</ele><time>2026-04-18T16:45:41.583Z</time></trkpt><trkpt lat="44.3313291" lon="7.6375005"><ele>560.0</ele><time>2026-04-18T16:45:42.583Z</time></trkpt><trkpt lat="44.3313808" lon="7.6373715"><ele>560.0</ele><time>2026-04-18T16:45:44.583Z</time></trkpt><trkpt lat="44.3314331" lon="7.6372599"><ele>560.0</ele><time>2026-04-18T16:45:46.583Z</time></trkpt><trkpt lat="44.331454" lon="7.6371765"><ele>560.0</ele><time>2026-04-18T16:45:59.584Z</time></trkpt><trkpt lat="44.3315078" lon="7.6370599"><ele>559.8333333333333</ele><time>2026-04-18T16:46:01.584Z</time></trkpt><trkpt lat="44.3315451" lon="7.6369521"><ele>559.6666666666666</ele><time>2026-04-18T16:46:03.584Z</time></trkpt><trkpt lat="44.3315155" lon="7.6368477"><ele>559.5</ele><time>2026-04-18T16:46:05.584Z</time></trkpt><trkpt lat="44.3314777" lon="7.6367768"><ele>559.3333333333334</ele><time>2026-04-18T16:46:06.584Z</time></trkpt><trkpt lat="44.3314327" lon="7.6366917"><ele>559.1666666666667</ele><time>2026-04-18T16:46:07.585Z</time></trkpt><trkpt lat="44.3313773" lon="7.6365743"><ele>559.0</ele><time>2026-04-18T16:46:08.584Z</time></trkpt><trkpt lat="44.3313102" lon="7.636461"><ele>559.0</ele><time>2026-04-18T16:46:09.584Z</time></trkpt><trkpt lat="44.3312411" lon="7.6363392"><ele>559.0</ele><time>2026-04-18T16:46:10.584Z</time></trkpt><trkpt lat="44.3311686" lon="7.6362202"><ele>559.0</ele><time>2026-04-18T16:46:11.585Z</time></trkpt><trkpt lat="44.3310845" lon="7.6361031"><ele>559.0</ele><time>2026-04-18T16:46:12.583Z</time></trkpt><trkpt lat="44.3309946" lon="7.6359872"><ele>559.2</ele><time>2026-04-18T16:46:13.584Z</time></trkpt><trkpt lat="44.3309099" lon="7.6358888"><ele>559.4</ele><time>2026-04-18T16:46:14.583Z</time></trkpt><trkpt lat="44.3308432" lon="7.6357909"><ele>559.6</ele><time>2026-04-18T16:46:15.585Z</time></trkpt><trkpt lat="44.3307827" lon="7.6356903"><ele>559.8</ele><time>2026-04-18T16:46:16.584Z</time></trkpt><trkpt lat="44.3307344" lon="7.6355938"><ele>560.0</ele><time>2026-04-18T16:46:17.585Z</time></trkpt><trkpt lat="44.3307001" lon="7.6355076"><ele>560.0</ele><time>2026-04-18T16:46:18.584Z</time></trkpt><trkpt lat="44.3306688" lon="7.6354288"><ele>560.0</ele><time>2026-04-18T16:46:19.584Z</time></trkpt><trkpt lat="44.3306454" lon="7.6352956"><ele>560.0</ele><time>2026-04-18T16:46:21.584Z</time></trkpt><trkpt lat="44.3306904" lon="7.6351722"><ele>560.0</ele><time>2026-04-18T16:46:23.584Z</time></trkpt><trkpt lat="44.3307383" lon="7.6350782"><ele>560.0</ele><time>2026-04-18T16:46:24.584Z</time></trkpt><trkpt lat="44.3307857" lon="7.6350124"><ele>560.0</ele><time>2026-04-18T16:46:25.585Z</time></trkpt><trkpt lat="44.3308345" lon="7.6349471"><ele>560.4</ele><time>2026-04-18T16:46:26.585Z</time></trkpt><trkpt lat="44.3309252" lon="7.6349548"><ele>560.8</ele><time>2026-04-18T16:46:27.584Z</time></trkpt><trkpt lat="44.3310132" lon="7.6349337"><ele>561.2</ele><time>2026-04-18T16:46:28.584Z</time></trkpt><trkpt lat="44.3311127" lon="7.6348945"><ele>561.6</ele><time>2026-04-18T16:46:29.584Z</time></trkpt><trkpt lat="44.331222" lon="7.6348069"><ele>562.0</ele><time>2026-04-18T16:46:30.585Z</time></trkpt><trkpt lat="44.3313424" lon="7.6347002"><ele>561.5</ele><time>2026-04-18T16:46:31.585Z</time></trkpt><trkpt lat="44.3314742" lon="7.6346117"><ele>561.0</ele><time>2026-04-18T16:46:32.583Z</time></trkpt><trkpt lat="44.3316113" lon="7.6345407"><ele>560.5</ele><time>2026-04-18T16:46:33.583Z</time></trkpt><trkpt lat="44.3317304" lon="7.6344546"><ele>560.0</ele><time>2026-04-18T16:46:34.584Z</time></trkpt><trkpt lat="44.3318652" lon="7.6343571"><ele>559.75</ele><time>2026-04-18T16:46:35.584Z</time></trkpt><trkpt lat="44.331984" lon="7.6342827"><ele>559.5</ele><time>2026-04-18T16:46:36.584Z</time></trkpt><trkpt lat="44.3320967" lon="7.6342148"><ele>559.25</ele><time>2026-04-18T16:46:37.584Z</time></trkpt><trkpt lat="44.3321962" lon="7.6341421"><ele>559.0</ele><time>2026-04-18T16:46:38.583Z</time></trkpt><trkpt lat="44.3322994" lon="7.6340626"><ele>558.6666666666667</ele><time>2026-04-18T16:46:39.583Z</time></trkpt><trkpt lat="44.3323884" lon="7.6339875"><ele>558.3333333333334</ele><time>2026-04-18T16:46:40.583Z</time></trkpt><trkpt lat="44.3324443" lon="7.6339098"><ele>558.0</ele><time>2026-04-18T16:46:41.584Z</time></trkpt><trkpt lat="44.3325094" lon="7.6338234"><ele>557.6666666666666</ele><time>2026-04-18T16:46:42.584Z</time></trkpt><trkpt lat="44.3325829" lon="7.6337354"><ele>557.3333333333333</ele><time>2026-04-18T16:46:43.585Z</time></trkpt><trkpt lat="44.3326254" lon="7.6336442"><ele>557.0</ele><time>2026-04-18T16:46:44.584Z</time></trkpt><trkpt lat="44.3326934" lon="7.6335429"><ele>557.0</ele><time>2026-04-18T16:46:45.583Z</time></trkpt><trkpt lat="44.3327511" lon="7.6334124"><ele>557.0</ele><time>2026-04-18T16:46:46.583Z</time></trkpt><trkpt lat="44.3328203" lon="7.6332888"><ele>557.0</ele><time>2026-04-18T16:46:47.583Z</time></trkpt><trkpt lat="44.3328779" lon="7.6331638"><ele>557.0</ele><time>2026-04-18T16:46:48.584Z</time></trkpt><trkpt lat="44.3329336" lon="7.6330356"><ele>557.0</ele><time>2026-04-18T16:46:49.583Z</time></trkpt><trkpt lat="44.332993" lon="7.632906"><ele>557.2</ele><time>2026-04-18T16:46:50.583Z</time></trkpt><trkpt lat="44.3330485" lon="7.6327947"><ele>557.4000000000001</ele><time>2026-04-18T16:46:51.584Z</time></trkpt><trkpt lat="44.333117" lon="7.632702"><ele>557.5999999999999</ele><time>2026-04-18T16:46:52.583Z</time></trkpt><trkpt lat="44.3331979" lon="7.6325994"><ele>557.8</ele><time>2026-04-18T16:46:53.585Z</time></trkpt><trkpt lat="44.3332806" lon="7.6325011"><ele>558.0</ele><time>2026-04-18T16:46:54.583Z</time></trkpt><trkpt lat="44.3333536" lon="7.6323838"><ele>558.0</ele><time>2026-04-18T16:46:55.584Z</time></trkpt><trkpt lat="44.3334207" lon="7.6322643"><ele>558.0</ele><time>2026-04-18T16:46:56.583Z</time></trkpt><trkpt lat="44.3334904" lon="7.6321503"><ele>558.0</ele><time>2026-04-18T16:46:57.584Z</time></trkpt><trkpt lat="44.3335701" lon="7.6320365"><ele>558.0</ele><time>2026-04-18T16:46:58.583Z</time></trkpt><trkpt lat="44.333649" lon="7.6319172"><ele>558.0</ele><time>2026-04-18T16:46:59.584Z</time></trkpt><trkpt lat="44.3337446" lon="7.6317847"><ele>558.0</ele><time>2026-04-18T16:47:00.584Z</time></trkpt><trkpt lat="44.3338396" lon="7.6316535"><ele>558.0</ele><time>2026-04-18T16:47:01.585Z</time></trkpt><trkpt lat="44.3339204" lon="7.6315246"><ele>558.0</ele><time>2026-04-18T16:47:02.584Z</time></trkpt><trkpt lat="44.3339966" lon="7.6313796"><ele>558.0</ele><time>2026-04-18T16:47:03.584Z</time></trkpt><trkpt lat="44.3340643" lon="7.6312377"><ele>557.1999999999999</ele><time>2026-04-18T16:47:04.584Z</time></trkpt><trkpt lat="44.3341262" lon="7.6311069"><ele>556.4</ele><time>2026-04-18T16:47:05.583Z</time></trkpt><trkpt lat="44.3341854" lon="7.6309871"><ele>555.5999999999999</ele><time>2026-04-18T16:47:06.584Z</time></trkpt><trkpt lat="44.3342503" lon="7.6308758"><ele>554.8</ele><time>2026-04-18T16:47:07.584Z</time></trkpt><trkpt lat="44.3343139" lon="7.63076"><ele>554.0</ele><time>2026-04-18T16:47:08.584Z</time></trkpt><trkpt lat="44.3343728" lon="7.6306366"><ele>554.0</ele><time>2026-04-18T16:47:09.583Z</time></trkpt><trkpt lat="44.3344158" lon="7.6304861"><ele>554.0</ele><time>2026-04-18T16:47:10.584Z</time></trkpt><trkpt lat="44.3344606" lon="7.6303489"><ele>554.0</ele><time>2026-04-18T16:47:11.584Z</time></trkpt><trkpt lat="44.33451" lon="7.6301867"><ele>554.0</ele><time>2026-04-18T16:47:12.583Z</time></trkpt><trkpt lat="44.3345677" lon="7.6300129"><ele>554.0</ele><time>2026-04-18T16:47:13.585Z</time></trkpt><trkpt lat="44.3346309" lon="7.629835"><ele>554.0</ele><time>2026-04-18T16:47:14.585Z</time></trkpt><trkpt lat="44.3346906" lon="7.6296706"><ele>554.0</ele><time>2026-04-18T16:47:15.583Z</time></trkpt><trkpt lat="44.3347561" lon="7.6295211"><ele>554.0</ele><time>2026-04-18T16:47:16.584Z</time></trkpt><trkpt lat="44.3348142" lon="7.6293805"><ele>554.0</ele><time>2026-04-18T16:47:17.584Z</time></trkpt><trkpt lat="44.3348592" lon="7.6292433"><ele>554.0</ele><time>2026-04-18T16:47:18.583Z</time></trkpt><trkpt lat="44.3348901" lon="7.6291218"><ele>554.0</ele><time>2026-04-18T16:47:19.583Z</time></trkpt><trkpt lat="44.3349079" lon="7.6290194"><ele>554.0</ele><time>2026-04-18T16:47:20.584Z</time></trkpt><trkpt lat="44.3349506" lon="7.6288856"><ele>554.0</ele><time>2026-04-18T16:47:22.583Z</time></trkpt><trkpt lat="44.3349742" lon="7.6287721"><ele>554.0</ele><time>2026-04-18T16:47:24.584Z</time></trkpt><trkpt lat="44.3349865" lon="7.6286782"><ele>554.0</ele><time>2026-04-18T16:47:25.584Z</time></trkpt><trkpt lat="44.3349802" lon="7.6285627"><ele>554.0</ele><time>2026-04-18T16:47:26.583Z</time></trkpt><trkpt lat="44.3349633" lon="7.628435"><ele>554.0</ele><time>2026-04-18T16:47:27.584Z</time></trkpt><trkpt lat="44.3349311" lon="7.6282753"><ele>554.0</ele><time>2026-04-18T16:47:28.585Z</time></trkpt><trkpt lat="44.3348813" lon="7.6281166"><ele>554.0</ele><time>2026-04-18T16:47:29.584Z</time></trkpt><trkpt lat="44.3348061" lon="7.6279542"><ele>554.0</ele><time>2026-04-18T16:47:30.583Z</time></trkpt><trkpt lat="44.3347276" lon="7.6277799"><ele>554.0</ele><time>2026-04-18T16:47:31.583Z</time></trkpt><trkpt lat="44.334659" lon="7.627598"><ele>554.0</ele><time>2026-04-18T16:47:32.584Z</time></trkpt><trkpt lat="44.3345986" lon="7.6274028"><ele>555.3333333333333</ele><time>2026-04-18T16:47:33.584Z</time></trkpt><trkpt lat="44.3345423" lon="7.6271869"><ele>556.6666666666666</ele><time>2026-04-18T16:47:34.583Z</time></trkpt><trkpt lat="44.3344872" lon="7.6269634"><ele>558.0</ele><time>2026-04-18T16:47:35.583Z</time></trkpt><trkpt lat="44.3344262" lon="7.6267319"><ele>558.0</ele><time>2026-04-18T16:47:36.584Z</time></trkpt><trkpt lat="44.3343643" lon="7.626492"><ele>558.0</ele><time>2026-04-18T16:47:37.583Z</time></trkpt><trkpt lat="44.3343082" lon="7.6262585"><ele>558.0</ele><time>2026-04-18T16:47:38.584Z</time></trkpt><trkpt lat="44.33426" lon="7.6260208"><ele>558.3333333333334</ele><time>2026-04-18T16:47:39.584Z</time></trkpt><trkpt lat="44.334229" lon="7.6257782"><ele>558.6666666666667</ele><time>2026-04-18T16:47:40.584Z</time></trkpt><trkpt lat="44.3341918" lon="7.6255373"><ele>559.0</ele><time>2026-04-18T16:47:41.583Z</time></trkpt><trkpt lat="44.3341641" lon="7.6252914"><ele>559.0</ele><time>2026-04-18T16:47:42.584Z</time></trkpt><trkpt lat="44.3341286" lon="7.6250445"><ele>559.0</ele><time>2026-04-18T16:47:43.584Z</time></trkpt><trkpt lat="44.3340985" lon="7.6248071"><ele>559.0</ele><time>2026-04-18T16:47:44.583Z</time></trkpt><trkpt lat="44.334063" lon="7.6245753"><ele>558.6666666666667</ele><time>2026-04-18T16:47:45.584Z</time></trkpt><trkpt lat="44.3340228" lon="7.6243369"><ele>558.3333333333334</ele><time>2026-04-18T16:47:46.583Z</time></trkpt><trkpt lat="44.3339808" lon="7.624113"><ele>558.0</ele><time>2026-04-18T16:47:47.583Z</time></trkpt><trkpt lat="44.3339462" lon="7.6239049"><ele>558.0</ele><time>2026-04-18T16:47:48.584Z</time></trkpt><trkpt lat="44.333899" lon="7.623733"><ele>558.0</ele><time>2026-04-18T16:47:49.584Z</time></trkpt><trkpt lat="44.3338602" lon="7.6235357"><ele>558.0</ele><time>2026-04-18T16:47:50.584Z</time></trkpt><trkpt lat="44.3338375" lon="7.6233933"><ele>558.0</ele><time>2026-04-18T16:47:51.584Z</time></trkpt><trkpt lat="44.3338186" lon="7.6232884"><ele>558.0</ele><time>2026-04-18T16:47:52.585Z</time></trkpt><trkpt lat="44.3337846" lon="7.6231666"><ele>558.0</ele><time>2026-04-18T16:47:54.585Z</time></trkpt><trkpt lat="44.333796" lon="7.623067"><ele>558.0</ele><time>2026-04-18T16:47:57.584Z</time></trkpt><trkpt lat="44.3338699" lon="7.6229608"><ele>558.0</ele><time>2026-04-18T16:47:59.585Z</time></trkpt><trkpt lat="44.3339515" lon="7.6229124"><ele>558.0</ele><time>2026-04-18T16:48:00.583Z</time></trkpt><trkpt lat="44.3340209" lon="7.6228687"><ele>558.0</ele><time>2026-04-18T16:48:01.585Z</time></trkpt><trkpt lat="44.33416" lon="7.6228481"><ele>558.25</ele><time>2026-04-18T16:48:02.585Z</time></trkpt><trkpt lat="44.3342816" lon="7.6228047"><ele>558.5</ele><time>2026-04-18T16:48:03.583Z</time></trkpt><trkpt lat="44.3344203" lon="7.6227854"><ele>558.75</ele><time>2026-04-18T16:48:04.583Z</time></trkpt><trkpt lat="44.3345698" lon="7.6227857"><ele>559.0</ele><time>2026-04-18T16:48:05.583Z</time></trkpt><trkpt lat="44.334717" lon="7.6228105"><ele>557.3333333333334</ele><time>2026-04-18T16:48:06.584Z</time></trkpt><trkpt lat="44.3348637" lon="7.6228833"><ele>555.6666666666666</ele><time>2026-04-18T16:48:07.584Z</time></trkpt><trkpt lat="44.3350005" lon="7.6229793"><ele>554.0</ele><time>2026-04-18T16:48:08.583Z</time></trkpt><trkpt lat="44.3351338" lon="7.6231099"><ele>554.0</ele><time>2026-04-18T16:48:09.583Z</time></trkpt><trkpt lat="44.3352706" lon="7.6232366"><ele>554.0</ele><time>2026-04-18T16:48:10.583Z</time></trkpt><trkpt lat="44.3353829" lon="7.6233704"><ele>554.0</ele><time>2026-04-18T16:48:11.583Z</time></trkpt><trkpt lat="44.3354665" lon="7.6235134"><ele>554.0</ele><time>2026-04-18T16:48:12.584Z</time></trkpt><trkpt lat="44.3355799" lon="7.6236228"><ele>553.6</ele><time>2026-04-18T16:48:13.583Z</time></trkpt><trkpt lat="44.3356876" lon="7.623726"><ele>553.2</ele><time>2026-04-18T16:48:14.584Z</time></trkpt><trkpt lat="44.3357858" lon="7.6238122"><ele>552.8000000000001</ele><time>2026-04-18T16:48:15.584Z</time></trkpt><trkpt lat="44.3358814" lon="7.6238839"><ele>552.4</ele><time>2026-04-18T16:48:16.584Z</time></trkpt><trkpt lat="44.3359624" lon="7.6239479"><ele>552.0</ele><time>2026-04-18T16:48:17.584Z</time></trkpt><trkpt lat="44.3360488" lon="7.624025"><ele>552.0</ele><time>2026-04-18T16:48:19.583Z</time></trkpt><trkpt lat="44.3360115" lon="7.623873"><ele>552.0</ele><time>2026-04-18T16:49:00.584Z</time></trkpt><trkpt lat="44.3358718" lon="7.6237388"><ele>552.0</ele><time>2026-04-18T16:49:02.583Z</time></trkpt><trkpt lat="44.335707" lon="7.6236575"><ele>552.5</ele><time>2026-04-18T16:49:03.583Z</time></trkpt><trkpt lat="44.3356" lon="7.6235778"><ele>553.0</ele><time>2026-04-18T16:49:04.585Z</time></trkpt><trkpt lat="44.3354903" lon="7.6234769"><ele>553.5</ele><time>2026-04-18T16:49:05.584Z</time></trkpt><trkpt lat="44.3353955" lon="7.6233424"><ele>554.0</ele><time>2026-04-18T16:49:06.583Z</time></trkpt><trkpt lat="44.3352916" lon="7.6232168"><ele>554.0</ele><time>2026-04-18T16:49:07.584Z</time></trkpt><trkpt lat="44.3351923" lon="7.6230811"><ele>554.0</ele><time>2026-04-18T16:49:08.585Z</time></trkpt><trkpt lat="44.3350745" lon="7.6229633"><ele>554.0</ele><time>2026-04-18T16:49:09.584Z</time></trkpt><trkpt lat="44.3349613" lon="7.622871"><ele>554.0</ele><time>2026-04-18T16:49:10.583Z</time></trkpt><trkpt lat="44.3348405" lon="7.6227969"><ele>555.25</ele><time>2026-04-18T16:49:11.583Z</time></trkpt><trkpt lat="44.3347183" lon="7.6227612"><ele>556.5</ele><time>2026-04-18T16:49:12.583Z</time></trkpt><trkpt lat="44.3345888" lon="7.6227393"><ele>557.75</ele><time>2026-04-18T16:49:13.585Z</time></trkpt><trkpt lat="44.3344659" lon="7.6227391"><ele>559.0</ele><time>2026-04-18T16:49:14.584Z</time></trkpt><trkpt lat="44.3343458" lon="7.6227496"><ele>559.0</ele><time>2026-04-18T16:49:15.583Z</time></trkpt><trkpt lat="44.334224" lon="7.6227666"><ele>559.0</ele><time>2026-04-18T16:49:16.583Z</time></trkpt><trkpt lat="44.3341102" lon="7.6227977"><ele>559.0</ele><time>2026-04-18T16:49:17.583Z</time></trkpt><trkpt lat="44.3340014" lon="7.6228379"><ele>559.0</ele><time>2026-04-18T16:49:18.583Z</time></trkpt><trkpt lat="44.3339054" lon="7.6228829"><ele>559.5</ele><time>2026-04-18T16:49:19.584Z</time></trkpt><trkpt lat="44.3338127" lon="7.62292"><ele>560.0</ele><time>2026-04-18T16:49:20.583Z</time></trkpt><trkpt lat="44.3337228" lon="7.6229187"><ele>560.5</ele><time>2026-04-18T16:49:21.584Z</time></trkpt><trkpt lat="44.3336382" lon="7.6229008"><ele>561.0</ele><time>2026-04-18T16:49:22.584Z</time></trkpt><trkpt lat="44.3335597" lon="7.6228634"><ele>561.5</ele><time>2026-04-18T16:49:23.584Z</time></trkpt><trkpt lat="44.3334772" lon="7.6228031"><ele>562.0</ele><time>2026-04-18T16:49:24.583Z</time></trkpt><trkpt lat="44.333402" lon="7.6227227"><ele>562.2</ele><time>2026-04-18T16:49:25.584Z</time></trkpt><trkpt lat="44.3333275" lon="7.622622"><ele>562.4000000000001</ele><time>2026-04-18T16:49:26.583Z</time></trkpt><trkpt lat="44.3332625" lon="7.6225007"><ele>562.5999999999999</ele><time>2026-04-18T16:49:27.584Z</time></trkpt><trkpt lat="44.3332029" lon="7.6223644"><ele>562.8</ele><time>2026-04-18T16:49:28.583Z</time></trkpt><trkpt lat="44.3331409" lon="7.6222346"><ele>563.0</ele><time>2026-04-18T16:49:29.583Z</time></trkpt><trkpt lat="44.3330747" lon="7.6221059"><ele>563.75</ele><time>2026-04-18T16:49:30.583Z</time></trkpt><trkpt lat="44.3330126" lon="7.6219857"><ele>564.5</ele><time>2026-04-18T16:49:31.583Z</time></trkpt><trkpt lat="44.332939" lon="7.6218816"><ele>565.25</ele><time>2026-04-18T16:49:32.584Z</time></trkpt><trkpt lat="44.3328458" lon="7.6217851"><ele>566.0</ele><time>2026-04-18T16:49:33.583Z</time></trkpt><trkpt lat="44.3327338" lon="7.6216979"><ele>566.0</ele><time>2026-04-18T16:49:34.584Z</time></trkpt><trkpt lat="44.332632" lon="7.6216053"><ele>566.0</ele><time>2026-04-18T16:49:35.584Z</time></trkpt><trkpt lat="44.3325592" lon="7.6215051"><ele>566.0</ele><time>2026-04-18T16:49:36.583Z</time></trkpt><trkpt lat="44.3324857" lon="7.6214185"><ele>566.0</ele><time>2026-04-18T16:49:37.584Z</time></trkpt><trkpt lat="44.332429" lon="7.6213334"><ele>566.0</ele><time>2026-04-18T16:49:38.585Z</time></trkpt><trkpt lat="44.332388" lon="7.6212616"><ele>566.0</ele><time>2026-04-18T16:49:39.584Z</time></trkpt><trkpt lat="44.3323464" lon="7.6211625"><ele>566.0</ele><time>2026-04-18T16:49:42.584Z</time></trkpt><trkpt lat="44.3323875" lon="7.621074"><ele>566.0</ele><time>2026-04-18T16:49:59.584Z</time></trkpt><trkpt lat="44.3323838" lon="7.6209674"><ele>566.0</ele><time>2026-04-18T16:50:00.583Z</time></trkpt><trkpt lat="44.3323889" lon="7.6208765"><ele>566.0</ele><time>2026-04-18T16:50:01.583Z</time></trkpt><trkpt lat="44.3324021" lon="7.6207685"><ele>566.0</ele><time>2026-04-18T16:50:02.584Z</time></trkpt><trkpt lat="44.3323874" lon="7.6206482"><ele>566.0</ele><time>2026-04-18T16:50:03.583Z</time></trkpt><trkpt lat="44.3323793" lon="7.6205334"><ele>566.0</ele><time>2026-04-18T16:50:04.584Z</time></trkpt><trkpt lat="44.3323084" lon="7.6204477"><ele>566.0</ele><time>2026-04-18T16:50:05.583Z</time></trkpt><trkpt lat="44.3322776" lon="7.6203332"><ele>566.0</ele><time>2026-04-18T16:50:06.584Z</time></trkpt><trkpt lat="44.3322288" lon="7.6202144"><ele>566.0</ele><time>2026-04-18T16:50:07.584Z</time></trkpt><trkpt lat="44.3321852" lon="7.6200565"><ele>567.2</ele><time>2026-04-18T16:50:08.584Z</time></trkpt><trkpt lat="44.3321567" lon="7.6199053"><ele>568.4000000000001</ele><time>2026-04-18T16:50:09.584Z</time></trkpt><trkpt lat="44.3321532" lon="7.6197801"><ele>569.6</ele><time>2026-04-18T16:50:10.583Z</time></trkpt><trkpt lat="44.3321564" lon="7.6196661"><ele>570.8000000000001</ele><time>2026-04-18T16:50:11.584Z</time></trkpt><trkpt lat="44.3321963" lon="7.6195048"><ele>572.0</ele><time>2026-04-18T16:50:13.583Z</time></trkpt><trkpt lat="44.3322107" lon="7.6193179"><ele>572.0</ele><time>2026-04-18T16:50:15.584Z</time></trkpt><trkpt lat="44.3321846" lon="7.6192112"><ele>572.0</ele><time>2026-04-18T16:50:16.583Z</time></trkpt><trkpt lat="44.3321528" lon="7.6190998"><ele>572.0</ele><time>2026-04-18T16:50:17.583Z</time></trkpt><trkpt lat="44.3321115" lon="7.6189772"><ele>572.0</ele><time>2026-04-18T16:50:18.584Z</time></trkpt><trkpt lat="44.3320882" lon="7.6188464"><ele>572.0</ele><time>2026-04-18T16:50:19.583Z</time></trkpt><trkpt lat="44.3320668" lon="7.6187099"><ele>572.0</ele><time>2026-04-18T16:50:20.583Z</time></trkpt><trkpt lat="44.3320947" lon="7.6185438"><ele>572.0</ele><time>2026-04-18T16:50:21.583Z</time></trkpt><trkpt lat="44.3320893" lon="7.6183916"><ele>572.0</ele><time>2026-04-18T16:50:22.583Z</time></trkpt><trkpt lat="44.3320826" lon="7.6182337"><ele>572.0</ele><time>2026-04-18T16:50:23.584Z</time></trkpt><trkpt lat="44.3320591" lon="7.6180933"><ele>572.0</ele><time>2026-04-18T16:50:24.583Z</time></trkpt><trkpt lat="44.3320305" lon="7.6179477"><ele>572.0</ele><time>2026-04-18T16:50:25.584Z</time></trkpt><trkpt lat="44.331991" lon="7.6178303"><ele>572.0</ele><time>2026-04-18T16:50:26.583Z</time></trkpt><trkpt lat="44.3319564" lon="7.6177091"><ele>572.0</ele><time>2026-04-18T16:50:27.583Z</time></trkpt><trkpt lat="44.3319274" lon="7.61761"><ele>572.0</ele><time>2026-04-18T16:50:28.583Z</time></trkpt><trkpt lat="44.3318964" lon="7.6175255"><ele>572.0</ele><time>2026-04-18T16:50:29.583Z</time></trkpt><trkpt lat="44.33195" lon="7.6174479"><ele>572.0</ele><time>2026-04-18T16:50:32.585Z</time></trkpt><trkpt lat="44.3319995" lon="7.6173595"><ele>572.0</ele><time>2026-04-18T16:50:34.584Z</time></trkpt><trkpt lat="44.3320091" lon="7.6172692"><ele>572.0</ele><time>2026-04-18T16:50:35.584Z</time></trkpt><trkpt lat="44.3319967" lon="7.6171402"><ele>572.0</ele><time>2026-04-18T16:50:36.583Z</time></trkpt><trkpt lat="44.3319826" lon="7.6170105"><ele>572.0</ele><time>2026-04-18T16:50:37.583Z</time></trkpt><trkpt lat="44.3319682" lon="7.6168647"><ele>572.0</ele><time>2026-04-18T16:50:38.584Z</time></trkpt><trkpt lat="44.3319098" lon="7.6166911"><ele>572.5</ele><time>2026-04-18T16:50:39.583Z</time></trkpt><trkpt lat="44.3318392" lon="7.6165562"><ele>573.0</ele><time>2026-04-18T16:50:40.584Z</time></trkpt><trkpt lat="44.3317559" lon="7.6164163"><ele>573.5</ele><time>2026-04-18T16:50:41.585Z</time></trkpt><trkpt lat="44.3316917" lon="7.6162688"><ele>574.0</ele><time>2026-04-18T16:50:42.583Z</time></trkpt><trkpt lat="44.3316319" lon="7.6161386"><ele>574.4</ele><time>2026-04-18T16:50:43.584Z</time></trkpt><trkpt lat="44.3315791" lon="7.616022"><ele>574.8</ele><time>2026-04-18T16:50:44.585Z</time></trkpt><trkpt lat="44.3315416" lon="7.6159101"><ele>575.2</ele><time>2026-04-18T16:50:45.583Z</time></trkpt><trkpt lat="44.3315166" lon="7.6158073"><ele>575.6</ele><time>2026-04-18T16:50:46.583Z</time></trkpt><trkpt lat="44.3314996" lon="7.6156707"><ele>576.0</ele><time>2026-04-18T16:50:47.583Z</time></trkpt><trkpt lat="44.3314833" lon="7.6155409"><ele>576.0</ele><time>2026-04-18T16:50:48.584Z</time></trkpt><trkpt lat="44.3314778" lon="7.6154161"><ele>576.0</ele><time>2026-04-18T16:50:49.583Z</time></trkpt><trkpt lat="44.3314721" lon="7.6153196"><ele>576.0</ele><time>2026-04-18T16:50:50.585Z</time></trkpt><trkpt lat="44.3314368" lon="7.6151669"><ele>576.0</ele><time>2026-04-18T16:50:52.585Z</time></trkpt><trkpt lat="44.331408" lon="7.6150291"><ele>576.0</ele><time>2026-04-18T16:50:54.584Z</time></trkpt><trkpt lat="44.331349" lon="7.6149628"><ele>576.3333333333334</ele><time>2026-04-18T16:50:56.583Z</time></trkpt><trkpt lat="44.331299" lon="7.6148864"><ele>576.6666666666666</ele><time>2026-04-18T16:50:59.584Z</time></trkpt><trkpt lat="44.3312747" lon="7.6147959"><ele>577.0</ele><time>2026-04-18T16:51:02.583Z</time></trkpt><trkpt lat="44.3312901" lon="7.614926"><ele>577.3333333333333</ele><time>2026-04-18T16:51:08.584Z</time></trkpt><trkpt lat="44.3313459" lon="7.6150086"><ele>577.6666666666666</ele><time>2026-04-18T16:51:10.584Z</time></trkpt><trkpt lat="44.3313908" lon="7.6149172"><ele>578.0</ele><time>2026-04-18T16:51:13.583Z</time></trkpt><trkpt lat="44.3314198" lon="7.6147237"><ele>578.1999999999999</ele><time>2026-04-18T16:51:15.583Z</time></trkpt><trkpt lat="44.3314188" lon="7.6145969"><ele>578.4</ele><time>2026-04-18T16:51:16.583Z</time></trkpt><trkpt lat="44.3314074" lon="7.6144515"><ele>578.5999999999999</ele><time>2026-04-18T16:51:17.585Z</time></trkpt><trkpt lat="44.3313919" lon="7.6142957"><ele>578.8</ele><time>2026-04-18T16:51:18.584Z</time></trkpt><trkpt lat="44.3313369" lon="7.6141269"><ele>579.0</ele><time>2026-04-18T16:51:19.585Z</time></trkpt><trkpt lat="44.3312821" lon="7.6139478"><ele>579.0</ele><time>2026-04-18T16:51:20.584Z</time></trkpt><trkpt lat="44.3312192" lon="7.6137714"><ele>579.0</ele><time>2026-04-18T16:51:21.585Z</time></trkpt><trkpt lat="44.3311616" lon="7.6135738"><ele>579.0</ele><time>2026-04-18T16:51:22.583Z</time></trkpt><trkpt lat="44.331089" lon="7.613403"><ele>579.0</ele><time>2026-04-18T16:51:23.584Z</time></trkpt><trkpt lat="44.3310086" lon="7.6132224"><ele>579.75</ele><time>2026-04-18T16:51:24.583Z</time></trkpt><trkpt lat="44.3309189" lon="7.6130567"><ele>580.5</ele><time>2026-04-18T16:51:25.583Z</time></trkpt><trkpt lat="44.3308348" lon="7.6128935"><ele>581.25</ele><time>2026-04-18T16:51:26.583Z</time></trkpt><trkpt lat="44.330748" lon="7.6127538"><ele>582.0</ele><time>2026-04-18T16:51:27.583Z</time></trkpt><trkpt lat="44.3306727" lon="7.6126158"><ele>582.0</ele><time>2026-04-18T16:51:28.583Z</time></trkpt><trkpt lat="44.3306054" lon="7.6124813"><ele>582.0</ele><time>2026-04-18T16:51:29.584Z</time></trkpt><trkpt lat="44.3305519" lon="7.6123405"><ele>582.0</ele><time>2026-04-18T16:51:30.583Z</time></trkpt><trkpt lat="44.3304969" lon="7.612204"><ele>582.0</ele><time>2026-04-18T16:51:31.584Z</time></trkpt><trkpt lat="44.3304441" lon="7.6120826"><ele>582.0</ele><time>2026-04-18T16:51:32.584Z</time></trkpt><trkpt lat="44.3304377" lon="7.6119557"><ele>582.0</ele><time>2026-04-18T16:51:34.584Z</time></trkpt><trkpt lat="44.3304358" lon="7.6118449"><ele>582.0</ele><time>2026-04-18T16:51:36.583Z</time></trkpt><trkpt lat="44.3304938" lon="7.6116971"><ele>582.0</ele><time>2026-04-18T16:51:38.584Z</time></trkpt><trkpt lat="44.3305319" lon="7.6115874"><ele>582.0</ele><time>2026-04-18T16:51:39.583Z</time></trkpt><trkpt lat="44.3305794" lon="7.6114781"><ele>582.0</ele><time>2026-04-18T16:51:40.583Z</time></trkpt><trkpt lat="44.3306298" lon="7.6113765"><ele>583.8000000000001</ele><time>2026-04-18T16:51:41.584Z</time></trkpt><trkpt lat="44.330682" lon="7.6112675"><ele>585.6</ele><time>2026-04-18T16:51:42.585Z</time></trkpt><trkpt lat="44.330748" lon="7.6111545"><ele>587.4000000000001</ele><time>2026-04-18T16:51:43.583Z</time></trkpt><trkpt lat="44.3308381" lon="7.6110375"><ele>589.2</ele><time>2026-04-18T16:51:44.584Z</time></trkpt><trkpt lat="44.3309255" lon="7.6109246"><ele>591.0</ele><time>2026-04-18T16:51:45.583Z</time></trkpt><trkpt lat="44.3310395" lon="7.6108171"><ele>591.0</ele><time>2026-04-18T16:51:46.584Z</time></trkpt><trkpt lat="44.3311425" lon="7.6107255"><ele>591.0</ele><time>2026-04-18T16:51:47.584Z</time></trkpt><trkpt lat="44.3312362" lon="7.6106341"><ele>591.0</ele><time>2026-04-18T16:51:48.584Z</time></trkpt><trkpt lat="44.3313276" lon="7.6105644"><ele>591.0</ele><time>2026-04-18T16:51:49.584Z</time></trkpt><trkpt lat="44.3313879" lon="7.6105172"><ele>591.0</ele><time>2026-04-18T16:51:50.584Z</time></trkpt><trkpt lat="44.3314603" lon="7.6104768"><ele>591.5</ele><time>2026-04-18T16:51:53.585Z</time></trkpt><trkpt lat="44.3315476" lon="7.6104995"><ele>592.0</ele><time>2026-04-18T16:51:56.583Z</time></trkpt><trkpt lat="44.3316316" lon="7.6105141"><ele>592.5</ele><time>2026-04-18T16:51:58.584Z</time></trkpt><trkpt lat="44.3316991" lon="7.6105262"><ele>593.0</ele><time>2026-04-18T16:51:59.583Z</time></trkpt><trkpt lat="44.3317659" lon="7.6105385"><ele>593.5</ele><time>2026-04-18T16:52:00.584Z</time></trkpt><trkpt lat="44.3319034" lon="7.6105537"><ele>594.0</ele><time>2026-04-18T16:52:02.583Z</time></trkpt><trkpt lat="44.3320184" lon="7.6105674"><ele>594.0</ele><time>2026-04-18T16:52:04.584Z</time></trkpt><trkpt lat="44.3319313" lon="7.6105804"><ele>594.0</ele><time>2026-04-18T16:52:12.583Z</time></trkpt><trkpt lat="44.3318434" lon="7.6105717"><ele>594.0</ele><time>2026-04-18T16:52:13.584Z</time></trkpt><trkpt lat="44.3317419" lon="7.6105451"><ele>594.0</ele><time>2026-04-18T16:52:14.583Z</time></trkpt><trkpt lat="44.3316696" lon="7.610532"><ele>594.0</ele><time>2026-04-18T16:52:15.584Z</time></trkpt><trkpt lat="44.3315953" lon="7.6105227"><ele>594.0</ele><time>2026-04-18T16:52:16.583Z</time></trkpt><trkpt lat="44.3315825" lon="7.6103581"><ele>592.8</ele><time>2026-04-18T16:52:23.584Z</time></trkpt><trkpt lat="44.3316305" lon="7.6102728"><ele>591.5999999999999</ele><time>2026-04-18T16:52:24.584Z</time></trkpt><trkpt lat="44.3316982" lon="7.6101798"><ele>590.4</ele><time>2026-04-18T16:52:25.584Z</time></trkpt><trkpt lat="44.3317704" lon="7.6100513"><ele>589.1999999999999</ele><time>2026-04-18T16:52:26.583Z</time></trkpt><trkpt lat="44.3318374" lon="7.6099044"><ele>588.0</ele><time>2026-04-18T16:52:27.584Z</time></trkpt><trkpt lat="44.3318868" lon="7.6097842"><ele>588.0</ele><time>2026-04-18T16:52:28.585Z</time></trkpt><trkpt lat="44.3319295" lon="7.6097031"><ele>588.0</ele><time>2026-04-18T16:52:29.584Z</time></trkpt><trkpt lat="44.3320254" lon="7.6095689"><ele>588.0</ele><time>2026-04-18T16:52:31.584Z</time></trkpt><trkpt lat="44.3320867" lon="7.6095037"><ele>588.0</ele><time>2026-04-18T16:52:32.584Z</time></trkpt><trkpt lat="44.3321553" lon="7.6094424"><ele>588.0</ele><time>2026-04-18T16:52:33.583Z</time></trkpt><trkpt lat="44.3322201" lon="7.6093835"><ele>588.0</ele><time>2026-04-18T16:52:34.583Z</time></trkpt><trkpt lat="44.3322879" lon="7.6093002"><ele>583.0</ele><time>2026-04-18T16:52:35.583Z</time></trkpt><trkpt lat="44.332355" lon="7.6092042"><ele>578.0</ele><time>2026-04-18T16:52:36.584Z</time></trkpt><trkpt lat="44.3324068" lon="7.6091248"><ele>573.0</ele><time>2026-04-18T16:52:37.583Z</time></trkpt><trkpt lat="44.3324777" lon="7.6090232"><ele>568.0</ele><time>2026-04-18T16:52:38.583Z</time></trkpt><trkpt lat="44.3325424" lon="7.6088933"><ele>563.0</ele><time>2026-04-18T16:52:39.583Z</time></trkpt><trkpt lat="44.3325937" lon="7.608775"><ele>563.0</ele><time>2026-04-18T16:52:40.584Z</time></trkpt><trkpt lat="44.3326305" lon="7.6086627"><ele>563.0</ele><time>2026-04-18T16:52:41.584Z</time></trkpt><trkpt lat="44.3326768" lon="7.6085309"><ele>563.0</ele><time>2026-04-18T16:52:42.583Z</time></trkpt><trkpt lat="44.3327233" lon="7.6084272"><ele>563.0</ele><time>2026-04-18T16:52:43.583Z</time></trkpt><trkpt lat="44.3328074" lon="7.6083385"><ele>563.0</ele><time>2026-04-18T16:52:44.583Z</time></trkpt><trkpt lat="44.3328694" lon="7.6082128"><ele>564.0</ele><time>2026-04-18T16:52:45.584Z</time></trkpt><trkpt lat="44.3329523" lon="7.6080795"><ele>565.0</ele><time>2026-04-18T16:52:46.584Z</time></trkpt><trkpt lat="44.3330207" lon="7.6079634"><ele>566.0</ele><time>2026-04-18T16:52:47.584Z</time></trkpt><trkpt lat="44.3330934" lon="7.6078411"><ele>567.0</ele><time>2026-04-18T16:52:48.584Z</time></trkpt><trkpt lat="44.3331644" lon="7.6077652"><ele>568.0</ele><time>2026-04-18T16:52:49.584Z</time></trkpt><trkpt lat="44.3332484" lon="7.6076665"><ele>564.8</ele><time>2026-04-18T16:52:50.584Z</time></trkpt><trkpt lat="44.3333361" lon="7.6075872"><ele>561.5999999999999</ele><time>2026-04-18T16:52:51.583Z</time></trkpt><trkpt lat="44.3334317" lon="7.6075095"><ele>558.4000000000001</ele><time>2026-04-18T16:52:52.583Z</time></trkpt><trkpt lat="44.3335355" lon="7.6074482"><ele>555.2</ele><time>2026-04-18T16:52:53.584Z</time></trkpt><trkpt lat="44.3336408" lon="7.6073992"><ele>552.0</ele><time>2026-04-18T16:52:54.583Z</time></trkpt><trkpt lat="44.3337463" lon="7.6073499"><ele>552.0</ele><time>2026-04-18T16:52:55.584Z</time></trkpt><trkpt lat="44.3338635" lon="7.6073085"><ele>552.0</ele><time>2026-04-18T16:52:56.583Z</time></trkpt><trkpt lat="44.3339745" lon="7.6072531"><ele>552.0</ele><time>2026-04-18T16:52:57.583Z</time></trkpt><trkpt lat="44.3340784" lon="7.6071754"><ele>552.0</ele><time>2026-04-18T16:52:58.583Z</time></trkpt><trkpt lat="44.3341885" lon="7.607072"><ele>551.75</ele><time>2026-04-18T16:52:59.584Z</time></trkpt><trkpt lat="44.3343071" lon="7.6069494"><ele>551.5</ele><time>2026-04-18T16:53:00.583Z</time></trkpt><trkpt lat="44.3344085" lon="7.6068378"><ele>551.25</ele><time>2026-04-18T16:53:01.583Z</time></trkpt><trkpt lat="44.3344972" lon="7.6067391"><ele>551.0</ele><time>2026-04-18T16:53:02.585Z</time></trkpt><trkpt lat="44.3345506" lon="7.6066746"><ele>551.0</ele><time>2026-04-18T16:53:03.584Z</time></trkpt><trkpt lat="44.3346022" lon="7.6066195"><ele>551.0</ele><time>2026-04-18T16:53:04.584Z</time></trkpt><trkpt lat="44.3346758" lon="7.6065452"><ele>551.0</ele><time>2026-04-18T16:53:05.585Z</time></trkpt><trkpt lat="44.3347674" lon="7.6064865"><ele>551.0</ele><time>2026-04-18T16:53:06.584Z</time></trkpt><trkpt lat="44.334877" lon="7.6064327"><ele>551.0</ele><time>2026-04-18T16:53:07.584Z</time></trkpt><trkpt lat="44.3349797" lon="7.6064025"><ele>550.0</ele><time>2026-04-18T16:53:08.584Z</time></trkpt><trkpt lat="44.3350648" lon="7.6063924"><ele>549.0</ele><time>2026-04-18T16:53:09.583Z</time></trkpt><trkpt lat="44.3351695" lon="7.606375"><ele>548.0</ele><time>2026-04-18T16:53:10.583Z</time></trkpt><trkpt lat="44.3352672" lon="7.6063646"><ele>547.0</ele><time>2026-04-18T16:53:11.584Z</time></trkpt><trkpt lat="44.3353646" lon="7.6063538"><ele>546.0</ele><time>2026-04-18T16:53:12.584Z</time></trkpt><trkpt lat="44.3354604" lon="7.606345"><ele>546.0</ele><time>2026-04-18T16:53:13.583Z</time></trkpt><trkpt lat="44.3355294" lon="7.6063058"><ele>546.0</ele><time>2026-04-18T16:53:14.583Z</time></trkpt><trkpt lat="44.3354673" lon="7.6061867"><ele>546.0</ele><time>2026-04-18T16:53:15.584Z</time></trkpt><trkpt lat="44.3354919" lon="7.6060845"><ele>546.0</ele><time>2026-04-18T16:53:16.585Z</time></trkpt><trkpt lat="44.3355525" lon="7.6059435"><ele>546.0</ele><time>2026-04-18T16:53:18.584Z</time></trkpt><trkpt lat="44.3356125" lon="7.605881"><ele>546.0</ele><time>2026-04-18T16:53:19.583Z</time></trkpt><trkpt lat="44.3356942" lon="7.6058383"><ele>545.8</ele><time>2026-04-18T16:53:20.583Z</time></trkpt><trkpt lat="44.3357735" lon="7.6057642"><ele>545.6</ele><time>2026-04-18T16:53:21.584Z</time></trkpt><trkpt lat="44.3358819" lon="7.6056745"><ele>545.4</ele><time>2026-04-18T16:53:22.584Z</time></trkpt><trkpt lat="44.3359572" lon="7.6055935"><ele>545.2</ele><time>2026-04-18T16:53:23.583Z</time></trkpt><trkpt lat="44.3360249" lon="7.6055265"><ele>545.0</ele><time>2026-04-18T16:53:24.584Z</time></trkpt><trkpt lat="44.3361186" lon="7.6054499"><ele>545.0</ele><time>2026-04-18T16:53:26.584Z</time></trkpt><trkpt lat="44.3361767" lon="7.6053778"><ele>545.0</ele><time>2026-04-18T16:53:28.583Z</time></trkpt><trkpt lat="44.3362854" lon="7.6052483"><ele>545.0</ele><time>2026-04-18T16:53:30.585Z</time></trkpt><trkpt lat="44.3363713" lon="7.6051481"><ele>545.0</ele><time>2026-04-18T16:53:31.584Z</time></trkpt><trkpt lat="44.3364565" lon="7.605042"><ele>545.0</ele><time>2026-04-18T16:53:32.584Z</time></trkpt><trkpt lat="44.3365557" lon="7.6049274"><ele>545.0</ele><time>2026-04-18T16:53:33.584Z</time></trkpt><trkpt lat="44.3366393" lon="7.604847"><ele>545.0</ele><time>2026-04-18T16:53:34.583Z</time></trkpt><trkpt lat="44.3367135" lon="7.6047684"><ele>545.0</ele><time>2026-04-18T16:53:35.583Z</time></trkpt><trkpt lat="44.3367745" lon="7.604703"><ele>545.0</ele><time>2026-04-18T16:53:36.584Z</time></trkpt><trkpt lat="44.336826" lon="7.6046453"><ele>545.0</ele><time>2026-04-18T16:53:37.584Z</time></trkpt><trkpt lat="44.3368967" lon="7.6045344"><ele>545.0</ele><time>2026-04-18T16:53:39.585Z</time></trkpt><trkpt lat="44.3369352" lon="7.6044631"><ele>545.0</ele><time>2026-04-18T16:53:42.583Z</time></trkpt><trkpt lat="44.3370071" lon="7.6043215"><ele>545.0</ele><time>2026-04-18T16:53:45.584Z</time></trkpt><trkpt lat="44.3371001" lon="7.6042032"><ele>545.0</ele><time>2026-04-18T16:53:47.584Z</time></trkpt><trkpt lat="44.3371838" lon="7.6040942"><ele>545.0</ele><time>2026-04-18T16:53:49.584Z</time></trkpt><trkpt lat="44.3370834" lon="7.6041235"><ele>545.0</ele><time>2026-04-18T16:53:53.583Z</time></trkpt><trkpt lat="44.3369517" lon="7.6042654"><ele>545.0</ele><time>2026-04-18T16:53:55.584Z</time></trkpt><trkpt lat="44.3368596" lon="7.6043638"><ele>545.0</ele><time>2026-04-18T16:53:56.583Z</time></trkpt><trkpt lat="44.3367532" lon="7.6044831"><ele>545.0</ele><time>2026-04-18T16:53:57.584Z</time></trkpt><trkpt lat="44.3366454" lon="7.6045885"><ele>545.0</ele><time>2026-04-18T16:53:58.583Z</time></trkpt><trkpt lat="44.3365333" lon="7.6047156"><ele>545.0</ele><time>2026-04-18T16:53:59.584Z</time></trkpt><trkpt lat="44.3364217" lon="7.6048464"><ele>545.0</ele><time>2026-04-18T16:54:00.584Z</time></trkpt><trkpt lat="44.3363104" lon="7.6049821"><ele>545.0</ele><time>2026-04-18T16:54:01.584Z</time></trkpt><trkpt lat="44.336185" lon="7.6051039"><ele>545.0</ele><time>2026-04-18T16:54:02.584Z</time></trkpt><trkpt lat="44.3360488" lon="7.6052114"><ele>545.0</ele><time>2026-04-18T16:54:03.583Z</time></trkpt><trkpt lat="44.3359114" lon="7.6053165"><ele>545.0</ele><time>2026-04-18T16:54:04.584Z</time></trkpt><trkpt lat="44.3357776" lon="7.6054064"><ele>545.0</ele><time>2026-04-18T16:54:05.585Z</time></trkpt><trkpt lat="44.3356535" lon="7.6054853"><ele>545.0</ele><time>2026-04-18T16:54:06.584Z</time></trkpt><trkpt lat="44.3355298" lon="7.6055326"><ele>545.0</ele><time>2026-04-18T16:54:07.584Z</time></trkpt><trkpt lat="44.3354192" lon="7.605538"><ele>545.0</ele><time>2026-04-18T16:54:08.584Z</time></trkpt><trkpt lat="44.3353107" lon="7.6054886"><ele>545.5</ele><time>2026-04-18T16:54:09.583Z</time></trkpt><trkpt lat="44.3352178" lon="7.6053829"><ele>546.0</ele><time>2026-04-18T16:54:10.584Z</time></trkpt><trkpt lat="44.3351533" lon="7.6052395"><ele>546.5</ele><time>2026-04-18T16:54:11.583Z</time></trkpt><trkpt lat="44.3351148" lon="7.605073"><ele>547.0</ele><time>2026-04-18T16:54:12.584Z</time></trkpt><trkpt lat="44.3350667" lon="7.604868"><ele>547.0</ele><time>2026-04-18T16:54:13.583Z</time></trkpt><trkpt lat="44.3350193" lon="7.60465"><ele>547.0</ele><time>2026-04-18T16:54:14.583Z</time></trkpt><trkpt lat="44.3349686" lon="7.6044245"><ele>547.0</ele><time>2026-04-18T16:54:15.583Z</time></trkpt><trkpt lat="44.334913" lon="7.6041842"><ele>547.3333333333334</ele><time>2026-04-18T16:54:16.583Z</time></trkpt><trkpt lat="44.3348514" lon="7.6039382"><ele>547.6666666666666</ele><time>2026-04-18T16:54:17.583Z</time></trkpt><trkpt lat="44.3347922" lon="7.6036824"><ele>548.0</ele><time>2026-04-18T16:54:18.584Z</time></trkpt><trkpt lat="44.3347303" lon="7.6034145"><ele>550.3333333333333</ele><time>2026-04-18T16:54:19.585Z</time></trkpt><trkpt lat="44.3346677" lon="7.6031454"><ele>552.6666666666666</ele><time>2026-04-18T16:54:20.583Z</time></trkpt><trkpt lat="44.3346134" lon="7.6028823"><ele>555.0</ele><time>2026-04-18T16:54:21.584Z</time></trkpt><trkpt lat="44.3345492" lon="7.6026164"><ele>555.0</ele><time>2026-04-18T16:54:22.585Z</time></trkpt><trkpt lat="44.3344947" lon="7.6023414"><ele>555.0</ele><time>2026-04-18T16:54:23.584Z</time></trkpt><trkpt lat="44.334443" lon="7.6020553"><ele>555.0</ele><time>2026-04-18T16:54:24.584Z</time></trkpt><trkpt lat="44.3343976" lon="7.6017683"><ele>556.6666666666666</ele><time>2026-04-18T16:54:25.583Z</time></trkpt><trkpt lat="44.3343582" lon="7.6014714"><ele>558.3333333333333</ele><time>2026-04-18T16:54:26.584Z</time></trkpt><trkpt lat="44.3343259" lon="7.6011744"><ele>560.0</ele><time>2026-04-18T16:54:27.584Z</time></trkpt><trkpt lat="44.334306" lon="7.6008693"><ele>560.6666666666666</ele><time>2026-04-18T16:54:28.583Z</time></trkpt><trkpt lat="44.3342913" lon="7.6005652"><ele>561.3333333333334</ele><time>2026-04-18T16:54:29.583Z</time></trkpt><trkpt lat="44.3342797" lon="7.6002529"><ele>562.0</ele><time>2026-04-18T16:54:30.583Z</time></trkpt><trkpt lat="44.3342721" lon="7.5999466"><ele>562.0</ele><time>2026-04-18T16:54:31.584Z</time></trkpt><trkpt lat="44.3342677" lon="7.5996447"><ele>562.0</ele><time>2026-04-18T16:54:32.583Z</time></trkpt><trkpt lat="44.3342636" lon="7.599353"><ele>562.0</ele><time>2026-04-18T16:54:33.583Z</time></trkpt><trkpt lat="44.3342576" lon="7.5990651"><ele>561.6666666666667</ele><time>2026-04-18T16:54:34.583Z</time></trkpt><trkpt lat="44.3342429" lon="7.5987708"><ele>561.3333333333334</ele><time>2026-04-18T16:54:35.583Z</time></trkpt><trkpt lat="44.3342175" lon="7.5984746"><ele>561.0</ele><time>2026-04-18T16:54:36.584Z</time></trkpt><trkpt lat="44.3341769" lon="7.5981686"><ele>560.6666666666666</ele><time>2026-04-18T16:54:37.583Z</time></trkpt><trkpt lat="44.3341304" lon="7.5978659"><ele>560.3333333333333</ele><time>2026-04-18T16:54:38.583Z</time></trkpt><trkpt lat="44.3340841" lon="7.5975568"><ele>560.0</ele><time>2026-04-18T16:54:39.585Z</time></trkpt><trkpt lat="44.3340314" lon="7.5972417"><ele>560.5</ele><time>2026-04-18T16:54:40.584Z</time></trkpt><trkpt lat="44.333975" lon="7.5969341"><ele>561.0</ele><time>2026-04-18T16:54:41.584Z</time></trkpt><trkpt lat="44.3339142" lon="7.5966243"><ele>564.5</ele><time>2026-04-18T16:54:42.583Z</time></trkpt><trkpt lat="44.333862" lon="7.5963027"><ele>568.0</ele><time>2026-04-18T16:54:43.584Z</time></trkpt><trkpt lat="44.3338222" lon="7.5959812"><ele>568.0</ele><time>2026-04-18T16:54:44.583Z</time></trkpt><trkpt lat="44.3337914" lon="7.5956513"><ele>568.0</ele><time>2026-04-18T16:54:45.584Z</time></trkpt><trkpt lat="44.3337746" lon="7.5953308"><ele>567.0</ele><time>2026-04-18T16:54:46.583Z</time></trkpt><trkpt lat="44.3337744" lon="7.595005"><ele>566.0</ele><time>2026-04-18T16:54:47.584Z</time></trkpt><trkpt lat="44.3337853" lon="7.59468"><ele>567.5</ele><time>2026-04-18T16:54:48.583Z</time></trkpt><trkpt lat="44.3338002" lon="7.594349"><ele>569.0</ele><time>2026-04-18T16:54:49.583Z</time></trkpt><trkpt lat="44.3338258" lon="7.5940161"><ele>569.0</ele><time>2026-04-18T16:54:50.583Z</time></trkpt><trkpt lat="44.3338584" lon="7.5936819"><ele>569.0</ele><time>2026-04-18T16:54:51.584Z</time></trkpt><trkpt lat="44.333895" lon="7.5933476"><ele>567.5</ele><time>2026-04-18T16:54:52.585Z</time></trkpt><trkpt lat="44.3339295" lon="7.5930166"><ele>566.0</ele><time>2026-04-18T16:54:53.583Z</time></trkpt><trkpt lat="44.3339661" lon="7.5926876"><ele>566.0</ele><time>2026-04-18T16:54:54.583Z</time></trkpt><trkpt lat="44.3339958" lon="7.5923574"><ele>566.0</ele><time>2026-04-18T16:54:55.583Z</time></trkpt><trkpt lat="44.3340287" lon="7.5920307"><ele>566.0</ele><time>2026-04-18T16:54:56.584Z</time></trkpt><trkpt lat="44.3340618" lon="7.5917017"><ele>566.0</ele><time>2026-04-18T16:54:57.584Z</time></trkpt><trkpt lat="44.3340912" lon="7.5913694"><ele>566.5</ele><time>2026-04-18T16:54:58.583Z</time></trkpt><trkpt lat="44.334126" lon="7.5910356"><ele>567.0</ele><time>2026-04-18T16:54:59.584Z</time></trkpt><trkpt lat="44.3341612" lon="7.5907026"><ele>567.0</ele><time>2026-04-18T16:55:00.584Z</time></trkpt><trkpt lat="44.3341968" lon="7.5903654"><ele>567.0</ele><time>2026-04-18T16:55:01.584Z</time></trkpt><trkpt lat="44.3342348" lon="7.5900268"><ele>568.0</ele><time>2026-04-18T16:55:02.585Z</time></trkpt><trkpt lat="44.334265" lon="7.5896846"><ele>569.0</ele><time>2026-04-18T16:55:03.584Z</time></trkpt><trkpt lat="44.334297" lon="7.5893366"><ele>569.5</ele><time>2026-04-18T16:55:04.584Z</time></trkpt><trkpt lat="44.334329" lon="7.5889853"><ele>570.0</ele><time>2026-04-18T16:55:05.583Z</time></trkpt><trkpt lat="44.3343644" lon="7.5886344"><ele>570.5</ele><time>2026-04-18T16:55:06.585Z</time></trkpt><trkpt lat="44.3344001" lon="7.5882791"><ele>571.0</ele><time>2026-04-18T16:55:07.584Z</time></trkpt><trkpt lat="44.3344358" lon="7.5879241"><ele>571.5</ele><time>2026-04-18T16:55:08.584Z</time></trkpt><trkpt lat="44.3344706" lon="7.5875713"><ele>572.0</ele><time>2026-04-18T16:55:09.584Z</time></trkpt><trkpt lat="44.3345082" lon="7.5872154"><ele>572.0</ele><time>2026-04-18T16:55:10.583Z</time></trkpt><trkpt lat="44.3345442" lon="7.5868599"><ele>572.0</ele><time>2026-04-18T16:55:11.583Z</time></trkpt><trkpt lat="44.3345787" lon="7.5865055"><ele>573.0</ele><time>2026-04-18T16:55:12.583Z</time></trkpt><trkpt lat="44.3346161" lon="7.5861513"><ele>574.0</ele><time>2026-04-18T16:55:13.583Z</time></trkpt><trkpt lat="44.3346534" lon="7.585803"><ele>574.0</ele><time>2026-04-18T16:55:14.585Z</time></trkpt><trkpt lat="44.3346874" lon="7.5854459"><ele>574.0</ele><time>2026-04-18T16:55:15.583Z</time></trkpt><trkpt lat="44.3347166" lon="7.5850987"><ele>574.0</ele><time>2026-04-18T16:55:16.583Z</time></trkpt><trkpt lat="44.3347508" lon="7.5847488"><ele>574.0</ele><time>2026-04-18T16:55:17.584Z</time></trkpt><trkpt lat="44.3347859" lon="7.5844039"><ele>574.0</ele><time>2026-04-18T16:55:18.584Z</time></trkpt><trkpt lat="44.3348227" lon="7.5840608"><ele>574.0</ele><time>2026-04-18T16:55:19.583Z</time></trkpt><trkpt lat="44.334857" lon="7.5837153"><ele>574.5</ele><time>2026-04-18T16:55:20.585Z</time></trkpt><trkpt lat="44.3348924" lon="7.5833713"><ele>575.0</ele><time>2026-04-18T16:55:21.583Z</time></trkpt><trkpt lat="44.3349212" lon="7.58303"><ele>575.0</ele><time>2026-04-18T16:55:22.583Z</time></trkpt><trkpt lat="44.3349465" lon="7.5826802"><ele>575.0</ele><time>2026-04-18T16:55:23.584Z</time></trkpt><trkpt lat="44.334962" lon="7.5823352"><ele>576.0</ele><time>2026-04-18T16:55:24.583Z</time></trkpt><trkpt lat="44.334967" lon="7.5819864"><ele>577.0</ele><time>2026-04-18T16:55:25.583Z</time></trkpt><trkpt lat="44.3349637" lon="7.581634"><ele>577.0</ele><time>2026-04-18T16:55:26.584Z</time></trkpt><trkpt lat="44.3349574" lon="7.5812776"><ele>577.0</ele><time>2026-04-18T16:55:27.584Z</time></trkpt><trkpt lat="44.3349381" lon="7.5809226"><ele>577.0</ele><time>2026-04-18T16:55:28.585Z</time></trkpt><trkpt lat="44.3349035" lon="7.5805652"><ele>577.0</ele><time>2026-04-18T16:55:29.584Z</time></trkpt><trkpt lat="44.3348556" lon="7.5802144"><ele>577.0</ele><time>2026-04-18T16:55:30.584Z</time></trkpt><trkpt lat="44.3348084" lon="7.5798658"><ele>577.0</ele><time>2026-04-18T16:55:31.583Z</time></trkpt><trkpt lat="44.3347591" lon="7.5795257"><ele>577.5</ele><time>2026-04-18T16:55:32.584Z</time></trkpt><trkpt lat="44.3347104" lon="7.5791925"><ele>578.0</ele><time>2026-04-18T16:55:33.584Z</time></trkpt><trkpt lat="44.3346718" lon="7.5788608"><ele>578.0</ele><time>2026-04-18T16:55:34.583Z</time></trkpt><trkpt lat="44.3346363" lon="7.5785392"><ele>578.0</ele><time>2026-04-18T16:55:35.584Z</time></trkpt><trkpt lat="44.3346052" lon="7.578222"><ele>578.0</ele><time>2026-04-18T16:55:36.584Z</time></trkpt><trkpt lat="44.334573" lon="7.5778975"><ele>578.0</ele><time>2026-04-18T16:55:37.584Z</time></trkpt><trkpt lat="44.3345448" lon="7.577578"><ele>578.5</ele><time>2026-04-18T16:55:38.584Z</time></trkpt><trkpt lat="44.3345227" lon="7.5772629"><ele>579.0</ele><time>2026-04-18T16:55:39.584Z</time></trkpt><trkpt lat="44.3345006" lon="7.5769453"><ele>579.0</ele><time>2026-04-18T16:55:40.583Z</time></trkpt><trkpt lat="44.3344819" lon="7.576626"><ele>579.0</ele><time>2026-04-18T16:55:41.584Z</time></trkpt><trkpt lat="44.3344632" lon="7.5763065"><ele>579.0</ele><time>2026-04-18T16:55:42.584Z</time></trkpt><trkpt lat="44.3344466" lon="7.5759823"><ele>579.0</ele><time>2026-04-18T16:55:43.584Z</time></trkpt><trkpt lat="44.3344284" lon="7.5756576"><ele>579.5</ele><time>2026-04-18T16:55:44.584Z</time></trkpt><trkpt lat="44.3344071" lon="7.5753336"><ele>580.0</ele><time>2026-04-18T16:55:45.584Z</time></trkpt><trkpt lat="44.3343781" lon="7.5750114"><ele>580.0</ele><time>2026-04-18T16:55:46.583Z</time></trkpt><trkpt lat="44.3343461" lon="7.5746929"><ele>580.0</ele><time>2026-04-18T16:55:47.584Z</time></trkpt><trkpt lat="44.334299" lon="7.5743712"><ele>580.5</ele><time>2026-04-18T16:55:48.584Z</time></trkpt><trkpt lat="44.3342463" lon="7.574051"><ele>581.0</ele><time>2026-04-18T16:55:49.584Z</time></trkpt><trkpt lat="44.334176" lon="7.5737355"><ele>581.0</ele><time>2026-04-18T16:55:50.584Z</time></trkpt><trkpt lat="44.3340912" lon="7.5734249"><ele>581.0</ele><time>2026-04-18T16:55:51.584Z</time></trkpt><trkpt lat="44.3340073" lon="7.5731201"><ele>581.5</ele><time>2026-04-18T16:55:52.585Z</time></trkpt><trkpt lat="44.333919" lon="7.5728107"><ele>582.0</ele><time>2026-04-18T16:55:53.584Z</time></trkpt><trkpt lat="44.3338284" lon="7.5725042"><ele>582.0</ele><time>2026-04-18T16:55:54.583Z</time></trkpt><trkpt lat="44.3337415" lon="7.572193"><ele>582.0</ele><time>2026-04-18T16:55:55.583Z</time></trkpt><trkpt lat="44.3336534" lon="7.5718791"><ele>582.5</ele><time>2026-04-18T16:55:56.585Z</time></trkpt><trkpt lat="44.3335644" lon="7.5715635"><ele>583.0</ele><time>2026-04-18T16:55:57.584Z</time></trkpt><trkpt lat="44.3334738" lon="7.5712405"><ele>583.0</ele><time>2026-04-18T16:55:58.584Z</time></trkpt><trkpt lat="44.3333849" lon="7.5709251"><ele>583.0</ele><time>2026-04-18T16:55:59.584Z</time></trkpt><trkpt lat="44.3333006" lon="7.5706068"><ele>583.0</ele><time>2026-04-18T16:56:00.583Z</time></trkpt><trkpt lat="44.3332138" lon="7.5702829"><ele>583.0</ele><time>2026-04-18T16:56:01.583Z</time></trkpt><trkpt lat="44.3331352" lon="7.5699607"><ele>583.0</ele><time>2026-04-18T16:56:02.583Z</time></trkpt><trkpt lat="44.3330639" lon="7.5696354"><ele>583.0</ele><time>2026-04-18T16:56:03.583Z</time></trkpt><trkpt lat="44.3330003" lon="7.5693032"><ele>584.5</ele><time>2026-04-18T16:56:04.584Z</time></trkpt><trkpt lat="44.3329427" lon="7.5689674"><ele>586.0</ele><time>2026-04-18T16:56:05.585Z</time></trkpt><trkpt lat="44.3328887" lon="7.5686409"><ele>586.0</ele><time>2026-04-18T16:56:06.584Z</time></trkpt><trkpt lat="44.3328345" lon="7.5683128"><ele>586.0</ele><time>2026-04-18T16:56:07.583Z</time></trkpt><trkpt lat="44.3327794" lon="7.5679823"><ele>585.5</ele><time>2026-04-18T16:56:08.584Z</time></trkpt><trkpt lat="44.3327319" lon="7.5676527"><ele>585.0</ele><time>2026-04-18T16:56:09.584Z</time></trkpt><trkpt lat="44.3326781" lon="7.5673346"><ele>585.5</ele><time>2026-04-18T16:56:10.584Z</time></trkpt><trkpt lat="44.3326272" lon="7.567019"><ele>586.0</ele><time>2026-04-18T16:56:11.584Z</time></trkpt><trkpt lat="44.3325785" lon="7.5667109"><ele>586.0</ele><time>2026-04-18T16:56:12.584Z</time></trkpt><trkpt lat="44.3325331" lon="7.5664078"><ele>586.0</ele><time>2026-04-18T16:56:13.583Z</time></trkpt><trkpt lat="44.3324853" lon="7.5661098"><ele>586.0</ele><time>2026-04-18T16:56:14.583Z</time></trkpt><trkpt lat="44.3324381" lon="7.5658259"><ele>586.0</ele><time>2026-04-18T16:56:15.583Z</time></trkpt><trkpt lat="44.3323957" lon="7.5655493"><ele>586.0</ele><time>2026-04-18T16:56:16.584Z</time></trkpt><trkpt lat="44.332347" lon="7.5652666"><ele>586.0</ele><time>2026-04-18T16:56:17.584Z</time></trkpt><trkpt lat="44.3322902" lon="7.5649816"><ele>586.0</ele><time>2026-04-18T16:56:18.584Z</time></trkpt><trkpt lat="44.3322278" lon="7.5647012"><ele>586.0</ele><time>2026-04-18T16:56:19.584Z</time></trkpt><trkpt lat="44.3321551" lon="7.5644137"><ele>586.0</ele><time>2026-04-18T16:56:20.583Z</time></trkpt><trkpt lat="44.3320677" lon="7.5641361"><ele>586.0</ele><time>2026-04-18T16:56:21.583Z</time></trkpt><trkpt lat="44.3319696" lon="7.5638769"><ele>586.0</ele><time>2026-04-18T16:56:22.583Z</time></trkpt><trkpt lat="44.3318667" lon="7.5636229"><ele>586.0</ele><time>2026-04-18T16:56:23.584Z</time></trkpt><trkpt lat="44.3317654" lon="7.5633763"><ele>586.0</ele><time>2026-04-18T16:56:24.585Z</time></trkpt><trkpt lat="44.3316763" lon="7.5631115"><ele>586.0</ele><time>2026-04-18T16:56:25.584Z</time></trkpt><trkpt lat="44.3316102" lon="7.5628464"><ele>586.0</ele><time>2026-04-18T16:56:26.584Z</time></trkpt><trkpt lat="44.3315512" lon="7.5625788"><ele>586.3333333333334</ele><time>2026-04-18T16:56:27.584Z</time></trkpt><trkpt lat="44.3314873" lon="7.5623068"><ele>586.6666666666666</ele><time>2026-04-18T16:56:28.584Z</time></trkpt><trkpt lat="44.3314069" lon="7.5620564"><ele>587.0</ele><time>2026-04-18T16:56:29.584Z</time></trkpt><trkpt lat="44.3313158" lon="7.561825"><ele>587.0</ele><time>2026-04-18T16:56:30.583Z</time></trkpt><trkpt lat="44.3312178" lon="7.5616056"><ele>587.0</ele><time>2026-04-18T16:56:31.583Z</time></trkpt><trkpt lat="44.3311228" lon="7.5613981"><ele>587.0</ele><time>2026-04-18T16:56:32.584Z</time></trkpt><trkpt lat="44.3310362" lon="7.5612091"><ele>587.25</ele><time>2026-04-18T16:56:33.583Z</time></trkpt><trkpt lat="44.3309681" lon="7.5610388"><ele>587.5</ele><time>2026-04-18T16:56:34.583Z</time></trkpt><trkpt lat="44.3309044" lon="7.56088"><ele>587.75</ele><time>2026-04-18T16:56:35.583Z</time></trkpt><trkpt lat="44.3308557" lon="7.560726"><ele>588.0</ele><time>2026-04-18T16:56:36.584Z</time></trkpt><trkpt lat="44.3308142" lon="7.5605774"><ele>588.0</ele><time>2026-04-18T16:56:37.583Z</time></trkpt><trkpt lat="44.3307751" lon="7.5604238"><ele>588.0</ele><time>2026-04-18T16:56:38.585Z</time></trkpt><trkpt lat="44.3307371" lon="7.560266"><ele>588.0</ele><time>2026-04-18T16:56:39.583Z</time></trkpt><trkpt lat="44.3307024" lon="7.5601023"><ele>588.0</ele><time>2026-04-18T16:56:40.583Z</time></trkpt><trkpt lat="44.3306669" lon="7.5599195"><ele>588.0</ele><time>2026-04-18T16:56:41.584Z</time></trkpt><trkpt lat="44.3306466" lon="7.5597289"><ele>588.0</ele><time>2026-04-18T16:56:42.583Z</time></trkpt><trkpt lat="44.3306285" lon="7.5595286"><ele>588.0</ele><time>2026-04-18T16:56:43.583Z</time></trkpt><trkpt lat="44.3306115" lon="7.5593358"><ele>588.0</ele><time>2026-04-18T16:56:44.584Z</time></trkpt><trkpt lat="44.3305963" lon="7.5591542"><ele>587.8</ele><time>2026-04-18T16:56:45.584Z</time></trkpt><trkpt lat="44.3305784" lon="7.5589889"><ele>587.5999999999999</ele><time>2026-04-18T16:56:46.584Z</time></trkpt><trkpt lat="44.3305667" lon="7.5588369"><ele>587.4000000000001</ele><time>2026-04-18T16:56:47.583Z</time></trkpt><trkpt lat="44.3305538" lon="7.5586964"><ele>587.2</ele><time>2026-04-18T16:56:48.583Z</time></trkpt><trkpt lat="44.3305497" lon="7.5585803"><ele>587.0</ele><time>2026-04-18T16:56:49.584Z</time></trkpt><trkpt lat="44.3305605" lon="7.5584112"><ele>586.8000000000001</ele><time>2026-04-18T16:56:51.583Z</time></trkpt><trkpt lat="44.330591" lon="7.5582697"><ele>586.6</ele><time>2026-04-18T16:56:53.583Z</time></trkpt><trkpt lat="44.3306704" lon="7.5581318"><ele>586.4000000000001</ele><time>2026-04-18T16:56:55.583Z</time></trkpt><trkpt lat="44.3307401" lon="7.5580762"><ele>586.2</ele><time>2026-04-18T16:56:56.583Z</time></trkpt><trkpt lat="44.3308273" lon="7.558027"><ele>586.0</ele><time>2026-04-18T16:56:57.585Z</time></trkpt><trkpt lat="44.3309382" lon="7.5580145"><ele>586.0</ele><time>2026-04-18T16:56:58.584Z</time></trkpt><trkpt lat="44.3310725" lon="7.5580336"><ele>586.0</ele><time>2026-04-18T16:56:59.584Z</time></trkpt><trkpt lat="44.3312134" lon="7.5580528"><ele>586.0</ele><time>2026-04-18T16:57:00.584Z</time></trkpt><trkpt lat="44.3313504" lon="7.558055"><ele>586.0</ele><time>2026-04-18T16:57:01.584Z</time></trkpt><trkpt lat="44.3314787" lon="7.5580375"><ele>586.3333333333334</ele><time>2026-04-18T16:57:02.583Z</time></trkpt><trkpt lat="44.3316196" lon="7.5579947"><ele>586.6666666666666</ele><time>2026-04-18T16:57:03.583Z</time></trkpt><trkpt lat="44.3317795" lon="7.5579504"><ele>587.0</ele><time>2026-04-18T16:57:04.584Z</time></trkpt><trkpt lat="44.3319509" lon="7.557928"><ele>587.0</ele><time>2026-04-18T16:57:05.584Z</time></trkpt><trkpt lat="44.3321061" lon="7.5579143"><ele>587.0</ele><time>2026-04-18T16:57:06.583Z</time></trkpt><trkpt lat="44.3322595" lon="7.5578709"><ele>587.0</ele><time>2026-04-18T16:57:07.583Z</time></trkpt><trkpt lat="44.332407" lon="7.5577799"><ele>585.3333333333333</ele><time>2026-04-18T16:57:08.584Z</time></trkpt><trkpt lat="44.3325327" lon="7.5576462"><ele>583.6666666666666</ele><time>2026-04-18T16:57:09.583Z</time></trkpt><trkpt lat="44.3326457" lon="7.5575048"><ele>582.0</ele><time>2026-04-18T16:57:10.583Z</time></trkpt><trkpt lat="44.3327" lon="7.5572603"><ele>582.0</ele><time>2026-04-18T16:57:11.584Z</time></trkpt><trkpt lat="44.3327561" lon="7.5570191"><ele>582.0</ele><time>2026-04-18T16:57:12.583Z</time></trkpt><trkpt lat="44.3327921" lon="7.5567504"><ele>582.0</ele><time>2026-04-18T16:57:13.585Z</time></trkpt><trkpt lat="44.3328265" lon="7.5564908"><ele>582.0</ele><time>2026-04-18T16:57:14.585Z</time></trkpt><trkpt lat="44.3328644" lon="7.5562328"><ele>582.0</ele><time>2026-04-18T16:57:15.585Z</time></trkpt><trkpt lat="44.3329021" lon="7.5559838"><ele>582.0</ele><time>2026-04-18T16:57:16.583Z</time></trkpt><trkpt lat="44.3329374" lon="7.5557454"><ele>582.0</ele><time>2026-04-18T16:57:17.584Z</time></trkpt><trkpt lat="44.3329647" lon="7.5555227"><ele>582.0</ele><time>2026-04-18T16:57:18.584Z</time></trkpt><trkpt lat="44.3329906" lon="7.5553126"><ele>582.0</ele><time>2026-04-18T16:57:19.585Z</time></trkpt><trkpt lat="44.3330074" lon="7.5551371"><ele>582.0</ele><time>2026-04-18T16:57:20.584Z</time></trkpt><trkpt lat="44.3330402" lon="7.5549906"><ele>581.6666666666666</ele><time>2026-04-18T16:57:21.585Z</time></trkpt><trkpt lat="44.3330874" lon="7.5548812"><ele>581.3333333333334</ele><time>2026-04-18T16:57:22.584Z</time></trkpt><trkpt lat="44.3331509" lon="7.554803"><ele>581.0</ele><time>2026-04-18T16:57:23.583Z</time></trkpt><trkpt lat="44.3332294" lon="7.5547433"><ele>580.6666666666667</ele><time>2026-04-18T16:57:24.584Z</time></trkpt><trkpt lat="44.3332936" lon="7.5546739"><ele>580.3333333333334</ele><time>2026-04-18T16:57:25.583Z</time></trkpt><trkpt lat="44.3333227" lon="7.5545773"><ele>580.0</ele><time>2026-04-18T16:57:26.584Z</time></trkpt><trkpt lat="44.3333471" lon="7.5544875"><ele>580.0</ele><time>2026-04-18T16:57:27.584Z</time></trkpt><trkpt lat="44.333281" lon="7.5543698"><ele>580.0</ele><time>2026-04-18T16:57:28.584Z</time></trkpt><trkpt lat="44.3332359" lon="7.5542519"><ele>580.0</ele><time>2026-04-18T16:57:29.584Z</time></trkpt><trkpt lat="44.3332049" lon="7.5540992"><ele>580.0</ele><time>2026-04-18T16:57:30.583Z</time></trkpt><trkpt lat="44.3331923" lon="7.5539139"><ele>580.0</ele><time>2026-04-18T16:57:31.584Z</time></trkpt><trkpt lat="44.3332021" lon="7.5537095"><ele>580.3333333333334</ele><time>2026-04-18T16:57:32.583Z</time></trkpt><trkpt lat="44.3332218" lon="7.5534869"><ele>580.6666666666666</ele><time>2026-04-18T16:57:33.584Z</time></trkpt><trkpt lat="44.3332425" lon="7.5532497"><ele>581.0</ele><time>2026-04-18T16:57:34.583Z</time></trkpt><trkpt lat="44.3332616" lon="7.5530084"><ele>580.6666666666666</ele><time>2026-04-18T16:57:35.583Z</time></trkpt><trkpt lat="44.3332849" lon="7.5527529"><ele>580.3333333333334</ele><time>2026-04-18T16:57:36.585Z</time></trkpt><trkpt lat="44.3333102" lon="7.5524972"><ele>580.0</ele><time>2026-04-18T16:57:37.583Z</time></trkpt><trkpt lat="44.3333354" lon="7.552244"><ele>580.6666666666667</ele><time>2026-04-18T16:57:38.584Z</time></trkpt><trkpt lat="44.3333654" lon="7.5519924"><ele>581.3333333333334</ele><time>2026-04-18T16:57:39.583Z</time></trkpt><trkpt lat="44.3333935" lon="7.5517323"><ele>582.0</ele><time>2026-04-18T16:57:40.583Z</time></trkpt><trkpt lat="44.3334248" lon="7.551489"><ele>582.0</ele><time>2026-04-18T16:57:41.583Z</time></trkpt><trkpt lat="44.3334595" lon="7.5512576"><ele>582.0</ele><time>2026-04-18T16:57:42.584Z</time></trkpt><trkpt lat="44.3334982" lon="7.5510289"><ele>582.0</ele><time>2026-04-18T16:57:43.585Z</time></trkpt><trkpt lat="44.333544" lon="7.5508238"><ele>582.3333333333334</ele><time>2026-04-18T16:57:44.583Z</time></trkpt><trkpt lat="44.3335975" lon="7.550619"><ele>582.6666666666667</ele><time>2026-04-18T16:57:45.583Z</time></trkpt><trkpt lat="44.3336581" lon="7.550404"><ele>583.0</ele><time>2026-04-18T16:57:46.584Z</time></trkpt><trkpt lat="44.3337313" lon="7.5501911"><ele>583.3333333333334</ele><time>2026-04-18T16:57:47.583Z</time></trkpt><trkpt lat="44.3338125" lon="7.5499735"><ele>583.6666666666666</ele><time>2026-04-18T16:57:48.583Z</time></trkpt><trkpt lat="44.3338926" lon="7.5497482"><ele>584.0</ele><time>2026-04-18T16:57:49.584Z</time></trkpt><trkpt lat="44.3339528" lon="7.5495034"><ele>584.3333333333333</ele><time>2026-04-18T16:57:50.585Z</time></trkpt><trkpt lat="44.3339839" lon="7.5492435"><ele>584.6666666666666</ele><time>2026-04-18T16:57:51.584Z</time></trkpt><trkpt lat="44.3340216" lon="7.548964"><ele>585.0</ele><time>2026-04-18T16:57:52.583Z</time></trkpt><trkpt lat="44.334061" lon="7.5486785"><ele>584.0</ele><time>2026-04-18T16:57:53.585Z</time></trkpt><trkpt lat="44.3340953" lon="7.5483949"><ele>583.0</ele><time>2026-04-18T16:57:54.585Z</time></trkpt><trkpt lat="44.3341272" lon="7.5481101"><ele>582.0</ele><time>2026-04-18T16:57:55.583Z</time></trkpt><trkpt lat="44.3341632" lon="7.5478137"><ele>581.6666666666666</ele><time>2026-04-18T16:57:56.583Z</time></trkpt><trkpt lat="44.3342001" lon="7.5475265"><ele>581.3333333333333</ele><time>2026-04-18T16:57:57.583Z</time></trkpt><trkpt lat="44.3342408" lon="7.5472246"><ele>581.0</ele><time>2026-04-18T16:57:58.584Z</time></trkpt><trkpt lat="44.3342764" lon="7.5469409"><ele>581.0</ele><time>2026-04-18T16:57:59.584Z</time></trkpt><trkpt lat="44.3343048" lon="7.5466739"><ele>581.0</ele><time>2026-04-18T16:58:00.583Z</time></trkpt><trkpt lat="44.3343294" lon="7.546409"><ele>581.0</ele><time>2026-04-18T16:58:01.583Z</time></trkpt><trkpt lat="44.3343463" lon="7.5461547"><ele>581.3333333333333</ele><time>2026-04-18T16:58:02.584Z</time></trkpt><trkpt lat="44.3343639" lon="7.5459218"><ele>581.6666666666666</ele><time>2026-04-18T16:58:03.585Z</time></trkpt><trkpt lat="44.3343793" lon="7.5457032"><ele>582.0</ele><time>2026-04-18T16:58:04.583Z</time></trkpt><trkpt lat="44.3344021" lon="7.5454953"><ele>582.0</ele><time>2026-04-18T16:58:05.585Z</time></trkpt><trkpt lat="44.3344508" lon="7.5453022"><ele>582.0</ele><time>2026-04-18T16:58:06.584Z</time></trkpt><trkpt lat="44.3345308" lon="7.5451288"><ele>582.0</ele><time>2026-04-18T16:58:07.583Z</time></trkpt><trkpt lat="44.3346203" lon="7.5449797"><ele>582.0</ele><time>2026-04-18T16:58:08.583Z</time></trkpt><trkpt lat="44.3347087" lon="7.5448404"><ele>581.6</ele><time>2026-04-18T16:58:09.584Z</time></trkpt><trkpt lat="44.3347962" lon="7.5447089"><ele>581.2</ele><time>2026-04-18T16:58:10.583Z</time></trkpt><trkpt lat="44.3348736" lon="7.5446011"><ele>580.8</ele><time>2026-04-18T16:58:11.584Z</time></trkpt><trkpt lat="44.334947" lon="7.544524"><ele>580.4</ele><time>2026-04-18T16:58:12.583Z</time></trkpt><trkpt lat="44.3350259" lon="7.5444717"><ele>580.0</ele><time>2026-04-18T16:58:13.583Z</time></trkpt><trkpt lat="44.3351015" lon="7.5444417"><ele>579.8333333333334</ele><time>2026-04-18T16:58:14.583Z</time></trkpt><trkpt lat="44.3351573" lon="7.544384"><ele>579.6666666666667</ele><time>2026-04-18T16:58:15.583Z</time></trkpt><trkpt lat="44.335159" lon="7.5442833"><ele>579.5</ele><time>2026-04-18T16:58:17.584Z</time></trkpt><trkpt lat="44.3351076" lon="7.5443377"><ele>579.3333333333334</ele><time>2026-04-18T16:58:19.584Z</time></trkpt><trkpt lat="44.3351495" lon="7.5444469"><ele>579.1666666666666</ele><time>2026-04-18T16:58:21.583Z</time></trkpt><trkpt lat="44.3352402" lon="7.5444505"><ele>579.0</ele><time>2026-04-18T16:58:22.584Z</time></trkpt><trkpt lat="44.3353848" lon="7.5444339"><ele>579.0</ele><time>2026-04-18T16:58:23.584Z</time></trkpt><trkpt lat="44.3355176" lon="7.544443"><ele>579.0</ele><time>2026-04-18T16:58:24.584Z</time></trkpt><trkpt lat="44.3356461" lon="7.5444621"><ele>579.0</ele><time>2026-04-18T16:58:25.584Z</time></trkpt><trkpt lat="44.3357903" lon="7.5444869"><ele>579.0</ele><time>2026-04-18T16:58:26.583Z</time></trkpt><trkpt lat="44.3359454" lon="7.544512"><ele>579.0</ele><time>2026-04-18T16:58:27.584Z</time></trkpt><trkpt lat="44.3360841" lon="7.5445445"><ele>579.0</ele><time>2026-04-18T16:58:28.584Z</time></trkpt><trkpt lat="44.3362152" lon="7.5445729"><ele>579.0</ele><time>2026-04-18T16:58:29.583Z</time></trkpt><trkpt lat="44.3363495" lon="7.5445974"><ele>579.0</ele><time>2026-04-18T16:58:30.583Z</time></trkpt><trkpt lat="44.336485" lon="7.544625"><ele>578.75</ele><time>2026-04-18T16:58:31.583Z</time></trkpt><trkpt lat="44.3366161" lon="7.5446547"><ele>578.5</ele><time>2026-04-18T16:58:32.583Z</time></trkpt><trkpt lat="44.3367539" lon="7.5446702"><ele>578.25</ele><time>2026-04-18T16:58:33.584Z</time></trkpt><trkpt lat="44.3368895" lon="7.5446784"><ele>578.0</ele><time>2026-04-18T16:58:34.585Z</time></trkpt><trkpt lat="44.3370254" lon="7.5446691"><ele>578.0</ele><time>2026-04-18T16:58:35.583Z</time></trkpt><trkpt lat="44.33714" lon="7.5446389"><ele>578.0</ele><time>2026-04-18T16:58:36.583Z</time></trkpt><trkpt lat="44.3372545" lon="7.5446007"><ele>578.0</ele><time>2026-04-18T16:58:37.583Z</time></trkpt><trkpt lat="44.3373634" lon="7.5445306"><ele>578.0</ele><time>2026-04-18T16:58:38.584Z</time></trkpt><trkpt lat="44.3374812" lon="7.5444394"><ele>578.75</ele><time>2026-04-18T16:58:39.583Z</time></trkpt><trkpt lat="44.3375868" lon="7.5443298"><ele>579.5</ele><time>2026-04-18T16:58:40.583Z</time></trkpt><trkpt lat="44.3376887" lon="7.5442222"><ele>580.25</ele><time>2026-04-18T16:58:41.583Z</time></trkpt><trkpt lat="44.3377861" lon="7.5441284"><ele>581.0</ele><time>2026-04-18T16:58:42.583Z</time></trkpt><trkpt lat="44.3378874" lon="7.5440611"><ele>581.0</ele><time>2026-04-18T16:58:43.583Z</time></trkpt><trkpt lat="44.3379822" lon="7.5440017"><ele>581.0</ele><time>2026-04-18T16:58:44.584Z</time></trkpt><trkpt lat="44.3380596" lon="7.5439155"><ele>581.0</ele><time>2026-04-18T16:58:45.585Z</time></trkpt><trkpt lat="44.3380952" lon="7.5438202"><ele>581.0</ele><time>2026-04-18T16:58:46.583Z</time></trkpt><trkpt lat="44.3380867" lon="7.5437002"><ele>581.0</ele><time>2026-04-18T16:58:47.584Z</time></trkpt><trkpt lat="44.3380508" lon="7.5435985"><ele>581.0</ele><time>2026-04-18T16:58:48.585Z</time></trkpt><trkpt lat="44.3379625" lon="7.5435055"><ele>581.0</ele><time>2026-04-18T16:58:49.583Z</time></trkpt><trkpt lat="44.3378588" lon="7.5434073"><ele>581.0</ele><time>2026-04-18T16:58:50.583Z</time></trkpt><trkpt lat="44.337751" lon="7.5432698"><ele>581.0</ele><time>2026-04-18T16:58:51.583Z</time></trkpt><trkpt lat="44.3376463" lon="7.5430997"><ele>581.0</ele><time>2026-04-18T16:58:52.584Z</time></trkpt><trkpt lat="44.3375372" lon="7.5429008"><ele>580.6666666666666</ele><time>2026-04-18T16:58:53.585Z</time></trkpt><trkpt lat="44.3374297" lon="7.542691"><ele>580.3333333333334</ele><time>2026-04-18T16:58:54.583Z</time></trkpt><trkpt lat="44.3373229" lon="7.5424781"><ele>580.0</ele><time>2026-04-18T16:58:55.584Z</time></trkpt><trkpt lat="44.3372109" lon="7.5422348"><ele>580.6666666666667</ele><time>2026-04-18T16:58:56.584Z</time></trkpt><trkpt lat="44.3371054" lon="7.5419798"><ele>581.3333333333334</ele><time>2026-04-18T16:58:57.584Z</time></trkpt><trkpt lat="44.3369974" lon="7.541702"><ele>582.0</ele><time>2026-04-18T16:58:58.584Z</time></trkpt><trkpt lat="44.3368965" lon="7.5414065"><ele>582.0</ele><time>2026-04-18T16:58:59.585Z</time></trkpt><trkpt lat="44.3367966" lon="7.541086"><ele>582.0</ele><time>2026-04-18T16:59:00.584Z</time></trkpt><trkpt lat="44.3367098" lon="7.5407515"><ele>582.0</ele><time>2026-04-18T16:59:01.583Z</time></trkpt><trkpt lat="44.3366348" lon="7.5403961"><ele>582.0</ele><time>2026-04-18T16:59:02.583Z</time></trkpt><trkpt lat="44.3365778" lon="7.5400303"><ele>582.0</ele><time>2026-04-18T16:59:03.584Z</time></trkpt><trkpt lat="44.336535" lon="7.5396468"><ele>582.0</ele><time>2026-04-18T16:59:04.584Z</time></trkpt><trkpt lat="44.3365125" lon="7.5392499"><ele>582.5</ele><time>2026-04-18T16:59:05.584Z</time></trkpt><trkpt lat="44.3364997" lon="7.538848"><ele>583.0</ele><time>2026-04-18T16:59:06.583Z</time></trkpt><trkpt lat="44.3364914" lon="7.5384525"><ele>583.0</ele><time>2026-04-18T16:59:07.584Z</time></trkpt><trkpt lat="44.3364998" lon="7.5380447"><ele>583.0</ele><time>2026-04-18T16:59:08.584Z</time></trkpt><trkpt lat="44.3365155" lon="7.5376451"><ele>583.0</ele><time>2026-04-18T16:59:09.583Z</time></trkpt><trkpt lat="44.3365321" lon="7.5372322"><ele>583.0</ele><time>2026-04-18T16:59:10.583Z</time></trkpt><trkpt lat="44.3365522" lon="7.5368139"><ele>583.5</ele><time>2026-04-18T16:59:11.584Z</time></trkpt><trkpt lat="44.3365679" lon="7.5363991"><ele>584.0</ele><time>2026-04-18T16:59:12.584Z</time></trkpt><trkpt lat="44.3365818" lon="7.5359715"><ele>584.5</ele><time>2026-04-18T16:59:13.585Z</time></trkpt><trkpt lat="44.3365977" lon="7.5355511"><ele>585.0</ele><time>2026-04-18T16:59:14.584Z</time></trkpt><trkpt lat="44.3366085" lon="7.535164"><ele>586.0</ele><time>2026-04-18T16:59:15.584Z</time></trkpt><trkpt lat="44.3366224" lon="7.5347918"><ele>587.0</ele><time>2026-04-18T16:59:16.583Z</time></trkpt><trkpt lat="44.336632" lon="7.5344281"><ele>587.6666666666666</ele><time>2026-04-18T16:59:17.583Z</time></trkpt><trkpt lat="44.3366402" lon="7.5341147"><ele>588.3333333333334</ele><time>2026-04-18T16:59:18.583Z</time></trkpt><trkpt lat="44.3366557" lon="7.533802"><ele>589.0</ele><time>2026-04-18T16:59:19.583Z</time></trkpt><trkpt lat="44.3366613" lon="7.533511"><ele>589.0</ele><time>2026-04-18T16:59:20.583Z</time></trkpt><trkpt lat="44.3366655" lon="7.5332212"><ele>589.0</ele><time>2026-04-18T16:59:21.584Z</time></trkpt><trkpt lat="44.336675" lon="7.5329277"><ele>589.0</ele><time>2026-04-18T16:59:22.583Z</time></trkpt><trkpt lat="44.3366909" lon="7.5326319"><ele>589.0</ele><time>2026-04-18T16:59:23.584Z</time></trkpt><trkpt lat="44.3367067" lon="7.5323321"><ele>589.0</ele><time>2026-04-18T16:59:24.583Z</time></trkpt><trkpt lat="44.3367264" lon="7.5320378"><ele>589.0</ele><time>2026-04-18T16:59:25.583Z</time></trkpt><trkpt lat="44.3367393" lon="7.5317497"><ele>589.6666666666667</ele><time>2026-04-18T16:59:26.584Z</time></trkpt><trkpt lat="44.3367413" lon="7.5314587"><ele>590.3333333333334</ele><time>2026-04-18T16:59:27.583Z</time></trkpt><trkpt lat="44.3367445" lon="7.5311705"><ele>591.0</ele><time>2026-04-18T16:59:28.584Z</time></trkpt><trkpt lat="44.3367414" lon="7.5308736"><ele>591.0</ele><time>2026-04-18T16:59:29.583Z</time></trkpt><trkpt lat="44.3367348" lon="7.5305782"><ele>591.0</ele><time>2026-04-18T16:59:30.584Z</time></trkpt><trkpt lat="44.3367167" lon="7.5302718"><ele>591.0</ele><time>2026-04-18T16:59:31.584Z</time></trkpt><trkpt lat="44.3366819" lon="7.5299763"><ele>591.6666666666666</ele><time>2026-04-18T16:59:32.584Z</time></trkpt><trkpt lat="44.3366433" lon="7.5296725"><ele>592.3333333333333</ele><time>2026-04-18T16:59:33.583Z</time></trkpt><trkpt lat="44.3365949" lon="7.5293758"><ele>593.0</ele><time>2026-04-18T16:59:34.583Z</time></trkpt><trkpt lat="44.336534" lon="7.5290709"><ele>593.5</ele><time>2026-04-18T16:59:35.584Z</time></trkpt><trkpt lat="44.3364692" lon="7.5287706"><ele>594.0</ele><time>2026-04-18T16:59:36.583Z</time></trkpt><trkpt lat="44.3363824" lon="7.5284647"><ele>594.5</ele><time>2026-04-18T16:59:37.583Z</time></trkpt><trkpt lat="44.3362838" lon="7.5281667"><ele>595.0</ele><time>2026-04-18T16:59:38.585Z</time></trkpt><trkpt lat="44.3361816" lon="7.5278718"><ele>595.0</ele><time>2026-04-18T16:59:39.584Z</time></trkpt><trkpt lat="44.3360603" lon="7.5275826"><ele>595.0</ele><time>2026-04-18T16:59:40.584Z</time></trkpt><trkpt lat="44.3359389" lon="7.5272827"><ele>595.0</ele><time>2026-04-18T16:59:41.585Z</time></trkpt><trkpt lat="44.3358169" lon="7.5269811"><ele>595.0</ele><time>2026-04-18T16:59:42.584Z</time></trkpt><trkpt lat="44.3356955" lon="7.5266708"><ele>595.0</ele><time>2026-04-18T16:59:43.583Z</time></trkpt><trkpt lat="44.3355717" lon="7.5263694"><ele>595.0</ele><time>2026-04-18T16:59:44.583Z</time></trkpt><trkpt lat="44.3354544" lon="7.5260583"><ele>595.0</ele><time>2026-04-18T16:59:45.583Z</time></trkpt><trkpt lat="44.3353345" lon="7.5257453"><ele>595.0</ele><time>2026-04-18T16:59:46.584Z</time></trkpt><trkpt lat="44.3352067" lon="7.5254329"><ele>595.5</ele><time>2026-04-18T16:59:47.585Z</time></trkpt><trkpt lat="44.3350764" lon="7.5251199"><ele>596.0</ele><time>2026-04-18T16:59:48.583Z</time></trkpt><trkpt lat="44.3349564" lon="7.5248069"><ele>596.5</ele><time>2026-04-18T16:59:49.583Z</time></trkpt><trkpt lat="44.3348323" lon="7.5244974"><ele>597.0</ele><time>2026-04-18T16:59:50.583Z</time></trkpt><trkpt lat="44.3347067" lon="7.5241856"><ele>597.0</ele><time>2026-04-18T16:59:51.583Z</time></trkpt><trkpt lat="44.3345831" lon="7.523884"><ele>597.0</ele><time>2026-04-18T16:59:52.584Z</time></trkpt><trkpt lat="44.3344628" lon="7.5235831"><ele>597.0</ele><time>2026-04-18T16:59:53.584Z</time></trkpt><trkpt lat="44.334345" lon="7.5232859"><ele>597.0</ele><time>2026-04-18T16:59:54.583Z</time></trkpt><trkpt lat="44.3342191" lon="7.5229925"><ele>596.5</ele><time>2026-04-18T16:59:55.583Z</time></trkpt><trkpt lat="44.3340976" lon="7.522709"><ele>596.0</ele><time>2026-04-18T16:59:56.584Z</time></trkpt><trkpt lat="44.3339778" lon="7.5224268"><ele>597.5</ele><time>2026-04-18T16:59:57.583Z</time></trkpt><trkpt lat="44.3338531" lon="7.5221501"><ele>599.0</ele><time>2026-04-18T16:59:58.584Z</time></trkpt><trkpt lat="44.3337267" lon="7.5218684"><ele>599.0</ele><time>2026-04-18T16:59:59.585Z</time></trkpt><trkpt lat="44.3336059" lon="7.5215849"><ele>599.0</ele><time>2026-04-18T17:00:00.583Z</time></trkpt><trkpt lat="44.333485" lon="7.5212916"><ele>598.0</ele><time>2026-04-18T17:00:01.584Z</time></trkpt><trkpt lat="44.3333597" lon="7.5210042"><ele>597.0</ele><time>2026-04-18T17:00:02.584Z</time></trkpt><trkpt lat="44.3332322" lon="7.520716"><ele>597.0</ele><time>2026-04-18T17:00:03.583Z</time></trkpt><trkpt lat="44.3331047" lon="7.5204232"><ele>597.0</ele><time>2026-04-18T17:00:04.583Z</time></trkpt><trkpt lat="44.3329805" lon="7.5201282"><ele>597.5</ele><time>2026-04-18T17:00:05.583Z</time></trkpt><trkpt lat="44.3328547" lon="7.5198369"><ele>598.0</ele><time>2026-04-18T17:00:06.584Z</time></trkpt><trkpt lat="44.3327332" lon="7.5195418"><ele>598.0</ele><time>2026-04-18T17:00:07.585Z</time></trkpt><trkpt lat="44.3326117" lon="7.519258"><ele>598.0</ele><time>2026-04-18T17:00:08.584Z</time></trkpt><trkpt lat="44.3324902" lon="7.5189632"><ele>597.5</ele><time>2026-04-18T17:00:09.583Z</time></trkpt><trkpt lat="44.3323731" lon="7.5186792"><ele>597.0</ele><time>2026-04-18T17:00:10.584Z</time></trkpt><trkpt lat="44.3322568" lon="7.5183931"><ele>597.6666666666666</ele><time>2026-04-18T17:00:11.583Z</time></trkpt><trkpt lat="44.3321437" lon="7.5181226"><ele>598.3333333333333</ele><time>2026-04-18T17:00:12.584Z</time></trkpt><trkpt lat="44.3320383" lon="7.5178627"><ele>599.0</ele><time>2026-04-18T17:00:13.583Z</time></trkpt><trkpt lat="44.3319439" lon="7.517616"><ele>599.0</ele><time>2026-04-18T17:00:14.584Z</time></trkpt><trkpt lat="44.3318572" lon="7.5173729"><ele>599.0</ele><time>2026-04-18T17:00:15.585Z</time></trkpt><trkpt lat="44.331779" lon="7.5171478"><ele>599.0</ele><time>2026-04-18T17:00:16.583Z</time></trkpt><trkpt lat="44.3317115" lon="7.5169425"><ele>599.0</ele><time>2026-04-18T17:00:17.584Z</time></trkpt><trkpt lat="44.3316646" lon="7.5167518"><ele>599.0</ele><time>2026-04-18T17:00:18.584Z</time></trkpt><trkpt lat="44.3316238" lon="7.5165848"><ele>599.0</ele><time>2026-04-18T17:00:19.584Z</time></trkpt><trkpt lat="44.331572" lon="7.5164428"><ele>599.0</ele><time>2026-04-18T17:00:20.584Z</time></trkpt><trkpt lat="44.3314936" lon="7.5163197"><ele>599.0</ele><time>2026-04-18T17:00:21.584Z</time></trkpt><trkpt lat="44.3314" lon="7.516174"><ele>599.0</ele><time>2026-04-18T17:00:22.584Z</time></trkpt><trkpt lat="44.3313217" lon="7.5159994"><ele>599.0</ele><time>2026-04-18T17:00:23.583Z</time></trkpt><trkpt lat="44.3312458" lon="7.5157901"><ele>599.0</ele><time>2026-04-18T17:00:24.583Z</time></trkpt><trkpt lat="44.3311813" lon="7.5155562"><ele>599.0</ele><time>2026-04-18T17:00:25.583Z</time></trkpt><trkpt lat="44.3311195" lon="7.515301"><ele>599.0</ele><time>2026-04-18T17:00:26.584Z</time></trkpt><trkpt lat="44.3310576" lon="7.515039"><ele>599.0</ele><time>2026-04-18T17:00:27.584Z</time></trkpt><trkpt lat="44.3309943" lon="7.5147462"><ele>599.0</ele><time>2026-04-18T17:00:28.583Z</time></trkpt><trkpt lat="44.3309382" lon="7.5144352"><ele>599.0</ele><time>2026-04-18T17:00:29.583Z</time></trkpt><trkpt lat="44.330894" lon="7.5141019"><ele>599.0</ele><time>2026-04-18T17:00:30.584Z</time></trkpt><trkpt lat="44.3308703" lon="7.5137599"><ele>599.0</ele><time>2026-04-18T17:00:31.584Z</time></trkpt><trkpt lat="44.3308646" lon="7.5134019"><ele>598.5</ele><time>2026-04-18T17:00:32.584Z</time></trkpt><trkpt lat="44.3308763" lon="7.513056"><ele>598.0</ele><time>2026-04-18T17:00:33.585Z</time></trkpt><trkpt lat="44.3309095" lon="7.5127031"><ele>598.0</ele><time>2026-04-18T17:00:34.583Z</time></trkpt><trkpt lat="44.330969" lon="7.512353"><ele>598.0</ele><time>2026-04-18T17:00:35.583Z</time></trkpt><trkpt lat="44.3310408" lon="7.5119988"><ele>598.0</ele><time>2026-04-18T17:00:36.584Z</time></trkpt><trkpt lat="44.3311394" lon="7.511653"><ele>598.0</ele><time>2026-04-18T17:00:37.585Z</time></trkpt><trkpt lat="44.3312549" lon="7.5113107"><ele>598.5</ele><time>2026-04-18T17:00:38.585Z</time></trkpt><trkpt lat="44.3313874" lon="7.5109772"><ele>599.0</ele><time>2026-04-18T17:00:39.583Z</time></trkpt><trkpt lat="44.3315299" lon="7.5106523"><ele>598.5</ele><time>2026-04-18T17:00:40.583Z</time></trkpt><trkpt lat="44.3316683" lon="7.510335"><ele>598.0</ele><time>2026-04-18T17:00:41.583Z</time></trkpt><trkpt lat="44.3318051" lon="7.51001"><ele>598.0</ele><time>2026-04-18T17:00:42.584Z</time></trkpt><trkpt lat="44.3319425" lon="7.5096832"><ele>598.0</ele><time>2026-04-18T17:00:43.583Z</time></trkpt><trkpt lat="44.3320846" lon="7.5093551"><ele>598.5</ele><time>2026-04-18T17:00:44.584Z</time></trkpt><trkpt lat="44.3322165" lon="7.5090287"><ele>599.0</ele><time>2026-04-18T17:00:45.584Z</time></trkpt><trkpt lat="44.3323609" lon="7.5086951"><ele>598.0</ele><time>2026-04-18T17:00:46.584Z</time></trkpt><trkpt lat="44.3324996" lon="7.5083546"><ele>597.0</ele><time>2026-04-18T17:00:47.583Z</time></trkpt><trkpt lat="44.3326356" lon="7.5080135"><ele>596.5</ele><time>2026-04-18T17:00:48.584Z</time></trkpt><trkpt lat="44.3327668" lon="7.5076749"><ele>596.0</ele><time>2026-04-18T17:00:49.583Z</time></trkpt><trkpt lat="44.3329031" lon="7.5073457"><ele>597.0</ele><time>2026-04-18T17:00:50.584Z</time></trkpt><trkpt lat="44.3330349" lon="7.5070169"><ele>598.0</ele><time>2026-04-18T17:00:51.583Z</time></trkpt><trkpt lat="44.3331745" lon="7.5066864"><ele>599.5</ele><time>2026-04-18T17:00:52.583Z</time></trkpt><trkpt lat="44.3333168" lon="7.5063612"><ele>601.0</ele><time>2026-04-18T17:00:53.583Z</time></trkpt><trkpt lat="44.3334583" lon="7.5060362"><ele>602.5</ele><time>2026-04-18T17:00:54.584Z</time></trkpt><trkpt lat="44.333599" lon="7.505708"><ele>604.0</ele><time>2026-04-18T17:00:55.583Z</time></trkpt><trkpt lat="44.3337385" lon="7.5053796"><ele>605.0</ele><time>2026-04-18T17:00:56.585Z</time></trkpt><trkpt lat="44.3338766" lon="7.5050589"><ele>606.0</ele><time>2026-04-18T17:00:57.583Z</time></trkpt><trkpt lat="44.3340056" lon="7.5047434"><ele>608.0</ele><time>2026-04-18T17:00:58.584Z</time></trkpt><trkpt lat="44.3341205" lon="7.5044348"><ele>610.0</ele><time>2026-04-18T17:00:59.585Z</time></trkpt><trkpt lat="44.3342226" lon="7.5041265"><ele>610.0</ele><time>2026-04-18T17:01:00.584Z</time></trkpt><trkpt lat="44.3342936" lon="7.503831"><ele>610.0</ele><time>2026-04-18T17:01:01.584Z</time></trkpt><trkpt lat="44.3343435" lon="7.5035528"><ele>610.0</ele><time>2026-04-18T17:01:02.584Z</time></trkpt><trkpt lat="44.3343697" lon="7.5032962"><ele>610.3333333333334</ele><time>2026-04-18T17:01:03.583Z</time></trkpt><trkpt lat="44.3343968" lon="7.5030548"><ele>610.6666666666666</ele><time>2026-04-18T17:01:04.585Z</time></trkpt><trkpt lat="44.3344269" lon="7.502839"><ele>611.0</ele><time>2026-04-18T17:01:05.584Z</time></trkpt><trkpt lat="44.3344712" lon="7.5026559"><ele>611.4</ele><time>2026-04-18T17:01:06.583Z</time></trkpt><trkpt lat="44.3345233" lon="7.5024761"><ele>611.8</ele><time>2026-04-18T17:01:07.583Z</time></trkpt><trkpt lat="44.3345558" lon="7.50234"><ele>612.1999999999999</ele><time>2026-04-18T17:01:08.583Z</time></trkpt><trkpt lat="44.3345524" lon="7.502194"><ele>612.6</ele><time>2026-04-18T17:01:09.583Z</time></trkpt><trkpt lat="44.334508" lon="7.5020695"><ele>613.0</ele><time>2026-04-18T17:01:10.584Z</time></trkpt><trkpt lat="44.3344328" lon="7.5019702"><ele>613.75</ele><time>2026-04-18T17:01:11.583Z</time></trkpt><trkpt lat="44.3343452" lon="7.501844"><ele>614.5</ele><time>2026-04-18T17:01:12.583Z</time></trkpt><trkpt lat="44.33428" lon="7.5016761"><ele>615.25</ele><time>2026-04-18T17:01:13.585Z</time></trkpt><trkpt lat="44.3342021" lon="7.5014892"><ele>616.0</ele><time>2026-04-18T17:01:14.584Z</time></trkpt><trkpt lat="44.3341261" lon="7.5013011"><ele>615.6666666666667</ele><time>2026-04-18T17:01:15.583Z</time></trkpt><trkpt lat="44.3340399" lon="7.5011175"><ele>615.3333333333334</ele><time>2026-04-18T17:01:16.584Z</time></trkpt><trkpt lat="44.333955" lon="7.5009236"><ele>615.0</ele><time>2026-04-18T17:01:17.583Z</time></trkpt><trkpt lat="44.3338711" lon="7.5007392"><ele>615.0</ele><time>2026-04-18T17:01:18.584Z</time></trkpt><trkpt lat="44.3337904" lon="7.5005473"><ele>615.0</ele><time>2026-04-18T17:01:19.584Z</time></trkpt><trkpt lat="44.3337097" lon="7.5003691"><ele>615.0</ele><time>2026-04-18T17:01:20.583Z</time></trkpt><trkpt lat="44.3336364" lon="7.5002009"><ele>616.0</ele><time>2026-04-18T17:01:21.583Z</time></trkpt><trkpt lat="44.3335716" lon="7.5000513"><ele>617.0</ele><time>2026-04-18T17:01:22.583Z</time></trkpt><trkpt lat="44.3335042" lon="7.4999058"><ele>618.0</ele><time>2026-04-18T17:01:23.584Z</time></trkpt><trkpt lat="44.3334428" lon="7.4997684"><ele>619.0</ele><time>2026-04-18T17:01:24.584Z</time></trkpt><trkpt lat="44.3333856" lon="7.4996319"><ele>619.5</ele><time>2026-04-18T17:01:25.583Z</time></trkpt><trkpt lat="44.3333323" lon="7.4995074"><ele>620.0</ele><time>2026-04-18T17:01:26.584Z</time></trkpt><trkpt lat="44.3332899" lon="7.4993957"><ele>620.5</ele><time>2026-04-18T17:01:27.585Z</time></trkpt><trkpt lat="44.3332546" lon="7.4992961"><ele>621.0</ele><time>2026-04-18T17:01:28.584Z</time></trkpt><trkpt lat="44.333215" lon="7.4991977"><ele>621.5</ele><time>2026-04-18T17:01:30.583Z</time></trkpt><trkpt lat="44.3331683" lon="7.4991111"><ele>622.0</ele><time>2026-04-18T17:02:36.583Z</time></trkpt><trkpt lat="44.333126" lon="7.4990414"><ele>622.0</ele><time>2026-04-18T17:02:37.584Z</time></trkpt><trkpt lat="44.3330814" lon="7.498941"><ele>622.0</ele><time>2026-04-18T17:02:38.584Z</time></trkpt><trkpt lat="44.3330234" lon="7.4988219"><ele>622.0</ele><time>2026-04-18T17:02:39.584Z</time></trkpt><trkpt lat="44.3329573" lon="7.4986764"><ele>622.0</ele><time>2026-04-18T17:02:40.584Z</time></trkpt><trkpt lat="44.3328862" lon="7.4985086"><ele>621.0</ele><time>2026-04-18T17:02:41.584Z</time></trkpt><trkpt lat="44.3328076" lon="7.4983364"><ele>620.0</ele><time>2026-04-18T17:02:42.584Z</time></trkpt><trkpt lat="44.3327222" lon="7.4981529"><ele>619.0</ele><time>2026-04-18T17:02:43.583Z</time></trkpt><trkpt lat="44.3326443" lon="7.4979786"><ele>620.25</ele><time>2026-04-18T17:02:44.584Z</time></trkpt><trkpt lat="44.3325659" lon="7.4977961"><ele>621.5</ele><time>2026-04-18T17:02:45.584Z</time></trkpt><trkpt lat="44.3325061" lon="7.4976224"><ele>622.75</ele><time>2026-04-18T17:02:46.584Z</time></trkpt><trkpt lat="44.3324665" lon="7.4974503"><ele>624.0</ele><time>2026-04-18T17:02:47.584Z</time></trkpt><trkpt lat="44.3324428" lon="7.4972857"><ele>624.0</ele><time>2026-04-18T17:02:48.584Z</time></trkpt><trkpt lat="44.3324278" lon="7.4971481"><ele>624.0</ele><time>2026-04-18T17:02:49.584Z</time></trkpt><trkpt lat="44.3324251" lon="7.4970313"><ele>624.0</ele><time>2026-04-18T17:02:50.584Z</time></trkpt><trkpt lat="44.3324456" lon="7.4969153"><ele>624.0</ele><time>2026-04-18T17:02:51.584Z</time></trkpt><trkpt lat="44.3324842" lon="7.496809"><ele>624.0</ele><time>2026-04-18T17:02:52.584Z</time></trkpt><trkpt lat="44.3325164" lon="7.4966981"><ele>624.0</ele><time>2026-04-18T17:02:53.583Z</time></trkpt><trkpt lat="44.332511" lon="7.4965827"><ele>624.6</ele><time>2026-04-18T17:02:54.585Z</time></trkpt><trkpt lat="44.3324772" lon="7.496473"><ele>625.2</ele><time>2026-04-18T17:02:55.583Z</time></trkpt><trkpt lat="44.3324092" lon="7.4963688"><ele>625.8000000000001</ele><time>2026-04-18T17:02:56.584Z</time></trkpt><trkpt lat="44.3323425" lon="7.4962581"><ele>626.4</ele><time>2026-04-18T17:02:57.583Z</time></trkpt><trkpt lat="44.3322833" lon="7.4961402"><ele>627.0</ele><time>2026-04-18T17:02:58.584Z</time></trkpt><trkpt lat="44.3322374" lon="7.4960179"><ele>626.6</ele><time>2026-04-18T17:02:59.583Z</time></trkpt><trkpt lat="44.3321989" lon="7.4958971"><ele>626.2</ele><time>2026-04-18T17:03:00.584Z</time></trkpt><trkpt lat="44.3321585" lon="7.4957745"><ele>625.8</ele><time>2026-04-18T17:03:01.583Z</time></trkpt><trkpt lat="44.3321197" lon="7.4956444"><ele>625.4</ele><time>2026-04-18T17:03:02.584Z</time></trkpt><trkpt lat="44.3320807" lon="7.4955061"><ele>625.0</ele><time>2026-04-18T17:03:03.583Z</time></trkpt><trkpt lat="44.3320404" lon="7.4953465"><ele>625.0</ele><time>2026-04-18T17:03:04.585Z</time></trkpt><trkpt lat="44.3320035" lon="7.4951663"><ele>625.0</ele><time>2026-04-18T17:03:05.583Z</time></trkpt><trkpt lat="44.3319716" lon="7.494969"><ele>625.0</ele><time>2026-04-18T17:03:06.583Z</time></trkpt><trkpt lat="44.3319476" lon="7.4947724"><ele>625.0</ele><time>2026-04-18T17:03:07.583Z</time></trkpt><trkpt lat="44.3319251" lon="7.4945628"><ele>625.6666666666667</ele><time>2026-04-18T17:03:08.583Z</time></trkpt><trkpt lat="44.331903" lon="7.4943417"><ele>626.3333333333334</ele><time>2026-04-18T17:03:09.583Z</time></trkpt><trkpt lat="44.3318844" lon="7.4941242"><ele>627.0</ele><time>2026-04-18T17:03:10.583Z</time></trkpt><trkpt lat="44.3318653" lon="7.4939144"><ele>627.5</ele><time>2026-04-18T17:03:11.584Z</time></trkpt><trkpt lat="44.3318449" lon="7.4937108"><ele>628.0</ele><time>2026-04-18T17:03:12.584Z</time></trkpt><trkpt lat="44.331823" lon="7.4935119"><ele>628.5</ele><time>2026-04-18T17:03:13.583Z</time></trkpt><trkpt lat="44.3318016" lon="7.4933175"><ele>629.0</ele><time>2026-04-18T17:03:14.583Z</time></trkpt><trkpt lat="44.3317819" lon="7.4931285"><ele>629.0</ele><time>2026-04-18T17:03:15.584Z</time></trkpt><trkpt lat="44.3317609" lon="7.492953"><ele>629.0</ele><time>2026-04-18T17:03:16.584Z</time></trkpt><trkpt lat="44.3317436" lon="7.4927866"><ele>629.0</ele><time>2026-04-18T17:03:17.583Z</time></trkpt><trkpt lat="44.3317301" lon="7.4926299"><ele>629.0</ele><time>2026-04-18T17:03:18.585Z</time></trkpt><trkpt lat="44.3317184" lon="7.4924777"><ele>629.3333333333333</ele><time>2026-04-18T17:03:19.583Z</time></trkpt><trkpt lat="44.3317115" lon="7.4923417"><ele>629.6666666666666</ele><time>2026-04-18T17:03:20.583Z</time></trkpt><trkpt lat="44.3317068" lon="7.4922144"><ele>630.0</ele><time>2026-04-18T17:03:21.583Z</time></trkpt><trkpt lat="44.3317047" lon="7.492093"><ele>630.3333333333334</ele><time>2026-04-18T17:03:22.583Z</time></trkpt><trkpt lat="44.3317053" lon="7.4919803"><ele>630.6666666666667</ele><time>2026-04-18T17:03:23.583Z</time></trkpt><trkpt lat="44.3317067" lon="7.4918771"><ele>631.0</ele><time>2026-04-18T17:03:24.585Z</time></trkpt><trkpt lat="44.3317056" lon="7.4917764"><ele>631.1666666666667</ele><time>2026-04-18T17:03:25.584Z</time></trkpt><trkpt lat="44.3317032" lon="7.4916673"><ele>631.3333333333334</ele><time>2026-04-18T17:03:26.583Z</time></trkpt><trkpt lat="44.3316996" lon="7.4915592"><ele>631.5</ele><time>2026-04-18T17:03:27.584Z</time></trkpt><trkpt lat="44.3316967" lon="7.4914438"><ele>631.6666666666666</ele><time>2026-04-18T17:03:28.583Z</time></trkpt><trkpt lat="44.3316928" lon="7.4913281"><ele>631.8333333333333</ele><time>2026-04-18T17:03:29.583Z</time></trkpt><trkpt lat="44.3316879" lon="7.4912133"><ele>632.0</ele><time>2026-04-18T17:03:30.585Z</time></trkpt><trkpt lat="44.3316811" lon="7.4910875"><ele>632.25</ele><time>2026-04-18T17:03:31.584Z</time></trkpt><trkpt lat="44.3316652" lon="7.4909461"><ele>632.5</ele><time>2026-04-18T17:03:32.583Z</time></trkpt><trkpt lat="44.3316545" lon="7.4907829"><ele>632.75</ele><time>2026-04-18T17:03:33.584Z</time></trkpt><trkpt lat="44.3316569" lon="7.4905938"><ele>633.0</ele><time>2026-04-18T17:03:34.583Z</time></trkpt><trkpt lat="44.331658" lon="7.4904128"><ele>633.4</ele><time>2026-04-18T17:03:35.584Z</time></trkpt><trkpt lat="44.3316551" lon="7.4902332"><ele>633.8</ele><time>2026-04-18T17:03:36.585Z</time></trkpt><trkpt lat="44.3316468" lon="7.4900825"><ele>634.2</ele><time>2026-04-18T17:03:37.583Z</time></trkpt><trkpt lat="44.3316371" lon="7.489955"><ele>634.6</ele><time>2026-04-18T17:03:38.584Z</time></trkpt><trkpt lat="44.3316351" lon="7.4898397"><ele>635.0</ele><time>2026-04-18T17:03:39.584Z</time></trkpt><trkpt lat="44.3316461" lon="7.4897327"><ele>635.0</ele><time>2026-04-18T17:03:40.584Z</time></trkpt><trkpt lat="44.3316619" lon="7.4896279"><ele>635.0</ele><time>2026-04-18T17:03:41.584Z</time></trkpt><trkpt lat="44.3316789" lon="7.4895132"><ele>635.0</ele><time>2026-04-18T17:03:42.584Z</time></trkpt><trkpt lat="44.3316971" lon="7.4894129"><ele>635.0</ele><time>2026-04-18T17:03:43.584Z</time></trkpt><trkpt lat="44.3317318" lon="7.489264"><ele>635.0</ele><time>2026-04-18T17:03:45.584Z</time></trkpt><trkpt lat="44.3317575" lon="7.4891493"><ele>635.0</ele><time>2026-04-18T17:03:47.584Z</time></trkpt><trkpt lat="44.3318105" lon="7.4890456"><ele>635.2</ele><time>2026-04-18T17:03:50.584Z</time></trkpt><trkpt lat="44.3319044" lon="7.488999"><ele>635.4</ele><time>2026-04-18T17:03:53.583Z</time></trkpt><trkpt lat="44.3319858" lon="7.4889455"><ele>635.6</ele><time>2026-04-18T17:03:55.584Z</time></trkpt><trkpt lat="44.3320001" lon="7.4888106"><ele>635.8</ele><time>2026-04-18T17:03:57.584Z</time></trkpt><trkpt lat="44.331914" lon="7.4887411"><ele>636.0</ele><time>2026-04-18T17:03:59.584Z</time></trkpt><trkpt lat="44.3318351" lon="7.488776"><ele>636.0</ele><time>2026-04-18T17:04:01.584Z</time></trkpt><trkpt lat="44.3317862" lon="7.4888713"><ele>636.0</ele><time>2026-04-18T17:04:03.584Z</time></trkpt><trkpt lat="44.3317291" lon="7.4889208"><ele>636.0</ele><time>2026-04-18T17:04:04.584Z</time></trkpt><trkpt lat="44.3316041" lon="7.4889027"><ele>636.0</ele><time>2026-04-18T17:04:06.583Z</time></trkpt><trkpt lat="44.331517" lon="7.4888881"><ele>636.0</ele><time>2026-04-18T17:04:07.584Z</time></trkpt><trkpt lat="44.3314402" lon="7.4888686"><ele>636.0</ele><time>2026-04-18T17:04:08.584Z</time></trkpt><trkpt lat="44.3313732" lon="7.4888613"><ele>636.3333333333334</ele><time>2026-04-18T17:04:09.583Z</time></trkpt><trkpt lat="44.3312993" lon="7.4888349"><ele>636.6666666666666</ele><time>2026-04-18T17:04:10.583Z</time></trkpt><trkpt lat="44.3312375" lon="7.4888027"><ele>637.0</ele><time>2026-04-18T17:04:11.584Z</time></trkpt><trkpt lat="44.331122" lon="7.4887846"><ele>637.3333333333333</ele><time>2026-04-18T17:04:13.583Z</time></trkpt><trkpt lat="44.3310499" lon="7.4887718"><ele>637.6666666666666</ele><time>2026-04-18T17:04:15.584Z</time></trkpt><trkpt lat="44.3309848" lon="7.4887418"><ele>638.0</ele><time>2026-04-18T17:04:19.585Z</time></trkpt><trkpt lat="44.3308577" lon="7.4887238"><ele>638.1999999999999</ele><time>2026-04-18T17:04:22.584Z</time></trkpt><trkpt lat="44.3307044" lon="7.488684"><ele>638.4</ele><time>2026-04-18T17:04:24.585Z</time></trkpt><trkpt lat="44.3306333" lon="7.4886476"><ele>638.5999999999999</ele><time>2026-04-18T17:04:25.583Z</time></trkpt><trkpt lat="44.3305626" lon="7.488608"><ele>638.8</ele><time>2026-04-18T17:04:26.584Z</time></trkpt><trkpt lat="44.3305015" lon="7.4885658"><ele>639.0</ele><time>2026-04-18T17:04:27.584Z</time></trkpt><trkpt lat="44.3303855" lon="7.4885245"><ele>639.0</ele><time>2026-04-18T17:04:29.585Z</time></trkpt><trkpt lat="44.3302361" lon="7.4885195"><ele>639.0</ele><time>2026-04-18T17:04:31.585Z</time></trkpt><trkpt lat="44.3301557" lon="7.4885067"><ele>639.0</ele><time>2026-04-18T17:04:32.584Z</time></trkpt><trkpt lat="44.3300815" lon="7.4884912"><ele>639.0</ele><time>2026-04-18T17:04:33.583Z</time></trkpt><trkpt lat="44.3300022" lon="7.4885116"><ele>639.0</ele><time>2026-04-18T17:04:34.584Z</time></trkpt><trkpt lat="44.3299253" lon="7.4885014"><ele>639.0</ele><time>2026-04-18T17:04:35.583Z</time></trkpt><trkpt lat="44.3298554" lon="7.4885052"><ele>639.0</ele><time>2026-04-18T17:04:36.583Z</time></trkpt><trkpt lat="44.3297439" lon="7.4884859"><ele>639.0</ele><time>2026-04-18T17:04:38.583Z</time></trkpt><trkpt lat="44.3297635" lon="7.4883464"><ele>639.0</ele><time>2026-04-18T17:04:40.583Z</time></trkpt><trkpt lat="44.3297602" lon="7.4881704"><ele>639.0</ele><time>2026-04-18T17:04:42.584Z</time></trkpt><trkpt lat="44.3297844" lon="7.4880308"><ele>639.0</ele><time>2026-04-18T17:04:43.583Z</time></trkpt><trkpt lat="44.3298157" lon="7.4878927"><ele>639.0</ele><time>2026-04-18T17:04:44.583Z</time></trkpt><trkpt lat="44.3298358" lon="7.4877472"><ele>639.0</ele><time>2026-04-18T17:04:45.584Z</time></trkpt><trkpt lat="44.3298533" lon="7.4876204"><ele>639.0</ele><time>2026-04-18T17:04:46.584Z</time></trkpt><trkpt lat="44.3298503" lon="7.4874968"><ele>639.0</ele><time>2026-04-18T17:04:47.583Z</time></trkpt><trkpt lat="44.329853" lon="7.4873674"><ele>639.0</ele><time>2026-04-18T17:04:48.585Z</time></trkpt><trkpt lat="44.3298848" lon="7.4872517"><ele>639.0</ele><time>2026-04-18T17:04:49.585Z</time></trkpt><trkpt lat="44.3299024" lon="7.4871509"><ele>639.0</ele><time>2026-04-18T17:04:50.584Z</time></trkpt><trkpt lat="44.3299236" lon="7.4870549"><ele>639.0</ele><time>2026-04-18T17:04:51.584Z</time></trkpt><trkpt lat="44.3299267" lon="7.486962"><ele>639.0</ele><time>2026-04-18T17:04:52.584Z</time></trkpt><trkpt lat="44.3299466" lon="7.4867903"><ele>639.0</ele><time>2026-04-18T17:04:54.583Z</time></trkpt><trkpt lat="44.3299514" lon="7.4866944"><ele>639.0</ele><time>2026-04-18T17:04:55.585Z</time></trkpt><trkpt lat="44.3299537" lon="7.4865539"><ele>639.0</ele><time>2026-04-18T17:04:56.583Z</time></trkpt><trkpt lat="44.3299692" lon="7.4864479"><ele>639.0</ele><time>2026-04-18T17:04:57.584Z</time></trkpt><trkpt lat="44.3299876" lon="7.486342"><ele>639.0</ele><time>2026-04-18T17:04:58.583Z</time></trkpt><trkpt lat="44.3300002" lon="7.4862012"><ele>639.0</ele><time>2026-04-18T17:04:59.584Z</time></trkpt><trkpt lat="44.330023" lon="7.4860876"><ele>639.0</ele><time>2026-04-18T17:05:00.583Z</time></trkpt><trkpt lat="44.3300366" lon="7.4859525"><ele>639.0</ele><time>2026-04-18T17:05:01.583Z</time></trkpt><trkpt lat="44.3300415" lon="7.4858128"><ele>639.0</ele><time>2026-04-18T17:05:02.584Z</time></trkpt><trkpt lat="44.3300473" lon="7.4856517"><ele>639.0</ele><time>2026-04-18T17:05:03.584Z</time></trkpt><trkpt lat="44.3300577" lon="7.4855142"><ele>639.0</ele><time>2026-04-18T17:05:04.584Z</time></trkpt><trkpt lat="44.3300464" lon="7.4853701"><ele>639.0</ele><time>2026-04-18T17:05:05.583Z</time></trkpt><trkpt lat="44.3300422" lon="7.48523"><ele>639.2857142857143</ele><time>2026-04-18T17:05:06.584Z</time></trkpt><trkpt lat="44.3300655" lon="7.4851217"><ele>639.5714285714286</ele><time>2026-04-18T17:05:07.583Z</time></trkpt><trkpt lat="44.3300396" lon="7.4850079"><ele>639.8571428571429</ele><time>2026-04-18T17:05:08.585Z</time></trkpt><trkpt lat="44.330013" lon="7.4849276"><ele>640.1428571428571</ele><time>2026-04-18T17:05:09.584Z</time></trkpt><trkpt lat="44.3300002" lon="7.484827"><ele>640.4285714285714</ele><time>2026-04-18T17:05:10.584Z</time></trkpt><trkpt lat="44.330003" lon="7.4847362"><ele>640.7142857142858</ele><time>2026-04-18T17:05:11.584Z</time></trkpt><trkpt lat="44.3300183" lon="7.4846387"><ele>641.0</ele><time>2026-04-18T17:05:12.583Z</time></trkpt><trkpt lat="44.330049" lon="7.4845171"><ele>641.0</ele><time>2026-04-18T17:05:14.584Z</time></trkpt><trkpt lat="44.3301299" lon="7.484443"><ele>641.0</ele><time>2026-04-18T17:05:17.583Z</time></trkpt><trkpt lat="44.3301899" lon="7.4844925"><ele>641.0</ele><time>2026-04-18T17:05:18.584Z</time></trkpt><trkpt lat="44.330238" lon="7.4845578"><ele>641.0</ele><time>2026-04-18T17:05:19.583Z</time></trkpt><trkpt lat="44.330313" lon="7.484662"><ele>641.0</ele><time>2026-04-18T17:05:20.584Z</time></trkpt><trkpt lat="44.3303855" lon="7.4847921"><ele>641.0</ele><time>2026-04-18T17:05:21.584Z</time></trkpt><trkpt lat="44.3304656" lon="7.4849517"><ele>641.0</ele><time>2026-04-18T17:05:22.583Z</time></trkpt><trkpt lat="44.3305382" lon="7.4851354"><ele>641.0</ele><time>2026-04-18T17:05:23.584Z</time></trkpt><trkpt lat="44.3306119" lon="7.4852975"><ele>641.0</ele><time>2026-04-18T17:05:24.583Z</time></trkpt><trkpt lat="44.3306636" lon="7.485458"><ele>641.0</ele><time>2026-04-18T17:05:25.584Z</time></trkpt><trkpt lat="44.3307157" lon="7.485608"><ele>641.0</ele><time>2026-04-18T17:05:26.583Z</time></trkpt><trkpt lat="44.3307758" lon="7.4857608"><ele>641.0</ele><time>2026-04-18T17:05:27.585Z</time></trkpt><trkpt lat="44.3308404" lon="7.4859113"><ele>641.0</ele><time>2026-04-18T17:05:28.584Z</time></trkpt><trkpt lat="44.330902" lon="7.4860692"><ele>641.0</ele><time>2026-04-18T17:05:29.584Z</time></trkpt><trkpt lat="44.3309701" lon="7.4862217"><ele>641.0</ele><time>2026-04-18T17:05:30.583Z</time></trkpt><trkpt lat="44.3310334" lon="7.4863798"><ele>641.0</ele><time>2026-04-18T17:05:31.583Z</time></trkpt><trkpt lat="44.3310983" lon="7.486525"><ele>641.0</ele><time>2026-04-18T17:05:32.584Z</time></trkpt><trkpt lat="44.331161" lon="7.486677"><ele>641.0</ele><time>2026-04-18T17:05:33.584Z</time></trkpt><trkpt lat="44.3312221" lon="7.4868214"><ele>641.0</ele><time>2026-04-18T17:05:34.584Z</time></trkpt><trkpt lat="44.3312882" lon="7.486957"><ele>641.0</ele><time>2026-04-18T17:05:35.585Z</time></trkpt><trkpt lat="44.3313551" lon="7.4870972"><ele>641.0</ele><time>2026-04-18T17:05:36.583Z</time></trkpt><trkpt lat="44.3314282" lon="7.4872195"><ele>640.5999999999999</ele><time>2026-04-18T17:05:37.584Z</time></trkpt><trkpt lat="44.3314955" lon="7.4873515"><ele>640.1999999999999</ele><time>2026-04-18T17:05:38.583Z</time></trkpt><trkpt lat="44.3315511" lon="7.487481"><ele>639.8</ele><time>2026-04-18T17:05:39.583Z</time></trkpt><trkpt lat="44.3316131" lon="7.4876007"><ele>639.4</ele><time>2026-04-18T17:05:40.584Z</time></trkpt><trkpt lat="44.3316807" lon="7.4877159"><ele>639.0</ele><time>2026-04-18T17:05:41.584Z</time></trkpt><trkpt lat="44.3317446" lon="7.4878272"><ele>638.4</ele><time>2026-04-18T17:05:42.584Z</time></trkpt><trkpt lat="44.3318027" lon="7.4879465"><ele>637.8</ele><time>2026-04-18T17:05:43.583Z</time></trkpt><trkpt lat="44.331856" lon="7.4880747"><ele>637.2</ele><time>2026-04-18T17:05:44.583Z</time></trkpt><trkpt lat="44.3318623" lon="7.4882171"><ele>636.6</ele><time>2026-04-18T17:05:45.584Z</time></trkpt><trkpt lat="44.3318854" lon="7.4883525"><ele>636.0</ele><time>2026-04-18T17:05:46.583Z</time></trkpt><trkpt lat="44.3318744" lon="7.488457"><ele>636.0</ele><time>2026-04-18T17:05:47.584Z</time></trkpt><trkpt lat="44.3318692" lon="7.4885836"><ele>636.0</ele><time>2026-04-18T17:05:48.585Z</time></trkpt><trkpt lat="44.3318524" lon="7.4886964"><ele>636.0</ele><time>2026-04-18T17:05:49.584Z</time></trkpt><trkpt lat="44.3318458" lon="7.4888037"><ele>636.0</ele><time>2026-04-18T17:05:50.584Z</time></trkpt><trkpt lat="44.3318823" lon="7.4889698"><ele>636.0</ele><time>2026-04-18T17:05:52.584Z</time></trkpt><trkpt lat="44.3319932" lon="7.4890583"><ele>636.0</ele><time>2026-04-18T17:05:54.585Z</time></trkpt><trkpt lat="44.3320687" lon="7.4890804"><ele>636.0</ele><time>2026-04-18T17:05:55.583Z</time></trkpt><trkpt lat="44.3321385" lon="7.4891167"><ele>636.0</ele><time>2026-04-18T17:05:56.585Z</time></trkpt><trkpt lat="44.3322107" lon="7.4891627"><ele>636.0</ele><time>2026-04-18T17:05:57.583Z</time></trkpt><trkpt lat="44.3322811" lon="7.4892095"><ele>636.0</ele><time>2026-04-18T17:05:58.583Z</time></trkpt><trkpt lat="44.3323718" lon="7.4892725"><ele>636.0</ele><time>2026-04-18T17:05:59.583Z</time></trkpt><trkpt lat="44.3324501" lon="7.4893432"><ele>636.0</ele><time>2026-04-18T17:06:00.583Z</time></trkpt><trkpt lat="44.3325361" lon="7.4894187"><ele>636.0</ele><time>2026-04-18T17:06:01.585Z</time></trkpt><trkpt lat="44.3326113" lon="7.4895019"><ele>636.0</ele><time>2026-04-18T17:06:02.584Z</time></trkpt><trkpt lat="44.3326894" lon="7.489582"><ele>636.0</ele><time>2026-04-18T17:06:03.583Z</time></trkpt><trkpt lat="44.3327456" lon="7.489653"><ele>636.0</ele><time>2026-04-18T17:06:04.585Z</time></trkpt><trkpt lat="44.3328162" lon="7.4897221"><ele>636.0</ele><time>2026-04-18T17:06:05.583Z</time></trkpt><trkpt lat="44.3328905" lon="7.4898002"><ele>636.0</ele><time>2026-04-18T17:06:06.583Z</time></trkpt><trkpt lat="44.3329743" lon="7.4898881"><ele>636.0</ele><time>2026-04-18T17:06:07.584Z</time></trkpt><trkpt lat="44.3330532" lon="7.4899633"><ele>636.0</ele><time>2026-04-18T17:06:08.583Z</time></trkpt><trkpt lat="44.3331305" lon="7.4900404"><ele>636.0</ele><time>2026-04-18T17:06:09.584Z</time></trkpt><trkpt lat="44.3332225" lon="7.4901185"><ele>636.0</ele><time>2026-04-18T17:06:10.583Z</time></trkpt><trkpt lat="44.3333104" lon="7.4902047"><ele>636.0</ele><time>2026-04-18T17:06:11.584Z</time></trkpt><trkpt lat="44.3333966" lon="7.4902933"><ele>636.0</ele><time>2026-04-18T17:06:12.583Z</time></trkpt><trkpt lat="44.3334844" lon="7.4903839"><ele>636.0</ele><time>2026-04-18T17:06:13.584Z</time></trkpt><trkpt lat="44.3335707" lon="7.4904724"><ele>636.0</ele><time>2026-04-18T17:06:14.584Z</time></trkpt><trkpt lat="44.3336464" lon="7.4905549"><ele>635.6666666666666</ele><time>2026-04-18T17:06:15.585Z</time></trkpt><trkpt lat="44.333719" lon="7.4906341"><ele>635.3333333333334</ele><time>2026-04-18T17:06:16.584Z</time></trkpt><trkpt lat="44.3337822" lon="7.4907055"><ele>635.0</ele><time>2026-04-18T17:06:17.583Z</time></trkpt><trkpt lat="44.3338446" lon="7.490765"><ele>634.6666666666667</ele><time>2026-04-18T17:06:18.584Z</time></trkpt><trkpt lat="44.3339159" lon="7.4908519"><ele>634.3333333333334</ele><time>2026-04-18T17:06:20.583Z</time></trkpt><trkpt lat="44.3339904" lon="7.4909364"><ele>634.0</ele><time>2026-04-18T17:06:22.583Z</time></trkpt><trkpt lat="44.3340523" lon="7.491026"><ele>634.0</ele><time>2026-04-18T17:06:24.585Z</time></trkpt><trkpt lat="44.3340986" lon="7.4909596"><ele>634.0</ele><time>2026-04-18T17:06:29.583Z</time></trkpt><trkpt lat="44.3339803" lon="7.4908633"><ele>634.0</ele><time>2026-04-18T17:06:31.584Z</time></trkpt><trkpt lat="44.333913" lon="7.4907876"><ele>634.0</ele><time>2026-04-18T17:06:32.585Z</time></trkpt><trkpt lat="44.3338291" lon="7.4907062"><ele>634.0</ele><time>2026-04-18T17:06:33.584Z</time></trkpt><trkpt lat="44.3337443" lon="7.4906131"><ele>634.0</ele><time>2026-04-18T17:06:34.583Z</time></trkpt><trkpt lat="44.333654" lon="7.4905157"><ele>634.0</ele><time>2026-04-18T17:06:35.583Z</time></trkpt><trkpt lat="44.3335488" lon="7.4904217"><ele>634.0</ele><time>2026-04-18T17:06:36.584Z</time></trkpt><trkpt lat="44.3334487" lon="7.4903137"><ele>634.0</ele><time>2026-04-18T17:06:37.585Z</time></trkpt><trkpt lat="44.3333474" lon="7.4902115"><ele>634.4</ele><time>2026-04-18T17:06:38.583Z</time></trkpt><trkpt lat="44.3332539" lon="7.4901178"><ele>634.8</ele><time>2026-04-18T17:06:39.583Z</time></trkpt><trkpt lat="44.3331668" lon="7.490031"><ele>635.2</ele><time>2026-04-18T17:06:40.584Z</time></trkpt><trkpt lat="44.3330892" lon="7.4899475"><ele>635.6</ele><time>2026-04-18T17:06:41.585Z</time></trkpt><trkpt lat="44.3330234" lon="7.4898543"><ele>636.0</ele><time>2026-04-18T17:06:42.583Z</time></trkpt><trkpt lat="44.3329756" lon="7.4897706"><ele>636.0</ele><time>2026-04-18T17:06:43.584Z</time></trkpt><trkpt lat="44.3328776" lon="7.4896846"><ele>636.0</ele><time>2026-04-18T17:06:45.583Z</time></trkpt><trkpt lat="44.3327673" lon="7.4896165"><ele>636.0</ele><time>2026-04-18T17:06:47.584Z</time></trkpt><trkpt lat="44.3327005" lon="7.4895685"><ele>636.0</ele><time>2026-04-18T17:06:48.583Z</time></trkpt><trkpt lat="44.332628" lon="7.4894965"><ele>636.0</ele><time>2026-04-18T17:06:49.583Z</time></trkpt><trkpt lat="44.3325392" lon="7.4894147"><ele>636.0</ele><time>2026-04-18T17:06:50.583Z</time></trkpt><trkpt lat="44.332447" lon="7.4893111"><ele>636.0</ele><time>2026-04-18T17:06:51.584Z</time></trkpt><trkpt lat="44.3323647" lon="7.4892278"><ele>636.0</ele><time>2026-04-18T17:06:52.583Z</time></trkpt><trkpt lat="44.3322895" lon="7.4891565"><ele>636.0</ele><time>2026-04-18T17:06:53.583Z</time></trkpt><trkpt lat="44.3322266" lon="7.4890927"><ele>636.0</ele><time>2026-04-18T17:06:54.585Z</time></trkpt><trkpt lat="44.3321684" lon="7.4890293"><ele>636.0</ele><time>2026-04-18T17:06:55.585Z</time></trkpt><trkpt lat="44.3321087" lon="7.488966"><ele>636.0</ele><time>2026-04-18T17:06:56.583Z</time></trkpt><trkpt lat="44.3320687" lon="7.4888773"><ele>636.0</ele><time>2026-04-18T17:06:57.584Z</time></trkpt><trkpt lat="44.3320256" lon="7.4887877"><ele>636.0</ele><time>2026-04-18T17:06:58.584Z</time></trkpt><trkpt lat="44.3319855" lon="7.4886865"><ele>636.0</ele><time>2026-04-18T17:06:59.584Z</time></trkpt><trkpt lat="44.3319517" lon="7.4885793"><ele>636.0</ele><time>2026-04-18T17:07:00.585Z</time></trkpt><trkpt lat="44.3319263" lon="7.4884648"><ele>636.0</ele><time>2026-04-18T17:07:01.584Z</time></trkpt><trkpt lat="44.3319093" lon="7.4883519"><ele>636.0</ele><time>2026-04-18T17:07:02.584Z</time></trkpt><trkpt lat="44.3318895" lon="7.4882473"><ele>636.0</ele><time>2026-04-18T17:07:03.584Z</time></trkpt><trkpt lat="44.3318639" lon="7.4881445"><ele>636.0</ele><time>2026-04-18T17:07:04.584Z</time></trkpt><trkpt lat="44.3318335" lon="7.4880463"><ele>636.0</ele><time>2026-04-18T17:07:05.583Z</time></trkpt><trkpt lat="44.3317994" lon="7.4879581"><ele>636.0</ele><time>2026-04-18T17:07:06.585Z</time></trkpt><trkpt lat="44.3317529" lon="7.4878702"><ele>636.5</ele><time>2026-04-18T17:07:07.583Z</time></trkpt><trkpt lat="44.3317082" lon="7.4877832"><ele>637.0</ele><time>2026-04-18T17:07:08.584Z</time></trkpt><trkpt lat="44.331666" lon="7.4877154"><ele>637.5</ele><time>2026-04-18T17:07:09.583Z</time></trkpt><trkpt lat="44.3316246" lon="7.4876262"><ele>638.0</ele><time>2026-04-18T17:07:10.585Z</time></trkpt><trkpt lat="44.3315818" lon="7.4875557"><ele>638.5</ele><time>2026-04-18T17:07:11.583Z</time></trkpt><trkpt lat="44.3315362" lon="7.487472"><ele>639.0</ele><time>2026-04-18T17:07:12.584Z</time></trkpt><trkpt lat="44.3314741" lon="7.4873655"><ele>639.0</ele><time>2026-04-18T17:07:13.583Z</time></trkpt><trkpt lat="44.331408" lon="7.487231"><ele>639.0</ele><time>2026-04-18T17:07:14.584Z</time></trkpt><trkpt lat="44.3313375" lon="7.4870779"><ele>639.0</ele><time>2026-04-18T17:07:15.585Z</time></trkpt><trkpt lat="44.3312738" lon="7.4869475"><ele>639.0</ele><time>2026-04-18T17:07:16.583Z</time></trkpt><trkpt lat="44.3312133" lon="7.4868151"><ele>639.75</ele><time>2026-04-18T17:07:17.583Z</time></trkpt><trkpt lat="44.3311545" lon="7.4867017"><ele>640.5</ele><time>2026-04-18T17:07:18.584Z</time></trkpt><trkpt lat="44.3310966" lon="7.4865823"><ele>641.25</ele><time>2026-04-18T17:07:19.584Z</time></trkpt><trkpt lat="44.3310318" lon="7.4864416"><ele>642.0</ele><time>2026-04-18T17:07:20.583Z</time></trkpt><trkpt lat="44.3309688" lon="7.4862825"><ele>641.75</ele><time>2026-04-18T17:07:21.584Z</time></trkpt><trkpt lat="44.3309091" lon="7.4861137"><ele>641.5</ele><time>2026-04-18T17:07:22.583Z</time></trkpt><trkpt lat="44.3308484" lon="7.4859418"><ele>641.25</ele><time>2026-04-18T17:07:23.583Z</time></trkpt><trkpt lat="44.3307808" lon="7.4857785"><ele>641.0</ele><time>2026-04-18T17:07:24.583Z</time></trkpt><trkpt lat="44.3307064" lon="7.4856007"><ele>641.0</ele><time>2026-04-18T17:07:25.583Z</time></trkpt><trkpt lat="44.3306323" lon="7.4854059"><ele>641.0</ele><time>2026-04-18T17:07:26.584Z</time></trkpt><trkpt lat="44.3305641" lon="7.4852176"><ele>641.0</ele><time>2026-04-18T17:07:27.584Z</time></trkpt><trkpt lat="44.3305074" lon="7.4850463"><ele>641.0</ele><time>2026-04-18T17:07:28.583Z</time></trkpt><trkpt lat="44.3304539" lon="7.4849062"><ele>641.0</ele><time>2026-04-18T17:07:29.583Z</time></trkpt><trkpt lat="44.3304043" lon="7.4847915"><ele>641.0</ele><time>2026-04-18T17:07:30.584Z</time></trkpt><trkpt lat="44.3303569" lon="7.4846884"><ele>641.0</ele><time>2026-04-18T17:07:31.584Z</time></trkpt><trkpt lat="44.3303115" lon="7.4845986"><ele>641.0</ele><time>2026-04-18T17:07:32.584Z</time></trkpt><trkpt lat="44.3302617" lon="7.4844896"><ele>641.0</ele><time>2026-04-18T17:07:34.583Z</time></trkpt><trkpt lat="44.3302333" lon="7.4843884"><ele>641.0</ele><time>2026-04-18T17:07:36.583Z</time></trkpt><trkpt lat="44.3302038" lon="7.4842708"><ele>641.1999999999999</ele><time>2026-04-18T17:07:38.583Z</time></trkpt><trkpt lat="44.3301334" lon="7.4842337"><ele>641.4</ele><time>2026-04-18T17:07:40.584Z</time></trkpt><trkpt lat="44.3300791" lon="7.4842969"><ele>641.6</ele><time>2026-04-18T17:07:42.585Z</time></trkpt><trkpt lat="44.3300073" lon="7.4843966"><ele>641.8</ele><time>2026-04-18T17:07:43.583Z</time></trkpt><trkpt lat="44.3298979" lon="7.4845206"><ele>642.0</ele><time>2026-04-18T17:07:45.585Z</time></trkpt><trkpt lat="44.3298377" lon="7.4845774"><ele>641.8</ele><time>2026-04-18T17:07:46.584Z</time></trkpt><trkpt lat="44.3297576" lon="7.4846094"><ele>641.6</ele><time>2026-04-18T17:07:47.585Z</time></trkpt><trkpt lat="44.3296512" lon="7.4845451"><ele>641.4</ele><time>2026-04-18T17:07:48.585Z</time></trkpt><trkpt lat="44.3295173" lon="7.4845787"><ele>641.1999999999999</ele><time>2026-04-18T17:07:50.584Z</time></trkpt><trkpt lat="44.3294525" lon="7.4845852"><ele>641.0</ele><time>2026-04-18T17:07:51.584Z</time></trkpt><trkpt lat="44.329383" lon="7.4846421"><ele>641.0</ele><time>2026-04-18T17:07:52.584Z</time></trkpt><trkpt lat="44.3293048" lon="7.4846924"><ele>641.0</ele><time>2026-04-18T17:07:53.583Z</time></trkpt><trkpt lat="44.3292427" lon="7.4847379"><ele>641.0</ele><time>2026-04-18T17:07:54.583Z</time></trkpt><trkpt lat="44.3291802" lon="7.4847771"><ele>641.0</ele><time>2026-04-18T17:07:55.583Z</time></trkpt><trkpt lat="44.3291201" lon="7.4848224"><ele>641.0</ele><time>2026-04-18T17:07:56.584Z</time></trkpt><trkpt lat="44.3290561" lon="7.4848654"><ele>641.0</ele><time>2026-04-18T17:07:57.583Z</time></trkpt><trkpt lat="44.3289956" lon="7.4849918"><ele>641.0</ele><time>2026-04-18T17:07:59.583Z</time></trkpt><trkpt lat="44.328941" lon="7.4850842"><ele>641.0</ele><time>2026-04-18T17:08:01.583Z</time></trkpt><trkpt lat="44.3289327" lon="7.4851756"><ele>641.0</ele><time>2026-04-18T17:08:38.584Z</time></trkpt><trkpt lat="44.3288315" lon="7.4853203"><ele>641.0</ele><time>2026-04-18T17:08:40.583Z</time></trkpt><trkpt lat="44.3287196" lon="7.4853106"><ele>641.0</ele><time>2026-04-18T17:08:42.584Z</time></trkpt><trkpt lat="44.3286697" lon="7.4852268"><ele>641.5999999999999</ele><time>2026-04-18T17:08:43.583Z</time></trkpt><trkpt lat="44.3286095" lon="7.4851539"><ele>642.2</ele><time>2026-04-18T17:08:44.585Z</time></trkpt><trkpt lat="44.3285284" lon="7.4850789"><ele>642.8</ele><time>2026-04-18T17:08:45.584Z</time></trkpt><trkpt lat="44.3284556" lon="7.4850047"><ele>643.4000000000001</ele><time>2026-04-18T17:08:46.583Z</time></trkpt><trkpt lat="44.3284002" lon="7.4849098"><ele>644.0</ele><time>2026-04-18T17:08:47.584Z</time></trkpt><trkpt lat="44.3283636" lon="7.4847838"><ele>644.0</ele><time>2026-04-18T17:08:48.584Z</time></trkpt><trkpt lat="44.3283241" lon="7.4846528"><ele>644.0</ele><time>2026-04-18T17:08:49.583Z</time></trkpt><trkpt lat="44.3282665" lon="7.4845254"><ele>644.0</ele><time>2026-04-18T17:08:50.584Z</time></trkpt><trkpt lat="44.3282129" lon="7.4844116"><ele>644.0</ele><time>2026-04-18T17:08:51.583Z</time></trkpt><trkpt lat="44.3281708" lon="7.4843133"><ele>644.0</ele><time>2026-04-18T17:08:52.584Z</time></trkpt><trkpt lat="44.3281291" lon="7.4842266"><ele>644.3333333333333</ele><time>2026-04-18T17:08:53.584Z</time></trkpt><trkpt lat="44.3280812" lon="7.4841424"><ele>644.6666666666666</ele><time>2026-04-18T17:08:54.584Z</time></trkpt><trkpt lat="44.3280399" lon="7.4840653"><ele>645.0</ele><time>2026-04-18T17:08:55.584Z</time></trkpt><trkpt lat="44.3279618" lon="7.4839388"><ele>645.3333333333334</ele><time>2026-04-18T17:08:57.584Z</time></trkpt><trkpt lat="44.3279197" lon="7.4838667"><ele>645.6666666666667</ele><time>2026-04-18T17:08:58.584Z</time></trkpt><trkpt lat="44.3278806" lon="7.4837809"><ele>646.0</ele><time>2026-04-18T17:08:59.584Z</time></trkpt><trkpt lat="44.3278523" lon="7.4836994"><ele>651.4</ele><time>2026-04-18T17:09:00.584Z</time></trkpt><trkpt lat="44.3278285" lon="7.4836125"><ele>656.8</ele><time>2026-04-18T17:09:01.583Z</time></trkpt><trkpt lat="44.3277866" lon="7.4835366"><ele>662.1999999999999</ele><time>2026-04-18T17:09:02.583Z</time></trkpt><trkpt lat="44.3277255" lon="7.4834525"><ele>667.5999999999999</ele><time>2026-04-18T17:09:03.584Z</time></trkpt><trkpt lat="44.3276562" lon="7.4833328"><ele>673.0</ele><time>2026-04-18T17:09:04.583Z</time></trkpt><trkpt lat="44.3275566" lon="7.4832329"><ele>673.0</ele><time>2026-04-18T17:09:05.584Z</time></trkpt><trkpt lat="44.3274506" lon="7.4831044"><ele>673.0</ele><time>2026-04-18T17:09:06.583Z</time></trkpt><trkpt lat="44.3273505" lon="7.4829311"><ele>673.0</ele><time>2026-04-18T17:09:07.584Z</time></trkpt><trkpt lat="44.3272313" lon="7.4827685"><ele>677.6666666666667</ele><time>2026-04-18T17:09:08.584Z</time></trkpt><trkpt lat="44.3271204" lon="7.482602"><ele>682.3333333333334</ele><time>2026-04-18T17:09:09.584Z</time></trkpt><trkpt lat="44.3270198" lon="7.4824168"><ele>687.0</ele><time>2026-04-18T17:09:10.583Z</time></trkpt><trkpt lat="44.326943" lon="7.4822246"><ele>689.5</ele><time>2026-04-18T17:09:11.583Z</time></trkpt><trkpt lat="44.3269099" lon="7.4820282"><ele>692.0</ele><time>2026-04-18T17:09:12.585Z</time></trkpt><trkpt lat="44.3269316" lon="7.4818303"><ele>694.5</ele><time>2026-04-18T17:09:13.583Z</time></trkpt><trkpt lat="44.326975" lon="7.4816506"><ele>697.0</ele><time>2026-04-18T17:09:14.584Z</time></trkpt><trkpt lat="44.3270078" lon="7.4814686"><ele>699.0</ele><time>2026-04-18T17:09:15.583Z</time></trkpt><trkpt lat="44.3270271" lon="7.4812426"><ele>701.0</ele><time>2026-04-18T17:09:16.583Z</time></trkpt><trkpt lat="44.32705" lon="7.4810217"><ele>703.0</ele><time>2026-04-18T17:09:17.583Z</time></trkpt><trkpt lat="44.3270349" lon="7.4808131"><ele>703.0</ele><time>2026-04-18T17:09:18.584Z</time></trkpt><trkpt lat="44.327031" lon="7.4805977"><ele>703.0</ele><time>2026-04-18T17:09:19.584Z</time></trkpt><trkpt lat="44.3269236" lon="7.4804171"><ele>703.0</ele><time>2026-04-18T17:09:20.583Z</time></trkpt><trkpt lat="44.326809" lon="7.4802259"><ele>700.3333333333334</ele><time>2026-04-18T17:09:21.585Z</time></trkpt><trkpt lat="44.3266783" lon="7.4800456"><ele>697.6666666666666</ele><time>2026-04-18T17:09:22.583Z</time></trkpt><trkpt lat="44.3265426" lon="7.4798541"><ele>695.0</ele><time>2026-04-18T17:09:23.584Z</time></trkpt><trkpt lat="44.3264155" lon="7.4796545"><ele>705.0</ele><time>2026-04-18T17:09:24.584Z</time></trkpt><trkpt lat="44.3262842" lon="7.4794551"><ele>715.0</ele><time>2026-04-18T17:09:25.585Z</time></trkpt><trkpt lat="44.3262225" lon="7.4791548"><ele>725.0</ele><time>2026-04-18T17:09:26.584Z</time></trkpt><trkpt lat="44.3261498" lon="7.4788925"><ele>725.0</ele><time>2026-04-18T17:09:27.584Z</time></trkpt><trkpt lat="44.3261249" lon="7.4786055"><ele>725.0</ele><time>2026-04-18T17:09:28.584Z</time></trkpt><trkpt lat="44.3261439" lon="7.4783515"><ele>725.0</ele><time>2026-04-18T17:09:29.584Z</time></trkpt><trkpt lat="44.3261513" lon="7.4780959"><ele>728.3333333333333</ele><time>2026-04-18T17:09:30.584Z</time></trkpt><trkpt lat="44.3261777" lon="7.4778879"><ele>731.6666666666666</ele><time>2026-04-18T17:09:31.584Z</time></trkpt><trkpt lat="44.3262546" lon="7.4776955"><ele>735.0</ele><time>2026-04-18T17:09:32.585Z</time></trkpt><trkpt lat="44.3262799" lon="7.4774693"><ele>735.0</ele><time>2026-04-18T17:09:33.583Z</time></trkpt><trkpt lat="44.3263376" lon="7.477242"><ele>735.0</ele><time>2026-04-18T17:09:34.584Z</time></trkpt><trkpt lat="44.3264483" lon="7.4770254"><ele>735.0</ele><time>2026-04-18T17:09:35.585Z</time></trkpt><trkpt lat="44.3265377" lon="7.4767978"><ele>733.3333333333334</ele><time>2026-04-18T17:09:36.585Z</time></trkpt><trkpt lat="44.3266471" lon="7.4765692"><ele>731.6666666666667</ele><time>2026-04-18T17:09:37.584Z</time></trkpt><trkpt lat="44.3267566" lon="7.4763692"><ele>730.0</ele><time>2026-04-18T17:09:38.583Z</time></trkpt><trkpt lat="44.3268275" lon="7.4761641"><ele>732.8</ele><time>2026-04-18T17:09:39.584Z</time></trkpt><trkpt lat="44.3268796" lon="7.4759759"><ele>735.6</ele><time>2026-04-18T17:09:40.584Z</time></trkpt><trkpt lat="44.3269025" lon="7.4758086"><ele>738.4000000000001</ele><time>2026-04-18T17:09:41.585Z</time></trkpt><trkpt lat="44.3269223" lon="7.4756629"><ele>741.2</ele><time>2026-04-18T17:09:42.583Z</time></trkpt><trkpt lat="44.3269262" lon="7.4755555"><ele>744.0</ele><time>2026-04-18T17:09:43.583Z</time></trkpt><trkpt lat="44.3268398" lon="7.475642"><ele>744.0</ele><time>2026-04-18T17:09:46.584Z</time></trkpt><trkpt lat="44.3268055" lon="7.4757988"><ele>744.0</ele><time>2026-04-18T17:09:48.584Z</time></trkpt><trkpt lat="44.3267257" lon="7.4758947"><ele>744.0</ele><time>2026-04-18T17:09:49.583Z</time></trkpt><trkpt lat="44.3266545" lon="7.4759473"><ele>744.0</ele><time>2026-04-18T17:09:50.583Z</time></trkpt><trkpt lat="44.326596" lon="7.4760013"><ele>744.0</ele><time>2026-04-18T17:09:51.584Z</time></trkpt><trkpt lat="44.3265397" lon="7.4760585"><ele>744.0</ele><time>2026-04-18T17:09:52.583Z</time></trkpt><trkpt lat="44.3264795" lon="7.4761028"><ele>744.0</ele><time>2026-04-18T17:09:53.585Z</time></trkpt><trkpt lat="44.3264158" lon="7.4761714"><ele>744.0</ele><time>2026-04-18T17:09:54.583Z</time></trkpt><trkpt lat="44.3263678" lon="7.4762667"><ele>744.0</ele><time>2026-04-18T17:09:55.583Z</time></trkpt><trkpt lat="44.3262917" lon="7.4764175"><ele>744.0</ele><time>2026-04-18T17:09:57.584Z</time></trkpt><trkpt lat="44.3262501" lon="7.4764886"><ele>744.0</ele><time>2026-04-18T17:09:58.584Z</time></trkpt><trkpt lat="44.32619" lon="7.4766393"><ele>741.0</ele><time>2026-04-18T17:09:59.583Z</time></trkpt><trkpt lat="44.3260726" lon="7.4768643"><ele>738.0</ele><time>2026-04-18T17:10:00.584Z</time></trkpt><trkpt lat="44.3259908" lon="7.4770303"><ele>735.0</ele><time>2026-04-18T17:10:01.584Z</time></trkpt><trkpt lat="44.3259231" lon="7.4771848"><ele>735.0</ele><time>2026-04-18T17:10:02.584Z</time></trkpt><trkpt lat="44.3258438" lon="7.4773568"><ele>735.0</ele><time>2026-04-18T17:10:03.583Z</time></trkpt><trkpt lat="44.3257785" lon="7.477481"><ele>735.0</ele><time>2026-04-18T17:10:04.584Z</time></trkpt><trkpt lat="44.3257106" lon="7.4776245"><ele>735.0</ele><time>2026-04-18T17:10:05.583Z</time></trkpt><trkpt lat="44.3256512" lon="7.477768"><ele>735.0</ele><time>2026-04-18T17:10:06.584Z</time></trkpt><trkpt lat="44.3256118" lon="7.4779226"><ele>735.0</ele><time>2026-04-18T17:10:07.584Z</time></trkpt><trkpt lat="44.3256337" lon="7.4781115"><ele>735.0</ele><time>2026-04-18T17:10:08.584Z</time></trkpt><trkpt lat="44.3256284" lon="7.4783089"><ele>735.0</ele><time>2026-04-18T17:10:09.584Z</time></trkpt><trkpt lat="44.325697" lon="7.4785324"><ele>732.5</ele><time>2026-04-18T17:10:10.586Z</time></trkpt><trkpt lat="44.3257274" lon="7.4787194"><ele>730.0</ele><time>2026-04-18T17:10:11.585Z</time></trkpt><trkpt lat="44.3257512" lon="7.4789114"><ele>727.5</ele><time>2026-04-18T17:10:12.585Z</time></trkpt><trkpt lat="44.3257526" lon="7.4790459"><ele>725.0</ele><time>2026-04-18T17:10:13.584Z</time></trkpt><trkpt lat="44.3257481" lon="7.4792063"><ele>725.0</ele><time>2026-04-18T17:10:14.584Z</time></trkpt><trkpt lat="44.3257263" lon="7.4793393"><ele>725.0</ele><time>2026-04-18T17:10:15.584Z</time></trkpt><trkpt lat="44.3256686" lon="7.4794329"><ele>725.0</ele><time>2026-04-18T17:10:16.584Z</time></trkpt><trkpt lat="44.3256354" lon="7.4795268"><ele>725.0</ele><time>2026-04-18T17:10:17.586Z</time></trkpt><trkpt lat="44.3256079" lon="7.4796168"><ele>725.0</ele><time>2026-04-18T17:10:18.585Z</time></trkpt><trkpt lat="44.3255791" lon="7.4797674"><ele>725.0</ele><time>2026-04-18T17:10:20.585Z</time></trkpt><trkpt lat="44.3255857" lon="7.4798895"><ele>724.0</ele><time>2026-04-18T17:10:23.584Z</time></trkpt><trkpt lat="44.3255188" lon="7.479975"><ele>691.0</ele><time>2026-04-18T17:10:26.585Z</time></trkpt><trkpt lat="44.3254424" lon="7.4799819"><ele>691.0</ele><time>2026-04-18T17:10:38.585Z</time></trkpt><trkpt lat="44.325515" lon="7.4799904"><ele>691.0</ele><time>2026-04-18T17:11:38.585Z</time></trkpt><trkpt lat="44.3255812" lon="7.4799458"><ele>724.0</ele><time>2026-04-18T17:12:29.584Z</time></trkpt><trkpt lat="44.325555" lon="7.4798464"><ele>691.0</ele><time>2026-04-18T17:12:35.586Z</time></trkpt></trkseg></trk></gpx>